<?xml version='1.0' encoding='UTF-8'?><gpx version="1.1" creator="JPX - https://github.com/jenetics/jpx" xmlns="http://www.topografix.com/GPX/1/1"><trk><trkseg><trkpt lat="53.6444988" lon="-1.8460917"><ele>183.0</ele><time>2026-04-26T08:50:05.863Z</time></trkpt><trkpt lat="53.6444483" lon="-1.8461715"><ele>183.0</ele><time>2026-04-26T08:50:17.861Z</time></trkpt><trkpt lat="53.6443871" lon="-1.8461462"><ele>183.0</ele><time>2026-04-26T08:51:33.868Z</time></trkpt><trkpt lat="53.6442993" lon="-1.846162"><ele>183.0</ele><time>2026-04-26T08:54:39.862Z</time></trkpt><trkpt lat="53.6442636" lon="-1.8462557"><ele>183.0</ele><time>2026-04-26T08:54:41.867Z</time></trkpt><trkpt lat="53.6442307" lon="-1.8463926"><ele>183.0</ele><time>2026-04-26T08:54:43.87Z</time></trkpt><trkpt lat="53.6441885" lon="-1.8465806"><ele>183.0</ele><time>2026-04-26T08:54:45.868Z</time></trkpt><trkpt lat="53.6441591" lon="-1.8466774"><ele>183.0</ele><time>2026-04-26T08:54:46.87Z</time></trkpt><trkpt lat="53.6441099" lon="-1.8468657"><ele>183.0</ele><time>2026-04-26T08:54:48.867Z</time></trkpt><trkpt lat="53.6440889" lon="-1.8469675"><ele>183.0</ele><time>2026-04-26T08:54:49.868Z</time></trkpt><trkpt lat="53.6440653" lon="-1.8470702"><ele>183.0</ele><time>2026-04-26T08:54:50.868Z</time></trkpt><trkpt lat="53.6440193" lon="-1.8472025"><ele>183.0</ele><time>2026-04-26T08:54:52.866Z</time></trkpt><trkpt lat="53.6439816" lon="-1.8472984"><ele>183.60000000000002</ele><time>2026-04-26T08:54:54.866Z</time></trkpt><trkpt lat="53.6439594" lon="-1.8474285"><ele>184.20000000000002</ele><time>2026-04-26T08:54:56.865Z</time></trkpt><trkpt lat="53.6439497" lon="-1.8475723"><ele>184.8</ele><time>2026-04-26T08:54:58.867Z</time></trkpt><trkpt lat="53.6439472" lon="-1.8477095"><ele>185.4</ele><time>2026-04-26T08:55:00.868Z</time></trkpt><trkpt lat="53.6439674" lon="-1.8478417"><ele>186.0</ele><time>2026-04-26T08:55:02.87Z</time></trkpt><trkpt lat="53.6440864" lon="-1.8479377"><ele>186.33333333333334</ele><time>2026-04-26T08:55:04.871Z</time></trkpt><trkpt lat="53.6441689" lon="-1.8479547"><ele>186.66666666666666</ele><time>2026-04-26T08:55:05.871Z</time></trkpt><trkpt lat="53.6442504" lon="-1.8479935"><ele>187.0</ele><time>2026-04-26T08:55:06.874Z</time></trkpt><trkpt lat="53.6443255" lon="-1.84804"><ele>187.33333333333331</ele><time>2026-04-26T08:55:07.872Z</time></trkpt><trkpt lat="53.6443831" lon="-1.8480854"><ele>187.66666666666666</ele><time>2026-04-26T08:55:08.871Z</time></trkpt><trkpt lat="53.6444677" lon="-1.8481544"><ele>188.0</ele><time>2026-04-26T08:55:10.869Z</time></trkpt><trkpt lat="53.6445269" lon="-1.8482111"><ele>188.0</ele><time>2026-04-26T08:55:14.87Z</time></trkpt><trkpt lat="53.6445942" lon="-1.8482127"><ele>188.0</ele><time>2026-04-26T08:55:21.87Z</time></trkpt><trkpt lat="53.6446643" lon="-1.8480038"><ele>188.0</ele><time>2026-04-26T08:55:23.873Z</time></trkpt><trkpt lat="53.6447007" lon="-1.8478227"><ele>188.0</ele><time>2026-04-26T08:55:24.867Z</time></trkpt><trkpt lat="53.6447437" lon="-1.8476583"><ele>188.0</ele><time>2026-04-26T08:55:25.869Z</time></trkpt><trkpt lat="53.6447832" lon="-1.8475166"><ele>187.4</ele><time>2026-04-26T08:55:26.869Z</time></trkpt><trkpt lat="53.6448163" lon="-1.8473834"><ele>186.8</ele><time>2026-04-26T08:55:27.868Z</time></trkpt><trkpt lat="53.6448491" lon="-1.8472206"><ele>186.2</ele><time>2026-04-26T08:55:28.868Z</time></trkpt><trkpt lat="53.6448862" lon="-1.8470157"><ele>185.6</ele><time>2026-04-26T08:55:29.87Z</time></trkpt><trkpt lat="53.6449256" lon="-1.8468007"><ele>185.0</ele><time>2026-04-26T08:55:30.87Z</time></trkpt><trkpt lat="53.6449681" lon="-1.8465883"><ele>184.5</ele><time>2026-04-26T08:55:31.87Z</time></trkpt><trkpt lat="53.6450107" lon="-1.846391"><ele>184.0</ele><time>2026-04-26T08:55:32.873Z</time></trkpt><trkpt lat="53.6450497" lon="-1.8462052"><ele>183.5</ele><time>2026-04-26T08:55:33.876Z</time></trkpt><trkpt lat="53.6450824" lon="-1.8460356"><ele>183.0</ele><time>2026-04-26T08:55:34.874Z</time></trkpt><trkpt lat="53.6451151" lon="-1.8458614"><ele>182.4</ele><time>2026-04-26T08:55:35.874Z</time></trkpt><trkpt lat="53.6451461" lon="-1.8456851"><ele>181.8</ele><time>2026-04-26T08:55:36.871Z</time></trkpt><trkpt lat="53.6451713" lon="-1.8455136"><ele>181.2</ele><time>2026-04-26T08:55:37.871Z</time></trkpt><trkpt lat="53.6451963" lon="-1.8453533"><ele>180.6</ele><time>2026-04-26T08:55:38.871Z</time></trkpt><trkpt lat="53.6452212" lon="-1.8451986"><ele>180.0</ele><time>2026-04-26T08:55:39.873Z</time></trkpt><trkpt lat="53.6452416" lon="-1.8450366"><ele>179.5</ele><time>2026-04-26T08:55:40.873Z</time></trkpt><trkpt lat="53.6452597" lon="-1.8448721"><ele>179.0</ele><time>2026-04-26T08:55:41.868Z</time></trkpt><trkpt lat="53.6452797" lon="-1.8447167"><ele>178.5</ele><time>2026-04-26T08:55:42.867Z</time></trkpt><trkpt lat="53.645296" lon="-1.8445767"><ele>178.0</ele><time>2026-04-26T08:55:43.872Z</time></trkpt><trkpt lat="53.6453042" lon="-1.8444486"><ele>177.5</ele><time>2026-04-26T08:55:44.869Z</time></trkpt><trkpt lat="53.6453034" lon="-1.8443229"><ele>177.0</ele><time>2026-04-26T08:55:45.869Z</time></trkpt><trkpt lat="53.6452953" lon="-1.8441739"><ele>176.66666666666666</ele><time>2026-04-26T08:55:46.87Z</time></trkpt><trkpt lat="53.6452807" lon="-1.844021"><ele>176.33333333333334</ele><time>2026-04-26T08:55:47.87Z</time></trkpt><trkpt lat="53.645264" lon="-1.8438733"><ele>176.0</ele><time>2026-04-26T08:55:48.868Z</time></trkpt><trkpt lat="53.6452477" lon="-1.84373"><ele>175.66666666666669</ele><time>2026-04-26T08:55:49.868Z</time></trkpt><trkpt lat="53.6452328" lon="-1.8435864"><ele>175.33333333333334</ele><time>2026-04-26T08:55:50.869Z</time></trkpt><trkpt lat="53.6452226" lon="-1.8434461"><ele>175.0</ele><time>2026-04-26T08:55:51.869Z</time></trkpt><trkpt lat="53.6452145" lon="-1.843312"><ele>174.33333333333334</ele><time>2026-04-26T08:55:52.87Z</time></trkpt><trkpt lat="53.6452115" lon="-1.8431857"><ele>173.66666666666669</ele><time>2026-04-26T08:55:53.873Z</time></trkpt><trkpt lat="53.6452125" lon="-1.8430709"><ele>173.0</ele><time>2026-04-26T08:55:54.869Z</time></trkpt><trkpt lat="53.6452147" lon="-1.8429598"><ele>172.33333333333334</ele><time>2026-04-26T08:55:55.867Z</time></trkpt><trkpt lat="53.6452196" lon="-1.8428378"><ele>171.66666666666666</ele><time>2026-04-26T08:55:56.871Z</time></trkpt><trkpt lat="53.6452339" lon="-1.8426863"><ele>171.0</ele><time>2026-04-26T08:55:57.87Z</time></trkpt><trkpt lat="53.6452631" lon="-1.8424916"><ele>169.66666666666666</ele><time>2026-04-26T08:55:58.87Z</time></trkpt><trkpt lat="53.6453132" lon="-1.842263"><ele>168.33333333333331</ele><time>2026-04-26T08:55:59.871Z</time></trkpt><trkpt lat="53.6453826" lon="-1.8420091"><ele>167.0</ele><time>2026-04-26T08:56:00.87Z</time></trkpt><trkpt lat="53.6454559" lon="-1.8417401"><ele>166.0</ele><time>2026-04-26T08:56:01.874Z</time></trkpt><trkpt lat="53.6455268" lon="-1.8414728"><ele>165.0</ele><time>2026-04-26T08:56:02.874Z</time></trkpt><trkpt lat="53.6455892" lon="-1.841224"><ele>164.0</ele><time>2026-04-26T08:56:03.876Z</time></trkpt><trkpt lat="53.6456441" lon="-1.8409853"><ele>163.66666666666666</ele><time>2026-04-26T08:56:04.874Z</time></trkpt><trkpt lat="53.6456882" lon="-1.8407414"><ele>163.33333333333334</ele><time>2026-04-26T08:56:05.873Z</time></trkpt><trkpt lat="53.6457282" lon="-1.8404966"><ele>163.0</ele><time>2026-04-26T08:56:06.873Z</time></trkpt><trkpt lat="53.6457657" lon="-1.8402536"><ele>162.0</ele><time>2026-04-26T08:56:07.873Z</time></trkpt><trkpt lat="53.6458035" lon="-1.8400143"><ele>161.0</ele><time>2026-04-26T08:56:08.874Z</time></trkpt><trkpt lat="53.645841" lon="-1.8397811"><ele>160.0</ele><time>2026-04-26T08:56:09.874Z</time></trkpt><trkpt lat="53.645884" lon="-1.8395578"><ele>159.0</ele><time>2026-04-26T08:56:10.875Z</time></trkpt><trkpt lat="53.6459398" lon="-1.8393455"><ele>157.75</ele><time>2026-04-26T08:56:11.87Z</time></trkpt><trkpt lat="53.6460085" lon="-1.8391399"><ele>156.5</ele><time>2026-04-26T08:56:12.869Z</time></trkpt><trkpt lat="53.6460723" lon="-1.8389181"><ele>155.25</ele><time>2026-04-26T08:56:13.872Z</time></trkpt><trkpt lat="53.6461271" lon="-1.8386906"><ele>154.0</ele><time>2026-04-26T08:56:14.868Z</time></trkpt><trkpt lat="53.6461736" lon="-1.8384638"><ele>152.75</ele><time>2026-04-26T08:56:15.867Z</time></trkpt><trkpt lat="53.6461961" lon="-1.8382393"><ele>151.5</ele><time>2026-04-26T08:56:16.866Z</time></trkpt><trkpt lat="53.6462019" lon="-1.838014"><ele>150.25</ele><time>2026-04-26T08:56:17.867Z</time></trkpt><trkpt lat="53.6462005" lon="-1.8377985"><ele>149.0</ele><time>2026-04-26T08:56:18.868Z</time></trkpt><trkpt lat="53.646195" lon="-1.8376025"><ele>148.6</ele><time>2026-04-26T08:56:19.87Z</time></trkpt><trkpt lat="53.6461908" lon="-1.8374236"><ele>148.2</ele><time>2026-04-26T08:56:20.868Z</time></trkpt><trkpt lat="53.6461901" lon="-1.8372885"><ele>147.79999999999998</ele><time>2026-04-26T08:56:21.867Z</time></trkpt><trkpt lat="53.6461915" lon="-1.8371621"><ele>147.4</ele><time>2026-04-26T08:56:22.866Z</time></trkpt><trkpt lat="53.6461904" lon="-1.8370087"><ele>147.0</ele><time>2026-04-26T08:56:23.865Z</time></trkpt><trkpt lat="53.6461689" lon="-1.8368195"><ele>147.33333333333334</ele><time>2026-04-26T08:56:24.868Z</time></trkpt><trkpt lat="53.6461304" lon="-1.8365909"><ele>147.66666666666669</ele><time>2026-04-26T08:56:25.867Z</time></trkpt><trkpt lat="53.6460816" lon="-1.8363291"><ele>148.0</ele><time>2026-04-26T08:56:26.866Z</time></trkpt><trkpt lat="53.6460355" lon="-1.8360774"><ele>144.25</ele><time>2026-04-26T08:56:27.868Z</time></trkpt><trkpt lat="53.6459835" lon="-1.8358449"><ele>140.5</ele><time>2026-04-26T08:56:28.87Z</time></trkpt><trkpt lat="53.6459278" lon="-1.8356321"><ele>136.75</ele><time>2026-04-26T08:56:29.868Z</time></trkpt><trkpt lat="53.6458691" lon="-1.8354314"><ele>133.0</ele><time>2026-04-26T08:56:30.868Z</time></trkpt><trkpt lat="53.6458079" lon="-1.8352294"><ele>133.25</ele><time>2026-04-26T08:56:31.871Z</time></trkpt><trkpt lat="53.6457511" lon="-1.8350196"><ele>133.5</ele><time>2026-04-26T08:56:32.872Z</time></trkpt><trkpt lat="53.6457019" lon="-1.8348003"><ele>133.75</ele><time>2026-04-26T08:56:33.873Z</time></trkpt><trkpt lat="53.6456528" lon="-1.834577"><ele>134.0</ele><time>2026-04-26T08:56:34.869Z</time></trkpt><trkpt lat="53.645613" lon="-1.8343363"><ele>134.75</ele><time>2026-04-26T08:56:35.87Z</time></trkpt><trkpt lat="53.6455977" lon="-1.8340823"><ele>135.5</ele><time>2026-04-26T08:56:36.871Z</time></trkpt><trkpt lat="53.6456025" lon="-1.8338319"><ele>136.25</ele><time>2026-04-26T08:56:37.87Z</time></trkpt><trkpt lat="53.6456149" lon="-1.8335822"><ele>137.0</ele><time>2026-04-26T08:56:38.871Z</time></trkpt><trkpt lat="53.6456301" lon="-1.8333284"><ele>138.75</ele><time>2026-04-26T08:56:39.862Z</time></trkpt><trkpt lat="53.6456372" lon="-1.8330735"><ele>140.5</ele><time>2026-04-26T08:56:40.87Z</time></trkpt><trkpt lat="53.6456403" lon="-1.83282"><ele>142.25</ele><time>2026-04-26T08:56:41.866Z</time></trkpt><trkpt lat="53.6456469" lon="-1.8325861"><ele>144.0</ele><time>2026-04-26T08:56:42.865Z</time></trkpt><trkpt lat="53.6456665" lon="-1.8323681"><ele>145.2</ele><time>2026-04-26T08:56:43.871Z</time></trkpt><trkpt lat="53.645707" lon="-1.832174"><ele>146.4</ele><time>2026-04-26T08:56:44.864Z</time></trkpt><trkpt lat="53.6457661" lon="-1.8320085"><ele>147.6</ele><time>2026-04-26T08:56:45.863Z</time></trkpt><trkpt lat="53.6458198" lon="-1.8318678"><ele>148.8</ele><time>2026-04-26T08:56:46.857Z</time></trkpt><trkpt lat="53.645839" lon="-1.8317489"><ele>150.0</ele><time>2026-04-26T08:56:47.866Z</time></trkpt><trkpt lat="53.6458135" lon="-1.8316309"><ele>150.5</ele><time>2026-04-26T08:56:48.864Z</time></trkpt><trkpt lat="53.6457786" lon="-1.831523"><ele>151.0</ele><time>2026-04-26T08:56:49.864Z</time></trkpt><trkpt lat="53.6457577" lon="-1.8314223"><ele>151.5</ele><time>2026-04-26T08:56:51.867Z</time></trkpt><trkpt lat="53.6458256" lon="-1.8314653"><ele>152.0</ele><time>2026-04-26T08:56:53.868Z</time></trkpt><trkpt lat="53.645895" lon="-1.8315596"><ele>152.5</ele><time>2026-04-26T08:56:54.865Z</time></trkpt><trkpt lat="53.6459717" lon="-1.8316666"><ele>153.0</ele><time>2026-04-26T08:56:55.867Z</time></trkpt><trkpt lat="53.6460655" lon="-1.8318039"><ele>157.66666666666666</ele><time>2026-04-26T08:56:56.865Z</time></trkpt><trkpt lat="53.646173" lon="-1.8320016"><ele>162.33333333333331</ele><time>2026-04-26T08:56:57.864Z</time></trkpt><trkpt lat="53.6463052" lon="-1.8322363"><ele>167.0</ele><time>2026-04-26T08:56:58.863Z</time></trkpt><trkpt lat="53.6464532" lon="-1.832508"><ele>164.0</ele><time>2026-04-26T08:56:59.865Z</time></trkpt><trkpt lat="53.6466126" lon="-1.8327784"><ele>161.0</ele><time>2026-04-26T08:57:00.864Z</time></trkpt><trkpt lat="53.6467776" lon="-1.833037"><ele>161.0</ele><time>2026-04-26T08:57:01.871Z</time></trkpt><trkpt lat="53.6469362" lon="-1.8332889"><ele>161.0</ele><time>2026-04-26T08:57:02.869Z</time></trkpt><trkpt lat="53.6470884" lon="-1.8335413"><ele>161.0</ele><time>2026-04-26T08:57:03.87Z</time></trkpt><trkpt lat="53.6472424" lon="-1.8338094"><ele>164.66666666666666</ele><time>2026-04-26T08:57:04.867Z</time></trkpt><trkpt lat="53.6473916" lon="-1.8340786"><ele>168.33333333333334</ele><time>2026-04-26T08:57:05.866Z</time></trkpt><trkpt lat="53.6475394" lon="-1.8343308"><ele>172.0</ele><time>2026-04-26T08:57:06.867Z</time></trkpt><trkpt lat="53.6476835" lon="-1.8346136"><ele>182.0</ele><time>2026-04-26T08:57:07.868Z</time></trkpt><trkpt lat="53.6478332" lon="-1.8348905"><ele>192.0</ele><time>2026-04-26T08:57:08.867Z</time></trkpt><trkpt lat="53.6479965" lon="-1.8351586"><ele>192.0</ele><time>2026-04-26T08:57:09.868Z</time></trkpt><trkpt lat="53.6481513" lon="-1.8354298"><ele>192.0</ele><time>2026-04-26T08:57:10.869Z</time></trkpt><trkpt lat="53.6482928" lon="-1.835688"><ele>192.0</ele><time>2026-04-26T08:57:11.865Z</time></trkpt><trkpt lat="53.6484338" lon="-1.8359521"><ele>189.0</ele><time>2026-04-26T08:57:12.865Z</time></trkpt><trkpt lat="53.6485772" lon="-1.8362269"><ele>186.0</ele><time>2026-04-26T08:57:13.866Z</time></trkpt><trkpt lat="53.6487006" lon="-1.8364904"><ele>183.0</ele><time>2026-04-26T08:57:14.865Z</time></trkpt><trkpt lat="53.6488158" lon="-1.8367327"><ele>190.0</ele><time>2026-04-26T08:57:15.859Z</time></trkpt><trkpt lat="53.6489285" lon="-1.8369504"><ele>197.0</ele><time>2026-04-26T08:57:16.862Z</time></trkpt><trkpt lat="53.6490347" lon="-1.8371351"><ele>204.0</ele><time>2026-04-26T08:57:17.864Z</time></trkpt><trkpt lat="53.6491318" lon="-1.8372779"><ele>204.0</ele><time>2026-04-26T08:57:18.867Z</time></trkpt><trkpt lat="53.6492274" lon="-1.8373989"><ele>204.0</ele><time>2026-04-26T08:57:19.869Z</time></trkpt><trkpt lat="53.6493167" lon="-1.8374838"><ele>204.0</ele><time>2026-04-26T08:57:20.868Z</time></trkpt><trkpt lat="53.6493953" lon="-1.8375328"><ele>204.0</ele><time>2026-04-26T08:57:21.87Z</time></trkpt><trkpt lat="53.6494661" lon="-1.8375882"><ele>204.0</ele><time>2026-04-26T08:57:22.87Z</time></trkpt><trkpt lat="53.6495325" lon="-1.8376663"><ele>206.39999999999998</ele><time>2026-04-26T08:57:23.874Z</time></trkpt><trkpt lat="53.6495992" lon="-1.8377725"><ele>208.8</ele><time>2026-04-26T08:57:24.872Z</time></trkpt><trkpt lat="53.6496718" lon="-1.8379054"><ele>211.20000000000002</ele><time>2026-04-26T08:57:25.871Z</time></trkpt><trkpt lat="53.6497487" lon="-1.8380556"><ele>213.60000000000002</ele><time>2026-04-26T08:57:26.871Z</time></trkpt><trkpt lat="53.6498319" lon="-1.8382286"><ele>216.0</ele><time>2026-04-26T08:57:27.87Z</time></trkpt><trkpt lat="53.6499178" lon="-1.8384128"><ele>214.5</ele><time>2026-04-26T08:57:28.87Z</time></trkpt><trkpt lat="53.6499984" lon="-1.838592"><ele>213.0</ele><time>2026-04-26T08:57:29.868Z</time></trkpt><trkpt lat="53.6500742" lon="-1.8387661"><ele>211.5</ele><time>2026-04-26T08:57:30.869Z</time></trkpt><trkpt lat="53.6501468" lon="-1.8389408"><ele>210.0</ele><time>2026-04-26T08:57:31.872Z</time></trkpt><trkpt lat="53.6502172" lon="-1.8391155"><ele>210.0</ele><time>2026-04-26T08:57:32.875Z</time></trkpt><trkpt lat="53.6502887" lon="-1.8392914"><ele>210.0</ele><time>2026-04-26T08:57:33.866Z</time></trkpt><trkpt lat="53.6503646" lon="-1.8394693"><ele>210.0</ele><time>2026-04-26T08:57:34.873Z</time></trkpt><trkpt lat="53.650444" lon="-1.8396461"><ele>210.0</ele><time>2026-04-26T08:57:35.872Z</time></trkpt><trkpt lat="53.6505332" lon="-1.8398348"><ele>212.33333333333331</ele><time>2026-04-26T08:57:36.874Z</time></trkpt><trkpt lat="53.6506327" lon="-1.8400496"><ele>214.66666666666666</ele><time>2026-04-26T08:57:37.875Z</time></trkpt><trkpt lat="53.6507432" lon="-1.8402886"><ele>217.0</ele><time>2026-04-26T08:57:38.871Z</time></trkpt><trkpt lat="53.6508619" lon="-1.8405468"><ele>217.0</ele><time>2026-04-26T08:57:39.874Z</time></trkpt><trkpt lat="53.6509816" lon="-1.8408103"><ele>217.0</ele><time>2026-04-26T08:57:40.873Z</time></trkpt><trkpt lat="53.6510958" lon="-1.8410716"><ele>217.0</ele><time>2026-04-26T08:57:41.861Z</time></trkpt><trkpt lat="53.6512021" lon="-1.8413242"><ele>219.33333333333331</ele><time>2026-04-26T08:57:42.869Z</time></trkpt><trkpt lat="53.6513021" lon="-1.8415715"><ele>221.66666666666669</ele><time>2026-04-26T08:57:43.874Z</time></trkpt><trkpt lat="53.6514004" lon="-1.8418119"><ele>224.0</ele><time>2026-04-26T08:57:44.87Z</time></trkpt><trkpt lat="53.6515054" lon="-1.8420385"><ele>224.0</ele><time>2026-04-26T08:57:45.87Z</time></trkpt><trkpt lat="53.6516116" lon="-1.8422422"><ele>224.0</ele><time>2026-04-26T08:57:46.869Z</time></trkpt><trkpt lat="53.6517117" lon="-1.8424307"><ele>224.0</ele><time>2026-04-26T08:57:47.869Z</time></trkpt><trkpt lat="53.6518188" lon="-1.8426136"><ele>226.33333333333334</ele><time>2026-04-26T08:57:48.864Z</time></trkpt><trkpt lat="53.6519332" lon="-1.8427853"><ele>228.66666666666669</ele><time>2026-04-26T08:57:49.87Z</time></trkpt><trkpt lat="53.65205" lon="-1.8429566"><ele>231.0</ele><time>2026-04-26T08:57:50.87Z</time></trkpt><trkpt lat="53.6521663" lon="-1.8431175"><ele>231.0</ele><time>2026-04-26T08:57:51.871Z</time></trkpt><trkpt lat="53.6522763" lon="-1.843278"><ele>231.0</ele><time>2026-04-26T08:57:52.869Z</time></trkpt><trkpt lat="53.6523811" lon="-1.8434415"><ele>231.0</ele><time>2026-04-26T08:57:53.874Z</time></trkpt><trkpt lat="53.6524776" lon="-1.8436039"><ele>231.0</ele><time>2026-04-26T08:57:54.868Z</time></trkpt><trkpt lat="53.6525649" lon="-1.843755"><ele>229.25</ele><time>2026-04-26T08:57:55.868Z</time></trkpt><trkpt lat="53.6526411" lon="-1.8438938"><ele>227.5</ele><time>2026-04-26T08:57:56.869Z</time></trkpt><trkpt lat="53.6527088" lon="-1.8440324"><ele>225.75</ele><time>2026-04-26T08:57:57.868Z</time></trkpt><trkpt lat="53.6527724" lon="-1.844185"><ele>224.0</ele><time>2026-04-26T08:57:58.869Z</time></trkpt><trkpt lat="53.6528446" lon="-1.8443644"><ele>228.66666666666669</ele><time>2026-04-26T08:57:59.869Z</time></trkpt><trkpt lat="53.6529333" lon="-1.844568"><ele>233.33333333333331</ele><time>2026-04-26T08:58:00.868Z</time></trkpt><trkpt lat="53.6530385" lon="-1.8447833"><ele>238.0</ele><time>2026-04-26T08:58:01.873Z</time></trkpt><trkpt lat="53.6531492" lon="-1.8450122"><ele>236.0</ele><time>2026-04-26T08:58:02.873Z</time></trkpt><trkpt lat="53.65327" lon="-1.845259"><ele>234.0</ele><time>2026-04-26T08:58:03.875Z</time></trkpt><trkpt lat="53.6534" lon="-1.845522"><ele>232.0</ele><time>2026-04-26T08:58:04.873Z</time></trkpt><trkpt lat="53.6535345" lon="-1.845794"><ele>235.33333333333331</ele><time>2026-04-26T08:58:05.874Z</time></trkpt><trkpt lat="53.6536691" lon="-1.8460531"><ele>238.66666666666669</ele><time>2026-04-26T08:58:06.874Z</time></trkpt><trkpt lat="53.6537916" lon="-1.8462863"><ele>242.0</ele><time>2026-04-26T08:58:07.87Z</time></trkpt><trkpt lat="53.6538991" lon="-1.8464959"><ele>242.0</ele><time>2026-04-26T08:58:08.877Z</time></trkpt><trkpt lat="53.6540049" lon="-1.8466808"><ele>242.0</ele><time>2026-04-26T08:58:09.874Z</time></trkpt><trkpt lat="53.6540987" lon="-1.8468355"><ele>242.0</ele><time>2026-04-26T08:58:10.873Z</time></trkpt><trkpt lat="53.654176" lon="-1.8469649"><ele>242.0</ele><time>2026-04-26T08:58:11.87Z</time></trkpt><trkpt lat="53.6542458" lon="-1.8470818"><ele>241.50000000000003</ele><time>2026-04-26T08:58:12.869Z</time></trkpt><trkpt lat="53.6543106" lon="-1.8471745"><ele>241.0</ele><time>2026-04-26T08:58:13.87Z</time></trkpt><trkpt lat="53.6543644" lon="-1.8472321"><ele>240.5</ele><time>2026-04-26T08:58:14.872Z</time></trkpt><trkpt lat="53.6544353" lon="-1.8473074"><ele>240.0</ele><time>2026-04-26T08:58:16.87Z</time></trkpt><trkpt lat="53.6544907" lon="-1.8473717"><ele>239.50000000000003</ele><time>2026-04-26T08:58:18.868Z</time></trkpt><trkpt lat="53.6545958" lon="-1.8472857"><ele>239.0</ele><time>2026-04-26T08:58:20.868Z</time></trkpt><trkpt lat="53.6546484" lon="-1.8471726"><ele>241.75</ele><time>2026-04-26T08:58:21.87Z</time></trkpt><trkpt lat="53.6547137" lon="-1.8470567"><ele>244.5</ele><time>2026-04-26T08:58:22.87Z</time></trkpt><trkpt lat="53.654794" lon="-1.8469153"><ele>247.25</ele><time>2026-04-26T08:58:23.874Z</time></trkpt><trkpt lat="53.6548912" lon="-1.8467484"><ele>250.0</ele><time>2026-04-26T08:58:24.869Z</time></trkpt><trkpt lat="53.6550025" lon="-1.8465564"><ele>250.0</ele><time>2026-04-26T08:58:25.868Z</time></trkpt><trkpt lat="53.6551209" lon="-1.8463485"><ele>250.0</ele><time>2026-04-26T08:58:26.866Z</time></trkpt><trkpt lat="53.6552455" lon="-1.846142"><ele>250.0</ele><time>2026-04-26T08:58:27.866Z</time></trkpt><trkpt lat="53.6553695" lon="-1.8459416"><ele>250.0</ele><time>2026-04-26T08:58:28.866Z</time></trkpt><trkpt lat="53.655495" lon="-1.8457359"><ele>250.0</ele><time>2026-04-26T08:58:29.866Z</time></trkpt><trkpt lat="53.6556224" lon="-1.8455245"><ele>250.0</ele><time>2026-04-26T08:58:30.868Z</time></trkpt><trkpt lat="53.655749" lon="-1.8453137"><ele>249.66666666666666</ele><time>2026-04-26T08:58:31.873Z</time></trkpt><trkpt lat="53.6558787" lon="-1.8451021"><ele>249.33333333333331</ele><time>2026-04-26T08:58:32.872Z</time></trkpt><trkpt lat="53.6560053" lon="-1.8448911"><ele>249.0</ele><time>2026-04-26T08:58:33.875Z</time></trkpt><trkpt lat="53.6561302" lon="-1.8446893"><ele>249.0</ele><time>2026-04-26T08:58:34.873Z</time></trkpt><trkpt lat="53.6562458" lon="-1.8445046"><ele>249.0</ele><time>2026-04-26T08:58:35.873Z</time></trkpt><trkpt lat="53.6563424" lon="-1.8443424"><ele>249.0</ele><time>2026-04-26T08:58:36.873Z</time></trkpt><trkpt lat="53.6564246" lon="-1.8442014"><ele>249.0</ele><time>2026-04-26T08:58:37.873Z</time></trkpt><trkpt lat="53.6565012" lon="-1.8440951"><ele>248.6</ele><time>2026-04-26T08:58:38.875Z</time></trkpt><trkpt lat="53.6565608" lon="-1.8440334"><ele>248.2</ele><time>2026-04-26T08:58:39.874Z</time></trkpt><trkpt lat="53.6566327" lon="-1.8439909"><ele>247.79999999999998</ele><time>2026-04-26T08:58:41.871Z</time></trkpt><trkpt lat="53.6566586" lon="-1.8438282"><ele>247.39999999999998</ele><time>2026-04-26T08:58:43.873Z</time></trkpt><trkpt lat="53.6566456" lon="-1.8436657"><ele>247.0</ele><time>2026-04-26T08:58:44.87Z</time></trkpt><trkpt lat="53.6566155" lon="-1.8434601"><ele>246.5</ele><time>2026-04-26T08:58:45.869Z</time></trkpt><trkpt lat="53.656579" lon="-1.8432301"><ele>246.0</ele><time>2026-04-26T08:58:46.87Z</time></trkpt><trkpt lat="53.6565446" lon="-1.8430082"><ele>245.5</ele><time>2026-04-26T08:58:47.87Z</time></trkpt><trkpt lat="53.6565113" lon="-1.8428128"><ele>245.0</ele><time>2026-04-26T08:58:48.874Z</time></trkpt><trkpt lat="53.6564793" lon="-1.8426413"><ele>244.66666666666669</ele><time>2026-04-26T08:58:49.87Z</time></trkpt><trkpt lat="53.6564396" lon="-1.8424992"><ele>244.33333333333334</ele><time>2026-04-26T08:58:50.87Z</time></trkpt><trkpt lat="53.6564001" lon="-1.8424036"><ele>244.0</ele><time>2026-04-26T08:58:51.87Z</time></trkpt><trkpt lat="53.6563149" lon="-1.8423334"><ele>243.66666666666669</ele><time>2026-04-26T08:58:53.872Z</time></trkpt><trkpt lat="53.6562436" lon="-1.8424002"><ele>243.33333333333334</ele><time>2026-04-26T08:58:55.871Z</time></trkpt><trkpt lat="53.6562384" lon="-1.8425146"><ele>243.0</ele><time>2026-04-26T08:58:57.866Z</time></trkpt><trkpt lat="53.6562671" lon="-1.8426309"><ele>243.28571428571428</ele><time>2026-04-26T08:59:00.868Z</time></trkpt><trkpt lat="53.656267" lon="-1.842753"><ele>243.57142857142858</ele><time>2026-04-26T09:01:20.876Z</time></trkpt><trkpt lat="53.6562417" lon="-1.8428573"><ele>243.85714285714286</ele><time>2026-04-26T09:01:52.869Z</time></trkpt><trkpt lat="53.6562832" lon="-1.8427629"><ele>244.14285714285714</ele><time>2026-04-26T09:02:05.863Z</time></trkpt><trkpt lat="53.6563321" lon="-1.8426851"><ele>244.42857142857144</ele><time>2026-04-26T09:03:11.867Z</time></trkpt><trkpt lat="53.6563929" lon="-1.8427409"><ele>244.71428571428572</ele><time>2026-04-26T09:03:19.868Z</time></trkpt><trkpt lat="53.6564476" lon="-1.8428728"><ele>245.0</ele><time>2026-04-26T09:03:34.871Z</time></trkpt><trkpt lat="53.6564839" lon="-1.843048"><ele>245.0</ele><time>2026-04-26T09:03:35.87Z</time></trkpt><trkpt lat="53.6565173" lon="-1.8432648"><ele>245.0</ele><time>2026-04-26T09:03:36.866Z</time></trkpt><trkpt lat="53.656551" lon="-1.8435082"><ele>245.0</ele><time>2026-04-26T09:03:37.873Z</time></trkpt><trkpt lat="53.6565853" lon="-1.8437596"><ele>245.0</ele><time>2026-04-26T09:03:38.874Z</time></trkpt><trkpt lat="53.6566191" lon="-1.843996"><ele>245.5</ele><time>2026-04-26T09:03:39.873Z</time></trkpt><trkpt lat="53.6566506" lon="-1.8442052"><ele>246.0</ele><time>2026-04-26T09:03:40.873Z</time></trkpt><trkpt lat="53.6566796" lon="-1.8443898"><ele>246.5</ele><time>2026-04-26T09:03:41.87Z</time></trkpt><trkpt lat="53.6567118" lon="-1.844572"><ele>247.0</ele><time>2026-04-26T09:03:42.87Z</time></trkpt><trkpt lat="53.656749" lon="-1.8447784"><ele>247.66666666666666</ele><time>2026-04-26T09:03:43.876Z</time></trkpt><trkpt lat="53.6567896" lon="-1.8450329"><ele>248.33333333333331</ele><time>2026-04-26T09:03:44.871Z</time></trkpt><trkpt lat="53.6568355" lon="-1.8453307"><ele>249.0</ele><time>2026-04-26T09:03:45.869Z</time></trkpt><trkpt lat="53.656887" lon="-1.8456514"><ele>250.33333333333331</ele><time>2026-04-26T09:03:46.871Z</time></trkpt><trkpt lat="53.6569325" lon="-1.845974"><ele>251.66666666666666</ele><time>2026-04-26T09:03:47.869Z</time></trkpt><trkpt lat="53.6569735" lon="-1.8462743"><ele>253.0</ele><time>2026-04-26T09:03:48.871Z</time></trkpt><trkpt lat="53.6570169" lon="-1.8465478"><ele>253.75</ele><time>2026-04-26T09:03:49.868Z</time></trkpt><trkpt lat="53.65706" lon="-1.8467965"><ele>254.5</ele><time>2026-04-26T09:03:50.871Z</time></trkpt><trkpt lat="53.6570988" lon="-1.8470209"><ele>255.25</ele><time>2026-04-26T09:03:51.868Z</time></trkpt><trkpt lat="53.6571328" lon="-1.8472277"><ele>256.0</ele><time>2026-04-26T09:03:52.87Z</time></trkpt><trkpt lat="53.6571625" lon="-1.8474221"><ele>256.0</ele><time>2026-04-26T09:03:53.874Z</time></trkpt><trkpt lat="53.6571917" lon="-1.8476265"><ele>256.0</ele><time>2026-04-26T09:03:54.869Z</time></trkpt><trkpt lat="53.6572233" lon="-1.8478397"><ele>256.0</ele><time>2026-04-26T09:03:55.87Z</time></trkpt><trkpt lat="53.6572571" lon="-1.8480636"><ele>256.0</ele><time>2026-04-26T09:03:56.872Z</time></trkpt><trkpt lat="53.6572924" lon="-1.8482897"><ele>256.75</ele><time>2026-04-26T09:03:57.868Z</time></trkpt><trkpt lat="53.6573284" lon="-1.8485071"><ele>257.5</ele><time>2026-04-26T09:03:58.869Z</time></trkpt><trkpt lat="53.6573653" lon="-1.8487182"><ele>258.25</ele><time>2026-04-26T09:03:59.868Z</time></trkpt><trkpt lat="53.6574014" lon="-1.8489308"><ele>259.0</ele><time>2026-04-26T09:04:00.87Z</time></trkpt><trkpt lat="53.657436" lon="-1.8491493"><ele>259.5</ele><time>2026-04-26T09:04:01.865Z</time></trkpt><trkpt lat="53.6574719" lon="-1.8493697"><ele>260.0</ele><time>2026-04-26T09:04:02.872Z</time></trkpt><trkpt lat="53.6575128" lon="-1.8495842"><ele>260.5</ele><time>2026-04-26T09:04:03.879Z</time></trkpt><trkpt lat="53.6575545" lon="-1.8497965"><ele>261.0</ele><time>2026-04-26T09:04:04.873Z</time></trkpt><trkpt lat="53.6575958" lon="-1.8500016"><ele>261.0</ele><time>2026-04-26T09:04:05.872Z</time></trkpt><trkpt lat="53.6576336" lon="-1.8502046"><ele>261.0</ele><time>2026-04-26T09:04:06.874Z</time></trkpt><trkpt lat="53.6576692" lon="-1.8504135"><ele>261.0</ele><time>2026-04-26T09:04:07.873Z</time></trkpt><trkpt lat="53.6577023" lon="-1.85063"><ele>261.0</ele><time>2026-04-26T09:04:08.873Z</time></trkpt><trkpt lat="53.6577347" lon="-1.8508505"><ele>262.5</ele><time>2026-04-26T09:04:09.873Z</time></trkpt><trkpt lat="53.6577681" lon="-1.8510736"><ele>264.0</ele><time>2026-04-26T09:04:10.872Z</time></trkpt><trkpt lat="53.6578024" lon="-1.851289"><ele>265.5</ele><time>2026-04-26T09:04:11.87Z</time></trkpt><trkpt lat="53.6578359" lon="-1.851482"><ele>267.0</ele><time>2026-04-26T09:04:12.869Z</time></trkpt><trkpt lat="53.6578634" lon="-1.8516416"><ele>267.0</ele><time>2026-04-26T09:04:13.872Z</time></trkpt><trkpt lat="53.6578766" lon="-1.8517718"><ele>267.0</ele><time>2026-04-26T09:04:14.87Z</time></trkpt><trkpt lat="53.6578673" lon="-1.85197"><ele>267.0</ele><time>2026-04-26T09:04:16.873Z</time></trkpt><trkpt lat="53.6578764" lon="-1.8522032"><ele>267.0</ele><time>2026-04-26T09:04:18.872Z</time></trkpt><trkpt lat="53.6579089" lon="-1.8523551"><ele>267.0</ele><time>2026-04-26T09:04:19.87Z</time></trkpt><trkpt lat="53.6579654" lon="-1.8525204"><ele>266.0</ele><time>2026-04-26T09:04:20.87Z</time></trkpt><trkpt lat="53.6580396" lon="-1.8527022"><ele>265.0</ele><time>2026-04-26T09:04:21.87Z</time></trkpt><trkpt lat="53.6581164" lon="-1.8529109"><ele>264.0</ele><time>2026-04-26T09:04:22.869Z</time></trkpt><trkpt lat="53.6581823" lon="-1.8531312"><ele>263.0</ele><time>2026-04-26T09:04:23.873Z</time></trkpt><trkpt lat="53.6582267" lon="-1.8533547"><ele>262.2</ele><time>2026-04-26T09:04:24.87Z</time></trkpt><trkpt lat="53.6582495" lon="-1.8535659"><ele>261.4</ele><time>2026-04-26T09:04:25.872Z</time></trkpt><trkpt lat="53.6582618" lon="-1.8537554"><ele>260.59999999999997</ele><time>2026-04-26T09:04:26.87Z</time></trkpt><trkpt lat="53.6582686" lon="-1.8539267"><ele>259.8</ele><time>2026-04-26T09:04:27.869Z</time></trkpt><trkpt lat="53.658268" lon="-1.8540841"><ele>259.0</ele><time>2026-04-26T09:04:28.868Z</time></trkpt><trkpt lat="53.6582587" lon="-1.8542286"><ele>258.66666666666663</ele><time>2026-04-26T09:04:29.87Z</time></trkpt><trkpt lat="53.6582407" lon="-1.854365"><ele>258.3333333333333</ele><time>2026-04-26T09:04:30.87Z</time></trkpt><trkpt lat="53.658221" lon="-1.8545044"><ele>258.0</ele><time>2026-04-26T09:04:31.874Z</time></trkpt><trkpt lat="53.6582032" lon="-1.8546419"><ele>257.6666666666667</ele><time>2026-04-26T09:04:32.875Z</time></trkpt><trkpt lat="53.6581887" lon="-1.8547814"><ele>257.33333333333337</ele><time>2026-04-26T09:04:33.874Z</time></trkpt><trkpt lat="53.6581797" lon="-1.8549245"><ele>257.0</ele><time>2026-04-26T09:04:34.87Z</time></trkpt><trkpt lat="53.6581681" lon="-1.8550722"><ele>257.4</ele><time>2026-04-26T09:04:35.872Z</time></trkpt><trkpt lat="53.6581466" lon="-1.8552236"><ele>257.79999999999995</ele><time>2026-04-26T09:04:36.872Z</time></trkpt><trkpt lat="53.658115" lon="-1.8553725"><ele>258.2</ele><time>2026-04-26T09:04:37.873Z</time></trkpt><trkpt lat="53.6580787" lon="-1.8555138"><ele>258.59999999999997</ele><time>2026-04-26T09:04:38.87Z</time></trkpt><trkpt lat="53.6580392" lon="-1.8556487"><ele>259.0</ele><time>2026-04-26T09:04:39.87Z</time></trkpt><trkpt lat="53.6580012" lon="-1.8557796"><ele>259.0</ele><time>2026-04-26T09:04:40.861Z</time></trkpt><trkpt lat="53.6579682" lon="-1.8559038"><ele>259.0</ele><time>2026-04-26T09:04:41.869Z</time></trkpt><trkpt lat="53.6579371" lon="-1.8560173"><ele>259.0</ele><time>2026-04-26T09:04:42.873Z</time></trkpt><trkpt lat="53.6579025" lon="-1.8561123"><ele>259.0</ele><time>2026-04-26T09:04:43.872Z</time></trkpt><trkpt lat="53.6578185" lon="-1.8562301"><ele>259.0</ele><time>2026-04-26T09:04:45.869Z</time></trkpt><trkpt lat="53.6577081" lon="-1.8562292"><ele>259.0</ele><time>2026-04-26T09:04:47.869Z</time></trkpt><trkpt lat="53.6576339" lon="-1.8561978"><ele>257.57142857142856</ele><time>2026-04-26T09:04:48.869Z</time></trkpt><trkpt lat="53.6575601" lon="-1.8561851"><ele>256.1428571428571</ele><time>2026-04-26T09:04:49.869Z</time></trkpt><trkpt lat="53.657489" lon="-1.8561891"><ele>254.71428571428572</ele><time>2026-04-26T09:04:50.867Z</time></trkpt><trkpt lat="53.6574258" lon="-1.8562281"><ele>253.28571428571428</ele><time>2026-04-26T09:04:51.868Z</time></trkpt><trkpt lat="53.6573724" lon="-1.856297"><ele>251.85714285714283</ele><time>2026-04-26T09:04:52.87Z</time></trkpt><trkpt lat="53.6573294" lon="-1.8563997"><ele>250.42857142857142</ele><time>2026-04-26T09:04:53.872Z</time></trkpt><trkpt lat="53.6572936" lon="-1.8565113"><ele>249.0</ele><time>2026-04-26T09:04:54.87Z</time></trkpt><trkpt lat="53.6572584" lon="-1.8566273"><ele>249.0</ele><time>2026-04-26T09:04:55.87Z</time></trkpt><trkpt lat="53.6572236" lon="-1.8567434"><ele>249.0</ele><time>2026-04-26T09:04:56.87Z</time></trkpt><trkpt lat="53.6571887" lon="-1.8568578"><ele>249.0</ele><time>2026-04-26T09:04:57.871Z</time></trkpt><trkpt lat="53.6571548" lon="-1.8569723"><ele>249.0</ele><time>2026-04-26T09:04:58.871Z</time></trkpt><trkpt lat="53.65712" lon="-1.8570862"><ele>249.0</ele><time>2026-04-26T09:04:59.869Z</time></trkpt><trkpt lat="53.6570888" lon="-1.8572022"><ele>249.0</ele><time>2026-04-26T09:05:00.87Z</time></trkpt><trkpt lat="53.657064" lon="-1.8573225"><ele>249.7142857142857</ele><time>2026-04-26T09:05:01.872Z</time></trkpt><trkpt lat="53.6570395" lon="-1.8574427"><ele>250.4285714285714</ele><time>2026-04-26T09:05:02.867Z</time></trkpt><trkpt lat="53.6570161" lon="-1.8575601"><ele>251.14285714285714</ele><time>2026-04-26T09:05:03.874Z</time></trkpt><trkpt lat="53.6569945" lon="-1.8576799"><ele>251.85714285714283</ele><time>2026-04-26T09:05:04.873Z</time></trkpt><trkpt lat="53.6569712" lon="-1.8577994"><ele>252.57142857142856</ele><time>2026-04-26T09:05:05.874Z</time></trkpt><trkpt lat="53.6569523" lon="-1.8579132"><ele>253.28571428571428</ele><time>2026-04-26T09:05:06.874Z</time></trkpt><trkpt lat="53.6569368" lon="-1.8580233"><ele>254.0</ele><time>2026-04-26T09:05:07.867Z</time></trkpt><trkpt lat="53.656924" lon="-1.8581277"><ele>249.79999999999998</ele><time>2026-04-26T09:05:08.875Z</time></trkpt><trkpt lat="53.656894" lon="-1.8583148"><ele>245.59999999999997</ele><time>2026-04-26T09:05:10.875Z</time></trkpt><trkpt lat="53.6568367" lon="-1.8584581"><ele>241.4</ele><time>2026-04-26T09:05:12.873Z</time></trkpt><trkpt lat="53.6567484" lon="-1.8585537"><ele>237.2</ele><time>2026-04-26T09:05:14.872Z</time></trkpt><trkpt lat="53.6566393" lon="-1.8585568"><ele>233.0</ele><time>2026-04-26T09:05:16.868Z</time></trkpt><trkpt lat="53.6565506" lon="-1.858546"><ele>232.8</ele><time>2026-04-26T09:05:18.87Z</time></trkpt><trkpt lat="53.6564816" lon="-1.8585477"><ele>232.60000000000002</ele><time>2026-04-26T09:05:20.869Z</time></trkpt><trkpt lat="53.6563891" lon="-1.8585868"><ele>232.39999999999998</ele><time>2026-04-26T09:05:22.867Z</time></trkpt><trkpt lat="53.6562869" lon="-1.8586367"><ele>232.2</ele><time>2026-04-26T09:05:24.868Z</time></trkpt><trkpt lat="53.6561759" lon="-1.8587479"><ele>232.0</ele><time>2026-04-26T09:05:26.869Z</time></trkpt><trkpt lat="53.6561251" lon="-1.858831"><ele>229.8571428571429</ele><time>2026-04-26T09:05:27.87Z</time></trkpt><trkpt lat="53.6560777" lon="-1.8589258"><ele>227.71428571428572</ele><time>2026-04-26T09:05:28.87Z</time></trkpt><trkpt lat="53.656028" lon="-1.8590191"><ele>225.57142857142858</ele><time>2026-04-26T09:05:29.87Z</time></trkpt><trkpt lat="53.6559797" lon="-1.859109"><ele>223.42857142857144</ele><time>2026-04-26T09:05:30.867Z</time></trkpt><trkpt lat="53.6559331" lon="-1.8591985"><ele>221.28571428571428</ele><time>2026-04-26T09:05:31.871Z</time></trkpt><trkpt lat="53.6558895" lon="-1.8592864"><ele>219.14285714285714</ele><time>2026-04-26T09:05:32.871Z</time></trkpt><trkpt lat="53.6558426" lon="-1.8593614"><ele>217.0</ele><time>2026-04-26T09:05:33.872Z</time></trkpt><trkpt lat="53.6557411" lon="-1.8594788"><ele>217.0</ele><time>2026-04-26T09:05:35.864Z</time></trkpt><trkpt lat="53.6556369" lon="-1.8595662"><ele>217.0</ele><time>2026-04-26T09:05:37.869Z</time></trkpt><trkpt lat="53.6555333" lon="-1.8596131"><ele>217.0</ele><time>2026-04-26T09:05:39.875Z</time></trkpt><trkpt lat="53.6554646" lon="-1.8597362"><ele>217.0</ele><time>2026-04-26T09:05:41.869Z</time></trkpt><trkpt lat="53.6554555" lon="-1.8598637"><ele>217.0</ele><time>2026-04-26T09:05:42.869Z</time></trkpt><trkpt lat="53.6554512" lon="-1.8600014"><ele>217.6</ele><time>2026-04-26T09:05:43.87Z</time></trkpt><trkpt lat="53.655445" lon="-1.8601516"><ele>218.2</ele><time>2026-04-26T09:05:44.87Z</time></trkpt><trkpt lat="53.6554333" lon="-1.8603175"><ele>218.8</ele><time>2026-04-26T09:05:45.873Z</time></trkpt><trkpt lat="53.6554172" lon="-1.8605009"><ele>219.4</ele><time>2026-04-26T09:05:46.87Z</time></trkpt><trkpt lat="53.6554027" lon="-1.8606962"><ele>220.0</ele><time>2026-04-26T09:05:47.869Z</time></trkpt><trkpt lat="53.6553941" lon="-1.8608918"><ele>219.99999999999997</ele><time>2026-04-26T09:05:48.868Z</time></trkpt><trkpt lat="53.6553889" lon="-1.8610723"><ele>220.0</ele><time>2026-04-26T09:05:49.87Z</time></trkpt><trkpt lat="53.6553833" lon="-1.8612333"><ele>220.0</ele><time>2026-04-26T09:05:50.869Z</time></trkpt><trkpt lat="53.6553825" lon="-1.8613653"><ele>220.0</ele><time>2026-04-26T09:05:51.868Z</time></trkpt><trkpt lat="53.6553846" lon="-1.8614726"><ele>219.99999999999997</ele><time>2026-04-26T09:05:52.869Z</time></trkpt><trkpt lat="53.6553645" lon="-1.8616149"><ele>220.0</ele><time>2026-04-26T09:05:54.869Z</time></trkpt><trkpt lat="53.6552504" lon="-1.8616627"><ele>220.6</ele><time>2026-04-26T09:05:56.867Z</time></trkpt><trkpt lat="53.6551854" lon="-1.8616426"><ele>221.2</ele><time>2026-04-26T09:05:57.866Z</time></trkpt><trkpt lat="53.6550953" lon="-1.8615521"><ele>221.8</ele><time>2026-04-26T09:05:59.866Z</time></trkpt><trkpt lat="53.6550047" lon="-1.8613872"><ele>222.4</ele><time>2026-04-26T09:06:01.87Z</time></trkpt><trkpt lat="53.6549553" lon="-1.8613119"><ele>223.0</ele><time>2026-04-26T09:06:02.87Z</time></trkpt><trkpt lat="53.6548535" lon="-1.861253"><ele>223.0</ele><time>2026-04-26T09:06:04.87Z</time></trkpt><trkpt lat="53.6547743" lon="-1.8613295"><ele>223.0</ele><time>2026-04-26T09:06:06.873Z</time></trkpt><trkpt lat="53.6547141" lon="-1.8615138"><ele>223.0</ele><time>2026-04-26T09:06:08.874Z</time></trkpt><trkpt lat="53.6546963" lon="-1.861618"><ele>223.0</ele><time>2026-04-26T09:06:09.872Z</time></trkpt><trkpt lat="53.6546842" lon="-1.8618211"><ele>223.0</ele><time>2026-04-26T09:06:11.868Z</time></trkpt><trkpt lat="53.6546464" lon="-1.8620243"><ele>223.66666666666666</ele><time>2026-04-26T09:06:13.871Z</time></trkpt><trkpt lat="53.6546156" lon="-1.862122"><ele>224.33333333333331</ele><time>2026-04-26T09:06:14.866Z</time></trkpt><trkpt lat="53.6545643" lon="-1.862266"><ele>225.0</ele><time>2026-04-26T09:06:16.87Z</time></trkpt><trkpt lat="53.6545253" lon="-1.8624431"><ele>225.66666666666669</ele><time>2026-04-26T09:06:18.871Z</time></trkpt><trkpt lat="53.6544939" lon="-1.8625547"><ele>226.33333333333334</ele><time>2026-04-26T09:06:19.871Z</time></trkpt><trkpt lat="53.6544592" lon="-1.8626872"><ele>227.0</ele><time>2026-04-26T09:06:20.87Z</time></trkpt><trkpt lat="53.654417" lon="-1.862836"><ele>230.25</ele><time>2026-04-26T09:06:21.871Z</time></trkpt><trkpt lat="53.6543632" lon="-1.8630094"><ele>233.5</ele><time>2026-04-26T09:06:22.865Z</time></trkpt><trkpt lat="53.6543055" lon="-1.8632"><ele>236.75</ele><time>2026-04-26T09:06:23.875Z</time></trkpt><trkpt lat="53.654251" lon="-1.8633894"><ele>240.0</ele><time>2026-04-26T09:06:24.877Z</time></trkpt><trkpt lat="53.6541962" lon="-1.863573"><ele>240.25</ele><time>2026-04-26T09:06:25.875Z</time></trkpt><trkpt lat="53.6541392" lon="-1.8637535"><ele>240.5</ele><time>2026-04-26T09:06:26.875Z</time></trkpt><trkpt lat="53.6540861" lon="-1.8639298"><ele>240.75</ele><time>2026-04-26T09:06:27.87Z</time></trkpt><trkpt lat="53.6540318" lon="-1.8641077"><ele>241.0</ele><time>2026-04-26T09:06:28.873Z</time></trkpt><trkpt lat="53.6539809" lon="-1.864284"><ele>241.5</ele><time>2026-04-26T09:06:29.871Z</time></trkpt><trkpt lat="53.6539336" lon="-1.8644614"><ele>242.0</ele><time>2026-04-26T09:06:30.872Z</time></trkpt><trkpt lat="53.6538882" lon="-1.8646409"><ele>242.5</ele><time>2026-04-26T09:06:31.871Z</time></trkpt><trkpt lat="53.6538394" lon="-1.8648194"><ele>243.0</ele><time>2026-04-26T09:06:32.872Z</time></trkpt><trkpt lat="53.6537767" lon="-1.8649881"><ele>243.0</ele><time>2026-04-26T09:06:33.876Z</time></trkpt><trkpt lat="53.6536987" lon="-1.865151"><ele>243.0</ele><time>2026-04-26T09:06:34.872Z</time></trkpt><trkpt lat="53.6536206" lon="-1.8653118"><ele>243.0</ele><time>2026-04-26T09:06:35.873Z</time></trkpt><trkpt lat="53.6534887" lon="-1.865624"><ele>244.8</ele><time>2026-04-26T09:06:37.873Z</time></trkpt><trkpt lat="53.6534503" lon="-1.8657661"><ele>246.60000000000002</ele><time>2026-04-26T09:06:38.873Z</time></trkpt><trkpt lat="53.653437" lon="-1.8659116"><ele>248.39999999999998</ele><time>2026-04-26T09:06:39.872Z</time></trkpt><trkpt lat="53.653434" lon="-1.8660697"><ele>250.2</ele><time>2026-04-26T09:06:40.875Z</time></trkpt><trkpt lat="53.6534223" lon="-1.8662356"><ele>252.0</ele><time>2026-04-26T09:06:41.873Z</time></trkpt><trkpt lat="53.6533908" lon="-1.866402"><ele>252.0</ele><time>2026-04-26T09:06:42.87Z</time></trkpt><trkpt lat="53.6533462" lon="-1.8665706"><ele>252.0</ele><time>2026-04-26T09:06:43.874Z</time></trkpt><trkpt lat="53.6532989" lon="-1.8667505"><ele>252.0</ele><time>2026-04-26T09:06:44.877Z</time></trkpt><trkpt lat="53.6532522" lon="-1.8669384"><ele>252.0</ele><time>2026-04-26T09:06:45.87Z</time></trkpt><trkpt lat="53.6532079" lon="-1.8671289"><ele>252.0</ele><time>2026-04-26T09:06:46.876Z</time></trkpt><trkpt lat="53.6531655" lon="-1.8673105"><ele>252.0</ele><time>2026-04-26T09:06:47.874Z</time></trkpt><trkpt lat="53.6531231" lon="-1.8674723"><ele>252.0</ele><time>2026-04-26T09:06:48.874Z</time></trkpt><trkpt lat="53.6530773" lon="-1.8676136"><ele>252.0</ele><time>2026-04-26T09:06:49.875Z</time></trkpt><trkpt lat="53.6530233" lon="-1.8677381"><ele>252.0</ele><time>2026-04-26T09:06:50.875Z</time></trkpt><trkpt lat="53.6529565" lon="-1.8678329"><ele>251.8</ele><time>2026-04-26T09:06:51.875Z</time></trkpt><trkpt lat="53.6528709" lon="-1.8679046"><ele>251.6</ele><time>2026-04-26T09:06:52.874Z</time></trkpt><trkpt lat="53.6527804" lon="-1.8679528"><ele>251.40000000000003</ele><time>2026-04-26T09:06:53.878Z</time></trkpt><trkpt lat="53.6527034" lon="-1.8679881"><ele>251.20000000000002</ele><time>2026-04-26T09:06:54.873Z</time></trkpt><trkpt lat="53.6526042" lon="-1.8680383"><ele>251.0</ele><time>2026-04-26T09:06:56.872Z</time></trkpt><trkpt lat="53.652504" lon="-1.8679818"><ele>252.50000000000003</ele><time>2026-04-26T09:06:58.872Z</time></trkpt><trkpt lat="53.6524463" lon="-1.8679125"><ele>254.0</ele><time>2026-04-26T09:06:59.872Z</time></trkpt><trkpt lat="53.6523776" lon="-1.8678335"><ele>255.5</ele><time>2026-04-26T09:07:00.872Z</time></trkpt><trkpt lat="53.6523052" lon="-1.8677443"><ele>257.0</ele><time>2026-04-26T09:07:01.873Z</time></trkpt><trkpt lat="53.6522293" lon="-1.8676597"><ele>258.5</ele><time>2026-04-26T09:07:02.874Z</time></trkpt><trkpt lat="53.6521448" lon="-1.8675914"><ele>260.0</ele><time>2026-04-26T09:07:03.878Z</time></trkpt><trkpt lat="53.6520406" lon="-1.8675466"><ele>264.0</ele><time>2026-04-26T09:07:04.874Z</time></trkpt><trkpt lat="53.6519052" lon="-1.8675078"><ele>268.0</ele><time>2026-04-26T09:07:05.872Z</time></trkpt><trkpt lat="53.6517519" lon="-1.8674741"><ele>272.0</ele><time>2026-04-26T09:07:06.875Z</time></trkpt><trkpt lat="53.6516145" lon="-1.8674483"><ele>276.0</ele><time>2026-04-26T09:07:07.878Z</time></trkpt><trkpt lat="53.651512" lon="-1.8674416"><ele>276.0</ele><time>2026-04-26T09:07:08.871Z</time></trkpt><trkpt lat="53.6514355" lon="-1.8674593"><ele>276.0</ele><time>2026-04-26T09:07:09.873Z</time></trkpt><trkpt lat="53.6513612" lon="-1.8675065"><ele>276.0</ele><time>2026-04-26T09:07:10.873Z</time></trkpt><trkpt lat="53.6512956" lon="-1.8675864"><ele>276.0</ele><time>2026-04-26T09:07:11.868Z</time></trkpt><trkpt lat="53.6512144" lon="-1.8676793"><ele>276.0</ele><time>2026-04-26T09:07:12.871Z</time></trkpt><trkpt lat="53.6511103" lon="-1.8677963"><ele>279.5</ele><time>2026-04-26T09:07:13.876Z</time></trkpt><trkpt lat="53.650987" lon="-1.8679267"><ele>283.0</ele><time>2026-04-26T09:07:14.87Z</time></trkpt><trkpt lat="53.6508706" lon="-1.8680582"><ele>286.5</ele><time>2026-04-26T09:07:15.871Z</time></trkpt><trkpt lat="53.6507757" lon="-1.8681916"><ele>290.0</ele><time>2026-04-26T09:07:16.871Z</time></trkpt><trkpt lat="53.6507009" lon="-1.8683236"><ele>288.8</ele><time>2026-04-26T09:07:17.869Z</time></trkpt><trkpt lat="53.6506337" lon="-1.8684483"><ele>287.6</ele><time>2026-04-26T09:07:18.87Z</time></trkpt><trkpt lat="53.6505691" lon="-1.8685701"><ele>286.4</ele><time>2026-04-26T09:07:19.871Z</time></trkpt><trkpt lat="53.6505023" lon="-1.8686983"><ele>285.2</ele><time>2026-04-26T09:07:20.872Z</time></trkpt><trkpt lat="53.6504423" lon="-1.868816"><ele>284.0</ele><time>2026-04-26T09:07:21.871Z</time></trkpt><trkpt lat="53.6503928" lon="-1.8689079"><ele>284.0</ele><time>2026-04-26T09:07:22.87Z</time></trkpt><trkpt lat="53.6503403" lon="-1.8690227"><ele>284.0</ele><time>2026-04-26T09:07:24.87Z</time></trkpt><trkpt lat="53.6502841" lon="-1.8689448"><ele>284.0</ele><time>2026-04-26T09:07:28.869Z</time></trkpt><trkpt lat="53.6503006" lon="-1.8687479"><ele>284.0</ele><time>2026-04-26T09:07:30.868Z</time></trkpt><trkpt lat="53.6503193" lon="-1.8686357"><ele>284.0</ele><time>2026-04-26T09:07:31.871Z</time></trkpt><trkpt lat="53.6503378" lon="-1.8685156"><ele>284.0</ele><time>2026-04-26T09:07:32.871Z</time></trkpt><trkpt lat="53.6503584" lon="-1.8683868"><ele>285.2</ele><time>2026-04-26T09:07:33.877Z</time></trkpt><trkpt lat="53.6503778" lon="-1.8682447"><ele>286.4</ele><time>2026-04-26T09:07:34.87Z</time></trkpt><trkpt lat="53.6503972" lon="-1.8680892"><ele>287.6</ele><time>2026-04-26T09:07:35.871Z</time></trkpt><trkpt lat="53.6504247" lon="-1.8679265"><ele>288.8</ele><time>2026-04-26T09:07:36.865Z</time></trkpt><trkpt lat="53.6504558" lon="-1.8677632"><ele>290.0</ele><time>2026-04-26T09:07:37.872Z</time></trkpt><trkpt lat="53.6504831" lon="-1.8675961"><ele>291.6</ele><time>2026-04-26T09:07:38.872Z</time></trkpt><trkpt lat="53.6505011" lon="-1.8674156"><ele>293.2</ele><time>2026-04-26T09:07:39.876Z</time></trkpt><trkpt lat="53.6505048" lon="-1.8672238"><ele>294.8</ele><time>2026-04-26T09:07:40.875Z</time></trkpt><trkpt lat="53.6504978" lon="-1.8670367"><ele>296.4</ele><time>2026-04-26T09:07:41.863Z</time></trkpt><trkpt lat="53.6504882" lon="-1.8668666"><ele>298.0</ele><time>2026-04-26T09:07:42.871Z</time></trkpt><trkpt lat="53.6504596" lon="-1.866736"><ele>299.3333333333333</ele><time>2026-04-26T09:07:43.88Z</time></trkpt><trkpt lat="53.6503999" lon="-1.8666456"><ele>300.66666666666663</ele><time>2026-04-26T09:07:44.871Z</time></trkpt><trkpt lat="53.6503212" lon="-1.8665786"><ele>302.0</ele><time>2026-04-26T09:07:45.87Z</time></trkpt><trkpt lat="53.6502343" lon="-1.866522"><ele>303.3333333333333</ele><time>2026-04-26T09:07:46.872Z</time></trkpt><trkpt lat="53.6501435" lon="-1.8664809"><ele>304.6666666666667</ele><time>2026-04-26T09:07:47.871Z</time></trkpt><trkpt lat="53.6500538" lon="-1.8664502"><ele>306.0</ele><time>2026-04-26T09:07:48.876Z</time></trkpt><trkpt lat="53.6499647" lon="-1.8664161"><ele>310.5</ele><time>2026-04-26T09:07:49.872Z</time></trkpt><trkpt lat="53.6498678" lon="-1.8663668"><ele>315.0</ele><time>2026-04-26T09:07:50.872Z</time></trkpt><trkpt lat="53.6497556" lon="-1.8663013"><ele>319.5</ele><time>2026-04-26T09:07:51.873Z</time></trkpt><trkpt lat="53.6496296" lon="-1.8662274"><ele>324.0</ele><time>2026-04-26T09:07:52.869Z</time></trkpt><trkpt lat="53.6495047" lon="-1.8661561"><ele>325.25</ele><time>2026-04-26T09:07:53.878Z</time></trkpt><trkpt lat="53.6493944" lon="-1.866092"><ele>326.5</ele><time>2026-04-26T09:07:54.872Z</time></trkpt><trkpt lat="53.6492879" lon="-1.8660366"><ele>327.75</ele><time>2026-04-26T09:07:55.874Z</time></trkpt><trkpt lat="53.6491768" lon="-1.8659955"><ele>329.0</ele><time>2026-04-26T09:07:56.872Z</time></trkpt><trkpt lat="53.6490559" lon="-1.8659661"><ele>329.0</ele><time>2026-04-26T09:07:57.872Z</time></trkpt><trkpt lat="53.648927" lon="-1.8659504"><ele>329.0</ele><time>2026-04-26T09:07:58.874Z</time></trkpt><trkpt lat="53.6488017" lon="-1.8659393"><ele>329.0</ele><time>2026-04-26T09:07:59.876Z</time></trkpt><trkpt lat="53.6486869" lon="-1.8659261"><ele>329.0</ele><time>2026-04-26T09:08:00.867Z</time></trkpt><trkpt lat="53.6485874" lon="-1.8659162"><ele>329.0</ele><time>2026-04-26T09:08:01.876Z</time></trkpt><trkpt lat="53.6485045" lon="-1.8659119"><ele>329.0</ele><time>2026-04-26T09:08:02.871Z</time></trkpt><trkpt lat="53.6484373" lon="-1.8659104"><ele>329.0</ele><time>2026-04-26T09:08:03.878Z</time></trkpt><trkpt lat="53.6483435" lon="-1.8659475"><ele>329.0</ele><time>2026-04-26T09:08:05.876Z</time></trkpt><trkpt lat="53.6482964" lon="-1.8661261"><ele>329.0</ele><time>2026-04-26T09:08:07.874Z</time></trkpt><trkpt lat="53.6482875" lon="-1.8662937"><ele>329.0</ele><time>2026-04-26T09:08:08.876Z</time></trkpt><trkpt lat="53.6482722" lon="-1.8665199"><ele>329.0</ele><time>2026-04-26T09:08:09.876Z</time></trkpt><trkpt lat="53.6482447" lon="-1.866804"><ele>329.0</ele><time>2026-04-26T09:08:10.879Z</time></trkpt><trkpt lat="53.6482095" lon="-1.8671191"><ele>330.0</ele><time>2026-04-26T09:08:11.874Z</time></trkpt><trkpt lat="53.6481725" lon="-1.8674304"><ele>331.0</ele><time>2026-04-26T09:08:12.873Z</time></trkpt><trkpt lat="53.6481323" lon="-1.8677268"><ele>332.0</ele><time>2026-04-26T09:08:13.873Z</time></trkpt><trkpt lat="53.6480905" lon="-1.8680195"><ele>333.33333333333337</ele><time>2026-04-26T09:08:14.874Z</time></trkpt><trkpt lat="53.6480477" lon="-1.8683129"><ele>334.6666666666667</ele><time>2026-04-26T09:08:15.866Z</time></trkpt><trkpt lat="53.6480038" lon="-1.8686049"><ele>336.0</ele><time>2026-04-26T09:08:16.875Z</time></trkpt><trkpt lat="53.6479597" lon="-1.8689013"><ele>337.0</ele><time>2026-04-26T09:08:17.874Z</time></trkpt><trkpt lat="53.6479162" lon="-1.8692005"><ele>338.0</ele><time>2026-04-26T09:08:18.872Z</time></trkpt><trkpt lat="53.6478711" lon="-1.8695015"><ele>339.0</ele><time>2026-04-26T09:08:19.873Z</time></trkpt><trkpt lat="53.6478189" lon="-1.8698176"><ele>341.0</ele><time>2026-04-26T09:08:20.873Z</time></trkpt><trkpt lat="53.6477603" lon="-1.8701661"><ele>343.0</ele><time>2026-04-26T09:08:21.872Z</time></trkpt><trkpt lat="53.6477041" lon="-1.8705399"><ele>345.0</ele><time>2026-04-26T09:08:22.872Z</time></trkpt><trkpt lat="53.647656" lon="-1.8708999"><ele>345.6666666666667</ele><time>2026-04-26T09:08:23.879Z</time></trkpt><trkpt lat="53.6476152" lon="-1.8712182"><ele>346.33333333333337</ele><time>2026-04-26T09:08:24.873Z</time></trkpt><trkpt lat="53.6475738" lon="-1.87149"><ele>347.0</ele><time>2026-04-26T09:08:25.872Z</time></trkpt><trkpt lat="53.6475374" lon="-1.8717059"><ele>347.20000000000005</ele><time>2026-04-26T09:08:26.871Z</time></trkpt><trkpt lat="53.6475128" lon="-1.8718559"><ele>347.4</ele><time>2026-04-26T09:08:27.872Z</time></trkpt><trkpt lat="53.6474707" lon="-1.8719976"><ele>347.6</ele><time>2026-04-26T09:08:29.871Z</time></trkpt><trkpt lat="53.647381" lon="-1.8719697"><ele>347.79999999999995</ele><time>2026-04-26T09:08:31.876Z</time></trkpt><trkpt lat="53.6473122" lon="-1.8719045"><ele>348.0</ele><time>2026-04-26T09:08:32.878Z</time></trkpt><trkpt lat="53.6472162" lon="-1.871838"><ele>348.0</ele><time>2026-04-26T09:08:33.883Z</time></trkpt><trkpt lat="53.647093" lon="-1.8717946"><ele>348.0</ele><time>2026-04-26T09:08:34.877Z</time></trkpt><trkpt lat="53.6469586" lon="-1.8717903"><ele>348.0</ele><time>2026-04-26T09:08:35.877Z</time></trkpt><trkpt lat="53.6468173" lon="-1.8718196"><ele>348.0</ele><time>2026-04-26T09:08:36.878Z</time></trkpt><trkpt lat="53.6466688" lon="-1.8718583"><ele>349.3333333333333</ele><time>2026-04-26T09:08:37.879Z</time></trkpt><trkpt lat="53.6465143" lon="-1.8719042"><ele>350.66666666666663</ele><time>2026-04-26T09:08:38.877Z</time></trkpt><trkpt lat="53.6463548" lon="-1.871953"><ele>352.0</ele><time>2026-04-26T09:08:39.878Z</time></trkpt><trkpt lat="53.6461908" lon="-1.8719966"><ele>351.3333333333333</ele><time>2026-04-26T09:08:40.877Z</time></trkpt><trkpt lat="53.6460237" lon="-1.8720359"><ele>350.6666666666667</ele><time>2026-04-26T09:08:41.871Z</time></trkpt><trkpt lat="53.645857" lon="-1.872058"><ele>350.0</ele><time>2026-04-26T09:08:42.872Z</time></trkpt><trkpt lat="53.6456869" lon="-1.8720526"><ele>350.0</ele><time>2026-04-26T09:08:43.878Z</time></trkpt><trkpt lat="53.6455125" lon="-1.8720289"><ele>350.0</ele><time>2026-04-26T09:08:44.874Z</time></trkpt><trkpt lat="53.6453328" lon="-1.8719993"><ele>350.0</ele><time>2026-04-26T09:08:45.873Z</time></trkpt><trkpt lat="53.645151" lon="-1.8719708"><ele>350.0</ele><time>2026-04-26T09:08:46.873Z</time></trkpt><trkpt lat="53.6449689" lon="-1.8719425"><ele>350.0</ele><time>2026-04-26T09:08:47.873Z</time></trkpt><trkpt lat="53.6447842" lon="-1.8719123"><ele>350.0</ele><time>2026-04-26T09:08:48.871Z</time></trkpt><trkpt lat="53.6445977" lon="-1.8718804"><ele>350.33333333333337</ele><time>2026-04-26T09:08:49.872Z</time></trkpt><trkpt lat="53.6444126" lon="-1.8718527"><ele>350.6666666666667</ele><time>2026-04-26T09:08:50.873Z</time></trkpt><trkpt lat="53.6442291" lon="-1.8718236"><ele>351.0</ele><time>2026-04-26T09:08:51.872Z</time></trkpt><trkpt lat="53.6440535" lon="-1.8717991"><ele>351.0</ele><time>2026-04-26T09:08:52.872Z</time></trkpt><trkpt lat="53.6438872" lon="-1.8717757"><ele>351.0</ele><time>2026-04-26T09:08:53.878Z</time></trkpt><trkpt lat="53.6437336" lon="-1.8717541"><ele>351.0</ele><time>2026-04-26T09:08:54.872Z</time></trkpt><trkpt lat="53.6435963" lon="-1.8717351"><ele>349.8</ele><time>2026-04-26T09:08:55.871Z</time></trkpt><trkpt lat="53.6434733" lon="-1.8717149"><ele>348.6</ele><time>2026-04-26T09:08:56.871Z</time></trkpt><trkpt lat="53.6433582" lon="-1.8716981"><ele>347.4</ele><time>2026-04-26T09:08:57.872Z</time></trkpt><trkpt lat="53.6432532" lon="-1.8716919"><ele>346.2</ele><time>2026-04-26T09:08:58.872Z</time></trkpt><trkpt lat="53.6431498" lon="-1.8717095"><ele>345.0</ele><time>2026-04-26T09:08:59.872Z</time></trkpt><trkpt lat="53.643051" lon="-1.871759"><ele>346.2</ele><time>2026-04-26T09:09:00.876Z</time></trkpt><trkpt lat="53.6429616" lon="-1.87184"><ele>347.4</ele><time>2026-04-26T09:09:01.876Z</time></trkpt><trkpt lat="53.642882" lon="-1.8719386"><ele>348.6</ele><time>2026-04-26T09:09:02.876Z</time></trkpt><trkpt lat="53.6428202" lon="-1.8720256"><ele>349.8</ele><time>2026-04-26T09:09:03.883Z</time></trkpt><trkpt lat="53.6427273" lon="-1.8721357"><ele>351.0</ele><time>2026-04-26T09:09:05.874Z</time></trkpt><trkpt lat="53.6426158" lon="-1.8722788"><ele>349.5</ele><time>2026-04-26T09:09:07.874Z</time></trkpt><trkpt lat="53.6425456" lon="-1.872407"><ele>348.0</ele><time>2026-04-26T09:09:08.874Z</time></trkpt><trkpt lat="53.6424657" lon="-1.87256"><ele>346.5</ele><time>2026-04-26T09:09:09.875Z</time></trkpt><trkpt lat="53.6423776" lon="-1.8727152"><ele>345.0</ele><time>2026-04-26T09:09:10.876Z</time></trkpt><trkpt lat="53.6422735" lon="-1.8728755"><ele>345.0</ele><time>2026-04-26T09:09:11.873Z</time></trkpt><trkpt lat="53.6421505" lon="-1.8730404"><ele>345.0</ele><time>2026-04-26T09:09:12.873Z</time></trkpt><trkpt lat="53.6420191" lon="-1.8731856"><ele>345.0</ele><time>2026-04-26T09:09:13.876Z</time></trkpt><trkpt lat="53.641878" lon="-1.8733039"><ele>343.0</ele><time>2026-04-26T09:09:14.869Z</time></trkpt><trkpt lat="53.6417251" lon="-1.8734059"><ele>341.0</ele><time>2026-04-26T09:09:15.87Z</time></trkpt><trkpt lat="53.6415769" lon="-1.8735104"><ele>339.0</ele><time>2026-04-26T09:09:16.872Z</time></trkpt><trkpt lat="53.6414328" lon="-1.8736313"><ele>339.0</ele><time>2026-04-26T09:09:17.87Z</time></trkpt><trkpt lat="53.6412961" lon="-1.8737821"><ele>339.0</ele><time>2026-04-26T09:09:18.87Z</time></trkpt><trkpt lat="53.6411732" lon="-1.8739582"><ele>339.0</ele><time>2026-04-26T09:09:19.87Z</time></trkpt><trkpt lat="53.6410657" lon="-1.8741589"><ele>333.75</ele><time>2026-04-26T09:09:20.873Z</time></trkpt><trkpt lat="53.6409844" lon="-1.8743742"><ele>328.5</ele><time>2026-04-26T09:09:21.871Z</time></trkpt><trkpt lat="53.6409107" lon="-1.8745827"><ele>323.25</ele><time>2026-04-26T09:09:22.871Z</time></trkpt><trkpt lat="53.6408439" lon="-1.8747945"><ele>318.0</ele><time>2026-04-26T09:09:23.875Z</time></trkpt><trkpt lat="53.6407911" lon="-1.8750364"><ele>317.6666666666667</ele><time>2026-04-26T09:09:24.871Z</time></trkpt><trkpt lat="53.6407379" lon="-1.8752866"><ele>317.33333333333337</ele><time>2026-04-26T09:09:25.871Z</time></trkpt><trkpt lat="53.6406659" lon="-1.8755317"><ele>317.0</ele><time>2026-04-26T09:09:26.872Z</time></trkpt><trkpt lat="53.6405775" lon="-1.8757539"><ele>315.6666666666667</ele><time>2026-04-26T09:09:27.872Z</time></trkpt><trkpt lat="53.6404988" lon="-1.8759752"><ele>314.3333333333333</ele><time>2026-04-26T09:09:28.872Z</time></trkpt><trkpt lat="53.6404404" lon="-1.8762058"><ele>313.0</ele><time>2026-04-26T09:09:29.872Z</time></trkpt><trkpt lat="53.6404043" lon="-1.8764548"><ele>313.0</ele><time>2026-04-26T09:09:30.873Z</time></trkpt><trkpt lat="53.6403871" lon="-1.8767163"><ele>313.0</ele><time>2026-04-26T09:09:31.876Z</time></trkpt><trkpt lat="53.6403701" lon="-1.8769932"><ele>313.0</ele><time>2026-04-26T09:09:32.876Z</time></trkpt><trkpt lat="53.6403397" lon="-1.8772581"><ele>309.0</ele><time>2026-04-26T09:09:33.881Z</time></trkpt><trkpt lat="53.6402708" lon="-1.8774838"><ele>305.0</ele><time>2026-04-26T09:09:34.876Z</time></trkpt><trkpt lat="53.640169" lon="-1.8776779"><ele>301.0</ele><time>2026-04-26T09:09:35.876Z</time></trkpt><trkpt lat="53.6400533" lon="-1.877853"><ele>301.0</ele><time>2026-04-26T09:09:36.876Z</time></trkpt><trkpt lat="53.6399245" lon="-1.8780152"><ele>301.0</ele><time>2026-04-26T09:09:37.877Z</time></trkpt><trkpt lat="53.6397913" lon="-1.8781693"><ele>301.0</ele><time>2026-04-26T09:09:38.876Z</time></trkpt><trkpt lat="53.6396615" lon="-1.8783287"><ele>300.75</ele><time>2026-04-26T09:09:39.873Z</time></trkpt><trkpt lat="53.6395366" lon="-1.8784707"><ele>300.5</ele><time>2026-04-26T09:09:40.873Z</time></trkpt><trkpt lat="53.6394236" lon="-1.8785815"><ele>300.25</ele><time>2026-04-26T09:09:41.871Z</time></trkpt><trkpt lat="53.6393254" lon="-1.8786616"><ele>300.0</ele><time>2026-04-26T09:09:42.87Z</time></trkpt><trkpt lat="53.6392458" lon="-1.8787149"><ele>298.2</ele><time>2026-04-26T09:09:43.875Z</time></trkpt><trkpt lat="53.6391815" lon="-1.8787483"><ele>296.4</ele><time>2026-04-26T09:09:44.871Z</time></trkpt><trkpt lat="53.6390848" lon="-1.8787797"><ele>294.6</ele><time>2026-04-26T09:09:46.874Z</time></trkpt><trkpt lat="53.6390437" lon="-1.8788805"><ele>292.8</ele><time>2026-04-26T09:09:48.875Z</time></trkpt><trkpt lat="53.6391238" lon="-1.8790842"><ele>291.0</ele><time>2026-04-26T09:09:50.872Z</time></trkpt><trkpt lat="53.639198" lon="-1.8791998"><ele>291.2</ele><time>2026-04-26T09:09:51.873Z</time></trkpt><trkpt lat="53.6392822" lon="-1.8793193"><ele>291.40000000000003</ele><time>2026-04-26T09:09:52.871Z</time></trkpt><trkpt lat="53.6393625" lon="-1.8794419"><ele>291.6</ele><time>2026-04-26T09:09:53.877Z</time></trkpt><trkpt lat="53.6394282" lon="-1.8795754"><ele>291.8</ele><time>2026-04-26T09:09:54.873Z</time></trkpt><trkpt lat="53.6394541" lon="-1.8797244"><ele>292.0</ele><time>2026-04-26T09:09:55.875Z</time></trkpt><trkpt lat="53.6394198" lon="-1.8798804"><ele>292.0</ele><time>2026-04-26T09:09:56.874Z</time></trkpt><trkpt lat="53.6393317" lon="-1.8800333"><ele>292.0</ele><time>2026-04-26T09:09:57.874Z</time></trkpt><trkpt lat="53.6392146" lon="-1.8801918"><ele>292.0</ele><time>2026-04-26T09:09:58.874Z</time></trkpt><trkpt lat="53.6390946" lon="-1.8803575"><ele>292.0</ele><time>2026-04-26T09:09:59.876Z</time></trkpt><trkpt lat="53.6389958" lon="-1.8805357"><ele>293.0</ele><time>2026-04-26T09:10:00.873Z</time></trkpt><trkpt lat="53.6389039" lon="-1.8807223"><ele>294.0</ele><time>2026-04-26T09:10:01.873Z</time></trkpt><trkpt lat="53.6388035" lon="-1.8808915"><ele>295.0</ele><time>2026-04-26T09:10:02.875Z</time></trkpt><trkpt lat="53.6386829" lon="-1.8810088"><ele>296.0</ele><time>2026-04-26T09:10:03.878Z</time></trkpt><trkpt lat="53.6385512" lon="-1.8810842"><ele>296.0</ele><time>2026-04-26T09:10:04.872Z</time></trkpt><trkpt lat="53.6384224" lon="-1.8811545"><ele>296.0</ele><time>2026-04-26T09:10:05.872Z</time></trkpt><trkpt lat="53.6383016" lon="-1.8812295"><ele>296.0</ele><time>2026-04-26T09:10:06.873Z</time></trkpt><trkpt lat="53.6382028" lon="-1.8813195"><ele>296.0</ele><time>2026-04-26T09:10:07.871Z</time></trkpt><trkpt lat="53.6381258" lon="-1.8814269"><ele>296.0</ele><time>2026-04-26T09:10:08.874Z</time></trkpt><trkpt lat="53.6380691" lon="-1.8815425"><ele>296.0</ele><time>2026-04-26T09:10:09.874Z</time></trkpt><trkpt lat="53.6380222" lon="-1.881642"><ele>296.0</ele><time>2026-04-26T09:10:10.875Z</time></trkpt><trkpt lat="53.6379551" lon="-1.8817793"><ele>296.0</ele><time>2026-04-26T09:10:12.872Z</time></trkpt><trkpt lat="53.6379113" lon="-1.8818656"><ele>296.0</ele><time>2026-04-26T09:10:15.872Z</time></trkpt><trkpt lat="53.637856" lon="-1.8819164"><ele>296.0</ele><time>2026-04-26T09:10:19.871Z</time></trkpt><trkpt lat="53.6377654" lon="-1.8819342"><ele>297.0</ele><time>2026-04-26T09:10:22.871Z</time></trkpt><trkpt lat="53.6376933" lon="-1.8819082"><ele>298.0</ele><time>2026-04-26T09:10:23.876Z</time></trkpt><trkpt lat="53.6376055" lon="-1.8818481"><ele>299.0</ele><time>2026-04-26T09:10:24.872Z</time></trkpt><trkpt lat="53.6375006" lon="-1.8817622"><ele>300.0</ele><time>2026-04-26T09:10:25.872Z</time></trkpt><trkpt lat="53.6373915" lon="-1.8816491"><ele>301.0</ele><time>2026-04-26T09:10:26.872Z</time></trkpt><trkpt lat="53.6372847" lon="-1.8815103"><ele>301.0</ele><time>2026-04-26T09:10:27.871Z</time></trkpt><trkpt lat="53.637187" lon="-1.8813675"><ele>301.0</ele><time>2026-04-26T09:10:28.872Z</time></trkpt><trkpt lat="53.6370935" lon="-1.8812444"><ele>301.0</ele><time>2026-04-26T09:10:29.873Z</time></trkpt><trkpt lat="53.6370055" lon="-1.8811599"><ele>301.0</ele><time>2026-04-26T09:10:30.872Z</time></trkpt><trkpt lat="53.6368276" lon="-1.8811775"><ele>302.6</ele><time>2026-04-26T09:10:32.874Z</time></trkpt><trkpt lat="53.6367566" lon="-1.8812757"><ele>304.20000000000005</ele><time>2026-04-26T09:10:33.874Z</time></trkpt><trkpt lat="53.6366999" lon="-1.8814135"><ele>305.79999999999995</ele><time>2026-04-26T09:10:34.873Z</time></trkpt><trkpt lat="53.6366421" lon="-1.8815764"><ele>307.4</ele><time>2026-04-26T09:10:35.874Z</time></trkpt><trkpt lat="53.6365803" lon="-1.8817379"><ele>309.0</ele><time>2026-04-26T09:10:36.874Z</time></trkpt><trkpt lat="53.636532" lon="-1.8819039"><ele>310.2</ele><time>2026-04-26T09:10:37.875Z</time></trkpt><trkpt lat="53.6364857" lon="-1.8820539"><ele>311.4</ele><time>2026-04-26T09:10:38.873Z</time></trkpt><trkpt lat="53.6364384" lon="-1.8821787"><ele>312.6</ele><time>2026-04-26T09:10:39.874Z</time></trkpt><trkpt lat="53.6363974" lon="-1.8822846"><ele>313.8</ele><time>2026-04-26T09:10:40.876Z</time></trkpt><trkpt lat="53.6363818" lon="-1.8824703"><ele>315.0</ele><time>2026-04-26T09:10:42.874Z</time></trkpt><trkpt lat="53.6364351" lon="-1.8826347"><ele>315.5</ele><time>2026-04-26T09:10:44.873Z</time></trkpt><trkpt lat="53.6365098" lon="-1.8827978"><ele>316.0</ele><time>2026-04-26T09:10:46.868Z</time></trkpt><trkpt lat="53.6365483" lon="-1.8828906"><ele>316.5</ele><time>2026-04-26T09:10:47.867Z</time></trkpt><trkpt lat="53.6365867" lon="-1.8829908"><ele>317.0</ele><time>2026-04-26T09:10:48.862Z</time></trkpt><trkpt lat="53.6366243" lon="-1.8830942"><ele>317.5</ele><time>2026-04-26T09:10:49.874Z</time></trkpt><trkpt lat="53.6366592" lon="-1.8832038"><ele>318.0</ele><time>2026-04-26T09:10:50.868Z</time></trkpt><trkpt lat="53.6366987" lon="-1.8833199"><ele>318.6</ele><time>2026-04-26T09:10:51.867Z</time></trkpt><trkpt lat="53.6367433" lon="-1.8834478"><ele>319.20000000000005</ele><time>2026-04-26T09:10:52.873Z</time></trkpt><trkpt lat="53.6367956" lon="-1.8835925"><ele>319.8</ele><time>2026-04-26T09:10:53.869Z</time></trkpt><trkpt lat="53.6368545" lon="-1.8837524"><ele>320.40000000000003</ele><time>2026-04-26T09:10:54.874Z</time></trkpt><trkpt lat="53.6369208" lon="-1.8839349"><ele>321.0</ele><time>2026-04-26T09:10:55.875Z</time></trkpt><trkpt lat="53.6369952" lon="-1.884155"><ele>323.0</ele><time>2026-04-26T09:10:56.875Z</time></trkpt><trkpt lat="53.6370778" lon="-1.8844082"><ele>325.0</ele><time>2026-04-26T09:10:57.868Z</time></trkpt><trkpt lat="53.6371627" lon="-1.8846584"><ele>327.0</ele><time>2026-04-26T09:10:58.867Z</time></trkpt><trkpt lat="53.6372467" lon="-1.8849115"><ele>328.0</ele><time>2026-04-26T09:10:59.874Z</time></trkpt><trkpt lat="53.6373327" lon="-1.8851854"><ele>329.0</ele><time>2026-04-26T09:11:00.871Z</time></trkpt><trkpt lat="53.6374212" lon="-1.8854722"><ele>330.0</ele><time>2026-04-26T09:11:01.877Z</time></trkpt><trkpt lat="53.6375143" lon="-1.8857621"><ele>330.3333333333333</ele><time>2026-04-26T09:11:02.875Z</time></trkpt><trkpt lat="53.6376068" lon="-1.8860455"><ele>330.66666666666663</ele><time>2026-04-26T09:11:03.877Z</time></trkpt><trkpt lat="53.6376941" lon="-1.8863096"><ele>331.0</ele><time>2026-04-26T09:11:04.868Z</time></trkpt><trkpt lat="53.6377716" lon="-1.8865556"><ele>330.75</ele><time>2026-04-26T09:11:05.871Z</time></trkpt><trkpt lat="53.6378374" lon="-1.886775"><ele>330.5</ele><time>2026-04-26T09:11:06.874Z</time></trkpt><trkpt lat="53.6378919" lon="-1.8869615"><ele>330.25</ele><time>2026-04-26T09:11:07.875Z</time></trkpt><trkpt lat="53.6379282" lon="-1.8871208"><ele>330.0</ele><time>2026-04-26T09:11:08.876Z</time></trkpt><trkpt lat="53.6379379" lon="-1.8872717"><ele>330.0</ele><time>2026-04-26T09:11:09.876Z</time></trkpt><trkpt lat="53.6379228" lon="-1.8874384"><ele>330.0</ele><time>2026-04-26T09:11:10.871Z</time></trkpt><trkpt lat="53.6378887" lon="-1.8876335"><ele>330.0</ele><time>2026-04-26T09:11:11.873Z</time></trkpt><trkpt lat="53.6378448" lon="-1.8878582"><ele>330.0</ele><time>2026-04-26T09:11:12.874Z</time></trkpt><trkpt lat="53.6378052" lon="-1.8881221"><ele>331.6666666666667</ele><time>2026-04-26T09:11:13.871Z</time></trkpt><trkpt lat="53.6377651" lon="-1.8884155"><ele>333.33333333333337</ele><time>2026-04-26T09:11:14.874Z</time></trkpt><trkpt lat="53.6377173" lon="-1.8887207"><ele>335.0</ele><time>2026-04-26T09:11:15.873Z</time></trkpt><trkpt lat="53.6376701" lon="-1.889039"><ele>335.0</ele><time>2026-04-26T09:11:16.873Z</time></trkpt><trkpt lat="53.6376183" lon="-1.8893625"><ele>335.0</ele><time>2026-04-26T09:11:17.878Z</time></trkpt><trkpt lat="53.6375628" lon="-1.8896897"><ele>335.0</ele><time>2026-04-26T09:11:18.875Z</time></trkpt><trkpt lat="53.6375101" lon="-1.8900222"><ele>335.33333333333337</ele><time>2026-04-26T09:11:19.875Z</time></trkpt><trkpt lat="53.6374588" lon="-1.8903493"><ele>335.6666666666667</ele><time>2026-04-26T09:11:20.875Z</time></trkpt><trkpt lat="53.6374085" lon="-1.8906733"><ele>336.0</ele><time>2026-04-26T09:11:21.876Z</time></trkpt><trkpt lat="53.6373605" lon="-1.8909975"><ele>336.6666666666667</ele><time>2026-04-26T09:11:22.875Z</time></trkpt><trkpt lat="53.6373121" lon="-1.8913152"><ele>337.33333333333337</ele><time>2026-04-26T09:11:23.875Z</time></trkpt><trkpt lat="53.6372629" lon="-1.8916249"><ele>338.0</ele><time>2026-04-26T09:11:24.875Z</time></trkpt><trkpt lat="53.6372135" lon="-1.8919302"><ele>338.33333333333337</ele><time>2026-04-26T09:11:25.874Z</time></trkpt><trkpt lat="53.6371667" lon="-1.8922407"><ele>338.6666666666667</ele><time>2026-04-26T09:11:26.874Z</time></trkpt><trkpt lat="53.637123" lon="-1.8925513"><ele>339.0</ele><time>2026-04-26T09:11:27.874Z</time></trkpt><trkpt lat="53.6370789" lon="-1.8928627"><ele>339.0</ele><time>2026-04-26T09:11:28.875Z</time></trkpt><trkpt lat="53.6370351" lon="-1.8931704"><ele>339.0</ele><time>2026-04-26T09:11:29.875Z</time></trkpt><trkpt lat="53.6369913" lon="-1.8934755"><ele>339.0</ele><time>2026-04-26T09:11:30.866Z</time></trkpt><trkpt lat="53.6369465" lon="-1.8937767"><ele>339.0</ele><time>2026-04-26T09:11:31.878Z</time></trkpt><trkpt lat="53.6368966" lon="-1.8940756"><ele>339.0</ele><time>2026-04-26T09:11:32.884Z</time></trkpt><trkpt lat="53.636843" lon="-1.8943578"><ele>339.0</ele><time>2026-04-26T09:11:33.886Z</time></trkpt><trkpt lat="53.6367898" lon="-1.8945949"><ele>339.0</ele><time>2026-04-26T09:11:34.877Z</time></trkpt><trkpt lat="53.6367404" lon="-1.8947894"><ele>339.0</ele><time>2026-04-26T09:11:35.876Z</time></trkpt><trkpt lat="53.6366984" lon="-1.8949518"><ele>339.0</ele><time>2026-04-26T09:11:36.877Z</time></trkpt><trkpt lat="53.6366634" lon="-1.8950828"><ele>339.0</ele><time>2026-04-26T09:11:37.874Z</time></trkpt><trkpt lat="53.6366344" lon="-1.8951898"><ele>339.0</ele><time>2026-04-26T09:11:38.875Z</time></trkpt><trkpt lat="53.6366015" lon="-1.8953889"><ele>339.0</ele><time>2026-04-26T09:11:40.877Z</time></trkpt><trkpt lat="53.6365875" lon="-1.8955018"><ele>339.0</ele><time>2026-04-26T09:11:41.874Z</time></trkpt><trkpt lat="53.6365636" lon="-1.8956228"><ele>339.0</ele><time>2026-04-26T09:11:42.874Z</time></trkpt><trkpt lat="53.6365304" lon="-1.8957429"><ele>339.0</ele><time>2026-04-26T09:11:43.875Z</time></trkpt><trkpt lat="53.6364947" lon="-1.8958643"><ele>339.0</ele><time>2026-04-26T09:11:44.874Z</time></trkpt><trkpt lat="53.6364551" lon="-1.8959931"><ele>339.0</ele><time>2026-04-26T09:11:45.873Z</time></trkpt><trkpt lat="53.6364148" lon="-1.8961297"><ele>339.0</ele><time>2026-04-26T09:11:46.874Z</time></trkpt><trkpt lat="53.6363764" lon="-1.8962724"><ele>339.0</ele><time>2026-04-26T09:11:47.873Z</time></trkpt><trkpt lat="53.6363405" lon="-1.896419"><ele>339.0</ele><time>2026-04-26T09:11:48.873Z</time></trkpt><trkpt lat="53.6363063" lon="-1.8965653"><ele>339.0</ele><time>2026-04-26T09:11:49.874Z</time></trkpt><trkpt lat="53.6362719" lon="-1.8967122"><ele>339.0</ele><time>2026-04-26T09:11:50.875Z</time></trkpt><trkpt lat="53.6362361" lon="-1.896866"><ele>339.0</ele><time>2026-04-26T09:11:51.875Z</time></trkpt><trkpt lat="53.6361981" lon="-1.8970267"><ele>339.0</ele><time>2026-04-26T09:11:52.873Z</time></trkpt><trkpt lat="53.6361555" lon="-1.8971866"><ele>339.0</ele><time>2026-04-26T09:11:53.877Z</time></trkpt><trkpt lat="53.636112" lon="-1.8973428"><ele>339.0</ele><time>2026-04-26T09:11:54.875Z</time></trkpt><trkpt lat="53.6360675" lon="-1.8974959"><ele>339.0</ele><time>2026-04-26T09:11:55.872Z</time></trkpt><trkpt lat="53.6360216" lon="-1.8976393"><ele>339.2</ele><time>2026-04-26T09:11:56.875Z</time></trkpt><trkpt lat="53.6359708" lon="-1.8977745"><ele>339.4</ele><time>2026-04-26T09:11:57.874Z</time></trkpt><trkpt lat="53.6359173" lon="-1.8979053"><ele>339.6</ele><time>2026-04-26T09:11:58.875Z</time></trkpt><trkpt lat="53.6358629" lon="-1.8980362"><ele>339.8</ele><time>2026-04-26T09:11:59.874Z</time></trkpt><trkpt lat="53.6358069" lon="-1.8981707"><ele>340.0</ele><time>2026-04-26T09:12:00.875Z</time></trkpt><trkpt lat="53.6357513" lon="-1.8983098"><ele>339.8</ele><time>2026-04-26T09:12:01.877Z</time></trkpt><trkpt lat="53.6356972" lon="-1.8984609"><ele>339.6</ele><time>2026-04-26T09:12:02.876Z</time></trkpt><trkpt lat="53.6356479" lon="-1.8986129"><ele>339.4</ele><time>2026-04-26T09:12:03.881Z</time></trkpt><trkpt lat="53.635605" lon="-1.8987569"><ele>339.2</ele><time>2026-04-26T09:12:04.877Z</time></trkpt><trkpt lat="53.6355678" lon="-1.8988997"><ele>339.0</ele><time>2026-04-26T09:12:05.877Z</time></trkpt><trkpt lat="53.6355294" lon="-1.8990451"><ele>339.0</ele><time>2026-04-26T09:12:06.876Z</time></trkpt><trkpt lat="53.6354865" lon="-1.8991895"><ele>339.0</ele><time>2026-04-26T09:12:07.876Z</time></trkpt><trkpt lat="53.6354424" lon="-1.8993253"><ele>339.0</ele><time>2026-04-26T09:12:08.877Z</time></trkpt><trkpt lat="53.6353959" lon="-1.8994684"><ele>339.0</ele><time>2026-04-26T09:12:09.875Z</time></trkpt><trkpt lat="53.6353471" lon="-1.8996255"><ele>339.0</ele><time>2026-04-26T09:12:10.875Z</time></trkpt><trkpt lat="53.6353027" lon="-1.899784"><ele>338.0</ele><time>2026-04-26T09:12:11.874Z</time></trkpt><trkpt lat="53.6352531" lon="-1.8999238"><ele>337.0</ele><time>2026-04-26T09:12:12.874Z</time></trkpt><trkpt lat="53.6351934" lon="-1.9000505"><ele>336.0</ele><time>2026-04-26T09:12:13.88Z</time></trkpt><trkpt lat="53.6351313" lon="-1.9001774"><ele>335.0</ele><time>2026-04-26T09:12:14.873Z</time></trkpt><trkpt lat="53.6350727" lon="-1.9003088"><ele>334.0</ele><time>2026-04-26T09:12:15.867Z</time></trkpt><trkpt lat="53.6350185" lon="-1.9004298"><ele>334.0</ele><time>2026-04-26T09:12:16.875Z</time></trkpt><trkpt lat="53.6349688" lon="-1.9005331"><ele>334.0</ele><time>2026-04-26T09:12:17.874Z</time></trkpt><trkpt lat="53.6349258" lon="-1.9006378"><ele>334.0</ele><time>2026-04-26T09:12:18.874Z</time></trkpt><trkpt lat="53.6348852" lon="-1.900753"><ele>334.0</ele><time>2026-04-26T09:12:19.874Z</time></trkpt><trkpt lat="53.6348432" lon="-1.9008702"><ele>334.0</ele><time>2026-04-26T09:12:20.87Z</time></trkpt><trkpt lat="53.6348046" lon="-1.9009747"><ele>334.0</ele><time>2026-04-26T09:12:21.875Z</time></trkpt><trkpt lat="53.6347691" lon="-1.9010655"><ele>334.2</ele><time>2026-04-26T09:12:22.874Z</time></trkpt><trkpt lat="53.6347144" lon="-1.901218"><ele>334.4</ele><time>2026-04-26T09:12:24.875Z</time></trkpt><trkpt lat="53.634693" lon="-1.9013191"><ele>334.6</ele><time>2026-04-26T09:12:27.877Z</time></trkpt><trkpt lat="53.6346793" lon="-1.9014982"><ele>334.8</ele><time>2026-04-26T09:12:29.876Z</time></trkpt><trkpt lat="53.6346872" lon="-1.9016415"><ele>335.0</ele><time>2026-04-26T09:12:30.876Z</time></trkpt><trkpt lat="53.6347049" lon="-1.9018051"><ele>335.0</ele><time>2026-04-26T09:12:31.875Z</time></trkpt><trkpt lat="53.6347273" lon="-1.9019467"><ele>335.0</ele><time>2026-04-26T09:12:32.877Z</time></trkpt><trkpt lat="53.6347554" lon="-1.9020736"><ele>335.0</ele><time>2026-04-26T09:12:33.882Z</time></trkpt><trkpt lat="53.6347943" lon="-1.9021991"><ele>335.0</ele><time>2026-04-26T09:12:34.874Z</time></trkpt><trkpt lat="53.6348376" lon="-1.9023309"><ele>335.0</ele><time>2026-04-26T09:12:35.876Z</time></trkpt><trkpt lat="53.6348891" lon="-1.9024798"><ele>335.0</ele><time>2026-04-26T09:12:36.876Z</time></trkpt><trkpt lat="53.6349479" lon="-1.9026371"><ele>335.0</ele><time>2026-04-26T09:12:37.876Z</time></trkpt><trkpt lat="53.6350015" lon="-1.9027897"><ele>335.0</ele><time>2026-04-26T09:12:38.875Z</time></trkpt><trkpt lat="53.6350508" lon="-1.9029537"><ele>335.0</ele><time>2026-04-26T09:12:39.876Z</time></trkpt><trkpt lat="53.6350979" lon="-1.903128"><ele>335.0</ele><time>2026-04-26T09:12:40.877Z</time></trkpt><trkpt lat="53.6351406" lon="-1.9032965"><ele>335.0</ele><time>2026-04-26T09:12:41.872Z</time></trkpt><trkpt lat="53.6351774" lon="-1.9034271"><ele>335.0</ele><time>2026-04-26T09:12:42.873Z</time></trkpt><trkpt lat="53.6352077" lon="-1.9035302"><ele>335.0</ele><time>2026-04-26T09:12:43.878Z</time></trkpt><trkpt lat="53.6352347" lon="-1.9036365"><ele>335.0</ele><time>2026-04-26T09:12:44.873Z</time></trkpt><trkpt lat="53.6352614" lon="-1.9037561"><ele>335.0</ele><time>2026-04-26T09:12:45.874Z</time></trkpt><trkpt lat="53.6352926" lon="-1.9038932"><ele>335.0</ele><time>2026-04-26T09:12:46.874Z</time></trkpt><trkpt lat="53.6353281" lon="-1.9040466"><ele>335.0</ele><time>2026-04-26T09:12:47.874Z</time></trkpt><trkpt lat="53.6353676" lon="-1.9041974"><ele>337.4</ele><time>2026-04-26T09:12:48.875Z</time></trkpt><trkpt lat="53.6354105" lon="-1.9043472"><ele>339.8</ele><time>2026-04-26T09:12:49.874Z</time></trkpt><trkpt lat="53.6354549" lon="-1.904507"><ele>342.20000000000005</ele><time>2026-04-26T09:12:50.877Z</time></trkpt><trkpt lat="53.6355014" lon="-1.9046729"><ele>344.6</ele><time>2026-04-26T09:12:51.874Z</time></trkpt><trkpt lat="53.6355507" lon="-1.9048458"><ele>347.0</ele><time>2026-04-26T09:12:52.874Z</time></trkpt><trkpt lat="53.6355986" lon="-1.9050236"><ele>348.0</ele><time>2026-04-26T09:12:53.876Z</time></trkpt><trkpt lat="53.6356436" lon="-1.9052035"><ele>349.0</ele><time>2026-04-26T09:12:54.874Z</time></trkpt><trkpt lat="53.635684" lon="-1.9053874"><ele>350.0</ele><time>2026-04-26T09:12:55.874Z</time></trkpt><trkpt lat="53.6357232" lon="-1.9055757"><ele>351.0</ele><time>2026-04-26T09:12:56.875Z</time></trkpt><trkpt lat="53.6357684" lon="-1.905766"><ele>352.0</ele><time>2026-04-26T09:12:57.875Z</time></trkpt><trkpt lat="53.6358186" lon="-1.9059554"><ele>353.0</ele><time>2026-04-26T09:12:58.874Z</time></trkpt><trkpt lat="53.6358689" lon="-1.906132"><ele>354.0</ele><time>2026-04-26T09:12:59.876Z</time></trkpt><trkpt lat="53.6359171" lon="-1.906297"><ele>355.0</ele><time>2026-04-26T09:13:00.874Z</time></trkpt><trkpt lat="53.6359603" lon="-1.9064563"><ele>355.0</ele><time>2026-04-26T09:13:01.877Z</time></trkpt><trkpt lat="53.6359973" lon="-1.9066037"><ele>355.0</ele><time>2026-04-26T09:13:02.875Z</time></trkpt><trkpt lat="53.6360306" lon="-1.9067247"><ele>355.0</ele><time>2026-04-26T09:13:03.881Z</time></trkpt><trkpt lat="53.6360564" lon="-1.9068232"><ele>355.0</ele><time>2026-04-26T09:13:04.877Z</time></trkpt><trkpt lat="53.6360793" lon="-1.9069269"><ele>355.0</ele><time>2026-04-26T09:13:05.879Z</time></trkpt><trkpt lat="53.6361031" lon="-1.9070466"><ele>355.0</ele><time>2026-04-26T09:13:06.877Z</time></trkpt><trkpt lat="53.6361254" lon="-1.9071833"><ele>358.0</ele><time>2026-04-26T09:13:07.876Z</time></trkpt><trkpt lat="53.6361386" lon="-1.9073245"><ele>361.0</ele><time>2026-04-26T09:13:08.876Z</time></trkpt><trkpt lat="53.6361469" lon="-1.9074565"><ele>364.0</ele><time>2026-04-26T09:13:09.876Z</time></trkpt><trkpt lat="53.636188" lon="-1.9076113"><ele>367.0</ele><time>2026-04-26T09:13:11.874Z</time></trkpt><trkpt lat="53.6362673" lon="-1.9075873"><ele>370.0</ele><time>2026-04-26T09:13:13.881Z</time></trkpt><trkpt lat="53.6363117" lon="-1.9075052"><ele>373.0</ele><time>2026-04-26T09:13:14.875Z</time></trkpt><trkpt lat="53.6363544" lon="-1.9074"><ele>373.0</ele><time>2026-04-26T09:13:15.875Z</time></trkpt><trkpt lat="53.6364002" lon="-1.9072854"><ele>373.0</ele><time>2026-04-26T09:13:16.872Z</time></trkpt><trkpt lat="53.6364456" lon="-1.9071652"><ele>373.0</ele><time>2026-04-26T09:13:17.873Z</time></trkpt><trkpt lat="53.6364866" lon="-1.9070347"><ele>373.0</ele><time>2026-04-26T09:13:18.872Z</time></trkpt><trkpt lat="53.6365285" lon="-1.9068903"><ele>373.0</ele><time>2026-04-26T09:13:19.871Z</time></trkpt><trkpt lat="53.636568" lon="-1.9067324"><ele>372.2</ele><time>2026-04-26T09:13:20.874Z</time></trkpt><trkpt lat="53.6366051" lon="-1.9065709"><ele>371.4</ele><time>2026-04-26T09:13:21.872Z</time></trkpt><trkpt lat="53.6366427" lon="-1.9064145"><ele>370.59999999999997</ele><time>2026-04-26T09:13:22.872Z</time></trkpt><trkpt lat="53.6366838" lon="-1.9062542"><ele>369.79999999999995</ele><time>2026-04-26T09:13:23.877Z</time></trkpt><trkpt lat="53.6367282" lon="-1.9060976"><ele>369.0</ele><time>2026-04-26T09:13:24.873Z</time></trkpt><trkpt lat="53.636775" lon="-1.9059394"><ele>367.75</ele><time>2026-04-26T09:13:25.871Z</time></trkpt><trkpt lat="53.6368219" lon="-1.9057709"><ele>366.5</ele><time>2026-04-26T09:13:26.871Z</time></trkpt><trkpt lat="53.6368754" lon="-1.9055947"><ele>365.25</ele><time>2026-04-26T09:13:27.871Z</time></trkpt><trkpt lat="53.6369349" lon="-1.905414"><ele>364.0</ele><time>2026-04-26T09:13:28.874Z</time></trkpt><trkpt lat="53.6369943" lon="-1.9052376"><ele>367.0</ele><time>2026-04-26T09:13:29.871Z</time></trkpt><trkpt lat="53.6370525" lon="-1.9050622"><ele>370.0</ele><time>2026-04-26T09:13:30.871Z</time></trkpt><trkpt lat="53.6371132" lon="-1.9048796"><ele>373.0</ele><time>2026-04-26T09:13:31.875Z</time></trkpt><trkpt lat="53.6371753" lon="-1.9046876"><ele>376.0</ele><time>2026-04-26T09:13:32.875Z</time></trkpt><trkpt lat="53.6372414" lon="-1.9044912"><ele>376.0</ele><time>2026-04-26T09:13:33.876Z</time></trkpt><trkpt lat="53.63731" lon="-1.9042909"><ele>376.0</ele><time>2026-04-26T09:13:34.874Z</time></trkpt><trkpt lat="53.63738" lon="-1.9040918"><ele>376.0</ele><time>2026-04-26T09:13:35.874Z</time></trkpt><trkpt lat="53.6374541" lon="-1.9038972"><ele>376.0</ele><time>2026-04-26T09:13:36.873Z</time></trkpt><trkpt lat="53.6375292" lon="-1.9037067"><ele>374.5</ele><time>2026-04-26T09:13:37.875Z</time></trkpt><trkpt lat="53.6376004" lon="-1.9035187"><ele>373.0</ele><time>2026-04-26T09:13:38.871Z</time></trkpt><trkpt lat="53.6376643" lon="-1.9033394"><ele>371.5</ele><time>2026-04-26T09:13:39.873Z</time></trkpt><trkpt lat="53.6377209" lon="-1.9031735"><ele>370.0</ele><time>2026-04-26T09:13:40.873Z</time></trkpt><trkpt lat="53.6377704" lon="-1.9030225"><ele>370.0</ele><time>2026-04-26T09:13:41.866Z</time></trkpt><trkpt lat="53.6378183" lon="-1.9028828"><ele>370.0</ele><time>2026-04-26T09:13:42.872Z</time></trkpt><trkpt lat="53.6378717" lon="-1.9027449"><ele>370.0</ele><time>2026-04-26T09:13:43.877Z</time></trkpt><trkpt lat="53.637932" lon="-1.9026039"><ele>370.0</ele><time>2026-04-26T09:13:44.87Z</time></trkpt><trkpt lat="53.6380025" lon="-1.9024589"><ele>370.0</ele><time>2026-04-26T09:13:45.871Z</time></trkpt><trkpt lat="53.6380841" lon="-1.9023105"><ele>368.6</ele><time>2026-04-26T09:13:46.871Z</time></trkpt><trkpt lat="53.6381713" lon="-1.9021658"><ele>367.2</ele><time>2026-04-26T09:13:47.873Z</time></trkpt><trkpt lat="53.6382528" lon="-1.9020304"><ele>365.79999999999995</ele><time>2026-04-26T09:13:48.881Z</time></trkpt><trkpt lat="53.6383245" lon="-1.9019042"><ele>364.4</ele><time>2026-04-26T09:13:49.874Z</time></trkpt><trkpt lat="53.6383869" lon="-1.9017842"><ele>363.0</ele><time>2026-04-26T09:13:50.872Z</time></trkpt><trkpt lat="53.6384372" lon="-1.9016736"><ele>362.1666666666667</ele><time>2026-04-26T09:13:51.874Z</time></trkpt><trkpt lat="53.6384786" lon="-1.9015742"><ele>361.3333333333333</ele><time>2026-04-26T09:13:52.873Z</time></trkpt><trkpt lat="53.6385171" lon="-1.9014871"><ele>360.5</ele><time>2026-04-26T09:13:53.878Z</time></trkpt><trkpt lat="53.6385883" lon="-1.9013735"><ele>359.66666666666663</ele><time>2026-04-26T09:13:55.872Z</time></trkpt><trkpt lat="53.638676" lon="-1.9013721"><ele>358.8333333333333</ele><time>2026-04-26T09:13:57.874Z</time></trkpt><trkpt lat="53.6387316" lon="-1.9014369"><ele>358.0</ele><time>2026-04-26T09:13:58.873Z</time></trkpt><trkpt lat="53.6387939" lon="-1.9015372"><ele>356.4</ele><time>2026-04-26T09:13:59.873Z</time></trkpt><trkpt lat="53.6388562" lon="-1.9016581"><ele>354.79999999999995</ele><time>2026-04-26T09:14:00.876Z</time></trkpt><trkpt lat="53.6389168" lon="-1.901794"><ele>353.2</ele><time>2026-04-26T09:14:01.876Z</time></trkpt><trkpt lat="53.6389699" lon="-1.9019378"><ele>351.6</ele><time>2026-04-26T09:14:02.875Z</time></trkpt><trkpt lat="53.6390083" lon="-1.9020803"><ele>350.0</ele><time>2026-04-26T09:14:03.881Z</time></trkpt><trkpt lat="53.6390393" lon="-1.9022157"><ele>349.83333333333337</ele><time>2026-04-26T09:14:04.876Z</time></trkpt><trkpt lat="53.6390694" lon="-1.9023398"><ele>349.6666666666667</ele><time>2026-04-26T09:14:05.875Z</time></trkpt><trkpt lat="53.6390988" lon="-1.9024624"><ele>349.5</ele><time>2026-04-26T09:14:06.876Z</time></trkpt><trkpt lat="53.639125" lon="-1.9025873"><ele>349.3333333333333</ele><time>2026-04-26T09:14:07.877Z</time></trkpt><trkpt lat="53.6391428" lon="-1.9027091"><ele>349.16666666666663</ele><time>2026-04-26T09:14:08.876Z</time></trkpt><trkpt lat="53.6391589" lon="-1.9028356"><ele>349.0</ele><time>2026-04-26T09:14:09.876Z</time></trkpt><trkpt lat="53.6391693" lon="-1.9029703"><ele>348.5</ele><time>2026-04-26T09:14:10.876Z</time></trkpt><trkpt lat="53.6391649" lon="-1.9031255"><ele>348.0</ele><time>2026-04-26T09:14:11.873Z</time></trkpt><trkpt lat="53.6391468" lon="-1.9033075"><ele>347.5</ele><time>2026-04-26T09:14:12.875Z</time></trkpt><trkpt lat="53.6391204" lon="-1.9035136"><ele>347.0</ele><time>2026-04-26T09:14:13.88Z</time></trkpt><trkpt lat="53.6390844" lon="-1.9037407"><ele>347.0</ele><time>2026-04-26T09:14:14.874Z</time></trkpt><trkpt lat="53.6390344" lon="-1.9039916"><ele>347.0</ele><time>2026-04-26T09:14:15.874Z</time></trkpt><trkpt lat="53.6389766" lon="-1.9042624"><ele>347.0</ele><time>2026-04-26T09:14:16.877Z</time></trkpt><trkpt lat="53.6389145" lon="-1.9045484"><ele>346.0</ele><time>2026-04-26T09:14:17.876Z</time></trkpt><trkpt lat="53.6388495" lon="-1.9048531"><ele>345.0</ele><time>2026-04-26T09:14:18.876Z</time></trkpt><trkpt lat="53.6387814" lon="-1.9051694"><ele>344.0</ele><time>2026-04-26T09:14:19.873Z</time></trkpt><trkpt lat="53.6387121" lon="-1.9054908"><ele>344.0</ele><time>2026-04-26T09:14:20.874Z</time></trkpt><trkpt lat="53.6386418" lon="-1.9058136"><ele>344.0</ele><time>2026-04-26T09:14:21.875Z</time></trkpt><trkpt lat="53.6385677" lon="-1.9061414"><ele>344.0</ele><time>2026-04-26T09:14:22.875Z</time></trkpt><trkpt lat="53.6384895" lon="-1.906478"><ele>348.6666666666667</ele><time>2026-04-26T09:14:23.87Z</time></trkpt><trkpt lat="53.638409" lon="-1.9068175"><ele>353.3333333333333</ele><time>2026-04-26T09:14:24.873Z</time></trkpt><trkpt lat="53.6383315" lon="-1.9071549"><ele>358.0</ele><time>2026-04-26T09:14:25.876Z</time></trkpt><trkpt lat="53.6382565" lon="-1.9074911"><ele>356.66666666666663</ele><time>2026-04-26T09:14:26.874Z</time></trkpt><trkpt lat="53.6381818" lon="-1.9078296"><ele>355.3333333333333</ele><time>2026-04-26T09:14:27.875Z</time></trkpt><trkpt lat="53.638111" lon="-1.9081661"><ele>354.0</ele><time>2026-04-26T09:14:28.875Z</time></trkpt><trkpt lat="53.6380433" lon="-1.9085046"><ele>352.0</ele><time>2026-04-26T09:14:29.874Z</time></trkpt><trkpt lat="53.6379809" lon="-1.908847"><ele>350.0</ele><time>2026-04-26T09:14:30.874Z</time></trkpt><trkpt lat="53.6379301" lon="-1.9091922"><ele>348.0</ele><time>2026-04-26T09:14:31.877Z</time></trkpt><trkpt lat="53.637889" lon="-1.9095383"><ele>348.3333333333333</ele><time>2026-04-26T09:14:32.878Z</time></trkpt><trkpt lat="53.6378657" lon="-1.9098758"><ele>348.66666666666663</ele><time>2026-04-26T09:14:33.881Z</time></trkpt><trkpt lat="53.6378649" lon="-1.9102093"><ele>349.0</ele><time>2026-04-26T09:14:34.875Z</time></trkpt><trkpt lat="53.6378881" lon="-1.9105327"><ele>349.0</ele><time>2026-04-26T09:14:35.878Z</time></trkpt><trkpt lat="53.6379299" lon="-1.9108271"><ele>349.0</ele><time>2026-04-26T09:14:36.877Z</time></trkpt><trkpt lat="53.6379788" lon="-1.9110839"><ele>349.0</ele><time>2026-04-26T09:14:37.877Z</time></trkpt><trkpt lat="53.6380304" lon="-1.9113083"><ele>350.0</ele><time>2026-04-26T09:14:38.877Z</time></trkpt><trkpt lat="53.638081" lon="-1.9115038"><ele>351.0</ele><time>2026-04-26T09:14:39.873Z</time></trkpt><trkpt lat="53.6381254" lon="-1.9116871"><ele>352.0</ele><time>2026-04-26T09:14:40.873Z</time></trkpt><trkpt lat="53.6381624" lon="-1.9118681"><ele>353.0</ele><time>2026-04-26T09:14:41.873Z</time></trkpt><trkpt lat="53.6382003" lon="-1.9120358"><ele>353.5</ele><time>2026-04-26T09:14:42.872Z</time></trkpt><trkpt lat="53.6382574" lon="-1.9121872"><ele>354.0</ele><time>2026-04-26T09:14:43.882Z</time></trkpt><trkpt lat="53.6383377" lon="-1.9123251"><ele>354.5</ele><time>2026-04-26T09:14:44.87Z</time></trkpt><trkpt lat="53.6384326" lon="-1.9124503"><ele>355.0</ele><time>2026-04-26T09:14:45.875Z</time></trkpt><trkpt lat="53.6385279" lon="-1.9125688"><ele>355.0</ele><time>2026-04-26T09:14:46.875Z</time></trkpt><trkpt lat="53.6386284" lon="-1.9126816"><ele>355.0</ele><time>2026-04-26T09:14:47.876Z</time></trkpt><trkpt lat="53.6387458" lon="-1.9127806"><ele>355.0</ele><time>2026-04-26T09:14:48.873Z</time></trkpt><trkpt lat="53.6388872" lon="-1.9128552"><ele>355.0</ele><time>2026-04-26T09:14:49.875Z</time></trkpt><trkpt lat="53.639056" lon="-1.9129159"><ele>352.66666666666663</ele><time>2026-04-26T09:14:50.875Z</time></trkpt><trkpt lat="53.6392455" lon="-1.9129823"><ele>350.3333333333333</ele><time>2026-04-26T09:14:51.875Z</time></trkpt><trkpt lat="53.6394493" lon="-1.9130627"><ele>348.0</ele><time>2026-04-26T09:14:52.876Z</time></trkpt><trkpt lat="53.6396519" lon="-1.9131489"><ele>344.6666666666667</ele><time>2026-04-26T09:14:53.879Z</time></trkpt><trkpt lat="53.6398358" lon="-1.9132347"><ele>341.33333333333337</ele><time>2026-04-26T09:14:54.876Z</time></trkpt><trkpt lat="53.640011" lon="-1.9133143"><ele>338.0</ele><time>2026-04-26T09:14:55.875Z</time></trkpt><trkpt lat="53.6401828" lon="-1.9133874"><ele>337.0</ele><time>2026-04-26T09:14:56.876Z</time></trkpt><trkpt lat="53.6403576" lon="-1.9134582"><ele>336.0</ele><time>2026-04-26T09:14:57.877Z</time></trkpt><trkpt lat="53.6405367" lon="-1.9135345"><ele>335.0</ele><time>2026-04-26T09:14:58.875Z</time></trkpt><trkpt lat="53.6407182" lon="-1.9136093"><ele>335.0</ele><time>2026-04-26T09:14:59.874Z</time></trkpt><trkpt lat="53.6408978" lon="-1.9136808"><ele>335.0</ele><time>2026-04-26T09:15:00.874Z</time></trkpt><trkpt lat="53.6410696" lon="-1.9137598"><ele>335.0</ele><time>2026-04-26T09:15:01.875Z</time></trkpt><trkpt lat="53.6412257" lon="-1.9138469"><ele>332.25</ele><time>2026-04-26T09:15:02.876Z</time></trkpt><trkpt lat="53.6413667" lon="-1.9139352"><ele>329.5</ele><time>2026-04-26T09:15:03.878Z</time></trkpt><trkpt lat="53.6414894" lon="-1.9140233"><ele>326.75</ele><time>2026-04-26T09:15:04.873Z</time></trkpt><trkpt lat="53.6415951" lon="-1.9141114"><ele>324.0</ele><time>2026-04-26T09:15:05.873Z</time></trkpt><trkpt lat="53.6416912" lon="-1.9142057"><ele>324.0</ele><time>2026-04-26T09:15:06.872Z</time></trkpt><trkpt lat="53.6417754" lon="-1.914304"><ele>324.0</ele><time>2026-04-26T09:15:07.871Z</time></trkpt><trkpt lat="53.6418518" lon="-1.9144048"><ele>324.0</ele><time>2026-04-26T09:15:08.874Z</time></trkpt><trkpt lat="53.6419188" lon="-1.9145062"><ele>324.0</ele><time>2026-04-26T09:15:09.878Z</time></trkpt><trkpt lat="53.6419711" lon="-1.9146155"><ele>324.0</ele><time>2026-04-26T09:15:10.879Z</time></trkpt><trkpt lat="53.6420065" lon="-1.9147632"><ele>322.0</ele><time>2026-04-26T09:15:11.874Z</time></trkpt><trkpt lat="53.6420258" lon="-1.9149671"><ele>320.0</ele><time>2026-04-26T09:15:12.874Z</time></trkpt><trkpt lat="53.6420411" lon="-1.915193"><ele>318.0</ele><time>2026-04-26T09:15:13.88Z</time></trkpt><trkpt lat="53.6420622" lon="-1.9154348"><ele>316.0</ele><time>2026-04-26T09:15:14.875Z</time></trkpt><trkpt lat="53.642087" lon="-1.9156869"><ele>314.5</ele><time>2026-04-26T09:15:15.874Z</time></trkpt><trkpt lat="53.6421142" lon="-1.9159415"><ele>313.0</ele><time>2026-04-26T09:15:16.876Z</time></trkpt><trkpt lat="53.6421419" lon="-1.9161916"><ele>311.5</ele><time>2026-04-26T09:15:17.874Z</time></trkpt><trkpt lat="53.6421675" lon="-1.9164247"><ele>310.0</ele><time>2026-04-26T09:15:18.876Z</time></trkpt><trkpt lat="53.6421855" lon="-1.9166443"><ele>309.4</ele><time>2026-04-26T09:15:19.874Z</time></trkpt><trkpt lat="53.6422009" lon="-1.9168468"><ele>308.8</ele><time>2026-04-26T09:15:20.875Z</time></trkpt><trkpt lat="53.642219" lon="-1.9170288"><ele>308.2</ele><time>2026-04-26T09:15:21.874Z</time></trkpt><trkpt lat="53.6422408" lon="-1.9171991"><ele>307.6</ele><time>2026-04-26T09:15:22.875Z</time></trkpt><trkpt lat="53.6422604" lon="-1.917356"><ele>307.0</ele><time>2026-04-26T09:15:23.879Z</time></trkpt><trkpt lat="53.6422751" lon="-1.9174997"><ele>304.0</ele><time>2026-04-26T09:15:24.876Z</time></trkpt><trkpt lat="53.6422851" lon="-1.9176286"><ele>301.0</ele><time>2026-04-26T09:15:25.874Z</time></trkpt><trkpt lat="53.6422502" lon="-1.917813"><ele>298.0</ele><time>2026-04-26T09:15:27.876Z</time></trkpt><trkpt lat="53.6421874" lon="-1.9178831"><ele>295.0</ele><time>2026-04-26T09:15:28.874Z</time></trkpt><trkpt lat="53.6420955" lon="-1.9179446"><ele>292.0</ele><time>2026-04-26T09:15:29.875Z</time></trkpt><trkpt lat="53.641988" lon="-1.918015"><ele>295.0</ele><time>2026-04-26T09:15:30.875Z</time></trkpt><trkpt lat="53.6418674" lon="-1.9180969"><ele>298.0</ele><time>2026-04-26T09:15:31.878Z</time></trkpt><trkpt lat="53.6417347" lon="-1.9181866"><ele>301.0</ele><time>2026-04-26T09:15:32.877Z</time></trkpt><trkpt lat="53.6415978" lon="-1.9182794"><ele>304.0</ele><time>2026-04-26T09:15:33.876Z</time></trkpt><trkpt lat="53.6414581" lon="-1.9183749"><ele>303.0</ele><time>2026-04-26T09:15:34.876Z</time></trkpt><trkpt lat="53.6413104" lon="-1.9184769"><ele>302.0</ele><time>2026-04-26T09:15:35.877Z</time></trkpt><trkpt lat="53.6411508" lon="-1.9185819"><ele>301.0</ele><time>2026-04-26T09:15:36.877Z</time></trkpt><trkpt lat="53.6409827" lon="-1.9186878"><ele>301.0</ele><time>2026-04-26T09:15:37.875Z</time></trkpt><trkpt lat="53.6408129" lon="-1.9187979"><ele>301.0</ele><time>2026-04-26T09:15:38.876Z</time></trkpt><trkpt lat="53.6406447" lon="-1.9189156"><ele>301.0</ele><time>2026-04-26T09:15:39.875Z</time></trkpt><trkpt lat="53.6404735" lon="-1.9190367"><ele>301.0</ele><time>2026-04-26T09:15:40.876Z</time></trkpt><trkpt lat="53.6403034" lon="-1.9191596"><ele>301.0</ele><time>2026-04-26T09:15:41.874Z</time></trkpt><trkpt lat="53.6401348" lon="-1.9192832"><ele>301.0</ele><time>2026-04-26T09:15:42.876Z</time></trkpt><trkpt lat="53.639974" lon="-1.9194032"><ele>301.3333333333333</ele><time>2026-04-26T09:15:43.879Z</time></trkpt><trkpt lat="53.6398249" lon="-1.9195157"><ele>301.6666666666667</ele><time>2026-04-26T09:15:44.874Z</time></trkpt><trkpt lat="53.6396839" lon="-1.9196381"><ele>302.0</ele><time>2026-04-26T09:15:45.875Z</time></trkpt><trkpt lat="53.6395478" lon="-1.9197849"><ele>302.6666666666667</ele><time>2026-04-26T09:15:46.877Z</time></trkpt><trkpt lat="53.6394195" lon="-1.9199449"><ele>303.3333333333333</ele><time>2026-04-26T09:15:47.875Z</time></trkpt><trkpt lat="53.6392958" lon="-1.9201147"><ele>304.0</ele><time>2026-04-26T09:15:48.875Z</time></trkpt><trkpt lat="53.6391705" lon="-1.9202889"><ele>304.0</ele><time>2026-04-26T09:15:49.875Z</time></trkpt><trkpt lat="53.6390411" lon="-1.9204654"><ele>304.0</ele><time>2026-04-26T09:15:50.876Z</time></trkpt><trkpt lat="53.6389068" lon="-1.9206417"><ele>304.0</ele><time>2026-04-26T09:15:51.877Z</time></trkpt><trkpt lat="53.638766" lon="-1.9208154"><ele>306.0</ele><time>2026-04-26T09:15:52.878Z</time></trkpt><trkpt lat="53.6386244" lon="-1.9209859"><ele>308.0</ele><time>2026-04-26T09:15:53.881Z</time></trkpt><trkpt lat="53.6384819" lon="-1.9211537"><ele>310.0</ele><time>2026-04-26T09:15:54.877Z</time></trkpt><trkpt lat="53.6383435" lon="-1.9213249"><ele>310.0</ele><time>2026-04-26T09:15:55.875Z</time></trkpt><trkpt lat="53.6382089" lon="-1.9214993"><ele>310.0</ele><time>2026-04-26T09:15:56.874Z</time></trkpt><trkpt lat="53.6380744" lon="-1.9216769"><ele>310.0</ele><time>2026-04-26T09:15:57.875Z</time></trkpt><trkpt lat="53.6379383" lon="-1.9218513"><ele>312.66666666666663</ele><time>2026-04-26T09:15:58.875Z</time></trkpt><trkpt lat="53.6378014" lon="-1.9220239"><ele>315.3333333333333</ele><time>2026-04-26T09:15:59.875Z</time></trkpt><trkpt lat="53.6376633" lon="-1.9222057"><ele>318.0</ele><time>2026-04-26T09:16:00.874Z</time></trkpt><trkpt lat="53.6375265" lon="-1.922395"><ele>315.0</ele><time>2026-04-26T09:16:01.878Z</time></trkpt><trkpt lat="53.6373901" lon="-1.9225913"><ele>312.0</ele><time>2026-04-26T09:16:02.877Z</time></trkpt><trkpt lat="53.6372545" lon="-1.9227937"><ele>309.0</ele><time>2026-04-26T09:16:03.881Z</time></trkpt><trkpt lat="53.6371155" lon="-1.9229979"><ele>309.0</ele><time>2026-04-26T09:16:04.877Z</time></trkpt><trkpt lat="53.636972" lon="-1.9232013"><ele>309.0</ele><time>2026-04-26T09:16:05.877Z</time></trkpt><trkpt lat="53.6368253" lon="-1.9234076"><ele>309.0</ele><time>2026-04-26T09:16:06.878Z</time></trkpt><trkpt lat="53.6366838" lon="-1.9236081"><ele>311.3333333333333</ele><time>2026-04-26T09:16:07.876Z</time></trkpt><trkpt lat="53.6365538" lon="-1.9238016"><ele>313.66666666666663</ele><time>2026-04-26T09:16:08.876Z</time></trkpt><trkpt lat="53.636439" lon="-1.9240052"><ele>316.0</ele><time>2026-04-26T09:16:09.878Z</time></trkpt><trkpt lat="53.6363349" lon="-1.9242244"><ele>313.0</ele><time>2026-04-26T09:16:10.876Z</time></trkpt><trkpt lat="53.6362352" lon="-1.9244635"><ele>310.0</ele><time>2026-04-26T09:16:11.871Z</time></trkpt><trkpt lat="53.636135" lon="-1.9247134"><ele>307.0</ele><time>2026-04-26T09:16:12.875Z</time></trkpt><trkpt lat="53.6360335" lon="-1.924967"><ele>311.66666666666663</ele><time>2026-04-26T09:16:13.878Z</time></trkpt><trkpt lat="53.6359351" lon="-1.9252101"><ele>316.3333333333333</ele><time>2026-04-26T09:16:14.877Z</time></trkpt><trkpt lat="53.6358489" lon="-1.925421"><ele>321.0</ele><time>2026-04-26T09:16:15.877Z</time></trkpt><trkpt lat="53.6357853" lon="-1.9256075"><ele>321.0</ele><time>2026-04-26T09:16:16.875Z</time></trkpt><trkpt lat="53.6357487" lon="-1.9257963"><ele>321.0</ele><time>2026-04-26T09:16:17.878Z</time></trkpt><trkpt lat="53.6357257" lon="-1.9260049"><ele>321.0</ele><time>2026-04-26T09:16:18.876Z</time></trkpt><trkpt lat="53.6357102" lon="-1.9262266"><ele>321.0</ele><time>2026-04-26T09:16:19.875Z</time></trkpt><trkpt lat="53.6357024" lon="-1.9264417"><ele>320.0</ele><time>2026-04-26T09:16:20.876Z</time></trkpt><trkpt lat="53.635708" lon="-1.9266524"><ele>319.0</ele><time>2026-04-26T09:16:21.876Z</time></trkpt><trkpt lat="53.6357199" lon="-1.9268573"><ele>318.0</ele><time>2026-04-26T09:16:22.876Z</time></trkpt><trkpt lat="53.6357159" lon="-1.9270582"><ele>317.0</ele><time>2026-04-26T09:16:23.877Z</time></trkpt><trkpt lat="53.6356926" lon="-1.9272721"><ele>315.5</ele><time>2026-04-26T09:16:24.875Z</time></trkpt><trkpt lat="53.6356538" lon="-1.9274944"><ele>314.0</ele><time>2026-04-26T09:16:25.875Z</time></trkpt><trkpt lat="53.6356095" lon="-1.9277228"><ele>312.5</ele><time>2026-04-26T09:16:26.875Z</time></trkpt><trkpt lat="53.6355631" lon="-1.927958"><ele>311.0</ele><time>2026-04-26T09:16:27.875Z</time></trkpt><trkpt lat="53.6355117" lon="-1.9281857"><ele>309.25</ele><time>2026-04-26T09:16:28.874Z</time></trkpt><trkpt lat="53.6354483" lon="-1.9283906"><ele>307.5</ele><time>2026-04-26T09:16:29.875Z</time></trkpt><trkpt lat="53.635388" lon="-1.9285805"><ele>305.75</ele><time>2026-04-26T09:16:30.876Z</time></trkpt><trkpt lat="53.6353458" lon="-1.9287707"><ele>304.0</ele><time>2026-04-26T09:16:31.869Z</time></trkpt><trkpt lat="53.6353105" lon="-1.9289717"><ele>307.5</ele><time>2026-04-26T09:16:32.875Z</time></trkpt><trkpt lat="53.6352706" lon="-1.9291913"><ele>311.0</ele><time>2026-04-26T09:16:33.883Z</time></trkpt><trkpt lat="53.6352314" lon="-1.9294185"><ele>314.5</ele><time>2026-04-26T09:16:34.877Z</time></trkpt><trkpt lat="53.6351913" lon="-1.929653"><ele>318.0</ele><time>2026-04-26T09:16:35.878Z</time></trkpt><trkpt lat="53.6351505" lon="-1.9298925"><ele>315.3333333333333</ele><time>2026-04-26T09:16:36.877Z</time></trkpt><trkpt lat="53.6351059" lon="-1.9301327"><ele>312.66666666666663</ele><time>2026-04-26T09:16:37.876Z</time></trkpt><trkpt lat="53.6350536" lon="-1.9303745"><ele>310.0</ele><time>2026-04-26T09:16:38.875Z</time></trkpt><trkpt lat="53.6350006" lon="-1.9306181"><ele>310.0</ele><time>2026-04-26T09:16:39.876Z</time></trkpt><trkpt lat="53.6349476" lon="-1.930859"><ele>310.0</ele><time>2026-04-26T09:16:40.877Z</time></trkpt><trkpt lat="53.6348925" lon="-1.9310937"><ele>310.0</ele><time>2026-04-26T09:16:41.875Z</time></trkpt><trkpt lat="53.6348335" lon="-1.9313267"><ele>307.5</ele><time>2026-04-26T09:16:42.875Z</time></trkpt><trkpt lat="53.6347721" lon="-1.9315559"><ele>305.0</ele><time>2026-04-26T09:16:43.878Z</time></trkpt><trkpt lat="53.6347064" lon="-1.9317825"><ele>302.5</ele><time>2026-04-26T09:16:44.875Z</time></trkpt><trkpt lat="53.6346399" lon="-1.9320068"><ele>300.0</ele><time>2026-04-26T09:16:45.874Z</time></trkpt><trkpt lat="53.6345762" lon="-1.9322255"><ele>301.25</ele><time>2026-04-26T09:16:46.875Z</time></trkpt><trkpt lat="53.6345151" lon="-1.9324335"><ele>302.5</ele><time>2026-04-26T09:16:47.874Z</time></trkpt><trkpt lat="53.6344552" lon="-1.9326359"><ele>303.75</ele><time>2026-04-26T09:16:48.875Z</time></trkpt><trkpt lat="53.6343977" lon="-1.9328446"><ele>305.0</ele><time>2026-04-26T09:16:49.876Z</time></trkpt><trkpt lat="53.634339" lon="-1.9330567"><ele>305.0</ele><time>2026-04-26T09:16:50.876Z</time></trkpt><trkpt lat="53.6342759" lon="-1.9332665"><ele>305.0</ele><time>2026-04-26T09:16:51.875Z</time></trkpt><trkpt lat="53.6342092" lon="-1.9334739"><ele>305.0</ele><time>2026-04-26T09:16:52.876Z</time></trkpt><trkpt lat="53.6341418" lon="-1.9336811"><ele>305.0</ele><time>2026-04-26T09:16:53.881Z</time></trkpt><trkpt lat="53.6340748" lon="-1.9338854"><ele>303.0</ele><time>2026-04-26T09:16:54.876Z</time></trkpt><trkpt lat="53.6340115" lon="-1.9340781"><ele>301.0</ele><time>2026-04-26T09:16:55.877Z</time></trkpt><trkpt lat="53.6339527" lon="-1.9342617"><ele>299.0</ele><time>2026-04-26T09:16:56.875Z</time></trkpt><trkpt lat="53.6339055" lon="-1.9344453"><ele>297.0</ele><time>2026-04-26T09:16:57.876Z</time></trkpt><trkpt lat="53.6338835" lon="-1.934645"><ele>296.0</ele><time>2026-04-26T09:16:58.876Z</time></trkpt><trkpt lat="53.6338909" lon="-1.9348614"><ele>295.0</ele><time>2026-04-26T09:16:59.876Z</time></trkpt><trkpt lat="53.6339101" lon="-1.9350841"><ele>294.0</ele><time>2026-04-26T09:17:00.877Z</time></trkpt><trkpt lat="53.6339323" lon="-1.9353141"><ele>293.0</ele><time>2026-04-26T09:17:01.879Z</time></trkpt><trkpt lat="53.633954" lon="-1.9355457"><ele>292.5</ele><time>2026-04-26T09:17:02.879Z</time></trkpt><trkpt lat="53.6339739" lon="-1.9357764"><ele>292.0</ele><time>2026-04-26T09:17:03.881Z</time></trkpt><trkpt lat="53.633988" lon="-1.9360007"><ele>291.5</ele><time>2026-04-26T09:17:04.876Z</time></trkpt><trkpt lat="53.6339885" lon="-1.9362111"><ele>291.0</ele><time>2026-04-26T09:17:05.874Z</time></trkpt><trkpt lat="53.6339815" lon="-1.9364097"><ele>290.5</ele><time>2026-04-26T09:17:06.877Z</time></trkpt><trkpt lat="53.6339871" lon="-1.936608"><ele>290.0</ele><time>2026-04-26T09:17:07.877Z</time></trkpt><trkpt lat="53.6340093" lon="-1.9368107"><ele>289.5</ele><time>2026-04-26T09:17:08.876Z</time></trkpt><trkpt lat="53.6340245" lon="-1.9370127"><ele>289.0</ele><time>2026-04-26T09:17:09.876Z</time></trkpt><trkpt lat="53.6340252" lon="-1.937211"><ele>288.5</ele><time>2026-04-26T09:17:10.877Z</time></trkpt><trkpt lat="53.6339849" lon="-1.9373979"><ele>288.0</ele><time>2026-04-26T09:17:11.875Z</time></trkpt><trkpt lat="53.6339104" lon="-1.9375732"><ele>287.5</ele><time>2026-04-26T09:17:12.875Z</time></trkpt><trkpt lat="53.6338263" lon="-1.9377442"><ele>287.0</ele><time>2026-04-26T09:17:13.883Z</time></trkpt><trkpt lat="53.6337538" lon="-1.9378955"><ele>286.6</ele><time>2026-04-26T09:17:14.877Z</time></trkpt><trkpt lat="53.6336963" lon="-1.9380222"><ele>286.2</ele><time>2026-04-26T09:17:15.874Z</time></trkpt><trkpt lat="53.6336518" lon="-1.9381312"><ele>285.8</ele><time>2026-04-26T09:17:16.877Z</time></trkpt><trkpt lat="53.6336428" lon="-1.9383273"><ele>285.4</ele><time>2026-04-26T09:17:18.875Z</time></trkpt><trkpt lat="53.6336972" lon="-1.9384226"><ele>285.0</ele><time>2026-04-26T09:17:19.873Z</time></trkpt><trkpt lat="53.6337818" lon="-1.9385037"><ele>285.0</ele><time>2026-04-26T09:17:20.874Z</time></trkpt><trkpt lat="53.6338791" lon="-1.9385705"><ele>285.0</ele><time>2026-04-26T09:17:21.874Z</time></trkpt><trkpt lat="53.6339873" lon="-1.9386325"><ele>285.0</ele><time>2026-04-26T09:17:22.871Z</time></trkpt><trkpt lat="53.6341075" lon="-1.93868"><ele>285.0</ele><time>2026-04-26T09:17:23.881Z</time></trkpt><trkpt lat="53.6342344" lon="-1.9387112"><ele>285.0</ele><time>2026-04-26T09:17:24.875Z</time></trkpt><trkpt lat="53.6343636" lon="-1.9387348"><ele>285.0</ele><time>2026-04-26T09:17:25.875Z</time></trkpt><trkpt lat="53.6344962" lon="-1.9387515"><ele>285.0</ele><time>2026-04-26T09:17:26.875Z</time></trkpt><trkpt lat="53.6346315" lon="-1.9387674"><ele>285.0</ele><time>2026-04-26T09:17:27.874Z</time></trkpt><trkpt lat="53.6347659" lon="-1.9387807"><ele>282.75</ele><time>2026-04-26T09:17:28.874Z</time></trkpt><trkpt lat="53.6348964" lon="-1.9387886"><ele>280.5</ele><time>2026-04-26T09:17:29.874Z</time></trkpt><trkpt lat="53.6350219" lon="-1.9387944"><ele>278.25</ele><time>2026-04-26T09:17:30.876Z</time></trkpt><trkpt lat="53.6351411" lon="-1.9388079"><ele>276.0</ele><time>2026-04-26T09:17:31.868Z</time></trkpt><trkpt lat="53.6352519" lon="-1.9388332"><ele>276.5</ele><time>2026-04-26T09:17:32.876Z</time></trkpt><trkpt lat="53.6353503" lon="-1.9388672"><ele>277.0</ele><time>2026-04-26T09:17:33.879Z</time></trkpt><trkpt lat="53.6354365" lon="-1.9388856"><ele>277.5</ele><time>2026-04-26T09:17:34.876Z</time></trkpt><trkpt lat="53.635506" lon="-1.9388574"><ele>278.0</ele><time>2026-04-26T09:17:35.875Z</time></trkpt><trkpt lat="53.6355534" lon="-1.9387658"><ele>278.5</ele><time>2026-04-26T09:17:36.873Z</time></trkpt><trkpt lat="53.6356001" lon="-1.9386422"><ele>279.0</ele><time>2026-04-26T09:17:37.876Z</time></trkpt><trkpt lat="53.6356606" lon="-1.9385355"><ele>279.0</ele><time>2026-04-26T09:17:38.878Z</time></trkpt><trkpt lat="53.6357244" lon="-1.9384865"><ele>279.0</ele><time>2026-04-26T09:17:39.876Z</time></trkpt><trkpt lat="53.6358212" lon="-1.9385254"><ele>279.0</ele><time>2026-04-26T09:17:41.872Z</time></trkpt><trkpt lat="53.6358572" lon="-1.9386196"><ele>279.0</ele><time>2026-04-26T09:17:42.865Z</time></trkpt><trkpt lat="53.635879" lon="-1.9387589"><ele>279.0</ele><time>2026-04-26T09:17:43.88Z</time></trkpt><trkpt lat="53.6359052" lon="-1.9389353"><ele>279.0</ele><time>2026-04-26T09:17:44.876Z</time></trkpt><trkpt lat="53.6359375" lon="-1.9391413"><ele>281.25</ele><time>2026-04-26T09:17:45.874Z</time></trkpt><trkpt lat="53.6359743" lon="-1.9393668"><ele>283.5</ele><time>2026-04-26T09:17:46.873Z</time></trkpt><trkpt lat="53.63601" lon="-1.9395973"><ele>285.75</ele><time>2026-04-26T09:17:47.873Z</time></trkpt><trkpt lat="53.6360452" lon="-1.9398348"><ele>288.0</ele><time>2026-04-26T09:17:48.875Z</time></trkpt><trkpt lat="53.6360866" lon="-1.9400834"><ele>290.0</ele><time>2026-04-26T09:17:49.874Z</time></trkpt><trkpt lat="53.6361251" lon="-1.9403289"><ele>292.0</ele><time>2026-04-26T09:17:50.873Z</time></trkpt><trkpt lat="53.6361564" lon="-1.9405843"><ele>294.0</ele><time>2026-04-26T09:17:51.874Z</time></trkpt><trkpt lat="53.6361708" lon="-1.9408471"><ele>299.75</ele><time>2026-04-26T09:17:52.873Z</time></trkpt><trkpt lat="53.6361678" lon="-1.9411152"><ele>305.5</ele><time>2026-04-26T09:17:53.879Z</time></trkpt><trkpt lat="53.6361633" lon="-1.9413709"><ele>311.25</ele><time>2026-04-26T09:17:54.876Z</time></trkpt><trkpt lat="53.6361709" lon="-1.94159"><ele>317.0</ele><time>2026-04-26T09:17:55.875Z</time></trkpt><trkpt lat="53.6361986" lon="-1.9417441"><ele>317.0</ele><time>2026-04-26T09:17:56.876Z</time></trkpt><trkpt lat="53.6362454" lon="-1.9418264"><ele>317.0</ele><time>2026-04-26T09:17:57.874Z</time></trkpt><trkpt lat="53.636313" lon="-1.9418532"><ele>317.0</ele><time>2026-04-26T09:17:58.874Z</time></trkpt><trkpt lat="53.6363905" lon="-1.9418166"><ele>317.0</ele><time>2026-04-26T09:17:59.876Z</time></trkpt><trkpt lat="53.6364717" lon="-1.9417242"><ele>317.0</ele><time>2026-04-26T09:18:00.874Z</time></trkpt><trkpt lat="53.6365539" lon="-1.9415973"><ele>317.0</ele><time>2026-04-26T09:18:01.874Z</time></trkpt><trkpt lat="53.6366401" lon="-1.9414643"><ele>317.0</ele><time>2026-04-26T09:18:02.872Z</time></trkpt><trkpt lat="53.6367418" lon="-1.9413183"><ele>317.0</ele><time>2026-04-26T09:18:03.88Z</time></trkpt><trkpt lat="53.6368474" lon="-1.9411493"><ele>317.0</ele><time>2026-04-26T09:18:04.875Z</time></trkpt><trkpt lat="53.6369498" lon="-1.9409614"><ele>317.0</ele><time>2026-04-26T09:18:05.878Z</time></trkpt><trkpt lat="53.6370495" lon="-1.9407475"><ele>320.6666666666667</ele><time>2026-04-26T09:18:06.878Z</time></trkpt><trkpt lat="53.6371491" lon="-1.9405241"><ele>324.3333333333333</ele><time>2026-04-26T09:18:07.878Z</time></trkpt><trkpt lat="53.6372553" lon="-1.9403127"><ele>328.0</ele><time>2026-04-26T09:18:08.877Z</time></trkpt><trkpt lat="53.6373767" lon="-1.9401135"><ele>325.0</ele><time>2026-04-26T09:18:09.875Z</time></trkpt><trkpt lat="53.6375055" lon="-1.9399276"><ele>322.0</ele><time>2026-04-26T09:18:10.874Z</time></trkpt><trkpt lat="53.6376289" lon="-1.9397475"><ele>319.0</ele><time>2026-04-26T09:18:11.871Z</time></trkpt><trkpt lat="53.6377556" lon="-1.9395847"><ele>322.5</ele><time>2026-04-26T09:18:12.873Z</time></trkpt><trkpt lat="53.6378836" lon="-1.9394323"><ele>326.0</ele><time>2026-04-26T09:18:13.88Z</time></trkpt><trkpt lat="53.6379992" lon="-1.9392773"><ele>329.5</ele><time>2026-04-26T09:18:14.873Z</time></trkpt><trkpt lat="53.638106" lon="-1.9391172"><ele>333.0</ele><time>2026-04-26T09:18:15.873Z</time></trkpt><trkpt lat="53.6382045" lon="-1.9389732"><ele>333.0</ele><time>2026-04-26T09:18:16.874Z</time></trkpt><trkpt lat="53.6382946" lon="-1.9388546"><ele>333.0</ele><time>2026-04-26T09:18:17.874Z</time></trkpt><trkpt lat="53.638388" lon="-1.9387592"><ele>333.0</ele><time>2026-04-26T09:18:18.873Z</time></trkpt><trkpt lat="53.6384912" lon="-1.9387137"><ele>333.0</ele><time>2026-04-26T09:18:19.874Z</time></trkpt><trkpt lat="53.6385999" lon="-1.9387148"><ele>333.0</ele><time>2026-04-26T09:18:20.875Z</time></trkpt><trkpt lat="53.6387182" lon="-1.938725"><ele>338.0</ele><time>2026-04-26T09:18:21.875Z</time></trkpt><trkpt lat="53.6388376" lon="-1.9387142"><ele>343.0</ele><time>2026-04-26T09:18:22.878Z</time></trkpt><trkpt lat="53.6389543" lon="-1.9386809"><ele>348.0</ele><time>2026-04-26T09:18:23.879Z</time></trkpt><trkpt lat="53.6390753" lon="-1.9386164"><ele>353.0</ele><time>2026-04-26T09:18:24.874Z</time></trkpt><trkpt lat="53.6391853" lon="-1.9385172"><ele>353.0</ele><time>2026-04-26T09:18:25.876Z</time></trkpt><trkpt lat="53.6392765" lon="-1.9383859"><ele>353.0</ele><time>2026-04-26T09:18:26.875Z</time></trkpt><trkpt lat="53.6393547" lon="-1.9382239"><ele>353.0</ele><time>2026-04-26T09:18:27.874Z</time></trkpt><trkpt lat="53.6394166" lon="-1.9380658"><ele>353.0</ele><time>2026-04-26T09:18:28.877Z</time></trkpt><trkpt lat="53.6394602" lon="-1.9379326"><ele>353.0</ele><time>2026-04-26T09:18:29.877Z</time></trkpt><trkpt lat="53.6394927" lon="-1.9378284"><ele>353.1666666666667</ele><time>2026-04-26T09:18:30.879Z</time></trkpt><trkpt lat="53.6395363" lon="-1.9376493"><ele>353.33333333333337</ele><time>2026-04-26T09:18:32.88Z</time></trkpt><trkpt lat="53.63955" lon="-1.9375432"><ele>353.5</ele><time>2026-04-26T09:18:33.886Z</time></trkpt><trkpt lat="53.6395623" lon="-1.9374236"><ele>353.6666666666667</ele><time>2026-04-26T09:18:34.881Z</time></trkpt><trkpt lat="53.6395756" lon="-1.9372889"><ele>353.8333333333333</ele><time>2026-04-26T09:18:35.881Z</time></trkpt><trkpt lat="53.6395845" lon="-1.9371433"><ele>354.0</ele><time>2026-04-26T09:18:36.879Z</time></trkpt><trkpt lat="53.6395926" lon="-1.9369891"><ele>354.0</ele><time>2026-04-26T09:18:37.88Z</time></trkpt><trkpt lat="53.6396048" lon="-1.9368368"><ele>354.0</ele><time>2026-04-26T09:18:38.879Z</time></trkpt><trkpt lat="53.6396202" lon="-1.9367067"><ele>354.0</ele><time>2026-04-26T09:18:39.881Z</time></trkpt><trkpt lat="53.6396441" lon="-1.9365652"><ele>354.0</ele><time>2026-04-26T09:18:41.876Z</time></trkpt><trkpt lat="53.6396777" lon="-1.9364277"><ele>354.0</ele><time>2026-04-26T09:19:00.876Z</time></trkpt><trkpt lat="53.6397349" lon="-1.9362707"><ele>353.0</ele><time>2026-04-26T09:19:02.881Z</time></trkpt><trkpt lat="53.6397748" lon="-1.9361149"><ele>352.0</ele><time>2026-04-26T09:19:04.88Z</time></trkpt><trkpt lat="53.6398009" lon="-1.9360144"><ele>351.0</ele><time>2026-04-26T09:19:05.879Z</time></trkpt><trkpt lat="53.6398315" lon="-1.9359015"><ele>350.0</ele><time>2026-04-26T09:19:06.879Z</time></trkpt><trkpt lat="53.6398708" lon="-1.9357826"><ele>349.0</ele><time>2026-04-26T09:19:07.88Z</time></trkpt><trkpt lat="53.6399168" lon="-1.9356526"><ele>348.0</ele><time>2026-04-26T09:19:08.876Z</time></trkpt><trkpt lat="53.6399693" lon="-1.9355161"><ele>347.0</ele><time>2026-04-26T09:19:09.879Z</time></trkpt><trkpt lat="53.6400227" lon="-1.9353775"><ele>346.0</ele><time>2026-04-26T09:19:10.881Z</time></trkpt><trkpt lat="53.6400739" lon="-1.9352329"><ele>345.0</ele><time>2026-04-26T09:19:11.876Z</time></trkpt><trkpt lat="53.6401269" lon="-1.935083"><ele>344.0</ele><time>2026-04-26T09:19:12.877Z</time></trkpt><trkpt lat="53.6401791" lon="-1.9349321"><ele>343.0</ele><time>2026-04-26T09:19:13.883Z</time></trkpt><trkpt lat="53.640234" lon="-1.9347804"><ele>343.5</ele><time>2026-04-26T09:19:14.88Z</time></trkpt><trkpt lat="53.6402916" lon="-1.9346259"><ele>344.0</ele><time>2026-04-26T09:19:15.879Z</time></trkpt><trkpt lat="53.6403522" lon="-1.9344639"><ele>344.5</ele><time>2026-04-26T09:19:16.877Z</time></trkpt><trkpt lat="53.6404161" lon="-1.9342963"><ele>345.0</ele><time>2026-04-26T09:19:17.878Z</time></trkpt><trkpt lat="53.6404799" lon="-1.9341289"><ele>343.5</ele><time>2026-04-26T09:19:18.88Z</time></trkpt><trkpt lat="53.6405431" lon="-1.9339664"><ele>342.0</ele><time>2026-04-26T09:19:19.881Z</time></trkpt><trkpt lat="53.6406108" lon="-1.9338135"><ele>340.5</ele><time>2026-04-26T09:19:20.879Z</time></trkpt><trkpt lat="53.6406826" lon="-1.9336658"><ele>339.0</ele><time>2026-04-26T09:19:21.88Z</time></trkpt><trkpt lat="53.6407592" lon="-1.9335137"><ele>337.4</ele><time>2026-04-26T09:19:22.88Z</time></trkpt><trkpt lat="53.6408331" lon="-1.9333632"><ele>335.79999999999995</ele><time>2026-04-26T09:19:23.884Z</time></trkpt><trkpt lat="53.6409016" lon="-1.933222"><ele>334.20000000000005</ele><time>2026-04-26T09:19:24.879Z</time></trkpt><trkpt lat="53.6409646" lon="-1.9330797"><ele>332.6</ele><time>2026-04-26T09:19:25.88Z</time></trkpt><trkpt lat="53.6410175" lon="-1.932922"><ele>331.0</ele><time>2026-04-26T09:19:26.878Z</time></trkpt><trkpt lat="53.6410683" lon="-1.9327577"><ele>331.0</ele><time>2026-04-26T09:19:27.883Z</time></trkpt><trkpt lat="53.6411273" lon="-1.9325953"><ele>331.0</ele><time>2026-04-26T09:19:28.881Z</time></trkpt><trkpt lat="53.6411903" lon="-1.9324399"><ele>331.0</ele><time>2026-04-26T09:19:29.878Z</time></trkpt><trkpt lat="53.6412489" lon="-1.9322983"><ele>331.0</ele><time>2026-04-26T09:19:30.874Z</time></trkpt><trkpt lat="53.6413021" lon="-1.9321616"><ele>331.0</ele><time>2026-04-26T09:19:31.872Z</time></trkpt><trkpt lat="53.6413499" lon="-1.932016"><ele>331.6</ele><time>2026-04-26T09:19:32.873Z</time></trkpt><trkpt lat="53.6413875" lon="-1.9318559"><ele>332.20000000000005</ele><time>2026-04-26T09:19:33.883Z</time></trkpt><trkpt lat="53.6414196" lon="-1.9316881"><ele>332.79999999999995</ele><time>2026-04-26T09:19:34.881Z</time></trkpt><trkpt lat="53.6414606" lon="-1.9315311"><ele>333.4</ele><time>2026-04-26T09:19:35.881Z</time></trkpt><trkpt lat="53.6415186" lon="-1.9313896"><ele>334.0</ele><time>2026-04-26T09:19:36.882Z</time></trkpt><trkpt lat="53.6415891" lon="-1.9312497"><ele>332.79999999999995</ele><time>2026-04-26T09:19:37.877Z</time></trkpt><trkpt lat="53.6416615" lon="-1.9311174"><ele>331.59999999999997</ele><time>2026-04-26T09:19:38.88Z</time></trkpt><trkpt lat="53.6417361" lon="-1.9309871"><ele>330.4</ele><time>2026-04-26T09:19:39.879Z</time></trkpt><trkpt lat="53.6418117" lon="-1.930861"><ele>329.2</ele><time>2026-04-26T09:19:40.88Z</time></trkpt><trkpt lat="53.6418771" lon="-1.9307489"><ele>328.0</ele><time>2026-04-26T09:19:41.877Z</time></trkpt><trkpt lat="53.6419382" lon="-1.9306473"><ele>327.8333333333333</ele><time>2026-04-26T09:19:42.871Z</time></trkpt><trkpt lat="53.6419985" lon="-1.9305466"><ele>327.66666666666663</ele><time>2026-04-26T09:19:43.883Z</time></trkpt><trkpt lat="53.6420571" lon="-1.9304428"><ele>327.5</ele><time>2026-04-26T09:19:44.881Z</time></trkpt><trkpt lat="53.6421129" lon="-1.9303395"><ele>327.3333333333333</ele><time>2026-04-26T09:19:45.878Z</time></trkpt><trkpt lat="53.6421617" lon="-1.9302382"><ele>327.1666666666667</ele><time>2026-04-26T09:19:46.877Z</time></trkpt><trkpt lat="53.6422066" lon="-1.9301478"><ele>327.0</ele><time>2026-04-26T09:19:47.876Z</time></trkpt><trkpt lat="53.6422724" lon="-1.9299972"><ele>326.3333333333333</ele><time>2026-04-26T09:19:49.881Z</time></trkpt><trkpt lat="53.6423014" lon="-1.9299023"><ele>325.6666666666667</ele><time>2026-04-26T09:19:51.882Z</time></trkpt><trkpt lat="53.6423519" lon="-1.9298248"><ele>325.0</ele><time>2026-04-26T09:19:54.879Z</time></trkpt><trkpt lat="53.6424632" lon="-1.9297476"><ele>324.33333333333337</ele><time>2026-04-26T09:19:56.877Z</time></trkpt><trkpt lat="53.6425441" lon="-1.9296913"><ele>323.6666666666667</ele><time>2026-04-26T09:19:57.88Z</time></trkpt><trkpt lat="53.6426319" lon="-1.9296214"><ele>323.0</ele><time>2026-04-26T09:19:58.88Z</time></trkpt><trkpt lat="53.6427277" lon="-1.9295534"><ele>322.25</ele><time>2026-04-26T09:19:59.88Z</time></trkpt><trkpt lat="53.6428332" lon="-1.9295085"><ele>321.5</ele><time>2026-04-26T09:20:00.88Z</time></trkpt><trkpt lat="53.6429519" lon="-1.929482"><ele>320.75</ele><time>2026-04-26T09:20:01.878Z</time></trkpt><trkpt lat="53.6430747" lon="-1.9294622"><ele>320.0</ele><time>2026-04-26T09:20:02.881Z</time></trkpt><trkpt lat="53.6431962" lon="-1.9294403"><ele>320.0</ele><time>2026-04-26T09:20:03.886Z</time></trkpt><trkpt lat="53.6433278" lon="-1.9294206"><ele>320.0</ele><time>2026-04-26T09:20:04.879Z</time></trkpt><trkpt lat="53.6434662" lon="-1.9294008"><ele>320.0</ele><time>2026-04-26T09:20:05.88Z</time></trkpt><trkpt lat="53.6436118" lon="-1.9293909"><ele>320.0</ele><time>2026-04-26T09:20:06.882Z</time></trkpt><trkpt lat="53.6437648" lon="-1.9293817"><ele>319.25</ele><time>2026-04-26T09:20:07.88Z</time></trkpt><trkpt lat="53.6439155" lon="-1.9293668"><ele>318.5</ele><time>2026-04-26T09:20:08.88Z</time></trkpt><trkpt lat="53.6440594" lon="-1.929348"><ele>317.75</ele><time>2026-04-26T09:20:09.88Z</time></trkpt><trkpt lat="53.644205" lon="-1.9293185"><ele>317.0</ele><time>2026-04-26T09:20:10.879Z</time></trkpt><trkpt lat="53.64435" lon="-1.9292771"><ele>315.6666666666667</ele><time>2026-04-26T09:20:11.877Z</time></trkpt><trkpt lat="53.6444963" lon="-1.9292351"><ele>314.3333333333333</ele><time>2026-04-26T09:20:12.878Z</time></trkpt><trkpt lat="53.6446465" lon="-1.929189"><ele>313.0</ele><time>2026-04-26T09:20:13.882Z</time></trkpt><trkpt lat="53.644794" lon="-1.9291407"><ele>311.0</ele><time>2026-04-26T09:20:14.879Z</time></trkpt><trkpt lat="53.6449375" lon="-1.929103"><ele>309.0</ele><time>2026-04-26T09:20:15.879Z</time></trkpt><trkpt lat="53.6450791" lon="-1.9290775"><ele>307.0</ele><time>2026-04-26T09:20:16.878Z</time></trkpt><trkpt lat="53.6452126" lon="-1.9290561"><ele>305.0</ele><time>2026-04-26T09:20:17.878Z</time></trkpt><trkpt lat="53.6453393" lon="-1.9290341"><ele>304.75</ele><time>2026-04-26T09:20:18.878Z</time></trkpt><trkpt lat="53.6454676" lon="-1.9290166"><ele>304.5</ele><time>2026-04-26T09:20:19.878Z</time></trkpt><trkpt lat="53.645594" lon="-1.9290034"><ele>304.25</ele><time>2026-04-26T09:20:20.878Z</time></trkpt><trkpt lat="53.6457131" lon="-1.9289927"><ele>304.0</ele><time>2026-04-26T09:20:21.879Z</time></trkpt><trkpt lat="53.6458223" lon="-1.9289823"><ele>304.0</ele><time>2026-04-26T09:20:22.879Z</time></trkpt><trkpt lat="53.6459189" lon="-1.9289704"><ele>304.0</ele><time>2026-04-26T09:20:23.88Z</time></trkpt><trkpt lat="53.6460009" lon="-1.92896"><ele>304.0</ele><time>2026-04-26T09:20:24.874Z</time></trkpt><trkpt lat="53.6460677" lon="-1.9289495"><ele>304.0</ele><time>2026-04-26T09:20:25.878Z</time></trkpt><trkpt lat="53.6461777" lon="-1.9289375"><ele>304.0</ele><time>2026-04-26T09:20:27.879Z</time></trkpt><trkpt lat="53.6463083" lon="-1.9288984"><ele>303.16666666666663</ele><time>2026-04-26T09:20:29.879Z</time></trkpt><trkpt lat="53.6463929" lon="-1.928886"><ele>302.3333333333333</ele><time>2026-04-26T09:20:30.879Z</time></trkpt><trkpt lat="53.6464827" lon="-1.9288731"><ele>301.5</ele><time>2026-04-26T09:20:31.879Z</time></trkpt><trkpt lat="53.6465698" lon="-1.9288724"><ele>300.6666666666667</ele><time>2026-04-26T09:20:32.879Z</time></trkpt><trkpt lat="53.6466349" lon="-1.9289122"><ele>299.83333333333337</ele><time>2026-04-26T09:20:33.883Z</time></trkpt><trkpt lat="53.6466773" lon="-1.9290157"><ele>299.0</ele><time>2026-04-26T09:20:34.88Z</time></trkpt><trkpt lat="53.6467103" lon="-1.9291716"><ele>300.5</ele><time>2026-04-26T09:20:35.879Z</time></trkpt><trkpt lat="53.6467303" lon="-1.9293574"><ele>302.0</ele><time>2026-04-26T09:20:36.88Z</time></trkpt><trkpt lat="53.6467324" lon="-1.9295698"><ele>303.5</ele><time>2026-04-26T09:20:37.88Z</time></trkpt><trkpt lat="53.6467232" lon="-1.9298152"><ele>305.0</ele><time>2026-04-26T09:20:38.88Z</time></trkpt><trkpt lat="53.6467109" lon="-1.9300745"><ele>307.0</ele><time>2026-04-26T09:20:39.881Z</time></trkpt><trkpt lat="53.6466904" lon="-1.9303544"><ele>309.0</ele><time>2026-04-26T09:20:40.879Z</time></trkpt><trkpt lat="53.6466625" lon="-1.9306422"><ele>311.0</ele><time>2026-04-26T09:20:41.88Z</time></trkpt><trkpt lat="53.6466239" lon="-1.930896"><ele>311.0</ele><time>2026-04-26T09:20:42.879Z</time></trkpt><trkpt lat="53.6465683" lon="-1.9310867"><ele>311.0</ele><time>2026-04-26T09:20:43.881Z</time></trkpt><trkpt lat="53.6464936" lon="-1.9312251"><ele>311.0</ele><time>2026-04-26T09:20:44.872Z</time></trkpt><trkpt lat="53.6464183" lon="-1.93134"><ele>311.0</ele><time>2026-04-26T09:20:45.879Z</time></trkpt><trkpt lat="53.6463652" lon="-1.9314409"><ele>311.0</ele><time>2026-04-26T09:20:46.879Z</time></trkpt><trkpt lat="53.6463632" lon="-1.9316087"><ele>311.0</ele><time>2026-04-26T09:20:48.876Z</time></trkpt><trkpt lat="53.6464208" lon="-1.9316639"><ele>311.0</ele><time>2026-04-26T09:20:50.88Z</time></trkpt><trkpt lat="53.646557" lon="-1.931658"><ele>311.0</ele><time>2026-04-26T09:20:52.88Z</time></trkpt><trkpt lat="53.6466463" lon="-1.9316082"><ele>311.0</ele><time>2026-04-26T09:20:53.882Z</time></trkpt><trkpt lat="53.6467451" lon="-1.9315482"><ele>311.0</ele><time>2026-04-26T09:20:54.879Z</time></trkpt><trkpt lat="53.6468531" lon="-1.9314815"><ele>305.25</ele><time>2026-04-26T09:20:55.88Z</time></trkpt><trkpt lat="53.6469659" lon="-1.9314133"><ele>299.5</ele><time>2026-04-26T09:20:56.88Z</time></trkpt><trkpt lat="53.6470833" lon="-1.9313393"><ele>293.75</ele><time>2026-04-26T09:20:57.88Z</time></trkpt><trkpt lat="53.647206" lon="-1.931262"><ele>288.0</ele><time>2026-04-26T09:20:58.883Z</time></trkpt><trkpt lat="53.6473372" lon="-1.931189"><ele>288.0</ele><time>2026-04-26T09:20:59.879Z</time></trkpt><trkpt lat="53.6474713" lon="-1.9311101"><ele>288.0</ele><time>2026-04-26T09:21:00.879Z</time></trkpt><trkpt lat="53.647616" lon="-1.9310273"><ele>288.0</ele><time>2026-04-26T09:21:01.881Z</time></trkpt><trkpt lat="53.6477701" lon="-1.9309429"><ele>293.0</ele><time>2026-04-26T09:21:02.882Z</time></trkpt><trkpt lat="53.6479259" lon="-1.9308485"><ele>298.0</ele><time>2026-04-26T09:21:03.886Z</time></trkpt><trkpt lat="53.6480836" lon="-1.9307511"><ele>303.0</ele><time>2026-04-26T09:21:04.882Z</time></trkpt><trkpt lat="53.6482378" lon="-1.9306572"><ele>303.0</ele><time>2026-04-26T09:21:05.881Z</time></trkpt><trkpt lat="53.6483851" lon="-1.9305653"><ele>303.0</ele><time>2026-04-26T09:21:06.881Z</time></trkpt><trkpt lat="53.6485237" lon="-1.9304808"><ele>303.0</ele><time>2026-04-26T09:21:07.881Z</time></trkpt><trkpt lat="53.6486519" lon="-1.9304038"><ele>303.0</ele><time>2026-04-26T09:21:08.879Z</time></trkpt><trkpt lat="53.6487728" lon="-1.9303325"><ele>305.0</ele><time>2026-04-26T09:21:09.879Z</time></trkpt><trkpt lat="53.6488825" lon="-1.9302643"><ele>307.0</ele><time>2026-04-26T09:21:10.879Z</time></trkpt><trkpt lat="53.6489795" lon="-1.9302056"><ele>309.0</ele><time>2026-04-26T09:21:11.879Z</time></trkpt><trkpt lat="53.6490629" lon="-1.9301604"><ele>311.0</ele><time>2026-04-26T09:21:12.88Z</time></trkpt><trkpt lat="53.6491349" lon="-1.9301246"><ele>313.0</ele><time>2026-04-26T09:21:13.884Z</time></trkpt><trkpt lat="53.6492317" lon="-1.9301393"><ele>313.0</ele><time>2026-04-26T09:21:15.88Z</time></trkpt><trkpt lat="53.6492754" lon="-1.9303102"><ele>313.0</ele><time>2026-04-26T09:21:17.878Z</time></trkpt><trkpt lat="53.649273" lon="-1.9304247"><ele>313.0</ele><time>2026-04-26T09:21:18.878Z</time></trkpt><trkpt lat="53.6492803" lon="-1.9305403"><ele>313.0</ele><time>2026-04-26T09:21:19.878Z</time></trkpt><trkpt lat="53.6492988" lon="-1.9306635"><ele>313.0</ele><time>2026-04-26T09:21:20.879Z</time></trkpt><trkpt lat="53.6493159" lon="-1.9307983"><ele>313.0</ele><time>2026-04-26T09:21:21.879Z</time></trkpt><trkpt lat="53.6493245" lon="-1.9309447"><ele>313.8333333333333</ele><time>2026-04-26T09:21:22.879Z</time></trkpt><trkpt lat="53.6493269" lon="-1.9310967"><ele>314.66666666666663</ele><time>2026-04-26T09:21:23.884Z</time></trkpt><trkpt lat="53.6493208" lon="-1.9312411"><ele>315.5</ele><time>2026-04-26T09:21:24.879Z</time></trkpt><trkpt lat="53.6493048" lon="-1.9313782"><ele>316.3333333333333</ele><time>2026-04-26T09:21:25.877Z</time></trkpt><trkpt lat="53.6492867" lon="-1.9315137"><ele>317.1666666666667</ele><time>2026-04-26T09:21:26.879Z</time></trkpt><trkpt lat="53.6492695" lon="-1.9316421"><ele>318.0</ele><time>2026-04-26T09:21:27.877Z</time></trkpt><trkpt lat="53.6492487" lon="-1.931764"><ele>318.3333333333333</ele><time>2026-04-26T09:21:28.876Z</time></trkpt><trkpt lat="53.6492268" lon="-1.9318874"><ele>318.6666666666667</ele><time>2026-04-26T09:21:29.877Z</time></trkpt><trkpt lat="53.6491974" lon="-1.9320164"><ele>319.0</ele><time>2026-04-26T09:21:30.875Z</time></trkpt><trkpt lat="53.649159" lon="-1.9321499"><ele>319.33333333333337</ele><time>2026-04-26T09:21:31.879Z</time></trkpt><trkpt lat="53.6491171" lon="-1.9322884"><ele>319.6666666666667</ele><time>2026-04-26T09:21:32.878Z</time></trkpt><trkpt lat="53.6490771" lon="-1.9324276"><ele>320.0</ele><time>2026-04-26T09:21:33.886Z</time></trkpt><trkpt lat="53.6490404" lon="-1.9325713"><ele>320.6</ele><time>2026-04-26T09:21:34.878Z</time></trkpt><trkpt lat="53.649005" lon="-1.9327202"><ele>321.2</ele><time>2026-04-26T09:21:35.879Z</time></trkpt><trkpt lat="53.6489682" lon="-1.932866"><ele>321.79999999999995</ele><time>2026-04-26T09:21:36.878Z</time></trkpt><trkpt lat="53.6489311" lon="-1.9330109"><ele>322.4</ele><time>2026-04-26T09:21:37.875Z</time></trkpt><trkpt lat="53.6488941" lon="-1.9331585"><ele>323.0</ele><time>2026-04-26T09:21:38.871Z</time></trkpt><trkpt lat="53.6488578" lon="-1.9333067"><ele>323.0</ele><time>2026-04-26T09:21:39.873Z</time></trkpt><trkpt lat="53.6488196" lon="-1.9334551"><ele>323.0</ele><time>2026-04-26T09:21:40.877Z</time></trkpt><trkpt lat="53.6487773" lon="-1.933599"><ele>323.0</ele><time>2026-04-26T09:21:41.871Z</time></trkpt><trkpt lat="53.6487302" lon="-1.9337322"><ele>323.0</ele><time>2026-04-26T09:21:42.88Z</time></trkpt><trkpt lat="53.6486827" lon="-1.9338617"><ele>323.0</ele><time>2026-04-26T09:21:43.874Z</time></trkpt><trkpt lat="53.6486377" lon="-1.933989"><ele>321.5</ele><time>2026-04-26T09:21:44.88Z</time></trkpt><trkpt lat="53.6485946" lon="-1.9341057"><ele>320.0</ele><time>2026-04-26T09:21:45.876Z</time></trkpt><trkpt lat="53.6485429" lon="-1.9341974"><ele>318.5</ele><time>2026-04-26T09:21:46.879Z</time></trkpt><trkpt lat="53.6484862" lon="-1.9342585"><ele>317.0</ele><time>2026-04-26T09:21:47.879Z</time></trkpt><trkpt lat="53.6483865" lon="-1.9343172"><ele>315.5</ele><time>2026-04-26T09:21:49.878Z</time></trkpt><trkpt lat="53.6483409" lon="-1.9344013"><ele>314.0</ele><time>2026-04-26T09:21:52.878Z</time></trkpt><trkpt lat="53.648418" lon="-1.9344006"><ele>314.0</ele><time>2026-04-26T09:23:54.879Z</time></trkpt><trkpt lat="53.6485067" lon="-1.9343237"><ele>314.0</ele><time>2026-04-26T09:23:56.881Z</time></trkpt><trkpt lat="53.6485631" lon="-1.9342615"><ele>314.0</ele><time>2026-04-26T09:23:57.879Z</time></trkpt><trkpt lat="53.6486234" lon="-1.934186"><ele>314.0</ele><time>2026-04-26T09:23:58.881Z</time></trkpt><trkpt lat="53.6486835" lon="-1.934102"><ele>314.0</ele><time>2026-04-26T09:23:59.88Z</time></trkpt><trkpt lat="53.6487476" lon="-1.9340111"><ele>314.0</ele><time>2026-04-26T09:24:00.88Z</time></trkpt><trkpt lat="53.6488139" lon="-1.9339207"><ele>315.5</ele><time>2026-04-26T09:24:01.879Z</time></trkpt><trkpt lat="53.6488777" lon="-1.9338391"><ele>317.0</ele><time>2026-04-26T09:24:02.88Z</time></trkpt><trkpt lat="53.6489357" lon="-1.9337671"><ele>318.5</ele><time>2026-04-26T09:24:03.886Z</time></trkpt><trkpt lat="53.6489914" lon="-1.933711"><ele>320.0</ele><time>2026-04-26T09:24:04.881Z</time></trkpt><trkpt lat="53.6490884" lon="-1.9335881"><ele>321.5</ele><time>2026-04-26T09:24:06.88Z</time></trkpt><trkpt lat="53.6491376" lon="-1.9335205"><ele>323.0</ele><time>2026-04-26T09:24:07.879Z</time></trkpt><trkpt lat="53.64919" lon="-1.9334614"><ele>323.0</ele><time>2026-04-26T09:24:08.88Z</time></trkpt><trkpt lat="53.6492904" lon="-1.9333477"><ele>323.0</ele><time>2026-04-26T09:24:10.881Z</time></trkpt><trkpt lat="53.6493825" lon="-1.9332643"><ele>323.0</ele><time>2026-04-26T09:24:12.88Z</time></trkpt><trkpt lat="53.6494679" lon="-1.9332205"><ele>323.0</ele><time>2026-04-26T09:24:14.88Z</time></trkpt><trkpt lat="53.6495394" lon="-1.9332557"><ele>323.0</ele><time>2026-04-26T09:24:16.875Z</time></trkpt><trkpt lat="53.6496056" lon="-1.933415"><ele>323.0</ele><time>2026-04-26T09:24:18.878Z</time></trkpt><trkpt lat="53.6496544" lon="-1.9334995"><ele>323.0</ele><time>2026-04-26T09:24:19.877Z</time></trkpt><trkpt lat="53.64971" lon="-1.93357"><ele>323.0</ele><time>2026-04-26T09:24:20.88Z</time></trkpt><trkpt lat="53.6498014" lon="-1.9336947"><ele>323.0</ele><time>2026-04-26T09:24:22.879Z</time></trkpt><trkpt lat="53.6498523" lon="-1.9337704"><ele>323.0</ele><time>2026-04-26T09:24:23.886Z</time></trkpt><trkpt lat="53.649906" lon="-1.9338529"><ele>323.0</ele><time>2026-04-26T09:24:24.88Z</time></trkpt><trkpt lat="53.6499679" lon="-1.9339226"><ele>323.0</ele><time>2026-04-26T09:24:25.879Z</time></trkpt><trkpt lat="53.6500384" lon="-1.9339812"><ele>323.0</ele><time>2026-04-26T09:24:26.88Z</time></trkpt><trkpt lat="53.6501166" lon="-1.9340434"><ele>323.0</ele><time>2026-04-26T09:24:27.882Z</time></trkpt><trkpt lat="53.6501979" lon="-1.9341115"><ele>323.0</ele><time>2026-04-26T09:24:28.88Z</time></trkpt><trkpt lat="53.6502808" lon="-1.9341827"><ele>323.0</ele><time>2026-04-26T09:24:29.88Z</time></trkpt><trkpt lat="53.6503625" lon="-1.9342563"><ele>323.0</ele><time>2026-04-26T09:24:30.883Z</time></trkpt><trkpt lat="53.6504456" lon="-1.9343377"><ele>322.59999999999997</ele><time>2026-04-26T09:24:31.88Z</time></trkpt><trkpt lat="53.6505326" lon="-1.9344268"><ele>322.2</ele><time>2026-04-26T09:24:32.881Z</time></trkpt><trkpt lat="53.6506214" lon="-1.9345164"><ele>321.8</ele><time>2026-04-26T09:24:33.885Z</time></trkpt><trkpt lat="53.6507116" lon="-1.9346056"><ele>321.4</ele><time>2026-04-26T09:24:34.877Z</time></trkpt><trkpt lat="53.6508067" lon="-1.9346948"><ele>321.0</ele><time>2026-04-26T09:24:35.88Z</time></trkpt><trkpt lat="53.6509075" lon="-1.934786"><ele>321.0</ele><time>2026-04-26T09:24:36.881Z</time></trkpt><trkpt lat="53.651007" lon="-1.9348826"><ele>321.0</ele><time>2026-04-26T09:24:37.88Z</time></trkpt><trkpt lat="53.6511001" lon="-1.9349708"><ele>321.0</ele><time>2026-04-26T09:24:38.882Z</time></trkpt><trkpt lat="53.6511856" lon="-1.9350471"><ele>321.0</ele><time>2026-04-26T09:24:39.879Z</time></trkpt><trkpt lat="53.6512563" lon="-1.9351123"><ele>321.0</ele><time>2026-04-26T09:24:40.881Z</time></trkpt><trkpt lat="53.6513535" lon="-1.9351846"><ele>319.6666666666667</ele><time>2026-04-26T09:24:42.879Z</time></trkpt><trkpt lat="53.6514205" lon="-1.9352632"><ele>318.3333333333333</ele><time>2026-04-26T09:24:44.881Z</time></trkpt><trkpt lat="53.6514741" lon="-1.9353589"><ele>317.0</ele><time>2026-04-26T09:24:46.881Z</time></trkpt><trkpt lat="53.6515607" lon="-1.9353631"><ele>315.66666666666663</ele><time>2026-04-26T09:24:49.88Z</time></trkpt><trkpt lat="53.6516342" lon="-1.9353378"><ele>314.3333333333333</ele><time>2026-04-26T09:24:51.88Z</time></trkpt><trkpt lat="53.6517456" lon="-1.9353419"><ele>313.0</ele><time>2026-04-26T09:24:53.884Z</time></trkpt><trkpt lat="53.6518122" lon="-1.9353422"><ele>313.0</ele><time>2026-04-26T09:24:54.88Z</time></trkpt><trkpt lat="53.6518899" lon="-1.9353311"><ele>313.0</ele><time>2026-04-26T09:24:55.88Z</time></trkpt><trkpt lat="53.6519741" lon="-1.9353087"><ele>313.0</ele><time>2026-04-26T09:24:56.881Z</time></trkpt><trkpt lat="53.6520589" lon="-1.9352849"><ele>313.0</ele><time>2026-04-26T09:24:57.878Z</time></trkpt><trkpt lat="53.6521436" lon="-1.935257"><ele>313.0</ele><time>2026-04-26T09:24:58.878Z</time></trkpt><trkpt lat="53.6522189" lon="-1.9352279"><ele>313.0</ele><time>2026-04-26T09:24:59.881Z</time></trkpt><trkpt lat="53.6522876" lon="-1.9352076"><ele>311.8</ele><time>2026-04-26T09:25:00.88Z</time></trkpt><trkpt lat="53.6523525" lon="-1.9351957"><ele>310.6</ele><time>2026-04-26T09:25:01.88Z</time></trkpt><trkpt lat="53.6524156" lon="-1.9352029"><ele>309.4</ele><time>2026-04-26T09:25:02.88Z</time></trkpt><trkpt lat="53.6525242" lon="-1.9352045"><ele>308.2</ele><time>2026-04-26T09:25:04.881Z</time></trkpt><trkpt lat="53.6526342" lon="-1.9351631"><ele>307.0</ele><time>2026-04-26T09:25:06.882Z</time></trkpt><trkpt lat="53.6527588" lon="-1.9350959"><ele>307.99999999999994</ele><time>2026-04-26T09:25:08.879Z</time></trkpt><trkpt lat="53.6528238" lon="-1.935042"><ele>309.0</ele><time>2026-04-26T09:25:09.871Z</time></trkpt><trkpt lat="53.6528851" lon="-1.9349806"><ele>310.0</ele><time>2026-04-26T09:25:10.878Z</time></trkpt><trkpt lat="53.652945" lon="-1.9349162"><ele>311.0</ele><time>2026-04-26T09:25:11.878Z</time></trkpt><trkpt lat="53.653008" lon="-1.9348523"><ele>312.0</ele><time>2026-04-26T09:25:12.88Z</time></trkpt><trkpt lat="53.6530634" lon="-1.9347822"><ele>312.99999999999994</ele><time>2026-04-26T09:25:13.883Z</time></trkpt><trkpt lat="53.6531172" lon="-1.9347145"><ele>314.0</ele><time>2026-04-26T09:25:14.879Z</time></trkpt><trkpt lat="53.6531874" lon="-1.9345831"><ele>314.0</ele><time>2026-04-26T09:25:16.879Z</time></trkpt><trkpt lat="53.6532334" lon="-1.9344224"><ele>314.0</ele><time>2026-04-26T09:25:18.88Z</time></trkpt><trkpt lat="53.6532779" lon="-1.9342606"><ele>314.0</ele><time>2026-04-26T09:25:20.881Z</time></trkpt><trkpt lat="53.6533271" lon="-1.9341572"><ele>314.0</ele><time>2026-04-26T09:25:22.879Z</time></trkpt><trkpt lat="53.6533963" lon="-1.9340503"><ele>314.0</ele><time>2026-04-26T09:25:25.88Z</time></trkpt><trkpt lat="53.6534554" lon="-1.9339631"><ele>313.33333333333337</ele><time>2026-04-26T09:25:27.878Z</time></trkpt><trkpt lat="53.6535231" lon="-1.9338786"><ele>312.6666666666667</ele><time>2026-04-26T09:25:29.882Z</time></trkpt><trkpt lat="53.6536098" lon="-1.9338608"><ele>312.0</ele><time>2026-04-26T09:25:31.879Z</time></trkpt><trkpt lat="53.6536742" lon="-1.9338697"><ele>311.3333333333333</ele><time>2026-04-26T09:25:32.88Z</time></trkpt><trkpt lat="53.6537479" lon="-1.9338556"><ele>310.66666666666663</ele><time>2026-04-26T09:25:33.882Z</time></trkpt><trkpt lat="53.6538244" lon="-1.9338391"><ele>310.0</ele><time>2026-04-26T09:25:34.881Z</time></trkpt><trkpt lat="53.6538984" lon="-1.9338254"><ele>310.0</ele><time>2026-04-26T09:25:35.882Z</time></trkpt><trkpt lat="53.6539686" lon="-1.9338029"><ele>310.0</ele><time>2026-04-26T09:25:36.879Z</time></trkpt><trkpt lat="53.6540343" lon="-1.9337619"><ele>310.0</ele><time>2026-04-26T09:25:37.878Z</time></trkpt><trkpt lat="53.6540936" lon="-1.9336972"><ele>310.0</ele><time>2026-04-26T09:25:38.879Z</time></trkpt><trkpt lat="53.654152" lon="-1.9336145"><ele>310.0</ele><time>2026-04-26T09:25:39.88Z</time></trkpt><trkpt lat="53.6542105" lon="-1.933513"><ele>310.0</ele><time>2026-04-26T09:25:40.882Z</time></trkpt><trkpt lat="53.6542706" lon="-1.9334018"><ele>308.4</ele><time>2026-04-26T09:25:41.878Z</time></trkpt><trkpt lat="53.6543305" lon="-1.9332864"><ele>306.8</ele><time>2026-04-26T09:25:42.876Z</time></trkpt><trkpt lat="53.6543939" lon="-1.9331705"><ele>305.2</ele><time>2026-04-26T09:25:43.88Z</time></trkpt><trkpt lat="53.6544601" lon="-1.9330486"><ele>303.6</ele><time>2026-04-26T09:25:44.88Z</time></trkpt><trkpt lat="53.6545336" lon="-1.9329224"><ele>302.0</ele><time>2026-04-26T09:25:45.879Z</time></trkpt><trkpt lat="53.6546045" lon="-1.9327853"><ele>302.0</ele><time>2026-04-26T09:25:46.882Z</time></trkpt><trkpt lat="53.6546704" lon="-1.9326453"><ele>302.0</ele><time>2026-04-26T09:25:47.878Z</time></trkpt><trkpt lat="53.654729" lon="-1.9325046"><ele>302.0</ele><time>2026-04-26T09:25:48.879Z</time></trkpt><trkpt lat="53.6547848" lon="-1.9323567"><ele>302.0</ele><time>2026-04-26T09:25:49.879Z</time></trkpt><trkpt lat="53.6548393" lon="-1.9321952"><ele>302.0</ele><time>2026-04-26T09:25:50.879Z</time></trkpt><trkpt lat="53.654887" lon="-1.9320232"><ele>303.0</ele><time>2026-04-26T09:25:51.881Z</time></trkpt><trkpt lat="53.6549283" lon="-1.9318549"><ele>304.0</ele><time>2026-04-26T09:25:52.88Z</time></trkpt><trkpt lat="53.6549654" lon="-1.9316983"><ele>305.0</ele><time>2026-04-26T09:25:53.882Z</time></trkpt><trkpt lat="53.6549972" lon="-1.9315558"><ele>306.0</ele><time>2026-04-26T09:25:54.88Z</time></trkpt><trkpt lat="53.6550256" lon="-1.9314276"><ele>307.0</ele><time>2026-04-26T09:25:55.88Z</time></trkpt><trkpt lat="53.65505" lon="-1.9312992"><ele>308.0</ele><time>2026-04-26T09:25:56.881Z</time></trkpt><trkpt lat="53.6550696" lon="-1.9311654"><ele>309.0</ele><time>2026-04-26T09:25:57.881Z</time></trkpt><trkpt lat="53.655088" lon="-1.9310304"><ele>310.0</ele><time>2026-04-26T09:25:58.88Z</time></trkpt><trkpt lat="53.6551086" lon="-1.9309115"><ele>311.0</ele><time>2026-04-26T09:25:59.878Z</time></trkpt><trkpt lat="53.6551479" lon="-1.930735"><ele>312.0</ele><time>2026-04-26T09:26:01.882Z</time></trkpt><trkpt lat="53.6551641" lon="-1.9305151"><ele>313.0</ele><time>2026-04-26T09:26:03.882Z</time></trkpt><trkpt lat="53.6551648" lon="-1.930368"><ele>314.0</ele><time>2026-04-26T09:26:04.881Z</time></trkpt><trkpt lat="53.6551664" lon="-1.9301972"><ele>315.0</ele><time>2026-04-26T09:26:05.879Z</time></trkpt><trkpt lat="53.655172" lon="-1.9299979"><ele>316.0</ele><time>2026-04-26T09:26:06.882Z</time></trkpt><trkpt lat="53.6551837" lon="-1.929793"><ele>317.0</ele><time>2026-04-26T09:26:07.881Z</time></trkpt><trkpt lat="53.655204" lon="-1.9296134"><ele>317.0</ele><time>2026-04-26T09:26:08.881Z</time></trkpt><trkpt lat="53.6552298" lon="-1.9294607"><ele>317.0</ele><time>2026-04-26T09:26:09.879Z</time></trkpt><trkpt lat="53.6552587" lon="-1.9293331"><ele>317.0</ele><time>2026-04-26T09:26:10.879Z</time></trkpt><trkpt lat="53.6552915" lon="-1.9292409"><ele>317.0</ele><time>2026-04-26T09:26:11.876Z</time></trkpt><trkpt lat="53.6553742" lon="-1.9291627"><ele>317.0</ele><time>2026-04-26T09:26:13.881Z</time></trkpt><trkpt lat="53.6554335" lon="-1.9291253"><ele>317.0</ele><time>2026-04-26T09:26:16.879Z</time></trkpt><trkpt lat="53.6554281" lon="-1.9292376"><ele>313.2</ele><time>2026-04-26T09:26:20.876Z</time></trkpt><trkpt lat="53.6553911" lon="-1.9293308"><ele>309.4</ele><time>2026-04-26T09:27:13.882Z</time></trkpt><trkpt lat="53.6553777" lon="-1.9294826"><ele>305.6</ele><time>2026-04-26T09:27:15.881Z</time></trkpt><trkpt lat="53.6553609" lon="-1.9297008"><ele>301.8</ele><time>2026-04-26T09:27:17.882Z</time></trkpt><trkpt lat="53.6553491" lon="-1.9298331"><ele>298.0</ele><time>2026-04-26T09:27:18.881Z</time></trkpt><trkpt lat="53.6553387" lon="-1.9299794"><ele>297.6</ele><time>2026-04-26T09:27:19.88Z</time></trkpt><trkpt lat="53.655328" lon="-1.9301338"><ele>297.20000000000005</ele><time>2026-04-26T09:27:20.881Z</time></trkpt><trkpt lat="53.6553188" lon="-1.9302944"><ele>296.8</ele><time>2026-04-26T09:27:21.881Z</time></trkpt><trkpt lat="53.6553105" lon="-1.9304631"><ele>296.40000000000003</ele><time>2026-04-26T09:27:22.882Z</time></trkpt><trkpt lat="53.6553029" lon="-1.930642"><ele>296.0</ele><time>2026-04-26T09:27:23.883Z</time></trkpt><trkpt lat="53.655294" lon="-1.9308299"><ele>299.2</ele><time>2026-04-26T09:27:24.882Z</time></trkpt><trkpt lat="53.6552834" lon="-1.9310122"><ele>302.40000000000003</ele><time>2026-04-26T09:27:25.884Z</time></trkpt><trkpt lat="53.6552685" lon="-1.9311806"><ele>305.6</ele><time>2026-04-26T09:27:26.882Z</time></trkpt><trkpt lat="53.655249" lon="-1.9313364"><ele>308.8</ele><time>2026-04-26T09:27:27.883Z</time></trkpt><trkpt lat="53.6552316" lon="-1.9314823"><ele>312.0</ele><time>2026-04-26T09:27:28.882Z</time></trkpt><trkpt lat="53.6552216" lon="-1.9316127"><ele>311.1666666666667</ele><time>2026-04-26T09:27:29.882Z</time></trkpt><trkpt lat="53.6552195" lon="-1.9317307"><ele>310.3333333333333</ele><time>2026-04-26T09:27:30.88Z</time></trkpt><trkpt lat="53.6552186" lon="-1.9318414"><ele>309.5</ele><time>2026-04-26T09:27:31.879Z</time></trkpt><trkpt lat="53.6552182" lon="-1.9319478"><ele>308.66666666666663</ele><time>2026-04-26T09:27:32.879Z</time></trkpt><trkpt lat="53.6552193" lon="-1.9320545"><ele>307.8333333333333</ele><time>2026-04-26T09:27:33.879Z</time></trkpt><trkpt lat="53.6552303" lon="-1.9322656"><ele>307.0</ele><time>2026-04-26T09:27:35.877Z</time></trkpt><trkpt lat="53.6552358" lon="-1.932476"><ele>306.16666666666663</ele><time>2026-04-26T09:27:37.88Z</time></trkpt><trkpt lat="53.6552397" lon="-1.932583"><ele>305.3333333333333</ele><time>2026-04-26T09:27:38.88Z</time></trkpt><trkpt lat="53.6552468" lon="-1.9326984"><ele>304.5</ele><time>2026-04-26T09:27:39.878Z</time></trkpt><trkpt lat="53.6552584" lon="-1.9328231"><ele>303.6666666666667</ele><time>2026-04-26T09:27:40.877Z</time></trkpt><trkpt lat="53.6552711" lon="-1.9329523"><ele>302.83333333333337</ele><time>2026-04-26T09:27:41.879Z</time></trkpt><trkpt lat="53.6552769" lon="-1.9330887"><ele>302.0</ele><time>2026-04-26T09:27:42.878Z</time></trkpt><trkpt lat="53.6552695" lon="-1.9332336"><ele>302.0</ele><time>2026-04-26T09:27:43.884Z</time></trkpt><trkpt lat="53.6552587" lon="-1.9333861"><ele>302.0</ele><time>2026-04-26T09:27:44.883Z</time></trkpt><trkpt lat="53.6552485" lon="-1.9335436"><ele>302.0</ele><time>2026-04-26T09:27:45.88Z</time></trkpt><trkpt lat="53.6552382" lon="-1.9336944"><ele>302.0</ele><time>2026-04-26T09:27:46.88Z</time></trkpt><trkpt lat="53.6552265" lon="-1.9338365"><ele>302.0</ele><time>2026-04-26T09:27:47.879Z</time></trkpt><trkpt lat="53.6552121" lon="-1.9339726"><ele>302.0</ele><time>2026-04-26T09:27:48.879Z</time></trkpt><trkpt lat="53.6551928" lon="-1.9341102"><ele>299.83333333333337</ele><time>2026-04-26T09:27:49.88Z</time></trkpt><trkpt lat="53.6551736" lon="-1.9342425"><ele>297.6666666666667</ele><time>2026-04-26T09:27:50.879Z</time></trkpt><trkpt lat="53.6551539" lon="-1.9343624"><ele>295.5</ele><time>2026-04-26T09:27:51.882Z</time></trkpt><trkpt lat="53.6551313" lon="-1.9344728"><ele>293.3333333333333</ele><time>2026-04-26T09:27:52.88Z</time></trkpt><trkpt lat="53.6551076" lon="-1.9345882"><ele>291.16666666666663</ele><time>2026-04-26T09:27:53.88Z</time></trkpt><trkpt lat="53.6550858" lon="-1.9347265"><ele>289.0</ele><time>2026-04-26T09:27:54.881Z</time></trkpt><trkpt lat="53.6550661" lon="-1.9348797"><ele>289.0</ele><time>2026-04-26T09:27:55.879Z</time></trkpt><trkpt lat="53.655044" lon="-1.9350393"><ele>289.0</ele><time>2026-04-26T09:27:56.879Z</time></trkpt><trkpt lat="53.6550177" lon="-1.9351953"><ele>289.0</ele><time>2026-04-26T09:27:57.879Z</time></trkpt><trkpt lat="53.6549921" lon="-1.935345"><ele>289.0</ele><time>2026-04-26T09:27:58.88Z</time></trkpt><trkpt lat="53.6549678" lon="-1.9354904"><ele>289.0</ele><time>2026-04-26T09:27:59.88Z</time></trkpt><trkpt lat="53.6549478" lon="-1.9356313"><ele>287.2</ele><time>2026-04-26T09:28:00.881Z</time></trkpt><trkpt lat="53.654933" lon="-1.9357714"><ele>285.4</ele><time>2026-04-26T09:28:01.878Z</time></trkpt><trkpt lat="53.6549208" lon="-1.9359102"><ele>283.6</ele><time>2026-04-26T09:28:02.88Z</time></trkpt><trkpt lat="53.6549195" lon="-1.9360576"><ele>281.8</ele><time>2026-04-26T09:28:03.879Z</time></trkpt><trkpt lat="53.6549238" lon="-1.9362288"><ele>280.0</ele><time>2026-04-26T09:28:04.879Z</time></trkpt><trkpt lat="53.6549277" lon="-1.9364032"><ele>279.0</ele><time>2026-04-26T09:28:05.878Z</time></trkpt><trkpt lat="53.6549318" lon="-1.9365586"><ele>278.0</ele><time>2026-04-26T09:28:06.879Z</time></trkpt><trkpt lat="53.654941" lon="-1.9367028"><ele>277.0</ele><time>2026-04-26T09:28:07.877Z</time></trkpt><trkpt lat="53.6549565" lon="-1.9368493"><ele>276.0</ele><time>2026-04-26T09:28:08.877Z</time></trkpt><trkpt lat="53.6549705" lon="-1.9369946"><ele>275.0</ele><time>2026-04-26T09:28:09.878Z</time></trkpt><trkpt lat="53.654985" lon="-1.9371373"><ele>274.0</ele><time>2026-04-26T09:28:10.878Z</time></trkpt><trkpt lat="53.6550049" lon="-1.9372671"><ele>273.8333333333333</ele><time>2026-04-26T09:28:11.877Z</time></trkpt><trkpt lat="53.6550379" lon="-1.9373853"><ele>273.66666666666663</ele><time>2026-04-26T09:28:12.88Z</time></trkpt><trkpt lat="53.6550878" lon="-1.9374994"><ele>273.5</ele><time>2026-04-26T09:28:13.885Z</time></trkpt><trkpt lat="53.6551509" lon="-1.9376037"><ele>273.3333333333333</ele><time>2026-04-26T09:28:14.882Z</time></trkpt><trkpt lat="53.6552195" lon="-1.937689"><ele>273.1666666666667</ele><time>2026-04-26T09:28:15.88Z</time></trkpt><trkpt lat="53.6552851" lon="-1.9377552"><ele>273.0</ele><time>2026-04-26T09:28:16.88Z</time></trkpt><trkpt lat="53.6553429" lon="-1.9378143"><ele>271.5</ele><time>2026-04-26T09:28:17.88Z</time></trkpt><trkpt lat="53.6554397" lon="-1.9379319"><ele>270.0</ele><time>2026-04-26T09:28:19.882Z</time></trkpt><trkpt lat="53.6554868" lon="-1.9380066"><ele>268.5</ele><time>2026-04-26T09:28:20.883Z</time></trkpt><trkpt lat="53.6555367" lon="-1.9381014"><ele>267.0</ele><time>2026-04-26T09:28:21.878Z</time></trkpt><trkpt lat="53.6555901" lon="-1.9382142"><ele>265.5</ele><time>2026-04-26T09:28:22.88Z</time></trkpt><trkpt lat="53.6556435" lon="-1.9383413"><ele>264.0</ele><time>2026-04-26T09:28:23.882Z</time></trkpt><trkpt lat="53.6556973" lon="-1.9384736"><ele>263.6666666666667</ele><time>2026-04-26T09:28:24.88Z</time></trkpt><trkpt lat="53.6557473" lon="-1.9386002"><ele>263.3333333333333</ele><time>2026-04-26T09:28:25.883Z</time></trkpt><trkpt lat="53.6557972" lon="-1.9387203"><ele>263.0</ele><time>2026-04-26T09:28:26.877Z</time></trkpt><trkpt lat="53.6558534" lon="-1.9388353"><ele>262.66666666666663</ele><time>2026-04-26T09:28:27.884Z</time></trkpt><trkpt lat="53.6559144" lon="-1.9389419"><ele>262.3333333333333</ele><time>2026-04-26T09:28:28.882Z</time></trkpt><trkpt lat="53.655975" lon="-1.9390392"><ele>262.0</ele><time>2026-04-26T09:28:29.881Z</time></trkpt><trkpt lat="53.6560351" lon="-1.93913"><ele>260.6</ele><time>2026-04-26T09:28:30.883Z</time></trkpt><trkpt lat="53.6560923" lon="-1.939221"><ele>259.2</ele><time>2026-04-26T09:28:31.878Z</time></trkpt><trkpt lat="53.6561444" lon="-1.9393073"><ele>257.8</ele><time>2026-04-26T09:28:32.88Z</time></trkpt><trkpt lat="53.6562073" lon="-1.9394515"><ele>256.4</ele><time>2026-04-26T09:28:34.88Z</time></trkpt><trkpt lat="53.6562309" lon="-1.939622"><ele>255.0</ele><time>2026-04-26T09:28:36.873Z</time></trkpt><trkpt lat="53.6562029" lon="-1.9397969"><ele>253.0</ele><time>2026-04-26T09:28:38.884Z</time></trkpt><trkpt lat="53.6561446" lon="-1.939967"><ele>251.0</ele><time>2026-04-26T09:28:40.88Z</time></trkpt><trkpt lat="53.6561062" lon="-1.9400574"><ele>249.0</ele><time>2026-04-26T09:28:41.881Z</time></trkpt><trkpt lat="53.6560612" lon="-1.94015"><ele>247.0</ele><time>2026-04-26T09:28:42.88Z</time></trkpt><trkpt lat="53.6560155" lon="-1.9402413"><ele>245.0</ele><time>2026-04-26T09:28:43.887Z</time></trkpt><trkpt lat="53.6559673" lon="-1.9403265"><ele>243.0</ele><time>2026-04-26T09:28:44.881Z</time></trkpt><trkpt lat="53.6559173" lon="-1.9404061"><ele>243.0</ele><time>2026-04-26T09:28:45.88Z</time></trkpt><trkpt lat="53.6558674" lon="-1.9404895"><ele>243.0</ele><time>2026-04-26T09:28:46.88Z</time></trkpt><trkpt lat="53.6558225" lon="-1.9405834"><ele>243.0</ele><time>2026-04-26T09:28:47.882Z</time></trkpt><trkpt lat="53.655784" lon="-1.9406882"><ele>243.0</ele><time>2026-04-26T09:28:48.882Z</time></trkpt><trkpt lat="53.6557543" lon="-1.9408045"><ele>243.0</ele><time>2026-04-26T09:28:49.881Z</time></trkpt><trkpt lat="53.6557348" lon="-1.9409325"><ele>243.0</ele><time>2026-04-26T09:28:50.881Z</time></trkpt><trkpt lat="53.6557233" lon="-1.9410622"><ele>243.0</ele><time>2026-04-26T09:28:51.878Z</time></trkpt><trkpt lat="53.6557142" lon="-1.9411946"><ele>241.57142857142856</ele><time>2026-04-26T09:28:52.878Z</time></trkpt><trkpt lat="53.6557042" lon="-1.9413259"><ele>240.14285714285717</ele><time>2026-04-26T09:28:53.884Z</time></trkpt><trkpt lat="53.6556891" lon="-1.9414492"><ele>238.71428571428572</ele><time>2026-04-26T09:28:54.878Z</time></trkpt><trkpt lat="53.6556647" lon="-1.9415622"><ele>237.28571428571428</ele><time>2026-04-26T09:28:55.879Z</time></trkpt><trkpt lat="53.6556319" lon="-1.9416663"><ele>235.85714285714283</ele><time>2026-04-26T09:28:56.879Z</time></trkpt><trkpt lat="53.655595" lon="-1.9417629"><ele>234.42857142857144</ele><time>2026-04-26T09:28:57.877Z</time></trkpt><trkpt lat="53.6555567" lon="-1.9418507"><ele>233.0</ele><time>2026-04-26T09:28:58.879Z</time></trkpt><trkpt lat="53.6554917" lon="-1.9419997"><ele>231.60000000000002</ele><time>2026-04-26T09:29:00.879Z</time></trkpt><trkpt lat="53.6554552" lon="-1.9420919"><ele>230.20000000000002</ele><time>2026-04-26T09:29:02.878Z</time></trkpt><trkpt lat="53.6554941" lon="-1.9421832"><ele>228.8</ele><time>2026-04-26T09:29:05.879Z</time></trkpt><trkpt lat="53.6555759" lon="-1.9422715"><ele>227.4</ele><time>2026-04-26T09:29:07.879Z</time></trkpt><trkpt lat="53.6556559" lon="-1.9423856"><ele>226.0</ele><time>2026-04-26T09:29:09.881Z</time></trkpt><trkpt lat="53.6557334" lon="-1.9425408"><ele>225.20000000000002</ele><time>2026-04-26T09:29:11.878Z</time></trkpt><trkpt lat="53.6557972" lon="-1.9427006"><ele>224.40000000000003</ele><time>2026-04-26T09:29:13.883Z</time></trkpt><trkpt lat="53.6558522" lon="-1.9428569"><ele>223.6</ele><time>2026-04-26T09:29:15.881Z</time></trkpt><trkpt lat="53.6558991" lon="-1.9430191"><ele>222.8</ele><time>2026-04-26T09:29:17.879Z</time></trkpt><trkpt lat="53.6559497" lon="-1.9431862"><ele>222.0</ele><time>2026-04-26T09:29:19.881Z</time></trkpt><trkpt lat="53.6559985" lon="-1.9433652"><ele>220.2</ele><time>2026-04-26T09:29:21.881Z</time></trkpt><trkpt lat="53.6560284" lon="-1.9435075"><ele>218.39999999999998</ele><time>2026-04-26T09:29:23.882Z</time></trkpt><trkpt lat="53.6561169" lon="-1.9435499"><ele>216.60000000000002</ele><time>2026-04-26T09:30:40.88Z</time></trkpt><trkpt lat="53.6561974" lon="-1.9435032"><ele>214.8</ele><time>2026-04-26T09:30:42.881Z</time></trkpt><trkpt lat="53.656313" lon="-1.9434548"><ele>213.0</ele><time>2026-04-26T09:30:44.881Z</time></trkpt><trkpt lat="53.6563756" lon="-1.9434249"><ele>212.66666666666666</ele><time>2026-04-26T09:30:45.881Z</time></trkpt><trkpt lat="53.656491" lon="-1.9433561"><ele>212.33333333333331</ele><time>2026-04-26T09:30:47.881Z</time></trkpt><trkpt lat="53.6566016" lon="-1.9432738"><ele>212.0</ele><time>2026-04-26T09:30:49.872Z</time></trkpt><trkpt lat="53.6566581" lon="-1.9432232"><ele>211.66666666666666</ele><time>2026-04-26T09:30:50.873Z</time></trkpt><trkpt lat="53.6567129" lon="-1.9431634"><ele>211.33333333333331</ele><time>2026-04-26T09:30:51.879Z</time></trkpt><trkpt lat="53.6567657" lon="-1.9430966"><ele>211.0</ele><time>2026-04-26T09:30:52.88Z</time></trkpt><trkpt lat="53.6568137" lon="-1.9430197"><ele>210.99999999999997</ele><time>2026-04-26T09:30:53.883Z</time></trkpt><trkpt lat="53.6568627" lon="-1.9429372"><ele>211.0</ele><time>2026-04-26T09:30:54.88Z</time></trkpt><trkpt lat="53.6569134" lon="-1.9428567"><ele>211.0</ele><time>2026-04-26T09:30:55.881Z</time></trkpt><trkpt lat="53.6569609" lon="-1.9427795"><ele>211.0</ele><time>2026-04-26T09:30:56.879Z</time></trkpt><trkpt lat="53.6570509" lon="-1.9426505"><ele>210.99999999999997</ele><time>2026-04-26T09:30:58.88Z</time></trkpt><trkpt lat="53.6571361" lon="-1.9425799"><ele>211.0</ele><time>2026-04-26T09:31:00.878Z</time></trkpt><trkpt lat="53.6572181" lon="-1.9425521"><ele>207.8</ele><time>2026-04-26T09:31:02.877Z</time></trkpt><trkpt lat="53.6572711" lon="-1.9424687"><ele>204.60000000000002</ele><time>2026-04-26T09:31:04.875Z</time></trkpt><trkpt lat="53.6573164" lon="-1.9423302"><ele>201.4</ele><time>2026-04-26T09:31:06.875Z</time></trkpt><trkpt lat="53.6573788" lon="-1.9422142"><ele>198.2</ele><time>2026-04-26T09:31:08.875Z</time></trkpt><trkpt lat="53.6574509" lon="-1.9421041"><ele>195.0</ele><time>2026-04-26T09:31:10.873Z</time></trkpt><trkpt lat="53.6575286" lon="-1.9419716"><ele>195.0</ele><time>2026-04-26T09:31:12.881Z</time></trkpt><trkpt lat="53.6575859" lon="-1.9418413"><ele>195.0</ele><time>2026-04-26T09:31:14.88Z</time></trkpt><trkpt lat="53.6576112" lon="-1.9417098"><ele>195.0</ele><time>2026-04-26T09:31:16.879Z</time></trkpt><trkpt lat="53.6576398" lon="-1.9415871"><ele>195.0</ele><time>2026-04-26T09:31:18.872Z</time></trkpt><trkpt lat="53.6577027" lon="-1.9415003"><ele>195.0</ele><time>2026-04-26T09:31:20.88Z</time></trkpt><trkpt lat="53.6578196" lon="-1.941539"><ele>194.5</ele><time>2026-04-26T09:31:22.881Z</time></trkpt><trkpt lat="53.6578848" lon="-1.941599"><ele>194.0</ele><time>2026-04-26T09:31:23.88Z</time></trkpt><trkpt lat="53.6579515" lon="-1.9416764"><ele>193.5</ele><time>2026-04-26T09:31:24.88Z</time></trkpt><trkpt lat="53.6580165" lon="-1.9417541"><ele>193.0</ele><time>2026-04-26T09:31:25.882Z</time></trkpt><trkpt lat="53.6580896" lon="-1.9418228"><ele>192.5</ele><time>2026-04-26T09:31:26.879Z</time></trkpt><trkpt lat="53.658167" lon="-1.9418893"><ele>192.0</ele><time>2026-04-26T09:31:27.881Z</time></trkpt><trkpt lat="53.65826" lon="-1.9419715"><ele>192.0</ele><time>2026-04-26T09:31:28.883Z</time></trkpt><trkpt lat="53.6583642" lon="-1.9420454"><ele>192.0</ele><time>2026-04-26T09:31:29.885Z</time></trkpt><trkpt lat="53.6584818" lon="-1.9421079"><ele>192.0</ele><time>2026-04-26T09:31:30.886Z</time></trkpt><trkpt lat="53.6585927" lon="-1.9421635"><ele>192.0</ele><time>2026-04-26T09:31:31.883Z</time></trkpt><trkpt lat="53.6586839" lon="-1.9422289"><ele>194.66666666666666</ele><time>2026-04-26T09:31:32.884Z</time></trkpt><trkpt lat="53.6587637" lon="-1.9422922"><ele>197.33333333333331</ele><time>2026-04-26T09:31:33.882Z</time></trkpt><trkpt lat="53.6588447" lon="-1.9423396"><ele>200.0</ele><time>2026-04-26T09:31:34.881Z</time></trkpt><trkpt lat="53.6589225" lon="-1.942387"><ele>202.66666666666666</ele><time>2026-04-26T09:31:35.88Z</time></trkpt><trkpt lat="53.658997" lon="-1.9424345"><ele>205.33333333333331</ele><time>2026-04-26T09:31:36.882Z</time></trkpt><trkpt lat="53.6590691" lon="-1.942484"><ele>208.0</ele><time>2026-04-26T09:31:37.877Z</time></trkpt><trkpt lat="53.6591458" lon="-1.9425359"><ele>207.99999999999997</ele><time>2026-04-26T09:31:38.88Z</time></trkpt><trkpt lat="53.6592265" lon="-1.942586"><ele>208.0</ele><time>2026-04-26T09:31:39.881Z</time></trkpt><trkpt lat="53.659303" lon="-1.9426333"><ele>208.0</ele><time>2026-04-26T09:31:40.88Z</time></trkpt><trkpt lat="53.6593701" lon="-1.9426739"><ele>208.0</ele><time>2026-04-26T09:31:41.882Z</time></trkpt><trkpt lat="53.6594323" lon="-1.9427189"><ele>207.99999999999997</ele><time>2026-04-26T09:31:42.884Z</time></trkpt><trkpt lat="53.6594952" lon="-1.9427593"><ele>208.0</ele><time>2026-04-26T09:31:43.883Z</time></trkpt><trkpt lat="53.6595671" lon="-1.9428105"><ele>208.0</ele><time>2026-04-26T09:31:44.883Z</time></trkpt><trkpt lat="53.6596529" lon="-1.9428575"><ele>208.0</ele><time>2026-04-26T09:31:45.883Z</time></trkpt><trkpt lat="53.6597508" lon="-1.9428952"><ele>208.0</ele><time>2026-04-26T09:31:46.881Z</time></trkpt><trkpt lat="53.6598502" lon="-1.9429416"><ele>208.0</ele><time>2026-04-26T09:31:47.885Z</time></trkpt><trkpt lat="53.6599467" lon="-1.9429867"><ele>208.0</ele><time>2026-04-26T09:31:48.874Z</time></trkpt><trkpt lat="53.6600403" lon="-1.9430205"><ele>208.0</ele><time>2026-04-26T09:31:49.877Z</time></trkpt><trkpt lat="53.6601338" lon="-1.943049"><ele>208.0</ele><time>2026-04-26T09:31:50.876Z</time></trkpt><trkpt lat="53.6602253" lon="-1.9430761"><ele>208.0</ele><time>2026-04-26T09:31:51.886Z</time></trkpt><trkpt lat="53.6603165" lon="-1.9430999"><ele>208.0</ele><time>2026-04-26T09:31:52.883Z</time></trkpt><trkpt lat="53.6604079" lon="-1.9431285"><ele>208.0</ele><time>2026-04-26T09:31:53.878Z</time></trkpt><trkpt lat="53.6605102" lon="-1.9431742"><ele>207.25</ele><time>2026-04-26T09:31:54.875Z</time></trkpt><trkpt lat="53.6606186" lon="-1.9432325"><ele>206.5</ele><time>2026-04-26T09:31:55.876Z</time></trkpt><trkpt lat="53.6607256" lon="-1.9432978"><ele>205.75</ele><time>2026-04-26T09:31:56.887Z</time></trkpt><trkpt lat="53.6608317" lon="-1.9433682"><ele>205.0</ele><time>2026-04-26T09:31:57.877Z</time></trkpt><trkpt lat="53.6609387" lon="-1.9434459"><ele>205.0</ele><time>2026-04-26T09:31:58.885Z</time></trkpt><trkpt lat="53.6610398" lon="-1.9435283"><ele>205.0</ele><time>2026-04-26T09:31:59.885Z</time></trkpt><trkpt lat="53.6611339" lon="-1.9436233"><ele>205.0</ele><time>2026-04-26T09:32:00.877Z</time></trkpt><trkpt lat="53.6612231" lon="-1.9437202"><ele>205.0</ele><time>2026-04-26T09:32:01.876Z</time></trkpt><trkpt lat="53.6613179" lon="-1.9438032"><ele>205.0</ele><time>2026-04-26T09:32:02.878Z</time></trkpt><trkpt lat="53.6614211" lon="-1.9438736"><ele>207.5</ele><time>2026-04-26T09:32:03.876Z</time></trkpt><trkpt lat="53.6615299" lon="-1.9439362"><ele>210.0</ele><time>2026-04-26T09:32:04.879Z</time></trkpt><trkpt lat="53.6616441" lon="-1.9439756"><ele>212.5</ele><time>2026-04-26T09:32:05.88Z</time></trkpt><trkpt lat="53.661763" lon="-1.9439911"><ele>215.0</ele><time>2026-04-26T09:32:06.88Z</time></trkpt><trkpt lat="53.6618794" lon="-1.9439928"><ele>214.6</ele><time>2026-04-26T09:32:07.88Z</time></trkpt><trkpt lat="53.6619936" lon="-1.9439757"><ele>214.2</ele><time>2026-04-26T09:32:08.872Z</time></trkpt><trkpt lat="53.6621017" lon="-1.9439442"><ele>213.8</ele><time>2026-04-26T09:32:09.88Z</time></trkpt><trkpt lat="53.6622072" lon="-1.9438914"><ele>213.4</ele><time>2026-04-26T09:32:10.876Z</time></trkpt><trkpt lat="53.6623144" lon="-1.9438384"><ele>213.0</ele><time>2026-04-26T09:32:11.882Z</time></trkpt><trkpt lat="53.6624291" lon="-1.9438024"><ele>213.0</ele><time>2026-04-26T09:32:12.882Z</time></trkpt><trkpt lat="53.6625485" lon="-1.9437836"><ele>213.0</ele><time>2026-04-26T09:32:13.889Z</time></trkpt><trkpt lat="53.662675" lon="-1.9437702"><ele>213.0</ele><time>2026-04-26T09:32:14.879Z</time></trkpt><trkpt lat="53.6628053" lon="-1.9437433"><ele>213.0</ele><time>2026-04-26T09:32:15.882Z</time></trkpt><trkpt lat="53.6629329" lon="-1.9437064"><ele>212.0</ele><time>2026-04-26T09:32:16.883Z</time></trkpt><trkpt lat="53.6630491" lon="-1.9436708"><ele>211.0</ele><time>2026-04-26T09:32:17.88Z</time></trkpt><trkpt lat="53.6631602" lon="-1.9436472"><ele>210.0</ele><time>2026-04-26T09:32:18.883Z</time></trkpt><trkpt lat="53.6632759" lon="-1.943648"><ele>209.0</ele><time>2026-04-26T09:32:19.882Z</time></trkpt><trkpt lat="53.6633989" lon="-1.9436769"><ele>209.0</ele><time>2026-04-26T09:32:20.881Z</time></trkpt><trkpt lat="53.6635306" lon="-1.9437212"><ele>209.0</ele><time>2026-04-26T09:32:21.883Z</time></trkpt><trkpt lat="53.6636675" lon="-1.9437698"><ele>209.0</ele><time>2026-04-26T09:32:22.884Z</time></trkpt><trkpt lat="53.6638029" lon="-1.9438055"><ele>209.0</ele><time>2026-04-26T09:32:23.881Z</time></trkpt><trkpt lat="53.663928" lon="-1.9438272"><ele>209.0</ele><time>2026-04-26T09:32:24.883Z</time></trkpt><trkpt lat="53.6640404" lon="-1.9438447"><ele>209.0</ele><time>2026-04-26T09:32:25.882Z</time></trkpt><trkpt lat="53.6641453" lon="-1.9438626"><ele>209.0</ele><time>2026-04-26T09:32:26.882Z</time></trkpt><trkpt lat="53.6642503" lon="-1.9438666"><ele>209.0</ele><time>2026-04-26T09:32:27.882Z</time></trkpt><trkpt lat="53.6643565" lon="-1.9438446"><ele>209.0</ele><time>2026-04-26T09:32:28.883Z</time></trkpt><trkpt lat="53.664464" lon="-1.9437973"><ele>209.0</ele><time>2026-04-26T09:32:29.881Z</time></trkpt><trkpt lat="53.6645774" lon="-1.943744"><ele>209.0</ele><time>2026-04-26T09:32:30.882Z</time></trkpt><trkpt lat="53.6647028" lon="-1.9436944"><ele>209.0</ele><time>2026-04-26T09:32:31.876Z</time></trkpt><trkpt lat="53.6648303" lon="-1.9436542"><ele>209.0</ele><time>2026-04-26T09:32:32.878Z</time></trkpt><trkpt lat="53.6649416" lon="-1.9436086"><ele>209.0</ele><time>2026-04-26T09:32:33.88Z</time></trkpt><trkpt lat="53.6650374" lon="-1.943537"><ele>209.0</ele><time>2026-04-26T09:32:34.878Z</time></trkpt><trkpt lat="53.665123" lon="-1.9434379"><ele>209.0</ele><time>2026-04-26T09:32:35.876Z</time></trkpt><trkpt lat="53.6652159" lon="-1.9433091"><ele>209.0</ele><time>2026-04-26T09:32:36.878Z</time></trkpt><trkpt lat="53.6653185" lon="-1.9431679"><ele>211.0</ele><time>2026-04-26T09:32:37.877Z</time></trkpt><trkpt lat="53.6654336" lon="-1.9430198"><ele>213.0</ele><time>2026-04-26T09:32:38.879Z</time></trkpt><trkpt lat="53.6655529" lon="-1.9428783"><ele>215.0</ele><time>2026-04-26T09:32:39.878Z</time></trkpt><trkpt lat="53.665659" lon="-1.9427578"><ele>217.0</ele><time>2026-04-26T09:32:40.879Z</time></trkpt><trkpt lat="53.6657485" lon="-1.9426672"><ele>217.0</ele><time>2026-04-26T09:32:41.88Z</time></trkpt><trkpt lat="53.6658237" lon="-1.9426026"><ele>217.0</ele><time>2026-04-26T09:32:42.881Z</time></trkpt><trkpt lat="53.6658832" lon="-1.9425513"><ele>217.0</ele><time>2026-04-26T09:32:43.885Z</time></trkpt><trkpt lat="53.6659456" lon="-1.9425179"><ele>217.0</ele><time>2026-04-26T09:32:45.88Z</time></trkpt><trkpt lat="53.6660586" lon="-1.9423532"><ele>217.0</ele><time>2026-04-26T09:34:41.88Z</time></trkpt><trkpt lat="53.666141" lon="-1.9422485"><ele>217.5</ele><time>2026-04-26T09:34:42.882Z</time></trkpt><trkpt lat="53.6662313" lon="-1.9421376"><ele>218.0</ele><time>2026-04-26T09:34:43.882Z</time></trkpt><trkpt lat="53.6663277" lon="-1.9420224"><ele>218.5</ele><time>2026-04-26T09:34:44.88Z</time></trkpt><trkpt lat="53.66643" lon="-1.9419055"><ele>219.0</ele><time>2026-04-26T09:34:45.881Z</time></trkpt><trkpt lat="53.6665398" lon="-1.9418009"><ele>219.5</ele><time>2026-04-26T09:34:46.884Z</time></trkpt><trkpt lat="53.6666546" lon="-1.9416978"><ele>220.0</ele><time>2026-04-26T09:34:47.883Z</time></trkpt><trkpt lat="53.6667733" lon="-1.9415894"><ele>220.5</ele><time>2026-04-26T09:34:48.883Z</time></trkpt><trkpt lat="53.6668953" lon="-1.9414737"><ele>221.0</ele><time>2026-04-26T09:34:49.882Z</time></trkpt><trkpt lat="53.6670252" lon="-1.9413607"><ele>221.0</ele><time>2026-04-26T09:34:50.883Z</time></trkpt><trkpt lat="53.6671762" lon="-1.9412473"><ele>221.0</ele><time>2026-04-26T09:34:51.882Z</time></trkpt><trkpt lat="53.6673438" lon="-1.9411418"><ele>221.0</ele><time>2026-04-26T09:34:52.882Z</time></trkpt><trkpt lat="53.6675261" lon="-1.9410377"><ele>221.0</ele><time>2026-04-26T09:34:53.885Z</time></trkpt><trkpt lat="53.6677069" lon="-1.9409428"><ele>221.0</ele><time>2026-04-26T09:34:54.883Z</time></trkpt><trkpt lat="53.6678757" lon="-1.9408509"><ele>221.0</ele><time>2026-04-26T09:34:55.881Z</time></trkpt><trkpt lat="53.6680333" lon="-1.9407629"><ele>221.66666666666669</ele><time>2026-04-26T09:34:56.881Z</time></trkpt><trkpt lat="53.6681847" lon="-1.9406776"><ele>222.33333333333331</ele><time>2026-04-26T09:34:57.883Z</time></trkpt><trkpt lat="53.6683385" lon="-1.9405898"><ele>223.0</ele><time>2026-04-26T09:34:58.882Z</time></trkpt><trkpt lat="53.6684965" lon="-1.940505"><ele>219.0</ele><time>2026-04-26T09:34:59.881Z</time></trkpt><trkpt lat="53.6686544" lon="-1.9404261"><ele>215.0</ele><time>2026-04-26T09:35:00.879Z</time></trkpt><trkpt lat="53.668811" lon="-1.9403591"><ele>211.0</ele><time>2026-04-26T09:35:01.88Z</time></trkpt><trkpt lat="53.6689643" lon="-1.9402976"><ele>211.0</ele><time>2026-04-26T09:35:02.883Z</time></trkpt><trkpt lat="53.6691037" lon="-1.9402351"><ele>211.0</ele><time>2026-04-26T09:35:03.887Z</time></trkpt><trkpt lat="53.6692251" lon="-1.9401724"><ele>211.0</ele><time>2026-04-26T09:35:04.876Z</time></trkpt><trkpt lat="53.6693304" lon="-1.9400829"><ele>211.0</ele><time>2026-04-26T09:35:05.884Z</time></trkpt><trkpt lat="53.6694329" lon="-1.9399745"><ele>209.0</ele><time>2026-04-26T09:35:06.883Z</time></trkpt><trkpt lat="53.6695163" lon="-1.9398266"><ele>207.0</ele><time>2026-04-26T09:35:07.881Z</time></trkpt><trkpt lat="53.6695979" lon="-1.939654"><ele>205.0</ele><time>2026-04-26T09:35:08.885Z</time></trkpt><trkpt lat="53.6696882" lon="-1.9394824"><ele>203.0</ele><time>2026-04-26T09:35:09.883Z</time></trkpt><trkpt lat="53.6697897" lon="-1.9393039"><ele>205.0</ele><time>2026-04-26T09:35:10.887Z</time></trkpt><trkpt lat="53.6698984" lon="-1.9391084"><ele>207.0</ele><time>2026-04-26T09:35:11.883Z</time></trkpt><trkpt lat="53.6700012" lon="-1.9389159"><ele>209.0</ele><time>2026-04-26T09:35:12.883Z</time></trkpt><trkpt lat="53.670111" lon="-1.9387146"><ele>209.0</ele><time>2026-04-26T09:35:13.89Z</time></trkpt><trkpt lat="53.6702216" lon="-1.9385242"><ele>209.0</ele><time>2026-04-26T09:35:14.885Z</time></trkpt><trkpt lat="53.6703329" lon="-1.9383467"><ele>209.0</ele><time>2026-04-26T09:35:15.884Z</time></trkpt><trkpt lat="53.6704414" lon="-1.9381831"><ele>205.75</ele><time>2026-04-26T09:35:16.884Z</time></trkpt><trkpt lat="53.6705455" lon="-1.9380276"><ele>202.5</ele><time>2026-04-26T09:35:17.883Z</time></trkpt><trkpt lat="53.6706442" lon="-1.9378707"><ele>199.25</ele><time>2026-04-26T09:35:18.882Z</time></trkpt><trkpt lat="53.6707344" lon="-1.9377229"><ele>196.0</ele><time>2026-04-26T09:35:19.882Z</time></trkpt><trkpt lat="53.6708172" lon="-1.9375824"><ele>196.66666666666666</ele><time>2026-04-26T09:35:20.884Z</time></trkpt><trkpt lat="53.670888" lon="-1.9374344"><ele>197.33333333333331</ele><time>2026-04-26T09:35:21.884Z</time></trkpt><trkpt lat="53.6709293" lon="-1.9372913"><ele>198.0</ele><time>2026-04-26T09:35:22.882Z</time></trkpt><trkpt lat="53.6709459" lon="-1.937157"><ele>198.66666666666669</ele><time>2026-04-26T09:35:23.884Z</time></trkpt><trkpt lat="53.6709339" lon="-1.9370303"><ele>199.33333333333334</ele><time>2026-04-26T09:35:24.885Z</time></trkpt><trkpt lat="53.6708997" lon="-1.9368995"><ele>200.0</ele><time>2026-04-26T09:35:25.884Z</time></trkpt><trkpt lat="53.6708553" lon="-1.9367577"><ele>200.33333333333334</ele><time>2026-04-26T09:35:26.887Z</time></trkpt><trkpt lat="53.670836" lon="-1.9366195"><ele>200.66666666666669</ele><time>2026-04-26T09:35:27.886Z</time></trkpt><trkpt lat="53.6708411" lon="-1.9364906"><ele>201.0</ele><time>2026-04-26T09:35:28.884Z</time></trkpt><trkpt lat="53.6708528" lon="-1.9363673"><ele>201.33333333333331</ele><time>2026-04-26T09:35:29.885Z</time></trkpt><trkpt lat="53.6708635" lon="-1.9362398"><ele>201.66666666666666</ele><time>2026-04-26T09:35:30.886Z</time></trkpt><trkpt lat="53.6708667" lon="-1.9360912"><ele>202.0</ele><time>2026-04-26T09:35:31.885Z</time></trkpt><trkpt lat="53.6708699" lon="-1.9359165"><ele>201.39999999999998</ele><time>2026-04-26T09:35:32.885Z</time></trkpt><trkpt lat="53.6708747" lon="-1.9357409"><ele>200.79999999999998</ele><time>2026-04-26T09:35:33.887Z</time></trkpt><trkpt lat="53.6708761" lon="-1.9355674"><ele>200.2</ele><time>2026-04-26T09:35:34.886Z</time></trkpt><trkpt lat="53.670875" lon="-1.9354089"><ele>199.6</ele><time>2026-04-26T09:35:35.889Z</time></trkpt><trkpt lat="53.6708766" lon="-1.9352708"><ele>199.0</ele><time>2026-04-26T09:35:36.887Z</time></trkpt><trkpt lat="53.6708847" lon="-1.935156"><ele>198.99999999999997</ele><time>2026-04-26T09:35:37.89Z</time></trkpt><trkpt lat="53.6709627" lon="-1.9350542"><ele>199.0</ele><time>2026-04-26T09:35:39.885Z</time></trkpt><trkpt lat="53.6710288" lon="-1.9350735"><ele>199.0</ele><time>2026-04-26T09:35:40.89Z</time></trkpt><trkpt lat="53.6710858" lon="-1.935136"><ele>199.0</ele><time>2026-04-26T09:35:41.874Z</time></trkpt><trkpt lat="53.6711444" lon="-1.9352319"><ele>198.99999999999997</ele><time>2026-04-26T09:35:42.883Z</time></trkpt><trkpt lat="53.6712056" lon="-1.9353342"><ele>199.0</ele><time>2026-04-26T09:35:43.888Z</time></trkpt><trkpt lat="53.6712726" lon="-1.9354159"><ele>195.66666666666666</ele><time>2026-04-26T09:35:44.885Z</time></trkpt><trkpt lat="53.6713469" lon="-1.935472"><ele>192.33333333333331</ele><time>2026-04-26T09:35:45.886Z</time></trkpt><trkpt lat="53.6714228" lon="-1.9354963"><ele>189.0</ele><time>2026-04-26T09:35:46.886Z</time></trkpt><trkpt lat="53.6715083" lon="-1.9354864"><ele>185.66666666666666</ele><time>2026-04-26T09:35:47.884Z</time></trkpt><trkpt lat="53.6715998" lon="-1.935448"><ele>182.33333333333331</ele><time>2026-04-26T09:35:48.885Z</time></trkpt><trkpt lat="53.6716888" lon="-1.9353913"><ele>179.0</ele><time>2026-04-26T09:35:49.882Z</time></trkpt><trkpt lat="53.671772" lon="-1.9353363"><ele>179.0</ele><time>2026-04-26T09:35:50.884Z</time></trkpt><trkpt lat="53.6718514" lon="-1.9352878"><ele>179.0</ele><time>2026-04-26T09:35:51.884Z</time></trkpt><trkpt lat="53.6719172" lon="-1.9352574"><ele>179.0</ele><time>2026-04-26T09:35:52.887Z</time></trkpt><trkpt lat="53.6720078" lon="-1.9352474"><ele>179.0</ele><time>2026-04-26T09:35:54.885Z</time></trkpt><trkpt lat="53.6720145" lon="-1.9354034"><ele>179.0</ele><time>2026-04-26T09:35:57.884Z</time></trkpt><trkpt lat="53.6719429" lon="-1.9355997"><ele>179.0</ele><time>2026-04-26T09:35:59.88Z</time></trkpt><trkpt lat="53.6719175" lon="-1.9357526"><ele>179.0</ele><time>2026-04-26T09:36:00.883Z</time></trkpt><trkpt lat="53.6719304" lon="-1.935929"><ele>179.0</ele><time>2026-04-26T09:36:01.884Z</time></trkpt><trkpt lat="53.6719776" lon="-1.9360951"><ele>179.0</ele><time>2026-04-26T09:36:02.883Z</time></trkpt><trkpt lat="53.6720387" lon="-1.9362449"><ele>179.0</ele><time>2026-04-26T09:36:03.884Z</time></trkpt><trkpt lat="53.6721111" lon="-1.9363863"><ele>175.5</ele><time>2026-04-26T09:36:04.881Z</time></trkpt><trkpt lat="53.6721964" lon="-1.9365267"><ele>172.0</ele><time>2026-04-26T09:36:05.882Z</time></trkpt><trkpt lat="53.6722904" lon="-1.9366751"><ele>168.5</ele><time>2026-04-26T09:36:06.881Z</time></trkpt><trkpt lat="53.6723971" lon="-1.936832"><ele>165.0</ele><time>2026-04-26T09:36:07.883Z</time></trkpt><trkpt lat="53.672517" lon="-1.9369966"><ele>165.0</ele><time>2026-04-26T09:36:08.879Z</time></trkpt><trkpt lat="53.6726425" lon="-1.9371576"><ele>165.0</ele><time>2026-04-26T09:36:09.882Z</time></trkpt><trkpt lat="53.672761" lon="-1.9373141"><ele>165.0</ele><time>2026-04-26T09:36:10.881Z</time></trkpt><trkpt lat="53.6728646" lon="-1.9374785"><ele>159.25</ele><time>2026-04-26T09:36:11.878Z</time></trkpt><trkpt lat="53.6729623" lon="-1.9376485"><ele>153.5</ele><time>2026-04-26T09:36:12.875Z</time></trkpt><trkpt lat="53.6730628" lon="-1.9378116"><ele>147.75</ele><time>2026-04-26T09:36:13.877Z</time></trkpt><trkpt lat="53.673165" lon="-1.9379691"><ele>142.0</ele><time>2026-04-26T09:36:14.876Z</time></trkpt><trkpt lat="53.673264" lon="-1.9381247"><ele>142.0</ele><time>2026-04-26T09:36:15.878Z</time></trkpt><trkpt lat="53.6733572" lon="-1.938282"><ele>142.0</ele><time>2026-04-26T09:36:16.879Z</time></trkpt><trkpt lat="53.6734476" lon="-1.9384434"><ele>142.0</ele><time>2026-04-26T09:36:17.882Z</time></trkpt><trkpt lat="53.6735388" lon="-1.9386023"><ele>142.0</ele><time>2026-04-26T09:36:18.88Z</time></trkpt><trkpt lat="53.6736295" lon="-1.9387698"><ele>138.25</ele><time>2026-04-26T09:36:19.881Z</time></trkpt><trkpt lat="53.6737198" lon="-1.9389418"><ele>134.5</ele><time>2026-04-26T09:36:20.88Z</time></trkpt><trkpt lat="53.6738081" lon="-1.9391113"><ele>130.75</ele><time>2026-04-26T09:36:21.881Z</time></trkpt><trkpt lat="53.673895" lon="-1.9392786"><ele>127.0</ele><time>2026-04-26T09:36:22.881Z</time></trkpt><trkpt lat="53.6739785" lon="-1.9394423"><ele>126.75</ele><time>2026-04-26T09:36:23.882Z</time></trkpt><trkpt lat="53.6740646" lon="-1.9396064"><ele>126.5</ele><time>2026-04-26T09:36:24.881Z</time></trkpt><trkpt lat="53.6741518" lon="-1.9397726"><ele>126.25</ele><time>2026-04-26T09:36:25.88Z</time></trkpt><trkpt lat="53.6742365" lon="-1.9399421"><ele>126.0</ele><time>2026-04-26T09:36:26.881Z</time></trkpt><trkpt lat="53.6743217" lon="-1.940108"><ele>126.5</ele><time>2026-04-26T09:36:27.879Z</time></trkpt><trkpt lat="53.6744057" lon="-1.9402698"><ele>127.0</ele><time>2026-04-26T09:36:28.884Z</time></trkpt><trkpt lat="53.6744859" lon="-1.9404274"><ele>127.5</ele><time>2026-04-26T09:36:29.876Z</time></trkpt><trkpt lat="53.6745537" lon="-1.940594"><ele>128.0</ele><time>2026-04-26T09:36:30.882Z</time></trkpt><trkpt lat="53.6746059" lon="-1.9407596"><ele>131.0</ele><time>2026-04-26T09:36:31.879Z</time></trkpt><trkpt lat="53.6746415" lon="-1.9409081"><ele>134.0</ele><time>2026-04-26T09:36:32.883Z</time></trkpt><trkpt lat="53.6746602" lon="-1.9410488"><ele>137.0</ele><time>2026-04-26T09:36:33.888Z</time></trkpt><trkpt lat="53.6746729" lon="-1.941171"><ele>140.0</ele><time>2026-04-26T09:36:34.883Z</time></trkpt><trkpt lat="53.674701" lon="-1.9412922"><ele>143.0</ele><time>2026-04-26T09:36:36.881Z</time></trkpt><trkpt lat="53.6747411" lon="-1.9414195"><ele>146.0</ele><time>2026-04-26T09:36:39.884Z</time></trkpt><trkpt lat="53.6747707" lon="-1.9415414"><ele>146.0</ele><time>2026-04-26T09:36:40.882Z</time></trkpt><trkpt lat="53.6747997" lon="-1.9417012"><ele>146.0</ele><time>2026-04-26T09:36:41.879Z</time></trkpt><trkpt lat="53.6748127" lon="-1.9418645"><ele>146.0</ele><time>2026-04-26T09:36:42.879Z</time></trkpt><trkpt lat="53.6748133" lon="-1.9420116"><ele>146.0</ele><time>2026-04-26T09:36:43.881Z</time></trkpt><trkpt lat="53.674798" lon="-1.9421553"><ele>146.0</ele><time>2026-04-26T09:36:44.88Z</time></trkpt><trkpt lat="53.6747584" lon="-1.9422957"><ele>148.4</ele><time>2026-04-26T09:36:45.879Z</time></trkpt><trkpt lat="53.6746981" lon="-1.942435"><ele>150.8</ele><time>2026-04-26T09:36:46.88Z</time></trkpt><trkpt lat="53.6746273" lon="-1.9425681"><ele>153.20000000000002</ele><time>2026-04-26T09:36:47.879Z</time></trkpt><trkpt lat="53.6745669" lon="-1.9426994"><ele>155.6</ele><time>2026-04-26T09:36:48.878Z</time></trkpt><trkpt lat="53.6745194" lon="-1.9428132"><ele>158.0</ele><time>2026-04-26T09:36:49.88Z</time></trkpt><trkpt lat="53.674468" lon="-1.9429508"><ele>157.6</ele><time>2026-04-26T09:36:51.879Z</time></trkpt><trkpt lat="53.6744243" lon="-1.943063"><ele>157.20000000000002</ele><time>2026-04-26T09:36:54.876Z</time></trkpt><trkpt lat="53.6743437" lon="-1.9431432"><ele>156.8</ele><time>2026-04-26T09:36:56.88Z</time></trkpt><trkpt lat="53.6742824" lon="-1.9432355"><ele>156.4</ele><time>2026-04-26T09:36:58.882Z</time></trkpt><trkpt lat="53.6743539" lon="-1.9431655"><ele>156.0</ele><time>2026-04-26T09:37:04.878Z</time></trkpt><trkpt lat="53.6744492" lon="-1.9430324"><ele>156.4</ele><time>2026-04-26T09:37:06.878Z</time></trkpt><trkpt lat="53.6745041" lon="-1.9429529"><ele>156.8</ele><time>2026-04-26T09:37:07.878Z</time></trkpt><trkpt lat="53.6745774" lon="-1.9428597"><ele>157.20000000000002</ele><time>2026-04-26T09:37:08.877Z</time></trkpt><trkpt lat="53.674663" lon="-1.9427602"><ele>157.6</ele><time>2026-04-26T09:37:09.882Z</time></trkpt><trkpt lat="53.6747552" lon="-1.9426464"><ele>158.0</ele><time>2026-04-26T09:37:10.879Z</time></trkpt><trkpt lat="53.6748479" lon="-1.9425223"><ele>158.0</ele><time>2026-04-26T09:37:11.879Z</time></trkpt><trkpt lat="53.6749468" lon="-1.9424083"><ele>158.0</ele><time>2026-04-26T09:37:12.882Z</time></trkpt><trkpt lat="53.6750474" lon="-1.9423058"><ele>158.0</ele><time>2026-04-26T09:37:13.883Z</time></trkpt><trkpt lat="53.6751479" lon="-1.9422207"><ele>158.0</ele><time>2026-04-26T09:37:14.88Z</time></trkpt><trkpt lat="53.675243" lon="-1.9421485"><ele>159.2</ele><time>2026-04-26T09:37:15.879Z</time></trkpt><trkpt lat="53.6753358" lon="-1.9420997"><ele>160.4</ele><time>2026-04-26T09:37:16.883Z</time></trkpt><trkpt lat="53.6754265" lon="-1.9420782"><ele>161.6</ele><time>2026-04-26T09:37:17.884Z</time></trkpt><trkpt lat="53.6755143" lon="-1.9421"><ele>162.79999999999998</ele><time>2026-04-26T09:37:18.885Z</time></trkpt><trkpt lat="53.6755939" lon="-1.9421699"><ele>164.0</ele><time>2026-04-26T09:37:19.874Z</time></trkpt><trkpt lat="53.6756603" lon="-1.9422784"><ele>164.0</ele><time>2026-04-26T09:37:20.884Z</time></trkpt><trkpt lat="53.67571" lon="-1.9423891"><ele>164.0</ele><time>2026-04-26T09:37:21.883Z</time></trkpt><trkpt lat="53.6757515" lon="-1.9425297"><ele>164.0</ele><time>2026-04-26T09:37:23.887Z</time></trkpt><trkpt lat="53.6757772" lon="-1.9426535"><ele>164.0</ele><time>2026-04-26T09:38:52.884Z</time></trkpt><trkpt lat="53.6758315" lon="-1.9427821"><ele>164.0</ele><time>2026-04-26T09:38:55.885Z</time></trkpt><trkpt lat="53.675906" lon="-1.9429371"><ele>165.5</ele><time>2026-04-26T09:38:57.884Z</time></trkpt><trkpt lat="53.6759546" lon="-1.943032"><ele>167.0</ele><time>2026-04-26T09:38:58.886Z</time></trkpt><trkpt lat="53.6759978" lon="-1.9431376"><ele>168.5</ele><time>2026-04-26T09:38:59.884Z</time></trkpt><trkpt lat="53.6760265" lon="-1.9432553"><ele>170.0</ele><time>2026-04-26T09:39:00.884Z</time></trkpt><trkpt lat="53.6760499" lon="-1.9433845"><ele>171.5</ele><time>2026-04-26T09:39:01.888Z</time></trkpt><trkpt lat="53.6760765" lon="-1.9435309"><ele>173.0</ele><time>2026-04-26T09:39:02.888Z</time></trkpt><trkpt lat="53.6761084" lon="-1.943702"><ele>175.4</ele><time>2026-04-26T09:39:03.883Z</time></trkpt><trkpt lat="53.6761451" lon="-1.9438839"><ele>177.8</ele><time>2026-04-26T09:39:04.891Z</time></trkpt><trkpt lat="53.6761748" lon="-1.9440461"><ele>180.2</ele><time>2026-04-26T09:39:05.891Z</time></trkpt><trkpt lat="53.676188" lon="-1.9441861"><ele>182.6</ele><time>2026-04-26T09:39:06.891Z</time></trkpt><trkpt lat="53.6761851" lon="-1.9443267"><ele>185.0</ele><time>2026-04-26T09:39:07.888Z</time></trkpt><trkpt lat="53.6761762" lon="-1.9444781"><ele>186.0</ele><time>2026-04-26T09:39:08.89Z</time></trkpt><trkpt lat="53.6761765" lon="-1.9446396"><ele>187.0</ele><time>2026-04-26T09:39:09.893Z</time></trkpt><trkpt lat="53.6761955" lon="-1.9448116"><ele>188.0</ele><time>2026-04-26T09:39:10.892Z</time></trkpt><trkpt lat="53.6762334" lon="-1.9450001"><ele>189.0</ele><time>2026-04-26T09:39:11.889Z</time></trkpt><trkpt lat="53.6762796" lon="-1.9451983"><ele>190.0</ele><time>2026-04-26T09:39:12.888Z</time></trkpt><trkpt lat="53.6763276" lon="-1.9454017"><ele>191.25</ele><time>2026-04-26T09:39:13.89Z</time></trkpt><trkpt lat="53.6763797" lon="-1.9456103"><ele>192.5</ele><time>2026-04-26T09:39:14.889Z</time></trkpt><trkpt lat="53.6764319" lon="-1.9458177"><ele>193.75</ele><time>2026-04-26T09:39:15.888Z</time></trkpt><trkpt lat="53.6764786" lon="-1.9460203"><ele>195.0</ele><time>2026-04-26T09:39:16.889Z</time></trkpt><trkpt lat="53.67652" lon="-1.9462276"><ele>197.0</ele><time>2026-04-26T09:39:17.887Z</time></trkpt><trkpt lat="53.67656" lon="-1.9464393"><ele>199.0</ele><time>2026-04-26T09:39:18.887Z</time></trkpt><trkpt lat="53.6765969" lon="-1.9466475"><ele>201.0</ele><time>2026-04-26T09:39:19.888Z</time></trkpt><trkpt lat="53.6766278" lon="-1.9468541"><ele>203.0</ele><time>2026-04-26T09:39:20.885Z</time></trkpt><trkpt lat="53.676653" lon="-1.9470603"><ele>205.5</ele><time>2026-04-26T09:39:21.885Z</time></trkpt><trkpt lat="53.6766704" lon="-1.947273"><ele>208.0</ele><time>2026-04-26T09:39:22.886Z</time></trkpt><trkpt lat="53.6766826" lon="-1.9474905"><ele>210.5</ele><time>2026-04-26T09:39:23.888Z</time></trkpt><trkpt lat="53.6766923" lon="-1.9477079"><ele>213.0</ele><time>2026-04-26T09:39:24.886Z</time></trkpt><trkpt lat="53.6767028" lon="-1.9479269"><ele>215.0</ele><time>2026-04-26T09:39:25.886Z</time></trkpt><trkpt lat="53.676707" lon="-1.9481442"><ele>217.0</ele><time>2026-04-26T09:39:26.887Z</time></trkpt><trkpt lat="53.6767076" lon="-1.9483568"><ele>219.0</ele><time>2026-04-26T09:39:27.886Z</time></trkpt><trkpt lat="53.6767046" lon="-1.9485663"><ele>221.0</ele><time>2026-04-26T09:39:28.882Z</time></trkpt><trkpt lat="53.6766847" lon="-1.9487715"><ele>222.75</ele><time>2026-04-26T09:39:29.886Z</time></trkpt><trkpt lat="53.6766411" lon="-1.9489651"><ele>224.5</ele><time>2026-04-26T09:39:30.884Z</time></trkpt><trkpt lat="53.6765818" lon="-1.9491522"><ele>226.25</ele><time>2026-04-26T09:39:31.899Z</time></trkpt><trkpt lat="53.6765175" lon="-1.9493439"><ele>228.0</ele><time>2026-04-26T09:39:32.887Z</time></trkpt><trkpt lat="53.6764563" lon="-1.9495368"><ele>229.5</ele><time>2026-04-26T09:39:33.893Z</time></trkpt><trkpt lat="53.676396" lon="-1.9497299"><ele>231.0</ele><time>2026-04-26T09:39:34.887Z</time></trkpt><trkpt lat="53.676335" lon="-1.9499108"><ele>232.5</ele><time>2026-04-26T09:39:35.888Z</time></trkpt><trkpt lat="53.6762634" lon="-1.9500714"><ele>234.0</ele><time>2026-04-26T09:39:36.889Z</time></trkpt><trkpt lat="53.6761712" lon="-1.9502075"><ele>235.2</ele><time>2026-04-26T09:39:37.889Z</time></trkpt><trkpt lat="53.6760681" lon="-1.9503295"><ele>236.39999999999998</ele><time>2026-04-26T09:39:38.89Z</time></trkpt><trkpt lat="53.6759723" lon="-1.950454"><ele>237.6</ele><time>2026-04-26T09:39:39.876Z</time></trkpt><trkpt lat="53.6758937" lon="-1.9505717"><ele>238.8</ele><time>2026-04-26T09:39:40.885Z</time></trkpt><trkpt lat="53.6758372" lon="-1.95067"><ele>240.0</ele><time>2026-04-26T09:39:41.887Z</time></trkpt><trkpt lat="53.675797" lon="-1.9507537"><ele>240.4</ele><time>2026-04-26T09:39:42.888Z</time></trkpt><trkpt lat="53.6757685" lon="-1.950881"><ele>240.8</ele><time>2026-04-26T09:39:44.888Z</time></trkpt><trkpt lat="53.6758386" lon="-1.9509875"><ele>241.2</ele><time>2026-04-26T09:39:46.887Z</time></trkpt><trkpt lat="53.6759167" lon="-1.9510171"><ele>241.6</ele><time>2026-04-26T09:39:47.888Z</time></trkpt><trkpt lat="53.6760141" lon="-1.9510334"><ele>242.0</ele><time>2026-04-26T09:39:48.887Z</time></trkpt><trkpt lat="53.67612" lon="-1.9510608"><ele>242.0</ele><time>2026-04-26T09:39:49.89Z</time></trkpt><trkpt lat="53.6762332" lon="-1.951115"><ele>242.0</ele><time>2026-04-26T09:39:50.886Z</time></trkpt><trkpt lat="53.6763484" lon="-1.9511916"><ele>242.0</ele><time>2026-04-26T09:39:51.893Z</time></trkpt><trkpt lat="53.6764675" lon="-1.9512845"><ele>242.0</ele><time>2026-04-26T09:39:52.891Z</time></trkpt><trkpt lat="53.6765922" lon="-1.9513849"><ele>242.0</ele><time>2026-04-26T09:39:53.891Z</time></trkpt><trkpt lat="53.6767184" lon="-1.9514842"><ele>242.0</ele><time>2026-04-26T09:39:54.888Z</time></trkpt><trkpt lat="53.6768483" lon="-1.9515813"><ele>242.0</ele><time>2026-04-26T09:39:55.887Z</time></trkpt><trkpt lat="53.6769745" lon="-1.9516706"><ele>242.0</ele><time>2026-04-26T09:39:56.885Z</time></trkpt><trkpt lat="53.6771009" lon="-1.9517553"><ele>243.5</ele><time>2026-04-26T09:39:57.886Z</time></trkpt><trkpt lat="53.6772235" lon="-1.9518399"><ele>245.0</ele><time>2026-04-26T09:39:58.886Z</time></trkpt><trkpt lat="53.6773432" lon="-1.9519304"><ele>246.5</ele><time>2026-04-26T09:39:59.886Z</time></trkpt><trkpt lat="53.6774506" lon="-1.9520437"><ele>248.0</ele><time>2026-04-26T09:40:00.886Z</time></trkpt><trkpt lat="53.6775425" lon="-1.9521822"><ele>248.0</ele><time>2026-04-26T09:40:01.89Z</time></trkpt><trkpt lat="53.6776296" lon="-1.9523263"><ele>248.0</ele><time>2026-04-26T09:40:02.89Z</time></trkpt><trkpt lat="53.6777174" lon="-1.9524778"><ele>248.0</ele><time>2026-04-26T09:40:03.889Z</time></trkpt><trkpt lat="53.6778013" lon="-1.9526459"><ele>248.0</ele><time>2026-04-26T09:40:04.885Z</time></trkpt><trkpt lat="53.677877" lon="-1.9528282"><ele>248.25</ele><time>2026-04-26T09:40:05.887Z</time></trkpt><trkpt lat="53.6779351" lon="-1.9530074"><ele>248.5</ele><time>2026-04-26T09:40:06.885Z</time></trkpt><trkpt lat="53.6779714" lon="-1.9531872"><ele>248.75</ele><time>2026-04-26T09:40:07.886Z</time></trkpt><trkpt lat="53.6779835" lon="-1.9533857"><ele>249.0</ele><time>2026-04-26T09:40:08.886Z</time></trkpt><trkpt lat="53.6779861" lon="-1.9535985"><ele>249.0</ele><time>2026-04-26T09:40:09.889Z</time></trkpt><trkpt lat="53.6779888" lon="-1.9538156"><ele>249.0</ele><time>2026-04-26T09:40:10.887Z</time></trkpt><trkpt lat="53.6779935" lon="-1.9540393"><ele>249.0</ele><time>2026-04-26T09:40:11.884Z</time></trkpt><trkpt lat="53.6779959" lon="-1.9542667"><ele>249.0</ele><time>2026-04-26T09:40:12.885Z</time></trkpt><trkpt lat="53.6779979" lon="-1.9544969"><ele>249.0</ele><time>2026-04-26T09:40:13.893Z</time></trkpt><trkpt lat="53.6780032" lon="-1.9547286"><ele>249.0</ele><time>2026-04-26T09:40:14.889Z</time></trkpt><trkpt lat="53.6780079" lon="-1.9549626"><ele>249.0</ele><time>2026-04-26T09:40:15.887Z</time></trkpt><trkpt lat="53.6780119" lon="-1.955195"><ele>249.0</ele><time>2026-04-26T09:40:16.887Z</time></trkpt><trkpt lat="53.6780181" lon="-1.955427"><ele>248.75</ele><time>2026-04-26T09:40:17.886Z</time></trkpt><trkpt lat="53.6780247" lon="-1.9556621"><ele>248.5</ele><time>2026-04-26T09:40:18.889Z</time></trkpt><trkpt lat="53.678031" lon="-1.9558966"><ele>248.25</ele><time>2026-04-26T09:40:19.889Z</time></trkpt><trkpt lat="53.6780373" lon="-1.9561335"><ele>248.0</ele><time>2026-04-26T09:40:20.887Z</time></trkpt><trkpt lat="53.6780483" lon="-1.9563668"><ele>247.75</ele><time>2026-04-26T09:40:21.89Z</time></trkpt><trkpt lat="53.6780621" lon="-1.9565935"><ele>247.5</ele><time>2026-04-26T09:40:22.888Z</time></trkpt><trkpt lat="53.678074" lon="-1.9568094"><ele>247.25</ele><time>2026-04-26T09:40:23.889Z</time></trkpt><trkpt lat="53.678083" lon="-1.9570072"><ele>247.0</ele><time>2026-04-26T09:40:24.888Z</time></trkpt><trkpt lat="53.678092" lon="-1.9571887"><ele>246.6</ele><time>2026-04-26T09:40:25.888Z</time></trkpt><trkpt lat="53.678099" lon="-1.9573612"><ele>246.2</ele><time>2026-04-26T09:40:26.888Z</time></trkpt><trkpt lat="53.6781025" lon="-1.9575365"><ele>245.8</ele><time>2026-04-26T09:40:27.886Z</time></trkpt><trkpt lat="53.6781055" lon="-1.9577166"><ele>245.4</ele><time>2026-04-26T09:40:28.886Z</time></trkpt><trkpt lat="53.6780954" lon="-1.9579007"><ele>245.0</ele><time>2026-04-26T09:40:29.888Z</time></trkpt><trkpt lat="53.6780718" lon="-1.9580894"><ele>244.25</ele><time>2026-04-26T09:40:30.887Z</time></trkpt><trkpt lat="53.6780461" lon="-1.9582831"><ele>243.5</ele><time>2026-04-26T09:40:31.888Z</time></trkpt><trkpt lat="53.6780277" lon="-1.9584836"><ele>242.75</ele><time>2026-04-26T09:40:32.88Z</time></trkpt><trkpt lat="53.6780235" lon="-1.9586904"><ele>242.0</ele><time>2026-04-26T09:40:33.893Z</time></trkpt><trkpt lat="53.6780267" lon="-1.9588991"><ele>241.5</ele><time>2026-04-26T09:40:34.89Z</time></trkpt><trkpt lat="53.6780232" lon="-1.9591031"><ele>241.0</ele><time>2026-04-26T09:40:35.889Z</time></trkpt><trkpt lat="53.6780082" lon="-1.9593046"><ele>240.5</ele><time>2026-04-26T09:40:36.89Z</time></trkpt><trkpt lat="53.6779811" lon="-1.9595084"><ele>240.0</ele><time>2026-04-26T09:40:37.888Z</time></trkpt><trkpt lat="53.6779564" lon="-1.959709"><ele>239.75</ele><time>2026-04-26T09:40:38.88Z</time></trkpt><trkpt lat="53.6779414" lon="-1.9599147"><ele>239.5</ele><time>2026-04-26T09:40:39.888Z</time></trkpt><trkpt lat="53.6779403" lon="-1.9601198"><ele>239.25</ele><time>2026-04-26T09:40:40.889Z</time></trkpt><trkpt lat="53.6779565" lon="-1.9603227"><ele>239.0</ele><time>2026-04-26T09:40:41.877Z</time></trkpt><trkpt lat="53.6779905" lon="-1.9605305"><ele>238.75</ele><time>2026-04-26T09:40:42.885Z</time></trkpt><trkpt lat="53.6780264" lon="-1.9607413"><ele>238.5</ele><time>2026-04-26T09:40:43.89Z</time></trkpt><trkpt lat="53.6780629" lon="-1.960957"><ele>238.25</ele><time>2026-04-26T09:40:44.886Z</time></trkpt><trkpt lat="53.6780971" lon="-1.9611762"><ele>238.0</ele><time>2026-04-26T09:40:45.888Z</time></trkpt><trkpt lat="53.6781353" lon="-1.9613912"><ele>237.5</ele><time>2026-04-26T09:40:46.885Z</time></trkpt><trkpt lat="53.678172" lon="-1.9615971"><ele>237.0</ele><time>2026-04-26T09:40:47.887Z</time></trkpt><trkpt lat="53.6782043" lon="-1.9617901"><ele>236.5</ele><time>2026-04-26T09:40:48.889Z</time></trkpt><trkpt lat="53.6782341" lon="-1.9619702"><ele>236.0</ele><time>2026-04-26T09:40:49.887Z</time></trkpt><trkpt lat="53.6782646" lon="-1.9621389"><ele>235.8</ele><time>2026-04-26T09:40:50.886Z</time></trkpt><trkpt lat="53.6783" lon="-1.962291"><ele>235.60000000000002</ele><time>2026-04-26T09:40:51.888Z</time></trkpt><trkpt lat="53.67834" lon="-1.9624327"><ele>235.4</ele><time>2026-04-26T09:40:52.888Z</time></trkpt><trkpt lat="53.6783855" lon="-1.9625775"><ele>235.2</ele><time>2026-04-26T09:40:53.889Z</time></trkpt><trkpt lat="53.6784345" lon="-1.9627318"><ele>235.0</ele><time>2026-04-26T09:40:54.888Z</time></trkpt><trkpt lat="53.6784866" lon="-1.9628935"><ele>234.4</ele><time>2026-04-26T09:40:55.886Z</time></trkpt><trkpt lat="53.6785442" lon="-1.9630489"><ele>233.8</ele><time>2026-04-26T09:40:56.888Z</time></trkpt><trkpt lat="53.6786059" lon="-1.9631935"><ele>233.2</ele><time>2026-04-26T09:40:57.888Z</time></trkpt><trkpt lat="53.6786749" lon="-1.9633273"><ele>232.6</ele><time>2026-04-26T09:40:58.887Z</time></trkpt><trkpt lat="53.6787538" lon="-1.9634458"><ele>232.0</ele><time>2026-04-26T09:40:59.884Z</time></trkpt><trkpt lat="53.6788425" lon="-1.9635509"><ele>228.75</ele><time>2026-04-26T09:41:00.886Z</time></trkpt><trkpt lat="53.6789407" lon="-1.9636501"><ele>225.5</ele><time>2026-04-26T09:41:01.891Z</time></trkpt><trkpt lat="53.679047" lon="-1.9637513"><ele>222.25</ele><time>2026-04-26T09:41:02.89Z</time></trkpt><trkpt lat="53.6791557" lon="-1.9638671"><ele>219.0</ele><time>2026-04-26T09:41:03.888Z</time></trkpt><trkpt lat="53.6792535" lon="-1.9639955"><ele>219.0</ele><time>2026-04-26T09:41:04.886Z</time></trkpt><trkpt lat="53.6793406" lon="-1.964138"><ele>218.99999999999997</ele><time>2026-04-26T09:41:05.879Z</time></trkpt><trkpt lat="53.6794159" lon="-1.9642829"><ele>218.99999999999997</ele><time>2026-04-26T09:41:06.888Z</time></trkpt><trkpt lat="53.6794778" lon="-1.9644281"><ele>219.0</ele><time>2026-04-26T09:41:07.89Z</time></trkpt><trkpt lat="53.6795244" lon="-1.9645718"><ele>219.0</ele><time>2026-04-26T09:41:08.889Z</time></trkpt><trkpt lat="53.6795677" lon="-1.9646998"><ele>218.39999999999998</ele><time>2026-04-26T09:41:09.887Z</time></trkpt><trkpt lat="53.6796204" lon="-1.9647906"><ele>217.79999999999998</ele><time>2026-04-26T09:41:10.881Z</time></trkpt><trkpt lat="53.679697" lon="-1.9648345"><ele>217.20000000000002</ele><time>2026-04-26T09:41:11.885Z</time></trkpt><trkpt lat="53.6797913" lon="-1.9648429"><ele>216.60000000000002</ele><time>2026-04-26T09:41:12.886Z</time></trkpt><trkpt lat="53.6798903" lon="-1.964846"><ele>216.0</ele><time>2026-04-26T09:41:13.891Z</time></trkpt><trkpt lat="53.6799901" lon="-1.9648551"><ele>216.0</ele><time>2026-04-26T09:41:14.888Z</time></trkpt><trkpt lat="53.6800901" lon="-1.9648849"><ele>216.00000000000003</ele><time>2026-04-26T09:41:15.892Z</time></trkpt><trkpt lat="53.6801805" lon="-1.9649514"><ele>216.00000000000003</ele><time>2026-04-26T09:41:16.887Z</time></trkpt><trkpt lat="53.680265" lon="-1.9650533"><ele>216.0</ele><time>2026-04-26T09:41:17.887Z</time></trkpt><trkpt lat="53.6803421" lon="-1.9651715"><ele>216.0</ele><time>2026-04-26T09:41:18.887Z</time></trkpt><trkpt lat="53.6804235" lon="-1.9652812"><ele>218.4</ele><time>2026-04-26T09:41:19.887Z</time></trkpt><trkpt lat="53.6805191" lon="-1.9653616"><ele>220.8</ele><time>2026-04-26T09:41:20.888Z</time></trkpt><trkpt lat="53.6806257" lon="-1.9654134"><ele>223.20000000000002</ele><time>2026-04-26T09:41:21.886Z</time></trkpt><trkpt lat="53.6807323" lon="-1.9654474"><ele>225.60000000000002</ele><time>2026-04-26T09:41:22.885Z</time></trkpt><trkpt lat="53.68084" lon="-1.9654721"><ele>228.0</ele><time>2026-04-26T09:41:23.893Z</time></trkpt><trkpt lat="53.68095" lon="-1.9654902"><ele>228.0</ele><time>2026-04-26T09:41:24.885Z</time></trkpt><trkpt lat="53.6810621" lon="-1.9655043"><ele>228.0</ele><time>2026-04-26T09:41:25.886Z</time></trkpt><trkpt lat="53.6811766" lon="-1.9655163"><ele>228.0</ele><time>2026-04-26T09:41:26.886Z</time></trkpt><trkpt lat="53.6812929" lon="-1.9655197"><ele>228.0</ele><time>2026-04-26T09:41:27.885Z</time></trkpt><trkpt lat="53.6814048" lon="-1.9655158"><ele>229.8</ele><time>2026-04-26T09:41:28.886Z</time></trkpt><trkpt lat="53.6815031" lon="-1.9655018"><ele>231.60000000000002</ele><time>2026-04-26T09:41:29.885Z</time></trkpt><trkpt lat="53.6815927" lon="-1.9654595"><ele>233.39999999999998</ele><time>2026-04-26T09:41:30.886Z</time></trkpt><trkpt lat="53.681681" lon="-1.9653916"><ele>235.2</ele><time>2026-04-26T09:41:31.886Z</time></trkpt><trkpt lat="53.6817625" lon="-1.9652969"><ele>237.0</ele><time>2026-04-26T09:41:32.881Z</time></trkpt><trkpt lat="53.6818497" lon="-1.9652088"><ele>237.5</ele><time>2026-04-26T09:41:33.894Z</time></trkpt><trkpt lat="53.6819446" lon="-1.965125"><ele>238.0</ele><time>2026-04-26T09:41:34.888Z</time></trkpt><trkpt lat="53.6820471" lon="-1.9650426"><ele>238.5</ele><time>2026-04-26T09:41:35.888Z</time></trkpt><trkpt lat="53.6821525" lon="-1.9649585"><ele>239.0</ele><time>2026-04-26T09:41:36.887Z</time></trkpt><trkpt lat="53.6822622" lon="-1.9648738"><ele>239.0</ele><time>2026-04-26T09:41:37.888Z</time></trkpt><trkpt lat="53.6823735" lon="-1.9647839"><ele>239.0</ele><time>2026-04-26T09:41:38.887Z</time></trkpt><trkpt lat="53.6824872" lon="-1.9646898"><ele>239.0</ele><time>2026-04-26T09:41:39.886Z</time></trkpt><trkpt lat="53.6825982" lon="-1.9645989"><ele>239.0</ele><time>2026-04-26T09:41:40.892Z</time></trkpt><trkpt lat="53.6826994" lon="-1.9645209"><ele>238.79999999999998</ele><time>2026-04-26T09:41:41.888Z</time></trkpt><trkpt lat="53.6827839" lon="-1.964463"><ele>238.59999999999997</ele><time>2026-04-26T09:41:42.888Z</time></trkpt><trkpt lat="53.6828532" lon="-1.9644194"><ele>238.4</ele><time>2026-04-26T09:41:43.894Z</time></trkpt><trkpt lat="53.6829123" lon="-1.9643748"><ele>238.2</ele><time>2026-04-26T09:41:44.89Z</time></trkpt><trkpt lat="53.6830005" lon="-1.9642549"><ele>238.0</ele><time>2026-04-26T09:41:46.89Z</time></trkpt><trkpt lat="53.6830744" lon="-1.964113"><ele>237.99999999999997</ele><time>2026-04-26T09:41:48.885Z</time></trkpt><trkpt lat="53.6831175" lon="-1.9640268"><ele>238.0</ele><time>2026-04-26T09:41:49.885Z</time></trkpt><trkpt lat="53.683166" lon="-1.9639269"><ele>238.0</ele><time>2026-04-26T09:41:50.887Z</time></trkpt><trkpt lat="53.6832226" lon="-1.9638156"><ele>238.0</ele><time>2026-04-26T09:41:51.885Z</time></trkpt><trkpt lat="53.6832808" lon="-1.9636945"><ele>237.99999999999997</ele><time>2026-04-26T09:41:52.885Z</time></trkpt><trkpt lat="53.6833453" lon="-1.9635697"><ele>238.0</ele><time>2026-04-26T09:41:53.89Z</time></trkpt><trkpt lat="53.6834155" lon="-1.9634404"><ele>238.2</ele><time>2026-04-26T09:41:54.887Z</time></trkpt><trkpt lat="53.6834928" lon="-1.9633121"><ele>238.4</ele><time>2026-04-26T09:41:55.886Z</time></trkpt><trkpt lat="53.6835733" lon="-1.9631892"><ele>238.59999999999997</ele><time>2026-04-26T09:41:56.886Z</time></trkpt><trkpt lat="53.6836543" lon="-1.9630712"><ele>238.79999999999998</ele><time>2026-04-26T09:41:57.888Z</time></trkpt><trkpt lat="53.6837389" lon="-1.962956"><ele>239.0</ele><time>2026-04-26T09:41:58.888Z</time></trkpt><trkpt lat="53.6838281" lon="-1.9628472"><ele>239.0</ele><time>2026-04-26T09:41:59.886Z</time></trkpt><trkpt lat="53.6839262" lon="-1.9627437"><ele>239.0</ele><time>2026-04-26T09:42:00.886Z</time></trkpt><trkpt lat="53.6840295" lon="-1.9626449"><ele>239.0</ele><time>2026-04-26T09:42:01.888Z</time></trkpt><trkpt lat="53.6841348" lon="-1.962548"><ele>239.0</ele><time>2026-04-26T09:42:02.891Z</time></trkpt><trkpt lat="53.684244" lon="-1.9624579"><ele>239.0</ele><time>2026-04-26T09:42:03.892Z</time></trkpt><trkpt lat="53.6843574" lon="-1.9623786"><ele>239.0</ele><time>2026-04-26T09:42:04.888Z</time></trkpt><trkpt lat="53.6844731" lon="-1.9623212"><ele>239.0</ele><time>2026-04-26T09:42:05.886Z</time></trkpt><trkpt lat="53.6845897" lon="-1.9622764"><ele>239.0</ele><time>2026-04-26T09:42:06.887Z</time></trkpt><trkpt lat="53.6847044" lon="-1.9622291"><ele>239.0</ele><time>2026-04-26T09:42:07.887Z</time></trkpt><trkpt lat="53.6848194" lon="-1.9621849"><ele>239.0</ele><time>2026-04-26T09:42:08.888Z</time></trkpt><trkpt lat="53.6849364" lon="-1.9621549"><ele>239.0</ele><time>2026-04-26T09:42:09.884Z</time></trkpt><trkpt lat="53.6850572" lon="-1.962143"><ele>239.0</ele><time>2026-04-26T09:42:10.886Z</time></trkpt><trkpt lat="53.685182" lon="-1.9621469"><ele>239.25</ele><time>2026-04-26T09:42:11.886Z</time></trkpt><trkpt lat="53.6853043" lon="-1.9621587"><ele>239.5</ele><time>2026-04-26T09:42:12.886Z</time></trkpt><trkpt lat="53.6854232" lon="-1.9621698"><ele>239.75</ele><time>2026-04-26T09:42:13.892Z</time></trkpt><trkpt lat="53.6855379" lon="-1.9621812"><ele>240.0</ele><time>2026-04-26T09:42:14.887Z</time></trkpt><trkpt lat="53.6856521" lon="-1.9621951"><ele>240.0</ele><time>2026-04-26T09:42:15.881Z</time></trkpt><trkpt lat="53.6857687" lon="-1.9622095"><ele>240.0</ele><time>2026-04-26T09:42:16.886Z</time></trkpt><trkpt lat="53.6858837" lon="-1.9622185"><ele>240.0</ele><time>2026-04-26T09:42:17.886Z</time></trkpt><trkpt lat="53.6860049" lon="-1.9622247"><ele>240.0</ele><time>2026-04-26T09:42:18.887Z</time></trkpt><trkpt lat="53.6861318" lon="-1.9622311"><ele>240.0</ele><time>2026-04-26T09:42:19.886Z</time></trkpt><trkpt lat="53.6862648" lon="-1.9622466"><ele>240.0</ele><time>2026-04-26T09:42:20.881Z</time></trkpt><trkpt lat="53.6863981" lon="-1.9622692"><ele>240.0</ele><time>2026-04-26T09:42:21.887Z</time></trkpt><trkpt lat="53.6865302" lon="-1.9622968"><ele>240.0</ele><time>2026-04-26T09:42:22.886Z</time></trkpt><trkpt lat="53.6866617" lon="-1.9623217"><ele>240.0</ele><time>2026-04-26T09:42:23.893Z</time></trkpt><trkpt lat="53.6867955" lon="-1.9623412"><ele>240.0</ele><time>2026-04-26T09:42:24.888Z</time></trkpt><trkpt lat="53.6869314" lon="-1.9623564"><ele>240.0</ele><time>2026-04-26T09:42:25.885Z</time></trkpt><trkpt lat="53.6870668" lon="-1.962367"><ele>240.0</ele><time>2026-04-26T09:42:26.887Z</time></trkpt><trkpt lat="53.6872019" lon="-1.9623756"><ele>240.0</ele><time>2026-04-26T09:42:27.887Z</time></trkpt><trkpt lat="53.6873335" lon="-1.9623882"><ele>240.0</ele><time>2026-04-26T09:42:28.888Z</time></trkpt><trkpt lat="53.6874614" lon="-1.9624104"><ele>240.0</ele><time>2026-04-26T09:42:29.886Z</time></trkpt><trkpt lat="53.687584" lon="-1.9624344"><ele>240.0</ele><time>2026-04-26T09:42:30.89Z</time></trkpt><trkpt lat="53.6876949" lon="-1.9624587"><ele>240.0</ele><time>2026-04-26T09:42:31.891Z</time></trkpt><trkpt lat="53.6877958" lon="-1.9624861"><ele>240.0</ele><time>2026-04-26T09:42:32.893Z</time></trkpt><trkpt lat="53.687894" lon="-1.9624948"><ele>240.0</ele><time>2026-04-26T09:42:33.893Z</time></trkpt><trkpt lat="53.6879846" lon="-1.962479"><ele>240.0</ele><time>2026-04-26T09:42:34.887Z</time></trkpt><trkpt lat="53.6880691" lon="-1.9624537"><ele>240.0</ele><time>2026-04-26T09:42:35.887Z</time></trkpt><trkpt lat="53.6881493" lon="-1.9624287"><ele>240.0</ele><time>2026-04-26T09:42:36.886Z</time></trkpt><trkpt lat="53.6882146" lon="-1.962406"><ele>240.0</ele><time>2026-04-26T09:42:37.887Z</time></trkpt><trkpt lat="53.6882818" lon="-1.9623822"><ele>240.0</ele><time>2026-04-26T09:42:39.879Z</time></trkpt><trkpt lat="53.6883573" lon="-1.9623475"><ele>240.0</ele><time>2026-04-26T09:43:44.885Z</time></trkpt><trkpt lat="53.6884166" lon="-1.9623048"><ele>240.0</ele><time>2026-04-26T09:43:45.886Z</time></trkpt><trkpt lat="53.6884836" lon="-1.9622556"><ele>240.0</ele><time>2026-04-26T09:43:46.886Z</time></trkpt><trkpt lat="53.6885623" lon="-1.9621927"><ele>240.0</ele><time>2026-04-26T09:43:47.885Z</time></trkpt><trkpt lat="53.6886466" lon="-1.9621024"><ele>240.25</ele><time>2026-04-26T09:43:48.888Z</time></trkpt><trkpt lat="53.688726" lon="-1.9619699"><ele>240.5</ele><time>2026-04-26T09:43:49.885Z</time></trkpt><trkpt lat="53.6887879" lon="-1.9618021"><ele>240.75</ele><time>2026-04-26T09:43:50.885Z</time></trkpt><trkpt lat="53.6888411" lon="-1.9616233"><ele>241.0</ele><time>2026-04-26T09:43:51.885Z</time></trkpt><trkpt lat="53.6888886" lon="-1.9614381"><ele>239.60000000000002</ele><time>2026-04-26T09:43:52.889Z</time></trkpt><trkpt lat="53.6889322" lon="-1.9612589"><ele>238.20000000000002</ele><time>2026-04-26T09:43:53.892Z</time></trkpt><trkpt lat="53.6889848" lon="-1.9610785"><ele>236.79999999999998</ele><time>2026-04-26T09:43:54.888Z</time></trkpt><trkpt lat="53.689034" lon="-1.9609141"><ele>235.39999999999998</ele><time>2026-04-26T09:43:55.888Z</time></trkpt><trkpt lat="53.6890812" lon="-1.9607608"><ele>234.0</ele><time>2026-04-26T09:43:56.886Z</time></trkpt><trkpt lat="53.6891262" lon="-1.9606128"><ele>232.6</ele><time>2026-04-26T09:43:57.884Z</time></trkpt><trkpt lat="53.6891697" lon="-1.9604716"><ele>231.2</ele><time>2026-04-26T09:43:58.886Z</time></trkpt><trkpt lat="53.6892181" lon="-1.960338"><ele>229.79999999999998</ele><time>2026-04-26T09:43:59.884Z</time></trkpt><trkpt lat="53.6892748" lon="-1.9602088"><ele>228.39999999999998</ele><time>2026-04-26T09:44:00.884Z</time></trkpt><trkpt lat="53.6893413" lon="-1.9600836"><ele>227.0</ele><time>2026-04-26T09:44:01.888Z</time></trkpt><trkpt lat="53.6894174" lon="-1.9599607"><ele>225.39999999999998</ele><time>2026-04-26T09:44:02.887Z</time></trkpt><trkpt lat="53.6894963" lon="-1.9598451"><ele>223.79999999999998</ele><time>2026-04-26T09:44:03.884Z</time></trkpt><trkpt lat="53.6895763" lon="-1.9597338"><ele>222.2</ele><time>2026-04-26T09:44:04.889Z</time></trkpt><trkpt lat="53.6896585" lon="-1.9596328"><ele>220.6</ele><time>2026-04-26T09:44:05.887Z</time></trkpt><trkpt lat="53.6897429" lon="-1.9595577"><ele>219.0</ele><time>2026-04-26T09:44:06.887Z</time></trkpt><trkpt lat="53.6898298" lon="-1.9594979"><ele>219.0</ele><time>2026-04-26T09:44:07.888Z</time></trkpt><trkpt lat="53.6899176" lon="-1.9594515"><ele>218.99999999999997</ele><time>2026-04-26T09:44:08.891Z</time></trkpt><trkpt lat="53.6900065" lon="-1.9594199"><ele>218.99999999999997</ele><time>2026-04-26T09:44:09.889Z</time></trkpt><trkpt lat="53.6900998" lon="-1.9594035"><ele>219.0</ele><time>2026-04-26T09:44:10.894Z</time></trkpt><trkpt lat="53.6901997" lon="-1.9594028"><ele>219.0</ele><time>2026-04-26T09:44:11.884Z</time></trkpt><trkpt lat="53.6903094" lon="-1.9593945"><ele>219.25</ele><time>2026-04-26T09:44:12.887Z</time></trkpt><trkpt lat="53.6904281" lon="-1.9593706"><ele>219.5</ele><time>2026-04-26T09:44:13.882Z</time></trkpt><trkpt lat="53.6905535" lon="-1.959344"><ele>219.75</ele><time>2026-04-26T09:44:14.891Z</time></trkpt><trkpt lat="53.6906792" lon="-1.9593211"><ele>220.0</ele><time>2026-04-26T09:44:15.888Z</time></trkpt><trkpt lat="53.6907965" lon="-1.9592892"><ele>220.0</ele><time>2026-04-26T09:44:16.891Z</time></trkpt><trkpt lat="53.6909085" lon="-1.9592387"><ele>220.0</ele><time>2026-04-26T09:44:17.888Z</time></trkpt><trkpt lat="53.6910142" lon="-1.9591565"><ele>220.0</ele><time>2026-04-26T09:44:18.875Z</time></trkpt><trkpt lat="53.6911176" lon="-1.9590424"><ele>220.0</ele><time>2026-04-26T09:44:19.886Z</time></trkpt><trkpt lat="53.6912118" lon="-1.9589034"><ele>218.25</ele><time>2026-04-26T09:44:20.886Z</time></trkpt><trkpt lat="53.6912991" lon="-1.9587482"><ele>216.5</ele><time>2026-04-26T09:44:21.885Z</time></trkpt><trkpt lat="53.6913826" lon="-1.9585912"><ele>214.75</ele><time>2026-04-26T09:44:22.888Z</time></trkpt><trkpt lat="53.6914629" lon="-1.958432"><ele>213.0</ele><time>2026-04-26T09:44:23.889Z</time></trkpt><trkpt lat="53.6915348" lon="-1.9582624"><ele>213.0</ele><time>2026-04-26T09:44:24.888Z</time></trkpt><trkpt lat="53.691599" lon="-1.9580853"><ele>213.0</ele><time>2026-04-26T09:44:25.889Z</time></trkpt><trkpt lat="53.6916454" lon="-1.9578995"><ele>213.0</ele><time>2026-04-26T09:44:26.884Z</time></trkpt><trkpt lat="53.6916904" lon="-1.9577223"><ele>213.0</ele><time>2026-04-26T09:44:27.885Z</time></trkpt><trkpt lat="53.6917541" lon="-1.9575695"><ele>213.2</ele><time>2026-04-26T09:44:28.885Z</time></trkpt><trkpt lat="53.6918396" lon="-1.9574571"><ele>213.4</ele><time>2026-04-26T09:44:29.886Z</time></trkpt><trkpt lat="53.6919341" lon="-1.9573895"><ele>213.59999999999997</ele><time>2026-04-26T09:44:30.883Z</time></trkpt><trkpt lat="53.692035" lon="-1.9573688"><ele>213.79999999999998</ele><time>2026-04-26T09:44:31.887Z</time></trkpt><trkpt lat="53.6921387" lon="-1.957367"><ele>214.0</ele><time>2026-04-26T09:44:32.889Z</time></trkpt><trkpt lat="53.6922445" lon="-1.9573507"><ele>215.79999999999998</ele><time>2026-04-26T09:44:33.888Z</time></trkpt><trkpt lat="53.69235" lon="-1.957309"><ele>217.59999999999997</ele><time>2026-04-26T09:44:34.89Z</time></trkpt><trkpt lat="53.692447" lon="-1.9572428"><ele>219.4</ele><time>2026-04-26T09:44:35.888Z</time></trkpt><trkpt lat="53.6925276" lon="-1.9571401"><ele>221.2</ele><time>2026-04-26T09:44:36.889Z</time></trkpt><trkpt lat="53.6925983" lon="-1.9570049"><ele>223.0</ele><time>2026-04-26T09:44:37.888Z</time></trkpt><trkpt lat="53.6926728" lon="-1.9568793"><ele>224.4</ele><time>2026-04-26T09:44:38.888Z</time></trkpt><trkpt lat="53.6927733" lon="-1.9568002"><ele>225.8</ele><time>2026-04-26T09:44:39.889Z</time></trkpt><trkpt lat="53.6928763" lon="-1.9567566"><ele>227.2</ele><time>2026-04-26T09:44:40.889Z</time></trkpt><trkpt lat="53.6929814" lon="-1.9566861"><ele>228.6</ele><time>2026-04-26T09:44:41.884Z</time></trkpt><trkpt lat="53.6930818" lon="-1.9565937"><ele>230.0</ele><time>2026-04-26T09:44:42.889Z</time></trkpt><trkpt lat="53.6931766" lon="-1.9564724"><ele>230.0</ele><time>2026-04-26T09:44:43.891Z</time></trkpt><trkpt lat="53.6932603" lon="-1.9563354"><ele>230.0</ele><time>2026-04-26T09:44:44.885Z</time></trkpt><trkpt lat="53.6933221" lon="-1.9562064"><ele>230.0</ele><time>2026-04-26T09:44:45.879Z</time></trkpt><trkpt lat="53.6933595" lon="-1.9561054"><ele>230.0</ele><time>2026-04-26T09:44:46.887Z</time></trkpt><trkpt lat="53.6934068" lon="-1.9559698"><ele>230.0</ele><time>2026-04-26T09:44:48.886Z</time></trkpt><trkpt lat="53.6934649" lon="-1.9557802"><ele>231.0</ele><time>2026-04-26T09:44:50.885Z</time></trkpt><trkpt lat="53.6935143" lon="-1.9556685"><ele>232.0</ele><time>2026-04-26T09:44:51.879Z</time></trkpt><trkpt lat="53.6935769" lon="-1.9555506"><ele>233.0</ele><time>2026-04-26T09:44:52.886Z</time></trkpt><trkpt lat="53.6936481" lon="-1.9554261"><ele>234.0</ele><time>2026-04-26T09:44:53.879Z</time></trkpt><trkpt lat="53.6937248" lon="-1.9553036"><ele>235.0</ele><time>2026-04-26T09:44:54.885Z</time></trkpt><trkpt lat="53.6938019" lon="-1.9551813"><ele>236.25</ele><time>2026-04-26T09:44:55.884Z</time></trkpt><trkpt lat="53.6938757" lon="-1.9550525"><ele>237.5</ele><time>2026-04-26T09:44:56.886Z</time></trkpt><trkpt lat="53.6939515" lon="-1.9549125"><ele>238.75</ele><time>2026-04-26T09:44:57.884Z</time></trkpt><trkpt lat="53.6940261" lon="-1.9547628"><ele>240.0</ele><time>2026-04-26T09:44:58.887Z</time></trkpt><trkpt lat="53.6941049" lon="-1.9546107"><ele>240.5</ele><time>2026-04-26T09:44:59.885Z</time></trkpt><trkpt lat="53.6941944" lon="-1.9544731"><ele>241.0</ele><time>2026-04-26T09:45:00.888Z</time></trkpt><trkpt lat="53.694289" lon="-1.954361"><ele>241.5</ele><time>2026-04-26T09:45:01.889Z</time></trkpt><trkpt lat="53.6943872" lon="-1.9542597"><ele>242.0</ele><time>2026-04-26T09:45:02.889Z</time></trkpt><trkpt lat="53.6944829" lon="-1.9541653"><ele>243.2</ele><time>2026-04-26T09:45:03.888Z</time></trkpt><trkpt lat="53.694574" lon="-1.9540717"><ele>244.39999999999998</ele><time>2026-04-26T09:45:04.885Z</time></trkpt><trkpt lat="53.6946635" lon="-1.9539761"><ele>245.60000000000002</ele><time>2026-04-26T09:45:05.886Z</time></trkpt><trkpt lat="53.6947546" lon="-1.9538756"><ele>246.8</ele><time>2026-04-26T09:45:06.885Z</time></trkpt><trkpt lat="53.6948476" lon="-1.9537734"><ele>248.0</ele><time>2026-04-26T09:45:07.887Z</time></trkpt><trkpt lat="53.694943" lon="-1.9536709"><ele>248.0</ele><time>2026-04-26T09:45:08.886Z</time></trkpt><trkpt lat="53.6950366" lon="-1.9535679"><ele>248.0</ele><time>2026-04-26T09:45:09.89Z</time></trkpt><trkpt lat="53.6951311" lon="-1.9534675"><ele>248.0</ele><time>2026-04-26T09:45:10.888Z</time></trkpt><trkpt lat="53.6952311" lon="-1.9533726"><ele>248.0</ele><time>2026-04-26T09:45:11.884Z</time></trkpt><trkpt lat="53.6953346" lon="-1.9532821"><ele>249.25</ele><time>2026-04-26T09:45:12.885Z</time></trkpt><trkpt lat="53.6954417" lon="-1.9532016"><ele>250.5</ele><time>2026-04-26T09:45:13.889Z</time></trkpt><trkpt lat="53.6955527" lon="-1.9531375"><ele>251.75</ele><time>2026-04-26T09:45:14.887Z</time></trkpt><trkpt lat="53.6956666" lon="-1.9530857"><ele>253.0</ele><time>2026-04-26T09:45:15.886Z</time></trkpt><trkpt lat="53.6957828" lon="-1.9530369"><ele>253.0</ele><time>2026-04-26T09:45:16.886Z</time></trkpt><trkpt lat="53.6959024" lon="-1.9529882"><ele>253.0</ele><time>2026-04-26T09:45:17.883Z</time></trkpt><trkpt lat="53.6960233" lon="-1.952934"><ele>253.0</ele><time>2026-04-26T09:45:18.886Z</time></trkpt><trkpt lat="53.6961415" lon="-1.9528715"><ele>253.0</ele><time>2026-04-26T09:45:19.885Z</time></trkpt><trkpt lat="53.6962566" lon="-1.9527956"><ele>253.75</ele><time>2026-04-26T09:45:20.885Z</time></trkpt><trkpt lat="53.6963706" lon="-1.9527059"><ele>254.5</ele><time>2026-04-26T09:45:21.886Z</time></trkpt><trkpt lat="53.6964835" lon="-1.9526062"><ele>255.25</ele><time>2026-04-26T09:45:22.886Z</time></trkpt><trkpt lat="53.696606" lon="-1.9524958"><ele>256.0</ele><time>2026-04-26T09:45:23.892Z</time></trkpt><trkpt lat="53.6967452" lon="-1.9523713"><ele>256.3333333333333</ele><time>2026-04-26T09:45:24.886Z</time></trkpt><trkpt lat="53.696901" lon="-1.9522282"><ele>256.6666666666667</ele><time>2026-04-26T09:45:25.886Z</time></trkpt><trkpt lat="53.6970756" lon="-1.9520678"><ele>257.0</ele><time>2026-04-26T09:45:26.888Z</time></trkpt><trkpt lat="53.6972666" lon="-1.9518915"><ele>257.5</ele><time>2026-04-26T09:45:27.885Z</time></trkpt><trkpt lat="53.697474" lon="-1.9517033"><ele>258.0</ele><time>2026-04-26T09:45:28.886Z</time></trkpt><trkpt lat="53.697674" lon="-1.9515179"><ele>259.3333333333333</ele><time>2026-04-26T09:45:29.887Z</time></trkpt><trkpt lat="53.6978585" lon="-1.9513466"><ele>260.66666666666663</ele><time>2026-04-26T09:45:30.888Z</time></trkpt><trkpt lat="53.6980229" lon="-1.9511937"><ele>262.0</ele><time>2026-04-26T09:45:31.89Z</time></trkpt><trkpt lat="53.6981748" lon="-1.9510638"><ele>262.0</ele><time>2026-04-26T09:45:32.88Z</time></trkpt><trkpt lat="53.6983208" lon="-1.9509448"><ele>262.0</ele><time>2026-04-26T09:45:33.893Z</time></trkpt><trkpt lat="53.6984575" lon="-1.9508384"><ele>262.0</ele><time>2026-04-26T09:45:34.888Z</time></trkpt><trkpt lat="53.698585" lon="-1.9507411"><ele>262.25</ele><time>2026-04-26T09:45:35.889Z</time></trkpt><trkpt lat="53.6987042" lon="-1.9506466"><ele>262.5</ele><time>2026-04-26T09:45:36.888Z</time></trkpt><trkpt lat="53.6988305" lon="-1.9505499"><ele>262.75</ele><time>2026-04-26T09:45:37.887Z</time></trkpt><trkpt lat="53.6989688" lon="-1.9504448"><ele>263.0</ele><time>2026-04-26T09:45:38.885Z</time></trkpt><trkpt lat="53.699104" lon="-1.9503375"><ele>263.0</ele><time>2026-04-26T09:45:39.89Z</time></trkpt><trkpt lat="53.6992381" lon="-1.9502431"><ele>263.0</ele><time>2026-04-26T09:45:40.888Z</time></trkpt><trkpt lat="53.6993707" lon="-1.9501703"><ele>263.0</ele><time>2026-04-26T09:45:41.871Z</time></trkpt><trkpt lat="53.6995017" lon="-1.9501138"><ele>263.0</ele><time>2026-04-26T09:45:42.884Z</time></trkpt><trkpt lat="53.6996291" lon="-1.9500623"><ele>263.0</ele><time>2026-04-26T09:45:43.891Z</time></trkpt><trkpt lat="53.6997551" lon="-1.9500087"><ele>263.0</ele><time>2026-04-26T09:45:44.886Z</time></trkpt><trkpt lat="53.6998817" lon="-1.9499572"><ele>263.0</ele><time>2026-04-26T09:45:45.886Z</time></trkpt><trkpt lat="53.7000017" lon="-1.9499081"><ele>263.0</ele><time>2026-04-26T09:45:46.885Z</time></trkpt><trkpt lat="53.7001188" lon="-1.9498609"><ele>263.0</ele><time>2026-04-26T09:45:47.887Z</time></trkpt><trkpt lat="53.7002359" lon="-1.9498158"><ele>263.0</ele><time>2026-04-26T09:45:48.886Z</time></trkpt><trkpt lat="53.7003501" lon="-1.9497697"><ele>263.0</ele><time>2026-04-26T09:45:49.885Z</time></trkpt><trkpt lat="53.7004644" lon="-1.9497314"><ele>263.0</ele><time>2026-04-26T09:45:50.884Z</time></trkpt><trkpt lat="53.7005822" lon="-1.9497033"><ele>262.25</ele><time>2026-04-26T09:45:51.886Z</time></trkpt><trkpt lat="53.7007006" lon="-1.9496727"><ele>261.5</ele><time>2026-04-26T09:45:52.885Z</time></trkpt><trkpt lat="53.700823" lon="-1.9496249"><ele>260.75</ele><time>2026-04-26T09:45:53.891Z</time></trkpt><trkpt lat="53.7009484" lon="-1.949562"><ele>260.0</ele><time>2026-04-26T09:45:54.887Z</time></trkpt><trkpt lat="53.7010728" lon="-1.9494934"><ele>260.0</ele><time>2026-04-26T09:45:55.891Z</time></trkpt><trkpt lat="53.701196" lon="-1.9494281"><ele>260.0</ele><time>2026-04-26T09:45:56.889Z</time></trkpt><trkpt lat="53.7013166" lon="-1.949365"><ele>260.0</ele><time>2026-04-26T09:45:57.885Z</time></trkpt><trkpt lat="53.701434" lon="-1.9493043"><ele>260.0</ele><time>2026-04-26T09:45:58.886Z</time></trkpt><trkpt lat="53.7015475" lon="-1.9492396"><ele>259.8</ele><time>2026-04-26T09:45:59.884Z</time></trkpt><trkpt lat="53.7016541" lon="-1.9491583"><ele>259.6</ele><time>2026-04-26T09:46:00.885Z</time></trkpt><trkpt lat="53.701753" lon="-1.9490508"><ele>259.4</ele><time>2026-04-26T09:46:01.887Z</time></trkpt><trkpt lat="53.7018362" lon="-1.9489309"><ele>259.2</ele><time>2026-04-26T09:46:02.888Z</time></trkpt><trkpt lat="53.701907" lon="-1.9488062"><ele>259.0</ele><time>2026-04-26T09:46:03.894Z</time></trkpt><trkpt lat="53.7019729" lon="-1.9486837"><ele>259.0</ele><time>2026-04-26T09:46:04.887Z</time></trkpt><trkpt lat="53.7020392" lon="-1.9485641"><ele>259.0</ele><time>2026-04-26T09:46:05.887Z</time></trkpt><trkpt lat="53.7021103" lon="-1.9484406"><ele>259.0</ele><time>2026-04-26T09:46:06.887Z</time></trkpt><trkpt lat="53.7021815" lon="-1.9483057"><ele>259.0</ele><time>2026-04-26T09:46:07.888Z</time></trkpt><trkpt lat="53.7022396" lon="-1.9481423"><ele>259.0</ele><time>2026-04-26T09:46:08.888Z</time></trkpt><trkpt lat="53.7022808" lon="-1.9479587"><ele>258.0</ele><time>2026-04-26T09:46:09.887Z</time></trkpt><trkpt lat="53.7023032" lon="-1.9477701"><ele>257.0</ele><time>2026-04-26T09:46:10.888Z</time></trkpt><trkpt lat="53.7023182" lon="-1.9475841"><ele>256.0</ele><time>2026-04-26T09:46:11.884Z</time></trkpt><trkpt lat="53.7023383" lon="-1.9473889"><ele>255.0</ele><time>2026-04-26T09:46:12.885Z</time></trkpt><trkpt lat="53.7023576" lon="-1.9471939"><ele>254.75</ele><time>2026-04-26T09:46:13.89Z</time></trkpt><trkpt lat="53.7023902" lon="-1.9469963"><ele>254.5</ele><time>2026-04-26T09:46:14.886Z</time></trkpt><trkpt lat="53.7024347" lon="-1.9467935"><ele>254.25</ele><time>2026-04-26T09:46:15.885Z</time></trkpt><trkpt lat="53.7024858" lon="-1.946594"><ele>254.0</ele><time>2026-04-26T09:46:16.886Z</time></trkpt><trkpt lat="53.7025359" lon="-1.9464044"><ele>253.79999999999998</ele><time>2026-04-26T09:46:17.884Z</time></trkpt><trkpt lat="53.7025832" lon="-1.946224"><ele>253.59999999999997</ele><time>2026-04-26T09:46:18.887Z</time></trkpt><trkpt lat="53.7026352" lon="-1.946054"><ele>253.4</ele><time>2026-04-26T09:46:19.885Z</time></trkpt><trkpt lat="53.7026964" lon="-1.9459051"><ele>253.2</ele><time>2026-04-26T09:46:20.885Z</time></trkpt><trkpt lat="53.7027676" lon="-1.9457778"><ele>253.0</ele><time>2026-04-26T09:46:21.885Z</time></trkpt><trkpt lat="53.7028403" lon="-1.9456718"><ele>253.4</ele><time>2026-04-26T09:46:22.885Z</time></trkpt><trkpt lat="53.7029166" lon="-1.9455655"><ele>253.8</ele><time>2026-04-26T09:46:23.89Z</time></trkpt><trkpt lat="53.702993" lon="-1.945447"><ele>254.2</ele><time>2026-04-26T09:46:24.885Z</time></trkpt><trkpt lat="53.7030687" lon="-1.9453239"><ele>254.6</ele><time>2026-04-26T09:46:25.885Z</time></trkpt><trkpt lat="53.7031435" lon="-1.9452012"><ele>255.0</ele><time>2026-04-26T09:46:26.885Z</time></trkpt><trkpt lat="53.7032114" lon="-1.9450886"><ele>254.8</ele><time>2026-04-26T09:46:27.885Z</time></trkpt><trkpt lat="53.7032796" lon="-1.9449737"><ele>254.6</ele><time>2026-04-26T09:46:28.89Z</time></trkpt><trkpt lat="53.7033471" lon="-1.9448566"><ele>254.39999999999998</ele><time>2026-04-26T09:46:29.886Z</time></trkpt><trkpt lat="53.7034161" lon="-1.9447381"><ele>254.2</ele><time>2026-04-26T09:46:30.888Z</time></trkpt><trkpt lat="53.7034792" lon="-1.9446259"><ele>254.0</ele><time>2026-04-26T09:46:31.889Z</time></trkpt><trkpt lat="53.7035438" lon="-1.9445141"><ele>253.50000000000003</ele><time>2026-04-26T09:46:32.887Z</time></trkpt><trkpt lat="53.7036048" lon="-1.9444037"><ele>253.0</ele><time>2026-04-26T09:46:33.893Z</time></trkpt><trkpt lat="53.7036626" lon="-1.9442958"><ele>252.5</ele><time>2026-04-26T09:46:34.887Z</time></trkpt><trkpt lat="53.7037207" lon="-1.9441966"><ele>252.0</ele><time>2026-04-26T09:46:35.889Z</time></trkpt><trkpt lat="53.703782" lon="-1.9441082"><ele>251.50000000000003</ele><time>2026-04-26T09:46:36.888Z</time></trkpt><trkpt lat="53.7038436" lon="-1.9440307"><ele>251.0</ele><time>2026-04-26T09:46:37.886Z</time></trkpt><trkpt lat="53.7039039" lon="-1.9439686"><ele>250.0</ele><time>2026-04-26T09:46:38.887Z</time></trkpt><trkpt lat="53.7039633" lon="-1.9439176"><ele>249.00000000000003</ele><time>2026-04-26T09:46:39.888Z</time></trkpt><trkpt lat="53.7040777" lon="-1.9438471"><ele>248.00000000000003</ele><time>2026-04-26T09:46:41.885Z</time></trkpt><trkpt lat="53.7041993" lon="-1.9437898"><ele>247.0</ele><time>2026-04-26T09:46:43.89Z</time></trkpt><trkpt lat="53.7042666" lon="-1.9437561"><ele>246.0</ele><time>2026-04-26T09:46:44.889Z</time></trkpt><trkpt lat="53.7043308" lon="-1.9437191"><ele>246.0</ele><time>2026-04-26T09:46:45.885Z</time></trkpt><trkpt lat="53.7043949" lon="-1.9436773"><ele>246.0</ele><time>2026-04-26T09:46:46.888Z</time></trkpt><trkpt lat="53.7044534" lon="-1.9436291"><ele>246.0</ele><time>2026-04-26T09:46:47.886Z</time></trkpt><trkpt lat="53.7045287" lon="-1.9435281"><ele>246.0</ele><time>2026-04-26T09:46:49.889Z</time></trkpt><trkpt lat="53.7045849" lon="-1.9434554"><ele>246.0</ele><time>2026-04-26T09:46:51.886Z</time></trkpt><trkpt lat="53.7046657" lon="-1.9433679"><ele>246.0</ele><time>2026-04-26T09:46:53.885Z</time></trkpt><trkpt lat="53.7047314" lon="-1.9433018"><ele>243.4</ele><time>2026-04-26T09:46:54.886Z</time></trkpt><trkpt lat="53.7048088" lon="-1.9432182"><ele>240.8</ele><time>2026-04-26T09:46:55.89Z</time></trkpt><trkpt lat="53.704889" lon="-1.9431141"><ele>238.20000000000002</ele><time>2026-04-26T09:46:56.886Z</time></trkpt><trkpt lat="53.7049658" lon="-1.9430086"><ele>235.60000000000002</ele><time>2026-04-26T09:46:57.888Z</time></trkpt><trkpt lat="53.7050407" lon="-1.9429043"><ele>233.0</ele><time>2026-04-26T09:46:58.887Z</time></trkpt><trkpt lat="53.7051093" lon="-1.9428098"><ele>233.00000000000003</ele><time>2026-04-26T09:46:59.886Z</time></trkpt><trkpt lat="53.7051718" lon="-1.9427155"><ele>233.0</ele><time>2026-04-26T09:47:00.887Z</time></trkpt><trkpt lat="53.7052317" lon="-1.9426189"><ele>233.0</ele><time>2026-04-26T09:47:01.887Z</time></trkpt><trkpt lat="53.7052937" lon="-1.9425132"><ele>233.0</ele><time>2026-04-26T09:47:02.888Z</time></trkpt><trkpt lat="53.705358" lon="-1.9424104"><ele>233.00000000000003</ele><time>2026-04-26T09:47:03.892Z</time></trkpt><trkpt lat="53.7054214" lon="-1.9423053"><ele>233.0</ele><time>2026-04-26T09:47:04.887Z</time></trkpt><trkpt lat="53.7054869" lon="-1.9421946"><ele>231.33333333333334</ele><time>2026-04-26T09:47:05.886Z</time></trkpt><trkpt lat="53.7055472" lon="-1.9420884"><ele>229.66666666666669</ele><time>2026-04-26T09:47:06.886Z</time></trkpt><trkpt lat="53.7056064" lon="-1.9419874"><ele>228.0</ele><time>2026-04-26T09:47:07.887Z</time></trkpt><trkpt lat="53.7056598" lon="-1.9418975"><ele>226.33333333333331</ele><time>2026-04-26T09:47:08.887Z</time></trkpt><trkpt lat="53.7057087" lon="-1.9418167"><ele>224.66666666666666</ele><time>2026-04-26T09:47:09.888Z</time></trkpt><trkpt lat="53.7057888" lon="-1.9416852"><ele>223.0</ele><time>2026-04-26T09:47:11.884Z</time></trkpt><trkpt lat="53.7058614" lon="-1.9416614"><ele>223.0</ele><time>2026-04-26T09:48:06.889Z</time></trkpt><trkpt lat="53.7058949" lon="-1.9418364"><ele>223.0</ele><time>2026-04-26T09:48:08.89Z</time></trkpt><trkpt lat="53.705913" lon="-1.9419655"><ele>223.0</ele><time>2026-04-26T09:48:09.886Z</time></trkpt><trkpt lat="53.7059253" lon="-1.9421154"><ele>223.0</ele><time>2026-04-26T09:48:10.889Z</time></trkpt><trkpt lat="53.7059385" lon="-1.9422682"><ele>223.0</ele><time>2026-04-26T09:48:11.886Z</time></trkpt><trkpt lat="53.7059545" lon="-1.9424111"><ele>222.99999999999997</ele><time>2026-04-26T09:48:12.891Z</time></trkpt><trkpt lat="53.7059737" lon="-1.942547"><ele>223.0</ele><time>2026-04-26T09:48:13.896Z</time></trkpt><trkpt lat="53.705994" lon="-1.9426751"><ele>223.0</ele><time>2026-04-26T09:48:14.893Z</time></trkpt><trkpt lat="53.7060184" lon="-1.9428068"><ele>223.0</ele><time>2026-04-26T09:48:15.894Z</time></trkpt><trkpt lat="53.706044" lon="-1.942943"><ele>222.99999999999997</ele><time>2026-04-26T09:48:16.891Z</time></trkpt><trkpt lat="53.7060798" lon="-1.9430756"><ele>223.0</ele><time>2026-04-26T09:48:17.891Z</time></trkpt><trkpt lat="53.7061295" lon="-1.9432025"><ele>223.16666666666666</ele><time>2026-04-26T09:48:18.889Z</time></trkpt><trkpt lat="53.7061798" lon="-1.9433128"><ele>223.33333333333331</ele><time>2026-04-26T09:48:19.89Z</time></trkpt><trkpt lat="53.7062213" lon="-1.9433941"><ele>223.5</ele><time>2026-04-26T09:48:20.89Z</time></trkpt><trkpt lat="53.7062818" lon="-1.9434893"><ele>223.66666666666669</ele><time>2026-04-26T09:48:22.89Z</time></trkpt><trkpt lat="53.7063704" lon="-1.9436294"><ele>223.83333333333334</ele><time>2026-04-26T09:48:24.889Z</time></trkpt><trkpt lat="53.7064367" lon="-1.9437227"><ele>224.0</ele><time>2026-04-26T09:48:25.891Z</time></trkpt><trkpt lat="53.7065125" lon="-1.9438346"><ele>224.0</ele><time>2026-04-26T09:48:26.889Z</time></trkpt><trkpt lat="53.7065842" lon="-1.9439603"><ele>223.99999999999997</ele><time>2026-04-26T09:48:27.887Z</time></trkpt><trkpt lat="53.7066515" lon="-1.9440886"><ele>223.99999999999997</ele><time>2026-04-26T09:48:28.888Z</time></trkpt><trkpt lat="53.7067153" lon="-1.9442166"><ele>224.0</ele><time>2026-04-26T09:48:29.889Z</time></trkpt><trkpt lat="53.7067624" lon="-1.9443322"><ele>224.0</ele><time>2026-04-26T09:48:30.891Z</time></trkpt><trkpt lat="53.7068058" lon="-1.944488"><ele>224.33333333333334</ele><time>2026-04-26T09:48:32.892Z</time></trkpt><trkpt lat="53.7068414" lon="-1.9446061"><ele>224.66666666666669</ele><time>2026-04-26T09:48:34.896Z</time></trkpt><trkpt lat="53.7068722" lon="-1.9447057"><ele>225.0</ele><time>2026-04-26T09:48:35.89Z</time></trkpt><trkpt lat="53.7068995" lon="-1.9448297"><ele>225.33333333333331</ele><time>2026-04-26T09:48:36.893Z</time></trkpt><trkpt lat="53.7069204" lon="-1.9449774"><ele>225.66666666666666</ele><time>2026-04-26T09:48:37.889Z</time></trkpt><trkpt lat="53.7069347" lon="-1.9451438"><ele>226.0</ele><time>2026-04-26T09:48:38.893Z</time></trkpt><trkpt lat="53.7069479" lon="-1.9453218"><ele>223.75</ele><time>2026-04-26T09:48:39.891Z</time></trkpt><trkpt lat="53.7069703" lon="-1.9455191"><ele>221.5</ele><time>2026-04-26T09:48:40.893Z</time></trkpt><trkpt lat="53.7070008" lon="-1.9457382"><ele>219.25</ele><time>2026-04-26T09:48:41.891Z</time></trkpt><trkpt lat="53.707035" lon="-1.9459951"><ele>217.0</ele><time>2026-04-26T09:48:42.893Z</time></trkpt><trkpt lat="53.7070746" lon="-1.9462841"><ele>217.0</ele><time>2026-04-26T09:48:43.898Z</time></trkpt><trkpt lat="53.7071167" lon="-1.9466031"><ele>217.0</ele><time>2026-04-26T09:48:44.891Z</time></trkpt><trkpt lat="53.7071605" lon="-1.9469407"><ele>217.0</ele><time>2026-04-26T09:48:45.89Z</time></trkpt><trkpt lat="53.7072091" lon="-1.947308"><ele>220.0</ele><time>2026-04-26T09:48:46.89Z</time></trkpt><trkpt lat="53.7072627" lon="-1.947674"><ele>223.0</ele><time>2026-04-26T09:48:47.892Z</time></trkpt><trkpt lat="53.707313" lon="-1.9480022"><ele>226.0</ele><time>2026-04-26T09:48:48.887Z</time></trkpt><trkpt lat="53.7073624" lon="-1.9482936"><ele>227.0</ele><time>2026-04-26T09:48:49.887Z</time></trkpt><trkpt lat="53.7074117" lon="-1.9485655"><ele>228.0</ele><time>2026-04-26T09:48:50.886Z</time></trkpt><trkpt lat="53.7074594" lon="-1.9488279"><ele>229.0</ele><time>2026-04-26T09:48:51.886Z</time></trkpt><trkpt lat="53.7075026" lon="-1.9490801"><ele>229.75</ele><time>2026-04-26T09:48:52.878Z</time></trkpt><trkpt lat="53.7075445" lon="-1.9493134"><ele>230.5</ele><time>2026-04-26T09:48:53.892Z</time></trkpt><trkpt lat="53.7075834" lon="-1.949527"><ele>231.25</ele><time>2026-04-26T09:48:54.885Z</time></trkpt><trkpt lat="53.7076234" lon="-1.9497331"><ele>232.0</ele><time>2026-04-26T09:48:55.887Z</time></trkpt><trkpt lat="53.7076787" lon="-1.9499379"><ele>230.5</ele><time>2026-04-26T09:48:56.886Z</time></trkpt><trkpt lat="53.707749" lon="-1.9501413"><ele>229.0</ele><time>2026-04-26T09:48:57.886Z</time></trkpt><trkpt lat="53.7078294" lon="-1.9503461"><ele>227.5</ele><time>2026-04-26T09:48:58.888Z</time></trkpt><trkpt lat="53.7079072" lon="-1.9505639"><ele>226.0</ele><time>2026-04-26T09:48:59.886Z</time></trkpt><trkpt lat="53.7079765" lon="-1.9508072"><ele>227.33333333333331</ele><time>2026-04-26T09:49:00.888Z</time></trkpt><trkpt lat="53.7080344" lon="-1.9510729"><ele>228.66666666666669</ele><time>2026-04-26T09:49:01.89Z</time></trkpt><trkpt lat="53.7080977" lon="-1.9513544"><ele>230.0</ele><time>2026-04-26T09:49:02.889Z</time></trkpt><trkpt lat="53.708166" lon="-1.9516408"><ele>231.66666666666669</ele><time>2026-04-26T09:49:03.884Z</time></trkpt><trkpt lat="53.7082279" lon="-1.9519192"><ele>233.33333333333331</ele><time>2026-04-26T09:49:04.888Z</time></trkpt><trkpt lat="53.7082869" lon="-1.9521854"><ele>235.0</ele><time>2026-04-26T09:49:05.89Z</time></trkpt><trkpt lat="53.7083435" lon="-1.9524368"><ele>236.0</ele><time>2026-04-26T09:49:06.888Z</time></trkpt><trkpt lat="53.7084025" lon="-1.9526753"><ele>237.0</ele><time>2026-04-26T09:49:07.889Z</time></trkpt><trkpt lat="53.7084602" lon="-1.9529078"><ele>238.0</ele><time>2026-04-26T09:49:08.889Z</time></trkpt><trkpt lat="53.708513" lon="-1.95313"><ele>239.0</ele><time>2026-04-26T09:49:09.888Z</time></trkpt><trkpt lat="53.7085549" lon="-1.9533466"><ele>238.5</ele><time>2026-04-26T09:49:10.889Z</time></trkpt><trkpt lat="53.7085851" lon="-1.9535645"><ele>238.0</ele><time>2026-04-26T09:49:11.885Z</time></trkpt><trkpt lat="53.7086045" lon="-1.9537948"><ele>237.5</ele><time>2026-04-26T09:49:12.886Z</time></trkpt><trkpt lat="53.7086118" lon="-1.95403"><ele>237.0</ele><time>2026-04-26T09:49:13.891Z</time></trkpt><trkpt lat="53.7086208" lon="-1.9542651"><ele>237.0</ele><time>2026-04-26T09:49:14.886Z</time></trkpt><trkpt lat="53.7086361" lon="-1.9545014"><ele>237.0</ele><time>2026-04-26T09:49:15.887Z</time></trkpt><trkpt lat="53.7086535" lon="-1.9547257"><ele>237.0</ele><time>2026-04-26T09:49:16.888Z</time></trkpt><trkpt lat="53.7086691" lon="-1.9549222"><ele>237.0</ele><time>2026-04-26T09:49:17.887Z</time></trkpt><trkpt lat="53.7086833" lon="-1.9550926"><ele>238.5</ele><time>2026-04-26T09:49:18.887Z</time></trkpt><trkpt lat="53.7086999" lon="-1.9552437"><ele>240.0</ele><time>2026-04-26T09:49:19.887Z</time></trkpt><trkpt lat="53.7087266" lon="-1.955377"><ele>241.5</ele><time>2026-04-26T09:49:20.887Z</time></trkpt><trkpt lat="53.7087749" lon="-1.9554896"><ele>243.0</ele><time>2026-04-26T09:49:21.888Z</time></trkpt><trkpt lat="53.7088493" lon="-1.9555797"><ele>244.5</ele><time>2026-04-26T09:49:22.885Z</time></trkpt><trkpt lat="53.7089378" lon="-1.9556583"><ele>246.0</ele><time>2026-04-26T09:49:23.89Z</time></trkpt><trkpt lat="53.7090351" lon="-1.9557505"><ele>247.8</ele><time>2026-04-26T09:49:24.888Z</time></trkpt><trkpt lat="53.709133" lon="-1.9558767"><ele>249.60000000000002</ele><time>2026-04-26T09:49:25.887Z</time></trkpt><trkpt lat="53.7092216" lon="-1.9560316"><ele>251.4</ele><time>2026-04-26T09:49:26.886Z</time></trkpt><trkpt lat="53.7092882" lon="-1.9561761"><ele>253.2</ele><time>2026-04-26T09:49:27.887Z</time></trkpt><trkpt lat="53.7093319" lon="-1.9562928"><ele>255.0</ele><time>2026-04-26T09:49:28.887Z</time></trkpt><trkpt lat="53.709356" lon="-1.9564131"><ele>255.0</ele><time>2026-04-26T09:49:29.885Z</time></trkpt><trkpt lat="53.7093479" lon="-1.9565604"><ele>255.0</ele><time>2026-04-26T09:49:30.888Z</time></trkpt><trkpt lat="53.7093135" lon="-1.9567392"><ele>255.0</ele><time>2026-04-26T09:49:31.89Z</time></trkpt><trkpt lat="53.7092745" lon="-1.9569644"><ele>255.0</ele><time>2026-04-26T09:49:32.887Z</time></trkpt><trkpt lat="53.7092286" lon="-1.9572413"><ele>260.0</ele><time>2026-04-26T09:49:33.892Z</time></trkpt><trkpt lat="53.7091753" lon="-1.957552"><ele>265.0</ele><time>2026-04-26T09:49:34.887Z</time></trkpt><trkpt lat="53.7091154" lon="-1.9578873"><ele>270.0</ele><time>2026-04-26T09:49:35.89Z</time></trkpt><trkpt lat="53.7090551" lon="-1.9582099"><ele>271.75</ele><time>2026-04-26T09:49:36.891Z</time></trkpt><trkpt lat="53.7090002" lon="-1.9584943"><ele>273.5</ele><time>2026-04-26T09:49:37.892Z</time></trkpt><trkpt lat="53.7089616" lon="-1.9587116"><ele>275.25</ele><time>2026-04-26T09:49:38.889Z</time></trkpt><trkpt lat="53.7089393" lon="-1.9588821"><ele>277.0</ele><time>2026-04-26T09:49:39.892Z</time></trkpt><trkpt lat="53.7089333" lon="-1.9590042"><ele>277.0</ele><time>2026-04-26T09:49:40.889Z</time></trkpt><trkpt lat="53.7089836" lon="-1.9590852"><ele>277.0</ele><time>2026-04-26T09:49:43.889Z</time></trkpt><trkpt lat="53.7090758" lon="-1.9590693"><ele>277.0</ele><time>2026-04-26T09:50:47.888Z</time></trkpt><trkpt lat="53.7091962" lon="-1.9590916"><ele>277.0</ele><time>2026-04-26T09:50:49.886Z</time></trkpt><trkpt lat="53.7092705" lon="-1.95911"><ele>277.0</ele><time>2026-04-26T09:50:50.887Z</time></trkpt><trkpt lat="53.7093498" lon="-1.9591326"><ele>277.0</ele><time>2026-04-26T09:50:51.889Z</time></trkpt><trkpt lat="53.709436" lon="-1.9591628"><ele>277.0</ele><time>2026-04-26T09:50:52.886Z</time></trkpt><trkpt lat="53.7095245" lon="-1.9591978"><ele>277.0</ele><time>2026-04-26T09:50:53.892Z</time></trkpt><trkpt lat="53.7096128" lon="-1.9592385"><ele>277.0</ele><time>2026-04-26T09:50:54.892Z</time></trkpt><trkpt lat="53.7097083" lon="-1.9592789"><ele>277.0</ele><time>2026-04-26T09:50:55.889Z</time></trkpt><trkpt lat="53.7098122" lon="-1.959327"><ele>277.0</ele><time>2026-04-26T09:50:56.892Z</time></trkpt><trkpt lat="53.7099207" lon="-1.9593785"><ele>278.2</ele><time>2026-04-26T09:50:57.886Z</time></trkpt><trkpt lat="53.7100248" lon="-1.9594269"><ele>279.4</ele><time>2026-04-26T09:50:58.893Z</time></trkpt><trkpt lat="53.7101195" lon="-1.9594765"><ele>280.6</ele><time>2026-04-26T09:50:59.889Z</time></trkpt><trkpt lat="53.7102087" lon="-1.9595381"><ele>281.8</ele><time>2026-04-26T09:51:00.889Z</time></trkpt><trkpt lat="53.7102919" lon="-1.9596252"><ele>283.0</ele><time>2026-04-26T09:51:01.894Z</time></trkpt><trkpt lat="53.7103695" lon="-1.959726"><ele>283.0</ele><time>2026-04-26T09:51:02.891Z</time></trkpt><trkpt lat="53.7104386" lon="-1.9598028"><ele>283.0</ele><time>2026-04-26T09:51:03.897Z</time></trkpt><trkpt lat="53.710504" lon="-1.9598402"><ele>283.0</ele><time>2026-04-26T09:51:04.884Z</time></trkpt><trkpt lat="53.7105707" lon="-1.959839"><ele>283.0</ele><time>2026-04-26T09:51:05.894Z</time></trkpt><trkpt lat="53.710638" lon="-1.9598172"><ele>283.0</ele><time>2026-04-26T09:51:06.891Z</time></trkpt><trkpt lat="53.7107034" lon="-1.9597858"><ele>283.0</ele><time>2026-04-26T09:51:07.893Z</time></trkpt><trkpt lat="53.7107808" lon="-1.9597468"><ele>283.0</ele><time>2026-04-26T09:51:08.892Z</time></trkpt><trkpt lat="53.710869" lon="-1.9597031"><ele>283.0</ele><time>2026-04-26T09:51:09.889Z</time></trkpt><trkpt lat="53.7109648" lon="-1.9596644"><ele>283.0</ele><time>2026-04-26T09:51:10.888Z</time></trkpt><trkpt lat="53.7110688" lon="-1.959641"><ele>283.0</ele><time>2026-04-26T09:51:11.885Z</time></trkpt><trkpt lat="53.7111821" lon="-1.9596294"><ele>283.0</ele><time>2026-04-26T09:51:12.888Z</time></trkpt><trkpt lat="53.7113018" lon="-1.9596275"><ele>283.0</ele><time>2026-04-26T09:51:13.893Z</time></trkpt><trkpt lat="53.7114249" lon="-1.9596245"><ele>283.25</ele><time>2026-04-26T09:51:14.887Z</time></trkpt><trkpt lat="53.7115453" lon="-1.9596168"><ele>283.5</ele><time>2026-04-26T09:51:15.887Z</time></trkpt><trkpt lat="53.7116611" lon="-1.9596117"><ele>283.75</ele><time>2026-04-26T09:51:16.89Z</time></trkpt><trkpt lat="53.7117742" lon="-1.959614"><ele>284.0</ele><time>2026-04-26T09:51:17.889Z</time></trkpt><trkpt lat="53.7118877" lon="-1.9596145"><ele>284.4</ele><time>2026-04-26T09:51:18.891Z</time></trkpt><trkpt lat="53.7120009" lon="-1.9596197"><ele>284.79999999999995</ele><time>2026-04-26T09:51:19.889Z</time></trkpt><trkpt lat="53.7121106" lon="-1.9596316"><ele>285.20000000000005</ele><time>2026-04-26T09:51:20.887Z</time></trkpt><trkpt lat="53.7122202" lon="-1.9596537"><ele>285.6</ele><time>2026-04-26T09:51:21.888Z</time></trkpt><trkpt lat="53.7123315" lon="-1.9596822"><ele>286.0</ele><time>2026-04-26T09:51:22.887Z</time></trkpt><trkpt lat="53.7124449" lon="-1.9597126"><ele>286.0</ele><time>2026-04-26T09:51:23.892Z</time></trkpt><trkpt lat="53.7125582" lon="-1.9597466"><ele>286.0</ele><time>2026-04-26T09:51:24.885Z</time></trkpt><trkpt lat="53.7126726" lon="-1.9597849"><ele>286.0</ele><time>2026-04-26T09:51:25.887Z</time></trkpt><trkpt lat="53.7127844" lon="-1.9598236"><ele>286.0</ele><time>2026-04-26T09:51:26.887Z</time></trkpt><trkpt lat="53.7128911" lon="-1.9598617"><ele>286.6</ele><time>2026-04-26T09:51:27.884Z</time></trkpt><trkpt lat="53.7129941" lon="-1.9598988"><ele>287.20000000000005</ele><time>2026-04-26T09:51:28.886Z</time></trkpt><trkpt lat="53.7130944" lon="-1.9599382"><ele>287.79999999999995</ele><time>2026-04-26T09:51:29.886Z</time></trkpt><trkpt lat="53.7131944" lon="-1.9599787"><ele>288.4</ele><time>2026-04-26T09:51:30.886Z</time></trkpt><trkpt lat="53.7133003" lon="-1.96002"><ele>289.0</ele><time>2026-04-26T09:51:31.888Z</time></trkpt><trkpt lat="53.7134092" lon="-1.9600646"><ele>289.0</ele><time>2026-04-26T09:51:32.889Z</time></trkpt><trkpt lat="53.7135193" lon="-1.9601204"><ele>289.0</ele><time>2026-04-26T09:51:33.896Z</time></trkpt><trkpt lat="53.7136311" lon="-1.9602014"><ele>289.0</ele><time>2026-04-26T09:51:34.889Z</time></trkpt><trkpt lat="53.7137377" lon="-1.9603011"><ele>289.0</ele><time>2026-04-26T09:51:35.889Z</time></trkpt><trkpt lat="53.7138312" lon="-1.9604173"><ele>287.0</ele><time>2026-04-26T09:51:36.888Z</time></trkpt><trkpt lat="53.7139201" lon="-1.9605425"><ele>285.0</ele><time>2026-04-26T09:51:37.893Z</time></trkpt><trkpt lat="53.714016" lon="-1.9606704"><ele>283.0</ele><time>2026-04-26T09:51:38.886Z</time></trkpt><trkpt lat="53.7141132" lon="-1.9607937"><ele>281.0</ele><time>2026-04-26T09:51:39.891Z</time></trkpt><trkpt lat="53.7142124" lon="-1.9609107"><ele>281.0</ele><time>2026-04-26T09:51:40.889Z</time></trkpt><trkpt lat="53.7143168" lon="-1.9610301"><ele>281.0</ele><time>2026-04-26T09:51:41.886Z</time></trkpt><trkpt lat="53.7144231" lon="-1.9611486"><ele>281.0</ele><time>2026-04-26T09:51:42.888Z</time></trkpt><trkpt lat="53.7145296" lon="-1.9612615"><ele>281.0</ele><time>2026-04-26T09:51:43.891Z</time></trkpt><trkpt lat="53.7146345" lon="-1.9613697"><ele>279.5</ele><time>2026-04-26T09:51:44.887Z</time></trkpt><trkpt lat="53.7147371" lon="-1.961474"><ele>278.0</ele><time>2026-04-26T09:51:45.887Z</time></trkpt><trkpt lat="53.7148366" lon="-1.9615783"><ele>276.5</ele><time>2026-04-26T09:51:46.887Z</time></trkpt><trkpt lat="53.7149356" lon="-1.9616799"><ele>275.0</ele><time>2026-04-26T09:51:47.888Z</time></trkpt><trkpt lat="53.7150311" lon="-1.961781"><ele>275.0</ele><time>2026-04-26T09:51:48.886Z</time></trkpt><trkpt lat="53.7151232" lon="-1.9618847"><ele>275.0</ele><time>2026-04-26T09:51:49.888Z</time></trkpt><trkpt lat="53.7152178" lon="-1.9619901"><ele>275.0</ele><time>2026-04-26T09:51:50.887Z</time></trkpt><trkpt lat="53.7153184" lon="-1.9620992"><ele>275.0</ele><time>2026-04-26T09:51:51.887Z</time></trkpt><trkpt lat="53.7154207" lon="-1.9622091"><ele>274.75</ele><time>2026-04-26T09:51:52.889Z</time></trkpt><trkpt lat="53.7155257" lon="-1.9623243"><ele>274.5</ele><time>2026-04-26T09:51:53.894Z</time></trkpt><trkpt lat="53.715634" lon="-1.9624469"><ele>274.25</ele><time>2026-04-26T09:51:54.887Z</time></trkpt><trkpt lat="53.7157442" lon="-1.9625666"><ele>274.0</ele><time>2026-04-26T09:51:55.887Z</time></trkpt><trkpt lat="53.7158502" lon="-1.9626836"><ele>274.0</ele><time>2026-04-26T09:51:56.888Z</time></trkpt><trkpt lat="53.7159525" lon="-1.9627992"><ele>274.0</ele><time>2026-04-26T09:51:57.891Z</time></trkpt><trkpt lat="53.7160561" lon="-1.9629156"><ele>274.0</ele><time>2026-04-26T09:51:58.889Z</time></trkpt><trkpt lat="53.7161623" lon="-1.9630327"><ele>274.0</ele><time>2026-04-26T09:51:59.893Z</time></trkpt><trkpt lat="53.7162705" lon="-1.9631515"><ele>273.25</ele><time>2026-04-26T09:52:00.89Z</time></trkpt><trkpt lat="53.7163755" lon="-1.9632678"><ele>272.5</ele><time>2026-04-26T09:52:01.891Z</time></trkpt><trkpt lat="53.7164798" lon="-1.9633806"><ele>271.75</ele><time>2026-04-26T09:52:02.889Z</time></trkpt><trkpt lat="53.7165793" lon="-1.9634904"><ele>271.0</ele><time>2026-04-26T09:52:03.892Z</time></trkpt><trkpt lat="53.7166744" lon="-1.9636042"><ele>271.0</ele><time>2026-04-26T09:52:04.888Z</time></trkpt><trkpt lat="53.7167703" lon="-1.9637287"><ele>271.0</ele><time>2026-04-26T09:52:05.89Z</time></trkpt><trkpt lat="53.7168641" lon="-1.9638601"><ele>271.0</ele><time>2026-04-26T09:52:06.888Z</time></trkpt><trkpt lat="53.7169517" lon="-1.9639996"><ele>271.0</ele><time>2026-04-26T09:52:07.889Z</time></trkpt><trkpt lat="53.7170321" lon="-1.9641448"><ele>270.16666666666663</ele><time>2026-04-26T09:52:08.889Z</time></trkpt><trkpt lat="53.7170986" lon="-1.9642819"><ele>269.3333333333333</ele><time>2026-04-26T09:52:09.888Z</time></trkpt><trkpt lat="53.7171517" lon="-1.9643964"><ele>268.5</ele><time>2026-04-26T09:52:10.888Z</time></trkpt><trkpt lat="53.7171974" lon="-1.9644859"><ele>267.6666666666667</ele><time>2026-04-26T09:52:11.887Z</time></trkpt><trkpt lat="53.7172452" lon="-1.9645728"><ele>266.83333333333337</ele><time>2026-04-26T09:52:12.887Z</time></trkpt><trkpt lat="53.7173036" lon="-1.9646743"><ele>266.0</ele><time>2026-04-26T09:52:13.892Z</time></trkpt><trkpt lat="53.7173695" lon="-1.9647885"><ele>266.0</ele><time>2026-04-26T09:52:14.887Z</time></trkpt><trkpt lat="53.717442" lon="-1.9649156"><ele>266.0</ele><time>2026-04-26T09:52:15.89Z</time></trkpt><trkpt lat="53.7175179" lon="-1.9650556"><ele>266.0</ele><time>2026-04-26T09:52:16.887Z</time></trkpt><trkpt lat="53.7175929" lon="-1.9652042"><ele>266.0</ele><time>2026-04-26T09:52:17.888Z</time></trkpt><trkpt lat="53.7176713" lon="-1.9653594"><ele>265.5</ele><time>2026-04-26T09:52:18.888Z</time></trkpt><trkpt lat="53.7177511" lon="-1.9655174"><ele>265.0</ele><time>2026-04-26T09:52:19.888Z</time></trkpt><trkpt lat="53.7178359" lon="-1.9656718"><ele>264.5</ele><time>2026-04-26T09:52:20.892Z</time></trkpt><trkpt lat="53.7179252" lon="-1.9658246"><ele>264.0</ele><time>2026-04-26T09:52:21.892Z</time></trkpt><trkpt lat="53.7180152" lon="-1.9659782"><ele>265.25</ele><time>2026-04-26T09:52:22.891Z</time></trkpt><trkpt lat="53.7181043" lon="-1.9661268"><ele>266.5</ele><time>2026-04-26T09:52:23.895Z</time></trkpt><trkpt lat="53.7181934" lon="-1.9662759"><ele>267.75</ele><time>2026-04-26T09:52:24.887Z</time></trkpt><trkpt lat="53.7182822" lon="-1.9664219"><ele>269.0</ele><time>2026-04-26T09:52:25.889Z</time></trkpt><trkpt lat="53.7183682" lon="-1.966555"><ele>269.0</ele><time>2026-04-26T09:52:26.889Z</time></trkpt><trkpt lat="53.7184531" lon="-1.9666871"><ele>269.0</ele><time>2026-04-26T09:52:27.889Z</time></trkpt><trkpt lat="53.7185393" lon="-1.9668204"><ele>269.0</ele><time>2026-04-26T09:52:28.888Z</time></trkpt><trkpt lat="53.7186262" lon="-1.9669485"><ele>269.0</ele><time>2026-04-26T09:52:29.887Z</time></trkpt><trkpt lat="53.7187128" lon="-1.9670739"><ele>268.5</ele><time>2026-04-26T09:52:30.887Z</time></trkpt><trkpt lat="53.7187971" lon="-1.967199"><ele>268.0</ele><time>2026-04-26T09:52:31.89Z</time></trkpt><trkpt lat="53.7188813" lon="-1.9673266"><ele>267.5</ele><time>2026-04-26T09:52:32.89Z</time></trkpt><trkpt lat="53.7189637" lon="-1.9674613"><ele>267.0</ele><time>2026-04-26T09:52:33.896Z</time></trkpt><trkpt lat="53.7190476" lon="-1.9675955"><ele>268.0</ele><time>2026-04-26T09:52:34.889Z</time></trkpt><trkpt lat="53.7191314" lon="-1.9677259"><ele>269.0</ele><time>2026-04-26T09:52:35.89Z</time></trkpt><trkpt lat="53.7192155" lon="-1.9678563"><ele>270.0</ele><time>2026-04-26T09:52:36.888Z</time></trkpt><trkpt lat="53.7192993" lon="-1.9679885"><ele>271.0</ele><time>2026-04-26T09:52:37.889Z</time></trkpt><trkpt lat="53.7193807" lon="-1.9681201"><ele>271.0</ele><time>2026-04-26T09:52:38.889Z</time></trkpt><trkpt lat="53.7194565" lon="-1.9682483"><ele>271.0</ele><time>2026-04-26T09:52:39.891Z</time></trkpt><trkpt lat="53.7195198" lon="-1.9683579"><ele>271.0</ele><time>2026-04-26T09:52:40.891Z</time></trkpt><trkpt lat="53.7195702" lon="-1.9684385"><ele>271.0</ele><time>2026-04-26T09:52:41.887Z</time></trkpt><trkpt lat="53.7196462" lon="-1.9684524"><ele>271.0</ele><time>2026-04-26T09:52:43.896Z</time></trkpt><trkpt lat="53.7197419" lon="-1.968316"><ele>270.3333333333333</ele><time>2026-04-26T09:52:45.888Z</time></trkpt><trkpt lat="53.7197964" lon="-1.968238"><ele>269.66666666666663</ele><time>2026-04-26T09:52:46.89Z</time></trkpt><trkpt lat="53.7198577" lon="-1.9681537"><ele>269.0</ele><time>2026-04-26T09:52:47.889Z</time></trkpt><trkpt lat="53.7199147" lon="-1.9680632"><ele>268.3333333333333</ele><time>2026-04-26T09:52:48.88Z</time></trkpt><trkpt lat="53.7199632" lon="-1.9679642"><ele>267.6666666666667</ele><time>2026-04-26T09:52:49.888Z</time></trkpt><trkpt lat="53.7200048" lon="-1.9678573"><ele>267.0</ele><time>2026-04-26T09:52:50.889Z</time></trkpt><trkpt lat="53.7200328" lon="-1.9677424"><ele>267.0</ele><time>2026-04-26T09:52:51.888Z</time></trkpt><trkpt lat="53.720038" lon="-1.9676184"><ele>267.0</ele><time>2026-04-26T09:52:52.888Z</time></trkpt><trkpt lat="53.7200317" lon="-1.9674915"><ele>267.0</ele><time>2026-04-26T09:52:53.894Z</time></trkpt><trkpt lat="53.7200192" lon="-1.9673675"><ele>267.0</ele><time>2026-04-26T09:52:54.888Z</time></trkpt><trkpt lat="53.7200099" lon="-1.967252"><ele>267.0</ele><time>2026-04-26T09:52:55.892Z</time></trkpt><trkpt lat="53.7200103" lon="-1.9670654"><ele>267.0</ele><time>2026-04-26T09:52:57.889Z</time></trkpt><trkpt lat="53.7200859" lon="-1.9669835"><ele>266.1666666666667</ele><time>2026-04-26T09:52:59.888Z</time></trkpt><trkpt lat="53.7201542" lon="-1.9670017"><ele>265.3333333333333</ele><time>2026-04-26T09:53:00.889Z</time></trkpt><trkpt lat="53.7202339" lon="-1.9670554"><ele>264.5</ele><time>2026-04-26T09:53:01.89Z</time></trkpt><trkpt lat="53.7203142" lon="-1.9671195"><ele>263.66666666666663</ele><time>2026-04-26T09:53:02.888Z</time></trkpt><trkpt lat="53.7203913" lon="-1.9671759"><ele>262.8333333333333</ele><time>2026-04-26T09:53:03.893Z</time></trkpt><trkpt lat="53.7204649" lon="-1.9672239"><ele>262.0</ele><time>2026-04-26T09:53:04.89Z</time></trkpt><trkpt lat="53.7205396" lon="-1.9672646"><ele>260.66666666666663</ele><time>2026-04-26T09:53:05.89Z</time></trkpt><trkpt lat="53.7206159" lon="-1.9673044"><ele>259.3333333333333</ele><time>2026-04-26T09:53:06.883Z</time></trkpt><trkpt lat="53.7206882" lon="-1.9673526"><ele>258.0</ele><time>2026-04-26T09:53:07.888Z</time></trkpt><trkpt lat="53.7207576" lon="-1.9674059"><ele>256.6666666666667</ele><time>2026-04-26T09:53:08.889Z</time></trkpt><trkpt lat="53.7208248" lon="-1.967463"><ele>255.33333333333334</ele><time>2026-04-26T09:53:09.887Z</time></trkpt><trkpt lat="53.720891" lon="-1.9675206"><ele>254.0</ele><time>2026-04-26T09:53:10.889Z</time></trkpt><trkpt lat="53.7209613" lon="-1.9675767"><ele>254.00000000000003</ele><time>2026-04-26T09:53:11.887Z</time></trkpt><trkpt lat="53.721036" lon="-1.9676261"><ele>254.0</ele><time>2026-04-26T09:53:12.887Z</time></trkpt><trkpt lat="53.7211101" lon="-1.9676794"><ele>254.0</ele><time>2026-04-26T09:53:13.884Z</time></trkpt><trkpt lat="53.7211802" lon="-1.967748"><ele>254.0</ele><time>2026-04-26T09:53:14.888Z</time></trkpt><trkpt lat="53.7212442" lon="-1.9678323"><ele>254.00000000000003</ele><time>2026-04-26T09:53:15.889Z</time></trkpt><trkpt lat="53.7212999" lon="-1.9679129"><ele>254.0</ele><time>2026-04-26T09:53:16.887Z</time></trkpt><trkpt lat="53.7213888" lon="-1.9680325"><ele>251.16666666666669</ele><time>2026-04-26T09:53:18.888Z</time></trkpt><trkpt lat="53.7214592" lon="-1.9680346"><ele>248.33333333333334</ele><time>2026-04-26T09:53:20.885Z</time></trkpt><trkpt lat="53.7215239" lon="-1.967855"><ele>245.5</ele><time>2026-04-26T09:53:22.885Z</time></trkpt><trkpt lat="53.721557" lon="-1.9677249"><ele>242.66666666666669</ele><time>2026-04-26T09:53:23.894Z</time></trkpt><trkpt lat="53.7215951" lon="-1.9676108"><ele>239.83333333333334</ele><time>2026-04-26T09:53:24.887Z</time></trkpt><trkpt lat="53.7216333" lon="-1.967507"><ele>237.0</ele><time>2026-04-26T09:53:25.887Z</time></trkpt><trkpt lat="53.7216808" lon="-1.9674097"><ele>235.83333333333334</ele><time>2026-04-26T09:53:26.887Z</time></trkpt><trkpt lat="53.721744" lon="-1.9673218"><ele>234.66666666666669</ele><time>2026-04-26T09:53:27.888Z</time></trkpt><trkpt lat="53.7218137" lon="-1.9672363"><ele>233.5</ele><time>2026-04-26T09:53:28.887Z</time></trkpt><trkpt lat="53.7218847" lon="-1.967153"><ele>232.33333333333334</ele><time>2026-04-26T09:53:29.886Z</time></trkpt><trkpt lat="53.7219531" lon="-1.9670664"><ele>231.16666666666669</ele><time>2026-04-26T09:53:30.886Z</time></trkpt><trkpt lat="53.7220187" lon="-1.9669709"><ele>230.0</ele><time>2026-04-26T09:53:31.888Z</time></trkpt><trkpt lat="53.7220805" lon="-1.9668682"><ele>228.33333333333334</ele><time>2026-04-26T09:53:32.889Z</time></trkpt><trkpt lat="53.7221386" lon="-1.966763"><ele>226.66666666666669</ele><time>2026-04-26T09:53:33.891Z</time></trkpt><trkpt lat="53.7221924" lon="-1.966651"><ele>225.0</ele><time>2026-04-26T09:53:34.891Z</time></trkpt><trkpt lat="53.7222426" lon="-1.9665318"><ele>223.33333333333331</ele><time>2026-04-26T09:53:35.889Z</time></trkpt><trkpt lat="53.7222898" lon="-1.9664113"><ele>221.66666666666666</ele><time>2026-04-26T09:53:36.888Z</time></trkpt><trkpt lat="53.7223389" lon="-1.9662852"><ele>220.0</ele><time>2026-04-26T09:53:37.89Z</time></trkpt><trkpt lat="53.7223858" lon="-1.9661417"><ele>219.6</ele><time>2026-04-26T09:53:38.889Z</time></trkpt><trkpt lat="53.7224308" lon="-1.9659852"><ele>219.2</ele><time>2026-04-26T09:53:39.89Z</time></trkpt><trkpt lat="53.7224786" lon="-1.9658283"><ele>218.8</ele><time>2026-04-26T09:53:40.889Z</time></trkpt><trkpt lat="53.7225304" lon="-1.9656713"><ele>218.4</ele><time>2026-04-26T09:53:41.887Z</time></trkpt><trkpt lat="53.7225835" lon="-1.9655131"><ele>218.0</ele><time>2026-04-26T09:53:42.887Z</time></trkpt><trkpt lat="53.7226346" lon="-1.9653518"><ele>216.8</ele><time>2026-04-26T09:53:43.895Z</time></trkpt><trkpt lat="53.7226815" lon="-1.9651886"><ele>215.60000000000002</ele><time>2026-04-26T09:53:44.889Z</time></trkpt><trkpt lat="53.7227293" lon="-1.965028"><ele>214.39999999999998</ele><time>2026-04-26T09:53:45.889Z</time></trkpt><trkpt lat="53.7227785" lon="-1.964867"><ele>213.2</ele><time>2026-04-26T09:53:46.889Z</time></trkpt><trkpt lat="53.7228292" lon="-1.9647051"><ele>212.0</ele><time>2026-04-26T09:53:47.889Z</time></trkpt><trkpt lat="53.7228787" lon="-1.9645455"><ele>210.8</ele><time>2026-04-26T09:53:48.89Z</time></trkpt><trkpt lat="53.7229302" lon="-1.9643889"><ele>209.6</ele><time>2026-04-26T09:53:49.889Z</time></trkpt><trkpt lat="53.7229762" lon="-1.9642303"><ele>208.4</ele><time>2026-04-26T09:53:50.888Z</time></trkpt><trkpt lat="53.7230161" lon="-1.9640703"><ele>207.20000000000002</ele><time>2026-04-26T09:53:51.887Z</time></trkpt><trkpt lat="53.7230493" lon="-1.9639066"><ele>206.0</ele><time>2026-04-26T09:53:52.889Z</time></trkpt><trkpt lat="53.7230761" lon="-1.9637395"><ele>205.20000000000002</ele><time>2026-04-26T09:53:53.893Z</time></trkpt><trkpt lat="53.7230999" lon="-1.9635713"><ele>204.4</ele><time>2026-04-26T09:53:54.887Z</time></trkpt><trkpt lat="53.7231214" lon="-1.9634176"><ele>203.6</ele><time>2026-04-26T09:53:55.888Z</time></trkpt><trkpt lat="53.7231507" lon="-1.96328"><ele>202.8</ele><time>2026-04-26T09:53:56.887Z</time></trkpt><trkpt lat="53.7231891" lon="-1.9631547"><ele>202.0</ele><time>2026-04-26T09:53:57.887Z</time></trkpt><trkpt lat="53.7232359" lon="-1.9630296"><ele>201.33333333333331</ele><time>2026-04-26T09:53:58.888Z</time></trkpt><trkpt lat="53.7232838" lon="-1.9629019"><ele>200.66666666666666</ele><time>2026-04-26T09:53:59.887Z</time></trkpt><trkpt lat="53.7233263" lon="-1.9627671"><ele>200.0</ele><time>2026-04-26T09:54:00.887Z</time></trkpt><trkpt lat="53.7233572" lon="-1.9626304"><ele>199.33333333333331</ele><time>2026-04-26T09:54:01.888Z</time></trkpt><trkpt lat="53.7233728" lon="-1.9624917"><ele>198.66666666666666</ele><time>2026-04-26T09:54:02.889Z</time></trkpt><trkpt lat="53.7233708" lon="-1.9623535"><ele>198.0</ele><time>2026-04-26T09:54:03.895Z</time></trkpt><trkpt lat="53.723355" lon="-1.9622026"><ele>197.2</ele><time>2026-04-26T09:54:04.889Z</time></trkpt><trkpt lat="53.7233282" lon="-1.9620409"><ele>196.4</ele><time>2026-04-26T09:54:05.89Z</time></trkpt><trkpt lat="53.7233091" lon="-1.9618819"><ele>195.6</ele><time>2026-04-26T09:54:06.889Z</time></trkpt><trkpt lat="53.7233061" lon="-1.9617385"><ele>194.79999999999998</ele><time>2026-04-26T09:54:07.891Z</time></trkpt><trkpt lat="53.7233071" lon="-1.9616241"><ele>194.0</ele><time>2026-04-26T09:54:08.889Z</time></trkpt><trkpt lat="53.7233286" lon="-1.9614544"><ele>193.16666666666669</ele><time>2026-04-26T09:54:10.89Z</time></trkpt><trkpt lat="53.7233762" lon="-1.961372"><ele>192.33333333333334</ele><time>2026-04-26T09:54:12.886Z</time></trkpt><trkpt lat="53.723481" lon="-1.9613888"><ele>191.5</ele><time>2026-04-26T09:54:14.887Z</time></trkpt><trkpt lat="53.7235535" lon="-1.9614161"><ele>190.66666666666669</ele><time>2026-04-26T09:54:15.889Z</time></trkpt><trkpt lat="53.7236289" lon="-1.9614402"><ele>189.83333333333334</ele><time>2026-04-26T09:54:16.886Z</time></trkpt><trkpt lat="53.7237145" lon="-1.9614762"><ele>189.0</ele><time>2026-04-26T09:54:17.887Z</time></trkpt><trkpt lat="53.7238051" lon="-1.9615313"><ele>189.39999999999998</ele><time>2026-04-26T09:54:18.888Z</time></trkpt><trkpt lat="53.7239008" lon="-1.961593"><ele>189.8</ele><time>2026-04-26T09:54:19.886Z</time></trkpt><trkpt lat="53.7239992" lon="-1.9616583"><ele>190.2</ele><time>2026-04-26T09:54:20.89Z</time></trkpt><trkpt lat="53.7240978" lon="-1.9617301"><ele>190.60000000000002</ele><time>2026-04-26T09:54:21.888Z</time></trkpt><trkpt lat="53.7241933" lon="-1.9618078"><ele>191.0</ele><time>2026-04-26T09:54:22.888Z</time></trkpt><trkpt lat="53.7242876" lon="-1.9618877"><ele>191.0</ele><time>2026-04-26T09:54:23.895Z</time></trkpt><trkpt lat="53.7243842" lon="-1.961973"><ele>191.0</ele><time>2026-04-26T09:54:24.886Z</time></trkpt><trkpt lat="53.7244731" lon="-1.9620511"><ele>191.0</ele><time>2026-04-26T09:54:25.887Z</time></trkpt><trkpt lat="53.7245489" lon="-1.962132"><ele>191.0</ele><time>2026-04-26T09:54:26.888Z</time></trkpt><trkpt lat="53.7246139" lon="-1.9622322"><ele>191.0</ele><time>2026-04-26T09:54:27.887Z</time></trkpt><trkpt lat="53.7246689" lon="-1.9623562"><ele>188.75</ele><time>2026-04-26T09:54:28.888Z</time></trkpt><trkpt lat="53.7247183" lon="-1.9625003"><ele>186.5</ele><time>2026-04-26T09:54:29.888Z</time></trkpt><trkpt lat="53.7247721" lon="-1.9626503"><ele>184.25</ele><time>2026-04-26T09:54:30.888Z</time></trkpt><trkpt lat="53.72488" lon="-1.96294"><ele>182.0</ele><time>2026-04-26T09:54:32.891Z</time></trkpt><trkpt lat="53.7249389" lon="-1.963092"><ele>182.0</ele><time>2026-04-26T09:54:33.897Z</time></trkpt><trkpt lat="53.7250001" lon="-1.963246"><ele>182.0</ele><time>2026-04-26T09:54:34.89Z</time></trkpt><trkpt lat="53.7250608" lon="-1.9634021"><ele>182.0</ele><time>2026-04-26T09:54:35.89Z</time></trkpt><trkpt lat="53.7251191" lon="-1.9635597"><ele>182.0</ele><time>2026-04-26T09:54:36.889Z</time></trkpt><trkpt lat="53.7251782" lon="-1.9637164"><ele>182.0</ele><time>2026-04-26T09:54:37.89Z</time></trkpt><trkpt lat="53.7252425" lon="-1.9638701"><ele>179.75</ele><time>2026-04-26T09:54:38.892Z</time></trkpt><trkpt lat="53.7253078" lon="-1.964029"><ele>177.5</ele><time>2026-04-26T09:54:39.886Z</time></trkpt><trkpt lat="53.7253719" lon="-1.9641941"><ele>175.25</ele><time>2026-04-26T09:54:40.887Z</time></trkpt><trkpt lat="53.725436" lon="-1.9643619"><ele>173.0</ele><time>2026-04-26T09:54:41.888Z</time></trkpt><trkpt lat="53.7255007" lon="-1.9645267"><ele>173.0</ele><time>2026-04-26T09:54:42.888Z</time></trkpt><trkpt lat="53.725568" lon="-1.9646894"><ele>173.0</ele><time>2026-04-26T09:54:43.894Z</time></trkpt><trkpt lat="53.7256338" lon="-1.9648481"><ele>173.0</ele><time>2026-04-26T09:54:44.889Z</time></trkpt><trkpt lat="53.7256958" lon="-1.9649967"><ele>173.0</ele><time>2026-04-26T09:54:45.887Z</time></trkpt><trkpt lat="53.7257574" lon="-1.965132"><ele>173.0</ele><time>2026-04-26T09:54:46.888Z</time></trkpt><trkpt lat="53.7258141" lon="-1.9652618"><ele>175.0</ele><time>2026-04-26T09:54:47.887Z</time></trkpt><trkpt lat="53.7258677" lon="-1.9653979"><ele>177.0</ele><time>2026-04-26T09:54:48.888Z</time></trkpt><trkpt lat="53.7259222" lon="-1.9655408"><ele>179.0</ele><time>2026-04-26T09:54:49.889Z</time></trkpt><trkpt lat="53.7259794" lon="-1.9656889"><ele>181.0</ele><time>2026-04-26T09:54:50.891Z</time></trkpt><trkpt lat="53.7260334" lon="-1.9658438"><ele>183.0</ele><time>2026-04-26T09:54:51.888Z</time></trkpt><trkpt lat="53.7260808" lon="-1.9660062"><ele>178.4</ele><time>2026-04-26T09:54:52.888Z</time></trkpt><trkpt lat="53.7261248" lon="-1.9661751"><ele>173.8</ele><time>2026-04-26T09:54:53.892Z</time></trkpt><trkpt lat="53.7261682" lon="-1.9663485"><ele>169.2</ele><time>2026-04-26T09:54:54.889Z</time></trkpt><trkpt lat="53.7262098" lon="-1.9665242"><ele>164.6</ele><time>2026-04-26T09:54:55.888Z</time></trkpt><trkpt lat="53.7262485" lon="-1.966702"><ele>160.0</ele><time>2026-04-26T09:54:56.893Z</time></trkpt><trkpt lat="53.7262885" lon="-1.9668834"><ele>160.0</ele><time>2026-04-26T09:54:57.891Z</time></trkpt><trkpt lat="53.7263343" lon="-1.9670683"><ele>160.0</ele><time>2026-04-26T09:54:58.89Z</time></trkpt><trkpt lat="53.7263789" lon="-1.9672572"><ele>160.0</ele><time>2026-04-26T09:54:59.888Z</time></trkpt><trkpt lat="53.7264226" lon="-1.9674494"><ele>160.0</ele><time>2026-04-26T09:55:00.887Z</time></trkpt><trkpt lat="53.7264656" lon="-1.9676417"><ele>159.8</ele><time>2026-04-26T09:55:01.884Z</time></trkpt><trkpt lat="53.7265072" lon="-1.9678303"><ele>159.6</ele><time>2026-04-26T09:55:02.885Z</time></trkpt><trkpt lat="53.7265469" lon="-1.968014"><ele>159.4</ele><time>2026-04-26T09:55:03.889Z</time></trkpt><trkpt lat="53.7265812" lon="-1.9681875"><ele>159.2</ele><time>2026-04-26T09:55:04.885Z</time></trkpt><trkpt lat="53.7266108" lon="-1.9683471"><ele>159.0</ele><time>2026-04-26T09:55:05.885Z</time></trkpt><trkpt lat="53.7266355" lon="-1.9685033"><ele>159.0</ele><time>2026-04-26T09:55:06.884Z</time></trkpt><trkpt lat="53.7266502" lon="-1.9686538"><ele>159.0</ele><time>2026-04-26T09:55:07.887Z</time></trkpt><trkpt lat="53.7266501" lon="-1.9688093"><ele>159.0</ele><time>2026-04-26T09:55:08.886Z</time></trkpt><trkpt lat="53.7266293" lon="-1.9689725"><ele>159.0</ele><time>2026-04-26T09:55:09.886Z</time></trkpt><trkpt lat="53.7265878" lon="-1.9691415"><ele>159.0</ele><time>2026-04-26T09:55:10.878Z</time></trkpt><trkpt lat="53.7265478" lon="-1.9693137"><ele>157.8</ele><time>2026-04-26T09:55:11.883Z</time></trkpt><trkpt lat="53.7265238" lon="-1.9694961"><ele>156.60000000000002</ele><time>2026-04-26T09:55:12.884Z</time></trkpt><trkpt lat="53.7265125" lon="-1.9696879"><ele>155.4</ele><time>2026-04-26T09:55:13.89Z</time></trkpt><trkpt lat="53.7265076" lon="-1.9698781"><ele>154.20000000000002</ele><time>2026-04-26T09:55:14.887Z</time></trkpt><trkpt lat="53.7265089" lon="-1.9700631"><ele>153.0</ele><time>2026-04-26T09:55:15.886Z</time></trkpt><trkpt lat="53.7265216" lon="-1.9702334"><ele>152.33333333333334</ele><time>2026-04-26T09:55:16.884Z</time></trkpt><trkpt lat="53.7265509" lon="-1.970386"><ele>151.66666666666666</ele><time>2026-04-26T09:55:17.885Z</time></trkpt><trkpt lat="53.7266007" lon="-1.9705263"><ele>151.0</ele><time>2026-04-26T09:55:18.89Z</time></trkpt><trkpt lat="53.7266533" lon="-1.9706495"><ele>150.33333333333331</ele><time>2026-04-26T09:55:19.888Z</time></trkpt><trkpt lat="53.7266988" lon="-1.9707707"><ele>149.66666666666666</ele><time>2026-04-26T09:55:20.888Z</time></trkpt><trkpt lat="53.7267317" lon="-1.9708967"><ele>149.0</ele><time>2026-04-26T09:55:21.89Z</time></trkpt><trkpt lat="53.7267387" lon="-1.9710295"><ele>148.4</ele><time>2026-04-26T09:55:22.888Z</time></trkpt><trkpt lat="53.7267171" lon="-1.9711683"><ele>147.8</ele><time>2026-04-26T09:55:23.887Z</time></trkpt><trkpt lat="53.726681" lon="-1.9713095"><ele>147.2</ele><time>2026-04-26T09:55:24.886Z</time></trkpt><trkpt lat="53.7266328" lon="-1.9714646"><ele>146.6</ele><time>2026-04-26T09:55:25.887Z</time></trkpt><trkpt lat="53.7265916" lon="-1.9716266"><ele>146.0</ele><time>2026-04-26T09:55:26.885Z</time></trkpt><trkpt lat="53.7265648" lon="-1.9717917"><ele>145.8</ele><time>2026-04-26T09:55:27.886Z</time></trkpt><trkpt lat="53.7265718" lon="-1.971956"><ele>145.6</ele><time>2026-04-26T09:55:28.885Z</time></trkpt><trkpt lat="53.7266125" lon="-1.9721162"><ele>145.4</ele><time>2026-04-26T09:55:29.886Z</time></trkpt><trkpt lat="53.7266658" lon="-1.9722681"><ele>145.2</ele><time>2026-04-26T09:55:30.886Z</time></trkpt><trkpt lat="53.7267204" lon="-1.9724006"><ele>145.0</ele><time>2026-04-26T09:55:31.883Z</time></trkpt><trkpt lat="53.7267808" lon="-1.9725178"><ele>145.0</ele><time>2026-04-26T09:55:32.885Z</time></trkpt><trkpt lat="53.7268472" lon="-1.9726309"><ele>145.0</ele><time>2026-04-26T09:55:33.886Z</time></trkpt><trkpt lat="53.7268989" lon="-1.9727543"><ele>145.0</ele><time>2026-04-26T09:55:34.884Z</time></trkpt><trkpt lat="53.7269245" lon="-1.9728914"><ele>145.0</ele><time>2026-04-26T09:55:35.886Z</time></trkpt><trkpt lat="53.7269281" lon="-1.9730337"><ele>145.0</ele><time>2026-04-26T09:55:36.887Z</time></trkpt><trkpt lat="53.7269222" lon="-1.9731789"><ele>145.0</ele><time>2026-04-26T09:55:37.884Z</time></trkpt><trkpt lat="53.7269191" lon="-1.9733265"><ele>138.6</ele><time>2026-04-26T09:55:38.885Z</time></trkpt><trkpt lat="53.7269204" lon="-1.9734766"><ele>132.2</ele><time>2026-04-26T09:55:39.885Z</time></trkpt><trkpt lat="53.7269258" lon="-1.973628"><ele>125.80000000000001</ele><time>2026-04-26T09:55:40.884Z</time></trkpt><trkpt lat="53.7269346" lon="-1.973789"><ele>119.4</ele><time>2026-04-26T09:55:41.886Z</time></trkpt><trkpt lat="53.7269439" lon="-1.973953"><ele>113.0</ele><time>2026-04-26T09:55:42.887Z</time></trkpt><trkpt lat="53.726953" lon="-1.9741219"><ele>112.4</ele><time>2026-04-26T09:55:43.895Z</time></trkpt><trkpt lat="53.7269634" lon="-1.974291"><ele>111.80000000000001</ele><time>2026-04-26T09:55:44.883Z</time></trkpt><trkpt lat="53.7269738" lon="-1.9744527"><ele>111.2</ele><time>2026-04-26T09:55:45.888Z</time></trkpt><trkpt lat="53.726983" lon="-1.9746012"><ele>110.6</ele><time>2026-04-26T09:55:46.888Z</time></trkpt><trkpt lat="53.7269925" lon="-1.9747262"><ele>110.0</ele><time>2026-04-26T09:55:47.885Z</time></trkpt><trkpt lat="53.7269962" lon="-1.9748803"><ele>109.99999999999999</ele><time>2026-04-26T09:55:49.886Z</time></trkpt><trkpt lat="53.7269855" lon="-1.9749931"><ele>110.0</ele><time>2026-04-26T09:57:06.889Z</time></trkpt><trkpt lat="53.7269883" lon="-1.9751209"><ele>110.0</ele><time>2026-04-26T09:57:08.889Z</time></trkpt><trkpt lat="53.7269779" lon="-1.975247"><ele>110.0</ele><time>2026-04-26T09:57:10.887Z</time></trkpt><trkpt lat="53.7269759" lon="-1.9753713"><ele>109.99999999999999</ele><time>2026-04-26T09:57:12.886Z</time></trkpt><trkpt lat="53.72699" lon="-1.9755524"><ele>110.0</ele><time>2026-04-26T09:57:14.888Z</time></trkpt><trkpt lat="53.7269918" lon="-1.9756638"><ele>109.4</ele><time>2026-04-26T09:57:15.886Z</time></trkpt><trkpt lat="53.7269965" lon="-1.9759669"><ele>108.8</ele><time>2026-04-26T09:57:18.887Z</time></trkpt><trkpt lat="53.7269971" lon="-1.9761807"><ele>108.19999999999999</ele><time>2026-04-26T09:57:20.887Z</time></trkpt><trkpt lat="53.7269944" lon="-1.9762872"><ele>107.6</ele><time>2026-04-26T09:57:21.886Z</time></trkpt><trkpt lat="53.7269951" lon="-1.9763969"><ele>107.0</ele><time>2026-04-26T09:57:22.887Z</time></trkpt><trkpt lat="53.7269956" lon="-1.976505"><ele>107.0</ele><time>2026-04-26T09:57:23.889Z</time></trkpt><trkpt lat="53.727018" lon="-1.9766825"><ele>106.99999999999999</ele><time>2026-04-26T09:57:25.888Z</time></trkpt><trkpt lat="53.7270465" lon="-1.9768252"><ele>106.99999999999999</ele><time>2026-04-26T09:57:27.888Z</time></trkpt><trkpt lat="53.7270769" lon="-1.9769558"><ele>107.0</ele><time>2026-04-26T09:57:29.886Z</time></trkpt><trkpt lat="53.7271059" lon="-1.9770839"><ele>107.0</ele><time>2026-04-26T09:57:31.887Z</time></trkpt><trkpt lat="53.7271398" lon="-1.9772385"><ele>106.19999999999999</ele><time>2026-04-26T09:57:33.891Z</time></trkpt><trkpt lat="53.727184" lon="-1.9773988"><ele>105.39999999999999</ele><time>2026-04-26T09:57:35.887Z</time></trkpt><trkpt lat="53.727231" lon="-1.977558"><ele>104.6</ele><time>2026-04-26T09:57:37.885Z</time></trkpt><trkpt lat="53.7272765" lon="-1.9777244"><ele>103.80000000000001</ele><time>2026-04-26T09:57:39.886Z</time></trkpt><trkpt lat="53.7272926" lon="-1.9779077"><ele>103.0</ele><time>2026-04-26T09:57:41.886Z</time></trkpt><trkpt lat="53.7273087" lon="-1.9781094"><ele>102.28571428571428</ele><time>2026-04-26T09:57:43.89Z</time></trkpt><trkpt lat="53.7273179" lon="-1.9782279"><ele>101.57142857142857</ele><time>2026-04-26T09:57:44.886Z</time></trkpt><trkpt lat="53.7273283" lon="-1.9783402"><ele>100.85714285714286</ele><time>2026-04-26T09:57:45.886Z</time></trkpt><trkpt lat="53.7273379" lon="-1.9784506"><ele>100.14285714285714</ele><time>2026-04-26T09:57:46.886Z</time></trkpt><trkpt lat="53.7273433" lon="-1.9785606"><ele>99.42857142857143</ele><time>2026-04-26T09:57:47.885Z</time></trkpt><trkpt lat="53.7273494" lon="-1.9786708"><ele>98.71428571428571</ele><time>2026-04-26T09:57:48.886Z</time></trkpt><trkpt lat="53.7273553" lon="-1.9787815"><ele>98.0</ele><time>2026-04-26T09:57:49.879Z</time></trkpt><trkpt lat="53.7273607" lon="-1.9788918"><ele>97.66666666666666</ele><time>2026-04-26T09:57:50.885Z</time></trkpt><trkpt lat="53.7273704" lon="-1.9790089"><ele>97.33333333333333</ele><time>2026-04-26T09:57:51.884Z</time></trkpt><trkpt lat="53.7273825" lon="-1.9791405"><ele>97.0</ele><time>2026-04-26T09:57:52.885Z</time></trkpt><trkpt lat="53.7273932" lon="-1.9792827"><ele>96.66666666666666</ele><time>2026-04-26T09:57:53.887Z</time></trkpt><trkpt lat="53.7274032" lon="-1.9794346"><ele>96.33333333333333</ele><time>2026-04-26T09:57:54.884Z</time></trkpt><trkpt lat="53.7274152" lon="-1.9795867"><ele>96.0</ele><time>2026-04-26T09:57:55.886Z</time></trkpt><trkpt lat="53.7274243" lon="-1.9797222"><ele>96.0</ele><time>2026-04-26T09:57:56.882Z</time></trkpt><trkpt lat="53.7274303" lon="-1.9798408"><ele>96.0</ele><time>2026-04-26T09:57:57.885Z</time></trkpt><trkpt lat="53.7274425" lon="-1.9800538"><ele>96.0</ele><time>2026-04-26T09:57:59.886Z</time></trkpt><trkpt lat="53.7274517" lon="-1.980168"><ele>96.0</ele><time>2026-04-26T09:58:00.885Z</time></trkpt><trkpt lat="53.7274602" lon="-1.9802878"><ele>96.0</ele><time>2026-04-26T09:58:01.887Z</time></trkpt><trkpt lat="53.7274699" lon="-1.9803983"><ele>96.0</ele><time>2026-04-26T09:58:02.886Z</time></trkpt><trkpt lat="53.727485" lon="-1.9805991"><ele>96.0</ele><time>2026-04-26T09:58:04.885Z</time></trkpt><trkpt lat="53.727493" lon="-1.9807925"><ele>96.0</ele><time>2026-04-26T09:58:06.885Z</time></trkpt><trkpt lat="53.7275057" lon="-1.9809647"><ele>96.0</ele><time>2026-04-26T09:58:08.887Z</time></trkpt><trkpt lat="53.7275256" lon="-1.9811373"><ele>96.0</ele><time>2026-04-26T09:58:10.885Z</time></trkpt><trkpt lat="53.7275477" lon="-1.9813162"><ele>96.0</ele><time>2026-04-26T09:58:12.884Z</time></trkpt><trkpt lat="53.7275723" lon="-1.9815235"><ele>95.83333333333333</ele><time>2026-04-26T09:58:14.883Z</time></trkpt><trkpt lat="53.7275921" lon="-1.9816427"><ele>95.66666666666667</ele><time>2026-04-26T09:58:15.885Z</time></trkpt><trkpt lat="53.7276147" lon="-1.9817696"><ele>95.5</ele><time>2026-04-26T09:58:16.886Z</time></trkpt><trkpt lat="53.727641" lon="-1.9818961"><ele>95.33333333333334</ele><time>2026-04-26T09:58:17.885Z</time></trkpt><trkpt lat="53.7276706" lon="-1.9820165"><ele>95.16666666666667</ele><time>2026-04-26T09:58:18.883Z</time></trkpt><trkpt lat="53.7277053" lon="-1.9821327"><ele>95.0</ele><time>2026-04-26T09:58:19.884Z</time></trkpt><trkpt lat="53.7277456" lon="-1.9822386"><ele>95.0</ele><time>2026-04-26T09:58:20.885Z</time></trkpt><trkpt lat="53.7277938" lon="-1.9823308"><ele>95.0</ele><time>2026-04-26T09:58:21.886Z</time></trkpt><trkpt lat="53.7278438" lon="-1.9824187"><ele>95.0</ele><time>2026-04-26T09:58:22.885Z</time></trkpt><trkpt lat="53.7278961" lon="-1.9825109"><ele>95.0</ele><time>2026-04-26T09:58:23.886Z</time></trkpt><trkpt lat="53.7279488" lon="-1.982603"><ele>95.0</ele><time>2026-04-26T09:58:24.884Z</time></trkpt><trkpt lat="53.7279954" lon="-1.9826952"><ele>95.0</ele><time>2026-04-26T09:58:25.885Z</time></trkpt><trkpt lat="53.7280369" lon="-1.9827787"><ele>95.0</ele><time>2026-04-26T09:58:26.886Z</time></trkpt><trkpt lat="53.728106" lon="-1.9829033"><ele>95.16666666666667</ele><time>2026-04-26T09:58:28.885Z</time></trkpt><trkpt lat="53.728158" lon="-1.982978"><ele>95.33333333333334</ele><time>2026-04-26T09:58:30.889Z</time></trkpt><trkpt lat="53.7282205" lon="-1.9830418"><ele>95.5</ele><time>2026-04-26T09:58:32.888Z</time></trkpt><trkpt lat="53.7283144" lon="-1.9830844"><ele>95.66666666666667</ele><time>2026-04-26T09:58:34.886Z</time></trkpt><trkpt lat="53.7284181" lon="-1.9831031"><ele>95.83333333333333</ele><time>2026-04-26T09:58:36.887Z</time></trkpt><trkpt lat="53.728493" lon="-1.983117"><ele>96.0</ele><time>2026-04-26T09:58:38.888Z</time></trkpt><trkpt lat="53.7285673" lon="-1.9831505"><ele>96.0</ele><time>2026-04-26T09:58:41.884Z</time></trkpt><trkpt lat="53.7286101" lon="-1.9832374"><ele>96.0</ele><time>2026-04-26T09:58:50.888Z</time></trkpt><trkpt lat="53.7286363" lon="-1.9834124"><ele>96.0</ele><time>2026-04-26T09:58:52.887Z</time></trkpt><trkpt lat="53.7285898" lon="-1.9835926"><ele>96.0</ele><time>2026-04-26T09:58:54.889Z</time></trkpt><trkpt lat="53.7285405" lon="-1.9837518"><ele>96.0</ele><time>2026-04-26T09:58:56.888Z</time></trkpt><trkpt lat="53.7285105" lon="-1.9838826"><ele>97.16666666666667</ele><time>2026-04-26T09:58:58.888Z</time></trkpt><trkpt lat="53.7284936" lon="-1.9840326"><ele>98.33333333333334</ele><time>2026-04-26T09:59:00.889Z</time></trkpt><trkpt lat="53.7284761" lon="-1.9842403"><ele>99.5</ele><time>2026-04-26T09:59:02.888Z</time></trkpt><trkpt lat="53.7284629" lon="-1.9843566"><ele>100.66666666666667</ele><time>2026-04-26T09:59:03.891Z</time></trkpt><trkpt lat="53.7284539" lon="-1.9844714"><ele>101.83333333333334</ele><time>2026-04-26T09:59:04.891Z</time></trkpt><trkpt lat="53.7284491" lon="-1.9845858"><ele>103.0</ele><time>2026-04-26T09:59:05.893Z</time></trkpt><trkpt lat="53.7284464" lon="-1.9847012"><ele>103.00000000000001</ele><time>2026-04-26T09:59:06.889Z</time></trkpt><trkpt lat="53.7284455" lon="-1.9848185"><ele>103.0</ele><time>2026-04-26T09:59:07.884Z</time></trkpt><trkpt lat="53.7284463" lon="-1.9849383"><ele>103.0</ele><time>2026-04-26T09:59:08.885Z</time></trkpt><trkpt lat="53.7284506" lon="-1.985054"><ele>103.0</ele><time>2026-04-26T09:59:09.886Z</time></trkpt><trkpt lat="53.7284549" lon="-1.985162"><ele>103.00000000000001</ele><time>2026-04-26T09:59:10.887Z</time></trkpt><trkpt lat="53.7284679" lon="-1.9853489"><ele>103.0</ele><time>2026-04-26T09:59:12.884Z</time></trkpt><trkpt lat="53.7284801" lon="-1.9854944"><ele>102.50000000000001</ele><time>2026-04-26T09:59:14.885Z</time></trkpt><trkpt lat="53.7284925" lon="-1.9856239"><ele>102.0</ele><time>2026-04-26T09:59:16.884Z</time></trkpt><trkpt lat="53.7284938" lon="-1.9857453"><ele>101.5</ele><time>2026-04-26T09:59:18.887Z</time></trkpt><trkpt lat="53.7284997" lon="-1.9859471"><ele>101.0</ele><time>2026-04-26T09:59:20.887Z</time></trkpt><trkpt lat="53.7284972" lon="-1.9860773"><ele>100.50000000000001</ele><time>2026-04-26T09:59:21.886Z</time></trkpt><trkpt lat="53.7284845" lon="-1.9862031"><ele>100.0</ele><time>2026-04-26T09:59:22.888Z</time></trkpt><trkpt lat="53.7284601" lon="-1.9863119"><ele>99.75</ele><time>2026-04-26T09:59:23.89Z</time></trkpt><trkpt lat="53.7284224" lon="-1.9865102"><ele>99.5</ele><time>2026-04-26T09:59:25.887Z</time></trkpt><trkpt lat="53.7285002" lon="-1.9866749"><ele>99.25</ele><time>2026-04-26T09:59:27.886Z</time></trkpt><trkpt lat="53.7285958" lon="-1.9867283"><ele>99.0</ele><time>2026-04-26T09:59:28.887Z</time></trkpt><trkpt lat="53.7286951" lon="-1.9867762"><ele>100.6</ele><time>2026-04-26T09:59:29.884Z</time></trkpt><trkpt lat="53.7287776" lon="-1.986819"><ele>102.2</ele><time>2026-04-26T09:59:30.884Z</time></trkpt><trkpt lat="53.7288375" lon="-1.9869338"><ele>103.79999999999998</ele><time>2026-04-26T09:59:32.889Z</time></trkpt><trkpt lat="53.7287309" lon="-1.9871086"><ele>105.39999999999999</ele><time>2026-04-26T09:59:34.885Z</time></trkpt><trkpt lat="53.7286526" lon="-1.9872358"><ele>107.0</ele><time>2026-04-26T09:59:35.888Z</time></trkpt><trkpt lat="53.7285806" lon="-1.987383"><ele>106.8</ele><time>2026-04-26T09:59:36.887Z</time></trkpt><trkpt lat="53.7285249" lon="-1.987538"><ele>106.6</ele><time>2026-04-26T09:59:37.886Z</time></trkpt><trkpt lat="53.7284917" lon="-1.9876977"><ele>106.39999999999999</ele><time>2026-04-26T09:59:38.89Z</time></trkpt><trkpt lat="53.728478" lon="-1.9878758"><ele>106.19999999999999</ele><time>2026-04-26T09:59:39.885Z</time></trkpt><trkpt lat="53.7284848" lon="-1.9880408"><ele>106.0</ele><time>2026-04-26T09:59:40.886Z</time></trkpt><trkpt lat="53.7284948" lon="-1.9881859"><ele>106.0</ele><time>2026-04-26T09:59:41.886Z</time></trkpt><trkpt lat="53.728514" lon="-1.9883207"><ele>106.0</ele><time>2026-04-26T09:59:42.886Z</time></trkpt><trkpt lat="53.7285532" lon="-1.9884512"><ele>106.0</ele><time>2026-04-26T09:59:43.889Z</time></trkpt><trkpt lat="53.7286092" lon="-1.9885845"><ele>106.0</ele><time>2026-04-26T09:59:44.886Z</time></trkpt><trkpt lat="53.728673" lon="-1.9887213"><ele>106.0</ele><time>2026-04-26T09:59:45.886Z</time></trkpt><trkpt lat="53.7287375" lon="-1.9888645"><ele>107.0</ele><time>2026-04-26T09:59:46.887Z</time></trkpt><trkpt lat="53.7288" lon="-1.9890119"><ele>108.0</ele><time>2026-04-26T09:59:47.887Z</time></trkpt><trkpt lat="53.7288618" lon="-1.989159"><ele>109.0</ele><time>2026-04-26T09:59:48.888Z</time></trkpt><trkpt lat="53.7289168" lon="-1.9892982"><ele>110.0</ele><time>2026-04-26T09:59:49.885Z</time></trkpt><trkpt lat="53.7289626" lon="-1.9894245"><ele>111.0</ele><time>2026-04-26T09:59:50.886Z</time></trkpt><trkpt lat="53.729006" lon="-1.9895502"><ele>111.6</ele><time>2026-04-26T09:59:51.885Z</time></trkpt><trkpt lat="53.7290495" lon="-1.9896907"><ele>112.19999999999999</ele><time>2026-04-26T09:59:52.886Z</time></trkpt><trkpt lat="53.7290892" lon="-1.9898543"><ele>112.80000000000001</ele><time>2026-04-26T09:59:53.89Z</time></trkpt><trkpt lat="53.7291218" lon="-1.9900418"><ele>113.4</ele><time>2026-04-26T09:59:54.887Z</time></trkpt><trkpt lat="53.7291498" lon="-1.9902413"><ele>114.0</ele><time>2026-04-26T09:59:55.887Z</time></trkpt><trkpt lat="53.7291791" lon="-1.9904254"><ele>114.80000000000001</ele><time>2026-04-26T09:59:56.887Z</time></trkpt><trkpt lat="53.7292124" lon="-1.9905871"><ele>115.60000000000001</ele><time>2026-04-26T09:59:57.887Z</time></trkpt><trkpt lat="53.7292413" lon="-1.9907187"><ele>116.4</ele><time>2026-04-26T09:59:58.886Z</time></trkpt><trkpt lat="53.7292677" lon="-1.9908176"><ele>117.2</ele><time>2026-04-26T09:59:59.887Z</time></trkpt><trkpt lat="53.7293421" lon="-1.9910003"><ele>118.0</ele><time>2026-04-26T10:00:01.878Z</time></trkpt><trkpt lat="53.7293981" lon="-1.9911116"><ele>118.0</ele><time>2026-04-26T10:00:02.883Z</time></trkpt><trkpt lat="53.7294636" lon="-1.9912442"><ele>118.00000000000001</ele><time>2026-04-26T10:00:03.886Z</time></trkpt><trkpt lat="53.7295278" lon="-1.9913962"><ele>118.00000000000001</ele><time>2026-04-26T10:00:04.883Z</time></trkpt><trkpt lat="53.7295764" lon="-1.9915619"><ele>118.0</ele><time>2026-04-26T10:00:05.882Z</time></trkpt><trkpt lat="53.7296102" lon="-1.9917367"><ele>118.0</ele><time>2026-04-26T10:00:06.884Z</time></trkpt><trkpt lat="53.7296325" lon="-1.9919166"><ele>119.0</ele><time>2026-04-26T10:00:07.882Z</time></trkpt><trkpt lat="53.7296487" lon="-1.9921052"><ele>120.0</ele><time>2026-04-26T10:00:08.883Z</time></trkpt><trkpt lat="53.7296605" lon="-1.9923073"><ele>121.0</ele><time>2026-04-26T10:00:09.883Z</time></trkpt><trkpt lat="53.7296681" lon="-1.9925015"><ele>122.0</ele><time>2026-04-26T10:00:10.882Z</time></trkpt><trkpt lat="53.7296662" lon="-1.9926809"><ele>122.83333333333333</ele><time>2026-04-26T10:00:11.886Z</time></trkpt><trkpt lat="53.7296597" lon="-1.992848"><ele>123.66666666666666</ele><time>2026-04-26T10:00:12.888Z</time></trkpt><trkpt lat="53.7296552" lon="-1.9930022"><ele>124.5</ele><time>2026-04-26T10:00:13.891Z</time></trkpt><trkpt lat="53.7296563" lon="-1.993139"><ele>125.33333333333334</ele><time>2026-04-26T10:00:14.887Z</time></trkpt><trkpt lat="53.7296596" lon="-1.9932536"><ele>126.16666666666667</ele><time>2026-04-26T10:00:15.886Z</time></trkpt><trkpt lat="53.7296676" lon="-1.993423"><ele>127.0</ele><time>2026-04-26T10:00:17.885Z</time></trkpt><trkpt lat="53.729669" lon="-1.9935913"><ele>127.8</ele><time>2026-04-26T10:00:19.886Z</time></trkpt><trkpt lat="53.7296425" lon="-1.9938005"><ele>128.6</ele><time>2026-04-26T10:00:21.886Z</time></trkpt><trkpt lat="53.7296071" lon="-1.9939193"><ele>129.39999999999998</ele><time>2026-04-26T10:00:22.886Z</time></trkpt><trkpt lat="53.7295562" lon="-1.99405"><ele>130.2</ele><time>2026-04-26T10:00:23.886Z</time></trkpt><trkpt lat="53.7295007" lon="-1.9941896"><ele>131.0</ele><time>2026-04-26T10:00:24.884Z</time></trkpt><trkpt lat="53.7294466" lon="-1.9943259"><ele>133.6</ele><time>2026-04-26T10:00:25.885Z</time></trkpt><trkpt lat="53.7293915" lon="-1.9944642"><ele>136.2</ele><time>2026-04-26T10:00:26.885Z</time></trkpt><trkpt lat="53.729337" lon="-1.9946"><ele>138.8</ele><time>2026-04-26T10:00:27.886Z</time></trkpt><trkpt lat="53.7292891" lon="-1.9947362"><ele>141.4</ele><time>2026-04-26T10:00:28.885Z</time></trkpt><trkpt lat="53.7292561" lon="-1.99488"><ele>144.0</ele><time>2026-04-26T10:00:29.885Z</time></trkpt><trkpt lat="53.7292423" lon="-1.9950322"><ele>144.8</ele><time>2026-04-26T10:00:30.886Z</time></trkpt><trkpt lat="53.7292441" lon="-1.9951918"><ele>145.60000000000002</ele><time>2026-04-26T10:00:31.884Z</time></trkpt><trkpt lat="53.7292536" lon="-1.9953554"><ele>146.4</ele><time>2026-04-26T10:00:32.884Z</time></trkpt><trkpt lat="53.7292585" lon="-1.9955193"><ele>147.20000000000002</ele><time>2026-04-26T10:00:33.883Z</time></trkpt><trkpt lat="53.7292676" lon="-1.9956877"><ele>148.0</ele><time>2026-04-26T10:00:34.884Z</time></trkpt><trkpt lat="53.7292694" lon="-1.9958538"><ele>148.66666666666669</ele><time>2026-04-26T10:00:35.884Z</time></trkpt><trkpt lat="53.7292664" lon="-1.9960102"><ele>149.33333333333334</ele><time>2026-04-26T10:00:36.884Z</time></trkpt><trkpt lat="53.7292599" lon="-1.9961602"><ele>150.0</ele><time>2026-04-26T10:00:37.884Z</time></trkpt><trkpt lat="53.7292519" lon="-1.9963087"><ele>150.66666666666666</ele><time>2026-04-26T10:00:38.888Z</time></trkpt><trkpt lat="53.729243" lon="-1.9964549"><ele>151.33333333333331</ele><time>2026-04-26T10:00:39.886Z</time></trkpt><trkpt lat="53.7292331" lon="-1.9966012"><ele>152.0</ele><time>2026-04-26T10:00:40.889Z</time></trkpt><trkpt lat="53.7292223" lon="-1.996745"><ele>153.16666666666666</ele><time>2026-04-26T10:00:41.889Z</time></trkpt><trkpt lat="53.7292091" lon="-1.9968858"><ele>154.33333333333331</ele><time>2026-04-26T10:00:42.888Z</time></trkpt><trkpt lat="53.7291962" lon="-1.9970229"><ele>155.5</ele><time>2026-04-26T10:00:43.889Z</time></trkpt><trkpt lat="53.7291823" lon="-1.9971558"><ele>156.66666666666666</ele><time>2026-04-26T10:00:44.886Z</time></trkpt><trkpt lat="53.7291688" lon="-1.9972805"><ele>157.83333333333334</ele><time>2026-04-26T10:00:45.887Z</time></trkpt><trkpt lat="53.7291558" lon="-1.997394"><ele>159.0</ele><time>2026-04-26T10:00:46.89Z</time></trkpt><trkpt lat="53.7291514" lon="-1.9975014"><ele>159.66666666666666</ele><time>2026-04-26T10:00:47.886Z</time></trkpt><trkpt lat="53.729158" lon="-1.9976168"><ele>160.33333333333334</ele><time>2026-04-26T10:00:48.888Z</time></trkpt><trkpt lat="53.7291718" lon="-1.9977447"><ele>161.0</ele><time>2026-04-26T10:00:49.886Z</time></trkpt><trkpt lat="53.7291877" lon="-1.9978841"><ele>161.66666666666669</ele><time>2026-04-26T10:00:50.887Z</time></trkpt><trkpt lat="53.7292035" lon="-1.9980253"><ele>162.33333333333334</ele><time>2026-04-26T10:00:51.887Z</time></trkpt><trkpt lat="53.7292156" lon="-1.9981685"><ele>163.0</ele><time>2026-04-26T10:00:52.887Z</time></trkpt><trkpt lat="53.7292216" lon="-1.9983156"><ele>164.0</ele><time>2026-04-26T10:00:53.889Z</time></trkpt><trkpt lat="53.7292213" lon="-1.9984634"><ele>165.0</ele><time>2026-04-26T10:00:54.888Z</time></trkpt><trkpt lat="53.7292239" lon="-1.9986108"><ele>166.0</ele><time>2026-04-26T10:00:55.887Z</time></trkpt><trkpt lat="53.7292362" lon="-1.9987626"><ele>167.0</ele><time>2026-04-26T10:00:56.89Z</time></trkpt><trkpt lat="53.729255" lon="-1.9989179"><ele>168.0</ele><time>2026-04-26T10:00:57.887Z</time></trkpt><trkpt lat="53.7292785" lon="-1.9990802"><ele>168.8</ele><time>2026-04-26T10:00:58.887Z</time></trkpt><trkpt lat="53.7293044" lon="-1.9992458"><ele>169.60000000000002</ele><time>2026-04-26T10:00:59.886Z</time></trkpt><trkpt lat="53.7293304" lon="-1.9994117"><ele>170.39999999999998</ele><time>2026-04-26T10:01:00.886Z</time></trkpt><trkpt lat="53.7293599" lon="-1.9995792"><ele>171.2</ele><time>2026-04-26T10:01:01.889Z</time></trkpt><trkpt lat="53.7293953" lon="-1.9997433"><ele>172.0</ele><time>2026-04-26T10:01:02.887Z</time></trkpt><trkpt lat="53.7294344" lon="-1.999906"><ele>168.4</ele><time>2026-04-26T10:01:03.892Z</time></trkpt><trkpt lat="53.7294736" lon="-2.0000705"><ele>164.79999999999998</ele><time>2026-04-26T10:01:04.887Z</time></trkpt><trkpt lat="53.7295131" lon="-2.0002322"><ele>161.2</ele><time>2026-04-26T10:01:05.888Z</time></trkpt><trkpt lat="53.7295551" lon="-2.0003827"><ele>157.6</ele><time>2026-04-26T10:01:06.887Z</time></trkpt><trkpt lat="53.7295969" lon="-2.0005213"><ele>154.0</ele><time>2026-04-26T10:01:07.888Z</time></trkpt><trkpt lat="53.7296367" lon="-2.0006566"><ele>154.0</ele><time>2026-04-26T10:01:08.888Z</time></trkpt><trkpt lat="53.7296798" lon="-2.00079"><ele>154.0</ele><time>2026-04-26T10:01:09.886Z</time></trkpt><trkpt lat="53.7297288" lon="-2.0009209"><ele>154.0</ele><time>2026-04-26T10:01:10.89Z</time></trkpt><trkpt lat="53.7297864" lon="-2.0010498"><ele>154.0</ele><time>2026-04-26T10:01:11.887Z</time></trkpt><trkpt lat="53.7298481" lon="-2.0011762"><ele>154.0</ele><time>2026-04-26T10:01:12.879Z</time></trkpt><trkpt lat="53.7299098" lon="-2.0013048"><ele>154.66666666666669</ele><time>2026-04-26T10:01:13.889Z</time></trkpt><trkpt lat="53.7299727" lon="-2.0014354"><ele>155.33333333333334</ele><time>2026-04-26T10:01:14.886Z</time></trkpt><trkpt lat="53.7300325" lon="-2.0015645"><ele>156.0</ele><time>2026-04-26T10:01:15.88Z</time></trkpt><trkpt lat="53.7300842" lon="-2.0016913"><ele>156.66666666666666</ele><time>2026-04-26T10:01:16.888Z</time></trkpt><trkpt lat="53.7301261" lon="-2.0018087"><ele>157.33333333333331</ele><time>2026-04-26T10:01:17.887Z</time></trkpt><trkpt lat="53.7301647" lon="-2.0019176"><ele>158.0</ele><time>2026-04-26T10:01:18.887Z</time></trkpt><trkpt lat="53.7301999" lon="-2.0020336"><ele>157.14285714285717</ele><time>2026-04-26T10:01:19.885Z</time></trkpt><trkpt lat="53.7302284" lon="-2.0021535"><ele>156.28571428571428</ele><time>2026-04-26T10:01:20.886Z</time></trkpt><trkpt lat="53.7302517" lon="-2.0022703"><ele>155.42857142857144</ele><time>2026-04-26T10:01:21.888Z</time></trkpt><trkpt lat="53.7302731" lon="-2.0023806"><ele>154.57142857142858</ele><time>2026-04-26T10:01:22.885Z</time></trkpt><trkpt lat="53.7303031" lon="-2.0024813"><ele>153.71428571428572</ele><time>2026-04-26T10:01:23.892Z</time></trkpt><trkpt lat="53.7303442" lon="-2.0025866"><ele>152.85714285714286</ele><time>2026-04-26T10:01:24.887Z</time></trkpt><trkpt lat="53.7303947" lon="-2.0026947"><ele>152.0</ele><time>2026-04-26T10:01:25.887Z</time></trkpt><trkpt lat="53.7304503" lon="-2.0028081"><ele>152.0</ele><time>2026-04-26T10:01:26.886Z</time></trkpt><trkpt lat="53.7305075" lon="-2.002928"><ele>152.0</ele><time>2026-04-26T10:01:27.886Z</time></trkpt><trkpt lat="53.7305624" lon="-2.0030531"><ele>152.0</ele><time>2026-04-26T10:01:28.888Z</time></trkpt><trkpt lat="53.7306231" lon="-2.0031804"><ele>152.0</ele><time>2026-04-26T10:01:29.888Z</time></trkpt><trkpt lat="53.730692" lon="-2.0033013"><ele>152.0</ele><time>2026-04-26T10:01:30.887Z</time></trkpt><trkpt lat="53.7307662" lon="-2.0034143"><ele>151.4</ele><time>2026-04-26T10:01:31.888Z</time></trkpt><trkpt lat="53.7308427" lon="-2.0035211"><ele>150.79999999999998</ele><time>2026-04-26T10:01:32.887Z</time></trkpt><trkpt lat="53.7309188" lon="-2.0036254"><ele>150.2</ele><time>2026-04-26T10:01:33.893Z</time></trkpt><trkpt lat="53.7309907" lon="-2.0037342"><ele>149.6</ele><time>2026-04-26T10:01:34.889Z</time></trkpt><trkpt lat="53.7310568" lon="-2.0038499"><ele>149.0</ele><time>2026-04-26T10:01:35.888Z</time></trkpt><trkpt lat="53.7311213" lon="-2.0039721"><ele>149.0</ele><time>2026-04-26T10:01:36.879Z</time></trkpt><trkpt lat="53.731183" lon="-2.0040991"><ele>149.0</ele><time>2026-04-26T10:01:37.889Z</time></trkpt><trkpt lat="53.7312436" lon="-2.0042174"><ele>149.0</ele><time>2026-04-26T10:01:38.885Z</time></trkpt><trkpt lat="53.7313094" lon="-2.004325"><ele>149.0</ele><time>2026-04-26T10:01:39.886Z</time></trkpt><trkpt lat="53.7313797" lon="-2.0044185"><ele>149.0</ele><time>2026-04-26T10:01:40.89Z</time></trkpt><trkpt lat="53.7314518" lon="-2.0044991"><ele>150.4</ele><time>2026-04-26T10:01:41.891Z</time></trkpt><trkpt lat="53.731533" lon="-2.0045646"><ele>151.8</ele><time>2026-04-26T10:01:42.89Z</time></trkpt><trkpt lat="53.7316192" lon="-2.0046256"><ele>153.2</ele><time>2026-04-26T10:01:43.892Z</time></trkpt><trkpt lat="53.7317117" lon="-2.0046945"><ele>154.6</ele><time>2026-04-26T10:01:44.892Z</time></trkpt><trkpt lat="53.7318098" lon="-2.0047756"><ele>156.0</ele><time>2026-04-26T10:01:45.891Z</time></trkpt><trkpt lat="53.7319063" lon="-2.0048676"><ele>156.0</ele><time>2026-04-26T10:01:46.89Z</time></trkpt><trkpt lat="53.7319944" lon="-2.0049633"><ele>156.0</ele><time>2026-04-26T10:01:47.889Z</time></trkpt><trkpt lat="53.7320762" lon="-2.0050494"><ele>156.0</ele><time>2026-04-26T10:01:48.888Z</time></trkpt><trkpt lat="53.7321591" lon="-2.0051195"><ele>156.0</ele><time>2026-04-26T10:01:49.891Z</time></trkpt><trkpt lat="53.7322378" lon="-2.0051741"><ele>156.0</ele><time>2026-04-26T10:01:50.885Z</time></trkpt><trkpt lat="53.7323119" lon="-2.005211"><ele>157.66666666666666</ele><time>2026-04-26T10:01:51.888Z</time></trkpt><trkpt lat="53.7323891" lon="-2.0052393"><ele>159.33333333333334</ele><time>2026-04-26T10:01:52.889Z</time></trkpt><trkpt lat="53.7324705" lon="-2.0052711"><ele>161.0</ele><time>2026-04-26T10:01:53.892Z</time></trkpt><trkpt lat="53.7325572" lon="-2.0053037"><ele>162.66666666666669</ele><time>2026-04-26T10:01:54.888Z</time></trkpt><trkpt lat="53.7326514" lon="-2.0053439"><ele>164.33333333333334</ele><time>2026-04-26T10:01:55.889Z</time></trkpt><trkpt lat="53.7327467" lon="-2.0053854"><ele>166.0</ele><time>2026-04-26T10:01:56.888Z</time></trkpt><trkpt lat="53.7328397" lon="-2.0054266"><ele>166.20000000000002</ele><time>2026-04-26T10:01:57.888Z</time></trkpt><trkpt lat="53.7329319" lon="-2.0054703"><ele>166.4</ele><time>2026-04-26T10:01:58.889Z</time></trkpt><trkpt lat="53.7330272" lon="-2.0055229"><ele>166.6</ele><time>2026-04-26T10:01:59.888Z</time></trkpt><trkpt lat="53.7331218" lon="-2.0055749"><ele>166.8</ele><time>2026-04-26T10:02:00.888Z</time></trkpt><trkpt lat="53.7332158" lon="-2.0056196"><ele>167.0</ele><time>2026-04-26T10:02:01.887Z</time></trkpt><trkpt lat="53.7333068" lon="-2.0056583"><ele>167.0</ele><time>2026-04-26T10:02:02.889Z</time></trkpt><trkpt lat="53.7333859" lon="-2.0056965"><ele>167.0</ele><time>2026-04-26T10:02:03.888Z</time></trkpt><trkpt lat="53.7334783" lon="-2.005767"><ele>167.0</ele><time>2026-04-26T10:02:05.885Z</time></trkpt><trkpt lat="53.7335333" lon="-2.0056921"><ele>167.0</ele><time>2026-04-26T10:03:13.889Z</time></trkpt><trkpt lat="53.7335947" lon="-2.0055691"><ele>167.0</ele><time>2026-04-26T10:03:15.888Z</time></trkpt><trkpt lat="53.7336759" lon="-2.0054179"><ele>167.2</ele><time>2026-04-26T10:03:17.889Z</time></trkpt><trkpt lat="53.7337553" lon="-2.0052867"><ele>167.39999999999998</ele><time>2026-04-26T10:03:19.887Z</time></trkpt><trkpt lat="53.7338042" lon="-2.0051711"><ele>167.60000000000002</ele><time>2026-04-26T10:03:21.88Z</time></trkpt><trkpt lat="53.7338071" lon="-2.0050197"><ele>167.8</ele><time>2026-04-26T10:03:23.89Z</time></trkpt><trkpt lat="53.7337725" lon="-2.0048225"><ele>168.0</ele><time>2026-04-26T10:03:25.888Z</time></trkpt><trkpt lat="53.7337581" lon="-2.0047166"><ele>166.60000000000002</ele><time>2026-04-26T10:03:26.89Z</time></trkpt><trkpt lat="53.7337895" lon="-2.0045294"><ele>165.20000000000002</ele><time>2026-04-26T10:03:28.888Z</time></trkpt><trkpt lat="53.7338809" lon="-2.0043855"><ele>163.8</ele><time>2026-04-26T10:03:30.885Z</time></trkpt><trkpt lat="53.733933" lon="-2.0042934"><ele>162.4</ele><time>2026-04-26T10:03:31.889Z</time></trkpt><trkpt lat="53.7339872" lon="-2.0041879"><ele>161.0</ele><time>2026-04-26T10:03:32.89Z</time></trkpt><trkpt lat="53.734042" lon="-2.0040816"><ele>159.71428571428572</ele><time>2026-04-26T10:03:33.892Z</time></trkpt><trkpt lat="53.7340979" lon="-2.0039802"><ele>158.42857142857144</ele><time>2026-04-26T10:03:34.891Z</time></trkpt><trkpt lat="53.7341487" lon="-2.0038866"><ele>157.14285714285714</ele><time>2026-04-26T10:03:35.891Z</time></trkpt><trkpt lat="53.7341997" lon="-2.0037991"><ele>155.85714285714286</ele><time>2026-04-26T10:03:36.891Z</time></trkpt><trkpt lat="53.7342522" lon="-2.0037187"><ele>154.57142857142858</ele><time>2026-04-26T10:03:37.891Z</time></trkpt><trkpt lat="53.7342995" lon="-2.0036406"><ele>153.28571428571428</ele><time>2026-04-26T10:03:38.89Z</time></trkpt><trkpt lat="53.7343464" lon="-2.0035625"><ele>152.0</ele><time>2026-04-26T10:03:39.889Z</time></trkpt><trkpt lat="53.7344243" lon="-2.0034097"><ele>150.4</ele><time>2026-04-26T10:03:41.885Z</time></trkpt><trkpt lat="53.7344959" lon="-2.0032819"><ele>148.79999999999998</ele><time>2026-04-26T10:03:43.888Z</time></trkpt><trkpt lat="53.7345948" lon="-2.003255"><ele>147.2</ele><time>2026-04-26T10:03:45.886Z</time></trkpt><trkpt lat="53.734704" lon="-2.0033397"><ele>145.6</ele><time>2026-04-26T10:03:47.886Z</time></trkpt><trkpt lat="53.7347529" lon="-2.003419"><ele>144.0</ele><time>2026-04-26T10:03:48.886Z</time></trkpt><trkpt lat="53.7348018" lon="-2.0035174"><ele>144.0</ele><time>2026-04-26T10:03:49.886Z</time></trkpt><trkpt lat="53.7348556" lon="-2.003646"><ele>144.0</ele><time>2026-04-26T10:03:50.887Z</time></trkpt><trkpt lat="53.7349239" lon="-2.00381"><ele>144.0</ele><time>2026-04-26T10:03:51.886Z</time></trkpt><trkpt lat="53.7350001" lon="-2.003994"><ele>144.0</ele><time>2026-04-26T10:03:52.886Z</time></trkpt><trkpt lat="53.7350706" lon="-2.0041688"><ele>145.8</ele><time>2026-04-26T10:03:53.892Z</time></trkpt><trkpt lat="53.7351319" lon="-2.0043233"><ele>147.60000000000002</ele><time>2026-04-26T10:03:54.887Z</time></trkpt><trkpt lat="53.7351876" lon="-2.0044562"><ele>149.4</ele><time>2026-04-26T10:03:55.888Z</time></trkpt><trkpt lat="53.7352444" lon="-2.0045704"><ele>151.20000000000002</ele><time>2026-04-26T10:03:56.886Z</time></trkpt><trkpt lat="53.7352983" lon="-2.0046758"><ele>153.0</ele><time>2026-04-26T10:03:57.885Z</time></trkpt><trkpt lat="53.7353583" lon="-2.0047863"><ele>148.20000000000002</ele><time>2026-04-26T10:03:58.888Z</time></trkpt><trkpt lat="53.7354195" lon="-2.0048939"><ele>143.4</ele><time>2026-04-26T10:03:59.886Z</time></trkpt><trkpt lat="53.7354821" lon="-2.0050021"><ele>138.60000000000002</ele><time>2026-04-26T10:04:00.886Z</time></trkpt><trkpt lat="53.735547" lon="-2.0051149"><ele>133.8</ele><time>2026-04-26T10:04:01.888Z</time></trkpt><trkpt lat="53.7356172" lon="-2.0052348"><ele>129.0</ele><time>2026-04-26T10:04:02.887Z</time></trkpt><trkpt lat="53.7356854" lon="-2.005364"><ele>129.0</ele><time>2026-04-26T10:04:03.891Z</time></trkpt><trkpt lat="53.735748" lon="-2.0054974"><ele>129.0</ele><time>2026-04-26T10:04:04.888Z</time></trkpt><trkpt lat="53.7358065" lon="-2.0056231"><ele>129.0</ele><time>2026-04-26T10:04:05.889Z</time></trkpt><trkpt lat="53.7358558" lon="-2.0057413"><ele>129.0</ele><time>2026-04-26T10:04:06.88Z</time></trkpt><trkpt lat="53.7359035" lon="-2.0058746"><ele>129.0</ele><time>2026-04-26T10:04:07.89Z</time></trkpt><trkpt lat="53.7359472" lon="-2.0060116"><ele>131.4</ele><time>2026-04-26T10:04:08.887Z</time></trkpt><trkpt lat="53.7359904" lon="-2.0061509"><ele>133.8</ele><time>2026-04-26T10:04:09.892Z</time></trkpt><trkpt lat="53.7360311" lon="-2.0062894"><ele>136.2</ele><time>2026-04-26T10:04:10.89Z</time></trkpt><trkpt lat="53.7360769" lon="-2.006427"><ele>138.6</ele><time>2026-04-26T10:04:11.886Z</time></trkpt><trkpt lat="53.7361255" lon="-2.0065597"><ele>141.0</ele><time>2026-04-26T10:04:12.888Z</time></trkpt><trkpt lat="53.7361782" lon="-2.0066898"><ele>136.5</ele><time>2026-04-26T10:04:13.888Z</time></trkpt><trkpt lat="53.7362348" lon="-2.0068164"><ele>132.0</ele><time>2026-04-26T10:04:14.888Z</time></trkpt><trkpt lat="53.7362959" lon="-2.006932"><ele>127.5</ele><time>2026-04-26T10:04:15.886Z</time></trkpt><trkpt lat="53.7363546" lon="-2.0070322"><ele>123.0</ele><time>2026-04-26T10:04:16.884Z</time></trkpt><trkpt lat="53.7364103" lon="-2.0071213"><ele>118.5</ele><time>2026-04-26T10:04:17.883Z</time></trkpt><trkpt lat="53.7364645" lon="-2.0072014"><ele>114.0</ele><time>2026-04-26T10:04:18.884Z</time></trkpt><trkpt lat="53.7365218" lon="-2.0072739"><ele>114.0</ele><time>2026-04-26T10:04:19.883Z</time></trkpt><trkpt lat="53.7365836" lon="-2.0073515"><ele>114.0</ele><time>2026-04-26T10:04:20.887Z</time></trkpt><trkpt lat="53.7366458" lon="-2.0074273"><ele>114.0</ele><time>2026-04-26T10:04:21.886Z</time></trkpt><trkpt lat="53.7367021" lon="-2.0074961"><ele>114.0</ele><time>2026-04-26T10:04:22.885Z</time></trkpt><trkpt lat="53.7367548" lon="-2.0075604"><ele>114.0</ele><time>2026-04-26T10:04:23.886Z</time></trkpt><trkpt lat="53.7368474" lon="-2.0076859"><ele>114.0</ele><time>2026-04-26T10:04:25.884Z</time></trkpt><trkpt lat="53.7369002" lon="-2.0077515"><ele>112.66666666666667</ele><time>2026-04-26T10:04:26.885Z</time></trkpt><trkpt lat="53.7369617" lon="-2.0078161"><ele>111.33333333333334</ele><time>2026-04-26T10:04:27.884Z</time></trkpt><trkpt lat="53.7370227" lon="-2.0078845"><ele>110.0</ele><time>2026-04-26T10:04:28.878Z</time></trkpt><trkpt lat="53.7370767" lon="-2.0079596"><ele>108.66666666666667</ele><time>2026-04-26T10:04:29.884Z</time></trkpt><trkpt lat="53.7371254" lon="-2.0080355"><ele>107.33333333333334</ele><time>2026-04-26T10:04:30.884Z</time></trkpt><trkpt lat="53.737174" lon="-2.0081157"><ele>106.0</ele><time>2026-04-26T10:04:31.887Z</time></trkpt><trkpt lat="53.7372622" lon="-2.0082018"><ele>106.0</ele><time>2026-04-26T10:04:33.882Z</time></trkpt><trkpt lat="53.7373515" lon="-2.0081903"><ele>106.0</ele><time>2026-04-26T10:04:35.884Z</time></trkpt><trkpt lat="53.7374314" lon="-2.0081044"><ele>106.0</ele><time>2026-04-26T10:04:37.889Z</time></trkpt><trkpt lat="53.7375241" lon="-2.0080554"><ele>106.0</ele><time>2026-04-26T10:04:39.892Z</time></trkpt><trkpt lat="53.7376236" lon="-2.0080063"><ele>106.0</ele><time>2026-04-26T10:04:41.885Z</time></trkpt><trkpt lat="53.7376958" lon="-2.007961"><ele>105.50000000000001</ele><time>2026-04-26T10:04:43.886Z</time></trkpt><trkpt lat="53.7377581" lon="-2.0079368"><ele>105.0</ele><time>2026-04-26T10:04:45.884Z</time></trkpt><trkpt lat="53.7378296" lon="-2.0078987"><ele>104.5</ele><time>2026-04-26T10:04:47.887Z</time></trkpt><trkpt lat="53.7379047" lon="-2.0078345"><ele>104.0</ele><time>2026-04-26T10:04:49.884Z</time></trkpt><trkpt lat="53.7379798" lon="-2.0077749"><ele>103.50000000000001</ele><time>2026-04-26T10:04:51.885Z</time></trkpt><trkpt lat="53.7380722" lon="-2.0077523"><ele>103.0</ele><time>2026-04-26T10:04:53.888Z</time></trkpt><trkpt lat="53.7381977" lon="-2.007767"><ele>103.00000000000001</ele><time>2026-04-26T10:04:55.88Z</time></trkpt><trkpt lat="53.7382691" lon="-2.0077837"><ele>103.0</ele><time>2026-04-26T10:04:56.887Z</time></trkpt><trkpt lat="53.7383505" lon="-2.0078181"><ele>103.0</ele><time>2026-04-26T10:04:57.889Z</time></trkpt><trkpt lat="53.7384297" lon="-2.0078538"><ele>103.0</ele><time>2026-04-26T10:04:58.89Z</time></trkpt><trkpt lat="53.738506" lon="-2.0078779"><ele>103.00000000000001</ele><time>2026-04-26T10:04:59.89Z</time></trkpt><trkpt lat="53.73858" lon="-2.0078854"><ele>103.0</ele><time>2026-04-26T10:05:00.889Z</time></trkpt><trkpt lat="53.7386565" lon="-2.007903"><ele>103.50000000000001</ele><time>2026-04-26T10:05:01.89Z</time></trkpt><trkpt lat="53.7387249" lon="-2.007948"><ele>104.0</ele><time>2026-04-26T10:05:02.889Z</time></trkpt><trkpt lat="53.7387808" lon="-2.0080176"><ele>104.5</ele><time>2026-04-26T10:05:03.893Z</time></trkpt><trkpt lat="53.7388303" lon="-2.0081044"><ele>105.0</ele><time>2026-04-26T10:05:04.889Z</time></trkpt><trkpt lat="53.7388771" lon="-2.0082085"><ele>105.50000000000001</ele><time>2026-04-26T10:05:05.886Z</time></trkpt><trkpt lat="53.738927" lon="-2.0083197"><ele>106.0</ele><time>2026-04-26T10:05:06.881Z</time></trkpt><trkpt lat="53.7389831" lon="-2.0084273"><ele>106.00000000000001</ele><time>2026-04-26T10:05:07.888Z</time></trkpt><trkpt lat="53.7390389" lon="-2.0085248"><ele>106.0</ele><time>2026-04-26T10:05:08.888Z</time></trkpt><trkpt lat="53.7390842" lon="-2.0086152"><ele>106.0</ele><time>2026-04-26T10:05:09.891Z</time></trkpt><trkpt lat="53.7391515" lon="-2.0087378"><ele>106.0</ele><time>2026-04-26T10:05:11.886Z</time></trkpt><trkpt lat="53.7392385" lon="-2.008741"><ele>106.00000000000001</ele><time>2026-04-26T10:05:13.891Z</time></trkpt><trkpt lat="53.73932" lon="-2.0086357"><ele>106.0</ele><time>2026-04-26T10:05:15.888Z</time></trkpt><trkpt lat="53.7393889" lon="-2.0086041"><ele>112.75</ele><time>2026-04-26T10:05:17.889Z</time></trkpt><trkpt lat="53.7395039" lon="-2.0087221"><ele>119.5</ele><time>2026-04-26T10:05:19.887Z</time></trkpt><trkpt lat="53.7395713" lon="-2.0088425"><ele>126.25</ele><time>2026-04-26T10:05:20.886Z</time></trkpt><trkpt lat="53.7396467" lon="-2.008986"><ele>133.0</ele><time>2026-04-26T10:05:21.887Z</time></trkpt><trkpt lat="53.7397279" lon="-2.0091385"><ele>129.4</ele><time>2026-04-26T10:05:22.885Z</time></trkpt><trkpt lat="53.7398134" lon="-2.0092877"><ele>125.80000000000001</ele><time>2026-04-26T10:05:23.889Z</time></trkpt><trkpt lat="53.7398906" lon="-2.0094163"><ele>122.2</ele><time>2026-04-26T10:05:24.878Z</time></trkpt><trkpt lat="53.7399542" lon="-2.0095177"><ele>118.6</ele><time>2026-04-26T10:05:25.883Z</time></trkpt><trkpt lat="53.7400031" lon="-2.0095994"><ele>115.0</ele><time>2026-04-26T10:05:26.885Z</time></trkpt><trkpt lat="53.7400806" lon="-2.0097286"><ele>115.0</ele><time>2026-04-26T10:05:28.883Z</time></trkpt><trkpt lat="53.7401532" lon="-2.0098236"><ele>115.0</ele><time>2026-04-26T10:05:31.89Z</time></trkpt><trkpt lat="53.7402692" lon="-2.009904"><ele>115.0</ele><time>2026-04-26T10:05:33.889Z</time></trkpt><trkpt lat="53.7403496" lon="-2.0099746"><ele>115.0</ele><time>2026-04-26T10:05:34.886Z</time></trkpt><trkpt lat="53.740451" lon="-2.0100615"><ele>115.0</ele><time>2026-04-26T10:05:35.887Z</time></trkpt><trkpt lat="53.7405727" lon="-2.0101484"><ele>116.0</ele><time>2026-04-26T10:05:36.887Z</time></trkpt><trkpt lat="53.7407268" lon="-2.0102334"><ele>117.0</ele><time>2026-04-26T10:05:37.886Z</time></trkpt><trkpt lat="53.7408862" lon="-2.0103052"><ele>118.0</ele><time>2026-04-26T10:05:38.886Z</time></trkpt><trkpt lat="53.7410253" lon="-2.0103825"><ele>117.25</ele><time>2026-04-26T10:05:39.886Z</time></trkpt><trkpt lat="53.74115" lon="-2.0104837"><ele>116.5</ele><time>2026-04-26T10:05:40.887Z</time></trkpt><trkpt lat="53.7412695" lon="-2.0106195"><ele>115.75</ele><time>2026-04-26T10:05:41.883Z</time></trkpt><trkpt lat="53.7413827" lon="-2.0107717"><ele>115.0</ele><time>2026-04-26T10:05:42.885Z</time></trkpt><trkpt lat="53.7414832" lon="-2.0109229"><ele>115.0</ele><time>2026-04-26T10:05:43.887Z</time></trkpt><trkpt lat="53.7415653" lon="-2.0110682"><ele>115.0</ele><time>2026-04-26T10:05:44.882Z</time></trkpt><trkpt lat="53.7416385" lon="-2.0112003"><ele>115.0</ele><time>2026-04-26T10:05:45.884Z</time></trkpt><trkpt lat="53.7417116" lon="-2.0113127"><ele>115.0</ele><time>2026-04-26T10:05:46.884Z</time></trkpt><trkpt lat="53.7417873" lon="-2.0114097"><ele>115.0</ele><time>2026-04-26T10:05:47.888Z</time></trkpt><trkpt lat="53.7418751" lon="-2.0114911"><ele>117.25</ele><time>2026-04-26T10:05:48.885Z</time></trkpt><trkpt lat="53.7419768" lon="-2.0115581"><ele>119.5</ele><time>2026-04-26T10:05:49.885Z</time></trkpt><trkpt lat="53.7420893" lon="-2.0116046"><ele>121.75</ele><time>2026-04-26T10:05:50.884Z</time></trkpt><trkpt lat="53.7422091" lon="-2.0116359"><ele>124.0</ele><time>2026-04-26T10:05:51.885Z</time></trkpt><trkpt lat="53.7423381" lon="-2.0116567"><ele>120.5</ele><time>2026-04-26T10:05:52.884Z</time></trkpt><trkpt lat="53.7424705" lon="-2.0116825"><ele>117.0</ele><time>2026-04-26T10:05:53.887Z</time></trkpt><trkpt lat="53.7426064" lon="-2.0117111"><ele>113.5</ele><time>2026-04-26T10:05:54.885Z</time></trkpt><trkpt lat="53.742737" lon="-2.0117193"><ele>110.0</ele><time>2026-04-26T10:05:55.885Z</time></trkpt><trkpt lat="53.7428554" lon="-2.0116751"><ele>113.5</ele><time>2026-04-26T10:05:56.885Z</time></trkpt><trkpt lat="53.7429654" lon="-2.0115738"><ele>117.0</ele><time>2026-04-26T10:05:57.889Z</time></trkpt><trkpt lat="53.7430645" lon="-2.0114439"><ele>120.5</ele><time>2026-04-26T10:05:58.889Z</time></trkpt><trkpt lat="53.7431659" lon="-2.0112915"><ele>124.0</ele><time>2026-04-26T10:05:59.885Z</time></trkpt><trkpt lat="53.7432734" lon="-2.0111373"><ele>124.0</ele><time>2026-04-26T10:06:00.886Z</time></trkpt><trkpt lat="53.7433863" lon="-2.0109719"><ele>124.0</ele><time>2026-04-26T10:06:01.889Z</time></trkpt><trkpt lat="53.7435101" lon="-2.0108078"><ele>124.0</ele><time>2026-04-26T10:06:02.888Z</time></trkpt><trkpt lat="53.7436364" lon="-2.010671"><ele>122.75</ele><time>2026-04-26T10:06:03.891Z</time></trkpt><trkpt lat="53.743755" lon="-2.0105605"><ele>121.5</ele><time>2026-04-26T10:06:04.888Z</time></trkpt><trkpt lat="53.7438436" lon="-2.0104578"><ele>120.25</ele><time>2026-04-26T10:06:05.887Z</time></trkpt><trkpt lat="53.7438996" lon="-2.0103252"><ele>119.0</ele><time>2026-04-26T10:06:06.891Z</time></trkpt><trkpt lat="53.7439466" lon="-2.0101501"><ele>122.0</ele><time>2026-04-26T10:06:07.891Z</time></trkpt><trkpt lat="53.7439804" lon="-2.0099743"><ele>125.0</ele><time>2026-04-26T10:06:08.891Z</time></trkpt><trkpt lat="53.7440208" lon="-2.009781"><ele>128.0</ele><time>2026-04-26T10:06:09.889Z</time></trkpt><trkpt lat="53.7440716" lon="-2.0095862"><ele>131.0</ele><time>2026-04-26T10:06:10.889Z</time></trkpt><trkpt lat="53.7441407" lon="-2.0094078"><ele>131.0</ele><time>2026-04-26T10:06:11.883Z</time></trkpt><trkpt lat="53.7442218" lon="-2.0092635"><ele>131.0</ele><time>2026-04-26T10:06:12.885Z</time></trkpt><trkpt lat="53.7443064" lon="-2.0091821"><ele>131.0</ele><time>2026-04-26T10:06:13.887Z</time></trkpt><trkpt lat="53.7443917" lon="-2.0091355"><ele>131.0</ele><time>2026-04-26T10:06:14.885Z</time></trkpt><trkpt lat="53.7444672" lon="-2.0090894"><ele>131.0</ele><time>2026-04-26T10:06:15.885Z</time></trkpt><trkpt lat="53.7445426" lon="-2.0090825"><ele>131.8</ele><time>2026-04-26T10:06:16.888Z</time></trkpt><trkpt lat="53.7446326" lon="-2.0091258"><ele>132.6</ele><time>2026-04-26T10:06:17.89Z</time></trkpt><trkpt lat="53.7447241" lon="-2.0092037"><ele>133.4</ele><time>2026-04-26T10:06:18.89Z</time></trkpt><trkpt lat="53.7448144" lon="-2.0093002"><ele>134.2</ele><time>2026-04-26T10:06:19.889Z</time></trkpt><trkpt lat="53.7449026" lon="-2.0093932"><ele>135.0</ele><time>2026-04-26T10:06:20.879Z</time></trkpt><trkpt lat="53.7449975" lon="-2.0094537"><ele>135.0</ele><time>2026-04-26T10:06:21.89Z</time></trkpt><trkpt lat="53.7451041" lon="-2.0094811"><ele>135.0</ele><time>2026-04-26T10:06:22.894Z</time></trkpt><trkpt lat="53.7452111" lon="-2.0094894"><ele>135.0</ele><time>2026-04-26T10:06:23.894Z</time></trkpt><trkpt lat="53.7453168" lon="-2.0094903"><ele>135.0</ele><time>2026-04-26T10:06:24.889Z</time></trkpt><trkpt lat="53.7454189" lon="-2.009498"><ele>135.0</ele><time>2026-04-26T10:06:25.888Z</time></trkpt><trkpt lat="53.7455143" lon="-2.0095093"><ele>137.14285714285714</ele><time>2026-04-26T10:06:26.888Z</time></trkpt><trkpt lat="53.7456002" lon="-2.0095207"><ele>139.28571428571428</ele><time>2026-04-26T10:06:27.888Z</time></trkpt><trkpt lat="53.7456737" lon="-2.0095308"><ele>141.42857142857142</ele><time>2026-04-26T10:06:28.881Z</time></trkpt><trkpt lat="53.7457399" lon="-2.0095377"><ele>143.57142857142856</ele><time>2026-04-26T10:06:29.885Z</time></trkpt><trkpt lat="53.7458037" lon="-2.0095437"><ele>145.71428571428572</ele><time>2026-04-26T10:06:30.885Z</time></trkpt><trkpt lat="53.7458733" lon="-2.0095609"><ele>147.85714285714283</ele><time>2026-04-26T10:06:31.886Z</time></trkpt><trkpt lat="53.74595" lon="-2.0095943"><ele>150.0</ele><time>2026-04-26T10:06:32.89Z</time></trkpt><trkpt lat="53.7460211" lon="-2.0096397"><ele>153.16666666666666</ele><time>2026-04-26T10:06:33.894Z</time></trkpt><trkpt lat="53.7460862" lon="-2.0096949"><ele>156.33333333333334</ele><time>2026-04-26T10:06:34.889Z</time></trkpt><trkpt lat="53.7461855" lon="-2.0097619"><ele>159.5</ele><time>2026-04-26T10:06:36.888Z</time></trkpt><trkpt lat="53.7462632" lon="-2.0098116"><ele>162.66666666666669</ele><time>2026-04-26T10:06:39.887Z</time></trkpt><trkpt lat="53.746328" lon="-2.0098624"><ele>165.83333333333334</ele><time>2026-04-26T10:06:48.885Z</time></trkpt><trkpt lat="53.746408" lon="-2.0099171"><ele>169.0</ele><time>2026-04-26T10:06:51.889Z</time></trkpt><trkpt lat="53.7464716" lon="-2.0099464"><ele>169.28571428571428</ele><time>2026-04-26T10:06:53.89Z</time></trkpt><trkpt lat="53.7465225" lon="-2.010018"><ele>169.57142857142856</ele><time>2026-04-26T10:06:57.885Z</time></trkpt><trkpt lat="53.7465662" lon="-2.0101012"><ele>169.85714285714283</ele><time>2026-04-26T10:07:05.887Z</time></trkpt><trkpt lat="53.7466112" lon="-2.0101767"><ele>170.14285714285714</ele><time>2026-04-26T10:07:08.892Z</time></trkpt><trkpt lat="53.7467014" lon="-2.0103026"><ele>170.42857142857142</ele><time>2026-04-26T10:07:10.886Z</time></trkpt><trkpt lat="53.7467571" lon="-2.0103624"><ele>170.7142857142857</ele><time>2026-04-26T10:07:11.885Z</time></trkpt><trkpt lat="53.7468194" lon="-2.0104198"><ele>171.0</ele><time>2026-04-26T10:07:12.885Z</time></trkpt><trkpt lat="53.7468837" lon="-2.010487"><ele>171.0</ele><time>2026-04-26T10:07:13.893Z</time></trkpt><trkpt lat="53.7469501" lon="-2.0105603"><ele>171.0</ele><time>2026-04-26T10:07:14.885Z</time></trkpt><trkpt lat="53.7470175" lon="-2.0106345"><ele>171.0</ele><time>2026-04-26T10:07:15.885Z</time></trkpt><trkpt lat="53.7470801" lon="-2.0107118"><ele>171.0</ele><time>2026-04-26T10:07:16.886Z</time></trkpt><trkpt lat="53.7471436" lon="-2.0107943"><ele>171.0</ele><time>2026-04-26T10:07:17.885Z</time></trkpt><trkpt lat="53.747217" lon="-2.0108733"><ele>171.0</ele><time>2026-04-26T10:07:18.884Z</time></trkpt><trkpt lat="53.747298" lon="-2.0109519"><ele>171.8</ele><time>2026-04-26T10:07:19.885Z</time></trkpt><trkpt lat="53.7473855" lon="-2.0110291"><ele>172.60000000000002</ele><time>2026-04-26T10:07:20.885Z</time></trkpt><trkpt lat="53.747475" lon="-2.0111081"><ele>173.4</ele><time>2026-04-26T10:07:21.884Z</time></trkpt><trkpt lat="53.7475662" lon="-2.0111892"><ele>174.2</ele><time>2026-04-26T10:07:22.885Z</time></trkpt><trkpt lat="53.7476576" lon="-2.0112709"><ele>175.0</ele><time>2026-04-26T10:07:23.889Z</time></trkpt><trkpt lat="53.7477453" lon="-2.0113492"><ele>175.0</ele><time>2026-04-26T10:07:24.883Z</time></trkpt><trkpt lat="53.7478294" lon="-2.0114227"><ele>175.0</ele><time>2026-04-26T10:07:25.884Z</time></trkpt><trkpt lat="53.7479113" lon="-2.011497"><ele>175.0</ele><time>2026-04-26T10:07:26.884Z</time></trkpt><trkpt lat="53.747993" lon="-2.0115723"><ele>175.0</ele><time>2026-04-26T10:07:27.887Z</time></trkpt><trkpt lat="53.7480761" lon="-2.0116458"><ele>175.0</ele><time>2026-04-26T10:07:28.885Z</time></trkpt><trkpt lat="53.7481617" lon="-2.0117154"><ele>175.2</ele><time>2026-04-26T10:07:29.885Z</time></trkpt><trkpt lat="53.7482519" lon="-2.0117821"><ele>175.4</ele><time>2026-04-26T10:07:30.886Z</time></trkpt><trkpt lat="53.7483419" lon="-2.011849"><ele>175.60000000000002</ele><time>2026-04-26T10:07:31.886Z</time></trkpt><trkpt lat="53.7484299" lon="-2.0119134"><ele>175.8</ele><time>2026-04-26T10:07:32.887Z</time></trkpt><trkpt lat="53.7485107" lon="-2.0119673"><ele>176.0</ele><time>2026-04-26T10:07:33.89Z</time></trkpt><trkpt lat="53.7485942" lon="-2.0119973"><ele>176.0</ele><time>2026-04-26T10:07:34.886Z</time></trkpt><trkpt lat="53.7486789" lon="-2.012004"><ele>176.0</ele><time>2026-04-26T10:07:35.886Z</time></trkpt><trkpt lat="53.7487616" lon="-2.0119938"><ele>176.0</ele><time>2026-04-26T10:07:36.887Z</time></trkpt><trkpt lat="53.7488422" lon="-2.0119844"><ele>176.0</ele><time>2026-04-26T10:07:37.886Z</time></trkpt><trkpt lat="53.7489224" lon="-2.0119714"><ele>176.0</ele><time>2026-04-26T10:07:38.889Z</time></trkpt><trkpt lat="53.7490054" lon="-2.011945"><ele>176.0</ele><time>2026-04-26T10:07:39.888Z</time></trkpt><trkpt lat="53.7490927" lon="-2.0119139"><ele>176.0</ele><time>2026-04-26T10:07:40.888Z</time></trkpt><trkpt lat="53.7491814" lon="-2.0118862"><ele>176.0</ele><time>2026-04-26T10:07:41.883Z</time></trkpt><trkpt lat="53.7492712" lon="-2.0118658"><ele>176.0</ele><time>2026-04-26T10:07:42.887Z</time></trkpt><trkpt lat="53.7493781" lon="-2.0118333"><ele>176.0</ele><time>2026-04-26T10:07:43.893Z</time></trkpt><trkpt lat="53.7494887" lon="-2.0118015"><ele>176.0</ele><time>2026-04-26T10:07:44.887Z</time></trkpt><trkpt lat="53.7496053" lon="-2.0117521"><ele>176.5</ele><time>2026-04-26T10:07:45.886Z</time></trkpt><trkpt lat="53.7497258" lon="-2.0117054"><ele>177.0</ele><time>2026-04-26T10:07:46.889Z</time></trkpt><trkpt lat="53.7498451" lon="-2.0116714"><ele>177.5</ele><time>2026-04-26T10:07:47.885Z</time></trkpt><trkpt lat="53.7499623" lon="-2.0116413"><ele>178.0</ele><time>2026-04-26T10:07:48.888Z</time></trkpt><trkpt lat="53.7500824" lon="-2.0116032"><ele>181.75</ele><time>2026-04-26T10:07:49.891Z</time></trkpt><trkpt lat="53.7502036" lon="-2.0115594"><ele>185.5</ele><time>2026-04-26T10:07:50.889Z</time></trkpt><trkpt lat="53.7503184" lon="-2.011512"><ele>189.25</ele><time>2026-04-26T10:07:51.884Z</time></trkpt><trkpt lat="53.7504246" lon="-2.0114674"><ele>193.0</ele><time>2026-04-26T10:07:52.885Z</time></trkpt><trkpt lat="53.7505207" lon="-2.0114306"><ele>193.0</ele><time>2026-04-26T10:07:53.887Z</time></trkpt><trkpt lat="53.7506061" lon="-2.0113791"><ele>193.0</ele><time>2026-04-26T10:07:54.885Z</time></trkpt><trkpt lat="53.7506852" lon="-2.0112956"><ele>193.0</ele><time>2026-04-26T10:07:55.887Z</time></trkpt><trkpt lat="53.7507699" lon="-2.0111727"><ele>193.0</ele><time>2026-04-26T10:07:56.885Z</time></trkpt><trkpt lat="53.7508669" lon="-2.01103"><ele>193.0</ele><time>2026-04-26T10:07:57.886Z</time></trkpt><trkpt lat="53.7509758" lon="-2.0108793"><ele>194.25</ele><time>2026-04-26T10:07:58.887Z</time></trkpt><trkpt lat="53.7510835" lon="-2.0107422"><ele>195.5</ele><time>2026-04-26T10:07:59.888Z</time></trkpt><trkpt lat="53.7511991" lon="-2.0105981"><ele>196.75</ele><time>2026-04-26T10:08:00.888Z</time></trkpt><trkpt lat="53.751327" lon="-2.010441"><ele>198.0</ele><time>2026-04-26T10:08:01.89Z</time></trkpt><trkpt lat="53.7514587" lon="-2.0102785"><ele>198.0</ele><time>2026-04-26T10:08:02.886Z</time></trkpt><trkpt lat="53.7515911" lon="-2.0101263"><ele>198.0</ele><time>2026-04-26T10:08:03.889Z</time></trkpt><trkpt lat="53.751722" lon="-2.0099864"><ele>198.0</ele><time>2026-04-26T10:08:04.89Z</time></trkpt><trkpt lat="53.7518486" lon="-2.0098562"><ele>199.5</ele><time>2026-04-26T10:08:05.886Z</time></trkpt><trkpt lat="53.7519717" lon="-2.0097305"><ele>201.0</ele><time>2026-04-26T10:08:06.886Z</time></trkpt><trkpt lat="53.7520873" lon="-2.0096092"><ele>202.5</ele><time>2026-04-26T10:08:07.891Z</time></trkpt><trkpt lat="53.7521982" lon="-2.009493"><ele>204.0</ele><time>2026-04-26T10:08:08.891Z</time></trkpt><trkpt lat="53.7523135" lon="-2.009372"><ele>204.0</ele><time>2026-04-26T10:08:09.891Z</time></trkpt><trkpt lat="53.7524283" lon="-2.0092462"><ele>204.0</ele><time>2026-04-26T10:08:10.891Z</time></trkpt><trkpt lat="53.7525418" lon="-2.0091204"><ele>204.0</ele><time>2026-04-26T10:08:11.889Z</time></trkpt><trkpt lat="53.7526491" lon="-2.0090131"><ele>204.0</ele><time>2026-04-26T10:08:12.889Z</time></trkpt><trkpt lat="53.7527549" lon="-2.0089231"><ele>207.2</ele><time>2026-04-26T10:08:13.89Z</time></trkpt><trkpt lat="53.7528572" lon="-2.0088448"><ele>210.39999999999998</ele><time>2026-04-26T10:08:14.885Z</time></trkpt><trkpt lat="53.7529574" lon="-2.0087818"><ele>213.6</ele><time>2026-04-26T10:08:15.884Z</time></trkpt><trkpt lat="53.7530667" lon="-2.0087428"><ele>216.8</ele><time>2026-04-26T10:08:16.887Z</time></trkpt><trkpt lat="53.753184" lon="-2.0087332"><ele>220.0</ele><time>2026-04-26T10:08:17.887Z</time></trkpt><trkpt lat="53.7533003" lon="-2.008739"><ele>220.0</ele><time>2026-04-26T10:08:18.885Z</time></trkpt><trkpt lat="53.7534116" lon="-2.0087459"><ele>220.0</ele><time>2026-04-26T10:08:19.886Z</time></trkpt><trkpt lat="53.7535237" lon="-2.0087388"><ele>220.0</ele><time>2026-04-26T10:08:20.885Z</time></trkpt><trkpt lat="53.7536367" lon="-2.0087118"><ele>220.0</ele><time>2026-04-26T10:08:21.884Z</time></trkpt><trkpt lat="53.7537468" lon="-2.0086822"><ele>220.0</ele><time>2026-04-26T10:08:22.884Z</time></trkpt><trkpt lat="53.7538544" lon="-2.0086562"><ele>220.75</ele><time>2026-04-26T10:08:23.891Z</time></trkpt><trkpt lat="53.7539686" lon="-2.0086215"><ele>221.5</ele><time>2026-04-26T10:08:24.886Z</time></trkpt><trkpt lat="53.7540869" lon="-2.0085968"><ele>222.25</ele><time>2026-04-26T10:08:25.888Z</time></trkpt><trkpt lat="53.7542139" lon="-2.00857"><ele>223.0</ele><time>2026-04-26T10:08:26.888Z</time></trkpt><trkpt lat="53.7543467" lon="-2.0085478"><ele>224.0</ele><time>2026-04-26T10:08:27.887Z</time></trkpt><trkpt lat="53.754482" lon="-2.0085283"><ele>225.0</ele><time>2026-04-26T10:08:28.89Z</time></trkpt><trkpt lat="53.7546135" lon="-2.0085291"><ele>226.0</ele><time>2026-04-26T10:08:29.888Z</time></trkpt><trkpt lat="53.7547414" lon="-2.0085518"><ele>227.0</ele><time>2026-04-26T10:08:30.888Z</time></trkpt><trkpt lat="53.7548687" lon="-2.0085834"><ele>227.0</ele><time>2026-04-26T10:08:31.891Z</time></trkpt><trkpt lat="53.7549971" lon="-2.008617"><ele>227.0</ele><time>2026-04-26T10:08:32.892Z</time></trkpt><trkpt lat="53.7551243" lon="-2.0086526"><ele>227.0</ele><time>2026-04-26T10:08:33.893Z</time></trkpt><trkpt lat="53.7552475" lon="-2.0087025"><ele>227.0</ele><time>2026-04-26T10:08:34.89Z</time></trkpt><trkpt lat="53.7553713" lon="-2.0087582"><ele>230.5</ele><time>2026-04-26T10:08:35.888Z</time></trkpt><trkpt lat="53.7555" lon="-2.0088057"><ele>234.0</ele><time>2026-04-26T10:08:36.89Z</time></trkpt><trkpt lat="53.7556238" lon="-2.0088563"><ele>237.5</ele><time>2026-04-26T10:08:37.892Z</time></trkpt><trkpt lat="53.7557612" lon="-2.0088852"><ele>241.0</ele><time>2026-04-26T10:08:38.891Z</time></trkpt><trkpt lat="53.7558827" lon="-2.0089333"><ele>241.0</ele><time>2026-04-26T10:08:39.891Z</time></trkpt><trkpt lat="53.7560086" lon="-2.0089579"><ele>241.0</ele><time>2026-04-26T10:08:40.889Z</time></trkpt><trkpt lat="53.7561294" lon="-2.0089817"><ele>241.0</ele><time>2026-04-26T10:08:41.886Z</time></trkpt><trkpt lat="53.7562511" lon="-2.009004"><ele>241.0</ele><time>2026-04-26T10:08:42.888Z</time></trkpt><trkpt lat="53.75637" lon="-2.0090285"><ele>240.4</ele><time>2026-04-26T10:08:43.888Z</time></trkpt><trkpt lat="53.7564954" lon="-2.0090498"><ele>239.8</ele><time>2026-04-26T10:08:44.888Z</time></trkpt><trkpt lat="53.756606" lon="-2.0090972"><ele>239.20000000000002</ele><time>2026-04-26T10:08:45.889Z</time></trkpt><trkpt lat="53.7567052" lon="-2.0091536"><ele>238.60000000000002</ele><time>2026-04-26T10:08:46.886Z</time></trkpt><trkpt lat="53.756794" lon="-2.0092046"><ele>238.0</ele><time>2026-04-26T10:08:47.886Z</time></trkpt><trkpt lat="53.7568695" lon="-2.0092262"><ele>241.0</ele><time>2026-04-26T10:08:48.886Z</time></trkpt><trkpt lat="53.7569561" lon="-2.0092122"><ele>244.0</ele><time>2026-04-26T10:08:50.885Z</time></trkpt><trkpt lat="53.7570107" lon="-2.009364"><ele>247.0</ele><time>2026-04-26T10:10:07.892Z</time></trkpt><trkpt lat="53.7570543" lon="-2.0094553"><ele>250.0</ele><time>2026-04-26T10:10:08.892Z</time></trkpt><trkpt lat="53.7571164" lon="-2.0095603"><ele>253.0</ele><time>2026-04-26T10:10:09.886Z</time></trkpt><trkpt lat="53.7571896" lon="-2.0096785"><ele>253.0</ele><time>2026-04-26T10:10:10.889Z</time></trkpt><trkpt lat="53.7572651" lon="-2.0098159"><ele>253.0</ele><time>2026-04-26T10:10:11.888Z</time></trkpt><trkpt lat="53.7573485" lon="-2.0099651"><ele>253.0</ele><time>2026-04-26T10:10:12.887Z</time></trkpt><trkpt lat="53.7574309" lon="-2.0101189"><ele>253.0</ele><time>2026-04-26T10:10:13.89Z</time></trkpt><trkpt lat="53.7575116" lon="-2.0102473"><ele>251.4</ele><time>2026-04-26T10:10:14.888Z</time></trkpt><trkpt lat="53.7575964" lon="-2.0103318"><ele>249.8</ele><time>2026-04-26T10:10:15.887Z</time></trkpt><trkpt lat="53.7576914" lon="-2.010366"><ele>248.2</ele><time>2026-04-26T10:10:16.89Z</time></trkpt><trkpt lat="53.7578036" lon="-2.0103411"><ele>246.6</ele><time>2026-04-26T10:10:17.887Z</time></trkpt><trkpt lat="53.7579256" lon="-2.0102795"><ele>245.0</ele><time>2026-04-26T10:10:18.886Z</time></trkpt><trkpt lat="53.7580435" lon="-2.0102147"><ele>245.0</ele><time>2026-04-26T10:10:19.889Z</time></trkpt><trkpt lat="53.7581727" lon="-2.0101277"><ele>245.0</ele><time>2026-04-26T10:10:20.887Z</time></trkpt><trkpt lat="53.7583089" lon="-2.0100227"><ele>245.0</ele><time>2026-04-26T10:10:21.888Z</time></trkpt><trkpt lat="53.7584408" lon="-2.0099054"><ele>245.0</ele><time>2026-04-26T10:10:22.889Z</time></trkpt><trkpt lat="53.7585653" lon="-2.0097815"><ele>246.0</ele><time>2026-04-26T10:10:23.889Z</time></trkpt><trkpt lat="53.7586846" lon="-2.0096419"><ele>247.0</ele><time>2026-04-26T10:10:24.89Z</time></trkpt><trkpt lat="53.7587978" lon="-2.0094821"><ele>248.0</ele><time>2026-04-26T10:10:25.894Z</time></trkpt><trkpt lat="53.758907" lon="-2.0093148"><ele>249.0</ele><time>2026-04-26T10:10:26.893Z</time></trkpt><trkpt lat="53.7590118" lon="-2.0091487"><ele>250.0</ele><time>2026-04-26T10:10:27.893Z</time></trkpt><trkpt lat="53.7591129" lon="-2.0089887"><ele>251.0</ele><time>2026-04-26T10:10:28.895Z</time></trkpt><trkpt lat="53.7592096" lon="-2.0088364"><ele>252.0</ele><time>2026-04-26T10:10:29.9Z</time></trkpt><trkpt lat="53.7593026" lon="-2.0086864"><ele>253.0</ele><time>2026-04-26T10:10:30.895Z</time></trkpt><trkpt lat="53.7593951" lon="-2.0085357"><ele>253.0</ele><time>2026-04-26T10:10:31.895Z</time></trkpt><trkpt lat="53.7594877" lon="-2.0083839"><ele>253.0</ele><time>2026-04-26T10:10:32.895Z</time></trkpt><trkpt lat="53.7595824" lon="-2.0082295"><ele>253.0</ele><time>2026-04-26T10:10:33.896Z</time></trkpt><trkpt lat="53.7596823" lon="-2.0080807"><ele>253.0</ele><time>2026-04-26T10:10:34.896Z</time></trkpt><trkpt lat="53.7597833" lon="-2.0079415"><ele>256.0</ele><time>2026-04-26T10:10:35.896Z</time></trkpt><trkpt lat="53.7598831" lon="-2.0078003"><ele>259.0</ele><time>2026-04-26T10:10:36.895Z</time></trkpt><trkpt lat="53.7599838" lon="-2.007662"><ele>262.0</ele><time>2026-04-26T10:10:37.892Z</time></trkpt><trkpt lat="53.7600859" lon="-2.0075319"><ele>265.0</ele><time>2026-04-26T10:10:38.89Z</time></trkpt><trkpt lat="53.7601894" lon="-2.0074068"><ele>266.5</ele><time>2026-04-26T10:10:39.891Z</time></trkpt><trkpt lat="53.7602932" lon="-2.0072862"><ele>268.0</ele><time>2026-04-26T10:10:40.893Z</time></trkpt><trkpt lat="53.7603953" lon="-2.0071722"><ele>269.5</ele><time>2026-04-26T10:10:41.889Z</time></trkpt><trkpt lat="53.7604888" lon="-2.0070741"><ele>271.0</ele><time>2026-04-26T10:10:42.891Z</time></trkpt><trkpt lat="53.760577" lon="-2.0069916"><ele>271.0</ele><time>2026-04-26T10:10:43.896Z</time></trkpt><trkpt lat="53.7606647" lon="-2.0069109"><ele>271.0</ele><time>2026-04-26T10:10:44.895Z</time></trkpt><trkpt lat="53.760751" lon="-2.0068293"><ele>271.0</ele><time>2026-04-26T10:10:45.895Z</time></trkpt><trkpt lat="53.760842" lon="-2.006746"><ele>271.0</ele><time>2026-04-26T10:10:46.897Z</time></trkpt><trkpt lat="53.7609378" lon="-2.0066697"><ele>271.0</ele><time>2026-04-26T10:10:47.895Z</time></trkpt><trkpt lat="53.7610398" lon="-2.0066033"><ele>271.6</ele><time>2026-04-26T10:10:48.895Z</time></trkpt><trkpt lat="53.7611398" lon="-2.0065392"><ele>272.20000000000005</ele><time>2026-04-26T10:10:49.89Z</time></trkpt><trkpt lat="53.7612334" lon="-2.0064652"><ele>272.79999999999995</ele><time>2026-04-26T10:10:50.89Z</time></trkpt><trkpt lat="53.7613187" lon="-2.0063712"><ele>273.4</ele><time>2026-04-26T10:10:51.89Z</time></trkpt><trkpt lat="53.7613951" lon="-2.0062518"><ele>274.0</ele><time>2026-04-26T10:10:52.891Z</time></trkpt><trkpt lat="53.7614601" lon="-2.006116"><ele>274.0</ele><time>2026-04-26T10:10:53.893Z</time></trkpt><trkpt lat="53.7615152" lon="-2.0059653"><ele>274.0</ele><time>2026-04-26T10:10:54.891Z</time></trkpt><trkpt lat="53.7615594" lon="-2.0058004"><ele>274.0</ele><time>2026-04-26T10:10:55.89Z</time></trkpt><trkpt lat="53.761591" lon="-2.0056236"><ele>274.0</ele><time>2026-04-26T10:10:56.891Z</time></trkpt><trkpt lat="53.7616203" lon="-2.0054473"><ele>274.0</ele><time>2026-04-26T10:10:57.889Z</time></trkpt><trkpt lat="53.7616637" lon="-2.00529"><ele>275.2</ele><time>2026-04-26T10:10:58.894Z</time></trkpt><trkpt lat="53.7617421" lon="-2.0051709"><ele>276.4</ele><time>2026-04-26T10:10:59.89Z</time></trkpt><trkpt lat="53.7618373" lon="-2.0050886"><ele>277.6</ele><time>2026-04-26T10:11:00.883Z</time></trkpt><trkpt lat="53.7619379" lon="-2.0050258"><ele>278.8</ele><time>2026-04-26T10:11:01.892Z</time></trkpt><trkpt lat="53.7620418" lon="-2.0050034"><ele>280.0</ele><time>2026-04-26T10:11:02.891Z</time></trkpt><trkpt lat="53.7621502" lon="-2.0050246"><ele>280.2</ele><time>2026-04-26T10:11:03.896Z</time></trkpt><trkpt lat="53.7622554" lon="-2.0050617"><ele>280.4</ele><time>2026-04-26T10:11:04.891Z</time></trkpt><trkpt lat="53.7623615" lon="-2.0050951"><ele>280.6</ele><time>2026-04-26T10:11:05.891Z</time></trkpt><trkpt lat="53.7624721" lon="-2.0051245"><ele>280.8</ele><time>2026-04-26T10:11:06.891Z</time></trkpt><trkpt lat="53.7625822" lon="-2.0051526"><ele>281.0</ele><time>2026-04-26T10:11:07.89Z</time></trkpt><trkpt lat="53.7626922" lon="-2.0051769"><ele>282.8</ele><time>2026-04-26T10:11:08.89Z</time></trkpt><trkpt lat="53.7627988" lon="-2.0052097"><ele>284.6</ele><time>2026-04-26T10:11:09.89Z</time></trkpt><trkpt lat="53.7629034" lon="-2.005262"><ele>286.4</ele><time>2026-04-26T10:11:10.891Z</time></trkpt><trkpt lat="53.7629991" lon="-2.0053511"><ele>288.2</ele><time>2026-04-26T10:11:11.891Z</time></trkpt><trkpt lat="53.7630757" lon="-2.0054706"><ele>290.0</ele><time>2026-04-26T10:11:12.882Z</time></trkpt><trkpt lat="53.7631288" lon="-2.0056093"><ele>290.0</ele><time>2026-04-26T10:11:13.893Z</time></trkpt><trkpt lat="53.7631687" lon="-2.0057656"><ele>290.0</ele><time>2026-04-26T10:11:14.888Z</time></trkpt><trkpt lat="53.7632038" lon="-2.0059319"><ele>290.0</ele><time>2026-04-26T10:11:15.89Z</time></trkpt><trkpt lat="53.7632391" lon="-2.0061018"><ele>290.0</ele><time>2026-04-26T10:11:16.888Z</time></trkpt><trkpt lat="53.7632795" lon="-2.0062736"><ele>290.0</ele><time>2026-04-26T10:11:17.888Z</time></trkpt><trkpt lat="53.7633235" lon="-2.0064494"><ele>289.5</ele><time>2026-04-26T10:11:18.89Z</time></trkpt><trkpt lat="53.7633743" lon="-2.0066292"><ele>289.0</ele><time>2026-04-26T10:11:19.89Z</time></trkpt><trkpt lat="53.7634276" lon="-2.0068064"><ele>288.5</ele><time>2026-04-26T10:11:20.89Z</time></trkpt><trkpt lat="53.7634811" lon="-2.0069838"><ele>288.0</ele><time>2026-04-26T10:11:21.887Z</time></trkpt><trkpt lat="53.7635369" lon="-2.0071583"><ele>290.5</ele><time>2026-04-26T10:11:22.888Z</time></trkpt><trkpt lat="53.7635975" lon="-2.0073281"><ele>293.0</ele><time>2026-04-26T10:11:23.895Z</time></trkpt><trkpt lat="53.7636627" lon="-2.0074961"><ele>295.5</ele><time>2026-04-26T10:11:24.889Z</time></trkpt><trkpt lat="53.7637335" lon="-2.0076636"><ele>298.0</ele><time>2026-04-26T10:11:25.891Z</time></trkpt><trkpt lat="53.7638091" lon="-2.0078342"><ele>298.0</ele><time>2026-04-26T10:11:26.89Z</time></trkpt><trkpt lat="53.7638895" lon="-2.0080121"><ele>298.0</ele><time>2026-04-26T10:11:27.891Z</time></trkpt><trkpt lat="53.7639759" lon="-2.0081973"><ele>298.0</ele><time>2026-04-26T10:11:28.891Z</time></trkpt><trkpt lat="53.7640678" lon="-2.0083945"><ele>298.0</ele><time>2026-04-26T10:11:29.892Z</time></trkpt><trkpt lat="53.7641638" lon="-2.0086048"><ele>298.0</ele><time>2026-04-26T10:11:30.892Z</time></trkpt><trkpt lat="53.7642624" lon="-2.00882"><ele>298.0</ele><time>2026-04-26T10:11:31.895Z</time></trkpt><trkpt lat="53.7643567" lon="-2.0090364"><ele>298.0</ele><time>2026-04-26T10:11:32.892Z</time></trkpt><trkpt lat="53.7644474" lon="-2.0092461"><ele>300.75</ele><time>2026-04-26T10:11:33.897Z</time></trkpt><trkpt lat="53.7645347" lon="-2.009443"><ele>303.5</ele><time>2026-04-26T10:11:34.894Z</time></trkpt><trkpt lat="53.7646222" lon="-2.0096211"><ele>306.25</ele><time>2026-04-26T10:11:35.894Z</time></trkpt><trkpt lat="53.7647146" lon="-2.0097777"><ele>309.0</ele><time>2026-04-26T10:11:36.893Z</time></trkpt><trkpt lat="53.7648184" lon="-2.0099113"><ele>309.75</ele><time>2026-04-26T10:11:37.893Z</time></trkpt><trkpt lat="53.7649327" lon="-2.0100231"><ele>310.5</ele><time>2026-04-26T10:11:38.893Z</time></trkpt><trkpt lat="53.7650586" lon="-2.0101106"><ele>311.25</ele><time>2026-04-26T10:11:39.893Z</time></trkpt><trkpt lat="53.7651897" lon="-2.0101854"><ele>312.0</ele><time>2026-04-26T10:11:40.893Z</time></trkpt><trkpt lat="53.7653181" lon="-2.0102612"><ele>312.0</ele><time>2026-04-26T10:11:41.891Z</time></trkpt><trkpt lat="53.7654484" lon="-2.010336"><ele>312.0</ele><time>2026-04-26T10:11:42.892Z</time></trkpt><trkpt lat="53.765579" lon="-2.0103996"><ele>312.0</ele><time>2026-04-26T10:11:43.895Z</time></trkpt><trkpt lat="53.7657129" lon="-2.0104543"><ele>312.0</ele><time>2026-04-26T10:11:44.893Z</time></trkpt><trkpt lat="53.765851" lon="-2.0105001"><ele>312.0</ele><time>2026-04-26T10:11:45.893Z</time></trkpt><trkpt lat="53.7659924" lon="-2.0105438"><ele>312.0</ele><time>2026-04-26T10:11:46.893Z</time></trkpt><trkpt lat="53.7661367" lon="-2.0105899"><ele>312.0</ele><time>2026-04-26T10:11:47.891Z</time></trkpt><trkpt lat="53.7662848" lon="-2.0106365"><ele>312.0</ele><time>2026-04-26T10:11:48.89Z</time></trkpt><trkpt lat="53.7664302" lon="-2.0106778"><ele>313.75</ele><time>2026-04-26T10:11:49.885Z</time></trkpt><trkpt lat="53.7665675" lon="-2.0107149"><ele>315.5</ele><time>2026-04-26T10:11:50.893Z</time></trkpt><trkpt lat="53.7666946" lon="-2.0107439"><ele>317.25</ele><time>2026-04-26T10:11:51.891Z</time></trkpt><trkpt lat="53.7668041" lon="-2.0107669"><ele>319.0</ele><time>2026-04-26T10:11:52.891Z</time></trkpt><trkpt lat="53.7668915" lon="-2.0107806"><ele>319.6</ele><time>2026-04-26T10:11:53.896Z</time></trkpt><trkpt lat="53.7669868" lon="-2.0108041"><ele>320.2</ele><time>2026-04-26T10:11:55.891Z</time></trkpt><trkpt lat="53.7670872" lon="-2.0107511"><ele>320.8</ele><time>2026-04-26T10:12:37.892Z</time></trkpt><trkpt lat="53.767165" lon="-2.0107297"><ele>321.40000000000003</ele><time>2026-04-26T10:12:38.884Z</time></trkpt><trkpt lat="53.767258" lon="-2.0107051"><ele>322.0</ele><time>2026-04-26T10:12:39.894Z</time></trkpt><trkpt lat="53.7673633" lon="-2.0106682"><ele>322.0</ele><time>2026-04-26T10:12:40.893Z</time></trkpt><trkpt lat="53.7674776" lon="-2.0106427"><ele>322.0</ele><time>2026-04-26T10:12:41.891Z</time></trkpt><trkpt lat="53.7675943" lon="-2.010641"><ele>322.0</ele><time>2026-04-26T10:12:42.889Z</time></trkpt><trkpt lat="53.7677162" lon="-2.0106522"><ele>322.0</ele><time>2026-04-26T10:12:43.9Z</time></trkpt><trkpt lat="53.7678392" lon="-2.010662"><ele>323.5</ele><time>2026-04-26T10:12:44.886Z</time></trkpt><trkpt lat="53.7679628" lon="-2.010683"><ele>325.0</ele><time>2026-04-26T10:12:45.888Z</time></trkpt><trkpt lat="53.7680886" lon="-2.010708"><ele>326.5</ele><time>2026-04-26T10:12:46.889Z</time></trkpt><trkpt lat="53.7682151" lon="-2.0107323"><ele>328.0</ele><time>2026-04-26T10:12:47.893Z</time></trkpt><trkpt lat="53.768343" lon="-2.010759"><ele>328.0</ele><time>2026-04-26T10:12:48.894Z</time></trkpt><trkpt lat="53.7684738" lon="-2.0107884"><ele>328.0</ele><time>2026-04-26T10:12:49.895Z</time></trkpt><trkpt lat="53.7686079" lon="-2.0108145"><ele>328.0</ele><time>2026-04-26T10:12:50.898Z</time></trkpt><trkpt lat="53.7687458" lon="-2.0108318"><ele>328.0</ele><time>2026-04-26T10:12:51.894Z</time></trkpt><trkpt lat="53.7688888" lon="-2.0108386"><ele>329.0</ele><time>2026-04-26T10:12:52.894Z</time></trkpt><trkpt lat="53.7690329" lon="-2.0108388"><ele>330.0</ele><time>2026-04-26T10:12:53.901Z</time></trkpt><trkpt lat="53.7691754" lon="-2.0108293"><ele>331.0</ele><time>2026-04-26T10:12:54.894Z</time></trkpt><trkpt lat="53.769304" lon="-2.0108143"><ele>332.0</ele><time>2026-04-26T10:12:55.895Z</time></trkpt><trkpt lat="53.7694124" lon="-2.0107953"><ele>332.20000000000005</ele><time>2026-04-26T10:12:56.894Z</time></trkpt><trkpt lat="53.7695052" lon="-2.010785"><ele>332.4</ele><time>2026-04-26T10:12:57.889Z</time></trkpt><trkpt lat="53.7695919" lon="-2.0107907"><ele>332.6</ele><time>2026-04-26T10:12:58.894Z</time></trkpt><trkpt lat="53.7696828" lon="-2.0108204"><ele>332.79999999999995</ele><time>2026-04-26T10:12:59.895Z</time></trkpt><trkpt lat="53.7697767" lon="-2.010864"><ele>333.0</ele><time>2026-04-26T10:13:00.884Z</time></trkpt><trkpt lat="53.7698769" lon="-2.0109149"><ele>331.2</ele><time>2026-04-26T10:13:01.895Z</time></trkpt><trkpt lat="53.7699882" lon="-2.0109531"><ele>329.4</ele><time>2026-04-26T10:13:02.895Z</time></trkpt><trkpt lat="53.7701029" lon="-2.0109696"><ele>327.59999999999997</ele><time>2026-04-26T10:13:03.9Z</time></trkpt><trkpt lat="53.7702073" lon="-2.010976"><ele>325.79999999999995</ele><time>2026-04-26T10:13:04.896Z</time></trkpt><trkpt lat="53.7703099" lon="-2.0109795"><ele>324.0</ele><time>2026-04-26T10:13:05.896Z</time></trkpt><trkpt lat="53.7704176" lon="-2.0109913"><ele>323.75</ele><time>2026-04-26T10:13:06.897Z</time></trkpt><trkpt lat="53.7705306" lon="-2.0110101"><ele>323.5</ele><time>2026-04-26T10:13:07.897Z</time></trkpt><trkpt lat="53.7706459" lon="-2.0110299"><ele>323.25</ele><time>2026-04-26T10:13:08.897Z</time></trkpt><trkpt lat="53.7707646" lon="-2.0110472"><ele>323.0</ele><time>2026-04-26T10:13:09.892Z</time></trkpt><trkpt lat="53.7708827" lon="-2.011058"><ele>323.0</ele><time>2026-04-26T10:13:10.898Z</time></trkpt><trkpt lat="53.771001" lon="-2.0110568"><ele>323.0</ele><time>2026-04-26T10:13:11.895Z</time></trkpt><trkpt lat="53.7711255" lon="-2.0110457"><ele>323.0</ele><time>2026-04-26T10:13:12.896Z</time></trkpt><trkpt lat="53.771254" lon="-2.0110276"><ele>323.0</ele><time>2026-04-26T10:13:13.901Z</time></trkpt><trkpt lat="53.7713847" lon="-2.0110076"><ele>323.25</ele><time>2026-04-26T10:13:14.894Z</time></trkpt><trkpt lat="53.7715187" lon="-2.0109842"><ele>323.5</ele><time>2026-04-26T10:13:15.897Z</time></trkpt><trkpt lat="53.7716556" lon="-2.0109609"><ele>323.75</ele><time>2026-04-26T10:13:16.896Z</time></trkpt><trkpt lat="53.7717928" lon="-2.010938"><ele>324.0</ele><time>2026-04-26T10:13:17.894Z</time></trkpt><trkpt lat="53.7719296" lon="-2.0109119"><ele>323.25</ele><time>2026-04-26T10:13:18.889Z</time></trkpt><trkpt lat="53.7720662" lon="-2.0108818"><ele>322.5</ele><time>2026-04-26T10:13:19.895Z</time></trkpt><trkpt lat="53.7722048" lon="-2.0108489"><ele>321.75</ele><time>2026-04-26T10:13:20.891Z</time></trkpt><trkpt lat="53.7723441" lon="-2.0108172"><ele>321.0</ele><time>2026-04-26T10:13:21.891Z</time></trkpt><trkpt lat="53.7724827" lon="-2.0107831"><ele>322.25</ele><time>2026-04-26T10:13:22.892Z</time></trkpt><trkpt lat="53.7726196" lon="-2.0107445"><ele>323.5</ele><time>2026-04-26T10:13:23.897Z</time></trkpt><trkpt lat="53.7727542" lon="-2.0106988"><ele>324.75</ele><time>2026-04-26T10:13:24.892Z</time></trkpt><trkpt lat="53.7728885" lon="-2.0106431"><ele>326.0</ele><time>2026-04-26T10:13:25.891Z</time></trkpt><trkpt lat="53.7730224" lon="-2.0105789"><ele>326.0</ele><time>2026-04-26T10:13:26.892Z</time></trkpt><trkpt lat="53.7731547" lon="-2.0105151"><ele>326.0</ele><time>2026-04-26T10:13:27.892Z</time></trkpt><trkpt lat="53.7732841" lon="-2.0104542"><ele>326.0</ele><time>2026-04-26T10:13:28.892Z</time></trkpt><trkpt lat="53.773406" lon="-2.01039"><ele>326.0</ele><time>2026-04-26T10:13:29.892Z</time></trkpt><trkpt lat="53.7735138" lon="-2.010328"><ele>324.33333333333337</ele><time>2026-04-26T10:13:30.892Z</time></trkpt><trkpt lat="53.7736108" lon="-2.0102697"><ele>322.6666666666667</ele><time>2026-04-26T10:13:31.895Z</time></trkpt><trkpt lat="53.773699" lon="-2.0102162"><ele>321.0</ele><time>2026-04-26T10:13:32.894Z</time></trkpt><trkpt lat="53.7737805" lon="-2.0101678"><ele>319.3333333333333</ele><time>2026-04-26T10:13:33.9Z</time></trkpt><trkpt lat="53.7738585" lon="-2.0101188"><ele>317.66666666666663</ele><time>2026-04-26T10:13:34.893Z</time></trkpt><trkpt lat="53.7739309" lon="-2.010065"><ele>316.0</ele><time>2026-04-26T10:13:35.895Z</time></trkpt><trkpt lat="53.7740038" lon="-2.0100008"><ele>317.6</ele><time>2026-04-26T10:13:36.892Z</time></trkpt><trkpt lat="53.7740819" lon="-2.0099287"><ele>319.20000000000005</ele><time>2026-04-26T10:13:37.893Z</time></trkpt><trkpt lat="53.774162" lon="-2.0098557"><ele>320.79999999999995</ele><time>2026-04-26T10:13:38.893Z</time></trkpt><trkpt lat="53.7742525" lon="-2.009788"><ele>322.4</ele><time>2026-04-26T10:13:39.894Z</time></trkpt><trkpt lat="53.7743484" lon="-2.0097378"><ele>324.0</ele><time>2026-04-26T10:13:40.892Z</time></trkpt><trkpt lat="53.7744469" lon="-2.009712"><ele>324.0</ele><time>2026-04-26T10:13:41.889Z</time></trkpt><trkpt lat="53.7745452" lon="-2.0097158"><ele>324.0</ele><time>2026-04-26T10:13:42.891Z</time></trkpt><trkpt lat="53.7746428" lon="-2.0097224"><ele>324.0</ele><time>2026-04-26T10:13:43.9Z</time></trkpt><trkpt lat="53.7747422" lon="-2.0097196"><ele>324.0</ele><time>2026-04-26T10:13:44.892Z</time></trkpt><trkpt lat="53.7748432" lon="-2.0097101"><ele>324.0</ele><time>2026-04-26T10:13:45.892Z</time></trkpt><trkpt lat="53.7749439" lon="-2.0096889"><ele>324.0</ele><time>2026-04-26T10:13:46.892Z</time></trkpt><trkpt lat="53.7750473" lon="-2.0096579"><ele>324.0</ele><time>2026-04-26T10:13:47.892Z</time></trkpt><trkpt lat="53.775156" lon="-2.0096206"><ele>324.0</ele><time>2026-04-26T10:13:48.893Z</time></trkpt><trkpt lat="53.7752678" lon="-2.0095819"><ele>324.0</ele><time>2026-04-26T10:13:49.893Z</time></trkpt><trkpt lat="53.7753835" lon="-2.0095378"><ele>324.0</ele><time>2026-04-26T10:13:50.891Z</time></trkpt><trkpt lat="53.775497" lon="-2.0094913"><ele>323.0</ele><time>2026-04-26T10:13:51.89Z</time></trkpt><trkpt lat="53.7756072" lon="-2.0094474"><ele>322.0</ele><time>2026-04-26T10:13:52.892Z</time></trkpt><trkpt lat="53.7757205" lon="-2.0094103"><ele>321.0</ele><time>2026-04-26T10:13:53.899Z</time></trkpt><trkpt lat="53.7758363" lon="-2.0093823"><ele>320.0</ele><time>2026-04-26T10:13:54.895Z</time></trkpt><trkpt lat="53.7759555" lon="-2.0093726"><ele>318.75</ele><time>2026-04-26T10:13:55.892Z</time></trkpt><trkpt lat="53.7760805" lon="-2.0093781"><ele>317.5</ele><time>2026-04-26T10:13:56.892Z</time></trkpt><trkpt lat="53.776209" lon="-2.009392"><ele>316.25</ele><time>2026-04-26T10:13:57.892Z</time></trkpt><trkpt lat="53.7763374" lon="-2.0094141"><ele>315.0</ele><time>2026-04-26T10:13:58.895Z</time></trkpt><trkpt lat="53.7764648" lon="-2.0094343"><ele>315.0</ele><time>2026-04-26T10:13:59.892Z</time></trkpt><trkpt lat="53.776591" lon="-2.0094457"><ele>315.0</ele><time>2026-04-26T10:14:00.892Z</time></trkpt><trkpt lat="53.7767128" lon="-2.0094488"><ele>315.0</ele><time>2026-04-26T10:14:01.895Z</time></trkpt><trkpt lat="53.7768271" lon="-2.0094429"><ele>315.0</ele><time>2026-04-26T10:14:02.896Z</time></trkpt><trkpt lat="53.7769325" lon="-2.0094365"><ele>313.8</ele><time>2026-04-26T10:14:03.903Z</time></trkpt><trkpt lat="53.7770377" lon="-2.0094238"><ele>312.6</ele><time>2026-04-26T10:14:04.894Z</time></trkpt><trkpt lat="53.777147" lon="-2.0093998"><ele>311.4</ele><time>2026-04-26T10:14:05.896Z</time></trkpt><trkpt lat="53.7772573" lon="-2.0093647"><ele>310.2</ele><time>2026-04-26T10:14:06.897Z</time></trkpt><trkpt lat="53.7773715" lon="-2.0093161"><ele>309.0</ele><time>2026-04-26T10:14:07.895Z</time></trkpt><trkpt lat="53.7774899" lon="-2.0092552"><ele>309.0</ele><time>2026-04-26T10:14:08.892Z</time></trkpt><trkpt lat="53.7776103" lon="-2.0091884"><ele>309.0</ele><time>2026-04-26T10:14:09.887Z</time></trkpt><trkpt lat="53.7777309" lon="-2.0091211"><ele>309.0</ele><time>2026-04-26T10:14:10.886Z</time></trkpt><trkpt lat="53.7778521" lon="-2.0090505"><ele>309.0</ele><time>2026-04-26T10:14:11.892Z</time></trkpt><trkpt lat="53.7779712" lon="-2.0089772"><ele>310.25</ele><time>2026-04-26T10:14:12.892Z</time></trkpt><trkpt lat="53.7780929" lon="-2.0089103"><ele>311.5</ele><time>2026-04-26T10:14:13.899Z</time></trkpt><trkpt lat="53.7782176" lon="-2.0088496"><ele>312.75</ele><time>2026-04-26T10:14:14.894Z</time></trkpt><trkpt lat="53.7783432" lon="-2.0087919"><ele>314.0</ele><time>2026-04-26T10:14:15.893Z</time></trkpt><trkpt lat="53.7784688" lon="-2.0087407"><ele>313.25</ele><time>2026-04-26T10:14:16.893Z</time></trkpt><trkpt lat="53.7785933" lon="-2.0086915"><ele>312.5</ele><time>2026-04-26T10:14:17.891Z</time></trkpt><trkpt lat="53.7787131" lon="-2.0086429"><ele>311.75</ele><time>2026-04-26T10:14:18.892Z</time></trkpt><trkpt lat="53.778827" lon="-2.0085881"><ele>311.0</ele><time>2026-04-26T10:14:19.891Z</time></trkpt><trkpt lat="53.7789377" lon="-2.0085269"><ele>311.0</ele><time>2026-04-26T10:14:20.893Z</time></trkpt><trkpt lat="53.7790494" lon="-2.0084566"><ele>311.0</ele><time>2026-04-26T10:14:21.894Z</time></trkpt><trkpt lat="53.7791629" lon="-2.0083744"><ele>311.0</ele><time>2026-04-26T10:14:22.89Z</time></trkpt><trkpt lat="53.7792801" lon="-2.0082818"><ele>311.0</ele><time>2026-04-26T10:14:23.893Z</time></trkpt><trkpt lat="53.779394" lon="-2.0081875"><ele>312.2</ele><time>2026-04-26T10:14:24.894Z</time></trkpt><trkpt lat="53.779497" lon="-2.0081065"><ele>313.40000000000003</ele><time>2026-04-26T10:14:25.895Z</time></trkpt><trkpt lat="53.7795937" lon="-2.0080645"><ele>314.6</ele><time>2026-04-26T10:14:26.893Z</time></trkpt><trkpt lat="53.7796961" lon="-2.0080877"><ele>315.8</ele><time>2026-04-26T10:14:27.893Z</time></trkpt><trkpt lat="53.7797923" lon="-2.0081679"><ele>317.0</ele><time>2026-04-26T10:14:28.894Z</time></trkpt><trkpt lat="53.7798735" lon="-2.0082504"><ele>317.0</ele><time>2026-04-26T10:14:29.893Z</time></trkpt><trkpt lat="53.7799481" lon="-2.0082958"><ele>317.0</ele><time>2026-04-26T10:14:30.894Z</time></trkpt><trkpt lat="53.7800261" lon="-2.008295"><ele>317.0</ele><time>2026-04-26T10:14:31.895Z</time></trkpt><trkpt lat="53.7801021" lon="-2.0082658"><ele>317.0</ele><time>2026-04-26T10:14:32.894Z</time></trkpt><trkpt lat="53.7801893" lon="-2.0081885"><ele>317.0</ele><time>2026-04-26T10:14:33.897Z</time></trkpt><trkpt lat="53.7802785" lon="-2.0081039"><ele>317.0</ele><time>2026-04-26T10:14:34.893Z</time></trkpt><trkpt lat="53.7803716" lon="-2.0080265"><ele>316.6</ele><time>2026-04-26T10:14:35.894Z</time></trkpt><trkpt lat="53.7804707" lon="-2.0079603"><ele>316.2</ele><time>2026-04-26T10:14:36.897Z</time></trkpt><trkpt lat="53.7805693" lon="-2.0079254"><ele>315.8</ele><time>2026-04-26T10:14:37.896Z</time></trkpt><trkpt lat="53.7806661" lon="-2.0079443"><ele>315.4</ele><time>2026-04-26T10:14:38.895Z</time></trkpt><trkpt lat="53.7807554" lon="-2.0080143"><ele>315.0</ele><time>2026-04-26T10:14:39.893Z</time></trkpt><trkpt lat="53.7808415" lon="-2.0081028"><ele>315.0</ele><time>2026-04-26T10:14:40.893Z</time></trkpt><trkpt lat="53.7809305" lon="-2.008208"><ele>315.0</ele><time>2026-04-26T10:14:41.89Z</time></trkpt><trkpt lat="53.7810089" lon="-2.0083363"><ele>315.0</ele><time>2026-04-26T10:14:42.891Z</time></trkpt><trkpt lat="53.7810785" lon="-2.0084713"><ele>315.0</ele><time>2026-04-26T10:14:43.897Z</time></trkpt><trkpt lat="53.781145" lon="-2.0085892"><ele>315.0</ele><time>2026-04-26T10:14:44.894Z</time></trkpt><trkpt lat="53.781217" lon="-2.0086836"><ele>315.2</ele><time>2026-04-26T10:14:45.892Z</time></trkpt><trkpt lat="53.7812987" lon="-2.008754"><ele>315.4</ele><time>2026-04-26T10:14:46.892Z</time></trkpt><trkpt lat="53.7813897" lon="-2.0088067"><ele>315.6</ele><time>2026-04-26T10:14:47.891Z</time></trkpt><trkpt lat="53.7814784" lon="-2.0088591"><ele>315.8</ele><time>2026-04-26T10:14:48.89Z</time></trkpt><trkpt lat="53.7815687" lon="-2.0089152"><ele>316.0</ele><time>2026-04-26T10:14:49.89Z</time></trkpt><trkpt lat="53.7816622" lon="-2.0089746"><ele>316.0</ele><time>2026-04-26T10:14:50.894Z</time></trkpt><trkpt lat="53.7817567" lon="-2.0090378"><ele>316.0</ele><time>2026-04-26T10:14:51.891Z</time></trkpt><trkpt lat="53.7818556" lon="-2.009094"><ele>316.0</ele><time>2026-04-26T10:14:52.893Z</time></trkpt><trkpt lat="53.781959" lon="-2.0091384"><ele>316.0</ele><time>2026-04-26T10:14:53.892Z</time></trkpt><trkpt lat="53.7820683" lon="-2.0091672"><ele>316.0</ele><time>2026-04-26T10:14:54.892Z</time></trkpt><trkpt lat="53.7821805" lon="-2.0091875"><ele>316.0</ele><time>2026-04-26T10:14:55.891Z</time></trkpt><trkpt lat="53.7822878" lon="-2.0091972"><ele>316.0</ele><time>2026-04-26T10:14:56.893Z</time></trkpt><trkpt lat="53.7823907" lon="-2.0091895"><ele>316.0</ele><time>2026-04-26T10:14:57.893Z</time></trkpt><trkpt lat="53.7824917" lon="-2.0091748"><ele>316.0</ele><time>2026-04-26T10:14:58.892Z</time></trkpt><trkpt lat="53.7825915" lon="-2.0091839"><ele>316.0</ele><time>2026-04-26T10:14:59.889Z</time></trkpt><trkpt lat="53.7826921" lon="-2.0092313"><ele>316.0</ele><time>2026-04-26T10:15:00.893Z</time></trkpt><trkpt lat="53.7827996" lon="-2.0093045"><ele>316.0</ele><time>2026-04-26T10:15:01.893Z</time></trkpt><trkpt lat="53.7829047" lon="-2.0093864"><ele>316.0</ele><time>2026-04-26T10:15:02.892Z</time></trkpt><trkpt lat="53.7830047" lon="-2.0094599"><ele>316.0</ele><time>2026-04-26T10:15:03.895Z</time></trkpt><trkpt lat="53.7831008" lon="-2.0095176"><ele>316.0</ele><time>2026-04-26T10:15:04.89Z</time></trkpt><trkpt lat="53.7832001" lon="-2.0095686"><ele>316.0</ele><time>2026-04-26T10:15:05.89Z</time></trkpt><trkpt lat="53.783305" lon="-2.0096103"><ele>316.0</ele><time>2026-04-26T10:15:06.892Z</time></trkpt><trkpt lat="53.7834184" lon="-2.0096328"><ele>316.0</ele><time>2026-04-26T10:15:07.89Z</time></trkpt><trkpt lat="53.7835356" lon="-2.0096394"><ele>316.0</ele><time>2026-04-26T10:15:08.894Z</time></trkpt><trkpt lat="53.7836571" lon="-2.0096431"><ele>316.75</ele><time>2026-04-26T10:15:09.895Z</time></trkpt><trkpt lat="53.7837827" lon="-2.0096511"><ele>317.5</ele><time>2026-04-26T10:15:10.894Z</time></trkpt><trkpt lat="53.7839095" lon="-2.0096658"><ele>318.25</ele><time>2026-04-26T10:15:11.892Z</time></trkpt><trkpt lat="53.7840354" lon="-2.0096917"><ele>319.0</ele><time>2026-04-26T10:15:12.884Z</time></trkpt><trkpt lat="53.7841607" lon="-2.0097159"><ele>319.0</ele><time>2026-04-26T10:15:13.897Z</time></trkpt><trkpt lat="53.7842891" lon="-2.0097309"><ele>319.0</ele><time>2026-04-26T10:15:14.893Z</time></trkpt><trkpt lat="53.7844182" lon="-2.0097392"><ele>319.0</ele><time>2026-04-26T10:15:15.894Z</time></trkpt><trkpt lat="53.7845495" lon="-2.0097385"><ele>319.0</ele><time>2026-04-26T10:15:16.893Z</time></trkpt><trkpt lat="53.784681" lon="-2.009732"><ele>318.75</ele><time>2026-04-26T10:15:17.892Z</time></trkpt><trkpt lat="53.7848102" lon="-2.0097182"><ele>318.5</ele><time>2026-04-26T10:15:18.893Z</time></trkpt><trkpt lat="53.7849389" lon="-2.009691"><ele>318.25</ele><time>2026-04-26T10:15:19.894Z</time></trkpt><trkpt lat="53.7850672" lon="-2.0096461"><ele>318.0</ele><time>2026-04-26T10:15:20.892Z</time></trkpt><trkpt lat="53.7851948" lon="-2.0095918"><ele>317.0</ele><time>2026-04-26T10:15:21.891Z</time></trkpt><trkpt lat="53.7853216" lon="-2.0095375"><ele>316.0</ele><time>2026-04-26T10:15:22.893Z</time></trkpt><trkpt lat="53.7854476" lon="-2.0094819"><ele>315.0</ele><time>2026-04-26T10:15:23.899Z</time></trkpt><trkpt lat="53.7855724" lon="-2.0094259"><ele>314.0</ele><time>2026-04-26T10:15:24.894Z</time></trkpt><trkpt lat="53.7856923" lon="-2.0093705"><ele>314.0</ele><time>2026-04-26T10:15:25.893Z</time></trkpt><trkpt lat="53.7858054" lon="-2.009318"><ele>314.0</ele><time>2026-04-26T10:15:26.893Z</time></trkpt><trkpt lat="53.7859166" lon="-2.0092672"><ele>314.0</ele><time>2026-04-26T10:15:27.894Z</time></trkpt><trkpt lat="53.7860309" lon="-2.0092248"><ele>314.0</ele><time>2026-04-26T10:15:28.888Z</time></trkpt><trkpt lat="53.7861504" lon="-2.0091858"><ele>314.75</ele><time>2026-04-26T10:15:29.893Z</time></trkpt><trkpt lat="53.7862713" lon="-2.0091474"><ele>315.5</ele><time>2026-04-26T10:15:30.893Z</time></trkpt><trkpt lat="53.7863909" lon="-2.0091083"><ele>316.25</ele><time>2026-04-26T10:15:31.893Z</time></trkpt><trkpt lat="53.7865129" lon="-2.0090619"><ele>317.0</ele><time>2026-04-26T10:15:32.891Z</time></trkpt><trkpt lat="53.7866392" lon="-2.009001"><ele>317.0</ele><time>2026-04-26T10:15:33.895Z</time></trkpt><trkpt lat="53.7867643" lon="-2.0089363"><ele>317.0</ele><time>2026-04-26T10:15:34.891Z</time></trkpt><trkpt lat="53.7868813" lon="-2.0088741"><ele>317.0</ele><time>2026-04-26T10:15:35.894Z</time></trkpt><trkpt lat="53.78699" lon="-2.0088147"><ele>317.0</ele><time>2026-04-26T10:15:36.892Z</time></trkpt><trkpt lat="53.7870915" lon="-2.0087587"><ele>314.0</ele><time>2026-04-26T10:15:37.893Z</time></trkpt><trkpt lat="53.7871909" lon="-2.0087003"><ele>311.0</ele><time>2026-04-26T10:15:38.893Z</time></trkpt><trkpt lat="53.7872922" lon="-2.0086373"><ele>308.0</ele><time>2026-04-26T10:15:39.899Z</time></trkpt><trkpt lat="53.7873923" lon="-2.0085745"><ele>305.0</ele><time>2026-04-26T10:15:40.894Z</time></trkpt><trkpt lat="53.787487" lon="-2.0085124"><ele>302.0</ele><time>2026-04-26T10:15:41.893Z</time></trkpt><trkpt lat="53.7875772" lon="-2.008451"><ele>302.0</ele><time>2026-04-26T10:15:42.892Z</time></trkpt><trkpt lat="53.7876633" lon="-2.0083893"><ele>302.0</ele><time>2026-04-26T10:15:43.896Z</time></trkpt><trkpt lat="53.7877475" lon="-2.0083263"><ele>302.0</ele><time>2026-04-26T10:15:44.892Z</time></trkpt><trkpt lat="53.787828" lon="-2.0082673"><ele>302.0</ele><time>2026-04-26T10:15:45.895Z</time></trkpt><trkpt lat="53.7879027" lon="-2.008211"><ele>302.0</ele><time>2026-04-26T10:15:46.894Z</time></trkpt><trkpt lat="53.7879665" lon="-2.0081572"><ele>302.0</ele><time>2026-04-26T10:15:47.892Z</time></trkpt><trkpt lat="53.78806" lon="-2.0080752"><ele>301.2</ele><time>2026-04-26T10:15:49.893Z</time></trkpt><trkpt lat="53.7881259" lon="-2.008028"><ele>300.4</ele><time>2026-04-26T10:15:52.893Z</time></trkpt><trkpt lat="53.7881783" lon="-2.0079095"><ele>299.6</ele><time>2026-04-26T10:17:06.893Z</time></trkpt><trkpt lat="53.7882453" lon="-2.0077074"><ele>298.8</ele><time>2026-04-26T10:17:08.894Z</time></trkpt><trkpt lat="53.7883161" lon="-2.0076281"><ele>298.0</ele><time>2026-04-26T10:17:09.893Z</time></trkpt><trkpt lat="53.7884038" lon="-2.0076109"><ele>298.0</ele><time>2026-04-26T10:17:10.893Z</time></trkpt><trkpt lat="53.7885003" lon="-2.0076362"><ele>298.0</ele><time>2026-04-26T10:17:11.891Z</time></trkpt><trkpt lat="53.7885857" lon="-2.0076789"><ele>298.0</ele><time>2026-04-26T10:17:12.888Z</time></trkpt><trkpt lat="53.7886634" lon="-2.0076485"><ele>298.0</ele><time>2026-04-26T10:17:13.896Z</time></trkpt><trkpt lat="53.7887382" lon="-2.0075539"><ele>298.0</ele><time>2026-04-26T10:17:14.892Z</time></trkpt><trkpt lat="53.7888016" lon="-2.0074455"><ele>301.0</ele><time>2026-04-26T10:17:15.889Z</time></trkpt><trkpt lat="53.7888664" lon="-2.0073351"><ele>304.0</ele><time>2026-04-26T10:17:16.889Z</time></trkpt><trkpt lat="53.788934" lon="-2.0072175"><ele>307.0</ele><time>2026-04-26T10:17:17.89Z</time></trkpt><trkpt lat="53.7890055" lon="-2.0070987"><ele>310.0</ele><time>2026-04-26T10:17:18.891Z</time></trkpt><trkpt lat="53.7890785" lon="-2.0069825"><ele>313.0</ele><time>2026-04-26T10:17:19.891Z</time></trkpt><trkpt lat="53.7891517" lon="-2.0068692"><ele>313.0</ele><time>2026-04-26T10:17:20.891Z</time></trkpt><trkpt lat="53.7892222" lon="-2.0067605"><ele>313.0</ele><time>2026-04-26T10:17:21.892Z</time></trkpt><trkpt lat="53.7892885" lon="-2.0066564"><ele>313.0</ele><time>2026-04-26T10:17:22.892Z</time></trkpt><trkpt lat="53.7893535" lon="-2.0065588"><ele>313.0</ele><time>2026-04-26T10:17:23.896Z</time></trkpt><trkpt lat="53.7894168" lon="-2.0064614"><ele>313.0</ele><time>2026-04-26T10:17:24.891Z</time></trkpt><trkpt lat="53.7894788" lon="-2.0063638"><ele>313.0</ele><time>2026-04-26T10:17:25.891Z</time></trkpt><trkpt lat="53.7895454" lon="-2.0062641"><ele>317.75</ele><time>2026-04-26T10:17:26.889Z</time></trkpt><trkpt lat="53.7896195" lon="-2.0061599"><ele>322.5</ele><time>2026-04-26T10:17:27.891Z</time></trkpt><trkpt lat="53.7897045" lon="-2.0060477"><ele>327.25</ele><time>2026-04-26T10:17:28.891Z</time></trkpt><trkpt lat="53.7897975" lon="-2.0059294"><ele>332.0</ele><time>2026-04-26T10:17:29.892Z</time></trkpt><trkpt lat="53.7899011" lon="-2.0057956"><ele>332.0</ele><time>2026-04-26T10:17:30.892Z</time></trkpt><trkpt lat="53.7900252" lon="-2.0056347"><ele>332.0</ele><time>2026-04-26T10:17:31.889Z</time></trkpt><trkpt lat="53.7901687" lon="-2.0054477"><ele>332.0</ele><time>2026-04-26T10:17:32.887Z</time></trkpt><trkpt lat="53.7903125" lon="-2.0052678"><ele>335.0</ele><time>2026-04-26T10:17:33.899Z</time></trkpt><trkpt lat="53.7904359" lon="-2.0051111"><ele>338.0</ele><time>2026-04-26T10:17:34.891Z</time></trkpt><trkpt lat="53.7905309" lon="-2.00498"><ele>341.0</ele><time>2026-04-26T10:17:35.893Z</time></trkpt><trkpt lat="53.7906072" lon="-2.0048687"><ele>344.0</ele><time>2026-04-26T10:17:36.882Z</time></trkpt><trkpt lat="53.790679" lon="-2.0047552"><ele>344.0</ele><time>2026-04-26T10:17:37.892Z</time></trkpt><trkpt lat="53.7907564" lon="-2.0046549"><ele>344.0</ele><time>2026-04-26T10:17:38.89Z</time></trkpt><trkpt lat="53.7908426" lon="-2.0045672"><ele>344.0</ele><time>2026-04-26T10:17:39.893Z</time></trkpt><trkpt lat="53.7909438" lon="-2.0044968"><ele>344.0</ele><time>2026-04-26T10:17:40.892Z</time></trkpt><trkpt lat="53.7910508" lon="-2.0044331"><ele>344.0</ele><time>2026-04-26T10:17:41.89Z</time></trkpt><trkpt lat="53.7911606" lon="-2.0043752"><ele>347.0</ele><time>2026-04-26T10:17:42.889Z</time></trkpt><trkpt lat="53.791279" lon="-2.0043207"><ele>350.0</ele><time>2026-04-26T10:17:43.899Z</time></trkpt><trkpt lat="53.7914057" lon="-2.0042792"><ele>353.0</ele><time>2026-04-26T10:17:44.891Z</time></trkpt><trkpt lat="53.7915366" lon="-2.0042369"><ele>356.0</ele><time>2026-04-26T10:17:45.892Z</time></trkpt><trkpt lat="53.7916639" lon="-2.0041753"><ele>356.5</ele><time>2026-04-26T10:17:46.883Z</time></trkpt><trkpt lat="53.7917837" lon="-2.004101"><ele>357.0</ele><time>2026-04-26T10:17:47.892Z</time></trkpt><trkpt lat="53.7919017" lon="-2.0040234"><ele>357.5</ele><time>2026-04-26T10:17:48.892Z</time></trkpt><trkpt lat="53.7920119" lon="-2.0039476"><ele>358.0</ele><time>2026-04-26T10:17:49.894Z</time></trkpt><trkpt lat="53.7921165" lon="-2.0038701"><ele>359.75</ele><time>2026-04-26T10:17:50.893Z</time></trkpt><trkpt lat="53.7922168" lon="-2.0037846"><ele>361.5</ele><time>2026-04-26T10:17:51.884Z</time></trkpt><trkpt lat="53.7923153" lon="-2.003686"><ele>363.25</ele><time>2026-04-26T10:17:52.895Z</time></trkpt><trkpt lat="53.7924158" lon="-2.0035699"><ele>365.0</ele><time>2026-04-26T10:17:53.899Z</time></trkpt><trkpt lat="53.7925213" lon="-2.0034392"><ele>365.0</ele><time>2026-04-26T10:17:54.892Z</time></trkpt><trkpt lat="53.7926238" lon="-2.003303"><ele>365.0</ele><time>2026-04-26T10:17:55.889Z</time></trkpt><trkpt lat="53.7927209" lon="-2.0031678"><ele>365.0</ele><time>2026-04-26T10:17:56.892Z</time></trkpt><trkpt lat="53.7928176" lon="-2.0030303"><ele>365.0</ele><time>2026-04-26T10:17:57.894Z</time></trkpt><trkpt lat="53.792915" lon="-2.0028948"><ele>367.0</ele><time>2026-04-26T10:17:58.892Z</time></trkpt><trkpt lat="53.793014" lon="-2.002771"><ele>369.0</ele><time>2026-04-26T10:17:59.894Z</time></trkpt><trkpt lat="53.7931176" lon="-2.0026601"><ele>371.0</ele><time>2026-04-26T10:18:00.893Z</time></trkpt><trkpt lat="53.7932253" lon="-2.0025529"><ele>373.0</ele><time>2026-04-26T10:18:01.892Z</time></trkpt><trkpt lat="53.7933373" lon="-2.0024444"><ele>373.25</ele><time>2026-04-26T10:18:02.894Z</time></trkpt><trkpt lat="53.7934574" lon="-2.0023394"><ele>373.5</ele><time>2026-04-26T10:18:03.899Z</time></trkpt><trkpt lat="53.7935823" lon="-2.0022422"><ele>373.75</ele><time>2026-04-26T10:18:04.894Z</time></trkpt><trkpt lat="53.7937077" lon="-2.0021578"><ele>374.0</ele><time>2026-04-26T10:18:05.893Z</time></trkpt><trkpt lat="53.7938308" lon="-2.0020805"><ele>374.79999999999995</ele><time>2026-04-26T10:18:06.893Z</time></trkpt><trkpt lat="53.7939422" lon="-2.0020041"><ele>375.59999999999997</ele><time>2026-04-26T10:18:07.893Z</time></trkpt><trkpt lat="53.7940414" lon="-2.0019311"><ele>376.4</ele><time>2026-04-26T10:18:08.897Z</time></trkpt><trkpt lat="53.794126" lon="-2.001858"><ele>377.2</ele><time>2026-04-26T10:18:09.893Z</time></trkpt><trkpt lat="53.7941994" lon="-2.0017723"><ele>378.0</ele><time>2026-04-26T10:18:10.895Z</time></trkpt><trkpt lat="53.7942663" lon="-2.0016688"><ele>378.2</ele><time>2026-04-26T10:18:11.891Z</time></trkpt><trkpt lat="53.794325" lon="-2.0015685"><ele>378.4</ele><time>2026-04-26T10:18:12.892Z</time></trkpt><trkpt lat="53.7943764" lon="-2.0014869"><ele>378.59999999999997</ele><time>2026-04-26T10:18:13.899Z</time></trkpt><trkpt lat="53.7944424" lon="-2.0013764"><ele>378.79999999999995</ele><time>2026-04-26T10:18:15.891Z</time></trkpt><trkpt lat="53.7945011" lon="-2.0012718"><ele>379.0</ele><time>2026-04-26T10:18:23.902Z</time></trkpt><trkpt lat="53.7945888" lon="-2.0011311"><ele>380.0</ele><time>2026-04-26T10:18:25.895Z</time></trkpt><trkpt lat="53.7946486" lon="-2.0010349"><ele>381.0</ele><time>2026-04-26T10:18:26.894Z</time></trkpt><trkpt lat="53.7947135" lon="-2.0009336"><ele>382.0</ele><time>2026-04-26T10:18:27.895Z</time></trkpt><trkpt lat="53.7947791" lon="-2.0008352"><ele>383.0</ele><time>2026-04-26T10:18:28.894Z</time></trkpt><trkpt lat="53.7948351" lon="-2.0007528"><ele>384.00000000000006</ele><time>2026-04-26T10:18:29.895Z</time></trkpt><trkpt lat="53.794884" lon="-2.0006776"><ele>385.0</ele><time>2026-04-26T10:18:30.892Z</time></trkpt><trkpt lat="53.794933" lon="-2.0005967"><ele>385.2</ele><time>2026-04-26T10:18:31.896Z</time></trkpt><trkpt lat="53.7949872" lon="-2.0005013"><ele>385.4</ele><time>2026-04-26T10:18:32.895Z</time></trkpt><trkpt lat="53.7950527" lon="-2.0003843"><ele>385.6</ele><time>2026-04-26T10:18:33.9Z</time></trkpt><trkpt lat="53.7951362" lon="-2.0002401"><ele>385.8</ele><time>2026-04-26T10:18:34.895Z</time></trkpt><trkpt lat="53.7952381" lon="-2.0000673"><ele>386.0</ele><time>2026-04-26T10:18:35.895Z</time></trkpt><trkpt lat="53.795356" lon="-1.9998779"><ele>389.0</ele><time>2026-04-26T10:18:36.896Z</time></trkpt><trkpt lat="53.7954838" lon="-1.9996778"><ele>392.0</ele><time>2026-04-26T10:18:37.896Z</time></trkpt><trkpt lat="53.7956136" lon="-1.9994787"><ele>395.0</ele><time>2026-04-26T10:18:38.895Z</time></trkpt><trkpt lat="53.7957296" lon="-1.9992952"><ele>395.5</ele><time>2026-04-26T10:18:39.898Z</time></trkpt><trkpt lat="53.7958303" lon="-1.9991273"><ele>396.0</ele><time>2026-04-26T10:18:40.897Z</time></trkpt><trkpt lat="53.7959184" lon="-1.9989688"><ele>396.5</ele><time>2026-04-26T10:18:41.892Z</time></trkpt><trkpt lat="53.7959918" lon="-1.9988192"><ele>397.0</ele><time>2026-04-26T10:18:42.894Z</time></trkpt><trkpt lat="53.7960496" lon="-1.9986762"><ele>399.40000000000003</ele><time>2026-04-26T10:18:43.898Z</time></trkpt><trkpt lat="53.7961042" lon="-1.9985325"><ele>401.8</ele><time>2026-04-26T10:18:44.894Z</time></trkpt><trkpt lat="53.7961599" lon="-1.9983951"><ele>404.2</ele><time>2026-04-26T10:18:45.894Z</time></trkpt><trkpt lat="53.7962243" lon="-1.9982731"><ele>406.6</ele><time>2026-04-26T10:18:46.893Z</time></trkpt><trkpt lat="53.7963039" lon="-1.9981633"><ele>409.0</ele><time>2026-04-26T10:18:47.893Z</time></trkpt><trkpt lat="53.796394" lon="-1.9980597"><ele>409.0</ele><time>2026-04-26T10:18:48.895Z</time></trkpt><trkpt lat="53.7964879" lon="-1.9979573"><ele>409.0</ele><time>2026-04-26T10:18:49.893Z</time></trkpt><trkpt lat="53.7965774" lon="-1.997862"><ele>409.0</ele><time>2026-04-26T10:18:50.892Z</time></trkpt><trkpt lat="53.7966574" lon="-1.997793"><ele>409.0</ele><time>2026-04-26T10:18:51.893Z</time></trkpt><trkpt lat="53.7967341" lon="-1.997747"><ele>409.0</ele><time>2026-04-26T10:18:52.892Z</time></trkpt><trkpt lat="53.7968115" lon="-1.9977067"><ele>410.79999999999995</ele><time>2026-04-26T10:18:53.896Z</time></trkpt><trkpt lat="53.7968884" lon="-1.9976679"><ele>412.59999999999997</ele><time>2026-04-26T10:18:54.894Z</time></trkpt><trkpt lat="53.7969717" lon="-1.9976359"><ele>414.4</ele><time>2026-04-26T10:18:55.894Z</time></trkpt><trkpt lat="53.7970599" lon="-1.9976028"><ele>416.2</ele><time>2026-04-26T10:18:56.891Z</time></trkpt><trkpt lat="53.7971526" lon="-1.9975588"><ele>418.0</ele><time>2026-04-26T10:18:57.893Z</time></trkpt><trkpt lat="53.7972526" lon="-1.9975038"><ele>418.0</ele><time>2026-04-26T10:18:58.894Z</time></trkpt><trkpt lat="53.7973561" lon="-1.9974345"><ele>418.0</ele><time>2026-04-26T10:18:59.893Z</time></trkpt><trkpt lat="53.7974662" lon="-1.9973518"><ele>418.0</ele><time>2026-04-26T10:19:00.894Z</time></trkpt><trkpt lat="53.7975776" lon="-1.9972617"><ele>418.0</ele><time>2026-04-26T10:19:01.898Z</time></trkpt><trkpt lat="53.7976897" lon="-1.9971627"><ele>419.25</ele><time>2026-04-26T10:19:02.897Z</time></trkpt><trkpt lat="53.7978011" lon="-1.9970537"><ele>420.5</ele><time>2026-04-26T10:19:03.901Z</time></trkpt><trkpt lat="53.7979088" lon="-1.9969322"><ele>421.75</ele><time>2026-04-26T10:19:04.898Z</time></trkpt><trkpt lat="53.7980144" lon="-1.9968125"><ele>423.0</ele><time>2026-04-26T10:19:05.896Z</time></trkpt><trkpt lat="53.7981265" lon="-1.9967104"><ele>422.75</ele><time>2026-04-26T10:19:06.888Z</time></trkpt><trkpt lat="53.7982404" lon="-1.9966124"><ele>422.5</ele><time>2026-04-26T10:19:07.895Z</time></trkpt><trkpt lat="53.7983526" lon="-1.9964987"><ele>422.25</ele><time>2026-04-26T10:19:08.897Z</time></trkpt><trkpt lat="53.798463" lon="-1.9963782"><ele>422.0</ele><time>2026-04-26T10:19:09.896Z</time></trkpt><trkpt lat="53.7985736" lon="-1.9962653"><ele>423.0</ele><time>2026-04-26T10:19:10.896Z</time></trkpt><trkpt lat="53.7986911" lon="-1.9961766"><ele>424.0</ele><time>2026-04-26T10:19:11.896Z</time></trkpt><trkpt lat="53.7988155" lon="-1.996116"><ele>425.0</ele><time>2026-04-26T10:19:12.891Z</time></trkpt><trkpt lat="53.7989454" lon="-1.9960729"><ele>426.0</ele><time>2026-04-26T10:19:13.895Z</time></trkpt><trkpt lat="53.7990795" lon="-1.9960488"><ele>426.0</ele><time>2026-04-26T10:19:14.893Z</time></trkpt><trkpt lat="53.7992163" lon="-1.9960256"><ele>426.0</ele><time>2026-04-26T10:19:15.894Z</time></trkpt><trkpt lat="53.799358" lon="-1.996004"><ele>426.0</ele><time>2026-04-26T10:19:16.895Z</time></trkpt><trkpt lat="53.7995042" lon="-1.9959782"><ele>426.0</ele><time>2026-04-26T10:19:17.894Z</time></trkpt><trkpt lat="53.7996489" lon="-1.9959407"><ele>426.0</ele><time>2026-04-26T10:19:18.892Z</time></trkpt><trkpt lat="53.7997918" lon="-1.995896"><ele>426.0</ele><time>2026-04-26T10:19:19.893Z</time></trkpt><trkpt lat="53.7999339" lon="-1.9958458"><ele>426.0</ele><time>2026-04-26T10:19:20.894Z</time></trkpt><trkpt lat="53.8000759" lon="-1.9957943"><ele>426.0</ele><time>2026-04-26T10:19:21.894Z</time></trkpt><trkpt lat="53.8002146" lon="-1.9957506"><ele>425.6</ele><time>2026-04-26T10:19:22.894Z</time></trkpt><trkpt lat="53.800344" lon="-1.9957156"><ele>425.20000000000005</ele><time>2026-04-26T10:19:23.898Z</time></trkpt><trkpt lat="53.8004571" lon="-1.9956827"><ele>424.79999999999995</ele><time>2026-04-26T10:19:24.894Z</time></trkpt><trkpt lat="53.8005568" lon="-1.9956497"><ele>424.4</ele><time>2026-04-26T10:19:25.895Z</time></trkpt><trkpt lat="53.800653" lon="-1.9956024"><ele>424.0</ele><time>2026-04-26T10:19:26.893Z</time></trkpt><trkpt lat="53.8007478" lon="-1.995533"><ele>424.0</ele><time>2026-04-26T10:19:27.893Z</time></trkpt><trkpt lat="53.8008464" lon="-1.9954356"><ele>424.0</ele><time>2026-04-26T10:19:28.894Z</time></trkpt><trkpt lat="53.8009462" lon="-1.9953219"><ele>424.0</ele><time>2026-04-26T10:19:29.894Z</time></trkpt><trkpt lat="53.801039" lon="-1.9951992"><ele>424.0</ele><time>2026-04-26T10:19:30.895Z</time></trkpt><trkpt lat="53.8011245" lon="-1.9950619"><ele>423.25</ele><time>2026-04-26T10:19:31.9Z</time></trkpt><trkpt lat="53.8012021" lon="-1.9949021"><ele>422.5</ele><time>2026-04-26T10:19:32.898Z</time></trkpt><trkpt lat="53.8012741" lon="-1.9947292"><ele>421.75</ele><time>2026-04-26T10:19:33.901Z</time></trkpt><trkpt lat="53.8013389" lon="-1.9945687"><ele>421.0</ele><time>2026-04-26T10:19:34.898Z</time></trkpt><trkpt lat="53.8014011" lon="-1.9944246"><ele>421.00000000000006</ele><time>2026-04-26T10:19:35.899Z</time></trkpt><trkpt lat="53.8014603" lon="-1.9942917"><ele>421.0</ele><time>2026-04-26T10:19:36.898Z</time></trkpt><trkpt lat="53.8015119" lon="-1.9941659"><ele>421.0</ele><time>2026-04-26T10:19:37.899Z</time></trkpt><trkpt lat="53.8015606" lon="-1.9940431"><ele>421.0</ele><time>2026-04-26T10:19:38.9Z</time></trkpt><trkpt lat="53.8016103" lon="-1.9939364"><ele>421.00000000000006</ele><time>2026-04-26T10:19:39.895Z</time></trkpt><trkpt lat="53.801658" lon="-1.9938451"><ele>421.0</ele><time>2026-04-26T10:19:40.887Z</time></trkpt><trkpt lat="53.8017044" lon="-1.9937584"><ele>420.6666666666667</ele><time>2026-04-26T10:19:41.894Z</time></trkpt><trkpt lat="53.8017503" lon="-1.9936763"><ele>420.33333333333337</ele><time>2026-04-26T10:19:42.889Z</time></trkpt><trkpt lat="53.8017971" lon="-1.9935944"><ele>420.0</ele><time>2026-04-26T10:19:43.899Z</time></trkpt><trkpt lat="53.8018459" lon="-1.9935162"><ele>419.66666666666663</ele><time>2026-04-26T10:19:44.895Z</time></trkpt><trkpt lat="53.8019397" lon="-1.993383"><ele>419.3333333333333</ele><time>2026-04-26T10:19:46.896Z</time></trkpt><trkpt lat="53.8020433" lon="-1.9932623"><ele>419.0</ele><time>2026-04-26T10:19:48.896Z</time></trkpt><trkpt lat="53.8021226" lon="-1.9931053"><ele>416.4</ele><time>2026-04-26T10:19:50.894Z</time></trkpt><trkpt lat="53.802219" lon="-1.9929789"><ele>413.79999999999995</ele><time>2026-04-26T10:19:52.896Z</time></trkpt><trkpt lat="53.8022855" lon="-1.9929477"><ele>411.20000000000005</ele><time>2026-04-26T10:19:53.897Z</time></trkpt><trkpt lat="53.8023495" lon="-1.9929247"><ele>408.6</ele><time>2026-04-26T10:19:54.894Z</time></trkpt><trkpt lat="53.8024353" lon="-1.9928216"><ele>406.0</ele><time>2026-04-26T10:19:56.894Z</time></trkpt><trkpt lat="53.8024977" lon="-1.9926885"><ele>406.0</ele><time>2026-04-26T10:19:58.895Z</time></trkpt><trkpt lat="53.8026231" lon="-1.9926612"><ele>406.0</ele><time>2026-04-26T10:20:00.895Z</time></trkpt><trkpt lat="53.8027134" lon="-1.9926984"><ele>406.0</ele><time>2026-04-26T10:20:01.894Z</time></trkpt><trkpt lat="53.8028003" lon="-1.9927672"><ele>406.0</ele><time>2026-04-26T10:20:02.893Z</time></trkpt><trkpt lat="53.8028749" lon="-1.9928372"><ele>406.0</ele><time>2026-04-26T10:20:03.897Z</time></trkpt><trkpt lat="53.8029421" lon="-1.9928965"><ele>404.1666666666667</ele><time>2026-04-26T10:20:04.894Z</time></trkpt><trkpt lat="53.8030098" lon="-1.9929439"><ele>402.33333333333337</ele><time>2026-04-26T10:20:05.886Z</time></trkpt><trkpt lat="53.8030786" lon="-1.9929716"><ele>400.5</ele><time>2026-04-26T10:20:06.895Z</time></trkpt><trkpt lat="53.8031435" lon="-1.9929583"><ele>398.66666666666663</ele><time>2026-04-26T10:20:07.89Z</time></trkpt><trkpt lat="53.8032116" lon="-1.9928979"><ele>396.8333333333333</ele><time>2026-04-26T10:20:08.896Z</time></trkpt><trkpt lat="53.8032773" lon="-1.9928211"><ele>395.0</ele><time>2026-04-26T10:20:09.896Z</time></trkpt><trkpt lat="53.8033478" lon="-1.9927371"><ele>395.0</ele><time>2026-04-26T10:20:10.897Z</time></trkpt><trkpt lat="53.8034204" lon="-1.9926448"><ele>395.0</ele><time>2026-04-26T10:20:11.895Z</time></trkpt><trkpt lat="53.8034937" lon="-1.9925402"><ele>395.0</ele><time>2026-04-26T10:20:12.893Z</time></trkpt><trkpt lat="53.8035621" lon="-1.9924231"><ele>395.0</ele><time>2026-04-26T10:20:13.9Z</time></trkpt><trkpt lat="53.8036251" lon="-1.992307"><ele>395.0</ele><time>2026-04-26T10:20:14.895Z</time></trkpt><trkpt lat="53.8036813" lon="-1.9922011"><ele>392.99999999999994</ele><time>2026-04-26T10:20:15.893Z</time></trkpt><trkpt lat="53.8037372" lon="-1.9921055"><ele>391.0</ele><time>2026-04-26T10:20:16.895Z</time></trkpt><trkpt lat="53.8037926" lon="-1.9920186"><ele>389.0</ele><time>2026-04-26T10:20:17.895Z</time></trkpt><trkpt lat="53.8038529" lon="-1.9919203"><ele>387.0</ele><time>2026-04-26T10:20:18.897Z</time></trkpt><trkpt lat="53.8039186" lon="-1.9918044"><ele>385.0</ele><time>2026-04-26T10:20:19.895Z</time></trkpt><trkpt lat="53.8039842" lon="-1.9916879"><ele>383.0</ele><time>2026-04-26T10:20:20.895Z</time></trkpt><trkpt lat="53.8040533" lon="-1.9915585"><ele>382.0</ele><time>2026-04-26T10:20:21.896Z</time></trkpt><trkpt lat="53.8041274" lon="-1.9914122"><ele>381.0</ele><time>2026-04-26T10:20:22.895Z</time></trkpt><trkpt lat="53.8042001" lon="-1.9912658"><ele>380.0</ele><time>2026-04-26T10:20:23.898Z</time></trkpt><trkpt lat="53.8042657" lon="-1.9911278"><ele>379.0</ele><time>2026-04-26T10:20:24.896Z</time></trkpt><trkpt lat="53.8043247" lon="-1.9909967"><ele>378.0</ele><time>2026-04-26T10:20:25.897Z</time></trkpt><trkpt lat="53.8043782" lon="-1.9908698"><ele>376.79999999999995</ele><time>2026-04-26T10:20:26.898Z</time></trkpt><trkpt lat="53.804432" lon="-1.9907515"><ele>375.6</ele><time>2026-04-26T10:20:27.897Z</time></trkpt><trkpt lat="53.8044885" lon="-1.9906308"><ele>374.4</ele><time>2026-04-26T10:20:28.896Z</time></trkpt><trkpt lat="53.8045433" lon="-1.9904992"><ele>373.20000000000005</ele><time>2026-04-26T10:20:29.895Z</time></trkpt><trkpt lat="53.8045984" lon="-1.9903633"><ele>372.0</ele><time>2026-04-26T10:20:30.895Z</time></trkpt><trkpt lat="53.8046562" lon="-1.9902284"><ele>372.0</ele><time>2026-04-26T10:20:31.9Z</time></trkpt><trkpt lat="53.8047175" lon="-1.9900826"><ele>372.0</ele><time>2026-04-26T10:20:32.896Z</time></trkpt><trkpt lat="53.8047791" lon="-1.9899293"><ele>372.0</ele><time>2026-04-26T10:20:33.898Z</time></trkpt><trkpt lat="53.8048396" lon="-1.9897809"><ele>372.0</ele><time>2026-04-26T10:20:34.896Z</time></trkpt><trkpt lat="53.8048997" lon="-1.9896402"><ele>372.0</ele><time>2026-04-26T10:20:35.897Z</time></trkpt><trkpt lat="53.8049585" lon="-1.9895049"><ele>371.40000000000003</ele><time>2026-04-26T10:20:36.897Z</time></trkpt><trkpt lat="53.8050157" lon="-1.9893652"><ele>370.8</ele><time>2026-04-26T10:20:37.896Z</time></trkpt><trkpt lat="53.8050736" lon="-1.9892319"><ele>370.2</ele><time>2026-04-26T10:20:38.896Z</time></trkpt><trkpt lat="53.8051285" lon="-1.9891182"><ele>369.6</ele><time>2026-04-26T10:20:39.895Z</time></trkpt><trkpt lat="53.8051765" lon="-1.9890287"><ele>369.0</ele><time>2026-04-26T10:20:40.896Z</time></trkpt><trkpt lat="53.8052445" lon="-1.9889203"><ele>368.2</ele><time>2026-04-26T10:20:42.896Z</time></trkpt><trkpt lat="53.805297" lon="-1.9888604"><ele>367.4</ele><time>2026-04-26T10:20:51.894Z</time></trkpt><trkpt lat="53.8053714" lon="-1.9888015"><ele>366.6</ele><time>2026-04-26T10:21:05.896Z</time></trkpt><trkpt lat="53.8054867" lon="-1.9887786"><ele>365.8</ele><time>2026-04-26T10:21:07.897Z</time></trkpt><trkpt lat="53.8055736" lon="-1.9887812"><ele>365.0</ele><time>2026-04-26T10:21:08.897Z</time></trkpt><trkpt lat="53.805681" lon="-1.9887836"><ele>365.0</ele><time>2026-04-26T10:21:09.897Z</time></trkpt><trkpt lat="53.8058072" lon="-1.9887695"><ele>365.0</ele><time>2026-04-26T10:21:10.896Z</time></trkpt><trkpt lat="53.8059248" lon="-1.9887532"><ele>365.0</ele><time>2026-04-26T10:21:11.896Z</time></trkpt><trkpt lat="53.8060167" lon="-1.9887533"><ele>365.0</ele><time>2026-04-26T10:21:12.894Z</time></trkpt><trkpt lat="53.8060861" lon="-1.9887637"><ele>365.0</ele><time>2026-04-26T10:21:13.902Z</time></trkpt><trkpt lat="53.8061926" lon="-1.9887638"><ele>364.6666666666667</ele><time>2026-04-26T10:21:15.895Z</time></trkpt><trkpt lat="53.8063142" lon="-1.9887649"><ele>364.33333333333337</ele><time>2026-04-26T10:21:17.894Z</time></trkpt><trkpt lat="53.8063788" lon="-1.9887386"><ele>364.0</ele><time>2026-04-26T10:21:18.898Z</time></trkpt><trkpt lat="53.8064401" lon="-1.9887083"><ele>363.6666666666667</ele><time>2026-04-26T10:21:19.896Z</time></trkpt><trkpt lat="53.8065553" lon="-1.9886441"><ele>363.3333333333333</ele><time>2026-04-26T10:21:21.895Z</time></trkpt><trkpt lat="53.806616" lon="-1.9886111"><ele>363.0</ele><time>2026-04-26T10:21:22.894Z</time></trkpt><trkpt lat="53.8066781" lon="-1.9885767"><ele>363.0</ele><time>2026-04-26T10:21:23.894Z</time></trkpt><trkpt lat="53.8067376" lon="-1.9885325"><ele>363.0</ele><time>2026-04-26T10:21:24.895Z</time></trkpt><trkpt lat="53.8067918" lon="-1.9884684"><ele>363.0</ele><time>2026-04-26T10:21:25.895Z</time></trkpt><trkpt lat="53.806837" lon="-1.9883833"><ele>363.0</ele><time>2026-04-26T10:21:26.897Z</time></trkpt><trkpt lat="53.8068793" lon="-1.9882793"><ele>363.0</ele><time>2026-04-26T10:21:27.896Z</time></trkpt><trkpt lat="53.8069314" lon="-1.9881569"><ele>363.0</ele><time>2026-04-26T10:21:28.896Z</time></trkpt><trkpt lat="53.8069999" lon="-1.9880348"><ele>361.59999999999997</ele><time>2026-04-26T10:21:29.895Z</time></trkpt><trkpt lat="53.8070833" lon="-1.9879154"><ele>360.2</ele><time>2026-04-26T10:21:30.897Z</time></trkpt><trkpt lat="53.8071742" lon="-1.9877896"><ele>358.8</ele><time>2026-04-26T10:21:31.897Z</time></trkpt><trkpt lat="53.8072575" lon="-1.9876569"><ele>357.4</ele><time>2026-04-26T10:21:32.898Z</time></trkpt><trkpt lat="53.8073266" lon="-1.9875272"><ele>356.0</ele><time>2026-04-26T10:21:33.904Z</time></trkpt><trkpt lat="53.8073789" lon="-1.9873996"><ele>355.6666666666667</ele><time>2026-04-26T10:21:34.898Z</time></trkpt><trkpt lat="53.8074203" lon="-1.9872673"><ele>355.33333333333337</ele><time>2026-04-26T10:21:35.899Z</time></trkpt><trkpt lat="53.8074613" lon="-1.9871399"><ele>355.0</ele><time>2026-04-26T10:21:36.897Z</time></trkpt><trkpt lat="53.807513" lon="-1.9870182"><ele>354.6666666666667</ele><time>2026-04-26T10:21:37.898Z</time></trkpt><trkpt lat="53.8075711" lon="-1.9869045"><ele>354.3333333333333</ele><time>2026-04-26T10:21:38.898Z</time></trkpt><trkpt lat="53.8076218" lon="-1.9867954"><ele>354.0</ele><time>2026-04-26T10:21:39.898Z</time></trkpt><trkpt lat="53.8076669" lon="-1.9866839"><ele>352.42857142857144</ele><time>2026-04-26T10:21:40.898Z</time></trkpt><trkpt lat="53.8077165" lon="-1.9865838"><ele>350.85714285714283</ele><time>2026-04-26T10:21:41.892Z</time></trkpt><trkpt lat="53.8077786" lon="-1.9865139"><ele>349.2857142857143</ele><time>2026-04-26T10:21:42.893Z</time></trkpt><trkpt lat="53.8078489" lon="-1.9864675"><ele>347.7142857142857</ele><time>2026-04-26T10:21:43.9Z</time></trkpt><trkpt lat="53.8079136" lon="-1.9864196"><ele>346.1428571428571</ele><time>2026-04-26T10:21:44.897Z</time></trkpt><trkpt lat="53.8079708" lon="-1.9863541"><ele>344.57142857142856</ele><time>2026-04-26T10:21:45.894Z</time></trkpt><trkpt lat="53.8080268" lon="-1.9862812"><ele>343.0</ele><time>2026-04-26T10:21:46.895Z</time></trkpt><trkpt lat="53.80808" lon="-1.9861996"><ele>343.0</ele><time>2026-04-26T10:21:47.896Z</time></trkpt><trkpt lat="53.8081341" lon="-1.9861216"><ele>343.0</ele><time>2026-04-26T10:21:48.897Z</time></trkpt><trkpt lat="53.8081928" lon="-1.9860449"><ele>343.0</ele><time>2026-04-26T10:21:49.896Z</time></trkpt><trkpt lat="53.8082535" lon="-1.9859652"><ele>343.0</ele><time>2026-04-26T10:21:50.896Z</time></trkpt><trkpt lat="53.8083143" lon="-1.9858838"><ele>343.0</ele><time>2026-04-26T10:21:51.895Z</time></trkpt><trkpt lat="53.808372" lon="-1.9858142"><ele>343.0</ele><time>2026-04-26T10:21:52.896Z</time></trkpt><trkpt lat="53.8084252" lon="-1.9857572"><ele>343.0</ele><time>2026-04-26T10:21:53.902Z</time></trkpt><trkpt lat="53.8085238" lon="-1.9856447"><ele>340.16666666666663</ele><time>2026-04-26T10:21:55.896Z</time></trkpt><trkpt lat="53.8086223" lon="-1.9855232"><ele>337.3333333333333</ele><time>2026-04-26T10:21:57.898Z</time></trkpt><trkpt lat="53.8086756" lon="-1.9854561"><ele>334.5</ele><time>2026-04-26T10:21:58.895Z</time></trkpt><trkpt lat="53.8087338" lon="-1.9853954"><ele>331.6666666666667</ele><time>2026-04-26T10:21:59.896Z</time></trkpt><trkpt lat="53.8087917" lon="-1.9853352"><ele>328.83333333333337</ele><time>2026-04-26T10:22:00.897Z</time></trkpt><trkpt lat="53.8088506" lon="-1.9852764"><ele>326.0</ele><time>2026-04-26T10:22:01.896Z</time></trkpt><trkpt lat="53.8089059" lon="-1.9852124"><ele>326.0</ele><time>2026-04-26T10:22:02.896Z</time></trkpt><trkpt lat="53.8089569" lon="-1.9851382"><ele>326.0</ele><time>2026-04-26T10:22:03.905Z</time></trkpt><trkpt lat="53.80901" lon="-1.9850598"><ele>326.0</ele><time>2026-04-26T10:22:04.897Z</time></trkpt><trkpt lat="53.809063" lon="-1.9849829"><ele>326.0</ele><time>2026-04-26T10:22:05.898Z</time></trkpt><trkpt lat="53.8091146" lon="-1.98491"><ele>326.0</ele><time>2026-04-26T10:22:06.899Z</time></trkpt><trkpt lat="53.8091648" lon="-1.9848369"><ele>326.0</ele><time>2026-04-26T10:22:07.897Z</time></trkpt><trkpt lat="53.8092464" lon="-1.9847034"><ele>320.25</ele><time>2026-04-26T10:22:09.895Z</time></trkpt><trkpt lat="53.8093362" lon="-1.9846156"><ele>314.5</ele><time>2026-04-26T10:22:11.894Z</time></trkpt><trkpt lat="53.8094175" lon="-1.9844766"><ele>308.75</ele><time>2026-04-26T10:22:13.898Z</time></trkpt><trkpt lat="53.8094864" lon="-1.984307"><ele>303.0</ele><time>2026-04-26T10:22:15.897Z</time></trkpt><trkpt lat="53.8095662" lon="-1.9841668"><ele>302.14285714285717</ele><time>2026-04-26T10:22:17.895Z</time></trkpt><trkpt lat="53.8096174" lon="-1.9841032"><ele>301.2857142857143</ele><time>2026-04-26T10:22:18.896Z</time></trkpt><trkpt lat="53.8096732" lon="-1.9840505"><ele>300.42857142857144</ele><time>2026-04-26T10:22:19.895Z</time></trkpt><trkpt lat="53.809731" lon="-1.9840049"><ele>299.57142857142856</ele><time>2026-04-26T10:22:20.898Z</time></trkpt><trkpt lat="53.8097858" lon="-1.9839418"><ele>298.7142857142857</ele><time>2026-04-26T10:22:21.895Z</time></trkpt><trkpt lat="53.8098346" lon="-1.9838573"><ele>297.8571428571429</ele><time>2026-04-26T10:22:22.896Z</time></trkpt><trkpt lat="53.809885" lon="-1.9837534"><ele>297.0</ele><time>2026-04-26T10:22:23.895Z</time></trkpt><trkpt lat="53.8099421" lon="-1.983637"><ele>297.0</ele><time>2026-04-26T10:22:24.897Z</time></trkpt><trkpt lat="53.8100045" lon="-1.9835254"><ele>297.0</ele><time>2026-04-26T10:22:25.895Z</time></trkpt><trkpt lat="53.8100694" lon="-1.983426"><ele>297.0</ele><time>2026-04-26T10:22:26.895Z</time></trkpt><trkpt lat="53.8101349" lon="-1.983327"><ele>297.0</ele><time>2026-04-26T10:22:27.897Z</time></trkpt><trkpt lat="53.8102034" lon="-1.9832225"><ele>297.0</ele><time>2026-04-26T10:22:28.887Z</time></trkpt><trkpt lat="53.8102712" lon="-1.9831143"><ele>295.0</ele><time>2026-04-26T10:22:29.896Z</time></trkpt><trkpt lat="53.810332" lon="-1.9830186"><ele>293.0</ele><time>2026-04-26T10:22:30.895Z</time></trkpt><trkpt lat="53.810387" lon="-1.9829322"><ele>291.0</ele><time>2026-04-26T10:22:31.893Z</time></trkpt><trkpt lat="53.8104463" lon="-1.9828442"><ele>289.0</ele><time>2026-04-26T10:22:32.892Z</time></trkpt><trkpt lat="53.8105102" lon="-1.9827505"><ele>287.0</ele><time>2026-04-26T10:22:33.898Z</time></trkpt><trkpt lat="53.8105829" lon="-1.9826538"><ele>285.0</ele><time>2026-04-26T10:22:34.895Z</time></trkpt><trkpt lat="53.8106687" lon="-1.9825346"><ele>284.25</ele><time>2026-04-26T10:22:35.894Z</time></trkpt><trkpt lat="53.8107693" lon="-1.9823933"><ele>283.5</ele><time>2026-04-26T10:22:36.892Z</time></trkpt><trkpt lat="53.8108836" lon="-1.9822367"><ele>282.75</ele><time>2026-04-26T10:22:37.893Z</time></trkpt><trkpt lat="53.8109946" lon="-1.9820785"><ele>282.0</ele><time>2026-04-26T10:22:38.894Z</time></trkpt><trkpt lat="53.8111002" lon="-1.9819188"><ele>280.8</ele><time>2026-04-26T10:22:39.893Z</time></trkpt><trkpt lat="53.8111963" lon="-1.9817583"><ele>279.6</ele><time>2026-04-26T10:22:40.894Z</time></trkpt><trkpt lat="53.8112791" lon="-1.9816086"><ele>278.40000000000003</ele><time>2026-04-26T10:22:41.895Z</time></trkpt><trkpt lat="53.8113502" lon="-1.9814835"><ele>277.2</ele><time>2026-04-26T10:22:42.894Z</time></trkpt><trkpt lat="53.8114109" lon="-1.9813893"><ele>276.0</ele><time>2026-04-26T10:22:43.903Z</time></trkpt><trkpt lat="53.8114663" lon="-1.981314"><ele>275.40000000000003</ele><time>2026-04-26T10:22:44.898Z</time></trkpt><trkpt lat="53.8115319" lon="-1.9812299"><ele>274.8</ele><time>2026-04-26T10:22:45.896Z</time></trkpt><trkpt lat="53.8116073" lon="-1.9811133"><ele>274.20000000000005</ele><time>2026-04-26T10:22:46.896Z</time></trkpt><trkpt lat="53.8116911" lon="-1.9809606"><ele>273.6</ele><time>2026-04-26T10:22:47.898Z</time></trkpt><trkpt lat="53.8117883" lon="-1.980788"><ele>273.0</ele><time>2026-04-26T10:22:48.896Z</time></trkpt><trkpt lat="53.811886" lon="-1.9806271"><ele>270.6</ele><time>2026-04-26T10:22:49.896Z</time></trkpt><trkpt lat="53.8119746" lon="-1.9804824"><ele>268.20000000000005</ele><time>2026-04-26T10:22:50.898Z</time></trkpt><trkpt lat="53.8120389" lon="-1.9803548"><ele>265.8</ele><time>2026-04-26T10:22:51.897Z</time></trkpt><trkpt lat="53.8120713" lon="-1.9802482"><ele>263.40000000000003</ele><time>2026-04-26T10:22:52.894Z</time></trkpt><trkpt lat="53.8120653" lon="-1.9800969"><ele>261.0</ele><time>2026-04-26T10:22:54.896Z</time></trkpt><trkpt lat="53.8120117" lon="-1.9799802"><ele>260.6</ele><time>2026-04-26T10:23:01.895Z</time></trkpt><trkpt lat="53.8119581" lon="-1.979757"><ele>260.20000000000005</ele><time>2026-04-26T10:23:03.896Z</time></trkpt><trkpt lat="53.8119407" lon="-1.9795797"><ele>259.79999999999995</ele><time>2026-04-26T10:23:04.893Z</time></trkpt><trkpt lat="53.8119313" lon="-1.9794069"><ele>259.4</ele><time>2026-04-26T10:23:05.895Z</time></trkpt><trkpt lat="53.8119291" lon="-1.9792536"><ele>259.0</ele><time>2026-04-26T10:23:06.891Z</time></trkpt><trkpt lat="53.8119237" lon="-1.9791013"><ele>259.0</ele><time>2026-04-26T10:23:07.894Z</time></trkpt><trkpt lat="53.8119115" lon="-1.9789412"><ele>259.0</ele><time>2026-04-26T10:23:08.893Z</time></trkpt><trkpt lat="53.811895" lon="-1.9787514"><ele>259.0</ele><time>2026-04-26T10:23:09.896Z</time></trkpt><trkpt lat="53.8118741" lon="-1.9785413"><ele>259.0</ele><time>2026-04-26T10:23:10.895Z</time></trkpt><trkpt lat="53.8118531" lon="-1.9783517"><ele>259.0</ele><time>2026-04-26T10:23:11.895Z</time></trkpt><trkpt lat="53.8118365" lon="-1.9781875"><ele>259.16666666666663</ele><time>2026-04-26T10:23:12.889Z</time></trkpt><trkpt lat="53.8118256" lon="-1.978044"><ele>259.3333333333333</ele><time>2026-04-26T10:23:13.9Z</time></trkpt><trkpt lat="53.8118095" lon="-1.9779014"><ele>259.5</ele><time>2026-04-26T10:23:14.896Z</time></trkpt><trkpt lat="53.8117877" lon="-1.9777535"><ele>259.6666666666667</ele><time>2026-04-26T10:23:15.895Z</time></trkpt><trkpt lat="53.8117712" lon="-1.9776155"><ele>259.83333333333337</ele><time>2026-04-26T10:23:16.895Z</time></trkpt><trkpt lat="53.8117635" lon="-1.9774935"><ele>260.0</ele><time>2026-04-26T10:23:17.895Z</time></trkpt><trkpt lat="53.811774" lon="-1.9773645"><ele>260.4</ele><time>2026-04-26T10:23:18.896Z</time></trkpt><trkpt lat="53.8118037" lon="-1.9772324"><ele>260.8</ele><time>2026-04-26T10:23:19.895Z</time></trkpt><trkpt lat="53.8118497" lon="-1.9771025"><ele>261.2</ele><time>2026-04-26T10:23:20.896Z</time></trkpt><trkpt lat="53.8119047" lon="-1.9769665"><ele>261.6</ele><time>2026-04-26T10:23:21.895Z</time></trkpt><trkpt lat="53.8119653" lon="-1.976825"><ele>262.0</ele><time>2026-04-26T10:23:22.895Z</time></trkpt><trkpt lat="53.8120249" lon="-1.9766863"><ele>260.0</ele><time>2026-04-26T10:23:23.9Z</time></trkpt><trkpt lat="53.8120835" lon="-1.9765449"><ele>258.0</ele><time>2026-04-26T10:23:24.896Z</time></trkpt><trkpt lat="53.8121471" lon="-1.9763955"><ele>256.0</ele><time>2026-04-26T10:23:25.896Z</time></trkpt><trkpt lat="53.8122112" lon="-1.9762379"><ele>254.0</ele><time>2026-04-26T10:23:26.897Z</time></trkpt><trkpt lat="53.8122779" lon="-1.9760751"><ele>252.0</ele><time>2026-04-26T10:23:27.896Z</time></trkpt><trkpt lat="53.8123524" lon="-1.9759145"><ele>251.0</ele><time>2026-04-26T10:23:28.896Z</time></trkpt><trkpt lat="53.8124387" lon="-1.9757757"><ele>250.0</ele><time>2026-04-26T10:23:29.896Z</time></trkpt><trkpt lat="53.8125448" lon="-1.9756706"><ele>249.0</ele><time>2026-04-26T10:23:30.895Z</time></trkpt><trkpt lat="53.8126741" lon="-1.9755929"><ele>248.0</ele><time>2026-04-26T10:23:31.894Z</time></trkpt><trkpt lat="53.8128087" lon="-1.9755311"><ele>247.5</ele><time>2026-04-26T10:23:32.896Z</time></trkpt><trkpt lat="53.8129403" lon="-1.9754769"><ele>247.0</ele><time>2026-04-26T10:23:33.899Z</time></trkpt><trkpt lat="53.8130768" lon="-1.975429"><ele>246.5</ele><time>2026-04-26T10:23:34.897Z</time></trkpt><trkpt lat="53.8132104" lon="-1.9753854"><ele>246.0</ele><time>2026-04-26T10:23:35.894Z</time></trkpt><trkpt lat="53.8133386" lon="-1.9753315"><ele>246.0</ele><time>2026-04-26T10:23:36.895Z</time></trkpt><trkpt lat="53.8134602" lon="-1.9752679"><ele>246.00000000000003</ele><time>2026-04-26T10:23:37.896Z</time></trkpt><trkpt lat="53.8135713" lon="-1.9752044"><ele>246.00000000000003</ele><time>2026-04-26T10:23:38.896Z</time></trkpt><trkpt lat="53.8136623" lon="-1.9751381"><ele>246.0</ele><time>2026-04-26T10:23:39.895Z</time></trkpt><trkpt lat="53.8137378" lon="-1.975051"><ele>246.0</ele><time>2026-04-26T10:23:40.894Z</time></trkpt><trkpt lat="53.8137987" lon="-1.974921"><ele>247.75</ele><time>2026-04-26T10:23:41.892Z</time></trkpt><trkpt lat="53.8138464" lon="-1.9747536"><ele>249.5</ele><time>2026-04-26T10:23:42.895Z</time></trkpt><trkpt lat="53.813882" lon="-1.9745719"><ele>251.25</ele><time>2026-04-26T10:23:43.899Z</time></trkpt><trkpt lat="53.8139208" lon="-1.9743821"><ele>253.0</ele><time>2026-04-26T10:23:44.895Z</time></trkpt><trkpt lat="53.8139649" lon="-1.9741849"><ele>253.0</ele><time>2026-04-26T10:23:45.894Z</time></trkpt><trkpt lat="53.8140125" lon="-1.9739819"><ele>253.0</ele><time>2026-04-26T10:23:46.893Z</time></trkpt><trkpt lat="53.8140626" lon="-1.9737742"><ele>253.0</ele><time>2026-04-26T10:23:47.893Z</time></trkpt><trkpt lat="53.8141158" lon="-1.973568"><ele>253.0</ele><time>2026-04-26T10:23:48.894Z</time></trkpt><trkpt lat="53.8141723" lon="-1.9733613"><ele>252.5</ele><time>2026-04-26T10:23:49.895Z</time></trkpt><trkpt lat="53.8142328" lon="-1.9731558"><ele>252.0</ele><time>2026-04-26T10:23:50.892Z</time></trkpt><trkpt lat="53.8142976" lon="-1.9729543"><ele>251.5</ele><time>2026-04-26T10:23:51.884Z</time></trkpt><trkpt lat="53.8143656" lon="-1.9727554"><ele>251.0</ele><time>2026-04-26T10:23:52.893Z</time></trkpt><trkpt lat="53.8144355" lon="-1.9725571"><ele>253.0</ele><time>2026-04-26T10:23:53.896Z</time></trkpt><trkpt lat="53.8145083" lon="-1.9723582"><ele>255.0</ele><time>2026-04-26T10:23:54.895Z</time></trkpt><trkpt lat="53.8145844" lon="-1.972164"><ele>257.0</ele><time>2026-04-26T10:23:55.897Z</time></trkpt><trkpt lat="53.8146577" lon="-1.971985"><ele>259.0</ele><time>2026-04-26T10:23:56.898Z</time></trkpt><trkpt lat="53.814725" lon="-1.9718298"><ele>259.0</ele><time>2026-04-26T10:23:57.895Z</time></trkpt><trkpt lat="53.8147818" lon="-1.9717062"><ele>259.0</ele><time>2026-04-26T10:23:58.895Z</time></trkpt><trkpt lat="53.8148285" lon="-1.9716164"><ele>259.0</ele><time>2026-04-26T10:23:59.894Z</time></trkpt><trkpt lat="53.8148834" lon="-1.9715237"><ele>259.0</ele><time>2026-04-26T10:24:01.894Z</time></trkpt><trkpt lat="53.8149131" lon="-1.9713091"><ele>259.0</ele><time>2026-04-26T10:25:02.891Z</time></trkpt><trkpt lat="53.8149526" lon="-1.9711628"><ele>258.5</ele><time>2026-04-26T10:25:03.895Z</time></trkpt><trkpt lat="53.8150009" lon="-1.9709879"><ele>258.0</ele><time>2026-04-26T10:25:04.894Z</time></trkpt><trkpt lat="53.8150451" lon="-1.970809"><ele>257.5</ele><time>2026-04-26T10:25:05.892Z</time></trkpt><trkpt lat="53.8150918" lon="-1.970612"><ele>257.0</ele><time>2026-04-26T10:25:06.894Z</time></trkpt><trkpt lat="53.8151426" lon="-1.9704013"><ele>257.0</ele><time>2026-04-26T10:25:07.894Z</time></trkpt><trkpt lat="53.815194" lon="-1.9701916"><ele>257.0</ele><time>2026-04-26T10:25:08.892Z</time></trkpt><trkpt lat="53.8152433" lon="-1.9699887"><ele>257.0</ele><time>2026-04-26T10:25:09.893Z</time></trkpt><trkpt lat="53.8152887" lon="-1.9697884"><ele>257.0</ele><time>2026-04-26T10:25:10.893Z</time></trkpt><trkpt lat="53.8153319" lon="-1.9695937"><ele>257.0</ele><time>2026-04-26T10:25:11.894Z</time></trkpt><trkpt lat="53.8153704" lon="-1.9694025"><ele>257.0</ele><time>2026-04-26T10:25:12.893Z</time></trkpt><trkpt lat="53.8154095" lon="-1.9692173"><ele>257.0</ele><time>2026-04-26T10:25:13.898Z</time></trkpt><trkpt lat="53.8154492" lon="-1.9690465"><ele>257.0</ele><time>2026-04-26T10:25:14.896Z</time></trkpt><trkpt lat="53.8154856" lon="-1.9688994"><ele>257.0</ele><time>2026-04-26T10:25:15.895Z</time></trkpt><trkpt lat="53.815517" lon="-1.968781"><ele>256.6</ele><time>2026-04-26T10:25:16.895Z</time></trkpt><trkpt lat="53.8155563" lon="-1.9686564"><ele>256.2</ele><time>2026-04-26T10:25:18.886Z</time></trkpt><trkpt lat="53.8155902" lon="-1.9685242"><ele>255.8</ele><time>2026-04-26T10:25:21.894Z</time></trkpt><trkpt lat="53.8156235" lon="-1.9684152"><ele>255.4</ele><time>2026-04-26T10:25:22.895Z</time></trkpt><trkpt lat="53.8156687" lon="-1.9682644"><ele>255.0</ele><time>2026-04-26T10:25:23.899Z</time></trkpt><trkpt lat="53.8157273" lon="-1.9680831"><ele>255.0</ele><time>2026-04-26T10:25:24.894Z</time></trkpt><trkpt lat="53.8157939" lon="-1.9678841"><ele>255.0</ele><time>2026-04-26T10:25:25.895Z</time></trkpt><trkpt lat="53.8158644" lon="-1.9676771"><ele>255.0</ele><time>2026-04-26T10:25:26.894Z</time></trkpt><trkpt lat="53.815938" lon="-1.9674635"><ele>255.0</ele><time>2026-04-26T10:25:27.894Z</time></trkpt><trkpt lat="53.816008" lon="-1.9672523"><ele>255.0</ele><time>2026-04-26T10:25:28.895Z</time></trkpt><trkpt lat="53.8160766" lon="-1.967044"><ele>255.0</ele><time>2026-04-26T10:25:29.895Z</time></trkpt><trkpt lat="53.8161452" lon="-1.9668399"><ele>255.0</ele><time>2026-04-26T10:25:30.894Z</time></trkpt><trkpt lat="53.8162133" lon="-1.9666337"><ele>255.0</ele><time>2026-04-26T10:25:31.892Z</time></trkpt><trkpt lat="53.8162789" lon="-1.9664269"><ele>254.5</ele><time>2026-04-26T10:25:32.89Z</time></trkpt><trkpt lat="53.816342" lon="-1.9662222"><ele>254.0</ele><time>2026-04-26T10:25:33.897Z</time></trkpt><trkpt lat="53.8164025" lon="-1.9660189"><ele>253.5</ele><time>2026-04-26T10:25:34.892Z</time></trkpt><trkpt lat="53.8164591" lon="-1.9658172"><ele>253.0</ele><time>2026-04-26T10:25:35.892Z</time></trkpt><trkpt lat="53.8165125" lon="-1.9656129"><ele>252.75</ele><time>2026-04-26T10:25:36.891Z</time></trkpt><trkpt lat="53.8165666" lon="-1.9654002"><ele>252.5</ele><time>2026-04-26T10:25:37.893Z</time></trkpt><trkpt lat="53.8166198" lon="-1.9651819"><ele>252.25</ele><time>2026-04-26T10:25:38.891Z</time></trkpt><trkpt lat="53.8166709" lon="-1.9649566"><ele>252.0</ele><time>2026-04-26T10:25:39.893Z</time></trkpt><trkpt lat="53.8167218" lon="-1.9647287"><ele>251.5</ele><time>2026-04-26T10:25:40.894Z</time></trkpt><trkpt lat="53.8167702" lon="-1.9644986"><ele>251.0</ele><time>2026-04-26T10:25:41.893Z</time></trkpt><trkpt lat="53.8168124" lon="-1.9642737"><ele>250.5</ele><time>2026-04-26T10:25:42.895Z</time></trkpt><trkpt lat="53.8168536" lon="-1.9640421"><ele>250.0</ele><time>2026-04-26T10:25:43.901Z</time></trkpt><trkpt lat="53.8168986" lon="-1.9637979"><ele>249.0</ele><time>2026-04-26T10:25:44.894Z</time></trkpt><trkpt lat="53.8169496" lon="-1.9635378"><ele>248.0</ele><time>2026-04-26T10:25:45.895Z</time></trkpt><trkpt lat="53.8170093" lon="-1.9632581"><ele>247.0</ele><time>2026-04-26T10:25:46.896Z</time></trkpt><trkpt lat="53.8170683" lon="-1.9629744"><ele>246.66666666666666</ele><time>2026-04-26T10:25:47.895Z</time></trkpt><trkpt lat="53.8171221" lon="-1.9626933"><ele>246.33333333333331</ele><time>2026-04-26T10:25:48.894Z</time></trkpt><trkpt lat="53.8171595" lon="-1.9624129"><ele>246.0</ele><time>2026-04-26T10:25:49.895Z</time></trkpt><trkpt lat="53.8171696" lon="-1.9621492"><ele>245.5</ele><time>2026-04-26T10:25:50.894Z</time></trkpt><trkpt lat="53.8171649" lon="-1.9619005"><ele>245.0</ele><time>2026-04-26T10:25:51.895Z</time></trkpt><trkpt lat="53.8171723" lon="-1.961661"><ele>244.5</ele><time>2026-04-26T10:25:52.896Z</time></trkpt><trkpt lat="53.8172021" lon="-1.9614345"><ele>244.0</ele><time>2026-04-26T10:25:53.897Z</time></trkpt><trkpt lat="53.8172545" lon="-1.9612147"><ele>243.75</ele><time>2026-04-26T10:25:54.895Z</time></trkpt><trkpt lat="53.8173257" lon="-1.9609969"><ele>243.5</ele><time>2026-04-26T10:25:55.896Z</time></trkpt><trkpt lat="53.8174025" lon="-1.9607779"><ele>243.25</ele><time>2026-04-26T10:25:56.896Z</time></trkpt><trkpt lat="53.8174775" lon="-1.9605581"><ele>243.0</ele><time>2026-04-26T10:25:57.895Z</time></trkpt><trkpt lat="53.8175486" lon="-1.9603312"><ele>242.66666666666669</ele><time>2026-04-26T10:25:58.895Z</time></trkpt><trkpt lat="53.8176186" lon="-1.9600976"><ele>242.33333333333334</ele><time>2026-04-26T10:25:59.893Z</time></trkpt><trkpt lat="53.8176899" lon="-1.9598603"><ele>242.0</ele><time>2026-04-26T10:26:00.893Z</time></trkpt><trkpt lat="53.8177625" lon="-1.9596161"><ele>242.0</ele><time>2026-04-26T10:26:01.893Z</time></trkpt><trkpt lat="53.8178346" lon="-1.9593698"><ele>242.0</ele><time>2026-04-26T10:26:02.894Z</time></trkpt><trkpt lat="53.8179071" lon="-1.959122"><ele>242.0</ele><time>2026-04-26T10:26:03.898Z</time></trkpt><trkpt lat="53.817979" lon="-1.958871"><ele>241.66666666666669</ele><time>2026-04-26T10:26:04.894Z</time></trkpt><trkpt lat="53.8180524" lon="-1.9586192"><ele>241.33333333333331</ele><time>2026-04-26T10:26:05.894Z</time></trkpt><trkpt lat="53.8181275" lon="-1.9583688"><ele>241.0</ele><time>2026-04-26T10:26:06.894Z</time></trkpt><trkpt lat="53.8182041" lon="-1.9581176"><ele>241.0</ele><time>2026-04-26T10:26:07.896Z</time></trkpt><trkpt lat="53.8182801" lon="-1.9578661"><ele>241.0</ele><time>2026-04-26T10:26:08.896Z</time></trkpt><trkpt lat="53.818355" lon="-1.9576156"><ele>241.0</ele><time>2026-04-26T10:26:09.893Z</time></trkpt><trkpt lat="53.8184298" lon="-1.9573685"><ele>241.66666666666666</ele><time>2026-04-26T10:26:10.893Z</time></trkpt><trkpt lat="53.8185068" lon="-1.9571265"><ele>242.33333333333331</ele><time>2026-04-26T10:26:11.893Z</time></trkpt><trkpt lat="53.818585" lon="-1.9568824"><ele>243.0</ele><time>2026-04-26T10:26:12.886Z</time></trkpt><trkpt lat="53.8186634" lon="-1.956635"><ele>243.0</ele><time>2026-04-26T10:26:13.897Z</time></trkpt><trkpt lat="53.8187427" lon="-1.956383"><ele>243.0</ele><time>2026-04-26T10:26:14.894Z</time></trkpt><trkpt lat="53.8188227" lon="-1.9561346"><ele>243.0</ele><time>2026-04-26T10:26:15.892Z</time></trkpt><trkpt lat="53.8189075" lon="-1.9558901"><ele>242.66666666666669</ele><time>2026-04-26T10:26:16.891Z</time></trkpt><trkpt lat="53.8189994" lon="-1.9556505"><ele>242.33333333333334</ele><time>2026-04-26T10:26:17.894Z</time></trkpt><trkpt lat="53.819103" lon="-1.9554193"><ele>242.0</ele><time>2026-04-26T10:26:18.895Z</time></trkpt><trkpt lat="53.8192196" lon="-1.9551997"><ele>243.33333333333334</ele><time>2026-04-26T10:26:19.89Z</time></trkpt><trkpt lat="53.8193451" lon="-1.9549866"><ele>244.66666666666669</ele><time>2026-04-26T10:26:20.899Z</time></trkpt><trkpt lat="53.8194722" lon="-1.954774"><ele>246.0</ele><time>2026-04-26T10:26:21.898Z</time></trkpt><trkpt lat="53.8195958" lon="-1.9545573"><ele>246.0</ele><time>2026-04-26T10:26:22.898Z</time></trkpt><trkpt lat="53.819717" lon="-1.9543399"><ele>246.0</ele><time>2026-04-26T10:26:23.904Z</time></trkpt><trkpt lat="53.8198365" lon="-1.9541291"><ele>246.0</ele><time>2026-04-26T10:26:24.899Z</time></trkpt><trkpt lat="53.8199549" lon="-1.9539195"><ele>246.33333333333331</ele><time>2026-04-26T10:26:25.898Z</time></trkpt><trkpt lat="53.8200715" lon="-1.9537071"><ele>246.66666666666666</ele><time>2026-04-26T10:26:26.898Z</time></trkpt><trkpt lat="53.8201849" lon="-1.9534939"><ele>247.0</ele><time>2026-04-26T10:26:27.899Z</time></trkpt><trkpt lat="53.8202969" lon="-1.9532745"><ele>246.0</ele><time>2026-04-26T10:26:28.898Z</time></trkpt><trkpt lat="53.8204137" lon="-1.9530561"><ele>245.0</ele><time>2026-04-26T10:26:29.898Z</time></trkpt><trkpt lat="53.8205329" lon="-1.9528453"><ele>244.0</ele><time>2026-04-26T10:26:30.901Z</time></trkpt><trkpt lat="53.8206501" lon="-1.9526563"><ele>243.0</ele><time>2026-04-26T10:26:31.9Z</time></trkpt><trkpt lat="53.8207712" lon="-1.9524834"><ele>242.0</ele><time>2026-04-26T10:26:32.898Z</time></trkpt><trkpt lat="53.8208908" lon="-1.9523166"><ele>241.0</ele><time>2026-04-26T10:26:33.901Z</time></trkpt><trkpt lat="53.8210087" lon="-1.9521487"><ele>240.33333333333331</ele><time>2026-04-26T10:26:34.899Z</time></trkpt><trkpt lat="53.8211298" lon="-1.9519775"><ele>239.66666666666669</ele><time>2026-04-26T10:26:35.898Z</time></trkpt><trkpt lat="53.8212568" lon="-1.9518057"><ele>239.0</ele><time>2026-04-26T10:26:36.892Z</time></trkpt><trkpt lat="53.8213885" lon="-1.951632"><ele>237.33333333333334</ele><time>2026-04-26T10:26:37.894Z</time></trkpt><trkpt lat="53.8215248" lon="-1.9514596"><ele>235.66666666666669</ele><time>2026-04-26T10:26:38.895Z</time></trkpt><trkpt lat="53.8216619" lon="-1.9513008"><ele>234.0</ele><time>2026-04-26T10:26:39.894Z</time></trkpt><trkpt lat="53.8218013" lon="-1.9511649"><ele>232.0</ele><time>2026-04-26T10:26:40.894Z</time></trkpt><trkpt lat="53.8219442" lon="-1.9510471"><ele>230.0</ele><time>2026-04-26T10:26:41.894Z</time></trkpt><trkpt lat="53.8220882" lon="-1.9509372"><ele>228.0</ele><time>2026-04-26T10:26:42.893Z</time></trkpt><trkpt lat="53.8222291" lon="-1.9508367"><ele>225.66666666666669</ele><time>2026-04-26T10:26:43.902Z</time></trkpt><trkpt lat="53.8223667" lon="-1.9507418"><ele>223.33333333333334</ele><time>2026-04-26T10:26:44.895Z</time></trkpt><trkpt lat="53.8225079" lon="-1.9506435"><ele>221.0</ele><time>2026-04-26T10:26:45.895Z</time></trkpt><trkpt lat="53.8226549" lon="-1.9505396"><ele>219.33333333333334</ele><time>2026-04-26T10:26:46.897Z</time></trkpt><trkpt lat="53.8228065" lon="-1.9504285"><ele>217.66666666666669</ele><time>2026-04-26T10:26:47.897Z</time></trkpt><trkpt lat="53.8229565" lon="-1.9503199"><ele>216.0</ele><time>2026-04-26T10:26:48.896Z</time></trkpt><trkpt lat="53.8231037" lon="-1.9502172"><ele>216.0</ele><time>2026-04-26T10:26:49.893Z</time></trkpt><trkpt lat="53.8232476" lon="-1.9501148"><ele>216.0</ele><time>2026-04-26T10:26:50.897Z</time></trkpt><trkpt lat="53.8233857" lon="-1.9500185"><ele>216.0</ele><time>2026-04-26T10:26:51.896Z</time></trkpt><trkpt lat="53.8235151" lon="-1.9499347"><ele>216.0</ele><time>2026-04-26T10:26:52.894Z</time></trkpt><trkpt lat="53.8236358" lon="-1.9498784"><ele>213.75</ele><time>2026-04-26T10:26:53.895Z</time></trkpt><trkpt lat="53.8237479" lon="-1.9498626"><ele>211.5</ele><time>2026-04-26T10:26:54.895Z</time></trkpt><trkpt lat="53.8238573" lon="-1.9498768"><ele>209.25</ele><time>2026-04-26T10:26:55.894Z</time></trkpt><trkpt lat="53.8239686" lon="-1.9499016"><ele>207.0</ele><time>2026-04-26T10:26:56.888Z</time></trkpt><trkpt lat="53.8240818" lon="-1.9499372"><ele>207.0</ele><time>2026-04-26T10:26:57.883Z</time></trkpt><trkpt lat="53.8242009" lon="-1.9499864"><ele>207.0</ele><time>2026-04-26T10:26:58.886Z</time></trkpt><trkpt lat="53.8243266" lon="-1.9500392"><ele>207.0</ele><time>2026-04-26T10:26:59.887Z</time></trkpt><trkpt lat="53.8244569" lon="-1.9500893"><ele>207.0</ele><time>2026-04-26T10:27:00.894Z</time></trkpt><trkpt lat="53.8245899" lon="-1.9501361"><ele>207.0</ele><time>2026-04-26T10:27:01.889Z</time></trkpt><trkpt lat="53.8247244" lon="-1.9501823"><ele>207.0</ele><time>2026-04-26T10:27:02.894Z</time></trkpt><trkpt lat="53.824854" lon="-1.950231"><ele>207.0</ele><time>2026-04-26T10:27:03.899Z</time></trkpt><trkpt lat="53.8249809" lon="-1.9502813"><ele>207.0</ele><time>2026-04-26T10:27:04.895Z</time></trkpt><trkpt lat="53.8251056" lon="-1.9503303"><ele>206.75</ele><time>2026-04-26T10:27:05.893Z</time></trkpt><trkpt lat="53.8252305" lon="-1.9503739"><ele>206.5</ele><time>2026-04-26T10:27:06.894Z</time></trkpt><trkpt lat="53.8253527" lon="-1.9504152"><ele>206.25</ele><time>2026-04-26T10:27:07.892Z</time></trkpt><trkpt lat="53.8254701" lon="-1.9504565"><ele>206.0</ele><time>2026-04-26T10:27:08.892Z</time></trkpt><trkpt lat="53.8255797" lon="-1.9504954"><ele>206.0</ele><time>2026-04-26T10:27:09.892Z</time></trkpt><trkpt lat="53.8256826" lon="-1.9505301"><ele>206.0</ele><time>2026-04-26T10:27:10.892Z</time></trkpt><trkpt lat="53.8257827" lon="-1.9505734"><ele>206.0</ele><time>2026-04-26T10:27:11.893Z</time></trkpt><trkpt lat="53.8258799" lon="-1.9506338"><ele>206.0</ele><time>2026-04-26T10:27:12.893Z</time></trkpt><trkpt lat="53.8259752" lon="-1.9507061"><ele>206.0</ele><time>2026-04-26T10:27:13.897Z</time></trkpt><trkpt lat="53.8260697" lon="-1.9507928"><ele>205.5</ele><time>2026-04-26T10:27:14.895Z</time></trkpt><trkpt lat="53.8261629" lon="-1.9509031"><ele>205.0</ele><time>2026-04-26T10:27:15.894Z</time></trkpt><trkpt lat="53.8262548" lon="-1.9510443"><ele>204.5</ele><time>2026-04-26T10:27:16.892Z</time></trkpt><trkpt lat="53.8263442" lon="-1.9511963"><ele>204.0</ele><time>2026-04-26T10:27:17.894Z</time></trkpt><trkpt lat="53.8264325" lon="-1.9513544"><ele>204.0</ele><time>2026-04-26T10:27:18.885Z</time></trkpt><trkpt lat="53.8265202" lon="-1.9515183"><ele>204.0</ele><time>2026-04-26T10:27:19.893Z</time></trkpt><trkpt lat="53.8266081" lon="-1.9516841"><ele>204.0</ele><time>2026-04-26T10:27:20.892Z</time></trkpt><trkpt lat="53.8266957" lon="-1.9518462"><ele>204.0</ele><time>2026-04-26T10:27:21.891Z</time></trkpt><trkpt lat="53.8267793" lon="-1.9519985"><ele>204.39999999999998</ele><time>2026-04-26T10:27:22.892Z</time></trkpt><trkpt lat="53.8268549" lon="-1.9521424"><ele>204.8</ele><time>2026-04-26T10:27:23.9Z</time></trkpt><trkpt lat="53.8269298" lon="-1.9522838"><ele>205.2</ele><time>2026-04-26T10:27:24.892Z</time></trkpt><trkpt lat="53.827005" lon="-1.9524217"><ele>205.60000000000002</ele><time>2026-04-26T10:27:25.893Z</time></trkpt><trkpt lat="53.8270874" lon="-1.9525451"><ele>206.0</ele><time>2026-04-26T10:27:26.893Z</time></trkpt><trkpt lat="53.8271884" lon="-1.95264"><ele>207.25</ele><time>2026-04-26T10:27:27.893Z</time></trkpt><trkpt lat="53.8273006" lon="-1.9527179"><ele>208.5</ele><time>2026-04-26T10:27:28.89Z</time></trkpt><trkpt lat="53.8274085" lon="-1.9528128"><ele>209.75</ele><time>2026-04-26T10:27:29.892Z</time></trkpt><trkpt lat="53.8275077" lon="-1.9529136"><ele>211.0</ele><time>2026-04-26T10:27:30.894Z</time></trkpt><trkpt lat="53.8276102" lon="-1.9530136"><ele>210.8</ele><time>2026-04-26T10:27:31.89Z</time></trkpt><trkpt lat="53.8277187" lon="-1.9530984"><ele>210.60000000000002</ele><time>2026-04-26T10:27:32.891Z</time></trkpt><trkpt lat="53.8278264" lon="-1.9531635"><ele>210.4</ele><time>2026-04-26T10:27:33.893Z</time></trkpt><trkpt lat="53.8279318" lon="-1.9532044"><ele>210.2</ele><time>2026-04-26T10:27:34.892Z</time></trkpt><trkpt lat="53.8280352" lon="-1.953228"><ele>210.0</ele><time>2026-04-26T10:27:35.892Z</time></trkpt><trkpt lat="53.828131" lon="-1.953248"><ele>210.0</ele><time>2026-04-26T10:27:36.893Z</time></trkpt><trkpt lat="53.8282154" lon="-1.9532687"><ele>210.0</ele><time>2026-04-26T10:27:37.894Z</time></trkpt><trkpt lat="53.8282892" lon="-1.9532846"><ele>210.0</ele><time>2026-04-26T10:27:38.894Z</time></trkpt><trkpt lat="53.8283559" lon="-1.9532969"><ele>210.0</ele><time>2026-04-26T10:27:39.894Z</time></trkpt><trkpt lat="53.8284715" lon="-1.9533246"><ele>210.0</ele><time>2026-04-26T10:27:41.894Z</time></trkpt><trkpt lat="53.828563" lon="-1.9533272"><ele>210.0</ele><time>2026-04-26T10:27:43.896Z</time></trkpt><trkpt lat="53.8286303" lon="-1.9532622"><ele>209.25</ele><time>2026-04-26T10:29:13.898Z</time></trkpt><trkpt lat="53.8286558" lon="-1.9530417"><ele>208.5</ele><time>2026-04-26T10:29:15.897Z</time></trkpt><trkpt lat="53.828646" lon="-1.9528388"><ele>207.75</ele><time>2026-04-26T10:29:16.895Z</time></trkpt><trkpt lat="53.8286354" lon="-1.9525986"><ele>207.0</ele><time>2026-04-26T10:29:17.896Z</time></trkpt><trkpt lat="53.8286248" lon="-1.9523617"><ele>205.5</ele><time>2026-04-26T10:29:18.895Z</time></trkpt><trkpt lat="53.8286309" lon="-1.9521243"><ele>204.0</ele><time>2026-04-26T10:29:19.894Z</time></trkpt><trkpt lat="53.8286473" lon="-1.9519006"><ele>202.5</ele><time>2026-04-26T10:29:20.895Z</time></trkpt><trkpt lat="53.8286645" lon="-1.9516832"><ele>201.0</ele><time>2026-04-26T10:29:21.889Z</time></trkpt><trkpt lat="53.8286911" lon="-1.9514756"><ele>199.75</ele><time>2026-04-26T10:29:22.893Z</time></trkpt><trkpt lat="53.8287157" lon="-1.9512808"><ele>198.5</ele><time>2026-04-26T10:29:23.895Z</time></trkpt><trkpt lat="53.8287449" lon="-1.9510831"><ele>197.25</ele><time>2026-04-26T10:29:24.895Z</time></trkpt><trkpt lat="53.8287667" lon="-1.9509007"><ele>196.0</ele><time>2026-04-26T10:29:25.895Z</time></trkpt><trkpt lat="53.8287917" lon="-1.9507038"><ele>194.25</ele><time>2026-04-26T10:29:26.888Z</time></trkpt><trkpt lat="53.8288025" lon="-1.9505016"><ele>192.5</ele><time>2026-04-26T10:29:27.893Z</time></trkpt><trkpt lat="53.8288113" lon="-1.9502945"><ele>190.75</ele><time>2026-04-26T10:29:28.893Z</time></trkpt><trkpt lat="53.8288139" lon="-1.9500869"><ele>189.0</ele><time>2026-04-26T10:29:29.89Z</time></trkpt><trkpt lat="53.828816" lon="-1.9498855"><ele>187.6</ele><time>2026-04-26T10:29:30.893Z</time></trkpt><trkpt lat="53.8288216" lon="-1.9497077"><ele>186.2</ele><time>2026-04-26T10:29:31.888Z</time></trkpt><trkpt lat="53.8288354" lon="-1.9495528"><ele>184.79999999999998</ele><time>2026-04-26T10:29:32.893Z</time></trkpt><trkpt lat="53.8288548" lon="-1.9494126"><ele>183.39999999999998</ele><time>2026-04-26T10:29:33.894Z</time></trkpt><trkpt lat="53.8288795" lon="-1.9492701"><ele>182.0</ele><time>2026-04-26T10:29:34.894Z</time></trkpt><trkpt lat="53.8289009" lon="-1.9491338"><ele>181.0</ele><time>2026-04-26T10:29:35.894Z</time></trkpt><trkpt lat="53.8289257" lon="-1.948999"><ele>180.0</ele><time>2026-04-26T10:29:36.897Z</time></trkpt><trkpt lat="53.8289517" lon="-1.9488667"><ele>179.0</ele><time>2026-04-26T10:29:37.895Z</time></trkpt><trkpt lat="53.8289765" lon="-1.9487428"><ele>178.0</ele><time>2026-04-26T10:29:38.897Z</time></trkpt><trkpt lat="53.8289967" lon="-1.9486255"><ele>177.0</ele><time>2026-04-26T10:29:39.896Z</time></trkpt><trkpt lat="53.8290172" lon="-1.9485189"><ele>176.0</ele><time>2026-04-26T10:29:40.897Z</time></trkpt><trkpt lat="53.8290598" lon="-1.948324"><ele>176.0</ele><time>2026-04-26T10:29:42.892Z</time></trkpt><trkpt lat="53.8290987" lon="-1.9482336"><ele>176.0</ele><time>2026-04-26T10:29:43.897Z</time></trkpt><trkpt lat="53.8291654" lon="-1.9481706"><ele>176.0</ele><time>2026-04-26T10:29:44.89Z</time></trkpt><trkpt lat="53.8292448" lon="-1.9481512"><ele>176.0</ele><time>2026-04-26T10:29:45.895Z</time></trkpt><trkpt lat="53.8293271" lon="-1.9481624"><ele>176.0</ele><time>2026-04-26T10:29:46.894Z</time></trkpt><trkpt lat="53.8294122" lon="-1.9481844"><ele>176.0</ele><time>2026-04-26T10:29:47.896Z</time></trkpt><trkpt lat="53.8295015" lon="-1.9482075"><ele>175.60000000000002</ele><time>2026-04-26T10:29:48.895Z</time></trkpt><trkpt lat="53.8295906" lon="-1.948223"><ele>175.2</ele><time>2026-04-26T10:29:49.895Z</time></trkpt><trkpt lat="53.8296882" lon="-1.9482368"><ele>174.8</ele><time>2026-04-26T10:29:50.895Z</time></trkpt><trkpt lat="53.8297885" lon="-1.9482503"><ele>174.39999999999998</ele><time>2026-04-26T10:29:51.895Z</time></trkpt><trkpt lat="53.8298874" lon="-1.9482634"><ele>174.0</ele><time>2026-04-26T10:29:52.894Z</time></trkpt><trkpt lat="53.8299809" lon="-1.9482791"><ele>174.0</ele><time>2026-04-26T10:29:53.901Z</time></trkpt><trkpt lat="53.8300725" lon="-1.9482973"><ele>174.0</ele><time>2026-04-26T10:29:54.896Z</time></trkpt><trkpt lat="53.8301653" lon="-1.948316"><ele>174.0</ele><time>2026-04-26T10:29:55.895Z</time></trkpt><trkpt lat="53.8302629" lon="-1.9483329"><ele>174.0</ele><time>2026-04-26T10:29:56.894Z</time></trkpt><trkpt lat="53.8303648" lon="-1.9483479"><ele>174.0</ele><time>2026-04-26T10:29:57.894Z</time></trkpt><trkpt lat="53.8304734" lon="-1.9483649"><ele>174.79999999999998</ele><time>2026-04-26T10:29:58.9Z</time></trkpt><trkpt lat="53.8305776" lon="-1.9483835"><ele>175.6</ele><time>2026-04-26T10:29:59.9Z</time></trkpt><trkpt lat="53.8306754" lon="-1.9484017"><ele>176.4</ele><time>2026-04-26T10:30:00.898Z</time></trkpt><trkpt lat="53.8307675" lon="-1.9484198"><ele>177.2</ele><time>2026-04-26T10:30:01.894Z</time></trkpt><trkpt lat="53.8308541" lon="-1.9484364"><ele>178.0</ele><time>2026-04-26T10:30:02.891Z</time></trkpt><trkpt lat="53.8309379" lon="-1.9484516"><ele>178.16666666666669</ele><time>2026-04-26T10:30:03.895Z</time></trkpt><trkpt lat="53.8310201" lon="-1.9484653"><ele>178.33333333333334</ele><time>2026-04-26T10:30:04.893Z</time></trkpt><trkpt lat="53.8310979" lon="-1.9484762"><ele>178.5</ele><time>2026-04-26T10:30:05.888Z</time></trkpt><trkpt lat="53.8311649" lon="-1.9484776"><ele>178.66666666666666</ele><time>2026-04-26T10:30:06.891Z</time></trkpt><trkpt lat="53.8312798" lon="-1.9484107"><ele>178.83333333333331</ele><time>2026-04-26T10:30:08.894Z</time></trkpt><trkpt lat="53.8313349" lon="-1.948329"><ele>179.0</ele><time>2026-04-26T10:30:09.894Z</time></trkpt><trkpt lat="53.8313926" lon="-1.9482234"><ele>177.79999999999998</ele><time>2026-04-26T10:30:10.891Z</time></trkpt><trkpt lat="53.8314517" lon="-1.9480971"><ele>176.6</ele><time>2026-04-26T10:30:11.894Z</time></trkpt><trkpt lat="53.8315188" lon="-1.9479665"><ele>175.4</ele><time>2026-04-26T10:30:12.898Z</time></trkpt><trkpt lat="53.8315887" lon="-1.9478297"><ele>174.2</ele><time>2026-04-26T10:30:13.902Z</time></trkpt><trkpt lat="53.8316563" lon="-1.9477011"><ele>173.0</ele><time>2026-04-26T10:30:14.898Z</time></trkpt><trkpt lat="53.8317242" lon="-1.9475842"><ele>172.8</ele><time>2026-04-26T10:30:15.898Z</time></trkpt><trkpt lat="53.8317947" lon="-1.9474726"><ele>172.60000000000002</ele><time>2026-04-26T10:30:16.9Z</time></trkpt><trkpt lat="53.8318685" lon="-1.9473675"><ele>172.39999999999998</ele><time>2026-04-26T10:30:17.898Z</time></trkpt><trkpt lat="53.8319398" lon="-1.9472748"><ele>172.2</ele><time>2026-04-26T10:30:18.894Z</time></trkpt><trkpt lat="53.832013" lon="-1.947194"><ele>172.0</ele><time>2026-04-26T10:30:19.887Z</time></trkpt><trkpt lat="53.8320855" lon="-1.9471253"><ele>172.0</ele><time>2026-04-26T10:30:20.898Z</time></trkpt><trkpt lat="53.8321545" lon="-1.9470668"><ele>172.0</ele><time>2026-04-26T10:30:21.894Z</time></trkpt><trkpt lat="53.8322257" lon="-1.9470167"><ele>172.0</ele><time>2026-04-26T10:30:22.894Z</time></trkpt><trkpt lat="53.8322976" lon="-1.9469604"><ele>172.0</ele><time>2026-04-26T10:30:23.895Z</time></trkpt><trkpt lat="53.8323722" lon="-1.9469029"><ele>172.0</ele><time>2026-04-26T10:30:24.899Z</time></trkpt><trkpt lat="53.8324514" lon="-1.9468397"><ele>172.0</ele><time>2026-04-26T10:30:25.896Z</time></trkpt><trkpt lat="53.8325376" lon="-1.9467695"><ele>172.66666666666669</ele><time>2026-04-26T10:30:26.893Z</time></trkpt><trkpt lat="53.8326227" lon="-1.9466993"><ele>173.33333333333334</ele><time>2026-04-26T10:30:27.896Z</time></trkpt><trkpt lat="53.8326982" lon="-1.9466345"><ele>174.0</ele><time>2026-04-26T10:30:28.897Z</time></trkpt><trkpt lat="53.8327619" lon="-1.9465768"><ele>174.66666666666666</ele><time>2026-04-26T10:30:29.897Z</time></trkpt><trkpt lat="53.8328173" lon="-1.9465238"><ele>175.33333333333331</ele><time>2026-04-26T10:30:30.9Z</time></trkpt><trkpt lat="53.8328772" lon="-1.9464698"><ele>176.0</ele><time>2026-04-26T10:30:31.893Z</time></trkpt><trkpt lat="53.8329412" lon="-1.9464171"><ele>176.0</ele><time>2026-04-26T10:30:32.893Z</time></trkpt><trkpt lat="53.8330043" lon="-1.9463688"><ele>176.0</ele><time>2026-04-26T10:30:33.889Z</time></trkpt><trkpt lat="53.8331009" lon="-1.9462951"><ele>176.0</ele><time>2026-04-26T10:30:35.889Z</time></trkpt><trkpt lat="53.8331676" lon="-1.9462095"><ele>176.0</ele><time>2026-04-26T10:31:08.894Z</time></trkpt><trkpt lat="53.8332346" lon="-1.9460963"><ele>176.0</ele><time>2026-04-26T10:31:10.895Z</time></trkpt><trkpt lat="53.8332925" lon="-1.9460037"><ele>176.0</ele><time>2026-04-26T10:31:12.898Z</time></trkpt><trkpt lat="53.8333435" lon="-1.9459215"><ele>175.5</ele><time>2026-04-26T10:31:13.901Z</time></trkpt><trkpt lat="53.8334062" lon="-1.9458005"><ele>175.0</ele><time>2026-04-26T10:31:14.896Z</time></trkpt><trkpt lat="53.833475" lon="-1.9456414"><ele>174.5</ele><time>2026-04-26T10:31:15.897Z</time></trkpt><trkpt lat="53.8335459" lon="-1.9454479"><ele>174.0</ele><time>2026-04-26T10:31:16.894Z</time></trkpt><trkpt lat="53.8336208" lon="-1.9452299"><ele>175.5</ele><time>2026-04-26T10:31:17.889Z</time></trkpt><trkpt lat="53.8336916" lon="-1.9450122"><ele>177.0</ele><time>2026-04-26T10:31:18.899Z</time></trkpt><trkpt lat="53.8337637" lon="-1.9447987"><ele>178.5</ele><time>2026-04-26T10:31:19.897Z</time></trkpt><trkpt lat="53.8338385" lon="-1.9445944"><ele>180.0</ele><time>2026-04-26T10:31:20.895Z</time></trkpt><trkpt lat="53.83391" lon="-1.9443935"><ele>182.5</ele><time>2026-04-26T10:31:21.894Z</time></trkpt><trkpt lat="53.8339851" lon="-1.9441975"><ele>185.0</ele><time>2026-04-26T10:31:22.894Z</time></trkpt><trkpt lat="53.8340551" lon="-1.943989"><ele>187.5</ele><time>2026-04-26T10:31:23.891Z</time></trkpt><trkpt lat="53.8341235" lon="-1.9437671"><ele>190.0</ele><time>2026-04-26T10:31:24.896Z</time></trkpt><trkpt lat="53.834192" lon="-1.9435393"><ele>191.5</ele><time>2026-04-26T10:31:25.895Z</time></trkpt><trkpt lat="53.8342519" lon="-1.943312"><ele>193.0</ele><time>2026-04-26T10:31:26.895Z</time></trkpt><trkpt lat="53.8343036" lon="-1.9430897"><ele>194.5</ele><time>2026-04-26T10:31:27.886Z</time></trkpt><trkpt lat="53.834351" lon="-1.9428733"><ele>196.0</ele><time>2026-04-26T10:31:28.897Z</time></trkpt><trkpt lat="53.8343972" lon="-1.9426621"><ele>198.25</ele><time>2026-04-26T10:31:29.896Z</time></trkpt><trkpt lat="53.8344416" lon="-1.9424499"><ele>200.5</ele><time>2026-04-26T10:31:30.896Z</time></trkpt><trkpt lat="53.834486" lon="-1.942236"><ele>202.75</ele><time>2026-04-26T10:31:31.892Z</time></trkpt><trkpt lat="53.8345294" lon="-1.9420197"><ele>205.0</ele><time>2026-04-26T10:31:32.891Z</time></trkpt><trkpt lat="53.8345716" lon="-1.9417987"><ele>205.75</ele><time>2026-04-26T10:31:33.896Z</time></trkpt><trkpt lat="53.8346131" lon="-1.9415745"><ele>206.5</ele><time>2026-04-26T10:31:34.886Z</time></trkpt><trkpt lat="53.8346534" lon="-1.9413475"><ele>207.25</ele><time>2026-04-26T10:31:35.894Z</time></trkpt><trkpt lat="53.8346937" lon="-1.9411153"><ele>208.0</ele><time>2026-04-26T10:31:36.894Z</time></trkpt><trkpt lat="53.8347335" lon="-1.9408862"><ele>208.75</ele><time>2026-04-26T10:31:37.893Z</time></trkpt><trkpt lat="53.8347778" lon="-1.9406566"><ele>209.5</ele><time>2026-04-26T10:31:38.895Z</time></trkpt><trkpt lat="53.8348232" lon="-1.9404223"><ele>210.25</ele><time>2026-04-26T10:31:39.894Z</time></trkpt><trkpt lat="53.8348737" lon="-1.9401874"><ele>211.0</ele><time>2026-04-26T10:31:40.894Z</time></trkpt><trkpt lat="53.8349219" lon="-1.939955"><ele>211.75</ele><time>2026-04-26T10:31:41.897Z</time></trkpt><trkpt lat="53.8349676" lon="-1.9397367"><ele>212.5</ele><time>2026-04-26T10:31:42.889Z</time></trkpt><trkpt lat="53.8350102" lon="-1.9395397"><ele>213.25</ele><time>2026-04-26T10:31:43.907Z</time></trkpt><trkpt lat="53.8350469" lon="-1.9393602"><ele>214.0</ele><time>2026-04-26T10:31:44.901Z</time></trkpt><trkpt lat="53.8350767" lon="-1.939195"><ele>214.2</ele><time>2026-04-26T10:31:45.9Z</time></trkpt><trkpt lat="53.8350933" lon="-1.9390308"><ele>214.39999999999998</ele><time>2026-04-26T10:31:46.9Z</time></trkpt><trkpt lat="53.8350993" lon="-1.9388568"><ele>214.6</ele><time>2026-04-26T10:31:47.899Z</time></trkpt><trkpt lat="53.8351037" lon="-1.9386743"><ele>214.8</ele><time>2026-04-26T10:31:48.892Z</time></trkpt><trkpt lat="53.8351154" lon="-1.9384821"><ele>215.0</ele><time>2026-04-26T10:31:49.888Z</time></trkpt><trkpt lat="53.8351399" lon="-1.9382781"><ele>214.0</ele><time>2026-04-26T10:31:50.899Z</time></trkpt><trkpt lat="53.8351717" lon="-1.9380624"><ele>213.0</ele><time>2026-04-26T10:31:51.899Z</time></trkpt><trkpt lat="53.8351993" lon="-1.9378399"><ele>212.0</ele><time>2026-04-26T10:31:52.899Z</time></trkpt><trkpt lat="53.8352227" lon="-1.937615"><ele>211.0</ele><time>2026-04-26T10:31:53.903Z</time></trkpt><trkpt lat="53.8352439" lon="-1.9373822"><ele>211.0</ele><time>2026-04-26T10:31:54.899Z</time></trkpt><trkpt lat="53.8352594" lon="-1.9371551"><ele>211.0</ele><time>2026-04-26T10:31:55.902Z</time></trkpt><trkpt lat="53.835272" lon="-1.9369278"><ele>211.0</ele><time>2026-04-26T10:31:56.899Z</time></trkpt><trkpt lat="53.8352878" lon="-1.9367098"><ele>211.0</ele><time>2026-04-26T10:31:57.899Z</time></trkpt><trkpt lat="53.8353019" lon="-1.9365007"><ele>211.25</ele><time>2026-04-26T10:31:58.9Z</time></trkpt><trkpt lat="53.8353172" lon="-1.936292"><ele>211.5</ele><time>2026-04-26T10:31:59.895Z</time></trkpt><trkpt lat="53.8353331" lon="-1.9360792"><ele>211.75</ele><time>2026-04-26T10:32:00.894Z</time></trkpt><trkpt lat="53.835348" lon="-1.9358621"><ele>212.0</ele><time>2026-04-26T10:32:01.896Z</time></trkpt><trkpt lat="53.8353635" lon="-1.9356471"><ele>211.6</ele><time>2026-04-26T10:32:02.897Z</time></trkpt><trkpt lat="53.8353754" lon="-1.935441"><ele>211.2</ele><time>2026-04-26T10:32:03.899Z</time></trkpt><trkpt lat="53.8353822" lon="-1.9352478"><ele>210.8</ele><time>2026-04-26T10:32:04.896Z</time></trkpt><trkpt lat="53.8353786" lon="-1.9350756"><ele>210.4</ele><time>2026-04-26T10:32:05.895Z</time></trkpt><trkpt lat="53.8353677" lon="-1.9349279"><ele>210.0</ele><time>2026-04-26T10:32:06.895Z</time></trkpt><trkpt lat="53.835353" lon="-1.9347881"><ele>210.0</ele><time>2026-04-26T10:32:07.893Z</time></trkpt><trkpt lat="53.8353366" lon="-1.9346446"><ele>210.0</ele><time>2026-04-26T10:32:08.892Z</time></trkpt><trkpt lat="53.8353218" lon="-1.9344984"><ele>210.0</ele><time>2026-04-26T10:32:09.893Z</time></trkpt><trkpt lat="53.8353053" lon="-1.9343358"><ele>210.0</ele><time>2026-04-26T10:32:10.894Z</time></trkpt><trkpt lat="53.8352913" lon="-1.934164"><ele>210.0</ele><time>2026-04-26T10:32:11.899Z</time></trkpt><trkpt lat="53.8352783" lon="-1.9339911"><ele>210.2</ele><time>2026-04-26T10:32:12.894Z</time></trkpt><trkpt lat="53.8352701" lon="-1.9338099"><ele>210.4</ele><time>2026-04-26T10:32:13.897Z</time></trkpt><trkpt lat="53.8352752" lon="-1.9336267"><ele>210.60000000000002</ele><time>2026-04-26T10:32:14.896Z</time></trkpt><trkpt lat="53.8352853" lon="-1.9334486"><ele>210.8</ele><time>2026-04-26T10:32:15.905Z</time></trkpt><trkpt lat="53.8352955" lon="-1.9332787"><ele>211.0</ele><time>2026-04-26T10:32:16.9Z</time></trkpt><trkpt lat="53.8352967" lon="-1.933107"><ele>211.16666666666666</ele><time>2026-04-26T10:32:17.895Z</time></trkpt><trkpt lat="53.8352959" lon="-1.9329299"><ele>211.33333333333331</ele><time>2026-04-26T10:32:18.896Z</time></trkpt><trkpt lat="53.8352923" lon="-1.932758"><ele>211.5</ele><time>2026-04-26T10:32:19.895Z</time></trkpt><trkpt lat="53.8352909" lon="-1.9326051"><ele>211.66666666666669</ele><time>2026-04-26T10:32:20.895Z</time></trkpt><trkpt lat="53.8352919" lon="-1.9324812"><ele>211.83333333333334</ele><time>2026-04-26T10:32:21.899Z</time></trkpt><trkpt lat="53.8352961" lon="-1.9323697"><ele>212.0</ele><time>2026-04-26T10:32:22.894Z</time></trkpt><trkpt lat="53.8353127" lon="-1.9321991"><ele>212.2</ele><time>2026-04-26T10:32:24.895Z</time></trkpt><trkpt lat="53.8353126" lon="-1.9320535"><ele>212.39999999999998</ele><time>2026-04-26T10:32:28.896Z</time></trkpt><trkpt lat="53.8352414" lon="-1.9319081"><ele>212.60000000000002</ele><time>2026-04-26T10:32:30.899Z</time></trkpt><trkpt lat="53.8351746" lon="-1.9318363"><ele>212.8</ele><time>2026-04-26T10:32:31.895Z</time></trkpt><trkpt lat="53.8351045" lon="-1.9317497"><ele>213.0</ele><time>2026-04-26T10:32:32.895Z</time></trkpt><trkpt lat="53.8350372" lon="-1.9316376"><ele>214.60000000000002</ele><time>2026-04-26T10:32:33.896Z</time></trkpt><trkpt lat="53.8349713" lon="-1.9315143"><ele>216.20000000000002</ele><time>2026-04-26T10:32:34.894Z</time></trkpt><trkpt lat="53.8349062" lon="-1.931387"><ele>217.8</ele><time>2026-04-26T10:32:35.892Z</time></trkpt><trkpt lat="53.834841" lon="-1.931254"><ele>219.4</ele><time>2026-04-26T10:32:36.892Z</time></trkpt><trkpt lat="53.8347754" lon="-1.9311101"><ele>221.0</ele><time>2026-04-26T10:32:37.894Z</time></trkpt><trkpt lat="53.8347134" lon="-1.930966"><ele>222.00000000000003</ele><time>2026-04-26T10:32:38.892Z</time></trkpt><trkpt lat="53.8346638" lon="-1.930823"><ele>223.0</ele><time>2026-04-26T10:32:39.894Z</time></trkpt><trkpt lat="53.8346351" lon="-1.9306845"><ele>224.0</ele><time>2026-04-26T10:32:40.894Z</time></trkpt><trkpt lat="53.8346286" lon="-1.9305695"><ele>225.0</ele><time>2026-04-26T10:32:41.896Z</time></trkpt><trkpt lat="53.8346416" lon="-1.9304507"><ele>226.00000000000003</ele><time>2026-04-26T10:32:43.899Z</time></trkpt><trkpt lat="53.8347023" lon="-1.9303083"><ele>227.0</ele><time>2026-04-26T10:32:45.899Z</time></trkpt><trkpt lat="53.8347567" lon="-1.9302151"><ele>227.0</ele><time>2026-04-26T10:32:46.895Z</time></trkpt><trkpt lat="53.8348253" lon="-1.9301111"><ele>227.0</ele><time>2026-04-26T10:32:47.896Z</time></trkpt><trkpt lat="53.8349032" lon="-1.9299962"><ele>227.0</ele><time>2026-04-26T10:32:48.897Z</time></trkpt><trkpt lat="53.8349856" lon="-1.9298747"><ele>227.0</ele><time>2026-04-26T10:32:49.895Z</time></trkpt><trkpt lat="53.8350657" lon="-1.9297558"><ele>227.0</ele><time>2026-04-26T10:32:50.896Z</time></trkpt><trkpt lat="53.8351348" lon="-1.9296468"><ele>226.39999999999998</ele><time>2026-04-26T10:32:51.895Z</time></trkpt><trkpt lat="53.8351919" lon="-1.929536"><ele>225.79999999999998</ele><time>2026-04-26T10:32:52.894Z</time></trkpt><trkpt lat="53.835229" lon="-1.9294013"><ele>225.2</ele><time>2026-04-26T10:32:53.899Z</time></trkpt><trkpt lat="53.8352451" lon="-1.9292446"><ele>224.6</ele><time>2026-04-26T10:32:54.895Z</time></trkpt><trkpt lat="53.8352596" lon="-1.9290741"><ele>224.0</ele><time>2026-04-26T10:32:55.893Z</time></trkpt><trkpt lat="53.8352845" lon="-1.928899"><ele>225.2</ele><time>2026-04-26T10:32:56.893Z</time></trkpt><trkpt lat="53.8353178" lon="-1.928727"><ele>226.39999999999998</ele><time>2026-04-26T10:32:57.896Z</time></trkpt><trkpt lat="53.8353574" lon="-1.9285691"><ele>227.6</ele><time>2026-04-26T10:32:58.894Z</time></trkpt><trkpt lat="53.8354052" lon="-1.9284141"><ele>228.8</ele><time>2026-04-26T10:32:59.896Z</time></trkpt><trkpt lat="53.8354603" lon="-1.9282642"><ele>230.0</ele><time>2026-04-26T10:33:00.894Z</time></trkpt><trkpt lat="53.8355208" lon="-1.9281108"><ele>231.4</ele><time>2026-04-26T10:33:01.894Z</time></trkpt><trkpt lat="53.8355776" lon="-1.9279564"><ele>232.8</ele><time>2026-04-26T10:33:02.895Z</time></trkpt><trkpt lat="53.8356339" lon="-1.9277979"><ele>234.2</ele><time>2026-04-26T10:33:03.895Z</time></trkpt><trkpt lat="53.8356919" lon="-1.9276427"><ele>235.6</ele><time>2026-04-26T10:33:04.893Z</time></trkpt><trkpt lat="53.8357529" lon="-1.9274968"><ele>237.0</ele><time>2026-04-26T10:33:05.894Z</time></trkpt><trkpt lat="53.8358179" lon="-1.9273511"><ele>237.5</ele><time>2026-04-26T10:33:06.895Z</time></trkpt><trkpt lat="53.835882" lon="-1.9271992"><ele>238.0</ele><time>2026-04-26T10:33:07.894Z</time></trkpt><trkpt lat="53.8359418" lon="-1.9270376"><ele>238.5</ele><time>2026-04-26T10:33:08.893Z</time></trkpt><trkpt lat="53.8360015" lon="-1.9268675"><ele>239.0</ele><time>2026-04-26T10:33:09.894Z</time></trkpt><trkpt lat="53.8360615" lon="-1.926693"><ele>239.0</ele><time>2026-04-26T10:33:10.889Z</time></trkpt><trkpt lat="53.8361197" lon="-1.9265151"><ele>238.99999999999997</ele><time>2026-04-26T10:33:11.896Z</time></trkpt><trkpt lat="53.8361765" lon="-1.9263375"><ele>238.99999999999997</ele><time>2026-04-26T10:33:12.893Z</time></trkpt><trkpt lat="53.836225" lon="-1.9261718"><ele>239.0</ele><time>2026-04-26T10:33:13.891Z</time></trkpt><trkpt lat="53.8362657" lon="-1.9260308"><ele>239.0</ele><time>2026-04-26T10:33:14.896Z</time></trkpt><trkpt lat="53.8362948" lon="-1.925928"><ele>239.83333333333334</ele><time>2026-04-26T10:33:15.895Z</time></trkpt><trkpt lat="53.8363231" lon="-1.9258321"><ele>240.66666666666669</ele><time>2026-04-26T10:33:17.894Z</time></trkpt><trkpt lat="53.8362846" lon="-1.9257182"><ele>241.5</ele><time>2026-04-26T10:35:34.897Z</time></trkpt><trkpt lat="53.8362901" lon="-1.9255995"><ele>242.33333333333331</ele><time>2026-04-26T10:35:35.898Z</time></trkpt><trkpt lat="53.8363066" lon="-1.9254476"><ele>243.16666666666666</ele><time>2026-04-26T10:35:36.898Z</time></trkpt><trkpt lat="53.836332" lon="-1.9252824"><ele>244.0</ele><time>2026-04-26T10:35:37.898Z</time></trkpt><trkpt lat="53.8363568" lon="-1.9251146"><ele>244.79999999999998</ele><time>2026-04-26T10:35:38.898Z</time></trkpt><trkpt lat="53.8363802" lon="-1.9249395"><ele>245.59999999999997</ele><time>2026-04-26T10:35:39.896Z</time></trkpt><trkpt lat="53.8364041" lon="-1.9247602"><ele>246.4</ele><time>2026-04-26T10:35:40.9Z</time></trkpt><trkpt lat="53.8364263" lon="-1.9245761"><ele>247.2</ele><time>2026-04-26T10:35:41.888Z</time></trkpt><trkpt lat="53.8364566" lon="-1.9243898"><ele>248.0</ele><time>2026-04-26T10:35:42.896Z</time></trkpt><trkpt lat="53.836493" lon="-1.9242089"><ele>249.5</ele><time>2026-04-26T10:35:43.905Z</time></trkpt><trkpt lat="53.8365372" lon="-1.9240275"><ele>251.0</ele><time>2026-04-26T10:35:44.897Z</time></trkpt><trkpt lat="53.8365826" lon="-1.9238325"><ele>252.5</ele><time>2026-04-26T10:35:45.889Z</time></trkpt><trkpt lat="53.8366328" lon="-1.9236247"><ele>254.0</ele><time>2026-04-26T10:35:46.897Z</time></trkpt><trkpt lat="53.8366892" lon="-1.9234072"><ele>254.5</ele><time>2026-04-26T10:35:47.896Z</time></trkpt><trkpt lat="53.8367512" lon="-1.9231902"><ele>255.0</ele><time>2026-04-26T10:35:48.899Z</time></trkpt><trkpt lat="53.8368232" lon="-1.9229726"><ele>255.5</ele><time>2026-04-26T10:35:49.897Z</time></trkpt><trkpt lat="53.8369035" lon="-1.9227584"><ele>256.0</ele><time>2026-04-26T10:35:50.896Z</time></trkpt><trkpt lat="53.836989" lon="-1.9225429"><ele>256.0</ele><time>2026-04-26T10:35:51.897Z</time></trkpt><trkpt lat="53.8370725" lon="-1.9223225"><ele>256.0</ele><time>2026-04-26T10:35:52.896Z</time></trkpt><trkpt lat="53.8371565" lon="-1.922104"><ele>256.0</ele><time>2026-04-26T10:35:53.9Z</time></trkpt><trkpt lat="53.8372417" lon="-1.9218896"><ele>258.3333333333333</ele><time>2026-04-26T10:35:54.896Z</time></trkpt><trkpt lat="53.8373297" lon="-1.921675"><ele>260.6666666666667</ele><time>2026-04-26T10:35:55.896Z</time></trkpt><trkpt lat="53.8374179" lon="-1.9214512"><ele>263.0</ele><time>2026-04-26T10:35:56.897Z</time></trkpt><trkpt lat="53.8375105" lon="-1.9212112"><ele>263.0</ele><time>2026-04-26T10:35:57.896Z</time></trkpt><trkpt lat="53.8376084" lon="-1.9209578"><ele>263.0</ele><time>2026-04-26T10:35:58.896Z</time></trkpt><trkpt lat="53.8377094" lon="-1.9206945"><ele>263.0</ele><time>2026-04-26T10:35:59.897Z</time></trkpt><trkpt lat="53.8378143" lon="-1.9204204"><ele>262.6666666666667</ele><time>2026-04-26T10:36:00.898Z</time></trkpt><trkpt lat="53.8379212" lon="-1.9201373"><ele>262.3333333333333</ele><time>2026-04-26T10:36:01.896Z</time></trkpt><trkpt lat="53.8380305" lon="-1.9198471"><ele>262.0</ele><time>2026-04-26T10:36:02.887Z</time></trkpt><trkpt lat="53.8381432" lon="-1.9195505"><ele>264.66666666666663</ele><time>2026-04-26T10:36:03.906Z</time></trkpt><trkpt lat="53.838258" lon="-1.9192514"><ele>267.3333333333333</ele><time>2026-04-26T10:36:04.899Z</time></trkpt><trkpt lat="53.838376" lon="-1.9189511"><ele>270.0</ele><time>2026-04-26T10:36:05.899Z</time></trkpt><trkpt lat="53.8384943" lon="-1.9186495"><ele>272.3333333333333</ele><time>2026-04-26T10:36:06.898Z</time></trkpt><trkpt lat="53.8386128" lon="-1.9183447"><ele>274.66666666666663</ele><time>2026-04-26T10:36:07.9Z</time></trkpt><trkpt lat="53.8387306" lon="-1.9180353"><ele>277.0</ele><time>2026-04-26T10:36:08.899Z</time></trkpt><trkpt lat="53.8388443" lon="-1.9177201"><ele>278.66666666666663</ele><time>2026-04-26T10:36:09.898Z</time></trkpt><trkpt lat="53.8389556" lon="-1.9173979"><ele>280.3333333333333</ele><time>2026-04-26T10:36:10.899Z</time></trkpt><trkpt lat="53.8390625" lon="-1.9170772"><ele>282.0</ele><time>2026-04-26T10:36:11.895Z</time></trkpt><trkpt lat="53.8391594" lon="-1.9167753"><ele>282.3333333333333</ele><time>2026-04-26T10:36:12.897Z</time></trkpt><trkpt lat="53.8392546" lon="-1.9164913"><ele>282.66666666666663</ele><time>2026-04-26T10:36:13.901Z</time></trkpt><trkpt lat="53.8393515" lon="-1.9162172"><ele>283.0</ele><time>2026-04-26T10:36:14.898Z</time></trkpt><trkpt lat="53.8394582" lon="-1.9159517"><ele>284.3333333333333</ele><time>2026-04-26T10:36:15.897Z</time></trkpt><trkpt lat="53.8395747" lon="-1.9156946"><ele>285.6666666666667</ele><time>2026-04-26T10:36:16.898Z</time></trkpt><trkpt lat="53.8396954" lon="-1.9154328"><ele>287.0</ele><time>2026-04-26T10:36:17.896Z</time></trkpt><trkpt lat="53.8398209" lon="-1.915155"><ele>287.6666666666667</ele><time>2026-04-26T10:36:18.898Z</time></trkpt><trkpt lat="53.8399535" lon="-1.9148696"><ele>288.3333333333333</ele><time>2026-04-26T10:36:19.898Z</time></trkpt><trkpt lat="53.8400844" lon="-1.9145798"><ele>289.0</ele><time>2026-04-26T10:36:20.902Z</time></trkpt><trkpt lat="53.8402149" lon="-1.9142895"><ele>288.3333333333333</ele><time>2026-04-26T10:36:21.898Z</time></trkpt><trkpt lat="53.8403456" lon="-1.9139933"><ele>287.6666666666667</ele><time>2026-04-26T10:36:22.898Z</time></trkpt><trkpt lat="53.8404797" lon="-1.9136973"><ele>287.0</ele><time>2026-04-26T10:36:23.901Z</time></trkpt><trkpt lat="53.8406132" lon="-1.9134036"><ele>286.6666666666667</ele><time>2026-04-26T10:36:24.898Z</time></trkpt><trkpt lat="53.8407454" lon="-1.9131115"><ele>286.3333333333333</ele><time>2026-04-26T10:36:25.897Z</time></trkpt><trkpt lat="53.8408739" lon="-1.9128188"><ele>286.0</ele><time>2026-04-26T10:36:26.899Z</time></trkpt><trkpt lat="53.8410016" lon="-1.912525"><ele>286.0</ele><time>2026-04-26T10:36:27.899Z</time></trkpt><trkpt lat="53.8411289" lon="-1.912233"><ele>286.0</ele><time>2026-04-26T10:36:28.899Z</time></trkpt><trkpt lat="53.8412597" lon="-1.9119416"><ele>286.0</ele><time>2026-04-26T10:36:29.899Z</time></trkpt><trkpt lat="53.8413953" lon="-1.9116484"><ele>286.0</ele><time>2026-04-26T10:36:30.89Z</time></trkpt><trkpt lat="53.8415344" lon="-1.9113537"><ele>286.0</ele><time>2026-04-26T10:36:31.9Z</time></trkpt><trkpt lat="53.8416728" lon="-1.911061"><ele>286.0</ele><time>2026-04-26T10:36:32.9Z</time></trkpt><trkpt lat="53.8418077" lon="-1.9107764"><ele>286.66666666666663</ele><time>2026-04-26T10:36:33.901Z</time></trkpt><trkpt lat="53.8419416" lon="-1.9104935"><ele>287.3333333333333</ele><time>2026-04-26T10:36:34.891Z</time></trkpt><trkpt lat="53.8420734" lon="-1.91021"><ele>288.0</ele><time>2026-04-26T10:36:35.899Z</time></trkpt><trkpt lat="53.8422023" lon="-1.9099219"><ele>288.0</ele><time>2026-04-26T10:36:36.901Z</time></trkpt><trkpt lat="53.842323" lon="-1.9096237"><ele>288.0</ele><time>2026-04-26T10:36:37.9Z</time></trkpt><trkpt lat="53.8424319" lon="-1.9093165"><ele>288.0</ele><time>2026-04-26T10:36:38.899Z</time></trkpt><trkpt lat="53.8425298" lon="-1.9090089"><ele>288.0</ele><time>2026-04-26T10:36:39.901Z</time></trkpt><trkpt lat="53.8426206" lon="-1.90872"><ele>288.0</ele><time>2026-04-26T10:36:40.9Z</time></trkpt><trkpt lat="53.8427126" lon="-1.9084792"><ele>288.0</ele><time>2026-04-26T10:36:41.897Z</time></trkpt><trkpt lat="53.8428156" lon="-1.9082948"><ele>287.25</ele><time>2026-04-26T10:36:42.896Z</time></trkpt><trkpt lat="53.8429371" lon="-1.9081504"><ele>286.5</ele><time>2026-04-26T10:36:43.899Z</time></trkpt><trkpt lat="53.8430576" lon="-1.9080111"><ele>285.75</ele><time>2026-04-26T10:36:44.898Z</time></trkpt><trkpt lat="53.8431682" lon="-1.9078545"><ele>285.0</ele><time>2026-04-26T10:36:45.897Z</time></trkpt><trkpt lat="53.8432725" lon="-1.9076811"><ele>284.25</ele><time>2026-04-26T10:36:46.899Z</time></trkpt><trkpt lat="53.8433661" lon="-1.9074909"><ele>283.5</ele><time>2026-04-26T10:36:47.899Z</time></trkpt><trkpt lat="53.8434472" lon="-1.9072843"><ele>282.75</ele><time>2026-04-26T10:36:48.899Z</time></trkpt><trkpt lat="53.8435032" lon="-1.9070682"><ele>282.0</ele><time>2026-04-26T10:36:49.898Z</time></trkpt><trkpt lat="53.8435302" lon="-1.9068365"><ele>280.25</ele><time>2026-04-26T10:36:50.9Z</time></trkpt><trkpt lat="53.8435407" lon="-1.9065896"><ele>278.5</ele><time>2026-04-26T10:36:51.901Z</time></trkpt><trkpt lat="53.8435567" lon="-1.9063429"><ele>276.75</ele><time>2026-04-26T10:36:52.898Z</time></trkpt><trkpt lat="53.8435807" lon="-1.9060956"><ele>275.0</ele><time>2026-04-26T10:36:53.905Z</time></trkpt><trkpt lat="53.8436124" lon="-1.9058446"><ele>274.6666666666667</ele><time>2026-04-26T10:36:54.9Z</time></trkpt><trkpt lat="53.8436541" lon="-1.905595"><ele>274.3333333333333</ele><time>2026-04-26T10:36:55.901Z</time></trkpt><trkpt lat="53.8437145" lon="-1.9053497"><ele>274.0</ele><time>2026-04-26T10:36:56.9Z</time></trkpt><trkpt lat="53.8437853" lon="-1.905104"><ele>274.66666666666663</ele><time>2026-04-26T10:36:57.9Z</time></trkpt><trkpt lat="53.8438541" lon="-1.904853"><ele>275.3333333333333</ele><time>2026-04-26T10:36:58.899Z</time></trkpt><trkpt lat="53.8439165" lon="-1.9045957"><ele>276.0</ele><time>2026-04-26T10:36:59.898Z</time></trkpt><trkpt lat="53.8439755" lon="-1.9043379"><ele>275.6666666666667</ele><time>2026-04-26T10:37:00.9Z</time></trkpt><trkpt lat="53.8440218" lon="-1.9040761"><ele>275.33333333333337</ele><time>2026-04-26T10:37:01.9Z</time></trkpt><trkpt lat="53.8440423" lon="-1.9038122"><ele>275.0</ele><time>2026-04-26T10:37:02.899Z</time></trkpt><trkpt lat="53.844043" lon="-1.9035412"><ele>275.0</ele><time>2026-04-26T10:37:03.907Z</time></trkpt><trkpt lat="53.8440467" lon="-1.903271"><ele>275.0</ele><time>2026-04-26T10:37:04.9Z</time></trkpt><trkpt lat="53.8440556" lon="-1.9030115"><ele>275.0</ele><time>2026-04-26T10:37:05.9Z</time></trkpt><trkpt lat="53.8440703" lon="-1.9027691"><ele>275.4</ele><time>2026-04-26T10:37:06.901Z</time></trkpt><trkpt lat="53.8440828" lon="-1.9025698"><ele>275.8</ele><time>2026-04-26T10:37:07.9Z</time></trkpt><trkpt lat="53.8440949" lon="-1.9024284"><ele>276.2</ele><time>2026-04-26T10:37:08.899Z</time></trkpt><trkpt lat="53.8441279" lon="-1.9023345"><ele>276.6</ele><time>2026-04-26T10:37:09.898Z</time></trkpt><trkpt lat="53.8442475" lon="-1.9023105"><ele>277.0</ele><time>2026-04-26T10:37:11.9Z</time></trkpt><trkpt lat="53.8443304" lon="-1.9023691"><ele>277.0</ele><time>2026-04-26T10:37:12.896Z</time></trkpt><trkpt lat="53.8444158" lon="-1.9024337"><ele>277.0</ele><time>2026-04-26T10:37:13.906Z</time></trkpt><trkpt lat="53.8445106" lon="-1.9024836"><ele>277.0</ele><time>2026-04-26T10:37:14.9Z</time></trkpt><trkpt lat="53.844622" lon="-1.9025237"><ele>277.0</ele><time>2026-04-26T10:37:15.899Z</time></trkpt><trkpt lat="53.8447426" lon="-1.9025526"><ele>277.0</ele><time>2026-04-26T10:37:16.898Z</time></trkpt><trkpt lat="53.8448787" lon="-1.9025715"><ele>277.0</ele><time>2026-04-26T10:37:17.901Z</time></trkpt><trkpt lat="53.8450228" lon="-1.9025742"><ele>277.0</ele><time>2026-04-26T10:37:18.902Z</time></trkpt><trkpt lat="53.8451679" lon="-1.9025502"><ele>277.0</ele><time>2026-04-26T10:37:19.898Z</time></trkpt><trkpt lat="53.845311" lon="-1.9025067"><ele>277.0</ele><time>2026-04-26T10:37:20.899Z</time></trkpt><trkpt lat="53.8454526" lon="-1.9024521"><ele>275.25</ele><time>2026-04-26T10:37:21.899Z</time></trkpt><trkpt lat="53.84558" lon="-1.9023899"><ele>273.5</ele><time>2026-04-26T10:37:22.9Z</time></trkpt><trkpt lat="53.8456993" lon="-1.9023259"><ele>271.75</ele><time>2026-04-26T10:37:23.905Z</time></trkpt><trkpt lat="53.8458126" lon="-1.9022638"><ele>270.0</ele><time>2026-04-26T10:37:24.899Z</time></trkpt><trkpt lat="53.8459227" lon="-1.902205"><ele>268.8</ele><time>2026-04-26T10:37:25.898Z</time></trkpt><trkpt lat="53.8460204" lon="-1.9021538"><ele>267.6</ele><time>2026-04-26T10:37:26.897Z</time></trkpt><trkpt lat="53.846098" lon="-1.9021137"><ele>266.4</ele><time>2026-04-26T10:37:27.898Z</time></trkpt><trkpt lat="53.8461873" lon="-1.9020693"><ele>265.2</ele><time>2026-04-26T10:37:29.899Z</time></trkpt><trkpt lat="53.8463071" lon="-1.9019819"><ele>264.0</ele><time>2026-04-26T10:38:13.901Z</time></trkpt><trkpt lat="53.8464008" lon="-1.9019143"><ele>264.0</ele><time>2026-04-26T10:38:14.899Z</time></trkpt><trkpt lat="53.8465174" lon="-1.9018377"><ele>264.0</ele><time>2026-04-26T10:38:15.901Z</time></trkpt><trkpt lat="53.846637" lon="-1.9017646"><ele>264.0</ele><time>2026-04-26T10:38:16.9Z</time></trkpt><trkpt lat="53.8467498" lon="-1.9016991"><ele>264.0</ele><time>2026-04-26T10:38:17.901Z</time></trkpt><trkpt lat="53.8468542" lon="-1.9016379"><ele>263.4</ele><time>2026-04-26T10:38:18.9Z</time></trkpt><trkpt lat="53.8469504" lon="-1.9015768"><ele>262.79999999999995</ele><time>2026-04-26T10:38:19.904Z</time></trkpt><trkpt lat="53.8470404" lon="-1.9015164"><ele>262.20000000000005</ele><time>2026-04-26T10:38:20.9Z</time></trkpt><trkpt lat="53.8471237" lon="-1.9014527"><ele>261.6</ele><time>2026-04-26T10:38:21.899Z</time></trkpt><trkpt lat="53.8472001" lon="-1.9013737"><ele>261.0</ele><time>2026-04-26T10:38:22.9Z</time></trkpt><trkpt lat="53.8472699" lon="-1.9012737"><ele>261.0</ele><time>2026-04-26T10:38:23.906Z</time></trkpt><trkpt lat="53.8473286" lon="-1.9011495"><ele>261.0</ele><time>2026-04-26T10:38:24.898Z</time></trkpt><trkpt lat="53.8473851" lon="-1.9010133"><ele>261.0</ele><time>2026-04-26T10:38:25.899Z</time></trkpt><trkpt lat="53.8474392" lon="-1.9008766"><ele>261.0</ele><time>2026-04-26T10:38:26.9Z</time></trkpt><trkpt lat="53.8474983" lon="-1.90074"><ele>261.0</ele><time>2026-04-26T10:38:27.893Z</time></trkpt><trkpt lat="53.8475608" lon="-1.9006012"><ele>261.40000000000003</ele><time>2026-04-26T10:38:28.898Z</time></trkpt><trkpt lat="53.8476165" lon="-1.9004537"><ele>261.8</ele><time>2026-04-26T10:38:29.9Z</time></trkpt><trkpt lat="53.8476595" lon="-1.9002908"><ele>262.20000000000005</ele><time>2026-04-26T10:38:30.9Z</time></trkpt><trkpt lat="53.8476905" lon="-1.9001493"><ele>262.6</ele><time>2026-04-26T10:38:31.898Z</time></trkpt><trkpt lat="53.8477312" lon="-1.9000137"><ele>263.0</ele><time>2026-04-26T10:38:33.904Z</time></trkpt><trkpt lat="53.8477024" lon="-1.8998888"><ele>263.0</ele><time>2026-04-26T10:40:46.901Z</time></trkpt><trkpt lat="53.8477166" lon="-1.8997758"><ele>263.0</ele><time>2026-04-26T10:40:47.898Z</time></trkpt><trkpt lat="53.847738" lon="-1.8996179"><ele>263.0</ele><time>2026-04-26T10:40:48.897Z</time></trkpt><trkpt lat="53.8477689" lon="-1.8994358"><ele>263.0</ele><time>2026-04-26T10:40:49.897Z</time></trkpt><trkpt lat="53.8477918" lon="-1.8992511"><ele>263.0</ele><time>2026-04-26T10:40:50.89Z</time></trkpt><trkpt lat="53.8478143" lon="-1.8990636"><ele>263.8</ele><time>2026-04-26T10:40:51.899Z</time></trkpt><trkpt lat="53.8478364" lon="-1.8988683"><ele>264.6</ele><time>2026-04-26T10:40:52.901Z</time></trkpt><trkpt lat="53.8478535" lon="-1.8986778"><ele>265.4</ele><time>2026-04-26T10:40:53.891Z</time></trkpt><trkpt lat="53.8478622" lon="-1.8985003"><ele>266.2</ele><time>2026-04-26T10:40:54.899Z</time></trkpt><trkpt lat="53.8478693" lon="-1.8983323"><ele>267.0</ele><time>2026-04-26T10:40:55.899Z</time></trkpt><trkpt lat="53.8478768" lon="-1.89817"><ele>268.0</ele><time>2026-04-26T10:40:56.9Z</time></trkpt><trkpt lat="53.8478803" lon="-1.898026"><ele>269.0</ele><time>2026-04-26T10:40:57.9Z</time></trkpt><trkpt lat="53.8478821" lon="-1.8979103"><ele>270.0</ele><time>2026-04-26T10:40:58.898Z</time></trkpt><trkpt lat="53.8478865" lon="-1.8977575"><ele>271.0</ele><time>2026-04-26T10:41:00.9Z</time></trkpt><trkpt lat="53.8479589" lon="-1.8977031"><ele>272.0</ele><time>2026-04-26T10:41:08.901Z</time></trkpt><trkpt lat="53.84802" lon="-1.8976541"><ele>273.0</ele><time>2026-04-26T10:41:09.902Z</time></trkpt><trkpt lat="53.8480995" lon="-1.89759"><ele>272.4</ele><time>2026-04-26T10:41:10.9Z</time></trkpt><trkpt lat="53.8481892" lon="-1.897512"><ele>271.8</ele><time>2026-04-26T10:41:11.897Z</time></trkpt><trkpt lat="53.8482831" lon="-1.8974313"><ele>271.2</ele><time>2026-04-26T10:41:12.897Z</time></trkpt><trkpt lat="53.8483775" lon="-1.8973477"><ele>270.6</ele><time>2026-04-26T10:41:13.901Z</time></trkpt><trkpt lat="53.8484718" lon="-1.897267"><ele>270.0</ele><time>2026-04-26T10:41:14.899Z</time></trkpt><trkpt lat="53.8485587" lon="-1.8971924"><ele>270.0</ele><time>2026-04-26T10:41:15.9Z</time></trkpt><trkpt lat="53.8486471" lon="-1.8971097"><ele>270.0</ele><time>2026-04-26T10:41:16.902Z</time></trkpt><trkpt lat="53.8487415" lon="-1.8970261"><ele>270.0</ele><time>2026-04-26T10:41:17.902Z</time></trkpt><trkpt lat="53.848841" lon="-1.8969488"><ele>270.0</ele><time>2026-04-26T10:41:18.901Z</time></trkpt><trkpt lat="53.8489474" lon="-1.8968773"><ele>270.0</ele><time>2026-04-26T10:41:19.9Z</time></trkpt><trkpt lat="53.8490613" lon="-1.8968103"><ele>270.0</ele><time>2026-04-26T10:41:20.9Z</time></trkpt><trkpt lat="53.8491775" lon="-1.8967476"><ele>270.0</ele><time>2026-04-26T10:41:21.9Z</time></trkpt><trkpt lat="53.8492908" lon="-1.8966879"><ele>270.0</ele><time>2026-04-26T10:41:22.9Z</time></trkpt><trkpt lat="53.8493989" lon="-1.8966317"><ele>270.0</ele><time>2026-04-26T10:41:23.904Z</time></trkpt><trkpt lat="53.8495041" lon="-1.8965778"><ele>270.0</ele><time>2026-04-26T10:41:24.898Z</time></trkpt><trkpt lat="53.8496111" lon="-1.8965198"><ele>270.0</ele><time>2026-04-26T10:41:25.9Z</time></trkpt><trkpt lat="53.8497229" lon="-1.8964628"><ele>270.0</ele><time>2026-04-26T10:41:26.899Z</time></trkpt><trkpt lat="53.8498381" lon="-1.8964101"><ele>270.0</ele><time>2026-04-26T10:41:27.899Z</time></trkpt><trkpt lat="53.8499549" lon="-1.896356"><ele>270.0</ele><time>2026-04-26T10:41:28.901Z</time></trkpt><trkpt lat="53.8500658" lon="-1.8963016"><ele>270.0</ele><time>2026-04-26T10:41:29.899Z</time></trkpt><trkpt lat="53.8501774" lon="-1.8962444"><ele>270.0</ele><time>2026-04-26T10:41:30.9Z</time></trkpt><trkpt lat="53.8502932" lon="-1.896181"><ele>270.0</ele><time>2026-04-26T10:41:31.899Z</time></trkpt><trkpt lat="53.8504058" lon="-1.8961121"><ele>270.5</ele><time>2026-04-26T10:41:32.896Z</time></trkpt><trkpt lat="53.8505202" lon="-1.8960443"><ele>271.0</ele><time>2026-04-26T10:41:33.901Z</time></trkpt><trkpt lat="53.8506375" lon="-1.8959767"><ele>271.5</ele><time>2026-04-26T10:41:34.9Z</time></trkpt><trkpt lat="53.8507565" lon="-1.8959083"><ele>272.0</ele><time>2026-04-26T10:41:35.899Z</time></trkpt><trkpt lat="53.8508751" lon="-1.8958416"><ele>271.4</ele><time>2026-04-26T10:41:36.901Z</time></trkpt><trkpt lat="53.8509896" lon="-1.8957798"><ele>270.79999999999995</ele><time>2026-04-26T10:41:37.9Z</time></trkpt><trkpt lat="53.8510969" lon="-1.8957244"><ele>270.2</ele><time>2026-04-26T10:41:38.899Z</time></trkpt><trkpt lat="53.8511912" lon="-1.8956763"><ele>269.59999999999997</ele><time>2026-04-26T10:41:39.9Z</time></trkpt><trkpt lat="53.8512735" lon="-1.8956327"><ele>269.0</ele><time>2026-04-26T10:41:40.9Z</time></trkpt><trkpt lat="53.8513431" lon="-1.895595"><ele>269.0</ele><time>2026-04-26T10:41:41.898Z</time></trkpt><trkpt lat="53.8514412" lon="-1.8955406"><ele>269.0</ele><time>2026-04-26T10:41:43.906Z</time></trkpt><trkpt lat="53.8515012" lon="-1.8955729"><ele>269.0</ele><time>2026-04-26T10:41:48.898Z</time></trkpt><trkpt lat="53.8516001" lon="-1.895647"><ele>269.0</ele><time>2026-04-26T10:42:33.899Z</time></trkpt><trkpt lat="53.8516653" lon="-1.8957074"><ele>269.0</ele><time>2026-04-26T10:42:34.895Z</time></trkpt><trkpt lat="53.8517406" lon="-1.8957793"><ele>269.0</ele><time>2026-04-26T10:42:35.898Z</time></trkpt><trkpt lat="53.8518184" lon="-1.8958574"><ele>268.2</ele><time>2026-04-26T10:42:36.897Z</time></trkpt><trkpt lat="53.8518907" lon="-1.8959423"><ele>267.4</ele><time>2026-04-26T10:42:37.897Z</time></trkpt><trkpt lat="53.85196" lon="-1.8960396"><ele>266.6</ele><time>2026-04-26T10:42:38.897Z</time></trkpt><trkpt lat="53.8520279" lon="-1.8961529"><ele>265.8</ele><time>2026-04-26T10:42:39.896Z</time></trkpt><trkpt lat="53.8520919" lon="-1.8962912"><ele>265.0</ele><time>2026-04-26T10:42:40.897Z</time></trkpt><trkpt lat="53.8521522" lon="-1.8964573"><ele>265.0</ele><time>2026-04-26T10:42:41.894Z</time></trkpt><trkpt lat="53.852216" lon="-1.8966399"><ele>265.0</ele><time>2026-04-26T10:42:42.895Z</time></trkpt><trkpt lat="53.8522919" lon="-1.8968277"><ele>265.0</ele><time>2026-04-26T10:42:43.903Z</time></trkpt><trkpt lat="53.8523792" lon="-1.8970223"><ele>265.0</ele><time>2026-04-26T10:42:44.896Z</time></trkpt><trkpt lat="53.8524745" lon="-1.8972198"><ele>263.5</ele><time>2026-04-26T10:42:45.894Z</time></trkpt><trkpt lat="53.8525654" lon="-1.8974153"><ele>262.0</ele><time>2026-04-26T10:42:46.895Z</time></trkpt><trkpt lat="53.8526491" lon="-1.8976129"><ele>260.5</ele><time>2026-04-26T10:42:47.897Z</time></trkpt><trkpt lat="53.8527317" lon="-1.8978276"><ele>259.0</ele><time>2026-04-26T10:42:48.896Z</time></trkpt><trkpt lat="53.8528176" lon="-1.8980541"><ele>259.0</ele><time>2026-04-26T10:42:49.898Z</time></trkpt><trkpt lat="53.8528978" lon="-1.8982627"><ele>259.0</ele><time>2026-04-26T10:42:50.9Z</time></trkpt><trkpt lat="53.852974" lon="-1.8984541"><ele>259.0</ele><time>2026-04-26T10:42:51.897Z</time></trkpt><trkpt lat="53.8530408" lon="-1.898637"><ele>259.0</ele><time>2026-04-26T10:42:52.888Z</time></trkpt><trkpt lat="53.8530921" lon="-1.8988136"><ele>258.0</ele><time>2026-04-26T10:42:53.895Z</time></trkpt><trkpt lat="53.8531307" lon="-1.8989894"><ele>257.0</ele><time>2026-04-26T10:42:54.894Z</time></trkpt><trkpt lat="53.8531502" lon="-1.8991574"><ele>255.99999999999997</ele><time>2026-04-26T10:42:55.897Z</time></trkpt><trkpt lat="53.8531575" lon="-1.8993071"><ele>255.0</ele><time>2026-04-26T10:42:56.897Z</time></trkpt><trkpt lat="53.8531569" lon="-1.8994213"><ele>254.0</ele><time>2026-04-26T10:42:57.9Z</time></trkpt><trkpt lat="53.8531472" lon="-1.8995635"><ele>252.2</ele><time>2026-04-26T10:42:59.898Z</time></trkpt><trkpt lat="53.8531571" lon="-1.8996692"><ele>250.39999999999998</ele><time>2026-04-26T10:43:01.898Z</time></trkpt><trkpt lat="53.8532626" lon="-1.8997964"><ele>248.6</ele><time>2026-04-26T10:43:03.897Z</time></trkpt><trkpt lat="53.8533492" lon="-1.8998793"><ele>246.8</ele><time>2026-04-26T10:43:04.897Z</time></trkpt><trkpt lat="53.8534436" lon="-1.8999769"><ele>245.0</ele><time>2026-04-26T10:43:05.899Z</time></trkpt><trkpt lat="53.8535401" lon="-1.9000665"><ele>240.8</ele><time>2026-04-26T10:43:06.896Z</time></trkpt><trkpt lat="53.8536389" lon="-1.9001465"><ele>236.6</ele><time>2026-04-26T10:43:07.897Z</time></trkpt><trkpt lat="53.8537364" lon="-1.9002082"><ele>232.39999999999998</ele><time>2026-04-26T10:43:08.897Z</time></trkpt><trkpt lat="53.8538319" lon="-1.9002424"><ele>228.2</ele><time>2026-04-26T10:43:09.896Z</time></trkpt><trkpt lat="53.8539293" lon="-1.9002361"><ele>224.0</ele><time>2026-04-26T10:43:10.897Z</time></trkpt><trkpt lat="53.8540356" lon="-1.9001862"><ele>224.0</ele><time>2026-04-26T10:43:11.897Z</time></trkpt><trkpt lat="53.854143" lon="-1.9001247"><ele>224.0</ele><time>2026-04-26T10:43:12.896Z</time></trkpt><trkpt lat="53.8542482" lon="-1.9000733"><ele>224.0</ele><time>2026-04-26T10:43:13.903Z</time></trkpt><trkpt lat="53.8543566" lon="-1.9000188"><ele>224.0</ele><time>2026-04-26T10:43:14.892Z</time></trkpt><trkpt lat="53.8544742" lon="-1.8999556"><ele>223.5</ele><time>2026-04-26T10:43:15.897Z</time></trkpt><trkpt lat="53.8546026" lon="-1.8998903"><ele>223.0</ele><time>2026-04-26T10:43:16.893Z</time></trkpt><trkpt lat="53.8547372" lon="-1.8998323"><ele>222.5</ele><time>2026-04-26T10:43:17.894Z</time></trkpt><trkpt lat="53.854874" lon="-1.8997848"><ele>222.0</ele><time>2026-04-26T10:43:18.894Z</time></trkpt><trkpt lat="53.8550105" lon="-1.8997349"><ele>217.25</ele><time>2026-04-26T10:43:19.894Z</time></trkpt><trkpt lat="53.8551378" lon="-1.8996839"><ele>212.5</ele><time>2026-04-26T10:43:20.893Z</time></trkpt><trkpt lat="53.8552528" lon="-1.8996222"><ele>207.75</ele><time>2026-04-26T10:43:21.898Z</time></trkpt><trkpt lat="53.8553623" lon="-1.8995432"><ele>203.0</ele><time>2026-04-26T10:43:22.898Z</time></trkpt><trkpt lat="53.8554718" lon="-1.8994559"><ele>203.0</ele><time>2026-04-26T10:43:23.899Z</time></trkpt><trkpt lat="53.855584" lon="-1.8993659"><ele>203.0</ele><time>2026-04-26T10:43:24.896Z</time></trkpt><trkpt lat="53.8557032" lon="-1.8992832"><ele>203.0</ele><time>2026-04-26T10:43:25.896Z</time></trkpt><trkpt lat="53.8558272" lon="-1.8992137"><ele>203.0</ele><time>2026-04-26T10:43:26.896Z</time></trkpt><trkpt lat="53.8559541" lon="-1.899157"><ele>203.0</ele><time>2026-04-26T10:43:27.898Z</time></trkpt><trkpt lat="53.8560779" lon="-1.8991117"><ele>203.0</ele><time>2026-04-26T10:43:28.897Z</time></trkpt><trkpt lat="53.8562012" lon="-1.899074"><ele>203.0</ele><time>2026-04-26T10:43:29.897Z</time></trkpt><trkpt lat="53.8563205" lon="-1.8990476"><ele>203.0</ele><time>2026-04-26T10:43:30.896Z</time></trkpt><trkpt lat="53.8564355" lon="-1.8990245"><ele>203.0</ele><time>2026-04-26T10:43:31.886Z</time></trkpt><trkpt lat="53.8565463" lon="-1.8990024"><ele>203.0</ele><time>2026-04-26T10:43:32.896Z</time></trkpt><trkpt lat="53.8566547" lon="-1.898986"><ele>203.0</ele><time>2026-04-26T10:43:33.902Z</time></trkpt><trkpt lat="53.8567584" lon="-1.89897"><ele>203.0</ele><time>2026-04-26T10:43:34.894Z</time></trkpt><trkpt lat="53.8568607" lon="-1.898959"><ele>203.0</ele><time>2026-04-26T10:43:35.896Z</time></trkpt><trkpt lat="53.8569657" lon="-1.8989579"><ele>200.0</ele><time>2026-04-26T10:43:36.894Z</time></trkpt><trkpt lat="53.8570716" lon="-1.8989646"><ele>197.0</ele><time>2026-04-26T10:43:37.896Z</time></trkpt><trkpt lat="53.8571741" lon="-1.8989656"><ele>194.0</ele><time>2026-04-26T10:43:38.897Z</time></trkpt><trkpt lat="53.8572669" lon="-1.8989446"><ele>191.0</ele><time>2026-04-26T10:43:39.896Z</time></trkpt><trkpt lat="53.8573545" lon="-1.8988894"><ele>188.0</ele><time>2026-04-26T10:43:40.896Z</time></trkpt><trkpt lat="53.8574381" lon="-1.8987999"><ele>188.0</ele><time>2026-04-26T10:43:41.896Z</time></trkpt><trkpt lat="53.8575183" lon="-1.8986839"><ele>188.0</ele><time>2026-04-26T10:43:42.896Z</time></trkpt><trkpt lat="53.8576041" lon="-1.8985626"><ele>188.0</ele><time>2026-04-26T10:43:43.898Z</time></trkpt><trkpt lat="53.8576954" lon="-1.898437"><ele>188.0</ele><time>2026-04-26T10:43:44.9Z</time></trkpt><trkpt lat="53.8577892" lon="-1.8983108"><ele>186.5</ele><time>2026-04-26T10:43:45.898Z</time></trkpt><trkpt lat="53.8578941" lon="-1.8981917"><ele>185.0</ele><time>2026-04-26T10:43:46.896Z</time></trkpt><trkpt lat="53.8580046" lon="-1.8980851"><ele>183.5</ele><time>2026-04-26T10:43:47.893Z</time></trkpt><trkpt lat="53.8581201" lon="-1.8979939"><ele>182.0</ele><time>2026-04-26T10:43:48.897Z</time></trkpt><trkpt lat="53.8582397" lon="-1.8979214"><ele>182.0</ele><time>2026-04-26T10:43:49.899Z</time></trkpt><trkpt lat="53.8583634" lon="-1.8978734"><ele>182.0</ele><time>2026-04-26T10:43:50.899Z</time></trkpt><trkpt lat="53.8584955" lon="-1.8978647"><ele>182.0</ele><time>2026-04-26T10:43:51.898Z</time></trkpt><trkpt lat="53.8586255" lon="-1.8978956"><ele>182.0</ele><time>2026-04-26T10:43:52.896Z</time></trkpt><trkpt lat="53.858748" lon="-1.8979464"><ele>183.0</ele><time>2026-04-26T10:43:53.902Z</time></trkpt><trkpt lat="53.8588649" lon="-1.8980051"><ele>184.0</ele><time>2026-04-26T10:43:54.896Z</time></trkpt><trkpt lat="53.8589723" lon="-1.8980639"><ele>185.0</ele><time>2026-04-26T10:43:55.897Z</time></trkpt><trkpt lat="53.8590651" lon="-1.8981136"><ele>186.0</ele><time>2026-04-26T10:43:56.895Z</time></trkpt><trkpt lat="53.8591327" lon="-1.8981529"><ele>187.0</ele><time>2026-04-26T10:43:57.895Z</time></trkpt><trkpt lat="53.8592056" lon="-1.8982044"><ele>187.0</ele><time>2026-04-26T10:43:59.896Z</time></trkpt><trkpt lat="53.8592574" lon="-1.8982769"><ele>187.0</ele><time>2026-04-26T10:44:02.893Z</time></trkpt><trkpt lat="53.859329" lon="-1.8981379"><ele>187.0</ele><time>2026-04-26T10:44:08.896Z</time></trkpt><trkpt lat="53.8593415" lon="-1.897984"><ele>187.0</ele><time>2026-04-26T10:44:09.897Z</time></trkpt><trkpt lat="53.8593316" lon="-1.8977901"><ele>187.0</ele><time>2026-04-26T10:44:10.898Z</time></trkpt><trkpt lat="53.8593101" lon="-1.8975585"><ele>188.66666666666669</ele><time>2026-04-26T10:44:11.895Z</time></trkpt><trkpt lat="53.8592841" lon="-1.8972987"><ele>190.33333333333334</ele><time>2026-04-26T10:44:12.896Z</time></trkpt><trkpt lat="53.8592514" lon="-1.8970294"><ele>192.0</ele><time>2026-04-26T10:44:13.903Z</time></trkpt><trkpt lat="53.859213" lon="-1.8967394"><ele>193.66666666666669</ele><time>2026-04-26T10:44:14.898Z</time></trkpt><trkpt lat="53.8591786" lon="-1.8964003"><ele>195.33333333333334</ele><time>2026-04-26T10:44:15.899Z</time></trkpt><trkpt lat="53.859157" lon="-1.8960535"><ele>197.0</ele><time>2026-04-26T10:44:16.899Z</time></trkpt><trkpt lat="53.8591467" lon="-1.8957448"><ele>198.0</ele><time>2026-04-26T10:44:17.898Z</time></trkpt><trkpt lat="53.8591368" lon="-1.895459"><ele>199.0</ele><time>2026-04-26T10:44:18.9Z</time></trkpt><trkpt lat="53.8591208" lon="-1.8951636"><ele>200.0</ele><time>2026-04-26T10:44:19.897Z</time></trkpt><trkpt lat="53.8590932" lon="-1.8948687"><ele>201.0</ele><time>2026-04-26T10:44:20.899Z</time></trkpt><trkpt lat="53.8590525" lon="-1.8945744"><ele>202.0</ele><time>2026-04-26T10:44:21.891Z</time></trkpt><trkpt lat="53.8590036" lon="-1.8942758"><ele>203.0</ele><time>2026-04-26T10:44:22.898Z</time></trkpt><trkpt lat="53.8589534" lon="-1.8939711"><ele>204.33333333333334</ele><time>2026-04-26T10:44:23.904Z</time></trkpt><trkpt lat="53.8589069" lon="-1.8936753"><ele>205.66666666666669</ele><time>2026-04-26T10:44:24.897Z</time></trkpt><trkpt lat="53.8588648" lon="-1.893391"><ele>207.0</ele><time>2026-04-26T10:44:25.898Z</time></trkpt><trkpt lat="53.858831" lon="-1.8931201"><ele>208.25</ele><time>2026-04-26T10:44:26.898Z</time></trkpt><trkpt lat="53.8588047" lon="-1.8928704"><ele>209.5</ele><time>2026-04-26T10:44:27.897Z</time></trkpt><trkpt lat="53.8587778" lon="-1.8926571"><ele>210.75</ele><time>2026-04-26T10:44:28.896Z</time></trkpt><trkpt lat="53.8587432" lon="-1.8924691"><ele>212.0</ele><time>2026-04-26T10:44:29.895Z</time></trkpt><trkpt lat="53.8587106" lon="-1.8923051"><ele>212.5</ele><time>2026-04-26T10:44:30.895Z</time></trkpt><trkpt lat="53.8586834" lon="-1.8921311"><ele>213.0</ele><time>2026-04-26T10:44:31.897Z</time></trkpt><trkpt lat="53.858664" lon="-1.8919426"><ele>213.5</ele><time>2026-04-26T10:44:32.9Z</time></trkpt><trkpt lat="53.8586587" lon="-1.891744"><ele>214.0</ele><time>2026-04-26T10:44:33.9Z</time></trkpt><trkpt lat="53.8586678" lon="-1.8915442"><ele>214.49999999999997</ele><time>2026-04-26T10:44:34.896Z</time></trkpt><trkpt lat="53.8586881" lon="-1.8913773"><ele>215.0</ele><time>2026-04-26T10:44:35.899Z</time></trkpt><trkpt lat="53.8587078" lon="-1.8912684"><ele>215.5</ele><time>2026-04-26T10:44:36.899Z</time></trkpt><trkpt lat="53.8587484" lon="-1.8911731"><ele>216.0</ele><time>2026-04-26T10:45:04.897Z</time></trkpt><trkpt lat="53.8587685" lon="-1.8910254"><ele>216.49999999999997</ele><time>2026-04-26T10:45:05.896Z</time></trkpt><trkpt lat="53.8588059" lon="-1.8908667"><ele>217.0</ele><time>2026-04-26T10:45:06.896Z</time></trkpt><trkpt lat="53.8588467" lon="-1.8907005"><ele>217.6</ele><time>2026-04-26T10:45:07.897Z</time></trkpt><trkpt lat="53.8588891" lon="-1.8905218"><ele>218.2</ele><time>2026-04-26T10:45:08.897Z</time></trkpt><trkpt lat="53.8589294" lon="-1.8903413"><ele>218.8</ele><time>2026-04-26T10:45:09.901Z</time></trkpt><trkpt lat="53.8589664" lon="-1.8901675"><ele>219.4</ele><time>2026-04-26T10:45:10.9Z</time></trkpt><trkpt lat="53.8590024" lon="-1.8899878"><ele>220.0</ele><time>2026-04-26T10:45:11.903Z</time></trkpt><trkpt lat="53.8590366" lon="-1.8898127"><ele>220.4</ele><time>2026-04-26T10:45:12.901Z</time></trkpt><trkpt lat="53.8590675" lon="-1.8896478"><ele>220.8</ele><time>2026-04-26T10:45:13.912Z</time></trkpt><trkpt lat="53.8591024" lon="-1.8894876"><ele>221.2</ele><time>2026-04-26T10:45:14.906Z</time></trkpt><trkpt lat="53.859145" lon="-1.889328"><ele>221.6</ele><time>2026-04-26T10:45:15.893Z</time></trkpt><trkpt lat="53.8591889" lon="-1.8891599"><ele>222.0</ele><time>2026-04-26T10:45:16.904Z</time></trkpt><trkpt lat="53.859231" lon="-1.8889833"><ele>222.25</ele><time>2026-04-26T10:45:17.891Z</time></trkpt><trkpt lat="53.8592707" lon="-1.8888005"><ele>222.5</ele><time>2026-04-26T10:45:18.903Z</time></trkpt><trkpt lat="53.8593133" lon="-1.8886166"><ele>222.75</ele><time>2026-04-26T10:45:19.903Z</time></trkpt><trkpt lat="53.8593571" lon="-1.888431"><ele>223.0</ele><time>2026-04-26T10:45:20.901Z</time></trkpt><trkpt lat="53.8593993" lon="-1.8882441"><ele>223.5</ele><time>2026-04-26T10:45:21.903Z</time></trkpt><trkpt lat="53.8594385" lon="-1.8880502"><ele>224.0</ele><time>2026-04-26T10:45:22.902Z</time></trkpt><trkpt lat="53.8594813" lon="-1.8878498"><ele>224.5</ele><time>2026-04-26T10:45:23.903Z</time></trkpt><trkpt lat="53.859523" lon="-1.8876509"><ele>225.0</ele><time>2026-04-26T10:45:24.901Z</time></trkpt><trkpt lat="53.85956" lon="-1.8874544"><ele>225.0</ele><time>2026-04-26T10:45:25.901Z</time></trkpt><trkpt lat="53.8596014" lon="-1.8872645"><ele>225.0</ele><time>2026-04-26T10:45:26.903Z</time></trkpt><trkpt lat="53.859649" lon="-1.8870825"><ele>225.0</ele><time>2026-04-26T10:45:27.902Z</time></trkpt><trkpt lat="53.8596962" lon="-1.8869094"><ele>225.0</ele><time>2026-04-26T10:45:28.898Z</time></trkpt><trkpt lat="53.8597388" lon="-1.8867425"><ele>225.0</ele><time>2026-04-26T10:45:29.899Z</time></trkpt><trkpt lat="53.8597838" lon="-1.8865906"><ele>225.0</ele><time>2026-04-26T10:45:30.895Z</time></trkpt><trkpt lat="53.859833" lon="-1.8864513"><ele>225.0</ele><time>2026-04-26T10:45:31.901Z</time></trkpt><trkpt lat="53.859893" lon="-1.8863171"><ele>225.0</ele><time>2026-04-26T10:45:32.9Z</time></trkpt><trkpt lat="53.8599697" lon="-1.8861878"><ele>225.0</ele><time>2026-04-26T10:45:33.905Z</time></trkpt><trkpt lat="53.860057" lon="-1.886067"><ele>224.6</ele><time>2026-04-26T10:45:34.896Z</time></trkpt><trkpt lat="53.8601427" lon="-1.8859521"><ele>224.2</ele><time>2026-04-26T10:45:35.895Z</time></trkpt><trkpt lat="53.8602236" lon="-1.8858533"><ele>223.8</ele><time>2026-04-26T10:45:36.894Z</time></trkpt><trkpt lat="53.8602933" lon="-1.8857791"><ele>223.4</ele><time>2026-04-26T10:45:37.9Z</time></trkpt><trkpt lat="53.860377" lon="-1.8857055"><ele>223.0</ele><time>2026-04-26T10:45:39.898Z</time></trkpt><trkpt lat="53.8602806" lon="-1.8857543"><ele>223.0</ele><time>2026-04-26T10:47:04.898Z</time></trkpt><trkpt lat="53.8602175" lon="-1.885835"><ele>223.0</ele><time>2026-04-26T10:47:05.898Z</time></trkpt><trkpt lat="53.860139" lon="-1.8859502"><ele>223.0</ele><time>2026-04-26T10:47:06.898Z</time></trkpt><trkpt lat="53.8600491" lon="-1.8860826"><ele>223.0</ele><time>2026-04-26T10:47:07.898Z</time></trkpt><trkpt lat="53.8599545" lon="-1.886212"><ele>223.0</ele><time>2026-04-26T10:47:08.892Z</time></trkpt><trkpt lat="53.8598637" lon="-1.8863494"><ele>223.5</ele><time>2026-04-26T10:47:09.89Z</time></trkpt><trkpt lat="53.8597829" lon="-1.8865081"><ele>224.0</ele><time>2026-04-26T10:47:10.898Z</time></trkpt><trkpt lat="53.8597162" lon="-1.8866975"><ele>224.5</ele><time>2026-04-26T10:47:11.899Z</time></trkpt><trkpt lat="53.8596648" lon="-1.8869118"><ele>225.0</ele><time>2026-04-26T10:47:12.898Z</time></trkpt><trkpt lat="53.8596198" lon="-1.8871351"><ele>225.0</ele><time>2026-04-26T10:47:13.894Z</time></trkpt><trkpt lat="53.8595753" lon="-1.8873501"><ele>225.0</ele><time>2026-04-26T10:47:14.901Z</time></trkpt><trkpt lat="53.8595297" lon="-1.8875607"><ele>225.0</ele><time>2026-04-26T10:47:15.9Z</time></trkpt><trkpt lat="53.8594871" lon="-1.8877677"><ele>225.0</ele><time>2026-04-26T10:47:16.906Z</time></trkpt><trkpt lat="53.8594439" lon="-1.88797"><ele>225.5</ele><time>2026-04-26T10:47:17.9Z</time></trkpt><trkpt lat="53.8593977" lon="-1.8881711"><ele>226.0</ele><time>2026-04-26T10:47:18.897Z</time></trkpt><trkpt lat="53.8593483" lon="-1.888369"><ele>226.5</ele><time>2026-04-26T10:47:19.899Z</time></trkpt><trkpt lat="53.8593043" lon="-1.8885617"><ele>227.0</ele><time>2026-04-26T10:47:20.89Z</time></trkpt><trkpt lat="53.8592642" lon="-1.8887411"><ele>226.33333333333334</ele><time>2026-04-26T10:47:21.898Z</time></trkpt><trkpt lat="53.8592303" lon="-1.8889022"><ele>225.66666666666669</ele><time>2026-04-26T10:47:22.9Z</time></trkpt><trkpt lat="53.8592037" lon="-1.8890473"><ele>225.0</ele><time>2026-04-26T10:47:23.903Z</time></trkpt><trkpt lat="53.8591817" lon="-1.8891772"><ele>224.33333333333331</ele><time>2026-04-26T10:47:24.898Z</time></trkpt><trkpt lat="53.8591589" lon="-1.8892864"><ele>223.66666666666666</ele><time>2026-04-26T10:47:25.899Z</time></trkpt><trkpt lat="53.8591143" lon="-1.8894097"><ele>223.0</ele><time>2026-04-26T10:47:27.898Z</time></trkpt><trkpt lat="53.8590766" lon="-1.8895944"><ele>222.8</ele><time>2026-04-26T10:47:45.898Z</time></trkpt><trkpt lat="53.8590522" lon="-1.889716"><ele>222.60000000000002</ele><time>2026-04-26T10:47:46.897Z</time></trkpt><trkpt lat="53.8590185" lon="-1.8898741"><ele>222.39999999999998</ele><time>2026-04-26T10:47:47.897Z</time></trkpt><trkpt lat="53.8589752" lon="-1.8900653"><ele>222.2</ele><time>2026-04-26T10:47:48.896Z</time></trkpt><trkpt lat="53.8589316" lon="-1.8902755"><ele>222.0</ele><time>2026-04-26T10:47:49.898Z</time></trkpt><trkpt lat="53.8588838" lon="-1.8904925"><ele>221.5</ele><time>2026-04-26T10:47:50.9Z</time></trkpt><trkpt lat="53.8588336" lon="-1.8907071"><ele>221.0</ele><time>2026-04-26T10:47:51.897Z</time></trkpt><trkpt lat="53.8587862" lon="-1.8909037"><ele>220.5</ele><time>2026-04-26T10:47:52.899Z</time></trkpt><trkpt lat="53.8587429" lon="-1.8910811"><ele>220.0</ele><time>2026-04-26T10:47:53.901Z</time></trkpt><trkpt lat="53.8587072" lon="-1.8912338"><ele>219.49999999999997</ele><time>2026-04-26T10:47:54.9Z</time></trkpt><trkpt lat="53.8586802" lon="-1.8913614"><ele>219.0</ele><time>2026-04-26T10:47:55.899Z</time></trkpt><trkpt lat="53.8586598" lon="-1.8914675"><ele>218.5</ele><time>2026-04-26T10:47:56.899Z</time></trkpt><trkpt lat="53.8585976" lon="-1.8915687"><ele>218.0</ele><time>2026-04-26T10:47:58.898Z</time></trkpt><trkpt lat="53.8585454" lon="-1.8915024"><ele>217.49999999999997</ele><time>2026-04-26T10:47:59.903Z</time></trkpt><trkpt lat="53.8585064" lon="-1.8913742"><ele>217.0</ele><time>2026-04-26T10:48:00.899Z</time></trkpt><trkpt lat="53.8584714" lon="-1.8911968"><ele>216.75</ele><time>2026-04-26T10:48:01.897Z</time></trkpt><trkpt lat="53.8584352" lon="-1.8909988"><ele>216.5</ele><time>2026-04-26T10:48:02.898Z</time></trkpt><trkpt lat="53.8583895" lon="-1.8907912"><ele>216.25</ele><time>2026-04-26T10:48:03.904Z</time></trkpt><trkpt lat="53.8583309" lon="-1.8905653"><ele>216.0</ele><time>2026-04-26T10:48:04.898Z</time></trkpt><trkpt lat="53.8582713" lon="-1.8903255"><ele>218.0</ele><time>2026-04-26T10:48:05.9Z</time></trkpt><trkpt lat="53.8582054" lon="-1.8900703"><ele>220.0</ele><time>2026-04-26T10:48:06.899Z</time></trkpt><trkpt lat="53.8581278" lon="-1.8897971"><ele>222.0</ele><time>2026-04-26T10:48:07.899Z</time></trkpt><trkpt lat="53.8580429" lon="-1.889508"><ele>222.66666666666669</ele><time>2026-04-26T10:48:08.898Z</time></trkpt><trkpt lat="53.8579514" lon="-1.8892006"><ele>223.33333333333334</ele><time>2026-04-26T10:48:09.899Z</time></trkpt><trkpt lat="53.8578543" lon="-1.888884"><ele>224.0</ele><time>2026-04-26T10:48:10.901Z</time></trkpt><trkpt lat="53.8577614" lon="-1.888579"><ele>224.66666666666669</ele><time>2026-04-26T10:48:11.9Z</time></trkpt><trkpt lat="53.8576739" lon="-1.8882907"><ele>225.33333333333331</ele><time>2026-04-26T10:48:12.9Z</time></trkpt><trkpt lat="53.8575891" lon="-1.8880277"><ele>226.0</ele><time>2026-04-26T10:48:13.905Z</time></trkpt><trkpt lat="53.857499" lon="-1.8877894"><ele>231.0</ele><time>2026-04-26T10:48:14.9Z</time></trkpt><trkpt lat="53.8574043" lon="-1.8875754"><ele>236.0</ele><time>2026-04-26T10:48:15.9Z</time></trkpt><trkpt lat="53.8573081" lon="-1.8873776"><ele>241.0</ele><time>2026-04-26T10:48:16.904Z</time></trkpt><trkpt lat="53.8572111" lon="-1.8871899"><ele>241.0</ele><time>2026-04-26T10:48:17.902Z</time></trkpt><trkpt lat="53.8571116" lon="-1.8870042"><ele>241.0</ele><time>2026-04-26T10:48:18.902Z</time></trkpt><trkpt lat="53.8570131" lon="-1.8868235"><ele>241.0</ele><time>2026-04-26T10:48:19.901Z</time></trkpt><trkpt lat="53.8569138" lon="-1.8866463"><ele>241.0</ele><time>2026-04-26T10:48:20.901Z</time></trkpt><trkpt lat="53.8568115" lon="-1.8864721"><ele>244.0</ele><time>2026-04-26T10:48:21.902Z</time></trkpt><trkpt lat="53.8567001" lon="-1.8863049"><ele>247.0</ele><time>2026-04-26T10:48:22.903Z</time></trkpt><trkpt lat="53.8565894" lon="-1.886152"><ele>250.0</ele><time>2026-04-26T10:48:23.905Z</time></trkpt><trkpt lat="53.8564736" lon="-1.8859997"><ele>253.0</ele><time>2026-04-26T10:48:24.901Z</time></trkpt><trkpt lat="53.8563512" lon="-1.8858453"><ele>253.0</ele><time>2026-04-26T10:48:25.893Z</time></trkpt><trkpt lat="53.8562293" lon="-1.8856907"><ele>253.0</ele><time>2026-04-26T10:48:26.901Z</time></trkpt><trkpt lat="53.8561059" lon="-1.8855356"><ele>253.0</ele><time>2026-04-26T10:48:27.903Z</time></trkpt><trkpt lat="53.8559831" lon="-1.8853804"><ele>255.66666666666666</ele><time>2026-04-26T10:48:28.903Z</time></trkpt><trkpt lat="53.8558607" lon="-1.8852234"><ele>258.3333333333333</ele><time>2026-04-26T10:48:29.902Z</time></trkpt><trkpt lat="53.8557339" lon="-1.8850649"><ele>261.0</ele><time>2026-04-26T10:48:30.903Z</time></trkpt><trkpt lat="53.8556055" lon="-1.884907"><ele>261.0</ele><time>2026-04-26T10:48:31.901Z</time></trkpt><trkpt lat="53.8554806" lon="-1.8847527"><ele>261.0</ele><time>2026-04-26T10:48:32.903Z</time></trkpt><trkpt lat="53.8553593" lon="-1.8846042"><ele>261.0</ele><time>2026-04-26T10:48:33.904Z</time></trkpt><trkpt lat="53.8552412" lon="-1.884455"><ele>261.0</ele><time>2026-04-26T10:48:34.9Z</time></trkpt><trkpt lat="53.8551227" lon="-1.8843024"><ele>261.0</ele><time>2026-04-26T10:48:35.901Z</time></trkpt><trkpt lat="53.8550012" lon="-1.8841499"><ele>261.0</ele><time>2026-04-26T10:48:36.901Z</time></trkpt><trkpt lat="53.8548755" lon="-1.8839932"><ele>261.3333333333333</ele><time>2026-04-26T10:48:37.897Z</time></trkpt><trkpt lat="53.8547503" lon="-1.8838314"><ele>261.66666666666663</ele><time>2026-04-26T10:48:38.902Z</time></trkpt><trkpt lat="53.8546282" lon="-1.8836684"><ele>262.0</ele><time>2026-04-26T10:48:39.9Z</time></trkpt><trkpt lat="53.8545115" lon="-1.8835138"><ele>262.5</ele><time>2026-04-26T10:48:40.901Z</time></trkpt><trkpt lat="53.8543961" lon="-1.8833628"><ele>263.0</ele><time>2026-04-26T10:48:41.901Z</time></trkpt><trkpt lat="53.8542846" lon="-1.8832144"><ele>263.5</ele><time>2026-04-26T10:48:42.9Z</time></trkpt><trkpt lat="53.8541741" lon="-1.8830677"><ele>264.0</ele><time>2026-04-26T10:48:43.908Z</time></trkpt><trkpt lat="53.8540659" lon="-1.8829209"><ele>265.25</ele><time>2026-04-26T10:48:44.901Z</time></trkpt><trkpt lat="53.8539573" lon="-1.8827749"><ele>266.5</ele><time>2026-04-26T10:48:45.9Z</time></trkpt><trkpt lat="53.8538453" lon="-1.8826273"><ele>267.75</ele><time>2026-04-26T10:48:46.902Z</time></trkpt><trkpt lat="53.8537318" lon="-1.8824771"><ele>269.0</ele><time>2026-04-26T10:48:47.901Z</time></trkpt><trkpt lat="53.8536225" lon="-1.8823292"><ele>269.5</ele><time>2026-04-26T10:48:48.903Z</time></trkpt><trkpt lat="53.8535139" lon="-1.8821863"><ele>270.0</ele><time>2026-04-26T10:48:49.901Z</time></trkpt><trkpt lat="53.8534069" lon="-1.882048"><ele>270.5</ele><time>2026-04-26T10:48:50.899Z</time></trkpt><trkpt lat="53.8533026" lon="-1.8819108"><ele>271.0</ele><time>2026-04-26T10:48:51.901Z</time></trkpt><trkpt lat="53.8532023" lon="-1.8817735"><ele>271.6</ele><time>2026-04-26T10:48:52.9Z</time></trkpt><trkpt lat="53.85311" lon="-1.8816481"><ele>272.20000000000005</ele><time>2026-04-26T10:48:53.907Z</time></trkpt><trkpt lat="53.8530339" lon="-1.8815475"><ele>272.79999999999995</ele><time>2026-04-26T10:48:54.902Z</time></trkpt><trkpt lat="53.8529743" lon="-1.8814716"><ele>273.4</ele><time>2026-04-26T10:48:55.902Z</time></trkpt><trkpt lat="53.8529266" lon="-1.8813607"><ele>274.0</ele><time>2026-04-26T10:48:57.891Z</time></trkpt><trkpt lat="53.8529655" lon="-1.8812382"><ele>274.0</ele><time>2026-04-26T10:48:59.902Z</time></trkpt><trkpt lat="53.8530175" lon="-1.8811568"><ele>274.0</ele><time>2026-04-26T10:49:00.901Z</time></trkpt><trkpt lat="53.853084" lon="-1.8810579"><ele>274.0</ele><time>2026-04-26T10:49:01.9Z</time></trkpt><trkpt lat="53.8531638" lon="-1.8809409"><ele>274.0</ele><time>2026-04-26T10:49:02.904Z</time></trkpt><trkpt lat="53.8532474" lon="-1.8808088"><ele>274.0</ele><time>2026-04-26T10:49:03.908Z</time></trkpt><trkpt lat="53.8533257" lon="-1.8806703"><ele>273.75</ele><time>2026-04-26T10:49:04.901Z</time></trkpt><trkpt lat="53.8534095" lon="-1.8805306"><ele>273.5</ele><time>2026-04-26T10:49:05.9Z</time></trkpt><trkpt lat="53.8534988" lon="-1.8803858"><ele>273.25</ele><time>2026-04-26T10:49:06.902Z</time></trkpt><trkpt lat="53.8535857" lon="-1.8802446"><ele>273.0</ele><time>2026-04-26T10:49:07.902Z</time></trkpt><trkpt lat="53.8536732" lon="-1.8801107"><ele>272.6</ele><time>2026-04-26T10:49:08.902Z</time></trkpt><trkpt lat="53.8537593" lon="-1.8799776"><ele>272.20000000000005</ele><time>2026-04-26T10:49:09.903Z</time></trkpt><trkpt lat="53.8538458" lon="-1.8798497"><ele>271.8</ele><time>2026-04-26T10:49:10.905Z</time></trkpt><trkpt lat="53.8539244" lon="-1.8797218"><ele>271.40000000000003</ele><time>2026-04-26T10:49:11.9Z</time></trkpt><trkpt lat="53.8539962" lon="-1.8796001"><ele>271.0</ele><time>2026-04-26T10:49:12.9Z</time></trkpt><trkpt lat="53.8540643" lon="-1.8794896"><ele>271.0</ele><time>2026-04-26T10:49:13.906Z</time></trkpt><trkpt lat="53.8541208" lon="-1.8793894"><ele>271.0</ele><time>2026-04-26T10:49:14.895Z</time></trkpt><trkpt lat="53.854159" lon="-1.879303"><ele>271.0</ele><time>2026-04-26T10:49:15.901Z</time></trkpt><trkpt lat="53.8541755" lon="-1.8791697"><ele>271.0</ele><time>2026-04-26T10:49:17.893Z</time></trkpt><trkpt lat="53.854184" lon="-1.8790122"><ele>271.0</ele><time>2026-04-26T10:49:20.903Z</time></trkpt><trkpt lat="53.8541959" lon="-1.8788624"><ele>271.0</ele><time>2026-04-26T10:49:22.901Z</time></trkpt><trkpt lat="53.8542065" lon="-1.8786849"><ele>271.0</ele><time>2026-04-26T10:49:24.901Z</time></trkpt><trkpt lat="53.8542191" lon="-1.878465"><ele>271.0</ele><time>2026-04-26T10:49:26.902Z</time></trkpt><trkpt lat="53.8542221" lon="-1.8783268"><ele>271.0</ele><time>2026-04-26T10:49:27.903Z</time></trkpt><trkpt lat="53.8542335" lon="-1.8781679"><ele>271.0</ele><time>2026-04-26T10:49:28.902Z</time></trkpt><trkpt lat="53.8542467" lon="-1.8779918"><ele>271.0</ele><time>2026-04-26T10:49:29.902Z</time></trkpt><trkpt lat="53.854264" lon="-1.8778037"><ele>271.0</ele><time>2026-04-26T10:49:30.901Z</time></trkpt><trkpt lat="53.8542827" lon="-1.8776179"><ele>271.0</ele><time>2026-04-26T10:49:31.901Z</time></trkpt><trkpt lat="53.8542977" lon="-1.8774408"><ele>271.0</ele><time>2026-04-26T10:49:32.901Z</time></trkpt><trkpt lat="53.8543091" lon="-1.8772651"><ele>271.0</ele><time>2026-04-26T10:49:33.902Z</time></trkpt><trkpt lat="53.8543196" lon="-1.8770924"><ele>271.0</ele><time>2026-04-26T10:49:34.903Z</time></trkpt><trkpt lat="53.8543328" lon="-1.8769217"><ele>270.75</ele><time>2026-04-26T10:49:35.902Z</time></trkpt><trkpt lat="53.8543461" lon="-1.8767371"><ele>270.5</ele><time>2026-04-26T10:49:36.902Z</time></trkpt><trkpt lat="53.8543605" lon="-1.8765194"><ele>270.25</ele><time>2026-04-26T10:49:37.9Z</time></trkpt><trkpt lat="53.8543776" lon="-1.8762566"><ele>270.0</ele><time>2026-04-26T10:49:38.9Z</time></trkpt><trkpt lat="53.8543996" lon="-1.8759656"><ele>269.3333333333333</ele><time>2026-04-26T10:49:39.901Z</time></trkpt><trkpt lat="53.8544281" lon="-1.8756695"><ele>268.66666666666663</ele><time>2026-04-26T10:49:40.902Z</time></trkpt><trkpt lat="53.8544557" lon="-1.8753898"><ele>268.0</ele><time>2026-04-26T10:49:41.899Z</time></trkpt><trkpt lat="53.85448" lon="-1.8751187"><ele>268.3333333333333</ele><time>2026-04-26T10:49:42.901Z</time></trkpt><trkpt lat="53.8545041" lon="-1.8748417"><ele>268.6666666666667</ele><time>2026-04-26T10:49:43.906Z</time></trkpt><trkpt lat="53.8545302" lon="-1.8745587"><ele>269.0</ele><time>2026-04-26T10:49:44.902Z</time></trkpt><trkpt lat="53.8545556" lon="-1.8742724"><ele>269.6666666666667</ele><time>2026-04-26T10:49:45.903Z</time></trkpt><trkpt lat="53.8545778" lon="-1.8739883"><ele>270.3333333333333</ele><time>2026-04-26T10:49:46.902Z</time></trkpt><trkpt lat="53.8546011" lon="-1.8737227"><ele>271.0</ele><time>2026-04-26T10:49:47.901Z</time></trkpt><trkpt lat="53.854624" lon="-1.8734834"><ele>270.75</ele><time>2026-04-26T10:49:48.899Z</time></trkpt><trkpt lat="53.8546445" lon="-1.8732681"><ele>270.5</ele><time>2026-04-26T10:49:49.892Z</time></trkpt><trkpt lat="53.8546603" lon="-1.8730662"><ele>270.25</ele><time>2026-04-26T10:49:50.899Z</time></trkpt><trkpt lat="53.8546732" lon="-1.8728647"><ele>270.0</ele><time>2026-04-26T10:49:51.901Z</time></trkpt><trkpt lat="53.8546804" lon="-1.872667"><ele>269.4</ele><time>2026-04-26T10:49:52.902Z</time></trkpt><trkpt lat="53.8546774" lon="-1.8724885"><ele>268.8</ele><time>2026-04-26T10:49:53.904Z</time></trkpt><trkpt lat="53.8546701" lon="-1.8723413"><ele>268.2</ele><time>2026-04-26T10:49:54.893Z</time></trkpt><trkpt lat="53.8546614" lon="-1.8721708"><ele>267.6</ele><time>2026-04-26T10:49:56.898Z</time></trkpt><trkpt lat="53.8546405" lon="-1.8720202"><ele>267.0</ele><time>2026-04-26T10:50:04.895Z</time></trkpt><trkpt lat="53.8546457" lon="-1.8718581"><ele>266.4</ele><time>2026-04-26T10:50:06.899Z</time></trkpt><trkpt lat="53.8546511" lon="-1.8717021"><ele>265.79999999999995</ele><time>2026-04-26T10:50:08.9Z</time></trkpt><trkpt lat="53.8546616" lon="-1.8715147"><ele>265.2</ele><time>2026-04-26T10:50:10.901Z</time></trkpt><trkpt lat="53.8546679" lon="-1.8713855"><ele>264.59999999999997</ele><time>2026-04-26T10:50:11.899Z</time></trkpt><trkpt lat="53.8546759" lon="-1.8712263"><ele>264.0</ele><time>2026-04-26T10:50:12.899Z</time></trkpt><trkpt lat="53.8546833" lon="-1.8710469"><ele>263.4</ele><time>2026-04-26T10:50:13.903Z</time></trkpt><trkpt lat="53.8546872" lon="-1.8708638"><ele>262.79999999999995</ele><time>2026-04-26T10:50:14.901Z</time></trkpt><trkpt lat="53.854688" lon="-1.8706831"><ele>262.20000000000005</ele><time>2026-04-26T10:50:15.9Z</time></trkpt><trkpt lat="53.8546856" lon="-1.8705085"><ele>261.6</ele><time>2026-04-26T10:50:16.902Z</time></trkpt><trkpt lat="53.8546833" lon="-1.8703541"><ele>261.0</ele><time>2026-04-26T10:50:17.898Z</time></trkpt><trkpt lat="53.854682" lon="-1.8702292"><ele>260.8</ele><time>2026-04-26T10:50:18.9Z</time></trkpt><trkpt lat="53.8546826" lon="-1.8700275"><ele>260.6</ele><time>2026-04-26T10:50:20.9Z</time></trkpt><trkpt lat="53.8546868" lon="-1.8698933"><ele>260.4</ele><time>2026-04-26T10:50:21.9Z</time></trkpt><trkpt lat="53.8546885" lon="-1.8697098"><ele>260.2</ele><time>2026-04-26T10:50:22.901Z</time></trkpt><trkpt lat="53.8546824" lon="-1.8694696"><ele>260.0</ele><time>2026-04-26T10:50:23.904Z</time></trkpt><trkpt lat="53.8546723" lon="-1.8691783"><ele>259.6666666666667</ele><time>2026-04-26T10:50:24.902Z</time></trkpt><trkpt lat="53.854662" lon="-1.8688467"><ele>259.3333333333333</ele><time>2026-04-26T10:50:25.902Z</time></trkpt><trkpt lat="53.8546548" lon="-1.8685062"><ele>259.0</ele><time>2026-04-26T10:50:26.9Z</time></trkpt><trkpt lat="53.8546473" lon="-1.8681843"><ele>259.0</ele><time>2026-04-26T10:50:27.901Z</time></trkpt><trkpt lat="53.8546432" lon="-1.867908"><ele>259.0</ele><time>2026-04-26T10:50:28.9Z</time></trkpt><trkpt lat="53.8546416" lon="-1.8676811"><ele>259.0</ele><time>2026-04-26T10:50:29.9Z</time></trkpt><trkpt lat="53.8546403" lon="-1.8674858"><ele>259.0</ele><time>2026-04-26T10:50:30.9Z</time></trkpt><trkpt lat="53.8546447" lon="-1.8673212"><ele>258.0</ele><time>2026-04-26T10:50:31.899Z</time></trkpt><trkpt lat="53.8546464" lon="-1.8671729"><ele>257.0</ele><time>2026-04-26T10:50:32.898Z</time></trkpt><trkpt lat="53.8546468" lon="-1.8670331"><ele>255.99999999999997</ele><time>2026-04-26T10:50:33.901Z</time></trkpt><trkpt lat="53.8546481" lon="-1.8668853"><ele>255.0</ele><time>2026-04-26T10:50:34.9Z</time></trkpt><trkpt lat="53.8546464" lon="-1.8667153"><ele>254.0</ele><time>2026-04-26T10:50:35.901Z</time></trkpt><trkpt lat="53.8546398" lon="-1.8665234"><ele>252.66666666666669</ele><time>2026-04-26T10:50:36.901Z</time></trkpt><trkpt lat="53.8546338" lon="-1.8662967"><ele>251.33333333333331</ele><time>2026-04-26T10:50:37.901Z</time></trkpt><trkpt lat="53.854633" lon="-1.8660147"><ele>250.0</ele><time>2026-04-26T10:50:38.9Z</time></trkpt><trkpt lat="53.8546309" lon="-1.8656599"><ele>248.5</ele><time>2026-04-26T10:50:39.899Z</time></trkpt><trkpt lat="53.8546271" lon="-1.8652498"><ele>247.0</ele><time>2026-04-26T10:50:40.9Z</time></trkpt><trkpt lat="53.854625" lon="-1.8648082"><ele>245.0</ele><time>2026-04-26T10:50:41.897Z</time></trkpt><trkpt lat="53.8546269" lon="-1.8643788"><ele>243.0</ele><time>2026-04-26T10:50:42.897Z</time></trkpt><trkpt lat="53.8546274" lon="-1.8639802"><ele>242.33333333333331</ele><time>2026-04-26T10:50:43.903Z</time></trkpt><trkpt lat="53.8546301" lon="-1.8636071"><ele>241.66666666666666</ele><time>2026-04-26T10:50:44.9Z</time></trkpt><trkpt lat="53.8546283" lon="-1.8632727"><ele>241.0</ele><time>2026-04-26T10:50:45.9Z</time></trkpt><trkpt lat="53.8546241" lon="-1.8629872"><ele>240.5</ele><time>2026-04-26T10:50:46.902Z</time></trkpt><trkpt lat="53.8546168" lon="-1.8627346"><ele>240.0</ele><time>2026-04-26T10:50:47.901Z</time></trkpt><trkpt lat="53.8546094" lon="-1.8625231"><ele>239.5</ele><time>2026-04-26T10:50:48.902Z</time></trkpt><trkpt lat="53.8546041" lon="-1.8623459"><ele>239.0</ele><time>2026-04-26T10:50:49.9Z</time></trkpt><trkpt lat="53.8545973" lon="-1.8621742"><ele>238.0</ele><time>2026-04-26T10:50:50.899Z</time></trkpt><trkpt lat="53.8545822" lon="-1.8619908"><ele>237.0</ele><time>2026-04-26T10:50:51.899Z</time></trkpt><trkpt lat="53.8545617" lon="-1.8617955"><ele>236.0</ele><time>2026-04-26T10:50:52.908Z</time></trkpt><trkpt lat="53.8545337" lon="-1.861575"><ele>235.0</ele><time>2026-04-26T10:50:53.896Z</time></trkpt><trkpt lat="53.8545033" lon="-1.8613543"><ele>234.49999999999997</ele><time>2026-04-26T10:50:54.899Z</time></trkpt><trkpt lat="53.8544743" lon="-1.861148"><ele>234.0</ele><time>2026-04-26T10:50:55.9Z</time></trkpt><trkpt lat="53.8544453" lon="-1.8609785"><ele>233.5</ele><time>2026-04-26T10:50:56.898Z</time></trkpt><trkpt lat="53.8544236" lon="-1.8608492"><ele>233.0</ele><time>2026-04-26T10:50:57.899Z</time></trkpt><trkpt lat="53.8544133" lon="-1.8607411"><ele>232.49999999999997</ele><time>2026-04-26T10:50:59.897Z</time></trkpt><trkpt lat="53.8543704" lon="-1.8606421"><ele>232.0</ele><time>2026-04-26T10:51:03.899Z</time></trkpt><trkpt lat="53.8543898" lon="-1.8605348"><ele>231.6</ele><time>2026-04-26T10:53:26.902Z</time></trkpt><trkpt lat="53.854348" lon="-1.8603603"><ele>231.2</ele><time>2026-04-26T10:54:26.909Z</time></trkpt><trkpt lat="53.8543234" lon="-1.8602168"><ele>230.8</ele><time>2026-04-26T10:54:27.905Z</time></trkpt><trkpt lat="53.8542961" lon="-1.8600399"><ele>230.4</ele><time>2026-04-26T10:54:28.9Z</time></trkpt><trkpt lat="53.8542672" lon="-1.8598181"><ele>230.0</ele><time>2026-04-26T10:54:29.902Z</time></trkpt><trkpt lat="53.8542379" lon="-1.8595828"><ele>230.5</ele><time>2026-04-26T10:54:30.901Z</time></trkpt><trkpt lat="53.8542087" lon="-1.8593549"><ele>231.0</ele><time>2026-04-26T10:54:31.905Z</time></trkpt><trkpt lat="53.8541827" lon="-1.8591395"><ele>231.5</ele><time>2026-04-26T10:54:32.904Z</time></trkpt><trkpt lat="53.8541635" lon="-1.8589418"><ele>232.0</ele><time>2026-04-26T10:54:33.906Z</time></trkpt><trkpt lat="53.8541406" lon="-1.8587693"><ele>232.0</ele><time>2026-04-26T10:54:34.907Z</time></trkpt><trkpt lat="53.8541035" lon="-1.8586009"><ele>232.0</ele><time>2026-04-26T10:54:35.907Z</time></trkpt><trkpt lat="53.8540448" lon="-1.8584229"><ele>232.0</ele><time>2026-04-26T10:54:36.902Z</time></trkpt><trkpt lat="53.8539783" lon="-1.8582289"><ele>232.0</ele><time>2026-04-26T10:54:37.905Z</time></trkpt><trkpt lat="53.853886" lon="-1.85802"><ele>230.0</ele><time>2026-04-26T10:54:38.906Z</time></trkpt><trkpt lat="53.8537803" lon="-1.85779"><ele>228.0</ele><time>2026-04-26T10:54:39.905Z</time></trkpt><trkpt lat="53.8536677" lon="-1.8575564"><ele>226.0</ele><time>2026-04-26T10:54:40.905Z</time></trkpt><trkpt lat="53.8535464" lon="-1.8573402"><ele>227.0</ele><time>2026-04-26T10:54:41.904Z</time></trkpt><trkpt lat="53.8534087" lon="-1.8571413"><ele>228.0</ele><time>2026-04-26T10:54:42.904Z</time></trkpt><trkpt lat="53.8532591" lon="-1.8569455"><ele>229.0</ele><time>2026-04-26T10:54:43.906Z</time></trkpt><trkpt lat="53.8531026" lon="-1.8567529"><ele>226.0</ele><time>2026-04-26T10:54:44.905Z</time></trkpt><trkpt lat="53.852952" lon="-1.8565706"><ele>223.0</ele><time>2026-04-26T10:54:45.9Z</time></trkpt><trkpt lat="53.8528126" lon="-1.8564016"><ele>220.0</ele><time>2026-04-26T10:54:46.905Z</time></trkpt><trkpt lat="53.8526903" lon="-1.8562416"><ele>220.5</ele><time>2026-04-26T10:54:47.893Z</time></trkpt><trkpt lat="53.8525868" lon="-1.8560846"><ele>221.0</ele><time>2026-04-26T10:54:48.903Z</time></trkpt><trkpt lat="53.852494" lon="-1.8559196"><ele>221.5</ele><time>2026-04-26T10:54:49.899Z</time></trkpt><trkpt lat="53.8524046" lon="-1.8557267"><ele>222.0</ele><time>2026-04-26T10:54:50.899Z</time></trkpt><trkpt lat="53.8523218" lon="-1.855503"><ele>222.0</ele><time>2026-04-26T10:54:51.901Z</time></trkpt><trkpt lat="53.852238" lon="-1.8552481"><ele>222.0</ele><time>2026-04-26T10:54:52.907Z</time></trkpt><trkpt lat="53.8521519" lon="-1.854973"><ele>222.0</ele><time>2026-04-26T10:54:53.902Z</time></trkpt><trkpt lat="53.8520653" lon="-1.8547045"><ele>217.66666666666669</ele><time>2026-04-26T10:54:54.905Z</time></trkpt><trkpt lat="53.851981" lon="-1.8544495"><ele>213.33333333333334</ele><time>2026-04-26T10:54:55.904Z</time></trkpt><trkpt lat="53.8519013" lon="-1.8542132"><ele>209.0</ele><time>2026-04-26T10:54:56.905Z</time></trkpt><trkpt lat="53.8518297" lon="-1.8539959"><ele>208.25</ele><time>2026-04-26T10:54:57.906Z</time></trkpt><trkpt lat="53.8517639" lon="-1.8537923"><ele>207.5</ele><time>2026-04-26T10:54:58.906Z</time></trkpt><trkpt lat="53.851699" lon="-1.8536032"><ele>206.75</ele><time>2026-04-26T10:54:59.906Z</time></trkpt><trkpt lat="53.8516313" lon="-1.8534288"><ele>206.0</ele><time>2026-04-26T10:55:00.905Z</time></trkpt><trkpt lat="53.8515605" lon="-1.8532643"><ele>202.5</ele><time>2026-04-26T10:55:01.904Z</time></trkpt><trkpt lat="53.8514856" lon="-1.8530955"><ele>199.0</ele><time>2026-04-26T10:55:02.904Z</time></trkpt><trkpt lat="53.8514065" lon="-1.8528983"><ele>195.5</ele><time>2026-04-26T10:55:03.905Z</time></trkpt><trkpt lat="53.8513276" lon="-1.8526541"><ele>192.0</ele><time>2026-04-26T10:55:04.904Z</time></trkpt><trkpt lat="53.8512481" lon="-1.8523741"><ele>188.0</ele><time>2026-04-26T10:55:05.903Z</time></trkpt><trkpt lat="53.8511788" lon="-1.8521058"><ele>184.0</ele><time>2026-04-26T10:55:06.907Z</time></trkpt><trkpt lat="53.8511098" lon="-1.851842"><ele>180.0</ele><time>2026-04-26T10:55:07.906Z</time></trkpt><trkpt lat="53.8510433" lon="-1.8515855"><ele>178.0</ele><time>2026-04-26T10:55:08.903Z</time></trkpt><trkpt lat="53.8509807" lon="-1.8513243"><ele>176.0</ele><time>2026-04-26T10:55:09.901Z</time></trkpt><trkpt lat="53.8509276" lon="-1.8510493"><ele>174.0</ele><time>2026-04-26T10:55:10.906Z</time></trkpt><trkpt lat="53.8508815" lon="-1.8507693"><ele>170.33333333333334</ele><time>2026-04-26T10:55:11.906Z</time></trkpt><trkpt lat="53.8508426" lon="-1.8504979"><ele>166.66666666666669</ele><time>2026-04-26T10:55:12.904Z</time></trkpt><trkpt lat="53.8508183" lon="-1.8502386"><ele>163.0</ele><time>2026-04-26T10:55:13.906Z</time></trkpt><trkpt lat="53.8508065" lon="-1.8499844"><ele>161.75</ele><time>2026-04-26T10:55:14.908Z</time></trkpt><trkpt lat="53.8507952" lon="-1.849738"><ele>160.5</ele><time>2026-04-26T10:55:15.907Z</time></trkpt><trkpt lat="53.8507854" lon="-1.8494961"><ele>159.25</ele><time>2026-04-26T10:55:16.901Z</time></trkpt><trkpt lat="53.8507786" lon="-1.8492532"><ele>158.0</ele><time>2026-04-26T10:55:17.907Z</time></trkpt><trkpt lat="53.8507671" lon="-1.8489886"><ele>156.0</ele><time>2026-04-26T10:55:18.904Z</time></trkpt><trkpt lat="53.8507594" lon="-1.8487187"><ele>154.0</ele><time>2026-04-26T10:55:19.903Z</time></trkpt><trkpt lat="53.8507579" lon="-1.8484573"><ele>152.0</ele><time>2026-04-26T10:55:20.905Z</time></trkpt><trkpt lat="53.8507614" lon="-1.8481921"><ele>150.33333333333331</ele><time>2026-04-26T10:55:21.905Z</time></trkpt><trkpt lat="53.8507702" lon="-1.847923"><ele>148.66666666666666</ele><time>2026-04-26T10:55:22.904Z</time></trkpt><trkpt lat="53.8507809" lon="-1.8476496"><ele>147.0</ele><time>2026-04-26T10:55:23.909Z</time></trkpt><trkpt lat="53.8507932" lon="-1.847379"><ele>145.0</ele><time>2026-04-26T10:55:24.904Z</time></trkpt><trkpt lat="53.8508031" lon="-1.8471204"><ele>143.0</ele><time>2026-04-26T10:55:25.906Z</time></trkpt><trkpt lat="53.8508057" lon="-1.8468836"><ele>141.0</ele><time>2026-04-26T10:55:26.905Z</time></trkpt><trkpt lat="53.8507976" lon="-1.8466653"><ele>139.0</ele><time>2026-04-26T10:55:27.904Z</time></trkpt><trkpt lat="53.8507795" lon="-1.8464612"><ele>136.5</ele><time>2026-04-26T10:55:28.904Z</time></trkpt><trkpt lat="53.8507518" lon="-1.8462633"><ele>134.0</ele><time>2026-04-26T10:55:29.904Z</time></trkpt><trkpt lat="53.8507172" lon="-1.8460552"><ele>131.5</ele><time>2026-04-26T10:55:30.908Z</time></trkpt><trkpt lat="53.850684" lon="-1.8458393"><ele>129.0</ele><time>2026-04-26T10:55:31.906Z</time></trkpt><trkpt lat="53.85065" lon="-1.8456354"><ele>127.80000000000001</ele><time>2026-04-26T10:55:32.907Z</time></trkpt><trkpt lat="53.8506114" lon="-1.8454433"><ele>126.60000000000001</ele><time>2026-04-26T10:55:33.908Z</time></trkpt><trkpt lat="53.8505685" lon="-1.845271"><ele>125.4</ele><time>2026-04-26T10:55:34.906Z</time></trkpt><trkpt lat="53.8505236" lon="-1.845118"><ele>124.2</ele><time>2026-04-26T10:55:35.906Z</time></trkpt><trkpt lat="53.8504826" lon="-1.8449751"><ele>123.0</ele><time>2026-04-26T10:55:36.909Z</time></trkpt><trkpt lat="53.850438" lon="-1.8448227"><ele>121.80000000000001</ele><time>2026-04-26T10:55:37.906Z</time></trkpt><trkpt lat="53.850396" lon="-1.8446552"><ele>120.60000000000001</ele><time>2026-04-26T10:55:38.907Z</time></trkpt><trkpt lat="53.8503625" lon="-1.8444815"><ele>119.39999999999999</ele><time>2026-04-26T10:55:39.905Z</time></trkpt><trkpt lat="53.8503407" lon="-1.8443011"><ele>118.19999999999999</ele><time>2026-04-26T10:55:40.908Z</time></trkpt><trkpt lat="53.8503339" lon="-1.8441111"><ele>117.0</ele><time>2026-04-26T10:55:41.906Z</time></trkpt><trkpt lat="53.8503354" lon="-1.843912"><ele>115.0</ele><time>2026-04-26T10:55:42.906Z</time></trkpt><trkpt lat="53.8503428" lon="-1.8437135"><ele>112.99999999999999</ele><time>2026-04-26T10:55:43.907Z</time></trkpt><trkpt lat="53.8503429" lon="-1.8435432"><ele>110.99999999999999</ele><time>2026-04-26T10:55:44.903Z</time></trkpt><trkpt lat="53.8503254" lon="-1.8434061"><ele>109.0</ele><time>2026-04-26T10:55:45.905Z</time></trkpt><trkpt lat="53.8502736" lon="-1.8432963"><ele>107.0</ele><time>2026-04-26T10:55:46.906Z</time></trkpt><trkpt lat="53.850189" lon="-1.8432011"><ele>106.5</ele><time>2026-04-26T10:55:47.908Z</time></trkpt><trkpt lat="53.8500805" lon="-1.8430823"><ele>106.0</ele><time>2026-04-26T10:55:48.907Z</time></trkpt><trkpt lat="53.8499534" lon="-1.8429663"><ele>105.5</ele><time>2026-04-26T10:55:49.907Z</time></trkpt><trkpt lat="53.8498158" lon="-1.8428319"><ele>105.0</ele><time>2026-04-26T10:55:50.906Z</time></trkpt><trkpt lat="53.849679" lon="-1.8427041"><ele>103.8</ele><time>2026-04-26T10:55:51.904Z</time></trkpt><trkpt lat="53.8495573" lon="-1.8425966"><ele>102.6</ele><time>2026-04-26T10:55:52.899Z</time></trkpt><trkpt lat="53.849461" lon="-1.842513"><ele>101.4</ele><time>2026-04-26T10:55:53.901Z</time></trkpt><trkpt lat="53.849384" lon="-1.8424546"><ele>100.2</ele><time>2026-04-26T10:55:54.903Z</time></trkpt><trkpt lat="53.8492856" lon="-1.8423805"><ele>99.0</ele><time>2026-04-26T10:55:56.905Z</time></trkpt><trkpt lat="53.8492165" lon="-1.8423402"><ele>99.0</ele><time>2026-04-26T10:55:59.897Z</time></trkpt><trkpt lat="53.8492849" lon="-1.8422203"><ele>99.0</ele><time>2026-04-26T10:56:03.906Z</time></trkpt><trkpt lat="53.8493475" lon="-1.842197"><ele>99.0</ele><time>2026-04-26T10:56:04.907Z</time></trkpt><trkpt lat="53.8494315" lon="-1.842191"><ele>99.0</ele><time>2026-04-26T10:56:05.905Z</time></trkpt><trkpt lat="53.8495361" lon="-1.8421984"><ele>99.0</ele><time>2026-04-26T10:56:06.908Z</time></trkpt><trkpt lat="53.849659" lon="-1.8422223"><ele>97.0</ele><time>2026-04-26T10:56:07.899Z</time></trkpt><trkpt lat="53.8497856" lon="-1.8422584"><ele>95.0</ele><time>2026-04-26T10:56:08.905Z</time></trkpt><trkpt lat="53.8499015" lon="-1.8422868"><ele>93.0</ele><time>2026-04-26T10:56:09.901Z</time></trkpt><trkpt lat="53.8499965" lon="-1.8422893"><ele>91.0</ele><time>2026-04-26T10:56:10.902Z</time></trkpt><trkpt lat="53.8500716" lon="-1.8422522"><ele>89.0</ele><time>2026-04-26T10:56:11.903Z</time></trkpt><trkpt lat="53.8501266" lon="-1.8421836"><ele>87.66666666666667</ele><time>2026-04-26T10:56:12.904Z</time></trkpt><trkpt lat="53.8501884" lon="-1.8419941"><ele>86.33333333333334</ele><time>2026-04-26T10:56:14.903Z</time></trkpt><trkpt lat="53.8502235" lon="-1.8418785"><ele>85.0</ele><time>2026-04-26T10:56:15.904Z</time></trkpt><trkpt lat="53.8502633" lon="-1.8417539"><ele>83.66666666666667</ele><time>2026-04-26T10:56:16.903Z</time></trkpt><trkpt lat="53.8503019" lon="-1.8416284"><ele>82.33333333333333</ele><time>2026-04-26T10:56:17.903Z</time></trkpt><trkpt lat="53.8503426" lon="-1.8415285"><ele>81.0</ele><time>2026-04-26T10:56:18.905Z</time></trkpt><trkpt lat="53.8503997" lon="-1.8412969"><ele>81.0</ele><time>2026-04-26T10:56:40.901Z</time></trkpt><trkpt lat="53.8504554" lon="-1.8411443"><ele>81.0</ele><time>2026-04-26T10:56:41.909Z</time></trkpt><trkpt lat="53.8505051" lon="-1.8410115"><ele>81.0</ele><time>2026-04-26T10:56:42.91Z</time></trkpt><trkpt lat="53.8505401" lon="-1.84089"><ele>81.0</ele><time>2026-04-26T10:57:07.899Z</time></trkpt><trkpt lat="53.8506207" lon="-1.8407489"><ele>81.0</ele><time>2026-04-26T10:57:09.906Z</time></trkpt><trkpt lat="53.8506986" lon="-1.8405951"><ele>81.0</ele><time>2026-04-26T10:57:11.918Z</time></trkpt><trkpt lat="53.8507616" lon="-1.8405012"><ele>81.0</ele><time>2026-04-26T10:57:13.924Z</time></trkpt><trkpt lat="53.8508444" lon="-1.8404773"><ele>81.0</ele><time>2026-04-26T10:57:15.913Z</time></trkpt><trkpt lat="53.8509736" lon="-1.8405347"><ele>81.0</ele><time>2026-04-26T10:57:17.919Z</time></trkpt><trkpt lat="53.8510521" lon="-1.8405832"><ele>81.0</ele><time>2026-04-26T10:57:18.92Z</time></trkpt><trkpt lat="53.8511328" lon="-1.8406329"><ele>81.4</ele><time>2026-04-26T10:57:19.919Z</time></trkpt><trkpt lat="53.8512176" lon="-1.840679"><ele>81.8</ele><time>2026-04-26T10:57:20.914Z</time></trkpt><trkpt lat="53.8513072" lon="-1.8407265"><ele>82.2</ele><time>2026-04-26T10:57:21.921Z</time></trkpt><trkpt lat="53.8513993" lon="-1.8407751"><ele>82.60000000000001</ele><time>2026-04-26T10:57:22.92Z</time></trkpt><trkpt lat="53.8514916" lon="-1.8408272"><ele>83.0</ele><time>2026-04-26T10:57:23.922Z</time></trkpt><trkpt lat="53.8515836" lon="-1.8408801"><ele>83.0</ele><time>2026-04-26T10:57:24.92Z</time></trkpt><trkpt lat="53.8516764" lon="-1.8409357"><ele>83.0</ele><time>2026-04-26T10:57:25.915Z</time></trkpt><trkpt lat="53.8517704" lon="-1.8409973"><ele>83.0</ele><time>2026-04-26T10:57:26.922Z</time></trkpt><trkpt lat="53.8518688" lon="-1.8410537"><ele>83.0</ele><time>2026-04-26T10:57:27.923Z</time></trkpt><trkpt lat="53.8519714" lon="-1.841109"><ele>83.0</ele><time>2026-04-26T10:57:28.913Z</time></trkpt><trkpt lat="53.8520777" lon="-1.841166"><ele>84.0</ele><time>2026-04-26T10:57:29.904Z</time></trkpt><trkpt lat="53.8521843" lon="-1.8412216"><ele>85.0</ele><time>2026-04-26T10:57:30.905Z</time></trkpt><trkpt lat="53.8522881" lon="-1.8412746"><ele>86.0</ele><time>2026-04-26T10:57:31.908Z</time></trkpt><trkpt lat="53.8523931" lon="-1.8413278"><ele>87.0</ele><time>2026-04-26T10:57:32.906Z</time></trkpt><trkpt lat="53.8524996" lon="-1.841384"><ele>88.0</ele><time>2026-04-26T10:57:33.908Z</time></trkpt><trkpt lat="53.8526104" lon="-1.8414376"><ele>87.60000000000001</ele><time>2026-04-26T10:57:34.907Z</time></trkpt><trkpt lat="53.8527194" lon="-1.841491"><ele>87.2</ele><time>2026-04-26T10:57:35.904Z</time></trkpt><trkpt lat="53.8528296" lon="-1.8415442"><ele>86.8</ele><time>2026-04-26T10:57:36.904Z</time></trkpt><trkpt lat="53.8529346" lon="-1.8415942"><ele>86.4</ele><time>2026-04-26T10:57:37.903Z</time></trkpt><trkpt lat="53.8530403" lon="-1.8416375"><ele>86.0</ele><time>2026-04-26T10:57:38.908Z</time></trkpt><trkpt lat="53.8531481" lon="-1.841678"><ele>86.0</ele><time>2026-04-26T10:57:39.905Z</time></trkpt><trkpt lat="53.8532546" lon="-1.8417161"><ele>86.0</ele><time>2026-04-26T10:57:40.905Z</time></trkpt><trkpt lat="53.8533595" lon="-1.8417561"><ele>86.0</ele><time>2026-04-26T10:57:41.904Z</time></trkpt><trkpt lat="53.8534645" lon="-1.841813"><ele>86.0</ele><time>2026-04-26T10:57:42.906Z</time></trkpt><trkpt lat="53.8535658" lon="-1.841897"><ele>86.0</ele><time>2026-04-26T10:57:43.907Z</time></trkpt><trkpt lat="53.853664" lon="-1.8420124"><ele>86.25</ele><time>2026-04-26T10:57:44.908Z</time></trkpt><trkpt lat="53.8537546" lon="-1.8421567"><ele>86.5</ele><time>2026-04-26T10:57:45.906Z</time></trkpt><trkpt lat="53.8538335" lon="-1.8423248"><ele>86.75</ele><time>2026-04-26T10:57:46.909Z</time></trkpt><trkpt lat="53.8539021" lon="-1.8425044"><ele>87.0</ele><time>2026-04-26T10:57:47.905Z</time></trkpt><trkpt lat="53.8539677" lon="-1.8426672"><ele>86.8</ele><time>2026-04-26T10:57:48.91Z</time></trkpt><trkpt lat="53.8540391" lon="-1.8428024"><ele>86.6</ele><time>2026-04-26T10:57:49.912Z</time></trkpt><trkpt lat="53.8541236" lon="-1.842922"><ele>86.39999999999999</ele><time>2026-04-26T10:57:50.901Z</time></trkpt><trkpt lat="53.8542201" lon="-1.8430232"><ele>86.19999999999999</ele><time>2026-04-26T10:57:51.908Z</time></trkpt><trkpt lat="53.8543261" lon="-1.8431135"><ele>86.0</ele><time>2026-04-26T10:57:52.911Z</time></trkpt><trkpt lat="53.8544344" lon="-1.8431972"><ele>86.0</ele><time>2026-04-26T10:57:53.912Z</time></trkpt><trkpt lat="53.8545497" lon="-1.8432884"><ele>86.0</ele><time>2026-04-26T10:57:54.91Z</time></trkpt><trkpt lat="53.8546595" lon="-1.8433958"><ele>86.0</ele><time>2026-04-26T10:57:55.903Z</time></trkpt><trkpt lat="53.8547669" lon="-1.8435137"><ele>86.0</ele><time>2026-04-26T10:57:56.909Z</time></trkpt><trkpt lat="53.8548721" lon="-1.8436363"><ele>85.75</ele><time>2026-04-26T10:57:57.909Z</time></trkpt><trkpt lat="53.8549727" lon="-1.8437627"><ele>85.5</ele><time>2026-04-26T10:57:58.909Z</time></trkpt><trkpt lat="53.8550754" lon="-1.843891"><ele>85.25</ele><time>2026-04-26T10:57:59.909Z</time></trkpt><trkpt lat="53.8551776" lon="-1.8440294"><ele>85.0</ele><time>2026-04-26T10:58:00.909Z</time></trkpt><trkpt lat="53.8552752" lon="-1.8441662"><ele>87.0</ele><time>2026-04-26T10:58:01.906Z</time></trkpt><trkpt lat="53.855375" lon="-1.8442976"><ele>89.0</ele><time>2026-04-26T10:58:02.907Z</time></trkpt><trkpt lat="53.8554753" lon="-1.8444316"><ele>91.0</ele><time>2026-04-26T10:58:03.906Z</time></trkpt><trkpt lat="53.8555744" lon="-1.844575"><ele>93.0</ele><time>2026-04-26T10:58:04.908Z</time></trkpt><trkpt lat="53.8556728" lon="-1.8447177"><ele>93.0</ele><time>2026-04-26T10:58:05.907Z</time></trkpt><trkpt lat="53.8557692" lon="-1.8448602"><ele>93.0</ele><time>2026-04-26T10:58:06.908Z</time></trkpt><trkpt lat="53.855862" lon="-1.8449913"><ele>93.0</ele><time>2026-04-26T10:58:07.908Z</time></trkpt><trkpt lat="53.8559593" lon="-1.8451047"><ele>93.0</ele><time>2026-04-26T10:58:08.908Z</time></trkpt><trkpt lat="53.8560687" lon="-1.8451965"><ele>93.75</ele><time>2026-04-26T10:58:09.907Z</time></trkpt><trkpt lat="53.8561864" lon="-1.8452625"><ele>94.5</ele><time>2026-04-26T10:58:10.906Z</time></trkpt><trkpt lat="53.8563031" lon="-1.8453046"><ele>95.25</ele><time>2026-04-26T10:58:11.904Z</time></trkpt><trkpt lat="53.8564108" lon="-1.8453301"><ele>96.0</ele><time>2026-04-26T10:58:12.905Z</time></trkpt><trkpt lat="53.8565083" lon="-1.8453446"><ele>96.0</ele><time>2026-04-26T10:58:13.91Z</time></trkpt><trkpt lat="53.8565956" lon="-1.8453508"><ele>96.0</ele><time>2026-04-26T10:58:14.905Z</time></trkpt><trkpt lat="53.856674" lon="-1.8453619"><ele>96.0</ele><time>2026-04-26T10:58:15.906Z</time></trkpt><trkpt lat="53.8567537" lon="-1.8453822"><ele>96.0</ele><time>2026-04-26T10:58:16.908Z</time></trkpt><trkpt lat="53.8568408" lon="-1.8454153"><ele>96.0</ele><time>2026-04-26T10:58:17.908Z</time></trkpt><trkpt lat="53.8569274" lon="-1.8454628"><ele>96.0</ele><time>2026-04-26T10:58:18.906Z</time></trkpt><trkpt lat="53.8570126" lon="-1.8455229"><ele>94.6</ele><time>2026-04-26T10:58:19.907Z</time></trkpt><trkpt lat="53.8571023" lon="-1.8455906"><ele>93.19999999999999</ele><time>2026-04-26T10:58:20.907Z</time></trkpt><trkpt lat="53.8571987" lon="-1.8456698"><ele>91.80000000000001</ele><time>2026-04-26T10:58:21.907Z</time></trkpt><trkpt lat="53.8573002" lon="-1.8457548"><ele>90.4</ele><time>2026-04-26T10:58:22.906Z</time></trkpt><trkpt lat="53.857407" lon="-1.8458422"><ele>89.0</ele><time>2026-04-26T10:58:23.906Z</time></trkpt><trkpt lat="53.857522" lon="-1.8459084"><ele>89.0</ele><time>2026-04-26T10:58:24.907Z</time></trkpt><trkpt lat="53.8576483" lon="-1.8459405"><ele>89.0</ele><time>2026-04-26T10:58:25.906Z</time></trkpt><trkpt lat="53.8577757" lon="-1.845944"><ele>89.0</ele><time>2026-04-26T10:58:26.906Z</time></trkpt><trkpt lat="53.8578977" lon="-1.8459271"><ele>89.0</ele><time>2026-04-26T10:58:27.904Z</time></trkpt><trkpt lat="53.8580148" lon="-1.8459047"><ele>89.0</ele><time>2026-04-26T10:58:28.904Z</time></trkpt><trkpt lat="53.8581309" lon="-1.8458883"><ele>89.0</ele><time>2026-04-26T10:58:29.906Z</time></trkpt><trkpt lat="53.858246" lon="-1.8458746"><ele>89.0</ele><time>2026-04-26T10:58:30.908Z</time></trkpt><trkpt lat="53.8583574" lon="-1.8458618"><ele>89.0</ele><time>2026-04-26T10:58:31.901Z</time></trkpt><trkpt lat="53.8584631" lon="-1.8458488"><ele>89.0</ele><time>2026-04-26T10:58:32.906Z</time></trkpt><trkpt lat="53.8585654" lon="-1.8458326"><ele>88.80000000000001</ele><time>2026-04-26T10:58:33.91Z</time></trkpt><trkpt lat="53.858667" lon="-1.8458157"><ele>88.60000000000001</ele><time>2026-04-26T10:58:34.906Z</time></trkpt><trkpt lat="53.8587701" lon="-1.8458003"><ele>88.4</ele><time>2026-04-26T10:58:35.907Z</time></trkpt><trkpt lat="53.858877" lon="-1.8457907"><ele>88.2</ele><time>2026-04-26T10:58:36.905Z</time></trkpt><trkpt lat="53.8589857" lon="-1.8457829"><ele>88.0</ele><time>2026-04-26T10:58:37.905Z</time></trkpt><trkpt lat="53.8590934" lon="-1.8457701"><ele>88.0</ele><time>2026-04-26T10:58:38.907Z</time></trkpt><trkpt lat="53.8592028" lon="-1.8457501"><ele>88.0</ele><time>2026-04-26T10:58:39.906Z</time></trkpt><trkpt lat="53.8593139" lon="-1.8457245"><ele>88.0</ele><time>2026-04-26T10:58:40.905Z</time></trkpt><trkpt lat="53.8594243" lon="-1.845698"><ele>88.0</ele><time>2026-04-26T10:58:41.904Z</time></trkpt><trkpt lat="53.8595333" lon="-1.8456681"><ele>88.0</ele><time>2026-04-26T10:58:42.907Z</time></trkpt><trkpt lat="53.8596428" lon="-1.8456348"><ele>88.5</ele><time>2026-04-26T10:58:43.909Z</time></trkpt><trkpt lat="53.8597534" lon="-1.8455969"><ele>89.0</ele><time>2026-04-26T10:58:44.907Z</time></trkpt><trkpt lat="53.8598649" lon="-1.8455534"><ele>89.5</ele><time>2026-04-26T10:58:45.903Z</time></trkpt><trkpt lat="53.8599797" lon="-1.8455066"><ele>90.0</ele><time>2026-04-26T10:58:46.906Z</time></trkpt><trkpt lat="53.860096" lon="-1.8454644"><ele>90.75</ele><time>2026-04-26T10:58:47.907Z</time></trkpt><trkpt lat="53.860214" lon="-1.8454317"><ele>91.5</ele><time>2026-04-26T10:58:48.906Z</time></trkpt><trkpt lat="53.8603288" lon="-1.8454034"><ele>92.25</ele><time>2026-04-26T10:58:49.907Z</time></trkpt><trkpt lat="53.8604378" lon="-1.8453838"><ele>93.0</ele><time>2026-04-26T10:58:50.903Z</time></trkpt><trkpt lat="53.8605475" lon="-1.8453837"><ele>93.0</ele><time>2026-04-26T10:58:51.896Z</time></trkpt><trkpt lat="53.8606558" lon="-1.8454052"><ele>93.0</ele><time>2026-04-26T10:58:52.906Z</time></trkpt><trkpt lat="53.8607619" lon="-1.8454498"><ele>93.0</ele><time>2026-04-26T10:58:53.904Z</time></trkpt><trkpt lat="53.8608583" lon="-1.8455191"><ele>93.0</ele><time>2026-04-26T10:58:54.907Z</time></trkpt><trkpt lat="53.8609373" lon="-1.8455943"><ele>93.0</ele><time>2026-04-26T10:58:55.896Z</time></trkpt><trkpt lat="53.8610064" lon="-1.8456583"><ele>93.0</ele><time>2026-04-26T10:58:56.906Z</time></trkpt><trkpt lat="53.8610672" lon="-1.8456942"><ele>93.0</ele><time>2026-04-26T10:58:57.906Z</time></trkpt><trkpt lat="53.8611373" lon="-1.8456863"><ele>93.0</ele><time>2026-04-26T10:58:58.907Z</time></trkpt><trkpt lat="53.8612089" lon="-1.8456107"><ele>93.0</ele><time>2026-04-26T10:58:59.906Z</time></trkpt><trkpt lat="53.8612762" lon="-1.8454664"><ele>93.0</ele><time>2026-04-26T10:59:00.904Z</time></trkpt><trkpt lat="53.8613503" lon="-1.8453166"><ele>93.0</ele><time>2026-04-26T10:59:01.907Z</time></trkpt><trkpt lat="53.8614303" lon="-1.8451711"><ele>94.25</ele><time>2026-04-26T10:59:02.908Z</time></trkpt><trkpt lat="53.8615161" lon="-1.8450254"><ele>95.5</ele><time>2026-04-26T10:59:03.916Z</time></trkpt><trkpt lat="53.8616127" lon="-1.8448954"><ele>96.75</ele><time>2026-04-26T10:59:04.911Z</time></trkpt><trkpt lat="53.8617107" lon="-1.8447704"><ele>98.0</ele><time>2026-04-26T10:59:05.904Z</time></trkpt><trkpt lat="53.8618091" lon="-1.8446472"><ele>99.0</ele><time>2026-04-26T10:59:06.907Z</time></trkpt><trkpt lat="53.861909" lon="-1.8445285"><ele>100.0</ele><time>2026-04-26T10:59:07.909Z</time></trkpt><trkpt lat="53.8620106" lon="-1.8444068"><ele>101.0</ele><time>2026-04-26T10:59:08.906Z</time></trkpt><trkpt lat="53.8621133" lon="-1.8442835"><ele>102.0</ele><time>2026-04-26T10:59:09.906Z</time></trkpt><trkpt lat="53.8622031" lon="-1.8441766"><ele>102.66666666666667</ele><time>2026-04-26T10:59:10.907Z</time></trkpt><trkpt lat="53.8622816" lon="-1.8440859"><ele>103.33333333333334</ele><time>2026-04-26T10:59:11.904Z</time></trkpt><trkpt lat="53.862349" lon="-1.8440065"><ele>104.0</ele><time>2026-04-26T10:59:12.905Z</time></trkpt><trkpt lat="53.8624121" lon="-1.8439379"><ele>104.66666666666667</ele><time>2026-04-26T10:59:13.908Z</time></trkpt><trkpt lat="53.8624826" lon="-1.8438764"><ele>105.33333333333334</ele><time>2026-04-26T10:59:14.907Z</time></trkpt><trkpt lat="53.8625581" lon="-1.8438241"><ele>106.0</ele><time>2026-04-26T10:59:15.905Z</time></trkpt><trkpt lat="53.8626397" lon="-1.8437743"><ele>106.6</ele><time>2026-04-26T10:59:16.905Z</time></trkpt><trkpt lat="53.862732" lon="-1.8437284"><ele>107.19999999999999</ele><time>2026-04-26T10:59:17.904Z</time></trkpt><trkpt lat="53.86283" lon="-1.8436783"><ele>107.80000000000001</ele><time>2026-04-26T10:59:18.904Z</time></trkpt><trkpt lat="53.8629382" lon="-1.8436216"><ele>108.4</ele><time>2026-04-26T10:59:19.906Z</time></trkpt><trkpt lat="53.863049" lon="-1.8435586"><ele>109.0</ele><time>2026-04-26T10:59:20.909Z</time></trkpt><trkpt lat="53.8631623" lon="-1.8434994"><ele>109.6</ele><time>2026-04-26T10:59:21.906Z</time></trkpt><trkpt lat="53.8632759" lon="-1.8434444"><ele>110.2</ele><time>2026-04-26T10:59:22.899Z</time></trkpt><trkpt lat="53.8633862" lon="-1.8433969"><ele>110.79999999999998</ele><time>2026-04-26T10:59:23.913Z</time></trkpt><trkpt lat="53.8634876" lon="-1.8433629"><ele>111.39999999999999</ele><time>2026-04-26T10:59:24.908Z</time></trkpt><trkpt lat="53.8635735" lon="-1.8433442"><ele>112.0</ele><time>2026-04-26T10:59:25.906Z</time></trkpt><trkpt lat="53.8636507" lon="-1.8433334"><ele>112.8</ele><time>2026-04-26T10:59:26.906Z</time></trkpt><trkpt lat="53.8637299" lon="-1.8433319"><ele>113.6</ele><time>2026-04-26T10:59:27.906Z</time></trkpt><trkpt lat="53.8638161" lon="-1.8433344"><ele>114.39999999999999</ele><time>2026-04-26T10:59:28.907Z</time></trkpt><trkpt lat="53.8639077" lon="-1.8433315"><ele>115.19999999999999</ele><time>2026-04-26T10:59:29.905Z</time></trkpt><trkpt lat="53.8640016" lon="-1.843325"><ele>116.0</ele><time>2026-04-26T10:59:30.904Z</time></trkpt><trkpt lat="53.8641071" lon="-1.8433238"><ele>116.0</ele><time>2026-04-26T10:59:31.905Z</time></trkpt><trkpt lat="53.8642196" lon="-1.8433244"><ele>116.0</ele><time>2026-04-26T10:59:32.905Z</time></trkpt><trkpt lat="53.8643352" lon="-1.8433251"><ele>116.0</ele><time>2026-04-26T10:59:33.912Z</time></trkpt><trkpt lat="53.8644526" lon="-1.843322"><ele>116.0</ele><time>2026-04-26T10:59:34.909Z</time></trkpt><trkpt lat="53.8645731" lon="-1.843308"><ele>117.5</ele><time>2026-04-26T10:59:35.906Z</time></trkpt><trkpt lat="53.864695" lon="-1.8432838"><ele>119.0</ele><time>2026-04-26T10:59:36.906Z</time></trkpt><trkpt lat="53.8648172" lon="-1.8432568"><ele>120.5</ele><time>2026-04-26T10:59:37.906Z</time></trkpt><trkpt lat="53.8649398" lon="-1.8432249"><ele>122.0</ele><time>2026-04-26T10:59:38.906Z</time></trkpt><trkpt lat="53.8650639" lon="-1.8431746"><ele>123.75</ele><time>2026-04-26T10:59:39.905Z</time></trkpt><trkpt lat="53.8651926" lon="-1.8431122"><ele>125.5</ele><time>2026-04-26T10:59:40.905Z</time></trkpt><trkpt lat="53.865323" lon="-1.8430496"><ele>127.25</ele><time>2026-04-26T10:59:41.905Z</time></trkpt><trkpt lat="53.865448" lon="-1.842997"><ele>129.0</ele><time>2026-04-26T10:59:42.905Z</time></trkpt><trkpt lat="53.865573" lon="-1.8429589"><ele>129.0</ele><time>2026-04-26T10:59:43.908Z</time></trkpt><trkpt lat="53.8656998" lon="-1.8429307"><ele>129.0</ele><time>2026-04-26T10:59:44.905Z</time></trkpt><trkpt lat="53.8658256" lon="-1.8429066"><ele>129.0</ele><time>2026-04-26T10:59:45.904Z</time></trkpt><trkpt lat="53.8659485" lon="-1.8428867"><ele>129.0</ele><time>2026-04-26T10:59:46.905Z</time></trkpt><trkpt lat="53.8660661" lon="-1.8428688"><ele>129.8</ele><time>2026-04-26T10:59:47.904Z</time></trkpt><trkpt lat="53.8661767" lon="-1.8428505"><ele>130.60000000000002</ele><time>2026-04-26T10:59:48.908Z</time></trkpt><trkpt lat="53.8662791" lon="-1.8428341"><ele>131.4</ele><time>2026-04-26T10:59:49.904Z</time></trkpt><trkpt lat="53.8663704" lon="-1.8428239"><ele>132.20000000000002</ele><time>2026-04-26T10:59:50.904Z</time></trkpt><trkpt lat="53.8664561" lon="-1.8428263"><ele>133.0</ele><time>2026-04-26T10:59:51.904Z</time></trkpt><trkpt lat="53.8665458" lon="-1.8428516"><ele>133.0</ele><time>2026-04-26T10:59:52.904Z</time></trkpt><trkpt lat="53.8666394" lon="-1.8428954"><ele>133.0</ele><time>2026-04-26T10:59:53.908Z</time></trkpt><trkpt lat="53.8667309" lon="-1.842954"><ele>133.0</ele><time>2026-04-26T10:59:54.905Z</time></trkpt><trkpt lat="53.8668099" lon="-1.8430202"><ele>133.0</ele><time>2026-04-26T10:59:55.906Z</time></trkpt><trkpt lat="53.8668786" lon="-1.8430997"><ele>133.0</ele><time>2026-04-26T10:59:56.907Z</time></trkpt><trkpt lat="53.866943" lon="-1.8431937"><ele>133.83333333333334</ele><time>2026-04-26T10:59:57.905Z</time></trkpt><trkpt lat="53.8670066" lon="-1.8432843"><ele>134.66666666666669</ele><time>2026-04-26T10:59:58.905Z</time></trkpt><trkpt lat="53.8670817" lon="-1.8433483"><ele>135.5</ele><time>2026-04-26T10:59:59.905Z</time></trkpt><trkpt lat="53.8671681" lon="-1.8433716"><ele>136.33333333333334</ele><time>2026-04-26T11:00:00.906Z</time></trkpt><trkpt lat="53.8672622" lon="-1.8433589"><ele>137.16666666666666</ele><time>2026-04-26T11:00:01.889Z</time></trkpt><trkpt lat="53.8673587" lon="-1.8433278"><ele>138.0</ele><time>2026-04-26T11:00:02.889Z</time></trkpt><trkpt lat="53.8674497" lon="-1.8432832"><ele>138.0</ele><time>2026-04-26T11:00:03.904Z</time></trkpt><trkpt lat="53.8675372" lon="-1.843235"><ele>138.0</ele><time>2026-04-26T11:00:04.901Z</time></trkpt><trkpt lat="53.867623" lon="-1.843185"><ele>138.0</ele><time>2026-04-26T11:00:05.899Z</time></trkpt><trkpt lat="53.867711" lon="-1.8431412"><ele>138.0</ele><time>2026-04-26T11:00:06.9Z</time></trkpt><trkpt lat="53.8677963" lon="-1.8431076"><ele>138.0</ele><time>2026-04-26T11:00:07.899Z</time></trkpt><trkpt lat="53.8678823" lon="-1.8430838"><ele>138.0</ele><time>2026-04-26T11:00:08.9Z</time></trkpt><trkpt lat="53.8679705" lon="-1.8430741"><ele>138.6</ele><time>2026-04-26T11:00:09.899Z</time></trkpt><trkpt lat="53.8680612" lon="-1.8430857"><ele>139.20000000000002</ele><time>2026-04-26T11:00:10.9Z</time></trkpt><trkpt lat="53.8681584" lon="-1.8431166"><ele>139.8</ele><time>2026-04-26T11:00:11.905Z</time></trkpt><trkpt lat="53.8682593" lon="-1.8431661"><ele>140.4</ele><time>2026-04-26T11:00:12.904Z</time></trkpt><trkpt lat="53.8683593" lon="-1.8432228"><ele>141.0</ele><time>2026-04-26T11:00:13.905Z</time></trkpt><trkpt lat="53.8684603" lon="-1.8432858"><ele>141.0</ele><time>2026-04-26T11:00:14.903Z</time></trkpt><trkpt lat="53.8685606" lon="-1.8433508"><ele>141.0</ele><time>2026-04-26T11:00:15.904Z</time></trkpt><trkpt lat="53.8686544" lon="-1.8434153"><ele>141.0</ele><time>2026-04-26T11:00:16.898Z</time></trkpt><trkpt lat="53.8687456" lon="-1.8434814"><ele>141.0</ele><time>2026-04-26T11:00:17.903Z</time></trkpt><trkpt lat="53.8688408" lon="-1.8435312"><ele>141.0</ele><time>2026-04-26T11:00:18.904Z</time></trkpt><trkpt lat="53.8689434" lon="-1.8435501"><ele>141.0</ele><time>2026-04-26T11:00:19.904Z</time></trkpt><trkpt lat="53.8690528" lon="-1.8435467"><ele>141.0</ele><time>2026-04-26T11:00:20.905Z</time></trkpt><trkpt lat="53.869168" lon="-1.8435387"><ele>141.0</ele><time>2026-04-26T11:00:21.905Z</time></trkpt><trkpt lat="53.8692841" lon="-1.8435394"><ele>141.0</ele><time>2026-04-26T11:00:22.904Z</time></trkpt><trkpt lat="53.8693964" lon="-1.8435572"><ele>142.4</ele><time>2026-04-26T11:00:23.905Z</time></trkpt><trkpt lat="53.869502" lon="-1.8435976"><ele>143.8</ele><time>2026-04-26T11:00:24.904Z</time></trkpt><trkpt lat="53.8696021" lon="-1.8436541"><ele>145.20000000000002</ele><time>2026-04-26T11:00:25.903Z</time></trkpt><trkpt lat="53.8696932" lon="-1.8437113"><ele>146.6</ele><time>2026-04-26T11:00:26.905Z</time></trkpt><trkpt lat="53.8697749" lon="-1.843763"><ele>148.0</ele><time>2026-04-26T11:00:27.902Z</time></trkpt><trkpt lat="53.8698523" lon="-1.8438075"><ele>148.0</ele><time>2026-04-26T11:00:28.893Z</time></trkpt><trkpt lat="53.8699273" lon="-1.8438341"><ele>148.0</ele><time>2026-04-26T11:00:29.904Z</time></trkpt><trkpt lat="53.8700036" lon="-1.8438352"><ele>148.0</ele><time>2026-04-26T11:00:30.904Z</time></trkpt><trkpt lat="53.8700824" lon="-1.8438092"><ele>148.0</ele><time>2026-04-26T11:00:31.9Z</time></trkpt><trkpt lat="53.8701502" lon="-1.8437451"><ele>148.0</ele><time>2026-04-26T11:00:32.9Z</time></trkpt><trkpt lat="53.8701993" lon="-1.843628"><ele>148.0</ele><time>2026-04-26T11:00:33.899Z</time></trkpt><trkpt lat="53.8702228" lon="-1.8434818"><ele>149.33333333333334</ele><time>2026-04-26T11:00:34.9Z</time></trkpt><trkpt lat="53.8702168" lon="-1.8433277"><ele>150.66666666666669</ele><time>2026-04-26T11:00:35.893Z</time></trkpt><trkpt lat="53.870183" lon="-1.8431848"><ele>152.0</ele><time>2026-04-26T11:00:36.899Z</time></trkpt><trkpt lat="53.8701346" lon="-1.8430599"><ele>153.33333333333334</ele><time>2026-04-26T11:00:37.897Z</time></trkpt><trkpt lat="53.8701039" lon="-1.8429635"><ele>154.66666666666666</ele><time>2026-04-26T11:00:38.893Z</time></trkpt><trkpt lat="53.8701968" lon="-1.8429146"><ele>156.0</ele><time>2026-04-26T11:00:40.903Z</time></trkpt><trkpt lat="53.8702793" lon="-1.8429458"><ele>158.0</ele><time>2026-04-26T11:00:41.903Z</time></trkpt><trkpt lat="53.8703736" lon="-1.843001"><ele>160.0</ele><time>2026-04-26T11:00:42.904Z</time></trkpt><trkpt lat="53.8704701" lon="-1.8430497"><ele>162.0</ele><time>2026-04-26T11:00:43.904Z</time></trkpt><trkpt lat="53.8705697" lon="-1.8430835"><ele>164.0</ele><time>2026-04-26T11:00:44.902Z</time></trkpt><trkpt lat="53.8706664" lon="-1.8431007"><ele>166.0</ele><time>2026-04-26T11:00:45.903Z</time></trkpt><trkpt lat="53.8707616" lon="-1.8431022"><ele>166.0</ele><time>2026-04-26T11:00:46.904Z</time></trkpt><trkpt lat="53.8708581" lon="-1.8430916"><ele>166.0</ele><time>2026-04-26T11:00:47.907Z</time></trkpt><trkpt lat="53.8709542" lon="-1.8430841"><ele>166.0</ele><time>2026-04-26T11:00:48.907Z</time></trkpt><trkpt lat="53.8710515" lon="-1.8430894"><ele>166.0</ele><time>2026-04-26T11:00:49.909Z</time></trkpt><trkpt lat="53.8711457" lon="-1.8431034"><ele>166.0</ele><time>2026-04-26T11:00:50.907Z</time></trkpt><trkpt lat="53.8712337" lon="-1.8431083"><ele>166.83333333333334</ele><time>2026-04-26T11:00:51.909Z</time></trkpt><trkpt lat="53.8713088" lon="-1.8431065"><ele>167.66666666666669</ele><time>2026-04-26T11:00:52.908Z</time></trkpt><trkpt lat="53.8714162" lon="-1.8430888"><ele>168.5</ele><time>2026-04-26T11:00:54.911Z</time></trkpt><trkpt lat="53.8714651" lon="-1.8429927"><ele>169.33333333333334</ele><time>2026-04-26T11:01:53.902Z</time></trkpt><trkpt lat="53.8715248" lon="-1.8429537"><ele>170.16666666666666</ele><time>2026-04-26T11:01:54.902Z</time></trkpt><trkpt lat="53.8715956" lon="-1.8429112"><ele>171.0</ele><time>2026-04-26T11:01:55.9Z</time></trkpt><trkpt lat="53.8716738" lon="-1.842861"><ele>171.0</ele><time>2026-04-26T11:01:56.898Z</time></trkpt><trkpt lat="53.8717551" lon="-1.8428049"><ele>171.0</ele><time>2026-04-26T11:01:57.901Z</time></trkpt><trkpt lat="53.8718407" lon="-1.8427479"><ele>171.0</ele><time>2026-04-26T11:01:58.9Z</time></trkpt><trkpt lat="53.8719314" lon="-1.8426877"><ele>171.0</ele><time>2026-04-26T11:01:59.901Z</time></trkpt><trkpt lat="53.8720239" lon="-1.8426241"><ele>171.0</ele><time>2026-04-26T11:02:00.9Z</time></trkpt><trkpt lat="53.8721189" lon="-1.8425641"><ele>174.5</ele><time>2026-04-26T11:02:01.902Z</time></trkpt><trkpt lat="53.8722201" lon="-1.8425037"><ele>178.0</ele><time>2026-04-26T11:02:02.902Z</time></trkpt><trkpt lat="53.8723263" lon="-1.842431"><ele>181.5</ele><time>2026-04-26T11:02:03.904Z</time></trkpt><trkpt lat="53.8724304" lon="-1.8423428"><ele>185.0</ele><time>2026-04-26T11:02:04.903Z</time></trkpt><trkpt lat="53.8725339" lon="-1.8422498"><ele>185.25</ele><time>2026-04-26T11:02:05.904Z</time></trkpt><trkpt lat="53.8726429" lon="-1.8421656"><ele>185.5</ele><time>2026-04-26T11:02:06.9Z</time></trkpt><trkpt lat="53.8727581" lon="-1.8421026"><ele>185.75</ele><time>2026-04-26T11:02:07.898Z</time></trkpt><trkpt lat="53.8728756" lon="-1.8420611"><ele>186.0</ele><time>2026-04-26T11:02:08.901Z</time></trkpt><trkpt lat="53.8729825" lon="-1.8420155"><ele>186.0</ele><time>2026-04-26T11:02:09.899Z</time></trkpt><trkpt lat="53.8730825" lon="-1.8419445"><ele>186.0</ele><time>2026-04-26T11:02:10.897Z</time></trkpt><trkpt lat="53.8731739" lon="-1.841844"><ele>186.0</ele><time>2026-04-26T11:02:11.899Z</time></trkpt><trkpt lat="53.8732545" lon="-1.8417335"><ele>186.0</ele><time>2026-04-26T11:02:12.89Z</time></trkpt><trkpt lat="53.8733398" lon="-1.8416283"><ele>186.0</ele><time>2026-04-26T11:02:13.901Z</time></trkpt><trkpt lat="53.8734229" lon="-1.8415272"><ele>189.0</ele><time>2026-04-26T11:02:14.9Z</time></trkpt><trkpt lat="53.8734989" lon="-1.8414373"><ele>192.0</ele><time>2026-04-26T11:02:15.899Z</time></trkpt><trkpt lat="53.8735727" lon="-1.8413513"><ele>195.0</ele><time>2026-04-26T11:02:16.901Z</time></trkpt><trkpt lat="53.8736455" lon="-1.8412688"><ele>198.0</ele><time>2026-04-26T11:02:17.896Z</time></trkpt><trkpt lat="53.8737202" lon="-1.8411855"><ele>201.0</ele><time>2026-04-26T11:02:18.9Z</time></trkpt><trkpt lat="53.8738036" lon="-1.8411063"><ele>201.0</ele><time>2026-04-26T11:02:19.898Z</time></trkpt><trkpt lat="53.8738992" lon="-1.8410334"><ele>201.0</ele><time>2026-04-26T11:02:20.899Z</time></trkpt><trkpt lat="53.873999" lon="-1.8409803"><ele>201.0</ele><time>2026-04-26T11:02:21.901Z</time></trkpt><trkpt lat="53.8740964" lon="-1.8409347"><ele>201.0</ele><time>2026-04-26T11:02:22.892Z</time></trkpt><trkpt lat="53.8741874" lon="-1.840899"><ele>201.0</ele><time>2026-04-26T11:02:23.909Z</time></trkpt><trkpt lat="53.8742802" lon="-1.8408726"><ele>203.60000000000002</ele><time>2026-04-26T11:02:24.904Z</time></trkpt><trkpt lat="53.874375" lon="-1.8408492"><ele>206.2</ele><time>2026-04-26T11:02:25.899Z</time></trkpt><trkpt lat="53.8744801" lon="-1.8408308"><ele>208.79999999999998</ele><time>2026-04-26T11:02:26.899Z</time></trkpt><trkpt lat="53.8745907" lon="-1.8408261"><ele>211.39999999999998</ele><time>2026-04-26T11:02:27.9Z</time></trkpt><trkpt lat="53.8747064" lon="-1.8408376"><ele>214.0</ele><time>2026-04-26T11:02:28.9Z</time></trkpt><trkpt lat="53.8748241" lon="-1.8408554"><ele>214.0</ele><time>2026-04-26T11:02:29.898Z</time></trkpt><trkpt lat="53.8749473" lon="-1.8408677"><ele>214.0</ele><time>2026-04-26T11:02:30.9Z</time></trkpt><trkpt lat="53.8750753" lon="-1.8408808"><ele>214.0</ele><time>2026-04-26T11:02:31.896Z</time></trkpt><trkpt lat="53.8752052" lon="-1.8408968"><ele>214.0</ele><time>2026-04-26T11:02:32.896Z</time></trkpt><trkpt lat="53.875337" lon="-1.8409055"><ele>214.25</ele><time>2026-04-26T11:02:33.903Z</time></trkpt><trkpt lat="53.8754683" lon="-1.8409113"><ele>214.5</ele><time>2026-04-26T11:02:34.899Z</time></trkpt><trkpt lat="53.8756024" lon="-1.8409159"><ele>214.75</ele><time>2026-04-26T11:02:35.9Z</time></trkpt><trkpt lat="53.875733" lon="-1.8409199"><ele>215.0</ele><time>2026-04-26T11:02:36.901Z</time></trkpt><trkpt lat="53.8758501" lon="-1.8409213"><ele>215.8</ele><time>2026-04-26T11:02:37.898Z</time></trkpt><trkpt lat="53.8759603" lon="-1.8409167"><ele>216.6</ele><time>2026-04-26T11:02:38.9Z</time></trkpt><trkpt lat="53.876068" lon="-1.8409112"><ele>217.39999999999998</ele><time>2026-04-26T11:02:39.899Z</time></trkpt><trkpt lat="53.8761635" lon="-1.8409021"><ele>218.2</ele><time>2026-04-26T11:02:40.897Z</time></trkpt><trkpt lat="53.8762412" lon="-1.84088"><ele>219.0</ele><time>2026-04-26T11:02:41.902Z</time></trkpt><trkpt lat="53.8763093" lon="-1.8408485"><ele>219.0</ele><time>2026-04-26T11:02:42.9Z</time></trkpt><trkpt lat="53.8763799" lon="-1.8407938"><ele>218.99999999999997</ele><time>2026-04-26T11:02:44.902Z</time></trkpt><trkpt lat="53.8764875" lon="-1.8408738"><ele>218.99999999999997</ele><time>2026-04-26T11:02:49.899Z</time></trkpt><trkpt lat="53.8765489" lon="-1.8409622"><ele>219.0</ele><time>2026-04-26T11:02:50.9Z</time></trkpt><trkpt lat="53.8766152" lon="-1.8410596"><ele>219.0</ele><time>2026-04-26T11:02:51.899Z</time></trkpt><trkpt lat="53.8766817" lon="-1.841158"><ele>217.6</ele><time>2026-04-26T11:02:52.9Z</time></trkpt><trkpt lat="53.8767516" lon="-1.8412674"><ele>216.2</ele><time>2026-04-26T11:02:53.899Z</time></trkpt><trkpt lat="53.8768174" lon="-1.841384"><ele>214.79999999999998</ele><time>2026-04-26T11:02:54.904Z</time></trkpt><trkpt lat="53.8768796" lon="-1.8415007"><ele>213.39999999999998</ele><time>2026-04-26T11:02:55.904Z</time></trkpt><trkpt lat="53.876936" lon="-1.8416161"><ele>212.0</ele><time>2026-04-26T11:02:56.903Z</time></trkpt><trkpt lat="53.8769856" lon="-1.8417292"><ele>210.2</ele><time>2026-04-26T11:02:57.906Z</time></trkpt><trkpt lat="53.8770342" lon="-1.8418423"><ele>208.39999999999998</ele><time>2026-04-26T11:02:58.906Z</time></trkpt><trkpt lat="53.8770856" lon="-1.8419626"><ele>206.60000000000002</ele><time>2026-04-26T11:02:59.904Z</time></trkpt><trkpt lat="53.8771408" lon="-1.8420945"><ele>204.8</ele><time>2026-04-26T11:03:00.905Z</time></trkpt><trkpt lat="53.8771965" lon="-1.842239"><ele>203.0</ele><time>2026-04-26T11:03:01.903Z</time></trkpt><trkpt lat="53.877246" lon="-1.8423916"><ele>203.0</ele><time>2026-04-26T11:03:02.902Z</time></trkpt><trkpt lat="53.8772869" lon="-1.8425453"><ele>203.0</ele><time>2026-04-26T11:03:03.906Z</time></trkpt><trkpt lat="53.8773249" lon="-1.8426959"><ele>203.0</ele><time>2026-04-26T11:03:04.902Z</time></trkpt><trkpt lat="53.8773539" lon="-1.8428526"><ele>203.0</ele><time>2026-04-26T11:03:05.903Z</time></trkpt><trkpt lat="53.8773689" lon="-1.8430168"><ele>203.0</ele><time>2026-04-26T11:03:06.903Z</time></trkpt><trkpt lat="53.8773807" lon="-1.8431884"><ele>201.8</ele><time>2026-04-26T11:03:07.902Z</time></trkpt><trkpt lat="53.8773956" lon="-1.8433632"><ele>200.60000000000002</ele><time>2026-04-26T11:03:08.903Z</time></trkpt><trkpt lat="53.8774047" lon="-1.8435372"><ele>199.39999999999998</ele><time>2026-04-26T11:03:09.899Z</time></trkpt><trkpt lat="53.8774034" lon="-1.8437133"><ele>198.2</ele><time>2026-04-26T11:03:10.901Z</time></trkpt><trkpt lat="53.8773904" lon="-1.84389"><ele>197.0</ele><time>2026-04-26T11:03:11.902Z</time></trkpt><trkpt lat="53.8773628" lon="-1.8440696"><ele>195.39999999999998</ele><time>2026-04-26T11:03:12.901Z</time></trkpt><trkpt lat="53.8773171" lon="-1.8442445"><ele>193.79999999999998</ele><time>2026-04-26T11:03:13.907Z</time></trkpt><trkpt lat="53.8772691" lon="-1.8444033"><ele>192.2</ele><time>2026-04-26T11:03:14.904Z</time></trkpt><trkpt lat="53.8772268" lon="-1.8445508"><ele>190.6</ele><time>2026-04-26T11:03:15.899Z</time></trkpt><trkpt lat="53.8771817" lon="-1.8446941"><ele>189.0</ele><time>2026-04-26T11:03:16.904Z</time></trkpt><trkpt lat="53.8771362" lon="-1.8448359"><ele>187.66666666666666</ele><time>2026-04-26T11:03:17.902Z</time></trkpt><trkpt lat="53.8770838" lon="-1.8449681"><ele>186.33333333333334</ele><time>2026-04-26T11:03:18.903Z</time></trkpt><trkpt lat="53.8770171" lon="-1.8450761"><ele>185.0</ele><time>2026-04-26T11:03:19.9Z</time></trkpt><trkpt lat="53.8769383" lon="-1.8451553"><ele>183.66666666666669</ele><time>2026-04-26T11:03:20.901Z</time></trkpt><trkpt lat="53.8768647" lon="-1.845219"><ele>182.33333333333334</ele><time>2026-04-26T11:03:21.902Z</time></trkpt><trkpt lat="53.8767976" lon="-1.8452847"><ele>181.0</ele><time>2026-04-26T11:03:22.901Z</time></trkpt><trkpt lat="53.87673" lon="-1.8453559"><ele>179.66666666666669</ele><time>2026-04-26T11:03:23.905Z</time></trkpt><trkpt lat="53.8766713" lon="-1.8454442"><ele>178.33333333333334</ele><time>2026-04-26T11:03:24.9Z</time></trkpt><trkpt lat="53.876625" lon="-1.8455588"><ele>177.0</ele><time>2026-04-26T11:03:25.901Z</time></trkpt><trkpt lat="53.8765965" lon="-1.8457005"><ele>175.66666666666666</ele><time>2026-04-26T11:03:26.903Z</time></trkpt><trkpt lat="53.8765807" lon="-1.8458625"><ele>174.33333333333331</ele><time>2026-04-26T11:03:27.903Z</time></trkpt><trkpt lat="53.8765787" lon="-1.8460291"><ele>173.0</ele><time>2026-04-26T11:03:28.9Z</time></trkpt><trkpt lat="53.8765854" lon="-1.8462014"><ele>170.8</ele><time>2026-04-26T11:03:29.902Z</time></trkpt><trkpt lat="53.8765965" lon="-1.8463768"><ele>168.60000000000002</ele><time>2026-04-26T11:03:30.901Z</time></trkpt><trkpt lat="53.8765935" lon="-1.8465558"><ele>166.39999999999998</ele><time>2026-04-26T11:03:31.899Z</time></trkpt><trkpt lat="53.8765946" lon="-1.8467409"><ele>164.2</ele><time>2026-04-26T11:03:32.9Z</time></trkpt><trkpt lat="53.8765966" lon="-1.8469168"><ele>162.0</ele><time>2026-04-26T11:03:33.896Z</time></trkpt><trkpt lat="53.8765972" lon="-1.8470846"><ele>162.6</ele><time>2026-04-26T11:03:34.898Z</time></trkpt><trkpt lat="53.8765963" lon="-1.8472463"><ele>163.2</ele><time>2026-04-26T11:03:35.897Z</time></trkpt><trkpt lat="53.8765945" lon="-1.8474046"><ele>163.8</ele><time>2026-04-26T11:03:36.896Z</time></trkpt><trkpt lat="53.8765776" lon="-1.8475543"><ele>164.4</ele><time>2026-04-26T11:03:37.897Z</time></trkpt><trkpt lat="53.8765418" lon="-1.8476926"><ele>165.0</ele><time>2026-04-26T11:03:38.891Z</time></trkpt><trkpt lat="53.8764896" lon="-1.8478171"><ele>165.0</ele><time>2026-04-26T11:03:39.9Z</time></trkpt><trkpt lat="53.8764227" lon="-1.8479324"><ele>165.0</ele><time>2026-04-26T11:03:40.899Z</time></trkpt><trkpt lat="53.8763491" lon="-1.8480345"><ele>165.0</ele><time>2026-04-26T11:03:41.897Z</time></trkpt><trkpt lat="53.8762695" lon="-1.8481193"><ele>165.0</ele><time>2026-04-26T11:03:42.901Z</time></trkpt><trkpt lat="53.8761865" lon="-1.8481878"><ele>165.0</ele><time>2026-04-26T11:03:43.899Z</time></trkpt><trkpt lat="53.876105" lon="-1.8482375"><ele>165.0</ele><time>2026-04-26T11:03:44.901Z</time></trkpt><trkpt lat="53.8760221" lon="-1.8482598"><ele>165.0</ele><time>2026-04-26T11:03:45.9Z</time></trkpt><trkpt lat="53.8759349" lon="-1.8482597"><ele>165.0</ele><time>2026-04-26T11:03:46.9Z</time></trkpt><trkpt lat="53.8758537" lon="-1.8482514"><ele>165.0</ele><time>2026-04-26T11:03:47.899Z</time></trkpt><trkpt lat="53.8757679" lon="-1.8482398"><ele>165.0</ele><time>2026-04-26T11:03:48.898Z</time></trkpt><trkpt lat="53.8756822" lon="-1.8482333"><ele>165.0</ele><time>2026-04-26T11:03:49.899Z</time></trkpt><trkpt lat="53.8755944" lon="-1.8482355"><ele>164.5</ele><time>2026-04-26T11:03:50.9Z</time></trkpt><trkpt lat="53.8754993" lon="-1.8482422"><ele>164.0</ele><time>2026-04-26T11:03:51.902Z</time></trkpt><trkpt lat="53.8754139" lon="-1.8482808"><ele>163.5</ele><time>2026-04-26T11:03:52.898Z</time></trkpt><trkpt lat="53.8753327" lon="-1.8483307"><ele>163.0</ele><time>2026-04-26T11:03:53.902Z</time></trkpt><trkpt lat="53.8752606" lon="-1.8483958"><ele>162.5</ele><time>2026-04-26T11:03:54.9Z</time></trkpt><trkpt lat="53.8751953" lon="-1.8484717"><ele>162.0</ele><time>2026-04-26T11:03:55.902Z</time></trkpt><trkpt lat="53.8751369" lon="-1.8485595"><ele>162.5</ele><time>2026-04-26T11:03:56.904Z</time></trkpt><trkpt lat="53.8750879" lon="-1.8486655"><ele>163.0</ele><time>2026-04-26T11:03:57.904Z</time></trkpt><trkpt lat="53.8750489" lon="-1.8487959"><ele>163.5</ele><time>2026-04-26T11:03:58.906Z</time></trkpt><trkpt lat="53.8750186" lon="-1.8489441"><ele>164.0</ele><time>2026-04-26T11:03:59.905Z</time></trkpt><trkpt lat="53.8749926" lon="-1.8490849"><ele>164.5</ele><time>2026-04-26T11:04:00.905Z</time></trkpt><trkpt lat="53.874967" lon="-1.8492178"><ele>165.0</ele><time>2026-04-26T11:04:01.905Z</time></trkpt><trkpt lat="53.8749419" lon="-1.8493477"><ele>165.6</ele><time>2026-04-26T11:04:02.902Z</time></trkpt><trkpt lat="53.8749181" lon="-1.8494592"><ele>166.2</ele><time>2026-04-26T11:04:03.906Z</time></trkpt><trkpt lat="53.874863" lon="-1.8496419"><ele>166.8</ele><time>2026-04-26T11:04:05.905Z</time></trkpt><trkpt lat="53.874769" lon="-1.8497873"><ele>167.4</ele><time>2026-04-26T11:04:07.9Z</time></trkpt><trkpt lat="53.8747018" lon="-1.8498427"><ele>168.0</ele><time>2026-04-26T11:04:08.899Z</time></trkpt><trkpt lat="53.8746315" lon="-1.8498788"><ele>168.0</ele><time>2026-04-26T11:04:09.899Z</time></trkpt><trkpt lat="53.8745367" lon="-1.8498981"><ele>168.0</ele><time>2026-04-26T11:04:11.902Z</time></trkpt><trkpt lat="53.8744615" lon="-1.8499025"><ele>168.0</ele><time>2026-04-26T11:04:13.906Z</time></trkpt><trkpt lat="53.874345" lon="-1.8499357"><ele>168.0</ele><time>2026-04-26T11:04:15.902Z</time></trkpt><trkpt lat="53.8742755" lon="-1.8499622"><ele>168.0</ele><time>2026-04-26T11:04:16.901Z</time></trkpt><trkpt lat="53.874199" lon="-1.8499874"><ele>168.0</ele><time>2026-04-26T11:04:17.901Z</time></trkpt><trkpt lat="53.874116" lon="-1.8500146"><ele>166.33333333333334</ele><time>2026-04-26T11:04:18.9Z</time></trkpt><trkpt lat="53.8740328" lon="-1.8500413"><ele>164.66666666666666</ele><time>2026-04-26T11:04:19.9Z</time></trkpt><trkpt lat="53.8739461" lon="-1.850063"><ele>163.0</ele><time>2026-04-26T11:04:20.902Z</time></trkpt><trkpt lat="53.873858" lon="-1.8500851"><ele>161.33333333333331</ele><time>2026-04-26T11:04:21.902Z</time></trkpt><trkpt lat="53.8737741" lon="-1.8501145"><ele>159.66666666666666</ele><time>2026-04-26T11:04:22.901Z</time></trkpt><trkpt lat="53.8736961" lon="-1.8501667"><ele>158.0</ele><time>2026-04-26T11:04:23.908Z</time></trkpt><trkpt lat="53.8736216" lon="-1.8502523"><ele>158.0</ele><time>2026-04-26T11:04:24.9Z</time></trkpt><trkpt lat="53.8735543" lon="-1.8503721"><ele>158.0</ele><time>2026-04-26T11:04:25.9Z</time></trkpt><trkpt lat="53.8734966" lon="-1.8505204"><ele>158.0</ele><time>2026-04-26T11:04:26.903Z</time></trkpt><trkpt lat="53.8734393" lon="-1.8506739"><ele>158.0</ele><time>2026-04-26T11:04:27.905Z</time></trkpt><trkpt lat="53.8733824" lon="-1.850826"><ele>158.0</ele><time>2026-04-26T11:04:28.897Z</time></trkpt><trkpt lat="53.8733341" lon="-1.8509777"><ele>156.8</ele><time>2026-04-26T11:04:29.908Z</time></trkpt><trkpt lat="53.8733015" lon="-1.851136"><ele>155.60000000000002</ele><time>2026-04-26T11:04:30.904Z</time></trkpt><trkpt lat="53.8732849" lon="-1.8512942"><ele>154.39999999999998</ele><time>2026-04-26T11:04:31.904Z</time></trkpt><trkpt lat="53.873275" lon="-1.8514525"><ele>153.2</ele><time>2026-04-26T11:04:32.904Z</time></trkpt><trkpt lat="53.8732717" lon="-1.851614"><ele>152.0</ele><time>2026-04-26T11:04:33.907Z</time></trkpt><trkpt lat="53.8732693" lon="-1.8517881"><ele>152.6</ele><time>2026-04-26T11:04:34.907Z</time></trkpt><trkpt lat="53.8732719" lon="-1.8519712"><ele>153.2</ele><time>2026-04-26T11:04:35.898Z</time></trkpt><trkpt lat="53.8732776" lon="-1.8521572"><ele>153.8</ele><time>2026-04-26T11:04:36.898Z</time></trkpt><trkpt lat="53.8732937" lon="-1.8523327"><ele>154.4</ele><time>2026-04-26T11:04:37.901Z</time></trkpt><trkpt lat="53.8733195" lon="-1.8525013"><ele>155.0</ele><time>2026-04-26T11:04:38.901Z</time></trkpt><trkpt lat="53.873352" lon="-1.8526552"><ele>155.6</ele><time>2026-04-26T11:04:39.899Z</time></trkpt><trkpt lat="53.8733956" lon="-1.8527963"><ele>156.2</ele><time>2026-04-26T11:04:40.901Z</time></trkpt><trkpt lat="53.873431" lon="-1.8529382"><ele>156.8</ele><time>2026-04-26T11:04:41.903Z</time></trkpt><trkpt lat="53.8734554" lon="-1.8530899"><ele>157.4</ele><time>2026-04-26T11:04:42.903Z</time></trkpt><trkpt lat="53.8734675" lon="-1.8532481"><ele>158.0</ele><time>2026-04-26T11:04:43.906Z</time></trkpt><trkpt lat="53.8734657" lon="-1.8534094"><ele>158.20000000000002</ele><time>2026-04-26T11:04:44.902Z</time></trkpt><trkpt lat="53.87345" lon="-1.8535678"><ele>158.4</ele><time>2026-04-26T11:04:45.899Z</time></trkpt><trkpt lat="53.8734248" lon="-1.8537188"><ele>158.60000000000002</ele><time>2026-04-26T11:04:46.897Z</time></trkpt><trkpt lat="53.8733925" lon="-1.8538641"><ele>158.8</ele><time>2026-04-26T11:04:47.902Z</time></trkpt><trkpt lat="53.8733586" lon="-1.8540096"><ele>159.0</ele><time>2026-04-26T11:04:48.9Z</time></trkpt><trkpt lat="53.8733362" lon="-1.8541558"><ele>158.8</ele><time>2026-04-26T11:04:49.901Z</time></trkpt><trkpt lat="53.8733249" lon="-1.8543085"><ele>158.60000000000002</ele><time>2026-04-26T11:04:50.9Z</time></trkpt><trkpt lat="53.8733091" lon="-1.8544748"><ele>158.4</ele><time>2026-04-26T11:04:51.891Z</time></trkpt><trkpt lat="53.873287" lon="-1.8546539"><ele>158.20000000000002</ele><time>2026-04-26T11:04:52.901Z</time></trkpt><trkpt lat="53.8732567" lon="-1.8548414"><ele>158.0</ele><time>2026-04-26T11:04:53.904Z</time></trkpt><trkpt lat="53.8732221" lon="-1.8550389"><ele>157.75</ele><time>2026-04-26T11:04:54.9Z</time></trkpt><trkpt lat="53.8731856" lon="-1.8552477"><ele>157.5</ele><time>2026-04-26T11:04:55.9Z</time></trkpt><trkpt lat="53.8731485" lon="-1.8554653"><ele>157.25</ele><time>2026-04-26T11:04:56.9Z</time></trkpt><trkpt lat="53.8731207" lon="-1.855683"><ele>157.0</ele><time>2026-04-26T11:04:57.902Z</time></trkpt><trkpt lat="53.8730966" lon="-1.8558964"><ele>156.25</ele><time>2026-04-26T11:04:58.9Z</time></trkpt><trkpt lat="53.8730799" lon="-1.8561048"><ele>155.5</ele><time>2026-04-26T11:04:59.902Z</time></trkpt><trkpt lat="53.8730711" lon="-1.8563123"><ele>154.75</ele><time>2026-04-26T11:05:00.901Z</time></trkpt><trkpt lat="53.8730699" lon="-1.8565267"><ele>154.0</ele><time>2026-04-26T11:05:01.901Z</time></trkpt><trkpt lat="53.8730804" lon="-1.8567481"><ele>153.75</ele><time>2026-04-26T11:05:02.901Z</time></trkpt><trkpt lat="53.8731099" lon="-1.8569753"><ele>153.5</ele><time>2026-04-26T11:05:03.904Z</time></trkpt><trkpt lat="53.8731545" lon="-1.8571989"><ele>153.25</ele><time>2026-04-26T11:05:04.901Z</time></trkpt><trkpt lat="53.873209" lon="-1.8574121"><ele>153.0</ele><time>2026-04-26T11:05:05.9Z</time></trkpt><trkpt lat="53.8732633" lon="-1.8576169"><ele>152.0</ele><time>2026-04-26T11:05:06.9Z</time></trkpt><trkpt lat="53.873313" lon="-1.8578152"><ele>151.0</ele><time>2026-04-26T11:05:07.89Z</time></trkpt><trkpt lat="53.8733648" lon="-1.858014"><ele>150.0</ele><time>2026-04-26T11:05:08.9Z</time></trkpt><trkpt lat="53.8734195" lon="-1.858218"><ele>149.0</ele><time>2026-04-26T11:05:09.901Z</time></trkpt><trkpt lat="53.8734788" lon="-1.8584223"><ele>150.75</ele><time>2026-04-26T11:05:10.904Z</time></trkpt><trkpt lat="53.873537" lon="-1.858621"><ele>152.5</ele><time>2026-04-26T11:05:11.906Z</time></trkpt><trkpt lat="53.8735946" lon="-1.8588104"><ele>154.25</ele><time>2026-04-26T11:05:12.905Z</time></trkpt><trkpt lat="53.8736516" lon="-1.8589904"><ele>156.0</ele><time>2026-04-26T11:05:13.909Z</time></trkpt><trkpt lat="53.873712" lon="-1.8591676"><ele>155.4</ele><time>2026-04-26T11:05:14.907Z</time></trkpt><trkpt lat="53.8737698" lon="-1.8593349"><ele>154.8</ele><time>2026-04-26T11:05:15.905Z</time></trkpt><trkpt lat="53.873827" lon="-1.8594977"><ele>154.20000000000002</ele><time>2026-04-26T11:05:16.905Z</time></trkpt><trkpt lat="53.8738852" lon="-1.8596568"><ele>153.6</ele><time>2026-04-26T11:05:17.905Z</time></trkpt><trkpt lat="53.8739457" lon="-1.8598173"><ele>153.0</ele><time>2026-04-26T11:05:18.907Z</time></trkpt><trkpt lat="53.874008" lon="-1.8599775"><ele>152.0</ele><time>2026-04-26T11:05:19.906Z</time></trkpt><trkpt lat="53.8740721" lon="-1.8601313"><ele>151.0</ele><time>2026-04-26T11:05:20.907Z</time></trkpt><trkpt lat="53.8741342" lon="-1.8602819"><ele>150.0</ele><time>2026-04-26T11:05:21.906Z</time></trkpt><trkpt lat="53.8741898" lon="-1.8604198"><ele>149.0</ele><time>2026-04-26T11:05:22.905Z</time></trkpt><trkpt lat="53.8742326" lon="-1.8605371"><ele>148.0</ele><time>2026-04-26T11:05:23.908Z</time></trkpt><trkpt lat="53.8742604" lon="-1.860673"><ele>148.0</ele><time>2026-04-26T11:05:25.905Z</time></trkpt><trkpt lat="53.8742188" lon="-1.8605696"><ele>148.0</ele><time>2026-04-26T11:06:20.902Z</time></trkpt><trkpt lat="53.8741684" lon="-1.8603551"><ele>148.0</ele><time>2026-04-26T11:06:22.898Z</time></trkpt><trkpt lat="53.8741066" lon="-1.8601986"><ele>148.0</ele><time>2026-04-26T11:06:23.906Z</time></trkpt><trkpt lat="53.8740293" lon="-1.8600124"><ele>149.25</ele><time>2026-04-26T11:06:24.901Z</time></trkpt><trkpt lat="53.8739466" lon="-1.8598122"><ele>150.5</ele><time>2026-04-26T11:06:25.9Z</time></trkpt><trkpt lat="53.8738618" lon="-1.8596048"><ele>151.75</ele><time>2026-04-26T11:06:26.904Z</time></trkpt><trkpt lat="53.8737843" lon="-1.8594003"><ele>153.0</ele><time>2026-04-26T11:06:27.903Z</time></trkpt><trkpt lat="53.8737154" lon="-1.8591952"><ele>153.75</ele><time>2026-04-26T11:06:28.9Z</time></trkpt><trkpt lat="53.8736535" lon="-1.8589951"><ele>154.5</ele><time>2026-04-26T11:06:29.9Z</time></trkpt><trkpt lat="53.873596" lon="-1.8588058"><ele>155.25</ele><time>2026-04-26T11:06:30.902Z</time></trkpt><trkpt lat="53.8735459" lon="-1.8586226"><ele>156.0</ele><time>2026-04-26T11:06:31.901Z</time></trkpt><trkpt lat="53.8734918" lon="-1.8584403"><ele>157.25</ele><time>2026-04-26T11:06:32.902Z</time></trkpt><trkpt lat="53.8734397" lon="-1.8582546"><ele>158.5</ele><time>2026-04-26T11:06:33.902Z</time></trkpt><trkpt lat="53.8733923" lon="-1.8580684"><ele>159.75</ele><time>2026-04-26T11:06:34.901Z</time></trkpt><trkpt lat="53.8733498" lon="-1.8578922"><ele>161.0</ele><time>2026-04-26T11:06:35.902Z</time></trkpt><trkpt lat="53.8733076" lon="-1.8577227"><ele>159.4</ele><time>2026-04-26T11:06:36.9Z</time></trkpt><trkpt lat="53.8732628" lon="-1.8575494"><ele>157.8</ele><time>2026-04-26T11:06:37.901Z</time></trkpt><trkpt lat="53.8732262" lon="-1.8573824"><ele>156.20000000000002</ele><time>2026-04-26T11:06:38.902Z</time></trkpt><trkpt lat="53.8731908" lon="-1.8572152"><ele>154.60000000000002</ele><time>2026-04-26T11:06:39.904Z</time></trkpt><trkpt lat="53.8731588" lon="-1.8570458"><ele>153.0</ele><time>2026-04-26T11:06:40.902Z</time></trkpt><trkpt lat="53.8731354" lon="-1.8568821"><ele>153.20000000000002</ele><time>2026-04-26T11:06:41.899Z</time></trkpt><trkpt lat="53.8731143" lon="-1.8567164"><ele>153.4</ele><time>2026-04-26T11:06:42.899Z</time></trkpt><trkpt lat="53.8730975" lon="-1.8565508"><ele>153.60000000000002</ele><time>2026-04-26T11:06:43.902Z</time></trkpt><trkpt lat="53.873093" lon="-1.8563867"><ele>153.8</ele><time>2026-04-26T11:06:44.9Z</time></trkpt><trkpt lat="53.8730983" lon="-1.856234"><ele>154.0</ele><time>2026-04-26T11:06:45.902Z</time></trkpt><trkpt lat="53.8731083" lon="-1.8560847"><ele>154.6</ele><time>2026-04-26T11:06:46.901Z</time></trkpt><trkpt lat="53.8731175" lon="-1.8559319"><ele>155.2</ele><time>2026-04-26T11:06:47.9Z</time></trkpt><trkpt lat="53.8731286" lon="-1.8557756"><ele>155.79999999999998</ele><time>2026-04-26T11:06:48.899Z</time></trkpt><trkpt lat="53.8731444" lon="-1.8556192"><ele>156.4</ele><time>2026-04-26T11:06:49.9Z</time></trkpt><trkpt lat="53.8731696" lon="-1.8554683"><ele>157.0</ele><time>2026-04-26T11:06:50.901Z</time></trkpt><trkpt lat="53.8732037" lon="-1.8553179"><ele>157.0</ele><time>2026-04-26T11:06:51.9Z</time></trkpt><trkpt lat="53.8732368" lon="-1.855164"><ele>157.0</ele><time>2026-04-26T11:06:52.899Z</time></trkpt><trkpt lat="53.873261" lon="-1.8550058"><ele>157.0</ele><time>2026-04-26T11:06:53.898Z</time></trkpt><trkpt lat="53.873281" lon="-1.8548476"><ele>157.0</ele><time>2026-04-26T11:06:54.9Z</time></trkpt><trkpt lat="53.8732991" lon="-1.8546939"><ele>157.0</ele><time>2026-04-26T11:06:55.9Z</time></trkpt><trkpt lat="53.8733198" lon="-1.8545546"><ele>157.2</ele><time>2026-04-26T11:06:56.901Z</time></trkpt><trkpt lat="53.8733497" lon="-1.854449"><ele>157.39999999999998</ele><time>2026-04-26T11:06:57.901Z</time></trkpt><trkpt lat="53.8734725" lon="-1.8543986"><ele>157.60000000000002</ele><time>2026-04-26T11:06:59.902Z</time></trkpt><trkpt lat="53.8735716" lon="-1.854464"><ele>157.8</ele><time>2026-04-26T11:07:00.9Z</time></trkpt><trkpt lat="53.8736743" lon="-1.8545355"><ele>158.0</ele><time>2026-04-26T11:07:01.905Z</time></trkpt><trkpt lat="53.8737892" lon="-1.8545873"><ele>160.5</ele><time>2026-04-26T11:07:02.902Z</time></trkpt><trkpt lat="53.8739113" lon="-1.8546316"><ele>163.0</ele><time>2026-04-26T11:07:03.908Z</time></trkpt><trkpt lat="53.8740412" lon="-1.854658"><ele>165.5</ele><time>2026-04-26T11:07:04.901Z</time></trkpt><trkpt lat="53.874172" lon="-1.8546536"><ele>168.0</ele><time>2026-04-26T11:07:05.898Z</time></trkpt><trkpt lat="53.8743005" lon="-1.8546275"><ele>170.5</ele><time>2026-04-26T11:07:06.9Z</time></trkpt><trkpt lat="53.8744296" lon="-1.8545968"><ele>173.0</ele><time>2026-04-26T11:07:07.903Z</time></trkpt><trkpt lat="53.8745646" lon="-1.8545698"><ele>175.5</ele><time>2026-04-26T11:07:08.9Z</time></trkpt><trkpt lat="53.8746998" lon="-1.8545433"><ele>178.0</ele><time>2026-04-26T11:07:09.898Z</time></trkpt><trkpt lat="53.8748342" lon="-1.8545227"><ele>178.0</ele><time>2026-04-26T11:07:10.9Z</time></trkpt><trkpt lat="53.8749698" lon="-1.8545238"><ele>178.0</ele><time>2026-04-26T11:07:11.9Z</time></trkpt><trkpt lat="53.8751103" lon="-1.8545547"><ele>178.0</ele><time>2026-04-26T11:07:12.9Z</time></trkpt><trkpt lat="53.8752392" lon="-1.8546004"><ele>178.0</ele><time>2026-04-26T11:07:13.895Z</time></trkpt><trkpt lat="53.8753611" lon="-1.8546408"><ele>180.0</ele><time>2026-04-26T11:07:14.893Z</time></trkpt><trkpt lat="53.8754765" lon="-1.8546615"><ele>182.0</ele><time>2026-04-26T11:07:15.899Z</time></trkpt><trkpt lat="53.875594" lon="-1.8546596"><ele>184.0</ele><time>2026-04-26T11:07:16.893Z</time></trkpt><trkpt lat="53.8757081" lon="-1.8546389"><ele>186.0</ele><time>2026-04-26T11:07:17.9Z</time></trkpt><trkpt lat="53.8758215" lon="-1.8545943"><ele>186.0</ele><time>2026-04-26T11:07:18.901Z</time></trkpt><trkpt lat="53.8759282" lon="-1.8545195"><ele>186.0</ele><time>2026-04-26T11:07:19.902Z</time></trkpt><trkpt lat="53.876024" lon="-1.8544233"><ele>186.0</ele><time>2026-04-26T11:07:20.899Z</time></trkpt><trkpt lat="53.8761124" lon="-1.8543321"><ele>186.0</ele><time>2026-04-26T11:07:21.901Z</time></trkpt><trkpt lat="53.8761868" lon="-1.8542505"><ele>186.0</ele><time>2026-04-26T11:07:22.901Z</time></trkpt><trkpt lat="53.876256" lon="-1.8541833"><ele>186.57142857142858</ele><time>2026-04-26T11:07:23.902Z</time></trkpt><trkpt lat="53.8763252" lon="-1.8541298"><ele>187.14285714285714</ele><time>2026-04-26T11:07:24.9Z</time></trkpt><trkpt lat="53.8763979" lon="-1.854094"><ele>187.71428571428572</ele><time>2026-04-26T11:07:25.901Z</time></trkpt><trkpt lat="53.8764706" lon="-1.8540792"><ele>188.28571428571428</ele><time>2026-04-26T11:07:26.902Z</time></trkpt><trkpt lat="53.8765417" lon="-1.8540709"><ele>188.85714285714286</ele><time>2026-04-26T11:07:27.903Z</time></trkpt><trkpt lat="53.8766102" lon="-1.8540593"><ele>189.42857142857144</ele><time>2026-04-26T11:07:28.903Z</time></trkpt><trkpt lat="53.8766768" lon="-1.8540437"><ele>190.0</ele><time>2026-04-26T11:07:29.905Z</time></trkpt><trkpt lat="53.8767443" lon="-1.8540375"><ele>189.66666666666669</ele><time>2026-04-26T11:07:30.901Z</time></trkpt><trkpt lat="53.8768154" lon="-1.8540519"><ele>189.33333333333334</ele><time>2026-04-26T11:07:31.902Z</time></trkpt><trkpt lat="53.8768878" lon="-1.8540881"><ele>189.0</ele><time>2026-04-26T11:07:32.904Z</time></trkpt><trkpt lat="53.876962" lon="-1.8541448"><ele>188.66666666666666</ele><time>2026-04-26T11:07:33.905Z</time></trkpt><trkpt lat="53.8770338" lon="-1.854223"><ele>188.33333333333331</ele><time>2026-04-26T11:07:34.904Z</time></trkpt><trkpt lat="53.8771044" lon="-1.8543252"><ele>188.0</ele><time>2026-04-26T11:07:35.903Z</time></trkpt><trkpt lat="53.8771721" lon="-1.8544315"><ele>189.0</ele><time>2026-04-26T11:07:36.901Z</time></trkpt><trkpt lat="53.8772437" lon="-1.8545348"><ele>190.0</ele><time>2026-04-26T11:07:37.903Z</time></trkpt><trkpt lat="53.8773187" lon="-1.8546294"><ele>191.0</ele><time>2026-04-26T11:07:38.902Z</time></trkpt><trkpt lat="53.8773963" lon="-1.85472"><ele>192.0</ele><time>2026-04-26T11:07:39.901Z</time></trkpt><trkpt lat="53.8774667" lon="-1.8548014"><ele>193.0</ele><time>2026-04-26T11:07:40.902Z</time></trkpt><trkpt lat="53.8775443" lon="-1.8549155"><ele>193.0</ele><time>2026-04-26T11:07:42.903Z</time></trkpt><trkpt lat="53.8775746" lon="-1.8550626"><ele>193.0</ele><time>2026-04-26T11:07:45.907Z</time></trkpt><trkpt lat="53.8776138" lon="-1.8551686"><ele>193.0</ele><time>2026-04-26T11:07:47.905Z</time></trkpt><trkpt lat="53.877694" lon="-1.855336"><ele>193.0</ele><time>2026-04-26T11:07:49.904Z</time></trkpt><trkpt lat="53.8777473" lon="-1.8554589"><ele>193.0</ele><time>2026-04-26T11:07:50.901Z</time></trkpt><trkpt lat="53.8778109" lon="-1.8556036"><ele>193.5</ele><time>2026-04-26T11:07:51.901Z</time></trkpt><trkpt lat="53.8778924" lon="-1.8557618"><ele>194.0</ele><time>2026-04-26T11:07:52.904Z</time></trkpt><trkpt lat="53.8779997" lon="-1.8559052"><ele>194.5</ele><time>2026-04-26T11:07:53.902Z</time></trkpt><trkpt lat="53.8781357" lon="-1.856021"><ele>195.0</ele><time>2026-04-26T11:07:54.907Z</time></trkpt><trkpt lat="53.8782799" lon="-1.8561195"><ele>196.0</ele><time>2026-04-26T11:07:55.899Z</time></trkpt><trkpt lat="53.8784327" lon="-1.8562133"><ele>197.0</ele><time>2026-04-26T11:07:56.909Z</time></trkpt><trkpt lat="53.8785913" lon="-1.856319"><ele>198.0</ele><time>2026-04-26T11:07:57.904Z</time></trkpt><trkpt lat="53.878747" lon="-1.8564567"><ele>199.66666666666669</ele><time>2026-04-26T11:07:58.905Z</time></trkpt><trkpt lat="53.8788931" lon="-1.856632"><ele>201.33333333333334</ele><time>2026-04-26T11:07:59.904Z</time></trkpt><trkpt lat="53.8790453" lon="-1.8568525"><ele>203.0</ele><time>2026-04-26T11:08:00.903Z</time></trkpt><trkpt lat="53.879203" lon="-1.8571066"><ele>207.66666666666669</ele><time>2026-04-26T11:08:01.902Z</time></trkpt><trkpt lat="53.8793609" lon="-1.8573621"><ele>212.33333333333331</ele><time>2026-04-26T11:08:02.903Z</time></trkpt><trkpt lat="53.8794947" lon="-1.8576033"><ele>217.0</ele><time>2026-04-26T11:08:03.908Z</time></trkpt><trkpt lat="53.8796" lon="-1.8578238"><ele>217.0</ele><time>2026-04-26T11:08:04.901Z</time></trkpt><trkpt lat="53.8796813" lon="-1.8580238"><ele>217.0</ele><time>2026-04-26T11:08:05.902Z</time></trkpt><trkpt lat="53.8797373" lon="-1.8582175"><ele>217.0</ele><time>2026-04-26T11:08:06.902Z</time></trkpt><trkpt lat="53.8797785" lon="-1.858391"><ele>217.0</ele><time>2026-04-26T11:08:07.903Z</time></trkpt><trkpt lat="53.8798207" lon="-1.8585381"><ele>217.0</ele><time>2026-04-26T11:08:08.902Z</time></trkpt><trkpt lat="53.8798804" lon="-1.8586471"><ele>217.0</ele><time>2026-04-26T11:08:09.904Z</time></trkpt><trkpt lat="53.8799614" lon="-1.8587074"><ele>217.0</ele><time>2026-04-26T11:08:10.905Z</time></trkpt><trkpt lat="53.8800656" lon="-1.8587157"><ele>217.0</ele><time>2026-04-26T11:08:11.903Z</time></trkpt><trkpt lat="53.88018" lon="-1.8587131"><ele>217.0</ele><time>2026-04-26T11:08:12.902Z</time></trkpt><trkpt lat="53.8802965" lon="-1.8587061"><ele>218.5</ele><time>2026-04-26T11:08:13.906Z</time></trkpt><trkpt lat="53.8804143" lon="-1.8586939"><ele>220.0</ele><time>2026-04-26T11:08:14.903Z</time></trkpt><trkpt lat="53.8805297" lon="-1.8587062"><ele>221.5</ele><time>2026-04-26T11:08:15.901Z</time></trkpt><trkpt lat="53.8806464" lon="-1.8587469"><ele>223.0</ele><time>2026-04-26T11:08:16.9Z</time></trkpt><trkpt lat="53.8807613" lon="-1.8588047"><ele>223.0</ele><time>2026-04-26T11:08:17.901Z</time></trkpt><trkpt lat="53.88087" lon="-1.8588599"><ele>223.0</ele><time>2026-04-26T11:08:18.903Z</time></trkpt><trkpt lat="53.8809869" lon="-1.8588975"><ele>223.0</ele><time>2026-04-26T11:08:19.902Z</time></trkpt><trkpt lat="53.8810999" lon="-1.8589206"><ele>223.0</ele><time>2026-04-26T11:08:20.901Z</time></trkpt><trkpt lat="53.8812064" lon="-1.858938"><ele>224.5</ele><time>2026-04-26T11:08:21.907Z</time></trkpt><trkpt lat="53.8813149" lon="-1.8589709"><ele>226.0</ele><time>2026-04-26T11:08:22.903Z</time></trkpt><trkpt lat="53.8814223" lon="-1.8590393"><ele>227.5</ele><time>2026-04-26T11:08:23.907Z</time></trkpt><trkpt lat="53.8815125" lon="-1.8591602"><ele>229.0</ele><time>2026-04-26T11:08:24.903Z</time></trkpt><trkpt lat="53.8815975" lon="-1.8593166"><ele>229.25</ele><time>2026-04-26T11:08:25.907Z</time></trkpt><trkpt lat="53.8816865" lon="-1.8594771"><ele>229.5</ele><time>2026-04-26T11:08:26.904Z</time></trkpt><trkpt lat="53.8817797" lon="-1.8596368"><ele>229.75</ele><time>2026-04-26T11:08:27.901Z</time></trkpt><trkpt lat="53.8818781" lon="-1.8597899"><ele>230.0</ele><time>2026-04-26T11:08:28.897Z</time></trkpt><trkpt lat="53.8819763" lon="-1.8599363"><ele>231.0</ele><time>2026-04-26T11:08:29.903Z</time></trkpt><trkpt lat="53.8820654" lon="-1.860075"><ele>232.0</ele><time>2026-04-26T11:08:30.904Z</time></trkpt><trkpt lat="53.8821435" lon="-1.8602083"><ele>233.0</ele><time>2026-04-26T11:08:31.904Z</time></trkpt><trkpt lat="53.8822188" lon="-1.8603379"><ele>234.0</ele><time>2026-04-26T11:08:32.891Z</time></trkpt><trkpt lat="53.8822908" lon="-1.8604685"><ele>235.0</ele><time>2026-04-26T11:08:33.899Z</time></trkpt><trkpt lat="53.8823598" lon="-1.8606047"><ele>235.4</ele><time>2026-04-26T11:08:34.902Z</time></trkpt><trkpt lat="53.8824204" lon="-1.8607582"><ele>235.8</ele><time>2026-04-26T11:08:35.891Z</time></trkpt><trkpt lat="53.882465" lon="-1.8609357"><ele>236.2</ele><time>2026-04-26T11:08:36.9Z</time></trkpt><trkpt lat="53.8824949" lon="-1.8611259"><ele>236.6</ele><time>2026-04-26T11:08:37.903Z</time></trkpt><trkpt lat="53.8825204" lon="-1.8613079"><ele>237.0</ele><time>2026-04-26T11:08:38.904Z</time></trkpt><trkpt lat="53.8825724" lon="-1.8614723"><ele>238.5</ele><time>2026-04-26T11:08:39.902Z</time></trkpt><trkpt lat="53.8826497" lon="-1.8616111"><ele>240.0</ele><time>2026-04-26T11:08:40.904Z</time></trkpt><trkpt lat="53.8827402" lon="-1.8617413"><ele>241.5</ele><time>2026-04-26T11:08:41.903Z</time></trkpt><trkpt lat="53.8828341" lon="-1.8618764"><ele>243.0</ele><time>2026-04-26T11:08:42.901Z</time></trkpt><trkpt lat="53.8829209" lon="-1.86202"><ele>243.0</ele><time>2026-04-26T11:08:43.904Z</time></trkpt><trkpt lat="53.8829902" lon="-1.8621481"><ele>243.0</ele><time>2026-04-26T11:08:44.901Z</time></trkpt><trkpt lat="53.883029" lon="-1.8622477"><ele>243.0</ele><time>2026-04-26T11:08:45.902Z</time></trkpt><trkpt lat="53.8830649" lon="-1.8623553"><ele>243.0</ele><time>2026-04-26T11:08:48.904Z</time></trkpt><trkpt lat="53.8831205" lon="-1.8624785"><ele>243.0</ele><time>2026-04-26T11:08:50.905Z</time></trkpt><trkpt lat="53.8831719" lon="-1.8625968"><ele>243.0</ele><time>2026-04-26T11:08:51.904Z</time></trkpt><trkpt lat="53.8832372" lon="-1.8627641"><ele>242.0</ele><time>2026-04-26T11:08:52.904Z</time></trkpt><trkpt lat="53.883311" lon="-1.8629619"><ele>241.0</ele><time>2026-04-26T11:08:53.904Z</time></trkpt><trkpt lat="53.8833995" lon="-1.863182"><ele>240.0</ele><time>2026-04-26T11:08:54.905Z</time></trkpt><trkpt lat="53.8834966" lon="-1.8634117"><ele>242.66666666666669</ele><time>2026-04-26T11:08:55.904Z</time></trkpt><trkpt lat="53.8835905" lon="-1.8636434"><ele>245.33333333333334</ele><time>2026-04-26T11:08:56.906Z</time></trkpt><trkpt lat="53.8836791" lon="-1.863877"><ele>248.0</ele><time>2026-04-26T11:08:57.902Z</time></trkpt><trkpt lat="53.883761" lon="-1.8641066"><ele>247.33333333333334</ele><time>2026-04-26T11:08:58.907Z</time></trkpt><trkpt lat="53.8838452" lon="-1.8643478"><ele>246.66666666666669</ele><time>2026-04-26T11:08:59.908Z</time></trkpt><trkpt lat="53.8839291" lon="-1.8645964"><ele>246.0</ele><time>2026-04-26T11:09:00.908Z</time></trkpt><trkpt lat="53.8840145" lon="-1.864843"><ele>246.0</ele><time>2026-04-26T11:09:01.904Z</time></trkpt><trkpt lat="53.8840993" lon="-1.8650902"><ele>246.0</ele><time>2026-04-26T11:09:02.904Z</time></trkpt><trkpt lat="53.8841817" lon="-1.8653375"><ele>246.0</ele><time>2026-04-26T11:09:03.907Z</time></trkpt><trkpt lat="53.8842587" lon="-1.8655762"><ele>247.66666666666669</ele><time>2026-04-26T11:09:04.906Z</time></trkpt><trkpt lat="53.8843334" lon="-1.8658147"><ele>249.33333333333334</ele><time>2026-04-26T11:09:05.906Z</time></trkpt><trkpt lat="53.8844088" lon="-1.8660559"><ele>251.0</ele><time>2026-04-26T11:09:06.905Z</time></trkpt><trkpt lat="53.8844834" lon="-1.8662933"><ele>251.66666666666669</ele><time>2026-04-26T11:09:07.905Z</time></trkpt><trkpt lat="53.8845568" lon="-1.8665239"><ele>252.33333333333331</ele><time>2026-04-26T11:09:08.905Z</time></trkpt><trkpt lat="53.8846297" lon="-1.866748"><ele>253.0</ele><time>2026-04-26T11:09:09.907Z</time></trkpt><trkpt lat="53.8847046" lon="-1.8669712"><ele>253.0</ele><time>2026-04-26T11:09:10.905Z</time></trkpt><trkpt lat="53.8847762" lon="-1.8671848"><ele>253.0</ele><time>2026-04-26T11:09:11.899Z</time></trkpt><trkpt lat="53.8848382" lon="-1.8673693"><ele>253.0</ele><time>2026-04-26T11:09:12.903Z</time></trkpt><trkpt lat="53.8848927" lon="-1.8675239"><ele>253.0</ele><time>2026-04-26T11:09:13.909Z</time></trkpt><trkpt lat="53.8849337" lon="-1.8676463"><ele>252.66666666666666</ele><time>2026-04-26T11:09:14.899Z</time></trkpt><trkpt lat="53.8849643" lon="-1.8677443"><ele>252.33333333333331</ele><time>2026-04-26T11:09:15.894Z</time></trkpt><trkpt lat="53.8850006" lon="-1.8678909"><ele>252.0</ele><time>2026-04-26T11:09:17.901Z</time></trkpt><trkpt lat="53.8850546" lon="-1.8680102"><ele>251.66666666666669</ele><time>2026-04-26T11:10:13.904Z</time></trkpt><trkpt lat="53.8851253" lon="-1.8680097"><ele>251.33333333333334</ele><time>2026-04-26T11:10:14.907Z</time></trkpt><trkpt lat="53.8852152" lon="-1.8679681"><ele>251.0</ele><time>2026-04-26T11:10:15.905Z</time></trkpt><trkpt lat="53.8853123" lon="-1.8678957"><ele>253.0</ele><time>2026-04-26T11:10:16.903Z</time></trkpt><trkpt lat="53.885416" lon="-1.8678192"><ele>255.0</ele><time>2026-04-26T11:10:17.902Z</time></trkpt><trkpt lat="53.8855263" lon="-1.8677516"><ele>257.0</ele><time>2026-04-26T11:10:18.902Z</time></trkpt><trkpt lat="53.8856393" lon="-1.867686"><ele>259.0</ele><time>2026-04-26T11:10:19.904Z</time></trkpt><trkpt lat="53.8857591" lon="-1.8676137"><ele>259.25</ele><time>2026-04-26T11:10:20.911Z</time></trkpt><trkpt lat="53.8858827" lon="-1.8675404"><ele>259.5</ele><time>2026-04-26T11:10:21.908Z</time></trkpt><trkpt lat="53.8859967" lon="-1.8674725"><ele>259.75</ele><time>2026-04-26T11:10:22.911Z</time></trkpt><trkpt lat="53.8861045" lon="-1.8674099"><ele>260.0</ele><time>2026-04-26T11:10:23.916Z</time></trkpt><trkpt lat="53.8862132" lon="-1.8673476"><ele>260.5</ele><time>2026-04-26T11:10:24.909Z</time></trkpt><trkpt lat="53.8863221" lon="-1.8672888"><ele>261.0</ele><time>2026-04-26T11:10:25.91Z</time></trkpt><trkpt lat="53.8864268" lon="-1.8672286"><ele>261.5</ele><time>2026-04-26T11:10:26.909Z</time></trkpt><trkpt lat="53.8865313" lon="-1.8671671"><ele>262.0</ele><time>2026-04-26T11:10:27.906Z</time></trkpt><trkpt lat="53.8866397" lon="-1.8671036"><ele>262.0</ele><time>2026-04-26T11:10:28.906Z</time></trkpt><trkpt lat="53.8867507" lon="-1.8670422"><ele>262.0</ele><time>2026-04-26T11:10:29.906Z</time></trkpt><trkpt lat="53.8868624" lon="-1.8669834"><ele>262.0</ele><time>2026-04-26T11:10:30.909Z</time></trkpt><trkpt lat="53.8869773" lon="-1.8669165"><ele>262.0</ele><time>2026-04-26T11:10:31.904Z</time></trkpt><trkpt lat="53.887098" lon="-1.8668416"><ele>264.25</ele><time>2026-04-26T11:10:32.905Z</time></trkpt><trkpt lat="53.8872248" lon="-1.8667632"><ele>266.5</ele><time>2026-04-26T11:10:33.905Z</time></trkpt><trkpt lat="53.8873505" lon="-1.8666877"><ele>268.75</ele><time>2026-04-26T11:10:34.904Z</time></trkpt><trkpt lat="53.887471" lon="-1.8666093"><ele>271.0</ele><time>2026-04-26T11:10:35.897Z</time></trkpt><trkpt lat="53.8875782" lon="-1.8665416"><ele>271.8</ele><time>2026-04-26T11:10:36.905Z</time></trkpt><trkpt lat="53.8876718" lon="-1.8664835"><ele>272.6</ele><time>2026-04-26T11:10:37.907Z</time></trkpt><trkpt lat="53.8877561" lon="-1.8664287"><ele>273.4</ele><time>2026-04-26T11:10:38.906Z</time></trkpt><trkpt lat="53.887829" lon="-1.8663784"><ele>274.2</ele><time>2026-04-26T11:10:39.906Z</time></trkpt><trkpt lat="53.8878919" lon="-1.8663338"><ele>275.0</ele><time>2026-04-26T11:10:40.906Z</time></trkpt><trkpt lat="53.8880046" lon="-1.8662508"><ele>275.0</ele><time>2026-04-26T11:10:42.901Z</time></trkpt><trkpt lat="53.8880667" lon="-1.8662213"><ele>275.0</ele><time>2026-04-26T11:10:43.903Z</time></trkpt><trkpt lat="53.8881411" lon="-1.8661795"><ele>275.0</ele><time>2026-04-26T11:10:44.904Z</time></trkpt><trkpt lat="53.888229" lon="-1.8661221"><ele>275.0</ele><time>2026-04-26T11:10:45.905Z</time></trkpt><trkpt lat="53.8883335" lon="-1.8660661"><ele>275.0</ele><time>2026-04-26T11:10:46.907Z</time></trkpt><trkpt lat="53.8884422" lon="-1.8660109"><ele>276.0</ele><time>2026-04-26T11:10:47.907Z</time></trkpt><trkpt lat="53.888555" lon="-1.8659524"><ele>277.0</ele><time>2026-04-26T11:10:48.908Z</time></trkpt><trkpt lat="53.8886776" lon="-1.8658837"><ele>278.0</ele><time>2026-04-26T11:10:49.909Z</time></trkpt><trkpt lat="53.8888121" lon="-1.8658115"><ele>279.0</ele><time>2026-04-26T11:10:50.909Z</time></trkpt><trkpt lat="53.8889543" lon="-1.8657302"><ele>279.0</ele><time>2026-04-26T11:10:51.91Z</time></trkpt><trkpt lat="53.8891021" lon="-1.8656392"><ele>279.0</ele><time>2026-04-26T11:10:52.899Z</time></trkpt><trkpt lat="53.8892556" lon="-1.8655438"><ele>279.0</ele><time>2026-04-26T11:10:53.9Z</time></trkpt><trkpt lat="53.8894131" lon="-1.8654481"><ele>281.0</ele><time>2026-04-26T11:10:54.907Z</time></trkpt><trkpt lat="53.8895822" lon="-1.8653465"><ele>283.0</ele><time>2026-04-26T11:10:55.906Z</time></trkpt><trkpt lat="53.889762" lon="-1.865237"><ele>285.0</ele><time>2026-04-26T11:10:56.898Z</time></trkpt><trkpt lat="53.8899419" lon="-1.8651275"><ele>284.6666666666667</ele><time>2026-04-26T11:10:57.909Z</time></trkpt><trkpt lat="53.8901162" lon="-1.8650222"><ele>284.33333333333337</ele><time>2026-04-26T11:10:58.909Z</time></trkpt><trkpt lat="53.8902858" lon="-1.8649165"><ele>284.0</ele><time>2026-04-26T11:10:59.908Z</time></trkpt><trkpt lat="53.8904564" lon="-1.8648193"><ele>284.0</ele><time>2026-04-26T11:11:00.907Z</time></trkpt><trkpt lat="53.8906262" lon="-1.8647249"><ele>284.0</ele><time>2026-04-26T11:11:01.906Z</time></trkpt><trkpt lat="53.890793" lon="-1.8646289"><ele>284.0</ele><time>2026-04-26T11:11:02.903Z</time></trkpt><trkpt lat="53.8909594" lon="-1.8645339"><ele>284.0</ele><time>2026-04-26T11:11:03.908Z</time></trkpt><trkpt lat="53.8911204" lon="-1.8644405"><ele>284.0</ele><time>2026-04-26T11:11:04.903Z</time></trkpt><trkpt lat="53.891271" lon="-1.8643535"><ele>284.0</ele><time>2026-04-26T11:11:05.903Z</time></trkpt><trkpt lat="53.8914091" lon="-1.8642817"><ele>283.25</ele><time>2026-04-26T11:11:06.905Z</time></trkpt><trkpt lat="53.8915455" lon="-1.8642338"><ele>282.5</ele><time>2026-04-26T11:11:07.904Z</time></trkpt><trkpt lat="53.8916832" lon="-1.8641999"><ele>281.75</ele><time>2026-04-26T11:11:08.904Z</time></trkpt><trkpt lat="53.8918247" lon="-1.8641592"><ele>281.0</ele><time>2026-04-26T11:11:09.904Z</time></trkpt><trkpt lat="53.8919717" lon="-1.8640876"><ele>281.0</ele><time>2026-04-26T11:11:10.907Z</time></trkpt><trkpt lat="53.8921165" lon="-1.8639783"><ele>281.0</ele><time>2026-04-26T11:11:11.903Z</time></trkpt><trkpt lat="53.8922506" lon="-1.8638515"><ele>281.0</ele><time>2026-04-26T11:11:12.899Z</time></trkpt><trkpt lat="53.8923808" lon="-1.8637354"><ele>281.0</ele><time>2026-04-26T11:11:13.908Z</time></trkpt><trkpt lat="53.8925185" lon="-1.8636345"><ele>281.0</ele><time>2026-04-26T11:11:14.904Z</time></trkpt><trkpt lat="53.8926589" lon="-1.863544"><ele>281.0</ele><time>2026-04-26T11:11:15.903Z</time></trkpt><trkpt lat="53.8927973" lon="-1.8634637"><ele>281.0</ele><time>2026-04-26T11:11:16.904Z</time></trkpt><trkpt lat="53.8929357" lon="-1.863383"><ele>282.0</ele><time>2026-04-26T11:11:17.904Z</time></trkpt><trkpt lat="53.893075" lon="-1.8633001"><ele>283.0</ele><time>2026-04-26T11:11:18.905Z</time></trkpt><trkpt lat="53.893221" lon="-1.8632186"><ele>284.0</ele><time>2026-04-26T11:11:19.906Z</time></trkpt><trkpt lat="53.8933698" lon="-1.8631323"><ele>285.6666666666667</ele><time>2026-04-26T11:11:20.905Z</time></trkpt><trkpt lat="53.8935232" lon="-1.8630373"><ele>287.3333333333333</ele><time>2026-04-26T11:11:21.903Z</time></trkpt><trkpt lat="53.8936776" lon="-1.8629486"><ele>289.0</ele><time>2026-04-26T11:11:22.896Z</time></trkpt><trkpt lat="53.8938294" lon="-1.8628613"><ele>289.0</ele><time>2026-04-26T11:11:23.908Z</time></trkpt><trkpt lat="53.8939785" lon="-1.8627723"><ele>289.0</ele><time>2026-04-26T11:11:24.905Z</time></trkpt><trkpt lat="53.8941319" lon="-1.8626838"><ele>289.0</ele><time>2026-04-26T11:11:25.904Z</time></trkpt><trkpt lat="53.8942766" lon="-1.8625941"><ele>290.0</ele><time>2026-04-26T11:11:26.904Z</time></trkpt><trkpt lat="53.894424" lon="-1.8625014"><ele>291.0</ele><time>2026-04-26T11:11:27.903Z</time></trkpt><trkpt lat="53.8945701" lon="-1.8624055"><ele>292.0</ele><time>2026-04-26T11:11:28.899Z</time></trkpt><trkpt lat="53.8947224" lon="-1.8623098"><ele>292.0</ele><time>2026-04-26T11:11:29.905Z</time></trkpt><trkpt lat="53.8948879" lon="-1.8622137"><ele>292.0</ele><time>2026-04-26T11:11:30.907Z</time></trkpt><trkpt lat="53.8950537" lon="-1.8621163"><ele>292.0</ele><time>2026-04-26T11:11:31.906Z</time></trkpt><trkpt lat="53.8952147" lon="-1.8620191"><ele>293.3333333333333</ele><time>2026-04-26T11:11:32.904Z</time></trkpt><trkpt lat="53.8953728" lon="-1.8619232"><ele>294.6666666666667</ele><time>2026-04-26T11:11:33.909Z</time></trkpt><trkpt lat="53.8955325" lon="-1.8618322"><ele>296.0</ele><time>2026-04-26T11:11:34.908Z</time></trkpt><trkpt lat="53.8957007" lon="-1.8617373"><ele>296.0</ele><time>2026-04-26T11:11:35.907Z</time></trkpt><trkpt lat="53.8958784" lon="-1.8616294"><ele>296.0</ele><time>2026-04-26T11:11:36.907Z</time></trkpt><trkpt lat="53.8960605" lon="-1.8615178"><ele>296.0</ele><time>2026-04-26T11:11:37.907Z</time></trkpt><trkpt lat="53.8962463" lon="-1.8614033"><ele>298.6666666666667</ele><time>2026-04-26T11:11:38.906Z</time></trkpt><trkpt lat="53.896436" lon="-1.8612853"><ele>301.3333333333333</ele><time>2026-04-26T11:11:39.908Z</time></trkpt><trkpt lat="53.8966313" lon="-1.8611671"><ele>304.0</ele><time>2026-04-26T11:11:40.906Z</time></trkpt><trkpt lat="53.8968312" lon="-1.8610508"><ele>306.0</ele><time>2026-04-26T11:11:41.902Z</time></trkpt><trkpt lat="53.8970363" lon="-1.860932"><ele>308.0</ele><time>2026-04-26T11:11:42.906Z</time></trkpt><trkpt lat="53.8972483" lon="-1.8608035"><ele>310.0</ele><time>2026-04-26T11:11:43.908Z</time></trkpt><trkpt lat="53.8974601" lon="-1.860674"><ele>316.5</ele><time>2026-04-26T11:11:44.905Z</time></trkpt><trkpt lat="53.8976737" lon="-1.8605463"><ele>323.0</ele><time>2026-04-26T11:11:45.906Z</time></trkpt><trkpt lat="53.8978872" lon="-1.8604198"><ele>323.0</ele><time>2026-04-26T11:11:46.905Z</time></trkpt><trkpt lat="53.8981012" lon="-1.8602928"><ele>323.0</ele><time>2026-04-26T11:11:47.904Z</time></trkpt><trkpt lat="53.8983151" lon="-1.8601714"><ele>323.6666666666667</ele><time>2026-04-26T11:11:48.904Z</time></trkpt><trkpt lat="53.898522" lon="-1.8600538"><ele>324.3333333333333</ele><time>2026-04-26T11:11:49.904Z</time></trkpt><trkpt lat="53.8987254" lon="-1.8599398"><ele>325.0</ele><time>2026-04-26T11:11:50.905Z</time></trkpt><trkpt lat="53.8989275" lon="-1.8598263"><ele>325.0</ele><time>2026-04-26T11:11:51.905Z</time></trkpt><trkpt lat="53.8991258" lon="-1.8597086"><ele>325.0</ele><time>2026-04-26T11:11:52.904Z</time></trkpt><trkpt lat="53.8993257" lon="-1.8595893"><ele>325.0</ele><time>2026-04-26T11:11:53.911Z</time></trkpt><trkpt lat="53.8995282" lon="-1.8594687"><ele>326.0</ele><time>2026-04-26T11:11:54.904Z</time></trkpt><trkpt lat="53.8997335" lon="-1.8593484"><ele>327.0</ele><time>2026-04-26T11:11:55.905Z</time></trkpt><trkpt lat="53.8999377" lon="-1.8592285"><ele>328.0</ele><time>2026-04-26T11:11:56.905Z</time></trkpt><trkpt lat="53.9001422" lon="-1.8591062"><ele>331.3333333333333</ele><time>2026-04-26T11:11:57.905Z</time></trkpt><trkpt lat="53.9003456" lon="-1.8589839"><ele>334.6666666666667</ele><time>2026-04-26T11:11:58.905Z</time></trkpt><trkpt lat="53.9005493" lon="-1.8588643"><ele>338.0</ele><time>2026-04-26T11:11:59.904Z</time></trkpt><trkpt lat="53.9007529" lon="-1.8587476"><ele>342.6666666666667</ele><time>2026-04-26T11:12:00.904Z</time></trkpt><trkpt lat="53.9009545" lon="-1.8586333"><ele>347.3333333333333</ele><time>2026-04-26T11:12:01.906Z</time></trkpt><trkpt lat="53.9011509" lon="-1.8585161"><ele>352.0</ele><time>2026-04-26T11:12:02.906Z</time></trkpt><trkpt lat="53.9013345" lon="-1.8583963"><ele>352.0</ele><time>2026-04-26T11:12:03.911Z</time></trkpt><trkpt lat="53.9015026" lon="-1.8582595"><ele>352.0</ele><time>2026-04-26T11:12:04.906Z</time></trkpt><trkpt lat="53.9016394" lon="-1.8580842"><ele>352.0</ele><time>2026-04-26T11:12:05.908Z</time></trkpt><trkpt lat="53.9017462" lon="-1.8578599"><ele>358.0</ele><time>2026-04-26T11:12:06.908Z</time></trkpt><trkpt lat="53.9018417" lon="-1.8576047"><ele>364.0</ele><time>2026-04-26T11:12:07.908Z</time></trkpt><trkpt lat="53.901942" lon="-1.8573319"><ele>370.0</ele><time>2026-04-26T11:12:08.91Z</time></trkpt><trkpt lat="53.9020452" lon="-1.8570535"><ele>369.3333333333333</ele><time>2026-04-26T11:12:09.896Z</time></trkpt><trkpt lat="53.9021503" lon="-1.8567782"><ele>368.6666666666667</ele><time>2026-04-26T11:12:10.905Z</time></trkpt><trkpt lat="53.9022467" lon="-1.8565059"><ele>368.0</ele><time>2026-04-26T11:12:11.905Z</time></trkpt><trkpt lat="53.902334" lon="-1.8562532"><ele>368.0</ele><time>2026-04-26T11:12:12.898Z</time></trkpt><trkpt lat="53.9024112" lon="-1.8560263"><ele>368.0</ele><time>2026-04-26T11:12:13.91Z</time></trkpt><trkpt lat="53.9024775" lon="-1.8558256"><ele>368.0</ele><time>2026-04-26T11:12:14.904Z</time></trkpt><trkpt lat="53.9025212" lon="-1.8556512"><ele>368.0</ele><time>2026-04-26T11:12:15.904Z</time></trkpt><trkpt lat="53.9025474" lon="-1.8555069"><ele>368.5</ele><time>2026-04-26T11:12:16.903Z</time></trkpt><trkpt lat="53.9025686" lon="-1.8553899"><ele>369.0</ele><time>2026-04-26T11:12:17.906Z</time></trkpt><trkpt lat="53.9025921" lon="-1.8552737"><ele>369.5</ele><time>2026-04-26T11:12:18.906Z</time></trkpt><trkpt lat="53.902621" lon="-1.8551467"><ele>370.0</ele><time>2026-04-26T11:12:19.906Z</time></trkpt><trkpt lat="53.9026512" lon="-1.8549848"><ele>370.5</ele><time>2026-04-26T11:12:20.904Z</time></trkpt><trkpt lat="53.9026759" lon="-1.8547864"><ele>371.0</ele><time>2026-04-26T11:12:21.907Z</time></trkpt><trkpt lat="53.9027077" lon="-1.8545562"><ele>374.33333333333337</ele><time>2026-04-26T11:12:22.907Z</time></trkpt><trkpt lat="53.9027477" lon="-1.8542761"><ele>377.6666666666667</ele><time>2026-04-26T11:12:23.908Z</time></trkpt><trkpt lat="53.9028022" lon="-1.8539492"><ele>381.0</ele><time>2026-04-26T11:12:24.906Z</time></trkpt><trkpt lat="53.9028679" lon="-1.8535947"><ele>380.0</ele><time>2026-04-26T11:12:25.905Z</time></trkpt><trkpt lat="53.902938" lon="-1.8532302"><ele>379.0</ele><time>2026-04-26T11:12:26.906Z</time></trkpt><trkpt lat="53.9030042" lon="-1.8528659"><ele>377.0</ele><time>2026-04-26T11:12:27.906Z</time></trkpt><trkpt lat="53.903068" lon="-1.8524974"><ele>375.0</ele><time>2026-04-26T11:12:28.906Z</time></trkpt><trkpt lat="53.9031307" lon="-1.8521334"><ele>375.0</ele><time>2026-04-26T11:12:29.906Z</time></trkpt><trkpt lat="53.9031963" lon="-1.851772"><ele>375.0</ele><time>2026-04-26T11:12:30.906Z</time></trkpt><trkpt lat="53.9032627" lon="-1.8514106"><ele>375.0</ele><time>2026-04-26T11:12:31.904Z</time></trkpt><trkpt lat="53.903331" lon="-1.8510574"><ele>374.6666666666667</ele><time>2026-04-26T11:12:32.905Z</time></trkpt><trkpt lat="53.9033974" lon="-1.8507056"><ele>374.33333333333337</ele><time>2026-04-26T11:12:33.911Z</time></trkpt><trkpt lat="53.9034585" lon="-1.8503625"><ele>374.0</ele><time>2026-04-26T11:12:34.906Z</time></trkpt><trkpt lat="53.9035156" lon="-1.8500398"><ele>375.6666666666667</ele><time>2026-04-26T11:12:35.906Z</time></trkpt><trkpt lat="53.9035719" lon="-1.849725"><ele>377.3333333333333</ele><time>2026-04-26T11:12:36.904Z</time></trkpt><trkpt lat="53.9036261" lon="-1.8494138"><ele>379.0</ele><time>2026-04-26T11:12:37.906Z</time></trkpt><trkpt lat="53.9036822" lon="-1.8491048"><ele>379.0</ele><time>2026-04-26T11:12:38.906Z</time></trkpt><trkpt lat="53.9037388" lon="-1.8487922"><ele>379.0</ele><time>2026-04-26T11:12:39.906Z</time></trkpt><trkpt lat="53.9037927" lon="-1.8484848"><ele>379.0</ele><time>2026-04-26T11:12:40.907Z</time></trkpt><trkpt lat="53.9038403" lon="-1.8481983"><ele>379.25</ele><time>2026-04-26T11:12:41.904Z</time></trkpt><trkpt lat="53.9038797" lon="-1.8479351"><ele>379.5</ele><time>2026-04-26T11:12:42.905Z</time></trkpt><trkpt lat="53.903916" lon="-1.8477037"><ele>379.75</ele><time>2026-04-26T11:12:43.911Z</time></trkpt><trkpt lat="53.903948" lon="-1.8475091"><ele>380.0</ele><time>2026-04-26T11:12:44.906Z</time></trkpt><trkpt lat="53.9039746" lon="-1.8473438"><ele>380.0</ele><time>2026-04-26T11:12:45.908Z</time></trkpt><trkpt lat="53.9039965" lon="-1.8472227"><ele>380.0</ele><time>2026-04-26T11:12:46.907Z</time></trkpt><trkpt lat="53.904029" lon="-1.8470944"><ele>380.0</ele><time>2026-04-26T11:12:48.905Z</time></trkpt><trkpt lat="53.9040803" lon="-1.8470183"><ele>380.0</ele><time>2026-04-26T11:13:34.907Z</time></trkpt><trkpt lat="53.9041452" lon="-1.8469979"><ele>380.0</ele><time>2026-04-26T11:14:10.909Z</time></trkpt><trkpt lat="53.9042443" lon="-1.8469095"><ele>380.0</ele><time>2026-04-26T11:14:28.907Z</time></trkpt><trkpt lat="53.9043072" lon="-1.8468552"><ele>380.0</ele><time>2026-04-26T11:14:29.904Z</time></trkpt><trkpt lat="53.9043735" lon="-1.8468028"><ele>380.0</ele><time>2026-04-26T11:14:30.909Z</time></trkpt><trkpt lat="53.9044425" lon="-1.8467478"><ele>380.0</ele><time>2026-04-26T11:14:31.913Z</time></trkpt><trkpt lat="53.9045128" lon="-1.8466916"><ele>380.0</ele><time>2026-04-26T11:14:32.911Z</time></trkpt><trkpt lat="53.9045849" lon="-1.8466334"><ele>380.0</ele><time>2026-04-26T11:14:33.912Z</time></trkpt><trkpt lat="53.9046569" lon="-1.8465745"><ele>380.0</ele><time>2026-04-26T11:14:34.908Z</time></trkpt><trkpt lat="53.9047327" lon="-1.846514"><ele>380.0</ele><time>2026-04-26T11:14:35.907Z</time></trkpt><trkpt lat="53.904815" lon="-1.8464488"><ele>380.0</ele><time>2026-04-26T11:14:36.908Z</time></trkpt><trkpt lat="53.9049002" lon="-1.8463819"><ele>380.0</ele><time>2026-04-26T11:14:37.907Z</time></trkpt><trkpt lat="53.9049891" lon="-1.846317"><ele>380.0</ele><time>2026-04-26T11:14:38.909Z</time></trkpt><trkpt lat="53.9050808" lon="-1.8462456"><ele>380.0</ele><time>2026-04-26T11:14:39.905Z</time></trkpt><trkpt lat="53.9051746" lon="-1.846166"><ele>380.2</ele><time>2026-04-26T11:14:40.903Z</time></trkpt><trkpt lat="53.9052725" lon="-1.846084"><ele>380.4</ele><time>2026-04-26T11:14:41.905Z</time></trkpt><trkpt lat="53.9053745" lon="-1.846005"><ele>380.6</ele><time>2026-04-26T11:14:42.904Z</time></trkpt><trkpt lat="53.9054756" lon="-1.8459272"><ele>380.8</ele><time>2026-04-26T11:14:43.913Z</time></trkpt><trkpt lat="53.9055773" lon="-1.8458501"><ele>381.0</ele><time>2026-04-26T11:14:44.905Z</time></trkpt><trkpt lat="53.9056788" lon="-1.8457748"><ele>380.6</ele><time>2026-04-26T11:14:45.906Z</time></trkpt><trkpt lat="53.9057767" lon="-1.8456985"><ele>380.20000000000005</ele><time>2026-04-26T11:14:46.904Z</time></trkpt><trkpt lat="53.9058732" lon="-1.8456218"><ele>379.79999999999995</ele><time>2026-04-26T11:14:47.906Z</time></trkpt><trkpt lat="53.9059697" lon="-1.8455395"><ele>379.4</ele><time>2026-04-26T11:14:48.907Z</time></trkpt><trkpt lat="53.9060668" lon="-1.8454536"><ele>379.0</ele><time>2026-04-26T11:14:49.907Z</time></trkpt><trkpt lat="53.906168" lon="-1.8453667"><ele>378.79999999999995</ele><time>2026-04-26T11:14:50.905Z</time></trkpt><trkpt lat="53.9062707" lon="-1.8452859"><ele>378.59999999999997</ele><time>2026-04-26T11:14:51.904Z</time></trkpt><trkpt lat="53.9063649" lon="-1.8452151"><ele>378.4</ele><time>2026-04-26T11:14:52.907Z</time></trkpt><trkpt lat="53.9064481" lon="-1.8451497"><ele>378.2</ele><time>2026-04-26T11:14:53.899Z</time></trkpt><trkpt lat="53.9065218" lon="-1.8450897"><ele>378.0</ele><time>2026-04-26T11:14:54.905Z</time></trkpt><trkpt lat="53.9065954" lon="-1.8450227"><ele>377.59999999999997</ele><time>2026-04-26T11:14:55.905Z</time></trkpt><trkpt lat="53.9066753" lon="-1.8449422"><ele>377.2</ele><time>2026-04-26T11:14:56.905Z</time></trkpt><trkpt lat="53.9067586" lon="-1.8448696"><ele>376.8</ele><time>2026-04-26T11:14:57.909Z</time></trkpt><trkpt lat="53.9068353" lon="-1.8448098"><ele>376.4</ele><time>2026-04-26T11:14:58.907Z</time></trkpt><trkpt lat="53.9069208" lon="-1.8447583"><ele>376.0</ele><time>2026-04-26T11:14:59.905Z</time></trkpt><trkpt lat="53.9070171" lon="-1.844713"><ele>374.6</ele><time>2026-04-26T11:15:00.906Z</time></trkpt><trkpt lat="53.9071214" lon="-1.8446714"><ele>373.20000000000005</ele><time>2026-04-26T11:15:01.905Z</time></trkpt><trkpt lat="53.907225" lon="-1.8446357"><ele>371.79999999999995</ele><time>2026-04-26T11:15:02.903Z</time></trkpt><trkpt lat="53.9073307" lon="-1.8446063"><ele>370.4</ele><time>2026-04-26T11:15:03.909Z</time></trkpt><trkpt lat="53.9074341" lon="-1.8445811"><ele>369.0</ele><time>2026-04-26T11:15:04.901Z</time></trkpt><trkpt lat="53.9075419" lon="-1.8445641"><ele>366.79999999999995</ele><time>2026-04-26T11:15:05.903Z</time></trkpt><trkpt lat="53.9076464" lon="-1.844558"><ele>364.59999999999997</ele><time>2026-04-26T11:15:06.901Z</time></trkpt><trkpt lat="53.9077538" lon="-1.8445553"><ele>362.4</ele><time>2026-04-26T11:15:07.902Z</time></trkpt><trkpt lat="53.9078591" lon="-1.8445423"><ele>360.2</ele><time>2026-04-26T11:15:08.903Z</time></trkpt><trkpt lat="53.9079613" lon="-1.8445066"><ele>358.0</ele><time>2026-04-26T11:15:09.907Z</time></trkpt><trkpt lat="53.9080584" lon="-1.8444481"><ele>358.0</ele><time>2026-04-26T11:15:10.904Z</time></trkpt><trkpt lat="53.908153" lon="-1.8443804"><ele>358.0</ele><time>2026-04-26T11:15:11.903Z</time></trkpt><trkpt lat="53.9082519" lon="-1.8443129"><ele>358.0</ele><time>2026-04-26T11:15:12.903Z</time></trkpt><trkpt lat="53.9083601" lon="-1.8442338"><ele>358.0</ele><time>2026-04-26T11:15:13.908Z</time></trkpt><trkpt lat="53.9084808" lon="-1.8441588"><ele>356.25</ele><time>2026-04-26T11:15:14.905Z</time></trkpt><trkpt lat="53.9086161" lon="-1.844086"><ele>354.5</ele><time>2026-04-26T11:15:15.905Z</time></trkpt><trkpt lat="53.9087582" lon="-1.8440134"><ele>352.75</ele><time>2026-04-26T11:15:16.905Z</time></trkpt><trkpt lat="53.9088987" lon="-1.8439379"><ele>351.0</ele><time>2026-04-26T11:15:17.905Z</time></trkpt><trkpt lat="53.9090397" lon="-1.8438608"><ele>351.0</ele><time>2026-04-26T11:15:18.905Z</time></trkpt><trkpt lat="53.9091743" lon="-1.8437787"><ele>351.0</ele><time>2026-04-26T11:15:19.905Z</time></trkpt><trkpt lat="53.909297" lon="-1.8436984"><ele>351.0</ele><time>2026-04-26T11:15:20.906Z</time></trkpt><trkpt lat="53.9094102" lon="-1.8436214"><ele>351.0</ele><time>2026-04-26T11:15:21.905Z</time></trkpt><trkpt lat="53.9095206" lon="-1.8435477"><ele>350.25</ele><time>2026-04-26T11:15:22.906Z</time></trkpt><trkpt lat="53.9096293" lon="-1.8434666"><ele>349.5</ele><time>2026-04-26T11:15:23.907Z</time></trkpt><trkpt lat="53.9097372" lon="-1.8433856"><ele>348.75</ele><time>2026-04-26T11:15:24.905Z</time></trkpt><trkpt lat="53.9098348" lon="-1.8433029"><ele>348.0</ele><time>2026-04-26T11:15:25.907Z</time></trkpt><trkpt lat="53.9099197" lon="-1.8431999"><ele>348.0</ele><time>2026-04-26T11:15:26.907Z</time></trkpt><trkpt lat="53.9100025" lon="-1.8430713"><ele>348.0</ele><time>2026-04-26T11:15:27.904Z</time></trkpt><trkpt lat="53.9100916" lon="-1.8429248"><ele>348.0</ele><time>2026-04-26T11:15:28.905Z</time></trkpt><trkpt lat="53.9101885" lon="-1.8427671"><ele>348.0</ele><time>2026-04-26T11:15:29.904Z</time></trkpt><trkpt lat="53.9102877" lon="-1.8426066"><ele>347.0</ele><time>2026-04-26T11:15:30.905Z</time></trkpt><trkpt lat="53.9103828" lon="-1.8424383"><ele>346.0</ele><time>2026-04-26T11:15:31.907Z</time></trkpt><trkpt lat="53.9104755" lon="-1.8422713"><ele>345.0</ele><time>2026-04-26T11:15:32.908Z</time></trkpt><trkpt lat="53.9105609" lon="-1.8421024"><ele>344.0</ele><time>2026-04-26T11:15:33.912Z</time></trkpt><trkpt lat="53.9106393" lon="-1.8419383"><ele>343.6</ele><time>2026-04-26T11:15:34.907Z</time></trkpt><trkpt lat="53.9107134" lon="-1.8417833"><ele>343.2</ele><time>2026-04-26T11:15:35.91Z</time></trkpt><trkpt lat="53.9107814" lon="-1.8416402"><ele>342.8</ele><time>2026-04-26T11:15:36.907Z</time></trkpt><trkpt lat="53.9108454" lon="-1.8415068"><ele>342.40000000000003</ele><time>2026-04-26T11:15:37.906Z</time></trkpt><trkpt lat="53.9109048" lon="-1.8413854"><ele>342.0</ele><time>2026-04-26T11:15:38.907Z</time></trkpt><trkpt lat="53.9109614" lon="-1.8412717"><ele>341.6</ele><time>2026-04-26T11:15:39.906Z</time></trkpt><trkpt lat="53.9110206" lon="-1.841159"><ele>341.20000000000005</ele><time>2026-04-26T11:15:40.908Z</time></trkpt><trkpt lat="53.9110856" lon="-1.8410354"><ele>340.8</ele><time>2026-04-26T11:15:41.906Z</time></trkpt><trkpt lat="53.9111521" lon="-1.8408915"><ele>340.4</ele><time>2026-04-26T11:15:42.904Z</time></trkpt><trkpt lat="53.9112271" lon="-1.8407363"><ele>340.0</ele><time>2026-04-26T11:15:43.909Z</time></trkpt><trkpt lat="53.9113099" lon="-1.8405681"><ele>339.5</ele><time>2026-04-26T11:15:44.906Z</time></trkpt><trkpt lat="53.9113997" lon="-1.8403857"><ele>339.0</ele><time>2026-04-26T11:15:45.903Z</time></trkpt><trkpt lat="53.9115002" lon="-1.840205"><ele>338.5</ele><time>2026-04-26T11:15:46.906Z</time></trkpt><trkpt lat="53.9115997" lon="-1.8400243"><ele>338.0</ele><time>2026-04-26T11:15:47.905Z</time></trkpt><trkpt lat="53.9116918" lon="-1.8398645"><ele>336.59999999999997</ele><time>2026-04-26T11:15:48.906Z</time></trkpt><trkpt lat="53.9117736" lon="-1.8397224"><ele>335.2</ele><time>2026-04-26T11:15:49.905Z</time></trkpt><trkpt lat="53.9118426" lon="-1.8395873"><ele>333.8</ele><time>2026-04-26T11:15:50.905Z</time></trkpt><trkpt lat="53.9119046" lon="-1.8394601"><ele>332.4</ele><time>2026-04-26T11:15:51.907Z</time></trkpt><trkpt lat="53.9119599" lon="-1.8393419"><ele>331.0</ele><time>2026-04-26T11:15:52.906Z</time></trkpt><trkpt lat="53.9120153" lon="-1.8392387"><ele>330.14285714285717</ele><time>2026-04-26T11:15:53.908Z</time></trkpt><trkpt lat="53.9120784" lon="-1.8391477"><ele>329.2857142857143</ele><time>2026-04-26T11:15:54.904Z</time></trkpt><trkpt lat="53.9121406" lon="-1.8390604"><ele>328.42857142857144</ele><time>2026-04-26T11:15:55.905Z</time></trkpt><trkpt lat="53.9121973" lon="-1.8389765"><ele>327.57142857142856</ele><time>2026-04-26T11:15:56.906Z</time></trkpt><trkpt lat="53.9122485" lon="-1.8388959"><ele>326.7142857142857</ele><time>2026-04-26T11:15:57.906Z</time></trkpt><trkpt lat="53.9122984" lon="-1.8388213"><ele>325.85714285714283</ele><time>2026-04-26T11:15:58.907Z</time></trkpt><trkpt lat="53.9123549" lon="-1.8387643"><ele>325.0</ele><time>2026-04-26T11:15:59.906Z</time></trkpt><trkpt lat="53.9124193" lon="-1.8387346"><ele>325.0</ele><time>2026-04-26T11:16:00.905Z</time></trkpt><trkpt lat="53.9125301" lon="-1.8387451"><ele>325.0</ele><time>2026-04-26T11:16:02.907Z</time></trkpt><trkpt lat="53.9126174" lon="-1.8388361"><ele>325.0</ele><time>2026-04-26T11:16:04.907Z</time></trkpt><trkpt lat="53.9126717" lon="-1.8389049"><ele>325.0</ele><time>2026-04-26T11:16:05.906Z</time></trkpt><trkpt lat="53.9127267" lon="-1.8389677"><ele>325.0</ele><time>2026-04-26T11:16:06.908Z</time></trkpt><trkpt lat="53.9128287" lon="-1.8390667"><ele>323.8333333333333</ele><time>2026-04-26T11:16:08.909Z</time></trkpt><trkpt lat="53.9128913" lon="-1.8391128"><ele>322.66666666666663</ele><time>2026-04-26T11:16:09.909Z</time></trkpt><trkpt lat="53.9129603" lon="-1.8391523"><ele>321.5</ele><time>2026-04-26T11:16:10.908Z</time></trkpt><trkpt lat="53.9130264" lon="-1.8391875"><ele>320.3333333333333</ele><time>2026-04-26T11:16:11.905Z</time></trkpt><trkpt lat="53.9131416" lon="-1.8392468"><ele>319.1666666666667</ele><time>2026-04-26T11:16:13.906Z</time></trkpt><trkpt lat="53.9132066" lon="-1.8392793"><ele>318.0</ele><time>2026-04-26T11:16:14.905Z</time></trkpt><trkpt lat="53.9132755" lon="-1.8393148"><ele>318.0</ele><time>2026-04-26T11:16:15.906Z</time></trkpt><trkpt lat="53.9133454" lon="-1.8393497"><ele>318.0</ele><time>2026-04-26T11:16:16.909Z</time></trkpt><trkpt lat="53.913417" lon="-1.8393792"><ele>318.0</ele><time>2026-04-26T11:16:17.906Z</time></trkpt><trkpt lat="53.9134905" lon="-1.8394073"><ele>318.0</ele><time>2026-04-26T11:16:18.906Z</time></trkpt><trkpt lat="53.9135665" lon="-1.8394385"><ele>318.0</ele><time>2026-04-26T11:16:19.907Z</time></trkpt><trkpt lat="53.913639" lon="-1.8394634"><ele>318.0</ele><time>2026-04-26T11:16:20.908Z</time></trkpt><trkpt lat="53.9137084" lon="-1.8394783"><ele>318.0</ele><time>2026-04-26T11:16:21.907Z</time></trkpt><trkpt lat="53.9137763" lon="-1.8394848"><ele>315.0</ele><time>2026-04-26T11:16:22.908Z</time></trkpt><trkpt lat="53.913852" lon="-1.8394919"><ele>312.0</ele><time>2026-04-26T11:16:23.91Z</time></trkpt><trkpt lat="53.9139402" lon="-1.8394925"><ele>309.0</ele><time>2026-04-26T11:16:24.906Z</time></trkpt><trkpt lat="53.9140333" lon="-1.8394872"><ele>306.0</ele><time>2026-04-26T11:16:25.906Z</time></trkpt><trkpt lat="53.9141222" lon="-1.8394843"><ele>303.0</ele><time>2026-04-26T11:16:26.907Z</time></trkpt><trkpt lat="53.9142021" lon="-1.8394741"><ele>300.0</ele><time>2026-04-26T11:16:27.905Z</time></trkpt><trkpt lat="53.9142702" lon="-1.839447"><ele>298.4285714285714</ele><time>2026-04-26T11:16:28.906Z</time></trkpt><trkpt lat="53.9143275" lon="-1.8393919"><ele>296.85714285714283</ele><time>2026-04-26T11:16:29.904Z</time></trkpt><trkpt lat="53.9143863" lon="-1.8393219"><ele>295.2857142857143</ele><time>2026-04-26T11:16:30.905Z</time></trkpt><trkpt lat="53.9144439" lon="-1.8392458"><ele>293.71428571428567</ele><time>2026-04-26T11:16:31.907Z</time></trkpt><trkpt lat="53.9144958" lon="-1.8391604"><ele>292.1428571428571</ele><time>2026-04-26T11:16:32.908Z</time></trkpt><trkpt lat="53.9145471" lon="-1.8390605"><ele>290.57142857142856</ele><time>2026-04-26T11:16:33.911Z</time></trkpt><trkpt lat="53.9146091" lon="-1.8389585"><ele>289.0</ele><time>2026-04-26T11:16:34.908Z</time></trkpt><trkpt lat="53.9146797" lon="-1.83887"><ele>288.8333333333333</ele><time>2026-04-26T11:16:35.907Z</time></trkpt><trkpt lat="53.914751" lon="-1.8387991"><ele>288.66666666666663</ele><time>2026-04-26T11:16:36.907Z</time></trkpt><trkpt lat="53.9148168" lon="-1.8387425"><ele>288.5</ele><time>2026-04-26T11:16:37.908Z</time></trkpt><trkpt lat="53.9148707" lon="-1.8386854"><ele>288.3333333333333</ele><time>2026-04-26T11:16:38.907Z</time></trkpt><trkpt lat="53.914919" lon="-1.8386137"><ele>288.1666666666667</ele><time>2026-04-26T11:16:39.909Z</time></trkpt><trkpt lat="53.9149741" lon="-1.8385216"><ele>288.0</ele><time>2026-04-26T11:16:40.898Z</time></trkpt><trkpt lat="53.9150418" lon="-1.8384152"><ele>284.0</ele><time>2026-04-26T11:16:41.901Z</time></trkpt><trkpt lat="53.915111" lon="-1.8383016"><ele>280.0</ele><time>2026-04-26T11:16:42.905Z</time></trkpt><trkpt lat="53.9151815" lon="-1.8381891"><ele>276.0</ele><time>2026-04-26T11:16:43.912Z</time></trkpt><trkpt lat="53.9152489" lon="-1.838074"><ele>272.0</ele><time>2026-04-26T11:16:44.906Z</time></trkpt><trkpt lat="53.9153169" lon="-1.8379675"><ele>268.0</ele><time>2026-04-26T11:16:45.901Z</time></trkpt><trkpt lat="53.9153807" lon="-1.8378792"><ele>268.0</ele><time>2026-04-26T11:16:46.907Z</time></trkpt><trkpt lat="53.9154378" lon="-1.8378055"><ele>268.0</ele><time>2026-04-26T11:16:47.906Z</time></trkpt><trkpt lat="53.9155293" lon="-1.8376746"><ele>268.0</ele><time>2026-04-26T11:16:49.904Z</time></trkpt><trkpt lat="53.9156171" lon="-1.837531"><ele>268.0</ele><time>2026-04-26T11:16:51.904Z</time></trkpt><trkpt lat="53.9156636" lon="-1.8374532"><ele>268.0</ele><time>2026-04-26T11:16:52.903Z</time></trkpt><trkpt lat="53.9157058" lon="-1.8373661"><ele>268.0</ele><time>2026-04-26T11:16:53.909Z</time></trkpt><trkpt lat="53.9157442" lon="-1.8372705"><ele>267.3333333333333</ele><time>2026-04-26T11:16:54.906Z</time></trkpt><trkpt lat="53.9157794" lon="-1.8371675"><ele>266.66666666666663</ele><time>2026-04-26T11:16:55.904Z</time></trkpt><trkpt lat="53.9158133" lon="-1.8370567"><ele>266.0</ele><time>2026-04-26T11:16:56.9Z</time></trkpt><trkpt lat="53.9158444" lon="-1.8369419"><ele>265.3333333333333</ele><time>2026-04-26T11:16:57.908Z</time></trkpt><trkpt lat="53.9158727" lon="-1.8368179"><ele>264.6666666666667</ele><time>2026-04-26T11:16:58.905Z</time></trkpt><trkpt lat="53.9158966" lon="-1.836682"><ele>264.0</ele><time>2026-04-26T11:16:59.904Z</time></trkpt><trkpt lat="53.9159094" lon="-1.8365372"><ele>263.0</ele><time>2026-04-26T11:17:00.906Z</time></trkpt><trkpt lat="53.9159028" lon="-1.8363955"><ele>262.0</ele><time>2026-04-26T11:17:01.908Z</time></trkpt><trkpt lat="53.9158669" lon="-1.8362562"><ele>261.0</ele><time>2026-04-26T11:17:02.908Z</time></trkpt><trkpt lat="53.9158055" lon="-1.8361294"><ele>260.0</ele><time>2026-04-26T11:17:03.91Z</time></trkpt><trkpt lat="53.9157473" lon="-1.8360313"><ele>259.0</ele><time>2026-04-26T11:17:04.902Z</time></trkpt><trkpt lat="53.915676" lon="-1.8358913"><ele>257.0</ele><time>2026-04-26T11:17:06.911Z</time></trkpt><trkpt lat="53.9156671" lon="-1.8357337"><ele>254.99999999999997</ele><time>2026-04-26T11:17:08.907Z</time></trkpt><trkpt lat="53.9157023" lon="-1.8355614"><ele>252.99999999999997</ele><time>2026-04-26T11:17:10.905Z</time></trkpt><trkpt lat="53.9157508" lon="-1.835381"><ele>251.0</ele><time>2026-04-26T11:17:12.896Z</time></trkpt><trkpt lat="53.9158252" lon="-1.8352232"><ele>249.0</ele><time>2026-04-26T11:17:14.906Z</time></trkpt><trkpt lat="53.9158908" lon="-1.8351718"><ele>245.39999999999998</ele><time>2026-04-26T11:17:15.904Z</time></trkpt><trkpt lat="53.915967" lon="-1.8351216"><ele>241.79999999999998</ele><time>2026-04-26T11:17:16.904Z</time></trkpt><trkpt lat="53.9160521" lon="-1.8350662"><ele>238.20000000000002</ele><time>2026-04-26T11:17:17.904Z</time></trkpt><trkpt lat="53.9161423" lon="-1.8350147"><ele>234.60000000000002</ele><time>2026-04-26T11:17:18.905Z</time></trkpt><trkpt lat="53.9162324" lon="-1.8349668"><ele>231.0</ele><time>2026-04-26T11:17:19.908Z</time></trkpt><trkpt lat="53.9163219" lon="-1.8349246"><ele>231.0</ele><time>2026-04-26T11:17:20.907Z</time></trkpt><trkpt lat="53.9164043" lon="-1.8348784"><ele>231.0</ele><time>2026-04-26T11:17:21.905Z</time></trkpt><trkpt lat="53.9164766" lon="-1.8348127"><ele>231.0</ele><time>2026-04-26T11:17:22.907Z</time></trkpt><trkpt lat="53.9165403" lon="-1.834732"><ele>231.0</ele><time>2026-04-26T11:17:23.899Z</time></trkpt><trkpt lat="53.9165984" lon="-1.8346345"><ele>231.0</ele><time>2026-04-26T11:17:24.905Z</time></trkpt><trkpt lat="53.9166503" lon="-1.8345121"><ele>231.0</ele><time>2026-04-26T11:17:25.904Z</time></trkpt><trkpt lat="53.9167094" lon="-1.834385"><ele>226.75</ele><time>2026-04-26T11:17:26.905Z</time></trkpt><trkpt lat="53.916791" lon="-1.8342569"><ele>222.5</ele><time>2026-04-26T11:17:27.905Z</time></trkpt><trkpt lat="53.9168927" lon="-1.8341493"><ele>218.25</ele><time>2026-04-26T11:17:28.906Z</time></trkpt><trkpt lat="53.9170045" lon="-1.8340742"><ele>214.0</ele><time>2026-04-26T11:17:29.907Z</time></trkpt><trkpt lat="53.9171136" lon="-1.8340255"><ele>213.99999999999997</ele><time>2026-04-26T11:17:30.906Z</time></trkpt><trkpt lat="53.9172125" lon="-1.8339976"><ele>214.0</ele><time>2026-04-26T11:17:31.897Z</time></trkpt><trkpt lat="53.917298" lon="-1.833968"><ele>214.0</ele><time>2026-04-26T11:17:32.906Z</time></trkpt><trkpt lat="53.9173706" lon="-1.8339181"><ele>214.0</ele><time>2026-04-26T11:17:33.912Z</time></trkpt><trkpt lat="53.9174273" lon="-1.8338377"><ele>213.99999999999997</ele><time>2026-04-26T11:17:34.908Z</time></trkpt><trkpt lat="53.9174612" lon="-1.8337141"><ele>214.0</ele><time>2026-04-26T11:17:35.906Z</time></trkpt><trkpt lat="53.9174705" lon="-1.8335402"><ele>213.25</ele><time>2026-04-26T11:17:36.908Z</time></trkpt><trkpt lat="53.9174684" lon="-1.8333367"><ele>212.5</ele><time>2026-04-26T11:17:37.907Z</time></trkpt><trkpt lat="53.9174582" lon="-1.8331099"><ele>211.75</ele><time>2026-04-26T11:17:38.908Z</time></trkpt><trkpt lat="53.9174648" lon="-1.8328812"><ele>211.0</ele><time>2026-04-26T11:17:39.91Z</time></trkpt><trkpt lat="53.9174866" lon="-1.8326495"><ele>210.75</ele><time>2026-04-26T11:17:40.909Z</time></trkpt><trkpt lat="53.9175268" lon="-1.8324192"><ele>210.5</ele><time>2026-04-26T11:17:41.906Z</time></trkpt><trkpt lat="53.9175816" lon="-1.8321883"><ele>210.25</ele><time>2026-04-26T11:17:42.905Z</time></trkpt><trkpt lat="53.9176447" lon="-1.8319567"><ele>210.0</ele><time>2026-04-26T11:17:43.909Z</time></trkpt><trkpt lat="53.9177153" lon="-1.8317443"><ele>206.25</ele><time>2026-04-26T11:17:44.904Z</time></trkpt><trkpt lat="53.9177786" lon="-1.8315444"><ele>202.5</ele><time>2026-04-26T11:17:45.905Z</time></trkpt><trkpt lat="53.9178309" lon="-1.8313475"><ele>198.75</ele><time>2026-04-26T11:17:46.905Z</time></trkpt><trkpt lat="53.9178776" lon="-1.8311613"><ele>195.0</ele><time>2026-04-26T11:17:47.903Z</time></trkpt><trkpt lat="53.9179285" lon="-1.8309922"><ele>193.5</ele><time>2026-04-26T11:17:48.897Z</time></trkpt><trkpt lat="53.9179911" lon="-1.8308301"><ele>192.0</ele><time>2026-04-26T11:17:49.903Z</time></trkpt><trkpt lat="53.9180741" lon="-1.8306742"><ele>190.5</ele><time>2026-04-26T11:17:50.906Z</time></trkpt><trkpt lat="53.9181715" lon="-1.8305265"><ele>189.0</ele><time>2026-04-26T11:17:51.896Z</time></trkpt><trkpt lat="53.9182684" lon="-1.830377"><ele>189.0</ele><time>2026-04-26T11:17:52.905Z</time></trkpt><trkpt lat="53.9183641" lon="-1.8302229"><ele>189.0</ele><time>2026-04-26T11:17:53.907Z</time></trkpt><trkpt lat="53.9184573" lon="-1.8300641"><ele>189.0</ele><time>2026-04-26T11:17:54.905Z</time></trkpt><trkpt lat="53.9185461" lon="-1.829909"><ele>189.0</ele><time>2026-04-26T11:17:55.907Z</time></trkpt><trkpt lat="53.9186251" lon="-1.8297682"><ele>186.83333333333334</ele><time>2026-04-26T11:17:56.904Z</time></trkpt><trkpt lat="53.9186923" lon="-1.8296475"><ele>184.66666666666666</ele><time>2026-04-26T11:17:57.903Z</time></trkpt><trkpt lat="53.9187499" lon="-1.8295454"><ele>182.5</ele><time>2026-04-26T11:17:58.897Z</time></trkpt><trkpt lat="53.9188261" lon="-1.8294226"><ele>180.33333333333331</ele><time>2026-04-26T11:18:00.906Z</time></trkpt><trkpt lat="53.9189069" lon="-1.8293473"><ele>178.16666666666666</ele><time>2026-04-26T11:18:57.905Z</time></trkpt><trkpt lat="53.9189191" lon="-1.8292354"><ele>176.0</ele><time>2026-04-26T11:18:58.905Z</time></trkpt><trkpt lat="53.9189263" lon="-1.8290931"><ele>176.0</ele><time>2026-04-26T11:18:59.906Z</time></trkpt><trkpt lat="53.9189345" lon="-1.8289495"><ele>176.0</ele><time>2026-04-26T11:19:00.907Z</time></trkpt><trkpt lat="53.9189399" lon="-1.8288127"><ele>176.0</ele><time>2026-04-26T11:19:01.908Z</time></trkpt><trkpt lat="53.9189444" lon="-1.8286831"><ele>176.0</ele><time>2026-04-26T11:19:02.908Z</time></trkpt><trkpt lat="53.9189522" lon="-1.8285451"><ele>176.0</ele><time>2026-04-26T11:19:03.908Z</time></trkpt><trkpt lat="53.9189616" lon="-1.8283946"><ele>176.0</ele><time>2026-04-26T11:19:04.907Z</time></trkpt><trkpt lat="53.9189738" lon="-1.8282433"><ele>175.85714285714286</ele><time>2026-04-26T11:19:05.91Z</time></trkpt><trkpt lat="53.9189856" lon="-1.8280988"><ele>175.71428571428572</ele><time>2026-04-26T11:19:06.897Z</time></trkpt><trkpt lat="53.9189984" lon="-1.827967"><ele>175.57142857142856</ele><time>2026-04-26T11:19:07.909Z</time></trkpt><trkpt lat="53.9190142" lon="-1.8278425"><ele>175.42857142857144</ele><time>2026-04-26T11:19:08.909Z</time></trkpt><trkpt lat="53.919028" lon="-1.8277235"><ele>175.28571428571428</ele><time>2026-04-26T11:19:09.91Z</time></trkpt><trkpt lat="53.9190357" lon="-1.8276091"><ele>175.14285714285714</ele><time>2026-04-26T11:19:10.905Z</time></trkpt><trkpt lat="53.9190401" lon="-1.8274897"><ele>175.0</ele><time>2026-04-26T11:19:11.911Z</time></trkpt><trkpt lat="53.9190473" lon="-1.8273669"><ele>174.66666666666669</ele><time>2026-04-26T11:19:12.903Z</time></trkpt><trkpt lat="53.9190582" lon="-1.8272426"><ele>174.33333333333334</ele><time>2026-04-26T11:19:13.913Z</time></trkpt><trkpt lat="53.919072" lon="-1.8271212"><ele>174.0</ele><time>2026-04-26T11:19:14.912Z</time></trkpt><trkpt lat="53.9190836" lon="-1.8269949"><ele>173.66666666666666</ele><time>2026-04-26T11:19:15.91Z</time></trkpt><trkpt lat="53.9190951" lon="-1.8268691"><ele>173.33333333333331</ele><time>2026-04-26T11:19:16.909Z</time></trkpt><trkpt lat="53.9191075" lon="-1.8267448"><ele>173.0</ele><time>2026-04-26T11:19:17.91Z</time></trkpt><trkpt lat="53.9191217" lon="-1.8266098"><ele>172.5</ele><time>2026-04-26T11:19:18.908Z</time></trkpt><trkpt lat="53.9191315" lon="-1.8264622"><ele>172.0</ele><time>2026-04-26T11:19:19.91Z</time></trkpt><trkpt lat="53.9191346" lon="-1.8263136"><ele>171.5</ele><time>2026-04-26T11:19:20.91Z</time></trkpt><trkpt lat="53.91914" lon="-1.8261682"><ele>171.0</ele><time>2026-04-26T11:19:21.912Z</time></trkpt><trkpt lat="53.9191533" lon="-1.8260232"><ele>170.5</ele><time>2026-04-26T11:19:22.907Z</time></trkpt><trkpt lat="53.9191732" lon="-1.8258782"><ele>170.0</ele><time>2026-04-26T11:19:23.912Z</time></trkpt><trkpt lat="53.9191889" lon="-1.8257285"><ele>169.2</ele><time>2026-04-26T11:19:24.91Z</time></trkpt><trkpt lat="53.9191986" lon="-1.8255704"><ele>168.4</ele><time>2026-04-26T11:19:25.905Z</time></trkpt><trkpt lat="53.9192038" lon="-1.8254046"><ele>167.60000000000002</ele><time>2026-04-26T11:19:26.907Z</time></trkpt><trkpt lat="53.919212" lon="-1.825244"><ele>166.8</ele><time>2026-04-26T11:19:27.905Z</time></trkpt><trkpt lat="53.9192211" lon="-1.8250974"><ele>166.0</ele><time>2026-04-26T11:19:28.903Z</time></trkpt><trkpt lat="53.9192325" lon="-1.8249593"><ele>164.0</ele><time>2026-04-26T11:19:29.906Z</time></trkpt><trkpt lat="53.9192544" lon="-1.8248244"><ele>162.0</ele><time>2026-04-26T11:19:30.907Z</time></trkpt><trkpt lat="53.9192767" lon="-1.8247004"><ele>160.0</ele><time>2026-04-26T11:19:31.908Z</time></trkpt><trkpt lat="53.9192939" lon="-1.8245916"><ele>158.0</ele><time>2026-04-26T11:19:32.899Z</time></trkpt><trkpt lat="53.9193195" lon="-1.824405"><ele>156.0</ele><time>2026-04-26T11:19:34.908Z</time></trkpt><trkpt lat="53.9193634" lon="-1.8242003"><ele>155.4</ele><time>2026-04-26T11:19:36.908Z</time></trkpt><trkpt lat="53.9194082" lon="-1.8240773"><ele>154.8</ele><time>2026-04-26T11:19:37.91Z</time></trkpt><trkpt lat="53.919463" lon="-1.8239442"><ele>154.20000000000002</ele><time>2026-04-26T11:19:38.907Z</time></trkpt><trkpt lat="53.9195229" lon="-1.8238017"><ele>153.6</ele><time>2026-04-26T11:19:39.907Z</time></trkpt><trkpt lat="53.919581" lon="-1.8236566"><ele>153.0</ele><time>2026-04-26T11:19:40.909Z</time></trkpt><trkpt lat="53.9196387" lon="-1.8235259"><ele>152.33333333333334</ele><time>2026-04-26T11:19:41.905Z</time></trkpt><trkpt lat="53.9196967" lon="-1.8234147"><ele>151.66666666666666</ele><time>2026-04-26T11:19:42.911Z</time></trkpt><trkpt lat="53.9197565" lon="-1.8233226"><ele>151.0</ele><time>2026-04-26T11:19:43.91Z</time></trkpt><trkpt lat="53.9198299" lon="-1.8232192"><ele>150.33333333333331</ele><time>2026-04-26T11:19:45.908Z</time></trkpt><trkpt lat="53.9198837" lon="-1.8231473"><ele>149.66666666666666</ele><time>2026-04-26T11:19:49.91Z</time></trkpt><trkpt lat="53.9199368" lon="-1.8230715"><ele>149.0</ele><time>2026-04-26T11:19:51.909Z</time></trkpt><trkpt lat="53.9200107" lon="-1.8229898"><ele>147.0</ele><time>2026-04-26T11:19:53.91Z</time></trkpt><trkpt lat="53.9200881" lon="-1.8229086"><ele>145.0</ele><time>2026-04-26T11:19:55.912Z</time></trkpt><trkpt lat="53.9201802" lon="-1.8228297"><ele>143.0</ele><time>2026-04-26T11:19:57.907Z</time></trkpt><trkpt lat="53.9202597" lon="-1.8227404"><ele>141.0</ele><time>2026-04-26T11:19:59.905Z</time></trkpt><trkpt lat="53.920336" lon="-1.8226513"><ele>139.0</ele><time>2026-04-26T11:20:01.909Z</time></trkpt><trkpt lat="53.9204076" lon="-1.8225747"><ele>139.0</ele><time>2026-04-26T11:20:03.908Z</time></trkpt><trkpt lat="53.9204716" lon="-1.8225051"><ele>139.0</ele><time>2026-04-26T11:20:05.907Z</time></trkpt><trkpt lat="53.9205489" lon="-1.8224571"><ele>139.0</ele><time>2026-04-26T11:20:07.906Z</time></trkpt><trkpt lat="53.9206246" lon="-1.8224201"><ele>139.0</ele><time>2026-04-26T11:20:09.906Z</time></trkpt><trkpt lat="53.9207524" lon="-1.8223765"><ele>139.0</ele><time>2026-04-26T11:20:11.905Z</time></trkpt><trkpt lat="53.9208543" lon="-1.8223522"><ele>137.0</ele><time>2026-04-26T11:20:12.905Z</time></trkpt><trkpt lat="53.9209844" lon="-1.8223451"><ele>135.0</ele><time>2026-04-26T11:20:13.909Z</time></trkpt><trkpt lat="53.9211233" lon="-1.8223588"><ele>133.0</ele><time>2026-04-26T11:20:14.906Z</time></trkpt><trkpt lat="53.921253" lon="-1.8223818"><ele>131.0</ele><time>2026-04-26T11:20:15.905Z</time></trkpt><trkpt lat="53.9213773" lon="-1.8224058"><ele>131.0</ele><time>2026-04-26T11:20:16.906Z</time></trkpt><trkpt lat="53.9214925" lon="-1.8224299"><ele>131.0</ele><time>2026-04-26T11:20:17.906Z</time></trkpt><trkpt lat="53.9215979" lon="-1.8224474"><ele>131.0</ele><time>2026-04-26T11:20:18.908Z</time></trkpt><trkpt lat="53.9216929" lon="-1.8224553"><ele>131.0</ele><time>2026-04-26T11:20:19.907Z</time></trkpt><trkpt lat="53.9217868" lon="-1.8224571"><ele>131.0</ele><time>2026-04-26T11:20:20.908Z</time></trkpt><trkpt lat="53.921876" lon="-1.8224604"><ele>129.66666666666666</ele><time>2026-04-26T11:20:21.909Z</time></trkpt><trkpt lat="53.9219602" lon="-1.8224782"><ele>128.33333333333331</ele><time>2026-04-26T11:20:22.903Z</time></trkpt><trkpt lat="53.9220447" lon="-1.8225202"><ele>127.0</ele><time>2026-04-26T11:20:23.905Z</time></trkpt><trkpt lat="53.9221244" lon="-1.8225751"><ele>125.66666666666666</ele><time>2026-04-26T11:20:24.906Z</time></trkpt><trkpt lat="53.9221952" lon="-1.8226378"><ele>124.33333333333333</ele><time>2026-04-26T11:20:25.905Z</time></trkpt><trkpt lat="53.9222595" lon="-1.8227099"><ele>123.0</ele><time>2026-04-26T11:20:26.907Z</time></trkpt><trkpt lat="53.9223216" lon="-1.822789"><ele>122.4</ele><time>2026-04-26T11:20:27.901Z</time></trkpt><trkpt lat="53.922391" lon="-1.8228774"><ele>121.80000000000001</ele><time>2026-04-26T11:20:28.905Z</time></trkpt><trkpt lat="53.9224757" lon="-1.822954"><ele>121.2</ele><time>2026-04-26T11:20:29.909Z</time></trkpt><trkpt lat="53.9225655" lon="-1.8230123"><ele>120.6</ele><time>2026-04-26T11:20:30.903Z</time></trkpt><trkpt lat="53.9226496" lon="-1.8230491"><ele>120.0</ele><time>2026-04-26T11:20:31.904Z</time></trkpt><trkpt lat="53.9227335" lon="-1.8230769"><ele>118.33333333333333</ele><time>2026-04-26T11:20:32.906Z</time></trkpt><trkpt lat="53.9228187" lon="-1.8231059"><ele>116.66666666666666</ele><time>2026-04-26T11:20:33.908Z</time></trkpt><trkpt lat="53.9229037" lon="-1.823133"><ele>115.0</ele><time>2026-04-26T11:20:34.907Z</time></trkpt><trkpt lat="53.9229867" lon="-1.8231581"><ele>113.33333333333333</ele><time>2026-04-26T11:20:35.907Z</time></trkpt><trkpt lat="53.9230695" lon="-1.823172"><ele>111.66666666666666</ele><time>2026-04-26T11:20:36.907Z</time></trkpt><trkpt lat="53.9231548" lon="-1.8231795"><ele>110.0</ele><time>2026-04-26T11:20:37.907Z</time></trkpt><trkpt lat="53.9232451" lon="-1.823178"><ele>109.99999999999999</ele><time>2026-04-26T11:20:38.906Z</time></trkpt><trkpt lat="53.9233369" lon="-1.8231703"><ele>110.0</ele><time>2026-04-26T11:20:39.913Z</time></trkpt><trkpt lat="53.9234244" lon="-1.8231587"><ele>110.0</ele><time>2026-04-26T11:20:40.913Z</time></trkpt><trkpt lat="53.9235056" lon="-1.8231466"><ele>110.0</ele><time>2026-04-26T11:20:41.908Z</time></trkpt><trkpt lat="53.9235794" lon="-1.8231401"><ele>109.99999999999999</ele><time>2026-04-26T11:20:42.904Z</time></trkpt><trkpt lat="53.9236491" lon="-1.8231361"><ele>110.0</ele><time>2026-04-26T11:20:43.911Z</time></trkpt><trkpt lat="53.9237155" lon="-1.8231318"><ele>108.99999999999999</ele><time>2026-04-26T11:20:44.91Z</time></trkpt><trkpt lat="53.9237812" lon="-1.8231303"><ele>108.0</ele><time>2026-04-26T11:20:45.909Z</time></trkpt><trkpt lat="53.9238462" lon="-1.8231342"><ele>107.0</ele><time>2026-04-26T11:20:46.91Z</time></trkpt><trkpt lat="53.9239105" lon="-1.8231468"><ele>106.0</ele><time>2026-04-26T11:20:47.908Z</time></trkpt><trkpt lat="53.9239783" lon="-1.8231657"><ele>105.0</ele><time>2026-04-26T11:20:48.908Z</time></trkpt><trkpt lat="53.9240517" lon="-1.8231797"><ele>103.99999999999999</ele><time>2026-04-26T11:20:49.909Z</time></trkpt><trkpt lat="53.9241253" lon="-1.8231825"><ele>103.0</ele><time>2026-04-26T11:20:50.908Z</time></trkpt><trkpt lat="53.9241947" lon="-1.8231778"><ele>101.66666666666667</ele><time>2026-04-26T11:20:51.909Z</time></trkpt><trkpt lat="53.9242587" lon="-1.8231697"><ele>100.33333333333334</ele><time>2026-04-26T11:20:52.906Z</time></trkpt><trkpt lat="53.9243471" lon="-1.8231471"><ele>99.0</ele><time>2026-04-26T11:20:54.904Z</time></trkpt><trkpt lat="53.9244219" lon="-1.8231571"><ele>97.66666666666667</ele><time>2026-04-26T11:20:58.906Z</time></trkpt><trkpt lat="53.9244858" lon="-1.8232762"><ele>96.33333333333334</ele><time>2026-04-26T11:21:01.908Z</time></trkpt><trkpt lat="53.9245102" lon="-1.8234427"><ele>95.0</ele><time>2026-04-26T11:21:03.909Z</time></trkpt><trkpt lat="53.9245093" lon="-1.8235782"><ele>95.0</ele><time>2026-04-26T11:21:05.907Z</time></trkpt><trkpt lat="53.9245038" lon="-1.8236872"><ele>95.0</ele><time>2026-04-26T11:21:08.898Z</time></trkpt><trkpt lat="53.9245043" lon="-1.8238183"><ele>95.0</ele><time>2026-04-26T11:21:11.903Z</time></trkpt><trkpt lat="53.9245084" lon="-1.8239366"><ele>95.0</ele><time>2026-04-26T11:21:14.905Z</time></trkpt><trkpt lat="53.9245148" lon="-1.8240507"><ele>95.0</ele><time>2026-04-26T11:21:16.908Z</time></trkpt><trkpt lat="53.9245182" lon="-1.8241848"><ele>95.0</ele><time>2026-04-26T11:21:18.907Z</time></trkpt><trkpt lat="53.9245261" lon="-1.8243569"><ele>94.83333333333334</ele><time>2026-04-26T11:21:20.909Z</time></trkpt><trkpt lat="53.9245237" lon="-1.8244967"><ele>94.66666666666667</ele><time>2026-04-26T11:21:22.905Z</time></trkpt><trkpt lat="53.9245345" lon="-1.8246157"><ele>94.5</ele><time>2026-04-26T11:21:24.907Z</time></trkpt><trkpt lat="53.9245417" lon="-1.8247543"><ele>94.33333333333333</ele><time>2026-04-26T11:21:26.903Z</time></trkpt><trkpt lat="53.9245458" lon="-1.8248978"><ele>94.16666666666666</ele><time>2026-04-26T11:21:28.906Z</time></trkpt><trkpt lat="53.9245497" lon="-1.8250281"><ele>94.0</ele><time>2026-04-26T11:21:30.906Z</time></trkpt><trkpt lat="53.9245474" lon="-1.8251475"><ele>94.0</ele><time>2026-04-26T11:21:32.909Z</time></trkpt><trkpt lat="53.924552" lon="-1.8252959"><ele>94.0</ele><time>2026-04-26T11:21:34.898Z</time></trkpt><trkpt lat="53.9245535" lon="-1.825455"><ele>94.0</ele><time>2026-04-26T11:21:36.911Z</time></trkpt><trkpt lat="53.9245541" lon="-1.8255843"><ele>94.0</ele><time>2026-04-26T11:21:39.908Z</time></trkpt><trkpt lat="53.9245602" lon="-1.8257143"><ele>94.0</ele><time>2026-04-26T11:21:42.903Z</time></trkpt><trkpt lat="53.9245668" lon="-1.8258295"><ele>94.0</ele><time>2026-04-26T11:21:44.905Z</time></trkpt><trkpt lat="53.9245781" lon="-1.8260125"><ele>94.0</ele><time>2026-04-26T11:21:46.907Z</time></trkpt><trkpt lat="53.9245806" lon="-1.8262034"><ele>94.0</ele><time>2026-04-26T11:21:48.904Z</time></trkpt><trkpt lat="53.9245917" lon="-1.8263989"><ele>94.0</ele><time>2026-04-26T11:21:50.906Z</time></trkpt><trkpt lat="53.9245974" lon="-1.8265148"><ele>94.0</ele><time>2026-04-26T11:21:51.906Z</time></trkpt><trkpt lat="53.9246013" lon="-1.8266354"><ele>94.0</ele><time>2026-04-26T11:21:52.906Z</time></trkpt><trkpt lat="53.9246056" lon="-1.8267596"><ele>94.0</ele><time>2026-04-26T11:21:53.909Z</time></trkpt><trkpt lat="53.924608" lon="-1.8268767"><ele>94.0</ele><time>2026-04-26T11:21:54.906Z</time></trkpt><trkpt lat="53.9246083" lon="-1.8269937"><ele>94.0</ele><time>2026-04-26T11:21:55.906Z</time></trkpt><trkpt lat="53.9246086" lon="-1.827115"><ele>94.0</ele><time>2026-04-26T11:21:56.901Z</time></trkpt><trkpt lat="53.9246078" lon="-1.8272432"><ele>94.0</ele><time>2026-04-26T11:21:57.906Z</time></trkpt><trkpt lat="53.9246086" lon="-1.8273823"><ele>94.0</ele><time>2026-04-26T11:21:58.906Z</time></trkpt><trkpt lat="53.9246108" lon="-1.827525"><ele>94.0</ele><time>2026-04-26T11:21:59.905Z</time></trkpt><trkpt lat="53.9246136" lon="-1.8276592"><ele>94.0</ele><time>2026-04-26T11:22:00.907Z</time></trkpt><trkpt lat="53.9246262" lon="-1.8277848"><ele>94.0</ele><time>2026-04-26T11:22:01.907Z</time></trkpt><trkpt lat="53.9246497" lon="-1.8279074"><ele>94.0</ele><time>2026-04-26T11:22:02.909Z</time></trkpt><trkpt lat="53.9246784" lon="-1.8280274"><ele>94.0</ele><time>2026-04-26T11:22:03.909Z</time></trkpt><trkpt lat="53.9247079" lon="-1.8281459"><ele>94.0</ele><time>2026-04-26T11:22:04.908Z</time></trkpt><trkpt lat="53.924739" lon="-1.8282627"><ele>94.0</ele><time>2026-04-26T11:22:05.907Z</time></trkpt><trkpt lat="53.9247727" lon="-1.8283789"><ele>94.28571428571428</ele><time>2026-04-26T11:22:06.911Z</time></trkpt><trkpt lat="53.9248114" lon="-1.828492"><ele>94.57142857142857</ele><time>2026-04-26T11:22:07.907Z</time></trkpt><trkpt lat="53.9248515" lon="-1.8285931"><ele>94.85714285714286</ele><time>2026-04-26T11:22:08.906Z</time></trkpt><trkpt lat="53.9248946" lon="-1.8286826"><ele>95.14285714285714</ele><time>2026-04-26T11:22:09.908Z</time></trkpt><trkpt lat="53.9249424" lon="-1.8287605"><ele>95.42857142857143</ele><time>2026-04-26T11:22:10.909Z</time></trkpt><trkpt lat="53.9249975" lon="-1.8288284"><ele>95.71428571428571</ele><time>2026-04-26T11:22:11.906Z</time></trkpt><trkpt lat="53.9250608" lon="-1.8288838"><ele>96.0</ele><time>2026-04-26T11:22:12.904Z</time></trkpt><trkpt lat="53.9251319" lon="-1.8289262"><ele>95.0</ele><time>2026-04-26T11:22:13.912Z</time></trkpt><trkpt lat="53.9252103" lon="-1.8289563"><ele>94.0</ele><time>2026-04-26T11:22:14.906Z</time></trkpt><trkpt lat="53.9252853" lon="-1.828971"><ele>93.0</ele><time>2026-04-26T11:22:15.906Z</time></trkpt><trkpt lat="53.9253649" lon="-1.828985"><ele>92.0</ele><time>2026-04-26T11:22:16.905Z</time></trkpt><trkpt lat="53.9254435" lon="-1.8289958"><ele>91.0</ele><time>2026-04-26T11:22:17.91Z</time></trkpt><trkpt lat="53.9255233" lon="-1.8290032"><ele>90.0</ele><time>2026-04-26T11:22:18.91Z</time></trkpt><trkpt lat="53.9256064" lon="-1.8290082"><ele>90.0</ele><time>2026-04-26T11:22:19.908Z</time></trkpt><trkpt lat="53.9256884" lon="-1.8290181"><ele>90.0</ele><time>2026-04-26T11:22:20.907Z</time></trkpt><trkpt lat="53.9257633" lon="-1.8290266"><ele>90.0</ele><time>2026-04-26T11:22:21.906Z</time></trkpt><trkpt lat="53.925833" lon="-1.8290253"><ele>90.0</ele><time>2026-04-26T11:22:22.908Z</time></trkpt><trkpt lat="53.9259025" lon="-1.8290194"><ele>90.0</ele><time>2026-04-26T11:22:23.906Z</time></trkpt><trkpt lat="53.925972" lon="-1.8290154"><ele>90.0</ele><time>2026-04-26T11:22:24.908Z</time></trkpt><trkpt lat="53.9260395" lon="-1.829013"><ele>90.0</ele><time>2026-04-26T11:22:25.905Z</time></trkpt><trkpt lat="53.9261037" lon="-1.8290103"><ele>89.8</ele><time>2026-04-26T11:22:26.908Z</time></trkpt><trkpt lat="53.9262086" lon="-1.829027"><ele>89.6</ele><time>2026-04-26T11:22:28.906Z</time></trkpt><trkpt lat="53.9263089" lon="-1.8291143"><ele>89.4</ele><time>2026-04-26T11:22:30.906Z</time></trkpt><trkpt lat="53.9263669" lon="-1.8292023"><ele>89.2</ele><time>2026-04-26T11:22:31.907Z</time></trkpt><trkpt lat="53.9264282" lon="-1.8293172"><ele>89.0</ele><time>2026-04-26T11:22:32.907Z</time></trkpt><trkpt lat="53.9264968" lon="-1.8294539"><ele>89.0</ele><time>2026-04-26T11:22:33.912Z</time></trkpt><trkpt lat="53.9265684" lon="-1.8296074"><ele>89.0</ele><time>2026-04-26T11:22:34.909Z</time></trkpt><trkpt lat="53.9266439" lon="-1.8297711"><ele>89.0</ele><time>2026-04-26T11:22:35.905Z</time></trkpt><trkpt lat="53.9267216" lon="-1.8299285"><ele>89.0</ele><time>2026-04-26T11:22:36.909Z</time></trkpt><trkpt lat="53.9267954" lon="-1.8300789"><ele>88.6</ele><time>2026-04-26T11:22:37.907Z</time></trkpt><trkpt lat="53.9268665" lon="-1.8302291"><ele>88.2</ele><time>2026-04-26T11:22:38.908Z</time></trkpt><trkpt lat="53.9269347" lon="-1.8303847"><ele>87.8</ele><time>2026-04-26T11:22:39.908Z</time></trkpt><trkpt lat="53.9269973" lon="-1.8305427"><ele>87.39999999999999</ele><time>2026-04-26T11:22:40.909Z</time></trkpt><trkpt lat="53.9270579" lon="-1.8306952"><ele>87.0</ele><time>2026-04-26T11:22:41.905Z</time></trkpt><trkpt lat="53.9271141" lon="-1.8308423"><ele>87.8</ele><time>2026-04-26T11:22:42.904Z</time></trkpt><trkpt lat="53.9271666" lon="-1.830981"><ele>88.6</ele><time>2026-04-26T11:22:43.909Z</time></trkpt><trkpt lat="53.9272194" lon="-1.8311057"><ele>89.39999999999999</ele><time>2026-04-26T11:22:44.906Z</time></trkpt><trkpt lat="53.927274" lon="-1.8312356"><ele>90.19999999999999</ele><time>2026-04-26T11:22:45.907Z</time></trkpt><trkpt lat="53.9273282" lon="-1.8313733"><ele>91.0</ele><time>2026-04-26T11:22:46.907Z</time></trkpt><trkpt lat="53.9273816" lon="-1.8315249"><ele>91.0</ele><time>2026-04-26T11:22:47.906Z</time></trkpt><trkpt lat="53.9274299" lon="-1.8316875"><ele>91.0</ele><time>2026-04-26T11:22:48.906Z</time></trkpt><trkpt lat="53.9274716" lon="-1.831861"><ele>91.0</ele><time>2026-04-26T11:22:49.906Z</time></trkpt><trkpt lat="53.9275093" lon="-1.8320456"><ele>91.0</ele><time>2026-04-26T11:22:50.908Z</time></trkpt><trkpt lat="53.9275474" lon="-1.8322374"><ele>90.25</ele><time>2026-04-26T11:22:51.907Z</time></trkpt><trkpt lat="53.9275816" lon="-1.8324333"><ele>89.5</ele><time>2026-04-26T11:22:52.906Z</time></trkpt><trkpt lat="53.9276102" lon="-1.8326325"><ele>88.75</ele><time>2026-04-26T11:22:53.904Z</time></trkpt><trkpt lat="53.9276336" lon="-1.8328363"><ele>88.0</ele><time>2026-04-26T11:22:54.907Z</time></trkpt><trkpt lat="53.9276541" lon="-1.8330406"><ele>88.0</ele><time>2026-04-26T11:22:55.908Z</time></trkpt><trkpt lat="53.9276743" lon="-1.8332385"><ele>88.0</ele><time>2026-04-26T11:22:56.905Z</time></trkpt><trkpt lat="53.9276934" lon="-1.8334319"><ele>88.0</ele><time>2026-04-26T11:22:57.906Z</time></trkpt><trkpt lat="53.9277146" lon="-1.8336237"><ele>88.0</ele><time>2026-04-26T11:22:58.907Z</time></trkpt><trkpt lat="53.9277415" lon="-1.833814"><ele>88.60000000000001</ele><time>2026-04-26T11:22:59.906Z</time></trkpt><trkpt lat="53.9277704" lon="-1.8340006"><ele>89.2</ele><time>2026-04-26T11:23:00.907Z</time></trkpt><trkpt lat="53.9277993" lon="-1.8341823"><ele>89.8</ele><time>2026-04-26T11:23:01.907Z</time></trkpt><trkpt lat="53.9278285" lon="-1.8343578"><ele>90.4</ele><time>2026-04-26T11:23:02.908Z</time></trkpt><trkpt lat="53.9278574" lon="-1.8345284"><ele>91.0</ele><time>2026-04-26T11:23:03.908Z</time></trkpt><trkpt lat="53.9278848" lon="-1.8346943"><ele>91.19999999999999</ele><time>2026-04-26T11:23:04.906Z</time></trkpt><trkpt lat="53.9279105" lon="-1.8348589"><ele>91.39999999999999</ele><time>2026-04-26T11:23:05.907Z</time></trkpt><trkpt lat="53.927937" lon="-1.8350254"><ele>91.6</ele><time>2026-04-26T11:23:06.908Z</time></trkpt><trkpt lat="53.9279643" lon="-1.8351949"><ele>91.8</ele><time>2026-04-26T11:23:07.909Z</time></trkpt><trkpt lat="53.9279934" lon="-1.8353688"><ele>92.0</ele><time>2026-04-26T11:23:08.911Z</time></trkpt><trkpt lat="53.9280212" lon="-1.8355483"><ele>92.39999999999999</ele><time>2026-04-26T11:23:09.911Z</time></trkpt><trkpt lat="53.9280489" lon="-1.8357286"><ele>92.8</ele><time>2026-04-26T11:23:10.907Z</time></trkpt><trkpt lat="53.9280739" lon="-1.8359066"><ele>93.2</ele><time>2026-04-26T11:23:11.906Z</time></trkpt><trkpt lat="53.9280963" lon="-1.8360839"><ele>93.6</ele><time>2026-04-26T11:23:12.91Z</time></trkpt><trkpt lat="53.9281151" lon="-1.8362652"><ele>94.0</ele><time>2026-04-26T11:23:13.908Z</time></trkpt><trkpt lat="53.928126" lon="-1.8364453"><ele>94.0</ele><time>2026-04-26T11:23:14.905Z</time></trkpt><trkpt lat="53.9281286" lon="-1.8366268"><ele>94.0</ele><time>2026-04-26T11:23:15.907Z</time></trkpt><trkpt lat="53.9281215" lon="-1.8367941"><ele>94.0</ele><time>2026-04-26T11:23:16.908Z</time></trkpt><trkpt lat="53.9281057" lon="-1.8369192"><ele>94.0</ele><time>2026-04-26T11:23:17.909Z</time></trkpt><trkpt lat="53.9280755" lon="-1.8370249"><ele>94.0</ele><time>2026-04-26T11:23:19.907Z</time></trkpt><trkpt lat="53.9281309" lon="-1.8369449"><ele>94.0</ele><time>2026-04-26T11:24:12.904Z</time></trkpt><trkpt lat="53.9281602" lon="-1.8368401"><ele>94.0</ele><time>2026-04-26T11:24:13.902Z</time></trkpt><trkpt lat="53.9281673" lon="-1.8366742"><ele>94.0</ele><time>2026-04-26T11:24:14.906Z</time></trkpt><trkpt lat="53.9281598" lon="-1.8364832"><ele>94.0</ele><time>2026-04-26T11:24:15.904Z</time></trkpt><trkpt lat="53.9281454" lon="-1.8362761"><ele>94.0</ele><time>2026-04-26T11:24:16.906Z</time></trkpt><trkpt lat="53.9281265" lon="-1.8360613"><ele>94.0</ele><time>2026-04-26T11:24:17.906Z</time></trkpt><trkpt lat="53.9281042" lon="-1.8358499"><ele>94.0</ele><time>2026-04-26T11:24:18.904Z</time></trkpt><trkpt lat="53.9280776" lon="-1.8356506"><ele>94.0</ele><time>2026-04-26T11:24:19.905Z</time></trkpt><trkpt lat="53.9280509" lon="-1.8354689"><ele>94.0</ele><time>2026-04-26T11:24:20.906Z</time></trkpt><trkpt lat="53.9280253" lon="-1.8352962"><ele>93.6</ele><time>2026-04-26T11:24:21.905Z</time></trkpt><trkpt lat="53.9279995" lon="-1.8351257"><ele>93.2</ele><time>2026-04-26T11:24:22.905Z</time></trkpt><trkpt lat="53.9279732" lon="-1.834951"><ele>92.8</ele><time>2026-04-26T11:24:23.909Z</time></trkpt><trkpt lat="53.9279471" lon="-1.8347769"><ele>92.39999999999999</ele><time>2026-04-26T11:24:24.907Z</time></trkpt><trkpt lat="53.9279204" lon="-1.8346017"><ele>92.0</ele><time>2026-04-26T11:24:25.905Z</time></trkpt><trkpt lat="53.927895" lon="-1.834431"><ele>91.83333333333334</ele><time>2026-04-26T11:24:26.905Z</time></trkpt><trkpt lat="53.9278706" lon="-1.8342672"><ele>91.66666666666667</ele><time>2026-04-26T11:24:27.905Z</time></trkpt><trkpt lat="53.9278479" lon="-1.8341181"><ele>91.5</ele><time>2026-04-26T11:24:28.904Z</time></trkpt><trkpt lat="53.9278256" lon="-1.8339818"><ele>91.33333333333333</ele><time>2026-04-26T11:24:29.905Z</time></trkpt><trkpt lat="53.9278047" lon="-1.8338511"><ele>91.16666666666666</ele><time>2026-04-26T11:24:30.904Z</time></trkpt><trkpt lat="53.9277852" lon="-1.8337256"><ele>91.0</ele><time>2026-04-26T11:24:31.91Z</time></trkpt><trkpt lat="53.9277683" lon="-1.8336058"><ele>91.0</ele><time>2026-04-26T11:24:32.908Z</time></trkpt><trkpt lat="53.9277535" lon="-1.8334844"><ele>91.0</ele><time>2026-04-26T11:24:33.914Z</time></trkpt><trkpt lat="53.927741" lon="-1.8333653"><ele>91.0</ele><time>2026-04-26T11:24:34.908Z</time></trkpt><trkpt lat="53.9277263" lon="-1.8332461"><ele>91.0</ele><time>2026-04-26T11:24:35.909Z</time></trkpt><trkpt lat="53.9277106" lon="-1.8331177"><ele>91.0</ele><time>2026-04-26T11:24:36.911Z</time></trkpt><trkpt lat="53.9276935" lon="-1.8329768"><ele>91.0</ele><time>2026-04-26T11:24:37.911Z</time></trkpt><trkpt lat="53.9276734" lon="-1.8328225"><ele>90.4</ele><time>2026-04-26T11:24:38.911Z</time></trkpt><trkpt lat="53.9276535" lon="-1.8326638"><ele>89.8</ele><time>2026-04-26T11:24:39.906Z</time></trkpt><trkpt lat="53.9276348" lon="-1.832506"><ele>89.2</ele><time>2026-04-26T11:24:40.907Z</time></trkpt><trkpt lat="53.9276158" lon="-1.8323471"><ele>88.60000000000001</ele><time>2026-04-26T11:24:41.905Z</time></trkpt><trkpt lat="53.9275936" lon="-1.8321869"><ele>88.0</ele><time>2026-04-26T11:24:42.904Z</time></trkpt><trkpt lat="53.9275699" lon="-1.8320302"><ele>88.5</ele><time>2026-04-26T11:24:43.91Z</time></trkpt><trkpt lat="53.9275437" lon="-1.831886"><ele>89.0</ele><time>2026-04-26T11:24:44.906Z</time></trkpt><trkpt lat="53.927513" lon="-1.8317524"><ele>89.5</ele><time>2026-04-26T11:24:45.905Z</time></trkpt><trkpt lat="53.9274775" lon="-1.8316239"><ele>90.0</ele><time>2026-04-26T11:24:46.909Z</time></trkpt><trkpt lat="53.927441" lon="-1.8315064"><ele>90.5</ele><time>2026-04-26T11:24:47.905Z</time></trkpt><trkpt lat="53.9274039" lon="-1.8313996"><ele>91.0</ele><time>2026-04-26T11:24:48.907Z</time></trkpt><trkpt lat="53.9273637" lon="-1.8312928"><ele>91.0</ele><time>2026-04-26T11:24:49.905Z</time></trkpt><trkpt lat="53.9273166" lon="-1.8311747"><ele>91.0</ele><time>2026-04-26T11:24:50.904Z</time></trkpt><trkpt lat="53.927262" lon="-1.8310423"><ele>91.0</ele><time>2026-04-26T11:24:51.907Z</time></trkpt><trkpt lat="53.9272024" lon="-1.8309004"><ele>91.0</ele><time>2026-04-26T11:24:52.905Z</time></trkpt><trkpt lat="53.927147" lon="-1.8307669"><ele>91.0</ele><time>2026-04-26T11:24:53.91Z</time></trkpt><trkpt lat="53.9270983" lon="-1.8306491"><ele>90.33333333333333</ele><time>2026-04-26T11:24:54.906Z</time></trkpt><trkpt lat="53.9270543" lon="-1.8305426"><ele>89.66666666666666</ele><time>2026-04-26T11:24:55.907Z</time></trkpt><trkpt lat="53.9270099" lon="-1.8304441"><ele>89.0</ele><time>2026-04-26T11:24:56.906Z</time></trkpt><trkpt lat="53.9269627" lon="-1.8303441"><ele>88.33333333333333</ele><time>2026-04-26T11:24:57.906Z</time></trkpt><trkpt lat="53.9269139" lon="-1.8302386"><ele>87.66666666666667</ele><time>2026-04-26T11:24:58.907Z</time></trkpt><trkpt lat="53.9268659" lon="-1.830132"><ele>87.0</ele><time>2026-04-26T11:24:59.904Z</time></trkpt><trkpt lat="53.9268185" lon="-1.8300218"><ele>86.8</ele><time>2026-04-26T11:25:00.907Z</time></trkpt><trkpt lat="53.9267687" lon="-1.8299056"><ele>86.6</ele><time>2026-04-26T11:25:01.907Z</time></trkpt><trkpt lat="53.9267125" lon="-1.8297883"><ele>86.39999999999999</ele><time>2026-04-26T11:25:02.906Z</time></trkpt><trkpt lat="53.9266534" lon="-1.8296681"><ele>86.19999999999999</ele><time>2026-04-26T11:25:03.91Z</time></trkpt><trkpt lat="53.9265937" lon="-1.8295484"><ele>86.0</ele><time>2026-04-26T11:25:04.906Z</time></trkpt><trkpt lat="53.9265345" lon="-1.8294266"><ele>86.19999999999999</ele><time>2026-04-26T11:25:05.907Z</time></trkpt><trkpt lat="53.9264722" lon="-1.8292988"><ele>86.39999999999999</ele><time>2026-04-26T11:25:06.907Z</time></trkpt><trkpt lat="53.9264133" lon="-1.8291664"><ele>86.6</ele><time>2026-04-26T11:25:07.917Z</time></trkpt><trkpt lat="53.9263594" lon="-1.8290333"><ele>86.8</ele><time>2026-04-26T11:25:08.908Z</time></trkpt><trkpt lat="53.9263133" lon="-1.8288927"><ele>87.0</ele><time>2026-04-26T11:25:09.906Z</time></trkpt><trkpt lat="53.9262759" lon="-1.8287403"><ele>87.0</ele><time>2026-04-26T11:25:10.908Z</time></trkpt><trkpt lat="53.9262502" lon="-1.8285825"><ele>87.0</ele><time>2026-04-26T11:25:11.905Z</time></trkpt><trkpt lat="53.9262372" lon="-1.8284181"><ele>87.0</ele><time>2026-04-26T11:25:12.903Z</time></trkpt><trkpt lat="53.9262314" lon="-1.828253"><ele>87.0</ele><time>2026-04-26T11:25:13.907Z</time></trkpt><trkpt lat="53.9262274" lon="-1.8280972"><ele>87.0</ele><time>2026-04-26T11:25:14.907Z</time></trkpt><trkpt lat="53.9262242" lon="-1.8279465"><ele>87.33333333333333</ele><time>2026-04-26T11:25:15.908Z</time></trkpt><trkpt lat="53.9262206" lon="-1.8277937"><ele>87.66666666666667</ele><time>2026-04-26T11:25:16.905Z</time></trkpt><trkpt lat="53.9262145" lon="-1.8276503"><ele>88.0</ele><time>2026-04-26T11:25:17.911Z</time></trkpt><trkpt lat="53.9262102" lon="-1.8275272"><ele>88.33333333333334</ele><time>2026-04-26T11:25:18.904Z</time></trkpt><trkpt lat="53.9262139" lon="-1.8273483"><ele>88.66666666666667</ele><time>2026-04-26T11:25:20.91Z</time></trkpt><trkpt lat="53.9262049" lon="-1.8272236"><ele>89.0</ele><time>2026-04-26T11:25:22.909Z</time></trkpt><trkpt lat="53.9261977" lon="-1.827064"><ele>89.2</ele><time>2026-04-26T11:25:24.911Z</time></trkpt><trkpt lat="53.9261863" lon="-1.8269013"><ele>89.4</ele><time>2026-04-26T11:25:26.907Z</time></trkpt><trkpt lat="53.9261669" lon="-1.8266846"><ele>89.6</ele><time>2026-04-26T11:25:28.906Z</time></trkpt><trkpt lat="53.9261599" lon="-1.8265636"><ele>89.8</ele><time>2026-04-26T11:25:29.906Z</time></trkpt><trkpt lat="53.9261605" lon="-1.8264376"><ele>90.0</ele><time>2026-04-26T11:25:30.906Z</time></trkpt><trkpt lat="53.9261704" lon="-1.8263055"><ele>89.6</ele><time>2026-04-26T11:25:31.907Z</time></trkpt><trkpt lat="53.9261872" lon="-1.826178"><ele>89.2</ele><time>2026-04-26T11:25:32.908Z</time></trkpt><trkpt lat="53.9262053" lon="-1.826067"><ele>88.80000000000001</ele><time>2026-04-26T11:25:33.908Z</time></trkpt><trkpt lat="53.9262388" lon="-1.8258665"><ele>88.4</ele><time>2026-04-26T11:25:35.911Z</time></trkpt><trkpt lat="53.9262763" lon="-1.8256549"><ele>88.0</ele><time>2026-04-26T11:25:37.91Z</time></trkpt><trkpt lat="53.9262973" lon="-1.8255297"><ele>88.0</ele><time>2026-04-26T11:25:38.909Z</time></trkpt><trkpt lat="53.9263133" lon="-1.8253981"><ele>88.0</ele><time>2026-04-26T11:25:39.91Z</time></trkpt><trkpt lat="53.9263238" lon="-1.825277"><ele>88.0</ele><time>2026-04-26T11:25:40.909Z</time></trkpt><trkpt lat="53.9263299" lon="-1.8251695"><ele>88.0</ele><time>2026-04-26T11:25:41.896Z</time></trkpt><trkpt lat="53.9263371" lon="-1.8249989"><ele>88.0</ele><time>2026-04-26T11:25:43.912Z</time></trkpt><trkpt lat="53.926326" lon="-1.8248331"><ele>88.0</ele><time>2026-04-26T11:25:45.908Z</time></trkpt><trkpt lat="53.9263025" lon="-1.824649"><ele>88.0</ele><time>2026-04-26T11:25:47.911Z</time></trkpt><trkpt lat="53.9262817" lon="-1.8244761"><ele>88.0</ele><time>2026-04-26T11:25:49.905Z</time></trkpt><trkpt lat="53.9262626" lon="-1.8242589"><ele>88.0</ele><time>2026-04-26T11:25:51.906Z</time></trkpt><trkpt lat="53.9262541" lon="-1.8241326"><ele>88.0</ele><time>2026-04-26T11:25:52.905Z</time></trkpt><trkpt lat="53.9262519" lon="-1.8240088"><ele>88.0</ele><time>2026-04-26T11:25:53.907Z</time></trkpt><trkpt lat="53.9262531" lon="-1.8238956"><ele>88.0</ele><time>2026-04-26T11:25:54.905Z</time></trkpt><trkpt lat="53.9262565" lon="-1.823706"><ele>88.0</ele><time>2026-04-26T11:25:56.906Z</time></trkpt><trkpt lat="53.9262577" lon="-1.8235247"><ele>88.0</ele><time>2026-04-26T11:25:58.908Z</time></trkpt><trkpt lat="53.9263224" lon="-1.8233998"><ele>88.0</ele><time>2026-04-26T11:26:00.903Z</time></trkpt><trkpt lat="53.9263967" lon="-1.8233988"><ele>88.0</ele><time>2026-04-26T11:26:01.909Z</time></trkpt><trkpt lat="53.9264937" lon="-1.8234291"><ele>88.0</ele><time>2026-04-26T11:26:02.908Z</time></trkpt><trkpt lat="53.9265987" lon="-1.8234494"><ele>88.0</ele><time>2026-04-26T11:26:03.918Z</time></trkpt><trkpt lat="53.9267077" lon="-1.8234506"><ele>88.0</ele><time>2026-04-26T11:26:04.916Z</time></trkpt><trkpt lat="53.9268174" lon="-1.8234461"><ele>88.0</ele><time>2026-04-26T11:26:05.912Z</time></trkpt><trkpt lat="53.9269196" lon="-1.8234485"><ele>88.0</ele><time>2026-04-26T11:26:06.915Z</time></trkpt><trkpt lat="53.9270238" lon="-1.8234514"><ele>88.0</ele><time>2026-04-26T11:26:07.914Z</time></trkpt><trkpt lat="53.9271321" lon="-1.8234564"><ele>86.80000000000001</ele><time>2026-04-26T11:26:08.913Z</time></trkpt><trkpt lat="53.9272382" lon="-1.8234613"><ele>85.6</ele><time>2026-04-26T11:26:09.916Z</time></trkpt><trkpt lat="53.9273386" lon="-1.8234565"><ele>84.4</ele><time>2026-04-26T11:26:10.913Z</time></trkpt><trkpt lat="53.9274299" lon="-1.823452"><ele>83.19999999999999</ele><time>2026-04-26T11:26:11.913Z</time></trkpt><trkpt lat="53.9275172" lon="-1.8234493"><ele>82.0</ele><time>2026-04-26T11:26:12.911Z</time></trkpt><trkpt lat="53.9276016" lon="-1.8234435"><ele>80.6</ele><time>2026-04-26T11:26:13.918Z</time></trkpt><trkpt lat="53.9276839" lon="-1.8234376"><ele>79.19999999999999</ele><time>2026-04-26T11:26:14.91Z</time></trkpt><trkpt lat="53.9277673" lon="-1.8234406"><ele>77.8</ele><time>2026-04-26T11:26:15.911Z</time></trkpt><trkpt lat="53.9278565" lon="-1.823452"><ele>76.4</ele><time>2026-04-26T11:26:16.91Z</time></trkpt><trkpt lat="53.9279519" lon="-1.8234671"><ele>75.0</ele><time>2026-04-26T11:26:17.91Z</time></trkpt><trkpt lat="53.9280529" lon="-1.8234771"><ele>75.0</ele><time>2026-04-26T11:26:18.91Z</time></trkpt><trkpt lat="53.9281587" lon="-1.8234806"><ele>75.0</ele><time>2026-04-26T11:26:19.909Z</time></trkpt><trkpt lat="53.9282638" lon="-1.8234796"><ele>75.0</ele><time>2026-04-26T11:26:20.911Z</time></trkpt><trkpt lat="53.9283685" lon="-1.8234815"><ele>75.0</ele><time>2026-04-26T11:26:21.912Z</time></trkpt><trkpt lat="53.9284744" lon="-1.8234846"><ele>75.0</ele><time>2026-04-26T11:26:22.91Z</time></trkpt><trkpt lat="53.9285851" lon="-1.8234876"><ele>75.0</ele><time>2026-04-26T11:26:23.906Z</time></trkpt><trkpt lat="53.9287025" lon="-1.823488"><ele>75.0</ele><time>2026-04-26T11:26:24.907Z</time></trkpt><trkpt lat="53.9288222" lon="-1.8234898"><ele>75.0</ele><time>2026-04-26T11:26:25.911Z</time></trkpt><trkpt lat="53.9289383" lon="-1.8234926"><ele>75.0</ele><time>2026-04-26T11:26:26.91Z</time></trkpt><trkpt lat="53.9290465" lon="-1.8234966"><ele>75.0</ele><time>2026-04-26T11:26:27.908Z</time></trkpt><trkpt lat="53.9291491" lon="-1.8235005"><ele>75.0</ele><time>2026-04-26T11:26:28.913Z</time></trkpt><trkpt lat="53.9292517" lon="-1.8235042"><ele>75.0</ele><time>2026-04-26T11:26:29.911Z</time></trkpt><trkpt lat="53.9293577" lon="-1.8235031"><ele>75.0</ele><time>2026-04-26T11:26:30.909Z</time></trkpt><trkpt lat="53.9294692" lon="-1.8235006"><ele>75.0</ele><time>2026-04-26T11:26:31.914Z</time></trkpt><trkpt lat="53.9295806" lon="-1.8234976"><ele>75.33333333333333</ele><time>2026-04-26T11:26:32.913Z</time></trkpt><trkpt lat="53.9296821" lon="-1.8234942"><ele>75.66666666666667</ele><time>2026-04-26T11:26:33.913Z</time></trkpt><trkpt lat="53.9297681" lon="-1.8234906"><ele>76.0</ele><time>2026-04-26T11:26:34.912Z</time></trkpt><trkpt lat="53.9298331" lon="-1.823498"><ele>76.33333333333334</ele><time>2026-04-26T11:26:35.91Z</time></trkpt><trkpt lat="53.9299075" lon="-1.8235316"><ele>76.66666666666667</ele><time>2026-04-26T11:27:12.907Z</time></trkpt><trkpt lat="53.9300116" lon="-1.8236277"><ele>77.0</ele><time>2026-04-26T11:27:14.906Z</time></trkpt><trkpt lat="53.9300551" lon="-1.8237496"><ele>77.0</ele><time>2026-04-26T11:27:15.908Z</time></trkpt><trkpt lat="53.9300702" lon="-1.8239042"><ele>77.0</ele><time>2026-04-26T11:27:16.904Z</time></trkpt><trkpt lat="53.9300598" lon="-1.8240698"><ele>77.0</ele><time>2026-04-26T11:27:17.903Z</time></trkpt><trkpt lat="53.9300332" lon="-1.824237"><ele>77.0</ele><time>2026-04-26T11:27:18.917Z</time></trkpt><trkpt lat="53.9300034" lon="-1.8244151"><ele>77.0</ele><time>2026-04-26T11:27:19.912Z</time></trkpt><trkpt lat="53.9299733" lon="-1.8245964"><ele>77.0</ele><time>2026-04-26T11:27:20.911Z</time></trkpt><trkpt lat="53.9299451" lon="-1.8247845"><ele>77.0</ele><time>2026-04-26T11:27:21.911Z</time></trkpt><trkpt lat="53.9299183" lon="-1.8249843"><ele>77.0</ele><time>2026-04-26T11:27:22.911Z</time></trkpt><trkpt lat="53.9298948" lon="-1.8251867"><ele>77.0</ele><time>2026-04-26T11:27:23.911Z</time></trkpt><trkpt lat="53.9298773" lon="-1.8253814"><ele>77.25</ele><time>2026-04-26T11:27:24.909Z</time></trkpt><trkpt lat="53.9298619" lon="-1.8255713"><ele>77.5</ele><time>2026-04-26T11:27:25.913Z</time></trkpt><trkpt lat="53.929848" lon="-1.8257553"><ele>77.75</ele><time>2026-04-26T11:27:26.906Z</time></trkpt><trkpt lat="53.9298334" lon="-1.8259449"><ele>78.0</ele><time>2026-04-26T11:27:27.907Z</time></trkpt><trkpt lat="53.9298188" lon="-1.8261432"><ele>77.75</ele><time>2026-04-26T11:27:28.909Z</time></trkpt><trkpt lat="53.9298031" lon="-1.8263478"><ele>77.5</ele><time>2026-04-26T11:27:29.909Z</time></trkpt><trkpt lat="53.9297862" lon="-1.8265572"><ele>77.25</ele><time>2026-04-26T11:27:30.911Z</time></trkpt><trkpt lat="53.9297718" lon="-1.8267697"><ele>77.0</ele><time>2026-04-26T11:27:31.91Z</time></trkpt><trkpt lat="53.9297588" lon="-1.8269955"><ele>77.0</ele><time>2026-04-26T11:27:32.913Z</time></trkpt><trkpt lat="53.929742" lon="-1.8272427"><ele>77.0</ele><time>2026-04-26T11:27:33.914Z</time></trkpt><trkpt lat="53.9297166" lon="-1.8274898"><ele>77.0</ele><time>2026-04-26T11:27:34.911Z</time></trkpt><trkpt lat="53.9296837" lon="-1.8277185"><ele>77.0</ele><time>2026-04-26T11:27:35.909Z</time></trkpt><trkpt lat="53.9296508" lon="-1.8279315"><ele>77.25</ele><time>2026-04-26T11:27:36.899Z</time></trkpt><trkpt lat="53.9296201" lon="-1.8281402"><ele>77.5</ele><time>2026-04-26T11:27:37.909Z</time></trkpt><trkpt lat="53.9295905" lon="-1.8283515"><ele>77.75</ele><time>2026-04-26T11:27:38.908Z</time></trkpt><trkpt lat="53.9295627" lon="-1.8285622"><ele>78.0</ele><time>2026-04-26T11:27:39.909Z</time></trkpt><trkpt lat="53.9295346" lon="-1.828771"><ele>78.25</ele><time>2026-04-26T11:27:40.911Z</time></trkpt><trkpt lat="53.9295037" lon="-1.8289762"><ele>78.5</ele><time>2026-04-26T11:27:41.907Z</time></trkpt><trkpt lat="53.9294755" lon="-1.8291809"><ele>78.75</ele><time>2026-04-26T11:27:42.905Z</time></trkpt><trkpt lat="53.929454" lon="-1.829389"><ele>79.0</ele><time>2026-04-26T11:27:43.909Z</time></trkpt><trkpt lat="53.9294473" lon="-1.8296009"><ele>79.25</ele><time>2026-04-26T11:27:44.906Z</time></trkpt><trkpt lat="53.9294585" lon="-1.8298063"><ele>79.5</ele><time>2026-04-26T11:27:45.909Z</time></trkpt><trkpt lat="53.9294859" lon="-1.829996"><ele>79.75</ele><time>2026-04-26T11:27:46.909Z</time></trkpt><trkpt lat="53.9295271" lon="-1.8301771"><ele>80.0</ele><time>2026-04-26T11:27:47.907Z</time></trkpt><trkpt lat="53.9295823" lon="-1.8303438"><ele>80.0</ele><time>2026-04-26T11:27:48.909Z</time></trkpt><trkpt lat="53.9296583" lon="-1.8304871"><ele>80.0</ele><time>2026-04-26T11:27:49.908Z</time></trkpt><trkpt lat="53.9297433" lon="-1.8306241"><ele>80.0</ele><time>2026-04-26T11:27:50.909Z</time></trkpt><trkpt lat="53.9298166" lon="-1.8307823"><ele>80.0</ele><time>2026-04-26T11:27:51.909Z</time></trkpt><trkpt lat="53.9298647" lon="-1.830969"><ele>79.5</ele><time>2026-04-26T11:27:52.91Z</time></trkpt><trkpt lat="53.9298957" lon="-1.8311806"><ele>79.0</ele><time>2026-04-26T11:27:53.912Z</time></trkpt><trkpt lat="53.9299331" lon="-1.8314018"><ele>78.5</ele><time>2026-04-26T11:27:54.909Z</time></trkpt><trkpt lat="53.929979" lon="-1.8316203"><ele>78.0</ele><time>2026-04-26T11:27:55.908Z</time></trkpt><trkpt lat="53.9300403" lon="-1.8318092"><ele>78.75</ele><time>2026-04-26T11:27:56.911Z</time></trkpt><trkpt lat="53.930125" lon="-1.8319473"><ele>79.5</ele><time>2026-04-26T11:27:57.909Z</time></trkpt><trkpt lat="53.9302259" lon="-1.8320352"><ele>80.25</ele><time>2026-04-26T11:27:58.908Z</time></trkpt><trkpt lat="53.9303322" lon="-1.8320871"><ele>81.0</ele><time>2026-04-26T11:27:59.907Z</time></trkpt><trkpt lat="53.9304403" lon="-1.8321175"><ele>81.0</ele><time>2026-04-26T11:28:00.907Z</time></trkpt><trkpt lat="53.930541" lon="-1.832142"><ele>81.0</ele><time>2026-04-26T11:28:01.908Z</time></trkpt><trkpt lat="53.9306398" lon="-1.8321844"><ele>81.0</ele><time>2026-04-26T11:28:02.907Z</time></trkpt><trkpt lat="53.9307361" lon="-1.8322438"><ele>81.0</ele><time>2026-04-26T11:28:03.912Z</time></trkpt><trkpt lat="53.9308439" lon="-1.8323059"><ele>81.0</ele><time>2026-04-26T11:28:04.908Z</time></trkpt><trkpt lat="53.9309603" lon="-1.8323657"><ele>82.0</ele><time>2026-04-26T11:28:05.909Z</time></trkpt><trkpt lat="53.9310779" lon="-1.8324224"><ele>83.0</ele><time>2026-04-26T11:28:06.909Z</time></trkpt><trkpt lat="53.9311877" lon="-1.8324653"><ele>84.0</ele><time>2026-04-26T11:28:07.908Z</time></trkpt><trkpt lat="53.9312826" lon="-1.832499"><ele>85.0</ele><time>2026-04-26T11:28:08.908Z</time></trkpt><trkpt lat="53.9313654" lon="-1.8325483"><ele>86.0</ele><time>2026-04-26T11:28:09.908Z</time></trkpt><trkpt lat="53.9314357" lon="-1.8326362"><ele>85.25</ele><time>2026-04-26T11:28:10.909Z</time></trkpt><trkpt lat="53.9314968" lon="-1.8327748"><ele>84.5</ele><time>2026-04-26T11:28:11.905Z</time></trkpt><trkpt lat="53.9315514" lon="-1.8329524"><ele>83.75</ele><time>2026-04-26T11:28:12.905Z</time></trkpt><trkpt lat="53.9316075" lon="-1.8331509"><ele>83.0</ele><time>2026-04-26T11:28:13.913Z</time></trkpt><trkpt lat="53.9316689" lon="-1.8333587"><ele>84.5</ele><time>2026-04-26T11:28:14.908Z</time></trkpt><trkpt lat="53.9317275" lon="-1.8335742"><ele>86.0</ele><time>2026-04-26T11:28:15.905Z</time></trkpt><trkpt lat="53.9317835" lon="-1.833797"><ele>87.5</ele><time>2026-04-26T11:28:16.909Z</time></trkpt><trkpt lat="53.93184" lon="-1.8340231"><ele>89.0</ele><time>2026-04-26T11:28:17.907Z</time></trkpt><trkpt lat="53.9318974" lon="-1.8342386"><ele>88.25</ele><time>2026-04-26T11:28:18.907Z</time></trkpt><trkpt lat="53.9319545" lon="-1.8344522"><ele>87.5</ele><time>2026-04-26T11:28:19.913Z</time></trkpt><trkpt lat="53.9320151" lon="-1.8346688"><ele>86.75</ele><time>2026-04-26T11:28:20.91Z</time></trkpt><trkpt lat="53.9320803" lon="-1.8348807"><ele>86.0</ele><time>2026-04-26T11:28:21.909Z</time></trkpt><trkpt lat="53.9321445" lon="-1.8350805"><ele>85.75</ele><time>2026-04-26T11:28:22.91Z</time></trkpt><trkpt lat="53.9322054" lon="-1.835279"><ele>85.5</ele><time>2026-04-26T11:28:23.91Z</time></trkpt><trkpt lat="53.9322622" lon="-1.8354809"><ele>85.25</ele><time>2026-04-26T11:28:24.909Z</time></trkpt><trkpt lat="53.9323124" lon="-1.8356837"><ele>85.0</ele><time>2026-04-26T11:28:25.904Z</time></trkpt><trkpt lat="53.9323526" lon="-1.8358946"><ele>84.5</ele><time>2026-04-26T11:28:26.912Z</time></trkpt><trkpt lat="53.9323831" lon="-1.8361127"><ele>84.0</ele><time>2026-04-26T11:28:27.906Z</time></trkpt><trkpt lat="53.9324018" lon="-1.8363374"><ele>83.5</ele><time>2026-04-26T11:28:28.911Z</time></trkpt><trkpt lat="53.9324209" lon="-1.8365564"><ele>83.0</ele><time>2026-04-26T11:28:29.912Z</time></trkpt><trkpt lat="53.9324542" lon="-1.8367701"><ele>82.5</ele><time>2026-04-26T11:28:30.911Z</time></trkpt><trkpt lat="53.9325043" lon="-1.8369775"><ele>82.0</ele><time>2026-04-26T11:28:31.91Z</time></trkpt><trkpt lat="53.9325663" lon="-1.8371745"><ele>81.5</ele><time>2026-04-26T11:28:32.912Z</time></trkpt><trkpt lat="53.9326252" lon="-1.8373591"><ele>81.0</ele><time>2026-04-26T11:28:33.917Z</time></trkpt><trkpt lat="53.932675" lon="-1.837538"><ele>82.16666666666667</ele><time>2026-04-26T11:28:34.912Z</time></trkpt><trkpt lat="53.9327139" lon="-1.8377064"><ele>83.33333333333333</ele><time>2026-04-26T11:28:35.909Z</time></trkpt><trkpt lat="53.9327423" lon="-1.837856"><ele>84.5</ele><time>2026-04-26T11:28:36.911Z</time></trkpt><trkpt lat="53.9327708" lon="-1.8379907"><ele>85.66666666666666</ele><time>2026-04-26T11:28:37.912Z</time></trkpt><trkpt lat="53.9327936" lon="-1.8381242"><ele>86.83333333333333</ele><time>2026-04-26T11:28:38.911Z</time></trkpt><trkpt lat="53.9328111" lon="-1.8382578"><ele>88.0</ele><time>2026-04-26T11:28:39.911Z</time></trkpt><trkpt lat="53.9328278" lon="-1.8383978"><ele>87.80000000000001</ele><time>2026-04-26T11:28:40.909Z</time></trkpt><trkpt lat="53.9328394" lon="-1.8385563"><ele>87.6</ele><time>2026-04-26T11:28:41.905Z</time></trkpt><trkpt lat="53.9328445" lon="-1.8387264"><ele>87.4</ele><time>2026-04-26T11:28:42.91Z</time></trkpt><trkpt lat="53.9328454" lon="-1.8389121"><ele>87.19999999999999</ele><time>2026-04-26T11:28:43.912Z</time></trkpt><trkpt lat="53.9328485" lon="-1.8391058"><ele>87.0</ele><time>2026-04-26T11:28:44.911Z</time></trkpt><trkpt lat="53.9328746" lon="-1.8393088"><ele>86.5</ele><time>2026-04-26T11:28:45.905Z</time></trkpt><trkpt lat="53.9329202" lon="-1.8395163"><ele>86.0</ele><time>2026-04-26T11:28:46.908Z</time></trkpt><trkpt lat="53.9329764" lon="-1.8397199"><ele>85.5</ele><time>2026-04-26T11:28:47.909Z</time></trkpt><trkpt lat="53.9330373" lon="-1.8399131"><ele>85.0</ele><time>2026-04-26T11:28:48.912Z</time></trkpt><trkpt lat="53.933101" lon="-1.8400984"><ele>84.0</ele><time>2026-04-26T11:28:49.906Z</time></trkpt><trkpt lat="53.9331626" lon="-1.8402812"><ele>83.0</ele><time>2026-04-26T11:28:50.906Z</time></trkpt><trkpt lat="53.9332254" lon="-1.840466"><ele>82.0</ele><time>2026-04-26T11:28:51.906Z</time></trkpt><trkpt lat="53.9332931" lon="-1.8406566"><ele>81.0</ele><time>2026-04-26T11:28:52.896Z</time></trkpt><trkpt lat="53.9333614" lon="-1.8408531"><ele>82.5</ele><time>2026-04-26T11:28:53.906Z</time></trkpt><trkpt lat="53.9334267" lon="-1.841057"><ele>84.0</ele><time>2026-04-26T11:28:54.907Z</time></trkpt><trkpt lat="53.9334914" lon="-1.8412666"><ele>85.5</ele><time>2026-04-26T11:28:55.908Z</time></trkpt><trkpt lat="53.933555" lon="-1.8414708"><ele>87.0</ele><time>2026-04-26T11:28:56.905Z</time></trkpt><trkpt lat="53.9336101" lon="-1.8416654"><ele>86.5</ele><time>2026-04-26T11:28:57.909Z</time></trkpt><trkpt lat="53.9336627" lon="-1.8418565"><ele>86.0</ele><time>2026-04-26T11:28:58.911Z</time></trkpt><trkpt lat="53.9337117" lon="-1.8420524"><ele>85.5</ele><time>2026-04-26T11:28:59.909Z</time></trkpt><trkpt lat="53.9337544" lon="-1.8422577"><ele>85.0</ele><time>2026-04-26T11:29:00.911Z</time></trkpt><trkpt lat="53.9337869" lon="-1.8424693"><ele>84.5</ele><time>2026-04-26T11:29:01.91Z</time></trkpt><trkpt lat="53.9338071" lon="-1.8426904"><ele>84.0</ele><time>2026-04-26T11:29:02.907Z</time></trkpt><trkpt lat="53.933818" lon="-1.8429221"><ele>83.5</ele><time>2026-04-26T11:29:03.9Z</time></trkpt><trkpt lat="53.9338246" lon="-1.8431615"><ele>83.0</ele><time>2026-04-26T11:29:04.907Z</time></trkpt><trkpt lat="53.9338296" lon="-1.8434046"><ele>82.5</ele><time>2026-04-26T11:29:05.913Z</time></trkpt><trkpt lat="53.9338357" lon="-1.8436495"><ele>82.0</ele><time>2026-04-26T11:29:06.908Z</time></trkpt><trkpt lat="53.9338384" lon="-1.8438914"><ele>81.5</ele><time>2026-04-26T11:29:07.908Z</time></trkpt><trkpt lat="53.9338382" lon="-1.8441297"><ele>81.0</ele><time>2026-04-26T11:29:08.902Z</time></trkpt><trkpt lat="53.9338298" lon="-1.8443653"><ele>80.5</ele><time>2026-04-26T11:29:09.908Z</time></trkpt><trkpt lat="53.9338111" lon="-1.8446059"><ele>80.0</ele><time>2026-04-26T11:29:10.908Z</time></trkpt><trkpt lat="53.9337935" lon="-1.8448526"><ele>79.5</ele><time>2026-04-26T11:29:11.908Z</time></trkpt><trkpt lat="53.9337876" lon="-1.8451064"><ele>79.0</ele><time>2026-04-26T11:29:12.91Z</time></trkpt><trkpt lat="53.933796" lon="-1.8453641"><ele>78.33333333333333</ele><time>2026-04-26T11:29:13.914Z</time></trkpt><trkpt lat="53.9338117" lon="-1.8456302"><ele>77.66666666666667</ele><time>2026-04-26T11:29:14.909Z</time></trkpt><trkpt lat="53.9338266" lon="-1.8459089"><ele>77.0</ele><time>2026-04-26T11:29:15.91Z</time></trkpt><trkpt lat="53.933831" lon="-1.8462003"><ele>77.0</ele><time>2026-04-26T11:29:16.911Z</time></trkpt><trkpt lat="53.9338133" lon="-1.846498"><ele>77.0</ele><time>2026-04-26T11:29:17.911Z</time></trkpt><trkpt lat="53.9337769" lon="-1.8467907"><ele>77.0</ele><time>2026-04-26T11:29:18.905Z</time></trkpt><trkpt lat="53.9337379" lon="-1.8470729"><ele>77.33333333333334</ele><time>2026-04-26T11:29:19.908Z</time></trkpt><trkpt lat="53.9337195" lon="-1.8473428"><ele>77.66666666666667</ele><time>2026-04-26T11:29:20.91Z</time></trkpt><trkpt lat="53.9337308" lon="-1.8475972"><ele>78.0</ele><time>2026-04-26T11:29:21.909Z</time></trkpt><trkpt lat="53.9337714" lon="-1.8478429"><ele>78.0</ele><time>2026-04-26T11:29:22.908Z</time></trkpt><trkpt lat="53.9338267" lon="-1.8480866"><ele>78.0</ele><time>2026-04-26T11:29:23.908Z</time></trkpt><trkpt lat="53.9338864" lon="-1.8483349"><ele>78.0</ele><time>2026-04-26T11:29:24.906Z</time></trkpt><trkpt lat="53.9339444" lon="-1.8485924"><ele>78.0</ele><time>2026-04-26T11:29:25.909Z</time></trkpt><trkpt lat="53.9339972" lon="-1.848857"><ele>78.0</ele><time>2026-04-26T11:29:26.909Z</time></trkpt><trkpt lat="53.9340511" lon="-1.8491313"><ele>78.0</ele><time>2026-04-26T11:29:27.907Z</time></trkpt><trkpt lat="53.9341067" lon="-1.8494103"><ele>78.0</ele><time>2026-04-26T11:29:28.909Z</time></trkpt><trkpt lat="53.9341614" lon="-1.8496938"><ele>78.0</ele><time>2026-04-26T11:29:29.907Z</time></trkpt><trkpt lat="53.9342156" lon="-1.8499775"><ele>78.0</ele><time>2026-04-26T11:29:30.91Z</time></trkpt><trkpt lat="53.9342653" lon="-1.8502463"><ele>79.0</ele><time>2026-04-26T11:29:31.911Z</time></trkpt><trkpt lat="53.9343105" lon="-1.8504899"><ele>80.0</ele><time>2026-04-26T11:29:32.909Z</time></trkpt><trkpt lat="53.9343553" lon="-1.8507207"><ele>81.0</ele><time>2026-04-26T11:29:33.917Z</time></trkpt><trkpt lat="53.9344096" lon="-1.8509403"><ele>82.0</ele><time>2026-04-26T11:29:34.909Z</time></trkpt><trkpt lat="53.9344756" lon="-1.8511451"><ele>82.5</ele><time>2026-04-26T11:29:35.908Z</time></trkpt><trkpt lat="53.934551" lon="-1.8513374"><ele>83.0</ele><time>2026-04-26T11:29:36.91Z</time></trkpt><trkpt lat="53.9346173" lon="-1.8515143"><ele>83.5</ele><time>2026-04-26T11:29:37.91Z</time></trkpt><trkpt lat="53.9346837" lon="-1.8516615"><ele>84.0</ele><time>2026-04-26T11:29:38.912Z</time></trkpt><trkpt lat="53.9347608" lon="-1.8517729"><ele>83.75</ele><time>2026-04-26T11:29:39.908Z</time></trkpt><trkpt lat="53.9348603" lon="-1.8518375"><ele>83.5</ele><time>2026-04-26T11:29:40.907Z</time></trkpt><trkpt lat="53.9349792" lon="-1.8518578"><ele>83.25</ele><time>2026-04-26T11:29:41.908Z</time></trkpt><trkpt lat="53.9351083" lon="-1.8518611"><ele>83.0</ele><time>2026-04-26T11:29:42.91Z</time></trkpt><trkpt lat="53.9352416" lon="-1.851855"><ele>84.75</ele><time>2026-04-26T11:29:43.911Z</time></trkpt><trkpt lat="53.9353789" lon="-1.8518499"><ele>86.5</ele><time>2026-04-26T11:29:44.908Z</time></trkpt><trkpt lat="53.9355168" lon="-1.851848"><ele>88.25</ele><time>2026-04-26T11:29:45.908Z</time></trkpt><trkpt lat="53.9356547" lon="-1.8518493"><ele>90.0</ele><time>2026-04-26T11:29:46.909Z</time></trkpt><trkpt lat="53.9357873" lon="-1.8518526"><ele>91.2</ele><time>2026-04-26T11:29:47.907Z</time></trkpt><trkpt lat="53.9359019" lon="-1.8518602"><ele>92.4</ele><time>2026-04-26T11:29:48.908Z</time></trkpt><trkpt lat="53.9359987" lon="-1.851888"><ele>93.6</ele><time>2026-04-26T11:29:49.908Z</time></trkpt><trkpt lat="53.936078" lon="-1.8519487"><ele>94.8</ele><time>2026-04-26T11:29:50.904Z</time></trkpt><trkpt lat="53.9361398" lon="-1.8520446"><ele>96.0</ele><time>2026-04-26T11:29:51.906Z</time></trkpt><trkpt lat="53.9361986" lon="-1.8521614"><ele>96.0</ele><time>2026-04-26T11:29:52.908Z</time></trkpt><trkpt lat="53.9362574" lon="-1.852295"><ele>96.0</ele><time>2026-04-26T11:29:53.915Z</time></trkpt><trkpt lat="53.9363065" lon="-1.8524434"><ele>96.0</ele><time>2026-04-26T11:29:54.9Z</time></trkpt><trkpt lat="53.9363399" lon="-1.8525995"><ele>96.0</ele><time>2026-04-26T11:29:55.913Z</time></trkpt><trkpt lat="53.9363579" lon="-1.8527426"><ele>96.0</ele><time>2026-04-26T11:29:56.914Z</time></trkpt><trkpt lat="53.9363657" lon="-1.8528563"><ele>95.83333333333333</ele><time>2026-04-26T11:29:57.912Z</time></trkpt><trkpt lat="53.9363627" lon="-1.8529898"><ele>95.66666666666667</ele><time>2026-04-26T11:29:59.909Z</time></trkpt><trkpt lat="53.936377" lon="-1.8531657"><ele>95.5</ele><time>2026-04-26T11:30:51.911Z</time></trkpt><trkpt lat="53.9363833" lon="-1.8532902"><ele>95.33333333333334</ele><time>2026-04-26T11:30:52.909Z</time></trkpt><trkpt lat="53.9363787" lon="-1.8534429"><ele>95.16666666666667</ele><time>2026-04-26T11:30:53.904Z</time></trkpt><trkpt lat="53.936363" lon="-1.8536097"><ele>95.0</ele><time>2026-04-26T11:30:54.908Z</time></trkpt><trkpt lat="53.9363344" lon="-1.8537794"><ele>95.0</ele><time>2026-04-26T11:30:55.911Z</time></trkpt><trkpt lat="53.9363037" lon="-1.8539422"><ele>95.0</ele><time>2026-04-26T11:30:56.91Z</time></trkpt><trkpt lat="53.9362833" lon="-1.8541149"><ele>95.0</ele><time>2026-04-26T11:30:57.907Z</time></trkpt><trkpt lat="53.936284" lon="-1.8543012"><ele>95.0</ele><time>2026-04-26T11:30:58.91Z</time></trkpt><trkpt lat="53.9363097" lon="-1.8544987"><ele>95.0</ele><time>2026-04-26T11:30:59.908Z</time></trkpt><trkpt lat="53.9363548" lon="-1.8547013"><ele>95.0</ele><time>2026-04-26T11:31:00.907Z</time></trkpt><trkpt lat="53.936402" lon="-1.8549087"><ele>95.0</ele><time>2026-04-26T11:31:01.905Z</time></trkpt><trkpt lat="53.9364474" lon="-1.8551195"><ele>95.0</ele><time>2026-04-26T11:31:02.906Z</time></trkpt><trkpt lat="53.9364906" lon="-1.8553321"><ele>95.0</ele><time>2026-04-26T11:31:03.91Z</time></trkpt><trkpt lat="53.9365257" lon="-1.8555459"><ele>94.75</ele><time>2026-04-26T11:31:04.905Z</time></trkpt><trkpt lat="53.9365595" lon="-1.8557576"><ele>94.5</ele><time>2026-04-26T11:31:05.904Z</time></trkpt><trkpt lat="53.9365959" lon="-1.8559642"><ele>94.25</ele><time>2026-04-26T11:31:06.905Z</time></trkpt><trkpt lat="53.9366344" lon="-1.8561661"><ele>94.0</ele><time>2026-04-26T11:31:07.907Z</time></trkpt><trkpt lat="53.9366717" lon="-1.8563653"><ele>94.2</ele><time>2026-04-26T11:31:08.906Z</time></trkpt><trkpt lat="53.9367093" lon="-1.8565465"><ele>94.4</ele><time>2026-04-26T11:31:09.906Z</time></trkpt><trkpt lat="53.9367476" lon="-1.8567038"><ele>94.6</ele><time>2026-04-26T11:31:10.898Z</time></trkpt><trkpt lat="53.9367849" lon="-1.8568361"><ele>94.8</ele><time>2026-04-26T11:31:11.908Z</time></trkpt><trkpt lat="53.9368246" lon="-1.856939"><ele>95.0</ele><time>2026-04-26T11:31:12.91Z</time></trkpt><trkpt lat="53.9369286" lon="-1.8570281"><ele>95.0</ele><time>2026-04-26T11:31:14.91Z</time></trkpt><trkpt lat="53.9370094" lon="-1.8570264"><ele>95.0</ele><time>2026-04-26T11:31:15.91Z</time></trkpt><trkpt lat="53.9371039" lon="-1.8570032"><ele>95.0</ele><time>2026-04-26T11:31:16.911Z</time></trkpt><trkpt lat="53.9372135" lon="-1.8569688"><ele>95.0</ele><time>2026-04-26T11:31:17.91Z</time></trkpt><trkpt lat="53.9373409" lon="-1.8569246"><ele>95.0</ele><time>2026-04-26T11:31:18.912Z</time></trkpt><trkpt lat="53.9374859" lon="-1.8568826"><ele>97.0</ele><time>2026-04-26T11:31:19.908Z</time></trkpt><trkpt lat="53.937655" lon="-1.8568428"><ele>99.0</ele><time>2026-04-26T11:31:20.909Z</time></trkpt><trkpt lat="53.9378371" lon="-1.8567993"><ele>101.0</ele><time>2026-04-26T11:31:21.908Z</time></trkpt><trkpt lat="53.9380193" lon="-1.8567594"><ele>101.5</ele><time>2026-04-26T11:31:22.907Z</time></trkpt><trkpt lat="53.9381875" lon="-1.8567298"><ele>102.0</ele><time>2026-04-26T11:31:23.912Z</time></trkpt><trkpt lat="53.9383364" lon="-1.8567191"><ele>102.5</ele><time>2026-04-26T11:31:24.907Z</time></trkpt><trkpt lat="53.9384657" lon="-1.8567297"><ele>103.0</ele><time>2026-04-26T11:31:25.91Z</time></trkpt><trkpt lat="53.9385839" lon="-1.856761"><ele>104.5</ele><time>2026-04-26T11:31:26.91Z</time></trkpt><trkpt lat="53.9386966" lon="-1.8568085"><ele>106.0</ele><time>2026-04-26T11:31:27.905Z</time></trkpt><trkpt lat="53.9388071" lon="-1.8568775"><ele>107.5</ele><time>2026-04-26T11:31:28.904Z</time></trkpt><trkpt lat="53.9389191" lon="-1.8569575"><ele>109.0</ele><time>2026-04-26T11:31:29.905Z</time></trkpt><trkpt lat="53.9390315" lon="-1.8570437"><ele>109.0</ele><time>2026-04-26T11:31:30.906Z</time></trkpt><trkpt lat="53.9391425" lon="-1.8571269"><ele>109.0</ele><time>2026-04-26T11:31:31.903Z</time></trkpt><trkpt lat="53.9392575" lon="-1.8571905"><ele>109.0</ele><time>2026-04-26T11:31:32.902Z</time></trkpt><trkpt lat="53.939375" lon="-1.8572238"><ele>109.0</ele><time>2026-04-26T11:31:33.903Z</time></trkpt><trkpt lat="53.939491" lon="-1.8572172"><ele>110.0</ele><time>2026-04-26T11:31:34.903Z</time></trkpt><trkpt lat="53.9395993" lon="-1.8571795"><ele>111.0</ele><time>2026-04-26T11:31:35.899Z</time></trkpt><trkpt lat="53.9396962" lon="-1.8571286"><ele>112.0</ele><time>2026-04-26T11:31:36.901Z</time></trkpt><trkpt lat="53.9397825" lon="-1.8571109"><ele>113.0</ele><time>2026-04-26T11:31:37.901Z</time></trkpt><trkpt lat="53.9398676" lon="-1.8571384"><ele>114.0</ele><time>2026-04-26T11:31:38.904Z</time></trkpt><trkpt lat="53.9399603" lon="-1.8572045"><ele>115.25</ele><time>2026-04-26T11:31:39.904Z</time></trkpt><trkpt lat="53.9400578" lon="-1.8573074"><ele>116.5</ele><time>2026-04-26T11:31:40.904Z</time></trkpt><trkpt lat="53.9401543" lon="-1.8574352"><ele>117.75</ele><time>2026-04-26T11:31:41.904Z</time></trkpt><trkpt lat="53.9402412" lon="-1.8575823"><ele>119.0</ele><time>2026-04-26T11:31:42.904Z</time></trkpt><trkpt lat="53.9403274" lon="-1.857723"><ele>119.0</ele><time>2026-04-26T11:31:43.907Z</time></trkpt><trkpt lat="53.9404205" lon="-1.8578534"><ele>119.0</ele><time>2026-04-26T11:31:44.907Z</time></trkpt><trkpt lat="53.9405208" lon="-1.8579684"><ele>119.0</ele><time>2026-04-26T11:31:45.907Z</time></trkpt><trkpt lat="53.9406215" lon="-1.8580758"><ele>119.0</ele><time>2026-04-26T11:31:46.907Z</time></trkpt><trkpt lat="53.9407215" lon="-1.8581807"><ele>118.99999999999999</ele><time>2026-04-26T11:31:47.906Z</time></trkpt><trkpt lat="53.9408147" lon="-1.858276"><ele>119.0</ele><time>2026-04-26T11:31:48.908Z</time></trkpt><trkpt lat="53.940895" lon="-1.8583501"><ele>119.0</ele><time>2026-04-26T11:31:49.907Z</time></trkpt><trkpt lat="53.9409624" lon="-1.8583983"><ele>119.0</ele><time>2026-04-26T11:31:50.908Z</time></trkpt><trkpt lat="53.9410284" lon="-1.8584274"><ele>118.99999999999999</ele><time>2026-04-26T11:31:51.908Z</time></trkpt><trkpt lat="53.9410991" lon="-1.8584287"><ele>119.0</ele><time>2026-04-26T11:31:52.906Z</time></trkpt><trkpt lat="53.9411732" lon="-1.8583864"><ele>120.16666666666666</ele><time>2026-04-26T11:31:53.909Z</time></trkpt><trkpt lat="53.9412453" lon="-1.858311"><ele>121.33333333333333</ele><time>2026-04-26T11:31:54.906Z</time></trkpt><trkpt lat="53.9413143" lon="-1.8582186"><ele>122.5</ele><time>2026-04-26T11:31:55.907Z</time></trkpt><trkpt lat="53.9413809" lon="-1.8581382"><ele>123.66666666666666</ele><time>2026-04-26T11:31:56.905Z</time></trkpt><trkpt lat="53.9414425" lon="-1.8580839"><ele>124.83333333333333</ele><time>2026-04-26T11:31:57.906Z</time></trkpt><trkpt lat="53.9415552" lon="-1.8581054"><ele>126.0</ele><time>2026-04-26T11:31:59.906Z</time></trkpt><trkpt lat="53.9416008" lon="-1.8581877"><ele>126.0</ele><time>2026-04-26T11:32:00.907Z</time></trkpt><trkpt lat="53.9416372" lon="-1.8583069"><ele>126.0</ele><time>2026-04-26T11:32:01.906Z</time></trkpt><trkpt lat="53.9416683" lon="-1.8584366"><ele>126.0</ele><time>2026-04-26T11:32:02.904Z</time></trkpt><trkpt lat="53.9417072" lon="-1.8585717"><ele>126.0</ele><time>2026-04-26T11:32:03.908Z</time></trkpt><trkpt lat="53.9417461" lon="-1.8586798"><ele>126.0</ele><time>2026-04-26T11:32:04.904Z</time></trkpt><trkpt lat="53.9418299" lon="-1.8588072"><ele>126.0</ele><time>2026-04-26T11:32:06.905Z</time></trkpt><trkpt lat="53.9418933" lon="-1.8588845"><ele>127.33333333333333</ele><time>2026-04-26T11:32:09.901Z</time></trkpt><trkpt lat="53.9419349" lon="-1.8589838"><ele>128.66666666666666</ele><time>2026-04-26T11:32:11.908Z</time></trkpt><trkpt lat="53.9420207" lon="-1.8590241"><ele>130.0</ele><time>2026-04-26T11:32:13.908Z</time></trkpt><trkpt lat="53.9421114" lon="-1.8588767"><ele>131.33333333333331</ele><time>2026-04-26T11:32:15.909Z</time></trkpt><trkpt lat="53.9421591" lon="-1.8587815"><ele>132.66666666666666</ele><time>2026-04-26T11:32:16.909Z</time></trkpt><trkpt lat="53.9422163" lon="-1.858701"><ele>134.0</ele><time>2026-04-26T11:32:17.907Z</time></trkpt><trkpt lat="53.9422812" lon="-1.8586451"><ele>134.0</ele><time>2026-04-26T11:32:18.907Z</time></trkpt><trkpt lat="53.9423541" lon="-1.8586113"><ele>134.0</ele><time>2026-04-26T11:32:19.908Z</time></trkpt><trkpt lat="53.9424246" lon="-1.8585877"><ele>134.0</ele><time>2026-04-26T11:32:20.906Z</time></trkpt><trkpt lat="53.9424921" lon="-1.8585628"><ele>134.0</ele><time>2026-04-26T11:32:21.907Z</time></trkpt><trkpt lat="53.9425597" lon="-1.8585316"><ele>134.0</ele><time>2026-04-26T11:32:22.909Z</time></trkpt><trkpt lat="53.9426308" lon="-1.8584931"><ele>134.0</ele><time>2026-04-26T11:32:23.908Z</time></trkpt><trkpt lat="53.9426998" lon="-1.8584524"><ele>134.0</ele><time>2026-04-26T11:32:24.899Z</time></trkpt><trkpt lat="53.9427655" lon="-1.8584082"><ele>135.14285714285714</ele><time>2026-04-26T11:32:25.913Z</time></trkpt><trkpt lat="53.9428301" lon="-1.8583625"><ele>136.28571428571428</ele><time>2026-04-26T11:32:26.908Z</time></trkpt><trkpt lat="53.9428959" lon="-1.8583121"><ele>137.42857142857142</ele><time>2026-04-26T11:32:27.914Z</time></trkpt><trkpt lat="53.9429615" lon="-1.8582546"><ele>138.57142857142856</ele><time>2026-04-26T11:32:28.915Z</time></trkpt><trkpt lat="53.9430255" lon="-1.8581919"><ele>139.7142857142857</ele><time>2026-04-26T11:32:29.913Z</time></trkpt><trkpt lat="53.9430858" lon="-1.858116"><ele>140.85714285714286</ele><time>2026-04-26T11:32:30.91Z</time></trkpt><trkpt lat="53.9431423" lon="-1.8580444"><ele>142.0</ele><time>2026-04-26T11:32:31.91Z</time></trkpt><trkpt lat="53.9432239" lon="-1.8579634"><ele>142.0</ele><time>2026-04-26T11:32:33.907Z</time></trkpt><trkpt lat="53.9431423" lon="-1.8580015"><ele>142.0</ele><time>2026-04-26T11:32:39.902Z</time></trkpt><trkpt lat="53.9430881" lon="-1.8580766"><ele>142.0</ele><time>2026-04-26T11:32:40.905Z</time></trkpt><trkpt lat="53.9430203" lon="-1.8581584"><ele>142.0</ele><time>2026-04-26T11:32:41.905Z</time></trkpt><trkpt lat="53.9429431" lon="-1.8582377"><ele>142.0</ele><time>2026-04-26T11:32:42.905Z</time></trkpt><trkpt lat="53.9428593" lon="-1.8583181"><ele>142.0</ele><time>2026-04-26T11:32:43.907Z</time></trkpt><trkpt lat="53.942773" lon="-1.8583864"><ele>142.0</ele><time>2026-04-26T11:32:44.907Z</time></trkpt><trkpt lat="53.9426926" lon="-1.8584435"><ele>142.0</ele><time>2026-04-26T11:32:45.906Z</time></trkpt><trkpt lat="53.9426155" lon="-1.8584903"><ele>142.0</ele><time>2026-04-26T11:32:46.909Z</time></trkpt><trkpt lat="53.9425362" lon="-1.8585278"><ele>142.0</ele><time>2026-04-26T11:32:47.906Z</time></trkpt><trkpt lat="53.9424566" lon="-1.8585673"><ele>142.0</ele><time>2026-04-26T11:32:48.907Z</time></trkpt><trkpt lat="53.9423756" lon="-1.8586109"><ele>142.0</ele><time>2026-04-26T11:32:49.91Z</time></trkpt><trkpt lat="53.9422996" lon="-1.8586512"><ele>140.66666666666669</ele><time>2026-04-26T11:32:50.908Z</time></trkpt><trkpt lat="53.9422352" lon="-1.8586864"><ele>139.33333333333334</ele><time>2026-04-26T11:32:51.905Z</time></trkpt><trkpt lat="53.9421459" lon="-1.858778"><ele>138.0</ele><time>2026-04-26T11:32:53.909Z</time></trkpt><trkpt lat="53.9420775" lon="-1.8588886"><ele>136.66666666666666</ele><time>2026-04-26T11:32:55.907Z</time></trkpt><trkpt lat="53.9420118" lon="-1.859003"><ele>135.33333333333331</ele><time>2026-04-26T11:32:57.908Z</time></trkpt><trkpt lat="53.9419979" lon="-1.8591469"><ele>134.0</ele><time>2026-04-26T11:32:59.908Z</time></trkpt><trkpt lat="53.9420697" lon="-1.859349"><ele>133.66666666666666</ele><time>2026-04-26T11:33:01.904Z</time></trkpt><trkpt lat="53.9421209" lon="-1.8594693"><ele>133.33333333333331</ele><time>2026-04-26T11:33:02.905Z</time></trkpt><trkpt lat="53.9421744" lon="-1.8595937"><ele>133.0</ele><time>2026-04-26T11:33:03.908Z</time></trkpt><trkpt lat="53.9422287" lon="-1.8597126"><ele>132.66666666666666</ele><time>2026-04-26T11:33:04.904Z</time></trkpt><trkpt lat="53.9422895" lon="-1.8598187"><ele>132.33333333333334</ele><time>2026-04-26T11:33:05.904Z</time></trkpt><trkpt lat="53.9423569" lon="-1.8599148"><ele>132.0</ele><time>2026-04-26T11:33:06.904Z</time></trkpt><trkpt lat="53.9424318" lon="-1.86"><ele>132.0</ele><time>2026-04-26T11:33:07.906Z</time></trkpt><trkpt lat="53.9425105" lon="-1.8600701"><ele>132.0</ele><time>2026-04-26T11:33:08.906Z</time></trkpt><trkpt lat="53.9425897" lon="-1.8601317"><ele>132.0</ele><time>2026-04-26T11:33:09.903Z</time></trkpt><trkpt lat="53.942666" lon="-1.8601954"><ele>132.0</ele><time>2026-04-26T11:33:10.905Z</time></trkpt><trkpt lat="53.9427403" lon="-1.8602659"><ele>132.0</ele><time>2026-04-26T11:33:11.907Z</time></trkpt><trkpt lat="53.942815" lon="-1.8603369"><ele>132.0</ele><time>2026-04-26T11:33:12.911Z</time></trkpt><trkpt lat="53.9428934" lon="-1.8603985"><ele>133.5</ele><time>2026-04-26T11:33:13.91Z</time></trkpt><trkpt lat="53.9429734" lon="-1.8604542"><ele>135.0</ele><time>2026-04-26T11:33:14.909Z</time></trkpt><trkpt lat="53.9430536" lon="-1.860505"><ele>136.5</ele><time>2026-04-26T11:33:15.908Z</time></trkpt><trkpt lat="53.943133" lon="-1.8605278"><ele>138.0</ele><time>2026-04-26T11:33:16.91Z</time></trkpt><trkpt lat="53.9432055" lon="-1.8605308"><ele>139.5</ele><time>2026-04-26T11:33:17.911Z</time></trkpt><trkpt lat="53.9433013" lon="-1.8605443"><ele>141.0</ele><time>2026-04-26T11:33:19.91Z</time></trkpt><trkpt lat="53.9432094" lon="-1.8605372"><ele>141.0</ele><time>2026-04-26T11:35:43.91Z</time></trkpt><trkpt lat="53.9431084" lon="-1.8605291"><ele>141.0</ele><time>2026-04-26T11:35:45.907Z</time></trkpt><trkpt lat="53.9429793" lon="-1.8604723"><ele>141.0</ele><time>2026-04-26T11:35:47.91Z</time></trkpt><trkpt lat="53.942909" lon="-1.8604155"><ele>141.0</ele><time>2026-04-26T11:35:48.901Z</time></trkpt><trkpt lat="53.9428383" lon="-1.8603518"><ele>141.0</ele><time>2026-04-26T11:35:49.904Z</time></trkpt><trkpt lat="53.9427713" lon="-1.8602927"><ele>141.0</ele><time>2026-04-26T11:35:50.907Z</time></trkpt><trkpt lat="53.9427062" lon="-1.8602252"><ele>141.0</ele><time>2026-04-26T11:35:51.908Z</time></trkpt><trkpt lat="53.9426378" lon="-1.8601563"><ele>141.0</ele><time>2026-04-26T11:35:52.908Z</time></trkpt><trkpt lat="53.9425665" lon="-1.8600951"><ele>141.0</ele><time>2026-04-26T11:35:53.91Z</time></trkpt><trkpt lat="53.942495" lon="-1.8600371"><ele>141.0</ele><time>2026-04-26T11:35:54.906Z</time></trkpt><trkpt lat="53.9424249" lon="-1.8599733"><ele>141.0</ele><time>2026-04-26T11:35:55.908Z</time></trkpt><trkpt lat="53.9423549" lon="-1.8599046"><ele>139.5</ele><time>2026-04-26T11:35:56.905Z</time></trkpt><trkpt lat="53.9422898" lon="-1.8598304"><ele>138.0</ele><time>2026-04-26T11:35:57.907Z</time></trkpt><trkpt lat="53.9422289" lon="-1.8597466"><ele>136.5</ele><time>2026-04-26T11:35:58.906Z</time></trkpt><trkpt lat="53.9421717" lon="-1.859657"><ele>135.0</ele><time>2026-04-26T11:35:59.906Z</time></trkpt><trkpt lat="53.9421167" lon="-1.8595544"><ele>133.5</ele><time>2026-04-26T11:36:00.91Z</time></trkpt><trkpt lat="53.9420656" lon="-1.8594443"><ele>132.0</ele><time>2026-04-26T11:36:01.898Z</time></trkpt><trkpt lat="53.9420247" lon="-1.8593372"><ele>132.33333333333334</ele><time>2026-04-26T11:36:02.906Z</time></trkpt><trkpt lat="53.9419929" lon="-1.8592426"><ele>132.66666666666666</ele><time>2026-04-26T11:36:03.91Z</time></trkpt><trkpt lat="53.9419854" lon="-1.8590419"><ele>133.0</ele><time>2026-04-26T11:36:05.906Z</time></trkpt><trkpt lat="53.9420291" lon="-1.8589436"><ele>133.33333333333331</ele><time>2026-04-26T11:36:06.908Z</time></trkpt><trkpt lat="53.9420898" lon="-1.8588509"><ele>133.66666666666666</ele><time>2026-04-26T11:36:07.91Z</time></trkpt><trkpt lat="53.9421547" lon="-1.8587572"><ele>134.0</ele><time>2026-04-26T11:36:08.909Z</time></trkpt><trkpt lat="53.9422264" lon="-1.8586766"><ele>134.0</ele><time>2026-04-26T11:36:09.904Z</time></trkpt><trkpt lat="53.9423042" lon="-1.858619"><ele>134.0</ele><time>2026-04-26T11:36:10.907Z</time></trkpt><trkpt lat="53.9423926" lon="-1.8585845"><ele>134.0</ele><time>2026-04-26T11:36:11.906Z</time></trkpt><trkpt lat="53.9424795" lon="-1.8585502"><ele>134.0</ele><time>2026-04-26T11:36:12.906Z</time></trkpt><trkpt lat="53.9425643" lon="-1.8585083"><ele>134.0</ele><time>2026-04-26T11:36:13.91Z</time></trkpt><trkpt lat="53.9426549" lon="-1.8584643"><ele>134.0</ele><time>2026-04-26T11:36:14.907Z</time></trkpt><trkpt lat="53.9427485" lon="-1.8584087"><ele>135.6</ele><time>2026-04-26T11:36:15.91Z</time></trkpt><trkpt lat="53.9428403" lon="-1.8583451"><ele>137.2</ele><time>2026-04-26T11:36:16.9Z</time></trkpt><trkpt lat="53.9429305" lon="-1.8582766"><ele>138.79999999999998</ele><time>2026-04-26T11:36:17.906Z</time></trkpt><trkpt lat="53.9430154" lon="-1.8582021"><ele>140.4</ele><time>2026-04-26T11:36:18.91Z</time></trkpt><trkpt lat="53.9430907" lon="-1.8581226"><ele>142.0</ele><time>2026-04-26T11:36:19.907Z</time></trkpt><trkpt lat="53.9431579" lon="-1.8580368"><ele>142.0</ele><time>2026-04-26T11:36:20.907Z</time></trkpt><trkpt lat="53.943217" lon="-1.8579575"><ele>142.0</ele><time>2026-04-26T11:36:21.908Z</time></trkpt><trkpt lat="53.9432929" lon="-1.8578839"><ele>142.0</ele><time>2026-04-26T11:36:23.91Z</time></trkpt><trkpt lat="53.9433026" lon="-1.8580004"><ele>142.0</ele><time>2026-04-26T11:37:23.904Z</time></trkpt><trkpt lat="53.9433091" lon="-1.8581129"><ele>142.0</ele><time>2026-04-26T11:38:44.912Z</time></trkpt><trkpt lat="53.9434021" lon="-1.8581642"><ele>142.0</ele><time>2026-04-26T11:39:06.911Z</time></trkpt><trkpt lat="53.9435039" lon="-1.858255"><ele>143.0</ele><time>2026-04-26T11:39:08.911Z</time></trkpt><trkpt lat="53.9435708" lon="-1.8583204"><ele>144.0</ele><time>2026-04-26T11:39:09.912Z</time></trkpt><trkpt lat="53.9436404" lon="-1.8583743"><ele>145.0</ele><time>2026-04-26T11:39:10.91Z</time></trkpt><trkpt lat="53.9436973" lon="-1.858439"><ele>146.0</ele><time>2026-04-26T11:39:11.913Z</time></trkpt><trkpt lat="53.943751" lon="-1.8584952"><ele>147.0</ele><time>2026-04-26T11:39:12.912Z</time></trkpt><trkpt lat="53.9438495" lon="-1.8585846"><ele>148.0</ele><time>2026-04-26T11:39:14.915Z</time></trkpt><trkpt lat="53.9439398" lon="-1.8586489"><ele>148.0</ele><time>2026-04-26T11:39:16.915Z</time></trkpt><trkpt lat="53.9440444" lon="-1.85871"><ele>148.0</ele><time>2026-04-26T11:39:18.911Z</time></trkpt><trkpt lat="53.9441396" lon="-1.8587778"><ele>148.0</ele><time>2026-04-26T11:39:20.911Z</time></trkpt><trkpt lat="53.9442261" lon="-1.8588462"><ele>148.0</ele><time>2026-04-26T11:39:22.91Z</time></trkpt><trkpt lat="53.9443108" lon="-1.8589285"><ele>148.0</ele><time>2026-04-26T11:39:24.91Z</time></trkpt><trkpt lat="53.9443981" lon="-1.8590467"><ele>148.8</ele><time>2026-04-26T11:39:26.91Z</time></trkpt><trkpt lat="53.9444832" lon="-1.8591756"><ele>149.60000000000002</ele><time>2026-04-26T11:39:28.912Z</time></trkpt><trkpt lat="53.9445394" lon="-1.8592917"><ele>150.39999999999998</ele><time>2026-04-26T11:39:30.91Z</time></trkpt><trkpt lat="53.9446084" lon="-1.8593177"><ele>151.2</ele><time>2026-04-26T11:40:07.898Z</time></trkpt><trkpt lat="53.9446809" lon="-1.8592891"><ele>152.0</ele><time>2026-04-26T11:40:09.906Z</time></trkpt><trkpt lat="53.9448039" lon="-1.8592279"><ele>152.16666666666666</ele><time>2026-04-26T11:40:11.911Z</time></trkpt><trkpt lat="53.9448773" lon="-1.8591924"><ele>152.33333333333331</ele><time>2026-04-26T11:40:12.907Z</time></trkpt><trkpt lat="53.9449565" lon="-1.8591532"><ele>152.5</ele><time>2026-04-26T11:40:13.912Z</time></trkpt><trkpt lat="53.9450412" lon="-1.8591067"><ele>152.66666666666666</ele><time>2026-04-26T11:40:14.911Z</time></trkpt><trkpt lat="53.9451269" lon="-1.8590593"><ele>152.83333333333334</ele><time>2026-04-26T11:40:15.91Z</time></trkpt><trkpt lat="53.9452118" lon="-1.8590153"><ele>153.0</ele><time>2026-04-26T11:40:16.91Z</time></trkpt><trkpt lat="53.9452947" lon="-1.8589812"><ele>153.83333333333334</ele><time>2026-04-26T11:40:17.91Z</time></trkpt><trkpt lat="53.9453759" lon="-1.858959"><ele>154.66666666666666</ele><time>2026-04-26T11:40:18.909Z</time></trkpt><trkpt lat="53.9454585" lon="-1.8589404"><ele>155.5</ele><time>2026-04-26T11:40:19.913Z</time></trkpt><trkpt lat="53.9455471" lon="-1.8589235"><ele>156.33333333333331</ele><time>2026-04-26T11:40:20.914Z</time></trkpt><trkpt lat="53.9456418" lon="-1.8589243"><ele>157.16666666666666</ele><time>2026-04-26T11:40:21.909Z</time></trkpt><trkpt lat="53.9457275" lon="-1.8589483"><ele>158.0</ele><time>2026-04-26T11:40:22.908Z</time></trkpt><trkpt lat="53.9458081" lon="-1.8589825"><ele>158.71428571428572</ele><time>2026-04-26T11:40:23.911Z</time></trkpt><trkpt lat="53.9458878" lon="-1.8590227"><ele>159.42857142857144</ele><time>2026-04-26T11:40:24.91Z</time></trkpt><trkpt lat="53.9459592" lon="-1.859055"><ele>160.14285714285717</ele><time>2026-04-26T11:40:25.91Z</time></trkpt><trkpt lat="53.9460248" lon="-1.8590841"><ele>160.85714285714286</ele><time>2026-04-26T11:40:26.909Z</time></trkpt><trkpt lat="53.9460921" lon="-1.8590994"><ele>161.57142857142856</ele><time>2026-04-26T11:40:27.911Z</time></trkpt><trkpt lat="53.9461584" lon="-1.8590937"><ele>162.2857142857143</ele><time>2026-04-26T11:40:28.911Z</time></trkpt><trkpt lat="53.9462237" lon="-1.859077"><ele>163.0</ele><time>2026-04-26T11:40:29.911Z</time></trkpt><trkpt lat="53.9462914" lon="-1.8590613"><ele>163.0</ele><time>2026-04-26T11:40:30.91Z</time></trkpt><trkpt lat="53.9463644" lon="-1.8590527"><ele>163.0</ele><time>2026-04-26T11:40:31.906Z</time></trkpt><trkpt lat="53.9464442" lon="-1.8590346"><ele>163.0</ele><time>2026-04-26T11:40:32.907Z</time></trkpt><trkpt lat="53.9465282" lon="-1.8590037"><ele>163.0</ele><time>2026-04-26T11:40:33.909Z</time></trkpt><trkpt lat="53.9466124" lon="-1.8589642"><ele>163.0</ele><time>2026-04-26T11:40:34.907Z</time></trkpt><trkpt lat="53.9466993" lon="-1.8589185"><ele>163.0</ele><time>2026-04-26T11:40:35.905Z</time></trkpt><trkpt lat="53.94678" lon="-1.8588712"><ele>163.66666666666669</ele><time>2026-04-26T11:40:36.897Z</time></trkpt><trkpt lat="53.9468401" lon="-1.8588286"><ele>164.33333333333334</ele><time>2026-04-26T11:40:37.897Z</time></trkpt><trkpt lat="53.9468952" lon="-1.8587725"><ele>165.0</ele><time>2026-04-26T11:40:39.905Z</time></trkpt><trkpt lat="53.9469689" lon="-1.8586937"><ele>165.66666666666666</ele><time>2026-04-26T11:41:35.914Z</time></trkpt><trkpt lat="53.9470971" lon="-1.8585995"><ele>166.33333333333331</ele><time>2026-04-26T11:41:37.911Z</time></trkpt><trkpt lat="53.9471747" lon="-1.858547"><ele>167.0</ele><time>2026-04-26T11:41:38.91Z</time></trkpt><trkpt lat="53.947253" lon="-1.8584921"><ele>167.33333333333331</ele><time>2026-04-26T11:41:39.909Z</time></trkpt><trkpt lat="53.9473285" lon="-1.8584334"><ele>167.66666666666666</ele><time>2026-04-26T11:41:40.909Z</time></trkpt><trkpt lat="53.947401" lon="-1.8583692"><ele>168.0</ele><time>2026-04-26T11:41:41.904Z</time></trkpt><trkpt lat="53.9474746" lon="-1.8583093"><ele>168.33333333333334</ele><time>2026-04-26T11:41:42.911Z</time></trkpt><trkpt lat="53.9475486" lon="-1.8582596"><ele>168.66666666666669</ele><time>2026-04-26T11:41:43.917Z</time></trkpt><trkpt lat="53.9476203" lon="-1.8582086"><ele>169.0</ele><time>2026-04-26T11:41:44.913Z</time></trkpt><trkpt lat="53.9476919" lon="-1.8581495"><ele>170.66666666666669</ele><time>2026-04-26T11:41:45.913Z</time></trkpt><trkpt lat="53.9477681" lon="-1.8580891"><ele>172.33333333333334</ele><time>2026-04-26T11:41:46.915Z</time></trkpt><trkpt lat="53.9478426" lon="-1.8580281"><ele>174.0</ele><time>2026-04-26T11:41:47.91Z</time></trkpt><trkpt lat="53.947915" lon="-1.857971"><ele>175.66666666666666</ele><time>2026-04-26T11:41:48.913Z</time></trkpt><trkpt lat="53.9479874" lon="-1.8579154"><ele>177.33333333333331</ele><time>2026-04-26T11:41:49.907Z</time></trkpt><trkpt lat="53.9480595" lon="-1.8578516"><ele>179.0</ele><time>2026-04-26T11:41:50.91Z</time></trkpt><trkpt lat="53.9481279" lon="-1.8577737"><ele>179.0</ele><time>2026-04-26T11:41:51.91Z</time></trkpt><trkpt lat="53.9482023" lon="-1.8576898"><ele>179.0</ele><time>2026-04-26T11:41:52.909Z</time></trkpt><trkpt lat="53.9482871" lon="-1.8576139"><ele>179.0</ele><time>2026-04-26T11:41:53.909Z</time></trkpt><trkpt lat="53.948369" lon="-1.8575537"><ele>179.0</ele><time>2026-04-26T11:41:54.915Z</time></trkpt><trkpt lat="53.9484451" lon="-1.8575211"><ele>179.0</ele><time>2026-04-26T11:41:55.913Z</time></trkpt><trkpt lat="53.9485178" lon="-1.8575193"><ele>179.0</ele><time>2026-04-26T11:41:56.914Z</time></trkpt><trkpt lat="53.9485917" lon="-1.8575442"><ele>180.5</ele><time>2026-04-26T11:41:57.912Z</time></trkpt><trkpt lat="53.9486685" lon="-1.8575877"><ele>182.0</ele><time>2026-04-26T11:41:58.909Z</time></trkpt><trkpt lat="53.9487417" lon="-1.857616"><ele>183.5</ele><time>2026-04-26T11:41:59.907Z</time></trkpt><trkpt lat="53.9488104" lon="-1.8576187"><ele>185.0</ele><time>2026-04-26T11:42:00.909Z</time></trkpt><trkpt lat="53.9488765" lon="-1.8575802"><ele>186.5</ele><time>2026-04-26T11:42:01.912Z</time></trkpt><trkpt lat="53.9489485" lon="-1.8575159"><ele>188.0</ele><time>2026-04-26T11:42:02.913Z</time></trkpt><trkpt lat="53.9490269" lon="-1.8574291"><ele>189.0</ele><time>2026-04-26T11:42:03.914Z</time></trkpt><trkpt lat="53.9491101" lon="-1.857341"><ele>190.0</ele><time>2026-04-26T11:42:04.911Z</time></trkpt><trkpt lat="53.9491956" lon="-1.857251"><ele>191.0</ele><time>2026-04-26T11:42:05.913Z</time></trkpt><trkpt lat="53.9492842" lon="-1.8571571"><ele>192.0</ele><time>2026-04-26T11:42:06.913Z</time></trkpt><trkpt lat="53.94937" lon="-1.8570579"><ele>193.0</ele><time>2026-04-26T11:42:07.913Z</time></trkpt><trkpt lat="53.9494498" lon="-1.8569473"><ele>193.4</ele><time>2026-04-26T11:42:08.914Z</time></trkpt><trkpt lat="53.9495252" lon="-1.8568225"><ele>193.8</ele><time>2026-04-26T11:42:09.91Z</time></trkpt><trkpt lat="53.9496031" lon="-1.8567015"><ele>194.2</ele><time>2026-04-26T11:42:10.912Z</time></trkpt><trkpt lat="53.9496891" lon="-1.8565894"><ele>194.6</ele><time>2026-04-26T11:42:11.911Z</time></trkpt><trkpt lat="53.9497767" lon="-1.856476"><ele>195.0</ele><time>2026-04-26T11:42:12.911Z</time></trkpt><trkpt lat="53.949861" lon="-1.8563623"><ele>196.0</ele><time>2026-04-26T11:42:13.91Z</time></trkpt><trkpt lat="53.9499433" lon="-1.8562495"><ele>197.0</ele><time>2026-04-26T11:42:14.904Z</time></trkpt><trkpt lat="53.9500194" lon="-1.8561399"><ele>198.0</ele><time>2026-04-26T11:42:15.908Z</time></trkpt><trkpt lat="53.9500923" lon="-1.8560194"><ele>199.0</ele><time>2026-04-26T11:42:16.911Z</time></trkpt><trkpt lat="53.9501662" lon="-1.8558859"><ele>200.0</ele><time>2026-04-26T11:42:17.911Z</time></trkpt><trkpt lat="53.9502442" lon="-1.85574"><ele>202.5</ele><time>2026-04-26T11:42:18.905Z</time></trkpt><trkpt lat="53.9503214" lon="-1.855572"><ele>205.0</ele><time>2026-04-26T11:42:19.91Z</time></trkpt><trkpt lat="53.9503934" lon="-1.8553897"><ele>207.5</ele><time>2026-04-26T11:42:20.911Z</time></trkpt><trkpt lat="53.9504634" lon="-1.855197"><ele>210.0</ele><time>2026-04-26T11:42:21.912Z</time></trkpt><trkpt lat="53.9505299" lon="-1.8550072"><ele>212.0</ele><time>2026-04-26T11:42:22.911Z</time></trkpt><trkpt lat="53.9505947" lon="-1.8548206"><ele>214.0</ele><time>2026-04-26T11:42:23.914Z</time></trkpt><trkpt lat="53.9506648" lon="-1.8546353"><ele>216.0</ele><time>2026-04-26T11:42:24.91Z</time></trkpt><trkpt lat="53.9507375" lon="-1.8544454"><ele>218.0</ele><time>2026-04-26T11:42:25.91Z</time></trkpt><trkpt lat="53.9508111" lon="-1.854247"><ele>218.25</ele><time>2026-04-26T11:42:26.912Z</time></trkpt><trkpt lat="53.9508856" lon="-1.8540377"><ele>218.5</ele><time>2026-04-26T11:42:27.911Z</time></trkpt><trkpt lat="53.950964" lon="-1.8538235"><ele>218.75</ele><time>2026-04-26T11:42:28.906Z</time></trkpt><trkpt lat="53.9510509" lon="-1.8536102"><ele>219.0</ele><time>2026-04-26T11:42:29.911Z</time></trkpt><trkpt lat="53.9511481" lon="-1.8533968"><ele>221.0</ele><time>2026-04-26T11:42:30.91Z</time></trkpt><trkpt lat="53.9512489" lon="-1.8531956"><ele>223.0</ele><time>2026-04-26T11:42:31.91Z</time></trkpt><trkpt lat="53.95134" lon="-1.8530201"><ele>225.0</ele><time>2026-04-26T11:42:32.909Z</time></trkpt><trkpt lat="53.9514185" lon="-1.8528861"><ele>227.0</ele><time>2026-04-26T11:42:33.914Z</time></trkpt><trkpt lat="53.951478" lon="-1.8527887"><ele>227.00000000000003</ele><time>2026-04-26T11:42:34.911Z</time></trkpt><trkpt lat="53.9515463" lon="-1.852682"><ele>227.0</ele><time>2026-04-26T11:42:36.91Z</time></trkpt><trkpt lat="53.9516062" lon="-1.8526286"><ele>227.0</ele><time>2026-04-26T11:44:11.909Z</time></trkpt><trkpt lat="53.9516271" lon="-1.852494"><ele>227.0</ele><time>2026-04-26T11:46:57.921Z</time></trkpt><trkpt lat="53.9516934" lon="-1.8523984"><ele>227.00000000000003</ele><time>2026-04-26T11:46:59.922Z</time></trkpt><trkpt lat="53.9517309" lon="-1.8522215"><ele>227.0</ele><time>2026-04-26T11:47:00.919Z</time></trkpt><trkpt lat="53.9517678" lon="-1.8520969"><ele>227.2</ele><time>2026-04-26T11:47:01.916Z</time></trkpt><trkpt lat="53.951804" lon="-1.8519579"><ele>227.39999999999998</ele><time>2026-04-26T11:47:02.92Z</time></trkpt><trkpt lat="53.9518377" lon="-1.8518"><ele>227.60000000000002</ele><time>2026-04-26T11:47:03.925Z</time></trkpt><trkpt lat="53.9518693" lon="-1.8516343"><ele>227.8</ele><time>2026-04-26T11:47:04.916Z</time></trkpt><trkpt lat="53.9519045" lon="-1.8514614"><ele>228.0</ele><time>2026-04-26T11:47:05.921Z</time></trkpt><trkpt lat="53.9519453" lon="-1.8512808"><ele>228.0</ele><time>2026-04-26T11:47:06.922Z</time></trkpt><trkpt lat="53.9519923" lon="-1.8510875"><ele>228.0</ele><time>2026-04-26T11:47:07.912Z</time></trkpt><trkpt lat="53.9520471" lon="-1.85089"><ele>228.0</ele><time>2026-04-26T11:47:08.922Z</time></trkpt><trkpt lat="53.9521047" lon="-1.8507088"><ele>228.0</ele><time>2026-04-26T11:47:09.908Z</time></trkpt><trkpt lat="53.9521632" lon="-1.8505358"><ele>228.8</ele><time>2026-04-26T11:47:10.918Z</time></trkpt><trkpt lat="53.9522207" lon="-1.8503641"><ele>229.60000000000002</ele><time>2026-04-26T11:47:11.917Z</time></trkpt><trkpt lat="53.9522663" lon="-1.8502091"><ele>230.39999999999998</ele><time>2026-04-26T11:47:12.918Z</time></trkpt><trkpt lat="53.9523" lon="-1.8500818"><ele>231.2</ele><time>2026-04-26T11:47:13.926Z</time></trkpt><trkpt lat="53.9523305" lon="-1.8499791"><ele>232.0</ele><time>2026-04-26T11:47:14.92Z</time></trkpt><trkpt lat="53.9523894" lon="-1.8498582"><ele>232.25</ele><time>2026-04-26T11:47:16.921Z</time></trkpt><trkpt lat="53.9524368" lon="-1.8497876"><ele>232.5</ele><time>2026-04-26T11:47:29.918Z</time></trkpt><trkpt lat="53.95262" lon="-1.8495516"><ele>232.75</ele><time>2026-04-26T11:47:56.918Z</time></trkpt><trkpt lat="53.9526906" lon="-1.8494349"><ele>233.0</ele><time>2026-04-26T11:47:57.912Z</time></trkpt><trkpt lat="53.9527591" lon="-1.8493177"><ele>233.66666666666669</ele><time>2026-04-26T11:47:58.904Z</time></trkpt><trkpt lat="53.952816" lon="-1.8492176"><ele>234.33333333333334</ele><time>2026-04-26T11:47:59.912Z</time></trkpt><trkpt lat="53.9528682" lon="-1.8491351"><ele>235.0</ele><time>2026-04-26T11:48:00.906Z</time></trkpt><trkpt lat="53.9529266" lon="-1.8490524"><ele>235.66666666666669</ele><time>2026-04-26T11:48:01.913Z</time></trkpt><trkpt lat="53.9529907" lon="-1.8489538"><ele>236.33333333333334</ele><time>2026-04-26T11:48:02.912Z</time></trkpt><trkpt lat="53.9530564" lon="-1.8488437"><ele>237.0</ele><time>2026-04-26T11:48:03.916Z</time></trkpt><trkpt lat="53.9531174" lon="-1.8487269"><ele>236.99999999999997</ele><time>2026-04-26T11:48:04.91Z</time></trkpt><trkpt lat="53.9531771" lon="-1.8486194"><ele>237.0</ele><time>2026-04-26T11:48:05.917Z</time></trkpt><trkpt lat="53.9532327" lon="-1.8485198"><ele>236.99999999999997</ele><time>2026-04-26T11:48:06.917Z</time></trkpt><trkpt lat="53.9532822" lon="-1.8484355"><ele>236.99999999999997</ele><time>2026-04-26T11:48:07.919Z</time></trkpt><trkpt lat="53.9533326" lon="-1.8483643"><ele>237.0</ele><time>2026-04-26T11:48:08.917Z</time></trkpt><trkpt lat="53.953385" lon="-1.8483004"><ele>236.99999999999997</ele><time>2026-04-26T11:48:09.916Z</time></trkpt><trkpt lat="53.9534368" lon="-1.8482272"><ele>236.99999999999997</ele><time>2026-04-26T11:48:10.917Z</time></trkpt><trkpt lat="53.9534839" lon="-1.8481468"><ele>237.16666666666666</ele><time>2026-04-26T11:48:11.919Z</time></trkpt><trkpt lat="53.9535324" lon="-1.8480623"><ele>237.33333333333331</ele><time>2026-04-26T11:48:12.919Z</time></trkpt><trkpt lat="53.9535838" lon="-1.8479693"><ele>237.5</ele><time>2026-04-26T11:48:13.92Z</time></trkpt><trkpt lat="53.9536343" lon="-1.8478698"><ele>237.66666666666666</ele><time>2026-04-26T11:48:14.918Z</time></trkpt><trkpt lat="53.953677" lon="-1.8477697"><ele>237.83333333333331</ele><time>2026-04-26T11:48:15.92Z</time></trkpt><trkpt lat="53.9537074" lon="-1.8476755"><ele>238.0</ele><time>2026-04-26T11:48:16.921Z</time></trkpt><trkpt lat="53.9537885" lon="-1.8475256"><ele>239.0</ele><time>2026-04-26T11:48:18.919Z</time></trkpt><trkpt lat="53.9538651" lon="-1.8474573"><ele>240.0</ele><time>2026-04-26T11:48:19.916Z</time></trkpt><trkpt lat="53.9539568" lon="-1.8473756"><ele>241.0</ele><time>2026-04-26T11:48:20.921Z</time></trkpt><trkpt lat="53.9540542" lon="-1.8472728"><ele>242.0</ele><time>2026-04-26T11:48:21.921Z</time></trkpt><trkpt lat="53.9541565" lon="-1.847154"><ele>243.0</ele><time>2026-04-26T11:48:22.921Z</time></trkpt><trkpt lat="53.9542607" lon="-1.8470298"><ele>243.2</ele><time>2026-04-26T11:48:23.921Z</time></trkpt><trkpt lat="53.9543628" lon="-1.8469046"><ele>243.4</ele><time>2026-04-26T11:48:24.919Z</time></trkpt><trkpt lat="53.9544559" lon="-1.8467914"><ele>243.59999999999997</ele><time>2026-04-26T11:48:25.919Z</time></trkpt><trkpt lat="53.9545349" lon="-1.8466997"><ele>243.79999999999998</ele><time>2026-04-26T11:48:26.921Z</time></trkpt><trkpt lat="53.9546001" lon="-1.8466301"><ele>244.0</ele><time>2026-04-26T11:48:27.918Z</time></trkpt><trkpt lat="53.9546938" lon="-1.8465734"><ele>244.0</ele><time>2026-04-26T11:48:29.923Z</time></trkpt><trkpt lat="53.9547806" lon="-1.8466424"><ele>243.99999999999997</ele><time>2026-04-26T11:48:31.919Z</time></trkpt><trkpt lat="53.9548327" lon="-1.8467282"><ele>243.99999999999997</ele><time>2026-04-26T11:48:32.919Z</time></trkpt><trkpt lat="53.9548871" lon="-1.8468507"><ele>244.0</ele><time>2026-04-26T11:48:33.92Z</time></trkpt><trkpt lat="53.9549473" lon="-1.8469886"><ele>244.0</ele><time>2026-04-26T11:48:34.92Z</time></trkpt><trkpt lat="53.955014" lon="-1.847139"><ele>244.5</ele><time>2026-04-26T11:48:35.919Z</time></trkpt><trkpt lat="53.9550896" lon="-1.8472815"><ele>245.0</ele><time>2026-04-26T11:48:36.918Z</time></trkpt><trkpt lat="53.955168" lon="-1.8474244"><ele>245.5</ele><time>2026-04-26T11:48:37.92Z</time></trkpt><trkpt lat="53.9552465" lon="-1.8475602"><ele>246.0</ele><time>2026-04-26T11:48:38.919Z</time></trkpt><trkpt lat="53.9553304" lon="-1.8476806"><ele>244.60000000000002</ele><time>2026-04-26T11:48:39.921Z</time></trkpt><trkpt lat="53.9554205" lon="-1.8477782"><ele>243.20000000000002</ele><time>2026-04-26T11:48:40.923Z</time></trkpt><trkpt lat="53.9555071" lon="-1.8478587"><ele>241.79999999999998</ele><time>2026-04-26T11:48:41.917Z</time></trkpt><trkpt lat="53.9555856" lon="-1.8479289"><ele>240.39999999999998</ele><time>2026-04-26T11:48:42.918Z</time></trkpt><trkpt lat="53.9556634" lon="-1.8479869"><ele>239.0</ele><time>2026-04-26T11:48:43.924Z</time></trkpt><trkpt lat="53.9557448" lon="-1.8480389"><ele>239.00000000000003</ele><time>2026-04-26T11:48:44.922Z</time></trkpt><trkpt lat="53.9558235" lon="-1.8480936"><ele>239.0</ele><time>2026-04-26T11:48:45.922Z</time></trkpt><trkpt lat="53.9558961" lon="-1.8481492"><ele>239.0</ele><time>2026-04-26T11:48:46.92Z</time></trkpt><trkpt lat="53.9559628" lon="-1.8482043"><ele>239.0</ele><time>2026-04-26T11:48:47.919Z</time></trkpt><trkpt lat="53.9560208" lon="-1.8482644"><ele>239.00000000000003</ele><time>2026-04-26T11:48:48.922Z</time></trkpt><trkpt lat="53.9561062" lon="-1.8483956"><ele>239.0</ele><time>2026-04-26T11:48:50.921Z</time></trkpt><trkpt lat="53.9561575" lon="-1.8484751"><ele>239.00000000000003</ele><time>2026-04-26T11:48:53.927Z</time></trkpt><trkpt lat="53.9561639" lon="-1.8483383"><ele>239.0</ele><time>2026-04-26T11:48:56.92Z</time></trkpt><trkpt lat="53.9561425" lon="-1.8482044"><ele>239.0</ele><time>2026-04-26T11:49:38.92Z</time></trkpt><trkpt lat="53.9561412" lon="-1.8480604"><ele>239.0</ele><time>2026-04-26T11:49:40.922Z</time></trkpt><trkpt lat="53.9561197" lon="-1.8479"><ele>239.00000000000003</ele><time>2026-04-26T11:49:42.918Z</time></trkpt><trkpt lat="53.9561001" lon="-1.8477889"><ele>239.0</ele><time>2026-04-26T11:49:43.922Z</time></trkpt><trkpt lat="53.9560818" lon="-1.8476519"><ele>239.79999999999998</ele><time>2026-04-26T11:49:44.921Z</time></trkpt><trkpt lat="53.9560636" lon="-1.8475106"><ele>240.59999999999997</ele><time>2026-04-26T11:49:45.922Z</time></trkpt><trkpt lat="53.9560427" lon="-1.8473676"><ele>241.4</ele><time>2026-04-26T11:49:46.919Z</time></trkpt><trkpt lat="53.9560192" lon="-1.8472157"><ele>242.2</ele><time>2026-04-26T11:49:47.912Z</time></trkpt><trkpt lat="53.955996" lon="-1.8470558"><ele>243.0</ele><time>2026-04-26T11:49:48.92Z</time></trkpt><trkpt lat="53.9559723" lon="-1.8468947"><ele>244.2</ele><time>2026-04-26T11:49:49.921Z</time></trkpt><trkpt lat="53.9559503" lon="-1.8467341"><ele>245.4</ele><time>2026-04-26T11:49:50.92Z</time></trkpt><trkpt lat="53.9559334" lon="-1.8465681"><ele>246.59999999999997</ele><time>2026-04-26T11:49:51.923Z</time></trkpt><trkpt lat="53.9559272" lon="-1.8463916"><ele>247.79999999999998</ele><time>2026-04-26T11:49:52.921Z</time></trkpt><trkpt lat="53.9559312" lon="-1.8462042"><ele>249.0</ele><time>2026-04-26T11:49:53.924Z</time></trkpt><trkpt lat="53.9559523" lon="-1.8460216"><ele>250.0</ele><time>2026-04-26T11:49:54.92Z</time></trkpt><trkpt lat="53.9559844" lon="-1.8458479"><ele>250.99999999999997</ele><time>2026-04-26T11:49:55.919Z</time></trkpt><trkpt lat="53.956019" lon="-1.8456739"><ele>251.99999999999997</ele><time>2026-04-26T11:49:56.92Z</time></trkpt><trkpt lat="53.9560568" lon="-1.8455077"><ele>253.0</ele><time>2026-04-26T11:49:57.919Z</time></trkpt><trkpt lat="53.9560997" lon="-1.8453468"><ele>254.0</ele><time>2026-04-26T11:49:58.92Z</time></trkpt><trkpt lat="53.9561498" lon="-1.8451929"><ele>255.00000000000003</ele><time>2026-04-26T11:49:59.92Z</time></trkpt><trkpt lat="53.9562085" lon="-1.8450444"><ele>256.0</ele><time>2026-04-26T11:50:00.919Z</time></trkpt><trkpt lat="53.956263" lon="-1.844904"><ele>257.0</ele><time>2026-04-26T11:50:01.919Z</time></trkpt><trkpt lat="53.9563097" lon="-1.8447834"><ele>258.0</ele><time>2026-04-26T11:50:02.92Z</time></trkpt><trkpt lat="53.9563503" lon="-1.8446705"><ele>259.0</ele><time>2026-04-26T11:50:03.922Z</time></trkpt><trkpt lat="53.9563955" lon="-1.8445533"><ele>260.0</ele><time>2026-04-26T11:50:04.919Z</time></trkpt><trkpt lat="53.9564512" lon="-1.8444301"><ele>260.0</ele><time>2026-04-26T11:50:05.917Z</time></trkpt><trkpt lat="53.9565183" lon="-1.8442966"><ele>260.0</ele><time>2026-04-26T11:50:06.917Z</time></trkpt><trkpt lat="53.9565942" lon="-1.8441552"><ele>260.0</ele><time>2026-04-26T11:50:07.92Z</time></trkpt><trkpt lat="53.9566785" lon="-1.8440023"><ele>260.0</ele><time>2026-04-26T11:50:08.919Z</time></trkpt><trkpt lat="53.9567655" lon="-1.8438426"><ele>259.25</ele><time>2026-04-26T11:50:09.921Z</time></trkpt><trkpt lat="53.9568558" lon="-1.8436711"><ele>258.5</ele><time>2026-04-26T11:50:10.921Z</time></trkpt><trkpt lat="53.9569439" lon="-1.843506"><ele>257.75</ele><time>2026-04-26T11:50:11.919Z</time></trkpt><trkpt lat="53.9570244" lon="-1.8433517"><ele>257.0</ele><time>2026-04-26T11:50:12.919Z</time></trkpt><trkpt lat="53.9571025" lon="-1.8431925"><ele>258.8</ele><time>2026-04-26T11:50:13.921Z</time></trkpt><trkpt lat="53.9571777" lon="-1.8430479"><ele>260.6</ele><time>2026-04-26T11:50:14.921Z</time></trkpt><trkpt lat="53.9572554" lon="-1.8429179"><ele>262.40000000000003</ele><time>2026-04-26T11:50:15.92Z</time></trkpt><trkpt lat="53.9573362" lon="-1.8428011"><ele>264.2</ele><time>2026-04-26T11:50:16.918Z</time></trkpt><trkpt lat="53.957415" lon="-1.8426877"><ele>266.0</ele><time>2026-04-26T11:50:17.919Z</time></trkpt><trkpt lat="53.9574876" lon="-1.8425615"><ele>266.2</ele><time>2026-04-26T11:50:18.918Z</time></trkpt><trkpt lat="53.9575543" lon="-1.8424213"><ele>266.40000000000003</ele><time>2026-04-26T11:50:19.91Z</time></trkpt><trkpt lat="53.957614" lon="-1.8422607"><ele>266.6</ele><time>2026-04-26T11:50:20.92Z</time></trkpt><trkpt lat="53.9576671" lon="-1.8420921"><ele>266.8</ele><time>2026-04-26T11:50:21.92Z</time></trkpt><trkpt lat="53.9577213" lon="-1.8419259"><ele>267.0</ele><time>2026-04-26T11:50:22.919Z</time></trkpt><trkpt lat="53.9577822" lon="-1.841769"><ele>267.0</ele><time>2026-04-26T11:50:23.918Z</time></trkpt><trkpt lat="53.9578491" lon="-1.8416206"><ele>267.0</ele><time>2026-04-26T11:50:24.921Z</time></trkpt><trkpt lat="53.9579201" lon="-1.8414834"><ele>267.0</ele><time>2026-04-26T11:50:25.916Z</time></trkpt><trkpt lat="53.9579981" lon="-1.8413629"><ele>267.0</ele><time>2026-04-26T11:50:26.917Z</time></trkpt><trkpt lat="53.9580808" lon="-1.8412478"><ele>267.0</ele><time>2026-04-26T11:50:27.918Z</time></trkpt><trkpt lat="53.9581651" lon="-1.8411246"><ele>267.0</ele><time>2026-04-26T11:50:28.918Z</time></trkpt><trkpt lat="53.9582503" lon="-1.840998"><ele>267.0</ele><time>2026-04-26T11:50:29.917Z</time></trkpt><trkpt lat="53.9583349" lon="-1.8408687"><ele>267.0</ele><time>2026-04-26T11:50:30.921Z</time></trkpt><trkpt lat="53.9584198" lon="-1.8407373"><ele>267.0</ele><time>2026-04-26T11:50:31.923Z</time></trkpt><trkpt lat="53.9585028" lon="-1.8405967"><ele>266.8</ele><time>2026-04-26T11:50:32.919Z</time></trkpt><trkpt lat="53.9585828" lon="-1.8404597"><ele>266.6</ele><time>2026-04-26T11:50:33.921Z</time></trkpt><trkpt lat="53.9586592" lon="-1.8403281"><ele>266.40000000000003</ele><time>2026-04-26T11:50:34.92Z</time></trkpt><trkpt lat="53.9587349" lon="-1.8401924"><ele>266.2</ele><time>2026-04-26T11:50:35.922Z</time></trkpt><trkpt lat="53.9588133" lon="-1.8400549"><ele>266.0</ele><time>2026-04-26T11:50:36.92Z</time></trkpt><trkpt lat="53.9588871" lon="-1.8399069"><ele>267.5</ele><time>2026-04-26T11:50:37.92Z</time></trkpt><trkpt lat="53.9589537" lon="-1.8397424"><ele>269.0</ele><time>2026-04-26T11:50:38.92Z</time></trkpt><trkpt lat="53.9590133" lon="-1.8395738"><ele>270.5</ele><time>2026-04-26T11:50:39.919Z</time></trkpt><trkpt lat="53.9590623" lon="-1.8394008"><ele>272.0</ele><time>2026-04-26T11:50:40.919Z</time></trkpt><trkpt lat="53.9590909" lon="-1.8392302"><ele>273.0</ele><time>2026-04-26T11:50:41.917Z</time></trkpt><trkpt lat="53.9591085" lon="-1.8390732"><ele>274.0</ele><time>2026-04-26T11:50:42.917Z</time></trkpt><trkpt lat="53.9591331" lon="-1.8389277"><ele>275.0</ele><time>2026-04-26T11:50:43.921Z</time></trkpt><trkpt lat="53.9591692" lon="-1.8387845"><ele>276.0</ele><time>2026-04-26T11:50:44.918Z</time></trkpt><trkpt lat="53.959216" lon="-1.838638"><ele>277.0</ele><time>2026-04-26T11:50:45.92Z</time></trkpt><trkpt lat="53.9592649" lon="-1.8384824"><ele>275.5</ele><time>2026-04-26T11:50:46.919Z</time></trkpt><trkpt lat="53.9593098" lon="-1.8383098"><ele>274.0</ele><time>2026-04-26T11:50:47.918Z</time></trkpt><trkpt lat="53.9593547" lon="-1.8381266"><ele>272.5</ele><time>2026-04-26T11:50:48.918Z</time></trkpt><trkpt lat="53.9594023" lon="-1.8379325"><ele>271.0</ele><time>2026-04-26T11:50:49.919Z</time></trkpt><trkpt lat="53.9594413" lon="-1.8377448"><ele>271.8</ele><time>2026-04-26T11:50:50.919Z</time></trkpt><trkpt lat="53.9594684" lon="-1.8375835"><ele>272.6</ele><time>2026-04-26T11:50:51.917Z</time></trkpt><trkpt lat="53.9594895" lon="-1.8374417"><ele>273.4</ele><time>2026-04-26T11:50:52.922Z</time></trkpt><trkpt lat="53.9595087" lon="-1.8373017"><ele>274.2</ele><time>2026-04-26T11:50:53.908Z</time></trkpt><trkpt lat="53.9595297" lon="-1.8371513"><ele>275.0</ele><time>2026-04-26T11:50:54.919Z</time></trkpt><trkpt lat="53.9595596" lon="-1.8369883"><ele>275.0</ele><time>2026-04-26T11:50:55.919Z</time></trkpt><trkpt lat="53.9595902" lon="-1.8368409"><ele>275.0</ele><time>2026-04-26T11:50:56.918Z</time></trkpt><trkpt lat="53.9596177" lon="-1.8367149"><ele>275.0</ele><time>2026-04-26T11:50:57.92Z</time></trkpt><trkpt lat="53.9596487" lon="-1.8366006"><ele>275.0</ele><time>2026-04-26T11:50:58.917Z</time></trkpt><trkpt lat="53.9596839" lon="-1.8364837"><ele>275.0</ele><time>2026-04-26T11:50:59.919Z</time></trkpt><trkpt lat="53.9597197" lon="-1.8363689"><ele>275.0</ele><time>2026-04-26T11:51:00.921Z</time></trkpt><trkpt lat="53.9597573" lon="-1.8362605"><ele>275.1666666666667</ele><time>2026-04-26T11:51:01.921Z</time></trkpt><trkpt lat="53.9597991" lon="-1.8361518"><ele>275.33333333333337</ele><time>2026-04-26T11:51:02.921Z</time></trkpt><trkpt lat="53.9598384" lon="-1.8360217"><ele>275.5</ele><time>2026-04-26T11:51:03.923Z</time></trkpt><trkpt lat="53.9598722" lon="-1.8358789"><ele>275.6666666666667</ele><time>2026-04-26T11:51:04.922Z</time></trkpt><trkpt lat="53.9599066" lon="-1.8357376"><ele>275.8333333333333</ele><time>2026-04-26T11:51:05.919Z</time></trkpt><trkpt lat="53.9599467" lon="-1.8355893"><ele>276.0</ele><time>2026-04-26T11:51:06.908Z</time></trkpt><trkpt lat="53.9599896" lon="-1.8354281"><ele>276.25</ele><time>2026-04-26T11:51:07.922Z</time></trkpt><trkpt lat="53.9600283" lon="-1.8352538"><ele>276.5</ele><time>2026-04-26T11:51:08.921Z</time></trkpt><trkpt lat="53.960064" lon="-1.835068"><ele>276.75</ele><time>2026-04-26T11:51:09.919Z</time></trkpt><trkpt lat="53.9600998" lon="-1.8348753"><ele>277.0</ele><time>2026-04-26T11:51:10.918Z</time></trkpt><trkpt lat="53.9601384" lon="-1.8346832"><ele>276.5</ele><time>2026-04-26T11:51:11.917Z</time></trkpt><trkpt lat="53.960179" lon="-1.8344963"><ele>276.0</ele><time>2026-04-26T11:51:12.918Z</time></trkpt><trkpt lat="53.9602305" lon="-1.8343164"><ele>275.5</ele><time>2026-04-26T11:51:13.925Z</time></trkpt><trkpt lat="53.9602926" lon="-1.8341451"><ele>275.0</ele><time>2026-04-26T11:51:14.921Z</time></trkpt><trkpt lat="53.9603617" lon="-1.8339883"><ele>275.0</ele><time>2026-04-26T11:51:15.917Z</time></trkpt><trkpt lat="53.9604377" lon="-1.8338535"><ele>275.0</ele><time>2026-04-26T11:51:16.918Z</time></trkpt><trkpt lat="53.9605205" lon="-1.8337423"><ele>275.0</ele><time>2026-04-26T11:51:17.918Z</time></trkpt><trkpt lat="53.9606137" lon="-1.8336483"><ele>275.0</ele><time>2026-04-26T11:51:18.92Z</time></trkpt><trkpt lat="53.9607097" lon="-1.8335616"><ele>275.0</ele><time>2026-04-26T11:51:19.92Z</time></trkpt><trkpt lat="53.9607976" lon="-1.8334603"><ele>275.4</ele><time>2026-04-26T11:51:20.92Z</time></trkpt><trkpt lat="53.9608715" lon="-1.8333312"><ele>275.8</ele><time>2026-04-26T11:51:21.919Z</time></trkpt><trkpt lat="53.9609312" lon="-1.8331728"><ele>276.2</ele><time>2026-04-26T11:51:22.922Z</time></trkpt><trkpt lat="53.9609804" lon="-1.8329915"><ele>276.6</ele><time>2026-04-26T11:51:23.921Z</time></trkpt><trkpt lat="53.9610166" lon="-1.832814"><ele>277.0</ele><time>2026-04-26T11:51:24.918Z</time></trkpt><trkpt lat="53.9610401" lon="-1.8326456"><ele>276.6</ele><time>2026-04-26T11:51:25.921Z</time></trkpt><trkpt lat="53.9610574" lon="-1.8324749"><ele>276.2</ele><time>2026-04-26T11:51:26.92Z</time></trkpt><trkpt lat="53.9610765" lon="-1.8323012"><ele>275.8</ele><time>2026-04-26T11:51:27.92Z</time></trkpt><trkpt lat="53.9610935" lon="-1.832132"><ele>275.4</ele><time>2026-04-26T11:51:28.92Z</time></trkpt><trkpt lat="53.9610981" lon="-1.8319758"><ele>275.0</ele><time>2026-04-26T11:51:29.921Z</time></trkpt><trkpt lat="53.961091" lon="-1.8318154"><ele>275.0</ele><time>2026-04-26T11:51:30.92Z</time></trkpt><trkpt lat="53.961085" lon="-1.8316426"><ele>275.0</ele><time>2026-04-26T11:51:31.921Z</time></trkpt><trkpt lat="53.9610937" lon="-1.8314581"><ele>275.0</ele><time>2026-04-26T11:51:32.914Z</time></trkpt><trkpt lat="53.9611033" lon="-1.8312631"><ele>275.0</ele><time>2026-04-26T11:51:33.928Z</time></trkpt><trkpt lat="53.9611089" lon="-1.8310663"><ele>275.0</ele><time>2026-04-26T11:51:34.921Z</time></trkpt><trkpt lat="53.9611113" lon="-1.8308789"><ele>274.8</ele><time>2026-04-26T11:51:35.922Z</time></trkpt><trkpt lat="53.9611191" lon="-1.8307082"><ele>274.6</ele><time>2026-04-26T11:51:36.921Z</time></trkpt><trkpt lat="53.9611343" lon="-1.830544"><ele>274.4</ele><time>2026-04-26T11:51:37.922Z</time></trkpt><trkpt lat="53.9611596" lon="-1.8303803"><ele>274.2</ele><time>2026-04-26T11:51:38.92Z</time></trkpt><trkpt lat="53.9611836" lon="-1.8302139"><ele>274.0</ele><time>2026-04-26T11:51:39.923Z</time></trkpt><trkpt lat="53.9611916" lon="-1.8300413"><ele>273.59999999999997</ele><time>2026-04-26T11:51:40.923Z</time></trkpt><trkpt lat="53.9611873" lon="-1.8298602"><ele>273.2</ele><time>2026-04-26T11:51:41.919Z</time></trkpt><trkpt lat="53.9611836" lon="-1.8296748"><ele>272.79999999999995</ele><time>2026-04-26T11:51:42.916Z</time></trkpt><trkpt lat="53.9611784" lon="-1.8294946"><ele>272.4</ele><time>2026-04-26T11:51:43.908Z</time></trkpt><trkpt lat="53.9611623" lon="-1.8293301"><ele>272.0</ele><time>2026-04-26T11:51:44.917Z</time></trkpt><trkpt lat="53.9611361" lon="-1.8291778"><ele>271.4</ele><time>2026-04-26T11:51:45.919Z</time></trkpt><trkpt lat="53.9611077" lon="-1.8290226"><ele>270.79999999999995</ele><time>2026-04-26T11:51:46.919Z</time></trkpt><trkpt lat="53.9610834" lon="-1.8288635"><ele>270.2</ele><time>2026-04-26T11:51:47.92Z</time></trkpt><trkpt lat="53.9610646" lon="-1.8287125"><ele>269.59999999999997</ele><time>2026-04-26T11:51:48.914Z</time></trkpt><trkpt lat="53.961046" lon="-1.8285634"><ele>269.0</ele><time>2026-04-26T11:51:49.92Z</time></trkpt><trkpt lat="53.9610278" lon="-1.8284174"><ele>268.33333333333337</ele><time>2026-04-26T11:51:50.919Z</time></trkpt><trkpt lat="53.9610168" lon="-1.828276"><ele>267.6666666666667</ele><time>2026-04-26T11:51:51.915Z</time></trkpt><trkpt lat="53.9610136" lon="-1.8281381"><ele>267.0</ele><time>2026-04-26T11:51:52.92Z</time></trkpt><trkpt lat="53.9610155" lon="-1.8280017"><ele>266.3333333333333</ele><time>2026-04-26T11:51:53.924Z</time></trkpt><trkpt lat="53.9610247" lon="-1.827873"><ele>265.66666666666663</ele><time>2026-04-26T11:51:54.918Z</time></trkpt><trkpt lat="53.9610389" lon="-1.8277516"><ele>265.0</ele><time>2026-04-26T11:51:55.918Z</time></trkpt><trkpt lat="53.9610532" lon="-1.8276211"><ele>264.0</ele><time>2026-04-26T11:51:56.923Z</time></trkpt><trkpt lat="53.9610645" lon="-1.8274809"><ele>263.0</ele><time>2026-04-26T11:51:57.921Z</time></trkpt><trkpt lat="53.9610636" lon="-1.8273357"><ele>262.0</ele><time>2026-04-26T11:51:58.918Z</time></trkpt><trkpt lat="53.9610463" lon="-1.8271806"><ele>261.0</ele><time>2026-04-26T11:51:59.917Z</time></trkpt><trkpt lat="53.9610144" lon="-1.8270209"><ele>260.0</ele><time>2026-04-26T11:52:00.918Z</time></trkpt><trkpt lat="53.960972" lon="-1.8268639"><ele>259.6</ele><time>2026-04-26T11:52:01.921Z</time></trkpt><trkpt lat="53.9609241" lon="-1.8267134"><ele>259.2</ele><time>2026-04-26T11:52:02.922Z</time></trkpt><trkpt lat="53.9608798" lon="-1.8265645"><ele>258.8</ele><time>2026-04-26T11:52:03.921Z</time></trkpt><trkpt lat="53.9608426" lon="-1.82641"><ele>258.4</ele><time>2026-04-26T11:52:04.923Z</time></trkpt><trkpt lat="53.9608133" lon="-1.8262488"><ele>258.0</ele><time>2026-04-26T11:52:05.92Z</time></trkpt><trkpt lat="53.9607964" lon="-1.8260833"><ele>257.0</ele><time>2026-04-26T11:52:06.922Z</time></trkpt><trkpt lat="53.960787" lon="-1.8259131"><ele>256.0</ele><time>2026-04-26T11:52:07.923Z</time></trkpt><trkpt lat="53.9607767" lon="-1.8257374"><ele>255.0</ele><time>2026-04-26T11:52:08.921Z</time></trkpt><trkpt lat="53.9607716" lon="-1.825569"><ele>254.0</ele><time>2026-04-26T11:52:09.919Z</time></trkpt><trkpt lat="53.9607701" lon="-1.8254105"><ele>253.0</ele><time>2026-04-26T11:52:10.919Z</time></trkpt><trkpt lat="53.9607652" lon="-1.8252707"><ele>252.4</ele><time>2026-04-26T11:52:11.905Z</time></trkpt><trkpt lat="53.9607092" lon="-1.8251009"><ele>251.8</ele><time>2026-04-26T11:52:13.923Z</time></trkpt><trkpt lat="53.9606174" lon="-1.8249863"><ele>251.2</ele><time>2026-04-26T11:52:15.919Z</time></trkpt><trkpt lat="53.9605774" lon="-1.8248279"><ele>250.6</ele><time>2026-04-26T11:52:17.919Z</time></trkpt><trkpt lat="53.9605919" lon="-1.8246641"><ele>250.0</ele><time>2026-04-26T11:52:19.921Z</time></trkpt><trkpt lat="53.9605135" lon="-1.824589"><ele>249.99999999999997</ele><time>2026-04-26T11:53:17.914Z</time></trkpt><trkpt lat="53.9604338" lon="-1.8245556"><ele>250.0</ele><time>2026-04-26T11:53:19.911Z</time></trkpt><trkpt lat="53.9603343" lon="-1.8244873"><ele>250.0</ele><time>2026-04-26T11:53:21.912Z</time></trkpt><trkpt lat="53.9602757" lon="-1.8244385"><ele>250.0</ele><time>2026-04-26T11:53:22.911Z</time></trkpt><trkpt lat="53.960215" lon="-1.8243882"><ele>249.99999999999997</ele><time>2026-04-26T11:53:23.904Z</time></trkpt><trkpt lat="53.9601542" lon="-1.8243415"><ele>250.0</ele><time>2026-04-26T11:53:24.91Z</time></trkpt><trkpt lat="53.9600953" lon="-1.8242972"><ele>249.2</ele><time>2026-04-26T11:53:25.911Z</time></trkpt><trkpt lat="53.9600356" lon="-1.8242561"><ele>248.4</ele><time>2026-04-26T11:53:26.909Z</time></trkpt><trkpt lat="53.9599751" lon="-1.8242126"><ele>247.60000000000002</ele><time>2026-04-26T11:53:27.912Z</time></trkpt><trkpt lat="53.9598619" lon="-1.8241249"><ele>246.8</ele><time>2026-04-26T11:53:29.913Z</time></trkpt><trkpt lat="53.9597505" lon="-1.824042"><ele>246.0</ele><time>2026-04-26T11:53:31.913Z</time></trkpt><trkpt lat="53.9596649" lon="-1.82397"><ele>245.16666666666666</ele><time>2026-04-26T11:53:33.917Z</time></trkpt><trkpt lat="53.9596016" lon="-1.8239097"><ele>244.33333333333331</ele><time>2026-04-26T11:53:35.913Z</time></trkpt><trkpt lat="53.9596011" lon="-1.8237991"><ele>243.5</ele><time>2026-04-26T11:54:31.915Z</time></trkpt><trkpt lat="53.9596196" lon="-1.8236551"><ele>242.66666666666666</ele><time>2026-04-26T11:54:36.915Z</time></trkpt><trkpt lat="53.9596413" lon="-1.8234453"><ele>241.83333333333331</ele><time>2026-04-26T11:54:38.919Z</time></trkpt><trkpt lat="53.9596556" lon="-1.8233274"><ele>241.0</ele><time>2026-04-26T11:54:39.913Z</time></trkpt><trkpt lat="53.9596784" lon="-1.8232053"><ele>240.83333333333331</ele><time>2026-04-26T11:54:40.909Z</time></trkpt><trkpt lat="53.9597091" lon="-1.8230739"><ele>240.66666666666666</ele><time>2026-04-26T11:54:41.91Z</time></trkpt><trkpt lat="53.9597382" lon="-1.8229467"><ele>240.5</ele><time>2026-04-26T11:54:42.912Z</time></trkpt><trkpt lat="53.9597613" lon="-1.8228273"><ele>240.33333333333331</ele><time>2026-04-26T11:54:43.917Z</time></trkpt><trkpt lat="53.9597822" lon="-1.8226555"><ele>240.16666666666666</ele><time>2026-04-26T11:54:45.913Z</time></trkpt><trkpt lat="53.9598302" lon="-1.8225772"><ele>240.0</ele><time>2026-04-26T11:55:00.912Z</time></trkpt><trkpt lat="53.9598677" lon="-1.8224453"><ele>240.25</ele><time>2026-04-26T11:55:31.915Z</time></trkpt><trkpt lat="53.9599889" lon="-1.8221671"><ele>240.5</ele><time>2026-04-26T11:55:34.912Z</time></trkpt><trkpt lat="53.9600407" lon="-1.8220782"><ele>240.75</ele><time>2026-04-26T11:55:35.906Z</time></trkpt><trkpt lat="53.9601292" lon="-1.8219746"><ele>241.0</ele><time>2026-04-26T11:55:37.912Z</time></trkpt><trkpt lat="53.9602123" lon="-1.8218923"><ele>240.4</ele><time>2026-04-26T11:55:39.913Z</time></trkpt><trkpt lat="53.9603031" lon="-1.8217648"><ele>239.8</ele><time>2026-04-26T11:55:41.913Z</time></trkpt><trkpt lat="53.9603659" lon="-1.8216784"><ele>239.20000000000002</ele><time>2026-04-26T11:55:42.912Z</time></trkpt><trkpt lat="53.9604389" lon="-1.8215751"><ele>238.60000000000002</ele><time>2026-04-26T11:55:43.916Z</time></trkpt><trkpt lat="53.9605097" lon="-1.8214406"><ele>238.0</ele><time>2026-04-26T11:55:44.912Z</time></trkpt><trkpt lat="53.960567" lon="-1.821277"><ele>238.0</ele><time>2026-04-26T11:55:45.913Z</time></trkpt><trkpt lat="53.9606135" lon="-1.8210982"><ele>238.0</ele><time>2026-04-26T11:55:46.917Z</time></trkpt><trkpt lat="53.9606598" lon="-1.8209289"><ele>238.0</ele><time>2026-04-26T11:55:47.914Z</time></trkpt><trkpt lat="53.9607034" lon="-1.8207764"><ele>238.0</ele><time>2026-04-26T11:55:48.915Z</time></trkpt><trkpt lat="53.9607387" lon="-1.8206275"><ele>238.0</ele><time>2026-04-26T11:55:49.913Z</time></trkpt><trkpt lat="53.9607776" lon="-1.820486"><ele>237.66666666666666</ele><time>2026-04-26T11:55:50.914Z</time></trkpt><trkpt lat="53.9608319" lon="-1.8203774"><ele>237.33333333333331</ele><time>2026-04-26T11:55:51.915Z</time></trkpt><trkpt lat="53.9608996" lon="-1.8203112"><ele>237.0</ele><time>2026-04-26T11:55:52.913Z</time></trkpt><trkpt lat="53.9609746" lon="-1.8202477"><ele>236.66666666666669</ele><time>2026-04-26T11:55:53.916Z</time></trkpt><trkpt lat="53.9610428" lon="-1.8201482"><ele>236.33333333333334</ele><time>2026-04-26T11:55:54.915Z</time></trkpt><trkpt lat="53.9610987" lon="-1.8200092"><ele>236.0</ele><time>2026-04-26T11:55:55.914Z</time></trkpt><trkpt lat="53.9611395" lon="-1.8198429"><ele>236.8</ele><time>2026-04-26T11:55:56.915Z</time></trkpt><trkpt lat="53.9611641" lon="-1.819653"><ele>237.60000000000002</ele><time>2026-04-26T11:55:57.915Z</time></trkpt><trkpt lat="53.961188" lon="-1.8194588"><ele>238.4</ele><time>2026-04-26T11:55:58.913Z</time></trkpt><trkpt lat="53.9612212" lon="-1.8193003"><ele>239.2</ele><time>2026-04-26T11:55:59.917Z</time></trkpt><trkpt lat="53.9612759" lon="-1.8191781"><ele>240.0</ele><time>2026-04-26T11:56:00.916Z</time></trkpt><trkpt lat="53.9613456" lon="-1.8190872"><ele>240.0</ele><time>2026-04-26T11:56:01.914Z</time></trkpt><trkpt lat="53.9614054" lon="-1.8190046"><ele>240.0</ele><time>2026-04-26T11:56:02.916Z</time></trkpt><trkpt lat="53.961437" lon="-1.8188969"><ele>240.0</ele><time>2026-04-26T11:56:03.914Z</time></trkpt><trkpt lat="53.9614426" lon="-1.8187627"><ele>240.0</ele><time>2026-04-26T11:56:04.907Z</time></trkpt><trkpt lat="53.9614258" lon="-1.8185975"><ele>240.0</ele><time>2026-04-26T11:56:05.914Z</time></trkpt><trkpt lat="53.9614104" lon="-1.818417"><ele>240.0</ele><time>2026-04-26T11:56:06.912Z</time></trkpt><trkpt lat="53.9614095" lon="-1.8182277"><ele>240.2</ele><time>2026-04-26T11:56:07.915Z</time></trkpt><trkpt lat="53.9614217" lon="-1.8180525"><ele>240.4</ele><time>2026-04-26T11:56:08.916Z</time></trkpt><trkpt lat="53.9614147" lon="-1.8178944"><ele>240.60000000000002</ele><time>2026-04-26T11:56:09.913Z</time></trkpt><trkpt lat="53.9613864" lon="-1.8177411"><ele>240.8</ele><time>2026-04-26T11:56:10.914Z</time></trkpt><trkpt lat="53.9613554" lon="-1.8175786"><ele>241.0</ele><time>2026-04-26T11:56:11.91Z</time></trkpt><trkpt lat="53.9613433" lon="-1.8174299"><ele>241.0</ele><time>2026-04-26T11:56:12.913Z</time></trkpt><trkpt lat="53.9613505" lon="-1.8173069"><ele>241.00000000000003</ele><time>2026-04-26T11:56:13.918Z</time></trkpt><trkpt lat="53.961374" lon="-1.817174"><ele>241.00000000000003</ele><time>2026-04-26T11:56:14.914Z</time></trkpt><trkpt lat="53.9614023" lon="-1.8170114"><ele>241.0</ele><time>2026-04-26T11:56:15.912Z</time></trkpt><trkpt lat="53.9614392" lon="-1.8168418"><ele>241.0</ele><time>2026-04-26T11:56:16.911Z</time></trkpt><trkpt lat="53.9614848" lon="-1.8166863"><ele>240.99999999999997</ele><time>2026-04-26T11:56:17.911Z</time></trkpt><trkpt lat="53.9615394" lon="-1.8165659"><ele>241.0</ele><time>2026-04-26T11:56:18.917Z</time></trkpt><trkpt lat="53.9615785" lon="-1.8164523"><ele>241.0</ele><time>2026-04-26T11:56:19.904Z</time></trkpt><trkpt lat="53.9615846" lon="-1.8163294"><ele>241.0</ele><time>2026-04-26T11:56:20.915Z</time></trkpt><trkpt lat="53.9615714" lon="-1.8161792"><ele>240.99999999999997</ele><time>2026-04-26T11:56:21.91Z</time></trkpt><trkpt lat="53.9615628" lon="-1.8160383"><ele>241.0</ele><time>2026-04-26T11:56:22.91Z</time></trkpt><trkpt lat="53.9615677" lon="-1.8159113"><ele>240.49999999999997</ele><time>2026-04-26T11:56:23.914Z</time></trkpt><trkpt lat="53.9615803" lon="-1.8157908"><ele>240.0</ele><time>2026-04-26T11:56:24.915Z</time></trkpt><trkpt lat="53.9615945" lon="-1.8156744"><ele>239.5</ele><time>2026-04-26T11:56:25.914Z</time></trkpt><trkpt lat="53.9616144" lon="-1.815552"><ele>239.0</ele><time>2026-04-26T11:56:26.914Z</time></trkpt><trkpt lat="53.961637" lon="-1.815416"><ele>238.49999999999997</ele><time>2026-04-26T11:56:27.913Z</time></trkpt><trkpt lat="53.9616512" lon="-1.8152619"><ele>238.0</ele><time>2026-04-26T11:56:28.911Z</time></trkpt><trkpt lat="53.9616541" lon="-1.8150938"><ele>237.8</ele><time>2026-04-26T11:56:29.912Z</time></trkpt><trkpt lat="53.9616518" lon="-1.8149125"><ele>237.60000000000002</ele><time>2026-04-26T11:56:30.912Z</time></trkpt><trkpt lat="53.9616496" lon="-1.8147328"><ele>237.39999999999998</ele><time>2026-04-26T11:56:31.914Z</time></trkpt><trkpt lat="53.9616554" lon="-1.8145732"><ele>237.2</ele><time>2026-04-26T11:56:32.914Z</time></trkpt><trkpt lat="53.961676" lon="-1.8144202"><ele>237.0</ele><time>2026-04-26T11:56:33.915Z</time></trkpt><trkpt lat="53.9617047" lon="-1.8142625"><ele>237.75</ele><time>2026-04-26T11:56:34.915Z</time></trkpt><trkpt lat="53.9617235" lon="-1.8140997"><ele>238.5</ele><time>2026-04-26T11:56:35.916Z</time></trkpt><trkpt lat="53.9617205" lon="-1.8139219"><ele>239.25</ele><time>2026-04-26T11:56:36.917Z</time></trkpt><trkpt lat="53.9617038" lon="-1.8137121"><ele>240.0</ele><time>2026-04-26T11:56:37.915Z</time></trkpt><trkpt lat="53.9616866" lon="-1.8134866"><ele>240.0</ele><time>2026-04-26T11:56:38.914Z</time></trkpt><trkpt lat="53.961668" lon="-1.8132763"><ele>240.0</ele><time>2026-04-26T11:56:39.916Z</time></trkpt><trkpt lat="53.9616369" lon="-1.8130921"><ele>240.0</ele><time>2026-04-26T11:56:40.916Z</time></trkpt><trkpt lat="53.9615937" lon="-1.8129134"><ele>240.0</ele><time>2026-04-26T11:56:41.912Z</time></trkpt><trkpt lat="53.9615475" lon="-1.812741"><ele>239.6</ele><time>2026-04-26T11:56:42.908Z</time></trkpt><trkpt lat="53.9614984" lon="-1.8125744"><ele>239.2</ele><time>2026-04-26T11:56:43.906Z</time></trkpt><trkpt lat="53.9614467" lon="-1.8124101"><ele>238.8</ele><time>2026-04-26T11:56:44.911Z</time></trkpt><trkpt lat="53.9613988" lon="-1.812258"><ele>238.4</ele><time>2026-04-26T11:56:45.913Z</time></trkpt><trkpt lat="53.9613559" lon="-1.81213"><ele>238.0</ele><time>2026-04-26T11:56:46.913Z</time></trkpt><trkpt lat="53.9613216" lon="-1.8120222"><ele>238.0</ele><time>2026-04-26T11:56:47.913Z</time></trkpt><trkpt lat="53.9613016" lon="-1.8119204"><ele>238.0</ele><time>2026-04-26T11:56:48.915Z</time></trkpt><trkpt lat="53.9612986" lon="-1.8118079"><ele>238.0</ele><time>2026-04-26T11:56:49.911Z</time></trkpt><trkpt lat="53.9613026" lon="-1.8116934"><ele>238.0</ele><time>2026-04-26T11:56:50.915Z</time></trkpt><trkpt lat="53.9613047" lon="-1.8115703"><ele>238.0</ele><time>2026-04-26T11:56:51.912Z</time></trkpt><trkpt lat="53.9613072" lon="-1.8114395"><ele>238.0</ele><time>2026-04-26T11:56:52.912Z</time></trkpt><trkpt lat="53.9612999" lon="-1.8113085"><ele>238.0</ele><time>2026-04-26T11:56:53.914Z</time></trkpt><trkpt lat="53.9612759" lon="-1.8111713"><ele>237.99999999999997</ele><time>2026-04-26T11:56:54.912Z</time></trkpt><trkpt lat="53.9612384" lon="-1.8110308"><ele>238.0</ele><time>2026-04-26T11:56:55.903Z</time></trkpt><trkpt lat="53.9611911" lon="-1.8108876"><ele>238.0</ele><time>2026-04-26T11:56:56.912Z</time></trkpt><trkpt lat="53.9611417" lon="-1.8107602"><ele>238.0</ele><time>2026-04-26T11:56:57.912Z</time></trkpt><trkpt lat="53.9610997" lon="-1.81064"><ele>237.99999999999997</ele><time>2026-04-26T11:56:58.914Z</time></trkpt><trkpt lat="53.96107" lon="-1.8105189"><ele>238.0</ele><time>2026-04-26T11:56:59.914Z</time></trkpt><trkpt lat="53.9610546" lon="-1.8103994"><ele>238.60000000000002</ele><time>2026-04-26T11:57:00.913Z</time></trkpt><trkpt lat="53.96106" lon="-1.8101954"><ele>239.20000000000002</ele><time>2026-04-26T11:57:02.905Z</time></trkpt><trkpt lat="53.9610649" lon="-1.8100835"><ele>239.8</ele><time>2026-04-26T11:57:03.915Z</time></trkpt><trkpt lat="53.9610694" lon="-1.8099421"><ele>240.4</ele><time>2026-04-26T11:57:05.916Z</time></trkpt><trkpt lat="53.9610651" lon="-1.8098178"><ele>241.0</ele><time>2026-04-26T11:58:50.912Z</time></trkpt><trkpt lat="53.9611174" lon="-1.8096274"><ele>241.60000000000002</ele><time>2026-04-26T11:58:52.908Z</time></trkpt><trkpt lat="53.9611614" lon="-1.8095022"><ele>242.20000000000002</ele><time>2026-04-26T11:58:53.902Z</time></trkpt><trkpt lat="53.9612125" lon="-1.8093627"><ele>242.79999999999998</ele><time>2026-04-26T11:58:54.91Z</time></trkpt><trkpt lat="53.9612708" lon="-1.8091992"><ele>243.39999999999998</ele><time>2026-04-26T11:58:55.91Z</time></trkpt><trkpt lat="53.9613353" lon="-1.8090171"><ele>244.0</ele><time>2026-04-26T11:58:56.908Z</time></trkpt><trkpt lat="53.9614089" lon="-1.8088261"><ele>244.0</ele><time>2026-04-26T11:58:57.909Z</time></trkpt><trkpt lat="53.9614856" lon="-1.8086372"><ele>244.0</ele><time>2026-04-26T11:58:58.911Z</time></trkpt><trkpt lat="53.9615523" lon="-1.8084608"><ele>244.0</ele><time>2026-04-26T11:58:59.913Z</time></trkpt><trkpt lat="53.9616086" lon="-1.8082967"><ele>244.0</ele><time>2026-04-26T11:59:00.912Z</time></trkpt><trkpt lat="53.961661" lon="-1.8081376"><ele>244.79999999999998</ele><time>2026-04-26T11:59:01.914Z</time></trkpt><trkpt lat="53.9617156" lon="-1.8079784"><ele>245.59999999999997</ele><time>2026-04-26T11:59:02.914Z</time></trkpt><trkpt lat="53.9617711" lon="-1.8078297"><ele>246.4</ele><time>2026-04-26T11:59:03.914Z</time></trkpt><trkpt lat="53.9618217" lon="-1.8077086"><ele>247.2</ele><time>2026-04-26T11:59:04.915Z</time></trkpt><trkpt lat="53.9618549" lon="-1.807614"><ele>248.0</ele><time>2026-04-26T11:59:05.913Z</time></trkpt><trkpt lat="53.9618321" lon="-1.8074525"><ele>248.0</ele><time>2026-04-26T11:59:07.913Z</time></trkpt><trkpt lat="53.961761" lon="-1.8073859"><ele>248.0</ele><time>2026-04-26T11:59:08.911Z</time></trkpt><trkpt lat="53.9616535" lon="-1.8073066"><ele>248.0</ele><time>2026-04-26T11:59:09.911Z</time></trkpt><trkpt lat="53.9615334" lon="-1.80723"><ele>248.0</ele><time>2026-04-26T11:59:10.911Z</time></trkpt><trkpt lat="53.9614203" lon="-1.8071615"><ele>248.0</ele><time>2026-04-26T11:59:11.907Z</time></trkpt><trkpt lat="53.9613195" lon="-1.8071037"><ele>245.8</ele><time>2026-04-26T11:59:12.908Z</time></trkpt><trkpt lat="53.9612323" lon="-1.8070594"><ele>243.60000000000002</ele><time>2026-04-26T11:59:13.908Z</time></trkpt><trkpt lat="53.9611636" lon="-1.8070126"><ele>241.39999999999998</ele><time>2026-04-26T11:59:14.904Z</time></trkpt><trkpt lat="53.9611007" lon="-1.8068191"><ele>239.2</ele><time>2026-04-26T11:59:16.907Z</time></trkpt><trkpt lat="53.9610875" lon="-1.8066691"><ele>237.0</ele><time>2026-04-26T11:59:17.906Z</time></trkpt><trkpt lat="53.9610742" lon="-1.8065249"><ele>236.66666666666666</ele><time>2026-04-26T11:59:18.908Z</time></trkpt><trkpt lat="53.9610588" lon="-1.8064029"><ele>236.33333333333331</ele><time>2026-04-26T11:59:19.913Z</time></trkpt><trkpt lat="53.9610328" lon="-1.8062953"><ele>236.0</ele><time>2026-04-26T11:59:20.91Z</time></trkpt><trkpt lat="53.9609962" lon="-1.8061857"><ele>235.66666666666666</ele><time>2026-04-26T11:59:21.91Z</time></trkpt><trkpt lat="53.9609603" lon="-1.8060328"><ele>235.33333333333331</ele><time>2026-04-26T11:59:22.91Z</time></trkpt><trkpt lat="53.9609296" lon="-1.8058431"><ele>235.0</ele><time>2026-04-26T11:59:23.913Z</time></trkpt><trkpt lat="53.9609025" lon="-1.8056653"><ele>235.0</ele><time>2026-04-26T11:59:24.909Z</time></trkpt><trkpt lat="53.9608773" lon="-1.8055265"><ele>235.0</ele><time>2026-04-26T11:59:25.91Z</time></trkpt><trkpt lat="53.9608148" lon="-1.8054077"><ele>235.0</ele><time>2026-04-26T11:59:27.911Z</time></trkpt><trkpt lat="53.9607164" lon="-1.805465"><ele>235.0</ele><time>2026-04-26T11:59:29.91Z</time></trkpt><trkpt lat="53.960645" lon="-1.8056392"><ele>235.0</ele><time>2026-04-26T11:59:31.912Z</time></trkpt><trkpt lat="53.9606081" lon="-1.8057553"><ele>233.99999999999997</ele><time>2026-04-26T11:59:32.912Z</time></trkpt><trkpt lat="53.9605663" lon="-1.8058893"><ele>233.0</ele><time>2026-04-26T11:59:33.913Z</time></trkpt><trkpt lat="53.9605224" lon="-1.806021"><ele>232.0</ele><time>2026-04-26T11:59:34.912Z</time></trkpt><trkpt lat="53.9604694" lon="-1.8061164"><ele>231.0</ele><time>2026-04-26T11:59:35.912Z</time></trkpt><trkpt lat="53.9604134" lon="-1.8061653"><ele>229.99999999999997</ele><time>2026-04-26T11:59:36.911Z</time></trkpt><trkpt lat="53.9603246" lon="-1.8060743"><ele>229.0</ele><time>2026-04-26T11:59:38.912Z</time></trkpt><trkpt lat="53.9603254" lon="-1.8058615"><ele>229.0</ele><time>2026-04-26T11:59:40.909Z</time></trkpt><trkpt lat="53.9603461" lon="-1.8057236"><ele>228.99999999999997</ele><time>2026-04-26T11:59:41.908Z</time></trkpt><trkpt lat="53.9603492" lon="-1.8055786"><ele>228.99999999999997</ele><time>2026-04-26T11:59:42.907Z</time></trkpt><trkpt lat="53.9603248" lon="-1.805427"><ele>229.0</ele><time>2026-04-26T11:59:43.911Z</time></trkpt><trkpt lat="53.9602791" lon="-1.805276"><ele>229.0</ele><time>2026-04-26T11:59:44.909Z</time></trkpt><trkpt lat="53.9602317" lon="-1.8051276"><ele>229.66666666666666</ele><time>2026-04-26T11:59:45.907Z</time></trkpt><trkpt lat="53.9601932" lon="-1.8049858"><ele>230.33333333333331</ele><time>2026-04-26T11:59:46.908Z</time></trkpt><trkpt lat="53.9601686" lon="-1.8048588"><ele>231.0</ele><time>2026-04-26T11:59:47.902Z</time></trkpt><trkpt lat="53.9601521" lon="-1.8047488"><ele>231.66666666666669</ele><time>2026-04-26T11:59:48.908Z</time></trkpt><trkpt lat="53.9601266" lon="-1.8046491"><ele>232.33333333333334</ele><time>2026-04-26T11:59:49.898Z</time></trkpt><trkpt lat="53.9600747" lon="-1.8044673"><ele>233.0</ele><time>2026-04-26T11:59:51.908Z</time></trkpt><trkpt lat="53.9600488" lon="-1.8043674"><ele>235.83333333333334</ele><time>2026-04-26T11:59:52.91Z</time></trkpt><trkpt lat="53.9600309" lon="-1.8042502"><ele>238.66666666666669</ele><time>2026-04-26T11:59:53.908Z</time></trkpt><trkpt lat="53.9600197" lon="-1.8041096"><ele>241.5</ele><time>2026-04-26T11:59:54.907Z</time></trkpt><trkpt lat="53.9600061" lon="-1.8039663"><ele>244.33333333333331</ele><time>2026-04-26T11:59:55.908Z</time></trkpt><trkpt lat="53.9599863" lon="-1.8038525"><ele>247.16666666666666</ele><time>2026-04-26T11:59:56.909Z</time></trkpt><trkpt lat="53.9599409" lon="-1.8037051"><ele>250.0</ele><time>2026-04-26T12:00:03.904Z</time></trkpt><trkpt lat="53.9599228" lon="-1.8035838"><ele>251.0</ele><time>2026-04-26T12:00:06.909Z</time></trkpt><trkpt lat="53.9599285" lon="-1.8031975"><ele>252.0</ele><time>2026-04-26T12:00:51.91Z</time></trkpt><trkpt lat="53.9599216" lon="-1.8030505"><ele>253.0</ele><time>2026-04-26T12:00:52.912Z</time></trkpt><trkpt lat="53.9599193" lon="-1.8029205"><ele>254.0</ele><time>2026-04-26T12:00:53.914Z</time></trkpt><trkpt lat="53.9599261" lon="-1.8027932"><ele>254.83333333333334</ele><time>2026-04-26T12:00:54.912Z</time></trkpt><trkpt lat="53.9599419" lon="-1.8026531"><ele>255.66666666666669</ele><time>2026-04-26T12:00:55.91Z</time></trkpt><trkpt lat="53.9599681" lon="-1.8024996"><ele>256.5</ele><time>2026-04-26T12:00:56.91Z</time></trkpt><trkpt lat="53.9599984" lon="-1.8023436"><ele>257.3333333333333</ele><time>2026-04-26T12:00:57.91Z</time></trkpt><trkpt lat="53.9600302" lon="-1.8022042"><ele>258.16666666666663</ele><time>2026-04-26T12:00:58.909Z</time></trkpt><trkpt lat="53.9600654" lon="-1.8020869"><ele>259.0</ele><time>2026-04-26T12:00:59.909Z</time></trkpt><trkpt lat="53.960102" lon="-1.8019851"><ele>259.66666666666663</ele><time>2026-04-26T12:01:00.91Z</time></trkpt><trkpt lat="53.9601398" lon="-1.8018852"><ele>260.3333333333333</ele><time>2026-04-26T12:01:01.911Z</time></trkpt><trkpt lat="53.9601792" lon="-1.8017728"><ele>261.0</ele><time>2026-04-26T12:01:02.91Z</time></trkpt><trkpt lat="53.9602212" lon="-1.8016511"><ele>261.6666666666667</ele><time>2026-04-26T12:01:03.914Z</time></trkpt><trkpt lat="53.9602624" lon="-1.8015232"><ele>262.33333333333337</ele><time>2026-04-26T12:01:04.91Z</time></trkpt><trkpt lat="53.9603039" lon="-1.8013988"><ele>263.0</ele><time>2026-04-26T12:01:05.912Z</time></trkpt><trkpt lat="53.9603486" lon="-1.8012827"><ele>263.6666666666667</ele><time>2026-04-26T12:01:06.911Z</time></trkpt><trkpt lat="53.9603965" lon="-1.8011751"><ele>264.33333333333337</ele><time>2026-04-26T12:01:07.911Z</time></trkpt><trkpt lat="53.9604445" lon="-1.8010686"><ele>265.0</ele><time>2026-04-26T12:01:08.91Z</time></trkpt><trkpt lat="53.9604914" lon="-1.8009596"><ele>265.6666666666667</ele><time>2026-04-26T12:01:09.902Z</time></trkpt><trkpt lat="53.9605375" lon="-1.8008465"><ele>266.3333333333333</ele><time>2026-04-26T12:01:10.913Z</time></trkpt><trkpt lat="53.9605838" lon="-1.8007291"><ele>267.0</ele><time>2026-04-26T12:01:11.91Z</time></trkpt><trkpt lat="53.9606334" lon="-1.8006087"><ele>267.8</ele><time>2026-04-26T12:01:12.91Z</time></trkpt><trkpt lat="53.9606886" lon="-1.8004877"><ele>268.6</ele><time>2026-04-26T12:01:13.918Z</time></trkpt><trkpt lat="53.9607451" lon="-1.8003589"><ele>269.40000000000003</ele><time>2026-04-26T12:01:14.903Z</time></trkpt><trkpt lat="53.9608055" lon="-1.8002208"><ele>270.2</ele><time>2026-04-26T12:01:15.909Z</time></trkpt><trkpt lat="53.9608681" lon="-1.8000807"><ele>271.0</ele><time>2026-04-26T12:01:16.91Z</time></trkpt><trkpt lat="53.9609313" lon="-1.7999456"><ele>272.2</ele><time>2026-04-26T12:01:17.909Z</time></trkpt><trkpt lat="53.9609926" lon="-1.7998129"><ele>273.40000000000003</ele><time>2026-04-26T12:01:18.911Z</time></trkpt><trkpt lat="53.9610516" lon="-1.7996761"><ele>274.6</ele><time>2026-04-26T12:01:19.908Z</time></trkpt><trkpt lat="53.9611076" lon="-1.7995339"><ele>275.8</ele><time>2026-04-26T12:01:20.912Z</time></trkpt><trkpt lat="53.9611613" lon="-1.7993911"><ele>277.0</ele><time>2026-04-26T12:01:21.911Z</time></trkpt><trkpt lat="53.9612198" lon="-1.7992612"><ele>277.4</ele><time>2026-04-26T12:01:22.91Z</time></trkpt><trkpt lat="53.9612877" lon="-1.7991406"><ele>277.79999999999995</ele><time>2026-04-26T12:01:23.918Z</time></trkpt><trkpt lat="53.9613607" lon="-1.799024"><ele>278.2</ele><time>2026-04-26T12:01:24.911Z</time></trkpt><trkpt lat="53.9614342" lon="-1.7989124"><ele>278.59999999999997</ele><time>2026-04-26T12:01:25.91Z</time></trkpt><trkpt lat="53.9615043" lon="-1.7988028"><ele>279.0</ele><time>2026-04-26T12:01:26.909Z</time></trkpt><trkpt lat="53.9615716" lon="-1.7986923"><ele>279.0</ele><time>2026-04-26T12:01:27.909Z</time></trkpt><trkpt lat="53.9616426" lon="-1.7985868"><ele>279.0</ele><time>2026-04-26T12:01:28.909Z</time></trkpt><trkpt lat="53.9617113" lon="-1.7984839"><ele>279.0</ele><time>2026-04-26T12:01:29.904Z</time></trkpt><trkpt lat="53.9617804" lon="-1.7983728"><ele>279.0</ele><time>2026-04-26T12:01:30.909Z</time></trkpt><trkpt lat="53.9618504" lon="-1.798262"><ele>279.0</ele><time>2026-04-26T12:01:31.911Z</time></trkpt><trkpt lat="53.9619223" lon="-1.7981589"><ele>280.2</ele><time>2026-04-26T12:01:32.908Z</time></trkpt><trkpt lat="53.961995" lon="-1.7980867"><ele>281.4</ele><time>2026-04-26T12:01:33.918Z</time></trkpt><trkpt lat="53.9620618" lon="-1.7980461"><ele>282.6</ele><time>2026-04-26T12:01:34.914Z</time></trkpt><trkpt lat="53.9621708" lon="-1.7979592"><ele>283.8</ele><time>2026-04-26T12:01:36.914Z</time></trkpt><trkpt lat="53.9622522" lon="-1.7978647"><ele>285.0</ele><time>2026-04-26T12:01:38.912Z</time></trkpt><trkpt lat="53.9623446" lon="-1.7977429"><ele>285.5</ele><time>2026-04-26T12:01:40.911Z</time></trkpt><trkpt lat="53.9624082" lon="-1.7976624"><ele>286.0</ele><time>2026-04-26T12:01:41.909Z</time></trkpt><trkpt lat="53.9624791" lon="-1.7975782"><ele>286.5</ele><time>2026-04-26T12:01:42.91Z</time></trkpt><trkpt lat="53.9625447" lon="-1.7974912"><ele>287.0</ele><time>2026-04-26T12:01:43.915Z</time></trkpt><trkpt lat="53.9626021" lon="-1.7973942"><ele>287.5</ele><time>2026-04-26T12:01:44.909Z</time></trkpt><trkpt lat="53.9626589" lon="-1.7972897"><ele>288.0</ele><time>2026-04-26T12:01:45.909Z</time></trkpt><trkpt lat="53.9627169" lon="-1.797185"><ele>288.5</ele><time>2026-04-26T12:01:46.911Z</time></trkpt><trkpt lat="53.9627776" lon="-1.7970855"><ele>289.0</ele><time>2026-04-26T12:01:47.909Z</time></trkpt><trkpt lat="53.9628426" lon="-1.7969999"><ele>289.5</ele><time>2026-04-26T12:01:48.909Z</time></trkpt><trkpt lat="53.9629104" lon="-1.7969319"><ele>290.0</ele><time>2026-04-26T12:01:49.907Z</time></trkpt><trkpt lat="53.962978" lon="-1.7968746"><ele>290.5</ele><time>2026-04-26T12:01:50.91Z</time></trkpt><trkpt lat="53.9630463" lon="-1.7968136"><ele>291.0</ele><time>2026-04-26T12:01:51.91Z</time></trkpt><trkpt lat="53.9631128" lon="-1.7967453"><ele>291.1666666666667</ele><time>2026-04-26T12:01:52.912Z</time></trkpt><trkpt lat="53.9631781" lon="-1.7966811"><ele>291.3333333333333</ele><time>2026-04-26T12:01:53.914Z</time></trkpt><trkpt lat="53.9632418" lon="-1.7966148"><ele>291.5</ele><time>2026-04-26T12:01:54.91Z</time></trkpt><trkpt lat="53.9633088" lon="-1.7965434"><ele>291.66666666666663</ele><time>2026-04-26T12:01:55.911Z</time></trkpt><trkpt lat="53.9633718" lon="-1.7964692"><ele>291.8333333333333</ele><time>2026-04-26T12:01:56.911Z</time></trkpt><trkpt lat="53.9634277" lon="-1.7963864"><ele>292.0</ele><time>2026-04-26T12:01:57.91Z</time></trkpt><trkpt lat="53.9634861" lon="-1.796305"><ele>292.0</ele><time>2026-04-26T12:01:58.91Z</time></trkpt><trkpt lat="53.9635479" lon="-1.7962261"><ele>292.0</ele><time>2026-04-26T12:01:59.91Z</time></trkpt><trkpt lat="53.9636032" lon="-1.7961421"><ele>292.0</ele><time>2026-04-26T12:02:00.91Z</time></trkpt><trkpt lat="53.9636576" lon="-1.7960663"><ele>292.0</ele><time>2026-04-26T12:02:01.913Z</time></trkpt><trkpt lat="53.9637119" lon="-1.7959998"><ele>292.0</ele><time>2026-04-26T12:02:02.913Z</time></trkpt><trkpt lat="53.9637694" lon="-1.7959264"><ele>292.0</ele><time>2026-04-26T12:02:03.906Z</time></trkpt><trkpt lat="53.9638286" lon="-1.7958466"><ele>292.0</ele><time>2026-04-26T12:02:04.911Z</time></trkpt><trkpt lat="53.9638924" lon="-1.7957599"><ele>291.66666666666663</ele><time>2026-04-26T12:02:05.911Z</time></trkpt><trkpt lat="53.9639589" lon="-1.7956625"><ele>291.3333333333333</ele><time>2026-04-26T12:02:06.912Z</time></trkpt><trkpt lat="53.9640274" lon="-1.7955646"><ele>291.0</ele><time>2026-04-26T12:02:07.914Z</time></trkpt><trkpt lat="53.9640976" lon="-1.7954697"><ele>290.6666666666667</ele><time>2026-04-26T12:02:08.912Z</time></trkpt><trkpt lat="53.9641659" lon="-1.7953762"><ele>290.33333333333337</ele><time>2026-04-26T12:02:09.91Z</time></trkpt><trkpt lat="53.9642239" lon="-1.7952853"><ele>290.0</ele><time>2026-04-26T12:02:10.908Z</time></trkpt><trkpt lat="53.9642696" lon="-1.7951992"><ele>291.42857142857144</ele><time>2026-04-26T12:02:11.909Z</time></trkpt><trkpt lat="53.9643102" lon="-1.7951118"><ele>292.8571428571429</ele><time>2026-04-26T12:02:12.912Z</time></trkpt><trkpt lat="53.9643498" lon="-1.7950266"><ele>294.2857142857143</ele><time>2026-04-26T12:02:13.916Z</time></trkpt><trkpt lat="53.9643901" lon="-1.794939"><ele>295.7142857142857</ele><time>2026-04-26T12:02:14.911Z</time></trkpt><trkpt lat="53.9644343" lon="-1.7948458"><ele>297.1428571428571</ele><time>2026-04-26T12:02:15.91Z</time></trkpt><trkpt lat="53.9644809" lon="-1.7947423"><ele>298.57142857142856</ele><time>2026-04-26T12:02:16.914Z</time></trkpt><trkpt lat="53.9645262" lon="-1.7946371"><ele>300.0</ele><time>2026-04-26T12:02:17.913Z</time></trkpt><trkpt lat="53.9645701" lon="-1.7945293"><ele>299.99999999999994</ele><time>2026-04-26T12:02:18.911Z</time></trkpt><trkpt lat="53.96461" lon="-1.7944219"><ele>300.0</ele><time>2026-04-26T12:02:19.912Z</time></trkpt><trkpt lat="53.9646403" lon="-1.794317"><ele>300.0</ele><time>2026-04-26T12:02:20.911Z</time></trkpt><trkpt lat="53.9646641" lon="-1.7942073"><ele>300.0</ele><time>2026-04-26T12:02:21.911Z</time></trkpt><trkpt lat="53.9646951" lon="-1.7940955"><ele>300.0</ele><time>2026-04-26T12:02:22.915Z</time></trkpt><trkpt lat="53.9647422" lon="-1.7939896"><ele>299.99999999999994</ele><time>2026-04-26T12:02:23.916Z</time></trkpt><trkpt lat="53.964798" lon="-1.7938971"><ele>300.0</ele><time>2026-04-26T12:02:24.912Z</time></trkpt><trkpt lat="53.9648529" lon="-1.79381"><ele>301.1666666666667</ele><time>2026-04-26T12:02:25.911Z</time></trkpt><trkpt lat="53.9649035" lon="-1.7937098"><ele>302.3333333333333</ele><time>2026-04-26T12:02:26.911Z</time></trkpt><trkpt lat="53.9649526" lon="-1.7936078"><ele>303.5</ele><time>2026-04-26T12:02:27.911Z</time></trkpt><trkpt lat="53.9650045" lon="-1.7935231"><ele>304.66666666666663</ele><time>2026-04-26T12:02:28.912Z</time></trkpt><trkpt lat="53.9650579" lon="-1.7934407"><ele>305.8333333333333</ele><time>2026-04-26T12:02:29.913Z</time></trkpt><trkpt lat="53.9651113" lon="-1.7933474"><ele>307.0</ele><time>2026-04-26T12:02:30.913Z</time></trkpt><trkpt lat="53.9651664" lon="-1.7932461"><ele>307.0</ele><time>2026-04-26T12:02:31.908Z</time></trkpt><trkpt lat="53.9652258" lon="-1.7931398"><ele>307.0</ele><time>2026-04-26T12:02:32.906Z</time></trkpt><trkpt lat="53.9652863" lon="-1.7930323"><ele>307.0</ele><time>2026-04-26T12:02:33.912Z</time></trkpt><trkpt lat="53.9653388" lon="-1.7929278"><ele>307.0</ele><time>2026-04-26T12:02:34.909Z</time></trkpt><trkpt lat="53.9653836" lon="-1.7928113"><ele>307.0</ele><time>2026-04-26T12:02:35.909Z</time></trkpt><trkpt lat="53.9654283" lon="-1.7926794"><ele>307.0</ele><time>2026-04-26T12:02:36.91Z</time></trkpt><trkpt lat="53.9654798" lon="-1.7925524"><ele>308.66666666666663</ele><time>2026-04-26T12:02:37.911Z</time></trkpt><trkpt lat="53.9655329" lon="-1.7924406"><ele>310.3333333333333</ele><time>2026-04-26T12:02:38.91Z</time></trkpt><trkpt lat="53.9655709" lon="-1.7923227"><ele>312.0</ele><time>2026-04-26T12:02:39.913Z</time></trkpt><trkpt lat="53.965597" lon="-1.7921963"><ele>313.6666666666667</ele><time>2026-04-26T12:02:40.906Z</time></trkpt><trkpt lat="53.9656212" lon="-1.7920626"><ele>315.33333333333337</ele><time>2026-04-26T12:02:41.91Z</time></trkpt><trkpt lat="53.9656411" lon="-1.7919295"><ele>317.0</ele><time>2026-04-26T12:02:42.911Z</time></trkpt><trkpt lat="53.965653" lon="-1.7918083"><ele>317.83333333333337</ele><time>2026-04-26T12:02:43.916Z</time></trkpt><trkpt lat="53.9656536" lon="-1.7916272"><ele>318.6666666666667</ele><time>2026-04-26T12:02:45.913Z</time></trkpt><trkpt lat="53.9656062" lon="-1.7915566"><ele>319.5</ele><time>2026-04-26T12:03:29.921Z</time></trkpt><trkpt lat="53.9655479" lon="-1.7914583"><ele>320.3333333333333</ele><time>2026-04-26T12:03:31.916Z</time></trkpt><trkpt lat="53.9655047" lon="-1.7913782"><ele>321.16666666666663</ele><time>2026-04-26T12:03:32.919Z</time></trkpt><trkpt lat="53.9654556" lon="-1.7912829"><ele>322.0</ele><time>2026-04-26T12:03:33.924Z</time></trkpt><trkpt lat="53.9654017" lon="-1.7911794"><ele>322.0</ele><time>2026-04-26T12:03:34.913Z</time></trkpt><trkpt lat="53.9653428" lon="-1.7910659"><ele>322.0</ele><time>2026-04-26T12:03:35.912Z</time></trkpt><trkpt lat="53.965287" lon="-1.7909284"><ele>322.0</ele><time>2026-04-26T12:03:36.913Z</time></trkpt><trkpt lat="53.9652415" lon="-1.7907771"><ele>322.0</ele><time>2026-04-26T12:03:37.913Z</time></trkpt><trkpt lat="53.9652052" lon="-1.7906218"><ele>322.0</ele><time>2026-04-26T12:03:38.914Z</time></trkpt><trkpt lat="53.9651735" lon="-1.7904672"><ele>322.3333333333333</ele><time>2026-04-26T12:03:39.913Z</time></trkpt><trkpt lat="53.9651436" lon="-1.7903166"><ele>322.66666666666663</ele><time>2026-04-26T12:03:40.91Z</time></trkpt><trkpt lat="53.9651134" lon="-1.7901767"><ele>323.0</ele><time>2026-04-26T12:03:41.917Z</time></trkpt><trkpt lat="53.9650894" lon="-1.7900434"><ele>323.3333333333333</ele><time>2026-04-26T12:03:42.919Z</time></trkpt><trkpt lat="53.965074" lon="-1.7899106"><ele>323.6666666666667</ele><time>2026-04-26T12:03:43.924Z</time></trkpt><trkpt lat="53.9650596" lon="-1.7897681"><ele>324.0</ele><time>2026-04-26T12:03:44.92Z</time></trkpt><trkpt lat="53.9650383" lon="-1.7896324"><ele>322.5</ele><time>2026-04-26T12:03:45.919Z</time></trkpt><trkpt lat="53.9650129" lon="-1.7895079"><ele>321.0</ele><time>2026-04-26T12:03:46.918Z</time></trkpt><trkpt lat="53.9649943" lon="-1.7893781"><ele>319.5</ele><time>2026-04-26T12:03:47.921Z</time></trkpt><trkpt lat="53.9649871" lon="-1.7892458"><ele>318.0</ele><time>2026-04-26T12:03:48.919Z</time></trkpt><trkpt lat="53.9649755" lon="-1.7891308"><ele>316.5</ele><time>2026-04-26T12:03:49.909Z</time></trkpt><trkpt lat="53.9649136" lon="-1.7889798"><ele>315.0</ele><time>2026-04-26T12:03:51.92Z</time></trkpt><trkpt lat="53.9648635" lon="-1.7888619"><ele>315.0</ele><time>2026-04-26T12:03:53.924Z</time></trkpt><trkpt lat="53.9648172" lon="-1.7886875"><ele>315.0</ele><time>2026-04-26T12:03:55.92Z</time></trkpt><trkpt lat="53.9647837" lon="-1.7885139"><ele>315.0</ele><time>2026-04-26T12:03:57.917Z</time></trkpt><trkpt lat="53.9647548" lon="-1.7883222"><ele>315.0</ele><time>2026-04-26T12:03:59.917Z</time></trkpt><trkpt lat="53.9647424" lon="-1.7882049"><ele>315.0</ele><time>2026-04-26T12:04:00.908Z</time></trkpt><trkpt lat="53.9647339" lon="-1.7880811"><ele>315.4</ele><time>2026-04-26T12:04:01.921Z</time></trkpt><trkpt lat="53.9647313" lon="-1.7878975"><ele>315.8</ele><time>2026-04-26T12:04:03.922Z</time></trkpt><trkpt lat="53.964762" lon="-1.7877249"><ele>316.2</ele><time>2026-04-26T12:04:05.921Z</time></trkpt><trkpt lat="53.9647934" lon="-1.787514"><ele>316.6</ele><time>2026-04-26T12:04:07.921Z</time></trkpt><trkpt lat="53.9648127" lon="-1.7874013"><ele>317.0</ele><time>2026-04-26T12:04:08.919Z</time></trkpt><trkpt lat="53.9648238" lon="-1.7872951"><ele>317.0</ele><time>2026-04-26T12:04:09.919Z</time></trkpt><trkpt lat="53.9648341" lon="-1.7871758"><ele>317.0</ele><time>2026-04-26T12:04:10.919Z</time></trkpt><trkpt lat="53.9648448" lon="-1.786991"><ele>317.0</ele><time>2026-04-26T12:04:12.919Z</time></trkpt><trkpt lat="53.9648836" lon="-1.7868259"><ele>317.0</ele><time>2026-04-26T12:04:14.918Z</time></trkpt><trkpt lat="53.9649132" lon="-1.7866832"><ele>317.0</ele><time>2026-04-26T12:04:16.921Z</time></trkpt><trkpt lat="53.9649433" lon="-1.7865048"><ele>317.0</ele><time>2026-04-26T12:04:18.921Z</time></trkpt><trkpt lat="53.9649723" lon="-1.7863839"><ele>317.0</ele><time>2026-04-26T12:04:19.918Z</time></trkpt><trkpt lat="53.9650022" lon="-1.7862428"><ele>317.0</ele><time>2026-04-26T12:04:20.92Z</time></trkpt><trkpt lat="53.9650385" lon="-1.7860951"><ele>317.0</ele><time>2026-04-26T12:04:21.919Z</time></trkpt><trkpt lat="53.9650825" lon="-1.7859478"><ele>317.0</ele><time>2026-04-26T12:04:22.92Z</time></trkpt><trkpt lat="53.965124" lon="-1.7858076"><ele>317.0</ele><time>2026-04-26T12:04:23.919Z</time></trkpt><trkpt lat="53.9651702" lon="-1.785673"><ele>317.0</ele><time>2026-04-26T12:04:24.919Z</time></trkpt><trkpt lat="53.9652235" lon="-1.7855402"><ele>317.0</ele><time>2026-04-26T12:04:25.919Z</time></trkpt><trkpt lat="53.9652742" lon="-1.7854113"><ele>317.0</ele><time>2026-04-26T12:04:26.921Z</time></trkpt><trkpt lat="53.965312" lon="-1.7852905"><ele>317.0</ele><time>2026-04-26T12:04:27.92Z</time></trkpt><trkpt lat="53.9653367" lon="-1.7851784"><ele>317.0</ele><time>2026-04-26T12:04:28.919Z</time></trkpt><trkpt lat="53.9653834" lon="-1.7849819"><ele>317.0</ele><time>2026-04-26T12:04:30.919Z</time></trkpt><trkpt lat="53.9654653" lon="-1.7848208"><ele>317.0</ele><time>2026-04-26T12:04:32.92Z</time></trkpt><trkpt lat="53.9655196" lon="-1.7847607"><ele>317.0</ele><time>2026-04-26T12:04:33.926Z</time></trkpt><trkpt lat="53.9655832" lon="-1.7847133"><ele>317.0</ele><time>2026-04-26T12:04:34.92Z</time></trkpt><trkpt lat="53.9656542" lon="-1.7846714"><ele>317.0</ele><time>2026-04-26T12:04:35.919Z</time></trkpt><trkpt lat="53.9657158" lon="-1.7846249"><ele>317.0</ele><time>2026-04-26T12:04:36.92Z</time></trkpt><trkpt lat="53.9657963" lon="-1.7844605"><ele>317.33333333333337</ele><time>2026-04-26T12:04:38.907Z</time></trkpt><trkpt lat="53.965821" lon="-1.784341"><ele>317.6666666666667</ele><time>2026-04-26T12:04:39.903Z</time></trkpt><trkpt lat="53.9658419" lon="-1.7842149"><ele>318.0</ele><time>2026-04-26T12:04:40.917Z</time></trkpt><trkpt lat="53.9658648" lon="-1.784093"><ele>318.3333333333333</ele><time>2026-04-26T12:04:41.916Z</time></trkpt><trkpt lat="53.9658939" lon="-1.7839609"><ele>318.66666666666663</ele><time>2026-04-26T12:04:42.919Z</time></trkpt><trkpt lat="53.9659182" lon="-1.7838225"><ele>319.0</ele><time>2026-04-26T12:04:43.925Z</time></trkpt><trkpt lat="53.9659304" lon="-1.7836867"><ele>319.0</ele><time>2026-04-26T12:04:44.921Z</time></trkpt><trkpt lat="53.9659389" lon="-1.7835618"><ele>319.0</ele><time>2026-04-26T12:04:45.92Z</time></trkpt><trkpt lat="53.9659644" lon="-1.7834408"><ele>319.0</ele><time>2026-04-26T12:04:46.917Z</time></trkpt><trkpt lat="53.966004" lon="-1.7833039"><ele>319.0</ele><time>2026-04-26T12:04:47.919Z</time></trkpt><trkpt lat="53.9660483" lon="-1.783153"><ele>319.0</ele><time>2026-04-26T12:04:48.918Z</time></trkpt><trkpt lat="53.966089" lon="-1.7829959"><ele>319.0</ele><time>2026-04-26T12:04:49.919Z</time></trkpt><trkpt lat="53.9661205" lon="-1.7828385"><ele>318.8</ele><time>2026-04-26T12:04:50.92Z</time></trkpt><trkpt lat="53.9661443" lon="-1.7826824"><ele>318.59999999999997</ele><time>2026-04-26T12:04:51.919Z</time></trkpt><trkpt lat="53.9661587" lon="-1.782523"><ele>318.4</ele><time>2026-04-26T12:04:52.92Z</time></trkpt><trkpt lat="53.9661665" lon="-1.7823564"><ele>318.2</ele><time>2026-04-26T12:04:53.923Z</time></trkpt><trkpt lat="53.966172" lon="-1.7821822"><ele>318.0</ele><time>2026-04-26T12:04:54.918Z</time></trkpt><trkpt lat="53.9661748" lon="-1.7819964"><ele>317.2</ele><time>2026-04-26T12:04:55.919Z</time></trkpt><trkpt lat="53.9661783" lon="-1.7818166"><ele>316.4</ele><time>2026-04-26T12:04:56.917Z</time></trkpt><trkpt lat="53.9661908" lon="-1.7816493"><ele>315.59999999999997</ele><time>2026-04-26T12:04:57.918Z</time></trkpt><trkpt lat="53.966211" lon="-1.7814961"><ele>314.8</ele><time>2026-04-26T12:04:58.92Z</time></trkpt><trkpt lat="53.9662349" lon="-1.7813602"><ele>314.0</ele><time>2026-04-26T12:04:59.919Z</time></trkpt><trkpt lat="53.9662653" lon="-1.7812358"><ele>314.0</ele><time>2026-04-26T12:05:00.919Z</time></trkpt><trkpt lat="53.9663026" lon="-1.7811238"><ele>314.0</ele><time>2026-04-26T12:05:01.918Z</time></trkpt><trkpt lat="53.9663392" lon="-1.7810326"><ele>314.0</ele><time>2026-04-26T12:05:02.917Z</time></trkpt><trkpt lat="53.9663985" lon="-1.7808668"><ele>314.0</ele><time>2026-04-26T12:05:04.919Z</time></trkpt><trkpt lat="53.9664483" lon="-1.7806779"><ele>314.0</ele><time>2026-04-26T12:05:06.919Z</time></trkpt><trkpt lat="53.9664743" lon="-1.7805693"><ele>314.0</ele><time>2026-04-26T12:05:07.917Z</time></trkpt><trkpt lat="53.9665017" lon="-1.7804531"><ele>313.71428571428567</ele><time>2026-04-26T12:05:08.917Z</time></trkpt><trkpt lat="53.9665309" lon="-1.7803361"><ele>313.42857142857144</ele><time>2026-04-26T12:05:09.917Z</time></trkpt><trkpt lat="53.966559" lon="-1.7802229"><ele>313.1428571428571</ele><time>2026-04-26T12:05:10.918Z</time></trkpt><trkpt lat="53.9665835" lon="-1.7801087"><ele>312.85714285714283</ele><time>2026-04-26T12:05:11.918Z</time></trkpt><trkpt lat="53.9666069" lon="-1.7800005"><ele>312.57142857142856</ele><time>2026-04-26T12:05:12.918Z</time></trkpt><trkpt lat="53.9666347" lon="-1.7798963"><ele>312.2857142857143</ele><time>2026-04-26T12:05:13.925Z</time></trkpt><trkpt lat="53.9666707" lon="-1.7797863"><ele>312.0</ele><time>2026-04-26T12:05:14.92Z</time></trkpt><trkpt lat="53.9667134" lon="-1.7796656"><ele>313.5</ele><time>2026-04-26T12:05:15.919Z</time></trkpt><trkpt lat="53.96676" lon="-1.7795433"><ele>315.0</ele><time>2026-04-26T12:05:16.918Z</time></trkpt><trkpt lat="53.9668055" lon="-1.7794269"><ele>316.5</ele><time>2026-04-26T12:05:17.918Z</time></trkpt><trkpt lat="53.9668357" lon="-1.7793184"><ele>318.0</ele><time>2026-04-26T12:05:18.919Z</time></trkpt><trkpt lat="53.9668399" lon="-1.7792007"><ele>319.5</ele><time>2026-04-26T12:05:19.918Z</time></trkpt><trkpt lat="53.9668209" lon="-1.7790644"><ele>321.0</ele><time>2026-04-26T12:05:20.918Z</time></trkpt><trkpt lat="53.9667905" lon="-1.778911"><ele>321.20000000000005</ele><time>2026-04-26T12:05:21.918Z</time></trkpt><trkpt lat="53.9667627" lon="-1.7787355"><ele>321.40000000000003</ele><time>2026-04-26T12:05:22.917Z</time></trkpt><trkpt lat="53.9667422" lon="-1.7785608"><ele>321.6</ele><time>2026-04-26T12:05:23.922Z</time></trkpt><trkpt lat="53.9667298" lon="-1.7783983"><ele>321.8</ele><time>2026-04-26T12:05:24.915Z</time></trkpt><trkpt lat="53.9667256" lon="-1.778248"><ele>322.0</ele><time>2026-04-26T12:05:25.918Z</time></trkpt><trkpt lat="53.9667272" lon="-1.7780983"><ele>321.6</ele><time>2026-04-26T12:05:26.917Z</time></trkpt><trkpt lat="53.9667275" lon="-1.7779482"><ele>321.20000000000005</ele><time>2026-04-26T12:05:27.918Z</time></trkpt><trkpt lat="53.9667258" lon="-1.777808"><ele>320.8</ele><time>2026-04-26T12:05:28.917Z</time></trkpt><trkpt lat="53.9667589" lon="-1.7776476"><ele>320.4</ele><time>2026-04-26T12:05:30.917Z</time></trkpt><trkpt lat="53.9668413" lon="-1.7775947"><ele>320.0</ele><time>2026-04-26T12:05:32.917Z</time></trkpt><trkpt lat="53.9669432" lon="-1.7775268"><ele>319.6</ele><time>2026-04-26T12:05:34.908Z</time></trkpt><trkpt lat="53.9670152" lon="-1.7773628"><ele>319.2</ele><time>2026-04-26T12:05:36.92Z</time></trkpt><trkpt lat="53.9670717" lon="-1.7771912"><ele>318.8</ele><time>2026-04-26T12:05:38.92Z</time></trkpt><trkpt lat="53.9671402" lon="-1.7770681"><ele>318.4</ele><time>2026-04-26T12:05:40.918Z</time></trkpt><trkpt lat="53.9671994" lon="-1.7769182"><ele>318.0</ele><time>2026-04-26T12:05:42.919Z</time></trkpt><trkpt lat="53.9672837" lon="-1.7767739"><ele>317.6</ele><time>2026-04-26T12:05:44.921Z</time></trkpt><trkpt lat="53.967375" lon="-1.7766592"><ele>317.20000000000005</ele><time>2026-04-26T12:05:46.92Z</time></trkpt><trkpt lat="53.9674499" lon="-1.7765303"><ele>316.8</ele><time>2026-04-26T12:05:48.918Z</time></trkpt><trkpt lat="53.9674105" lon="-1.7764358"><ele>316.40000000000003</ele><time>2026-04-26T12:06:25.918Z</time></trkpt><trkpt lat="53.967385" lon="-1.7763025"><ele>316.0</ele><time>2026-04-26T12:06:27.918Z</time></trkpt><trkpt lat="53.9673783" lon="-1.7761215"><ele>315.5</ele><time>2026-04-26T12:06:29.917Z</time></trkpt><trkpt lat="53.9673794" lon="-1.77601"><ele>315.0</ele><time>2026-04-26T12:06:30.92Z</time></trkpt><trkpt lat="53.9673785" lon="-1.7758934"><ele>314.5</ele><time>2026-04-26T12:06:31.919Z</time></trkpt><trkpt lat="53.9673752" lon="-1.7757722"><ele>314.0</ele><time>2026-04-26T12:06:32.919Z</time></trkpt><trkpt lat="53.9673696" lon="-1.7756605"><ele>313.5</ele><time>2026-04-26T12:06:33.922Z</time></trkpt><trkpt lat="53.9673563" lon="-1.7754767"><ele>313.0</ele><time>2026-04-26T12:06:35.92Z</time></trkpt><trkpt lat="53.9673486" lon="-1.7753386"><ele>313.0</ele><time>2026-04-26T12:06:37.92Z</time></trkpt><trkpt lat="53.9673523" lon="-1.7751923"><ele>313.0</ele><time>2026-04-26T12:06:39.917Z</time></trkpt><trkpt lat="53.9673633" lon="-1.7749798"><ele>313.0</ele><time>2026-04-26T12:06:41.918Z</time></trkpt><trkpt lat="53.9673662" lon="-1.7747785"><ele>313.0</ele><time>2026-04-26T12:06:43.908Z</time></trkpt><trkpt lat="53.9673656" lon="-1.774659"><ele>313.0</ele><time>2026-04-26T12:06:44.917Z</time></trkpt><trkpt lat="53.9673636" lon="-1.7745316"><ele>312.5</ele><time>2026-04-26T12:06:45.917Z</time></trkpt><trkpt lat="53.9673621" lon="-1.7743956"><ele>312.0</ele><time>2026-04-26T12:06:46.916Z</time></trkpt><trkpt lat="53.967362" lon="-1.7742572"><ele>311.5</ele><time>2026-04-26T12:06:47.916Z</time></trkpt><trkpt lat="53.9673626" lon="-1.7741234"><ele>311.0</ele><time>2026-04-26T12:06:48.916Z</time></trkpt><trkpt lat="53.9673654" lon="-1.773994"><ele>310.5</ele><time>2026-04-26T12:06:49.918Z</time></trkpt><trkpt lat="53.9673617" lon="-1.7738706"><ele>310.0</ele><time>2026-04-26T12:06:50.92Z</time></trkpt><trkpt lat="53.9673509" lon="-1.7737501"><ele>309.66666666666663</ele><time>2026-04-26T12:06:51.917Z</time></trkpt><trkpt lat="53.9673423" lon="-1.7736174"><ele>309.3333333333333</ele><time>2026-04-26T12:06:52.918Z</time></trkpt><trkpt lat="53.9673366" lon="-1.7734696"><ele>309.0</ele><time>2026-04-26T12:06:53.908Z</time></trkpt><trkpt lat="53.967332" lon="-1.7733147"><ele>308.6666666666667</ele><time>2026-04-26T12:06:54.915Z</time></trkpt><trkpt lat="53.9673243" lon="-1.7731694"><ele>308.33333333333337</ele><time>2026-04-26T12:06:55.916Z</time></trkpt><trkpt lat="53.9673185" lon="-1.7730321"><ele>308.0</ele><time>2026-04-26T12:06:56.918Z</time></trkpt><trkpt lat="53.9673136" lon="-1.7728968"><ele>307.83333333333337</ele><time>2026-04-26T12:06:57.917Z</time></trkpt><trkpt lat="53.9673099" lon="-1.772759"><ele>307.6666666666667</ele><time>2026-04-26T12:06:58.916Z</time></trkpt><trkpt lat="53.9673103" lon="-1.7726175"><ele>307.5</ele><time>2026-04-26T12:06:59.917Z</time></trkpt><trkpt lat="53.9673138" lon="-1.7724737"><ele>307.3333333333333</ele><time>2026-04-26T12:07:00.916Z</time></trkpt><trkpt lat="53.9673178" lon="-1.7723289"><ele>307.16666666666663</ele><time>2026-04-26T12:07:01.915Z</time></trkpt><trkpt lat="53.9673155" lon="-1.7721835"><ele>307.0</ele><time>2026-04-26T12:07:02.917Z</time></trkpt><trkpt lat="53.9673083" lon="-1.7720298"><ele>306.8</ele><time>2026-04-26T12:07:03.927Z</time></trkpt><trkpt lat="53.9672969" lon="-1.7718704"><ele>306.6</ele><time>2026-04-26T12:07:04.917Z</time></trkpt><trkpt lat="53.9672791" lon="-1.7717139"><ele>306.40000000000003</ele><time>2026-04-26T12:07:05.917Z</time></trkpt><trkpt lat="53.9672596" lon="-1.7715562"><ele>306.2</ele><time>2026-04-26T12:07:06.911Z</time></trkpt><trkpt lat="53.9672412" lon="-1.7713903"><ele>306.0</ele><time>2026-04-26T12:07:07.916Z</time></trkpt><trkpt lat="53.9672253" lon="-1.7712222"><ele>305.6</ele><time>2026-04-26T12:07:08.917Z</time></trkpt><trkpt lat="53.9672152" lon="-1.7710522"><ele>305.20000000000005</ele><time>2026-04-26T12:07:09.916Z</time></trkpt><trkpt lat="53.9672079" lon="-1.7708894"><ele>304.79999999999995</ele><time>2026-04-26T12:07:10.915Z</time></trkpt><trkpt lat="53.9671964" lon="-1.770733"><ele>304.4</ele><time>2026-04-26T12:07:11.909Z</time></trkpt><trkpt lat="53.9671806" lon="-1.7705854"><ele>304.0</ele><time>2026-04-26T12:07:12.916Z</time></trkpt><trkpt lat="53.9671676" lon="-1.7704389"><ele>303.59999999999997</ele><time>2026-04-26T12:07:13.919Z</time></trkpt><trkpt lat="53.9671577" lon="-1.7702876"><ele>303.2</ele><time>2026-04-26T12:07:14.916Z</time></trkpt><trkpt lat="53.9671521" lon="-1.7701338"><ele>302.79999999999995</ele><time>2026-04-26T12:07:15.918Z</time></trkpt><trkpt lat="53.9671475" lon="-1.7699826"><ele>302.4</ele><time>2026-04-26T12:07:16.918Z</time></trkpt><trkpt lat="53.9671409" lon="-1.7698268"><ele>302.0</ele><time>2026-04-26T12:07:17.916Z</time></trkpt><trkpt lat="53.9671306" lon="-1.7696681"><ele>301.33333333333337</ele><time>2026-04-26T12:07:18.918Z</time></trkpt><trkpt lat="53.9671128" lon="-1.7695139"><ele>300.6666666666667</ele><time>2026-04-26T12:07:19.917Z</time></trkpt><trkpt lat="53.967089" lon="-1.7693652"><ele>300.0</ele><time>2026-04-26T12:07:20.918Z</time></trkpt><trkpt lat="53.9670649" lon="-1.7692228"><ele>299.3333333333333</ele><time>2026-04-26T12:07:21.915Z</time></trkpt><trkpt lat="53.9670502" lon="-1.7690805"><ele>298.66666666666663</ele><time>2026-04-26T12:07:22.916Z</time></trkpt><trkpt lat="53.9670524" lon="-1.7689339"><ele>298.0</ele><time>2026-04-26T12:07:23.921Z</time></trkpt><trkpt lat="53.9670678" lon="-1.768804"><ele>297.8333333333333</ele><time>2026-04-26T12:07:24.918Z</time></trkpt><trkpt lat="53.9671016" lon="-1.768624"><ele>297.66666666666663</ele><time>2026-04-26T12:07:26.908Z</time></trkpt><trkpt lat="53.9671115" lon="-1.768518"><ele>297.5</ele><time>2026-04-26T12:07:28.906Z</time></trkpt><trkpt lat="53.9671028" lon="-1.7683812"><ele>297.3333333333333</ele><time>2026-04-26T12:07:31.904Z</time></trkpt><trkpt lat="53.9671028" lon="-1.7682395"><ele>297.1666666666667</ele><time>2026-04-26T12:07:33.92Z</time></trkpt><trkpt lat="53.9671096" lon="-1.7681293"><ele>297.0</ele><time>2026-04-26T12:07:34.917Z</time></trkpt><trkpt lat="53.9671308" lon="-1.768017"><ele>296.8333333333333</ele><time>2026-04-26T12:07:35.915Z</time></trkpt><trkpt lat="53.9671551" lon="-1.7679101"><ele>296.6666666666667</ele><time>2026-04-26T12:07:36.914Z</time></trkpt><trkpt lat="53.9671745" lon="-1.7678067"><ele>296.5</ele><time>2026-04-26T12:07:37.918Z</time></trkpt><trkpt lat="53.9671762" lon="-1.767592"><ele>296.33333333333337</ele><time>2026-04-26T12:07:39.915Z</time></trkpt><trkpt lat="53.9671706" lon="-1.7674751"><ele>296.1666666666667</ele><time>2026-04-26T12:07:40.916Z</time></trkpt><trkpt lat="53.9671447" lon="-1.76732"><ele>296.0</ele><time>2026-04-26T12:07:42.915Z</time></trkpt><trkpt lat="53.9670971" lon="-1.7672099"><ele>296.0</ele><time>2026-04-26T12:07:44.915Z</time></trkpt><trkpt lat="53.9670585" lon="-1.7670613"><ele>296.0</ele><time>2026-04-26T12:07:46.915Z</time></trkpt><trkpt lat="53.9670208" lon="-1.7668932"><ele>296.0</ele><time>2026-04-26T12:07:48.913Z</time></trkpt><trkpt lat="53.9669727" lon="-1.7667638"><ele>296.0</ele><time>2026-04-26T12:07:50.917Z</time></trkpt><trkpt lat="53.9669468" lon="-1.7666079"><ele>296.0</ele><time>2026-04-26T12:07:52.915Z</time></trkpt><trkpt lat="53.9669388" lon="-1.7663826"><ele>296.0</ele><time>2026-04-26T12:07:54.914Z</time></trkpt><trkpt lat="53.9669301" lon="-1.7662503"><ele>296.0</ele><time>2026-04-26T12:07:55.914Z</time></trkpt><trkpt lat="53.9669171" lon="-1.7661146"><ele>296.0</ele><time>2026-04-26T12:07:56.913Z</time></trkpt><trkpt lat="53.9669065" lon="-1.7659814"><ele>296.0</ele><time>2026-04-26T12:07:57.914Z</time></trkpt><trkpt lat="53.9668999" lon="-1.7658607"><ele>296.0</ele><time>2026-04-26T12:07:58.914Z</time></trkpt><trkpt lat="53.9668925" lon="-1.7657483"><ele>296.0</ele><time>2026-04-26T12:07:59.913Z</time></trkpt><trkpt lat="53.9668905" lon="-1.7655795"><ele>296.0</ele><time>2026-04-26T12:08:01.914Z</time></trkpt><trkpt lat="53.9668633" lon="-1.7654512"><ele>296.0</ele><time>2026-04-26T12:08:04.914Z</time></trkpt><trkpt lat="53.9668338" lon="-1.7653018"><ele>296.0</ele><time>2026-04-26T12:08:06.915Z</time></trkpt><trkpt lat="53.9668334" lon="-1.7650977"><ele>296.0</ele><time>2026-04-26T12:08:08.914Z</time></trkpt><trkpt lat="53.9668312" lon="-1.7649862"><ele>296.0</ele><time>2026-04-26T12:08:09.913Z</time></trkpt><trkpt lat="53.9668234" lon="-1.7648649"><ele>296.0</ele><time>2026-04-26T12:08:10.915Z</time></trkpt><trkpt lat="53.9668148" lon="-1.7647431"><ele>295.8</ele><time>2026-04-26T12:08:11.915Z</time></trkpt><trkpt lat="53.9668064" lon="-1.7646363"><ele>295.6</ele><time>2026-04-26T12:08:12.915Z</time></trkpt><trkpt lat="53.9667864" lon="-1.7644644"><ele>295.4</ele><time>2026-04-26T12:08:14.914Z</time></trkpt><trkpt lat="53.9667212" lon="-1.7642876"><ele>295.2</ele><time>2026-04-26T12:08:16.917Z</time></trkpt><trkpt lat="53.9666816" lon="-1.7642"><ele>295.0</ele><time>2026-04-26T12:08:17.914Z</time></trkpt><trkpt lat="53.9666246" lon="-1.7640237"><ele>294.16666666666663</ele><time>2026-04-26T12:08:19.914Z</time></trkpt><trkpt lat="53.9665949" lon="-1.7638581"><ele>293.3333333333333</ele><time>2026-04-26T12:08:21.915Z</time></trkpt><trkpt lat="53.9666126" lon="-1.7637498"><ele>292.5</ele><time>2026-04-26T12:08:24.915Z</time></trkpt><trkpt lat="53.9666485" lon="-1.7638471"><ele>291.6666666666667</ele><time>2026-04-26T12:08:31.915Z</time></trkpt><trkpt lat="53.966666" lon="-1.7639928"><ele>290.83333333333337</ele><time>2026-04-26T12:08:33.926Z</time></trkpt><trkpt lat="53.9665886" lon="-1.764009"><ele>290.0</ele><time>2026-04-26T12:08:36.917Z</time></trkpt><trkpt lat="53.9665511" lon="-1.7638824"><ele>290.0</ele><time>2026-04-26T12:08:39.915Z</time></trkpt><trkpt lat="53.9664704" lon="-1.763785"><ele>290.0</ele><time>2026-04-26T12:08:42.916Z</time></trkpt><trkpt lat="53.9664743" lon="-1.7636475"><ele>290.0</ele><time>2026-04-26T12:08:44.916Z</time></trkpt><trkpt lat="53.9665306" lon="-1.7635048"><ele>290.0</ele><time>2026-04-26T12:08:46.915Z</time></trkpt><trkpt lat="53.9665764" lon="-1.7634019"><ele>290.0</ele><time>2026-04-26T12:08:48.918Z</time></trkpt><trkpt lat="53.9665623" lon="-1.7632802"><ele>290.0</ele><time>2026-04-26T12:08:50.915Z</time></trkpt><trkpt lat="53.9665261" lon="-1.763077"><ele>289.6</ele><time>2026-04-26T12:08:52.908Z</time></trkpt><trkpt lat="53.9664895" lon="-1.7629208"><ele>289.2</ele><time>2026-04-26T12:08:54.919Z</time></trkpt><trkpt lat="53.9664006" lon="-1.7628621"><ele>288.8</ele><time>2026-04-26T12:08:57.914Z</time></trkpt><trkpt lat="53.966372" lon="-1.7627155"><ele>288.4</ele><time>2026-04-26T12:09:00.917Z</time></trkpt><trkpt lat="53.9663719" lon="-1.762572"><ele>288.0</ele><time>2026-04-26T12:09:02.917Z</time></trkpt><trkpt lat="53.9663874" lon="-1.7624258"><ele>287.6666666666667</ele><time>2026-04-26T12:09:04.918Z</time></trkpt><trkpt lat="53.9664277" lon="-1.7622838"><ele>287.3333333333333</ele><time>2026-04-26T12:09:07.916Z</time></trkpt><trkpt lat="53.966493" lon="-1.7621694"><ele>287.0</ele><time>2026-04-26T12:09:15.938Z</time></trkpt><trkpt lat="53.9665019" lon="-1.7620248"><ele>286.66666666666663</ele><time>2026-04-26T12:09:19.938Z</time></trkpt><trkpt lat="53.9665097" lon="-1.7619035"><ele>286.3333333333333</ele><time>2026-04-26T12:09:20.917Z</time></trkpt><trkpt lat="53.9665067" lon="-1.7617243"><ele>286.0</ele><time>2026-04-26T12:09:21.917Z</time></trkpt><trkpt lat="53.9664971" lon="-1.7616009"><ele>286.0</ele><time>2026-04-26T12:09:22.915Z</time></trkpt><trkpt lat="53.9664734" lon="-1.7614564"><ele>286.0</ele><time>2026-04-26T12:09:24.916Z</time></trkpt><trkpt lat="53.9664504" lon="-1.7612871"><ele>286.0</ele><time>2026-04-26T12:09:26.916Z</time></trkpt><trkpt lat="53.9664454" lon="-1.7610968"><ele>286.0</ele><time>2026-04-26T12:09:28.915Z</time></trkpt><trkpt lat="53.9664399" lon="-1.7609733"><ele>286.0</ele><time>2026-04-26T12:09:29.915Z</time></trkpt><trkpt lat="53.9664307" lon="-1.7608518"><ele>286.0</ele><time>2026-04-26T12:09:30.913Z</time></trkpt><trkpt lat="53.96642" lon="-1.7607261"><ele>286.0</ele><time>2026-04-26T12:09:31.918Z</time></trkpt><trkpt lat="53.9664103" lon="-1.7605949"><ele>286.0</ele><time>2026-04-26T12:09:32.919Z</time></trkpt><trkpt lat="53.9663978" lon="-1.7604417"><ele>286.0</ele><time>2026-04-26T12:09:33.923Z</time></trkpt><trkpt lat="53.9663864" lon="-1.7602823"><ele>286.0</ele><time>2026-04-26T12:09:34.918Z</time></trkpt><trkpt lat="53.9663777" lon="-1.7601454"><ele>286.0</ele><time>2026-04-26T12:09:35.916Z</time></trkpt><trkpt lat="53.9663693" lon="-1.7600191"><ele>286.0</ele><time>2026-04-26T12:09:36.917Z</time></trkpt><trkpt lat="53.966362" lon="-1.7598972"><ele>286.0</ele><time>2026-04-26T12:09:37.921Z</time></trkpt><trkpt lat="53.9663576" lon="-1.7597857"><ele>286.0</ele><time>2026-04-26T12:09:38.915Z</time></trkpt><trkpt lat="53.9663532" lon="-1.7596671"><ele>286.0</ele><time>2026-04-26T12:09:39.915Z</time></trkpt><trkpt lat="53.9663473" lon="-1.7595491"><ele>286.0</ele><time>2026-04-26T12:09:40.916Z</time></trkpt><trkpt lat="53.9663356" lon="-1.7594208"><ele>286.0</ele><time>2026-04-26T12:09:41.914Z</time></trkpt><trkpt lat="53.9663182" lon="-1.7592787"><ele>286.0</ele><time>2026-04-26T12:09:42.916Z</time></trkpt><trkpt lat="53.9663003" lon="-1.7591213"><ele>286.0</ele><time>2026-04-26T12:09:43.921Z</time></trkpt><trkpt lat="53.9662831" lon="-1.7589445"><ele>286.0</ele><time>2026-04-26T12:09:44.916Z</time></trkpt><trkpt lat="53.9662696" lon="-1.7587697"><ele>286.0</ele><time>2026-04-26T12:09:45.914Z</time></trkpt><trkpt lat="53.9662625" lon="-1.7586396"><ele>286.0</ele><time>2026-04-26T12:09:46.916Z</time></trkpt><trkpt lat="53.9662669" lon="-1.7585317"><ele>286.0</ele><time>2026-04-26T12:09:48.917Z</time></trkpt><trkpt lat="53.9662223" lon="-1.7586166"><ele>286.0</ele><time>2026-04-26T12:10:27.909Z</time></trkpt><trkpt lat="53.966134" lon="-1.7587655"><ele>286.0</ele><time>2026-04-26T12:10:29.909Z</time></trkpt><trkpt lat="53.9660686" lon="-1.7589225"><ele>286.0</ele><time>2026-04-26T12:10:31.91Z</time></trkpt><trkpt lat="53.9659737" lon="-1.7590668"><ele>286.0</ele><time>2026-04-26T12:10:33.903Z</time></trkpt><trkpt lat="53.9659254" lon="-1.7591429"><ele>286.0</ele><time>2026-04-26T12:10:34.911Z</time></trkpt><trkpt lat="53.9658892" lon="-1.7592314"><ele>286.0</ele><time>2026-04-26T12:10:35.91Z</time></trkpt><trkpt lat="53.965838" lon="-1.7593749"><ele>286.6</ele><time>2026-04-26T12:10:37.91Z</time></trkpt><trkpt lat="53.9657974" lon="-1.7594608"><ele>287.20000000000005</ele><time>2026-04-26T12:10:39.915Z</time></trkpt><trkpt lat="53.9657394" lon="-1.7595799"><ele>287.79999999999995</ele><time>2026-04-26T12:10:41.911Z</time></trkpt><trkpt lat="53.9656567" lon="-1.7596804"><ele>288.4</ele><time>2026-04-26T12:10:43.914Z</time></trkpt><trkpt lat="53.9656066" lon="-1.7597754"><ele>289.0</ele><time>2026-04-26T12:10:45.91Z</time></trkpt><trkpt lat="53.9655225" lon="-1.7599502"><ele>289.0</ele><time>2026-04-26T12:10:47.908Z</time></trkpt><trkpt lat="53.9654573" lon="-1.7600754"><ele>289.0</ele><time>2026-04-26T12:10:48.913Z</time></trkpt><trkpt lat="53.9653886" lon="-1.7602165"><ele>289.0</ele><time>2026-04-26T12:10:49.912Z</time></trkpt><trkpt lat="53.9653243" lon="-1.7603523"><ele>289.0</ele><time>2026-04-26T12:10:50.912Z</time></trkpt><trkpt lat="53.9652665" lon="-1.7604817"><ele>289.0</ele><time>2026-04-26T12:10:51.913Z</time></trkpt><trkpt lat="53.9652112" lon="-1.7606014"><ele>289.2</ele><time>2026-04-26T12:10:52.913Z</time></trkpt><trkpt lat="53.9651525" lon="-1.7607119"><ele>289.4</ele><time>2026-04-26T12:10:53.907Z</time></trkpt><trkpt lat="53.9650866" lon="-1.7608261"><ele>289.6</ele><time>2026-04-26T12:10:54.913Z</time></trkpt><trkpt lat="53.9650162" lon="-1.7609402"><ele>289.8</ele><time>2026-04-26T12:10:55.911Z</time></trkpt><trkpt lat="53.9649433" lon="-1.7610523"><ele>290.0</ele><time>2026-04-26T12:10:56.907Z</time></trkpt><trkpt lat="53.9648683" lon="-1.7611584"><ele>290.1666666666667</ele><time>2026-04-26T12:10:57.912Z</time></trkpt><trkpt lat="53.9647929" lon="-1.7612555"><ele>290.33333333333337</ele><time>2026-04-26T12:10:58.913Z</time></trkpt><trkpt lat="53.9647186" lon="-1.7613366"><ele>290.5</ele><time>2026-04-26T12:10:59.913Z</time></trkpt><trkpt lat="53.9646483" lon="-1.7614014"><ele>290.6666666666667</ele><time>2026-04-26T12:11:00.911Z</time></trkpt><trkpt lat="53.9645855" lon="-1.7614601"><ele>290.8333333333333</ele><time>2026-04-26T12:11:01.914Z</time></trkpt><trkpt lat="53.9645301" lon="-1.7615197"><ele>291.0</ele><time>2026-04-26T12:11:02.911Z</time></trkpt><trkpt lat="53.9644733" lon="-1.7615813"><ele>291.0</ele><time>2026-04-26T12:11:03.918Z</time></trkpt><trkpt lat="53.9644093" lon="-1.7616366"><ele>291.0</ele><time>2026-04-26T12:11:04.914Z</time></trkpt><trkpt lat="53.964342" lon="-1.7616838"><ele>291.0</ele><time>2026-04-26T12:11:05.914Z</time></trkpt><trkpt lat="53.9642673" lon="-1.7617335"><ele>291.0</ele><time>2026-04-26T12:11:06.913Z</time></trkpt><trkpt lat="53.9641881" lon="-1.7617966"><ele>291.0</ele><time>2026-04-26T12:11:07.914Z</time></trkpt><trkpt lat="53.9641135" lon="-1.7618732"><ele>291.0</ele><time>2026-04-26T12:11:08.915Z</time></trkpt><trkpt lat="53.9640488" lon="-1.7619507"><ele>290.6666666666667</ele><time>2026-04-26T12:11:09.915Z</time></trkpt><trkpt lat="53.9639911" lon="-1.7620281"><ele>290.3333333333333</ele><time>2026-04-26T12:11:10.916Z</time></trkpt><trkpt lat="53.9639344" lon="-1.7621145"><ele>290.0</ele><time>2026-04-26T12:11:11.913Z</time></trkpt><trkpt lat="53.9638732" lon="-1.7622084"><ele>289.66666666666663</ele><time>2026-04-26T12:11:12.905Z</time></trkpt><trkpt lat="53.9638062" lon="-1.7623077"><ele>289.3333333333333</ele><time>2026-04-26T12:11:13.921Z</time></trkpt><trkpt lat="53.9637388" lon="-1.7623999"><ele>289.0</ele><time>2026-04-26T12:11:14.915Z</time></trkpt><trkpt lat="53.9636772" lon="-1.7624784"><ele>289.0</ele><time>2026-04-26T12:11:15.913Z</time></trkpt><trkpt lat="53.9636178" lon="-1.7625569"><ele>289.0</ele><time>2026-04-26T12:11:16.913Z</time></trkpt><trkpt lat="53.963551" lon="-1.7626466"><ele>289.0</ele><time>2026-04-26T12:11:17.913Z</time></trkpt><trkpt lat="53.9634794" lon="-1.7627372"><ele>289.0</ele><time>2026-04-26T12:11:18.915Z</time></trkpt><trkpt lat="53.9634099" lon="-1.7628211"><ele>289.0</ele><time>2026-04-26T12:11:19.913Z</time></trkpt><trkpt lat="53.9633489" lon="-1.7629026"><ele>289.0</ele><time>2026-04-26T12:11:20.905Z</time></trkpt><trkpt lat="53.9632894" lon="-1.7629865"><ele>288.0</ele><time>2026-04-26T12:11:21.914Z</time></trkpt><trkpt lat="53.9632283" lon="-1.7630602"><ele>287.0</ele><time>2026-04-26T12:11:22.911Z</time></trkpt><trkpt lat="53.9631713" lon="-1.7631195"><ele>286.0</ele><time>2026-04-26T12:11:23.917Z</time></trkpt><trkpt lat="53.9630868" lon="-1.7632257"><ele>285.0</ele><time>2026-04-26T12:11:25.914Z</time></trkpt><trkpt lat="53.9630404" lon="-1.7633474"><ele>284.0</ele><time>2026-04-26T12:11:27.911Z</time></trkpt><trkpt lat="53.9629427" lon="-1.7634832"><ele>284.1666666666667</ele><time>2026-04-26T12:11:29.913Z</time></trkpt><trkpt lat="53.9628768" lon="-1.7635602"><ele>284.33333333333337</ele><time>2026-04-26T12:11:30.915Z</time></trkpt><trkpt lat="53.9628081" lon="-1.7636485"><ele>284.5</ele><time>2026-04-26T12:11:31.914Z</time></trkpt><trkpt lat="53.9627325" lon="-1.7637382"><ele>284.6666666666667</ele><time>2026-04-26T12:11:32.912Z</time></trkpt><trkpt lat="53.9626528" lon="-1.7638303"><ele>284.8333333333333</ele><time>2026-04-26T12:11:33.919Z</time></trkpt><trkpt lat="53.9625761" lon="-1.7639219"><ele>285.0</ele><time>2026-04-26T12:11:34.916Z</time></trkpt><trkpt lat="53.9625086" lon="-1.7640098"><ele>284.1666666666667</ele><time>2026-04-26T12:11:35.918Z</time></trkpt><trkpt lat="53.9624502" lon="-1.7641011"><ele>283.3333333333333</ele><time>2026-04-26T12:11:36.916Z</time></trkpt><trkpt lat="53.9623955" lon="-1.7641902"><ele>282.5</ele><time>2026-04-26T12:11:37.914Z</time></trkpt><trkpt lat="53.9623425" lon="-1.7642718"><ele>281.66666666666663</ele><time>2026-04-26T12:11:38.914Z</time></trkpt><trkpt lat="53.9622856" lon="-1.7643539"><ele>280.8333333333333</ele><time>2026-04-26T12:11:39.915Z</time></trkpt><trkpt lat="53.9622225" lon="-1.7644354"><ele>280.0</ele><time>2026-04-26T12:11:40.916Z</time></trkpt><trkpt lat="53.9621578" lon="-1.7645096"><ele>280.0</ele><time>2026-04-26T12:11:41.912Z</time></trkpt><trkpt lat="53.9620893" lon="-1.7645774"><ele>280.0</ele><time>2026-04-26T12:11:42.912Z</time></trkpt><trkpt lat="53.9620284" lon="-1.764638"><ele>280.0</ele><time>2026-04-26T12:11:43.917Z</time></trkpt><trkpt lat="53.9619263" lon="-1.7647257"><ele>280.0</ele><time>2026-04-26T12:11:45.913Z</time></trkpt><trkpt lat="53.9618293" lon="-1.7648254"><ele>280.0</ele><time>2026-04-26T12:11:47.914Z</time></trkpt><trkpt lat="53.9617309" lon="-1.7649681"><ele>279.0</ele><time>2026-04-26T12:11:49.913Z</time></trkpt><trkpt lat="53.9616345" lon="-1.7650562"><ele>278.0</ele><time>2026-04-26T12:11:51.911Z</time></trkpt><trkpt lat="53.9615293" lon="-1.7650867"><ele>277.0</ele><time>2026-04-26T12:11:53.914Z</time></trkpt><trkpt lat="53.9614373" lon="-1.76514"><ele>276.0</ele><time>2026-04-26T12:11:55.912Z</time></trkpt><trkpt lat="53.961354" lon="-1.7652035"><ele>275.0</ele><time>2026-04-26T12:11:57.913Z</time></trkpt><trkpt lat="53.9612602" lon="-1.7652708"><ele>275.0</ele><time>2026-04-26T12:11:59.914Z</time></trkpt><trkpt lat="53.9611529" lon="-1.7653579"><ele>275.0</ele><time>2026-04-26T12:12:01.914Z</time></trkpt><trkpt lat="53.9610624" lon="-1.7654693"><ele>275.0</ele><time>2026-04-26T12:12:03.915Z</time></trkpt><trkpt lat="53.9610095" lon="-1.7655407"><ele>275.0</ele><time>2026-04-26T12:12:04.914Z</time></trkpt><trkpt lat="53.96095" lon="-1.7656205"><ele>275.0</ele><time>2026-04-26T12:12:05.913Z</time></trkpt><trkpt lat="53.9608851" lon="-1.7657057"><ele>274.42857142857144</ele><time>2026-04-26T12:12:06.915Z</time></trkpt><trkpt lat="53.9608212" lon="-1.7657963"><ele>273.85714285714283</ele><time>2026-04-26T12:12:07.912Z</time></trkpt><trkpt lat="53.9607589" lon="-1.7658848"><ele>273.2857142857143</ele><time>2026-04-26T12:12:08.913Z</time></trkpt><trkpt lat="53.9606995" lon="-1.7659619"><ele>272.7142857142857</ele><time>2026-04-26T12:12:09.909Z</time></trkpt><trkpt lat="53.9606442" lon="-1.7660372"><ele>272.14285714285717</ele><time>2026-04-26T12:12:10.909Z</time></trkpt><trkpt lat="53.9605941" lon="-1.7661114"><ele>271.57142857142856</ele><time>2026-04-26T12:12:11.912Z</time></trkpt><trkpt lat="53.9605342" lon="-1.7661805"><ele>271.0</ele><time>2026-04-26T12:12:12.911Z</time></trkpt><trkpt lat="53.9604721" lon="-1.7662454"><ele>271.0</ele><time>2026-04-26T12:12:13.914Z</time></trkpt><trkpt lat="53.9603918" lon="-1.7663746"><ele>271.0</ele><time>2026-04-26T12:12:15.912Z</time></trkpt><trkpt lat="53.9603511" lon="-1.7664803"><ele>271.0</ele><time>2026-04-26T12:12:17.913Z</time></trkpt><trkpt lat="53.9602883" lon="-1.7665645"><ele>271.0</ele><time>2026-04-26T12:12:19.911Z</time></trkpt><trkpt lat="53.9601924" lon="-1.7667181"><ele>271.0</ele><time>2026-04-26T12:12:21.912Z</time></trkpt><trkpt lat="53.9601267" lon="-1.7668061"><ele>271.3333333333333</ele><time>2026-04-26T12:12:22.912Z</time></trkpt><trkpt lat="53.9600547" lon="-1.7668864"><ele>271.66666666666663</ele><time>2026-04-26T12:12:23.915Z</time></trkpt><trkpt lat="53.9599902" lon="-1.76697"><ele>272.0</ele><time>2026-04-26T12:12:24.912Z</time></trkpt><trkpt lat="53.9599266" lon="-1.7670609"><ele>272.3333333333333</ele><time>2026-04-26T12:12:25.912Z</time></trkpt><trkpt lat="53.9598628" lon="-1.7671717"><ele>272.6666666666667</ele><time>2026-04-26T12:12:26.912Z</time></trkpt><trkpt lat="53.959793" lon="-1.7672962"><ele>273.0</ele><time>2026-04-26T12:12:27.912Z</time></trkpt><trkpt lat="53.9597127" lon="-1.7674143"><ele>272.1666666666667</ele><time>2026-04-26T12:12:28.914Z</time></trkpt><trkpt lat="53.9596355" lon="-1.7675177"><ele>271.3333333333333</ele><time>2026-04-26T12:12:29.912Z</time></trkpt><trkpt lat="53.9595667" lon="-1.7676065"><ele>270.5</ele><time>2026-04-26T12:12:30.913Z</time></trkpt><trkpt lat="53.9595035" lon="-1.7676857"><ele>269.66666666666663</ele><time>2026-04-26T12:12:31.91Z</time></trkpt><trkpt lat="53.959443" lon="-1.7677611"><ele>268.8333333333333</ele><time>2026-04-26T12:12:32.911Z</time></trkpt><trkpt lat="53.959382" lon="-1.7678406"><ele>268.0</ele><time>2026-04-26T12:12:33.915Z</time></trkpt><trkpt lat="53.9593248" lon="-1.7679214"><ele>268.0</ele><time>2026-04-26T12:12:34.911Z</time></trkpt><trkpt lat="53.9592757" lon="-1.7679925"><ele>268.0</ele><time>2026-04-26T12:12:35.912Z</time></trkpt><trkpt lat="53.9591926" lon="-1.7681085"><ele>268.0</ele><time>2026-04-26T12:12:37.908Z</time></trkpt><trkpt lat="53.9591355" lon="-1.7681547"><ele>268.0</ele><time>2026-04-26T12:12:38.911Z</time></trkpt><trkpt lat="53.9590639" lon="-1.7682012"><ele>268.0</ele><time>2026-04-26T12:12:39.913Z</time></trkpt><trkpt lat="53.9589813" lon="-1.7682651"><ele>268.0</ele><time>2026-04-26T12:12:40.912Z</time></trkpt><trkpt lat="53.9588947" lon="-1.7683499"><ele>267.2</ele><time>2026-04-26T12:12:41.91Z</time></trkpt><trkpt lat="53.9588099" lon="-1.7684496"><ele>266.4</ele><time>2026-04-26T12:12:42.912Z</time></trkpt><trkpt lat="53.9587314" lon="-1.76855"><ele>265.59999999999997</ele><time>2026-04-26T12:12:43.922Z</time></trkpt><trkpt lat="53.9586522" lon="-1.7686428"><ele>264.8</ele><time>2026-04-26T12:12:44.914Z</time></trkpt><trkpt lat="53.9585737" lon="-1.7687244"><ele>264.0</ele><time>2026-04-26T12:12:45.913Z</time></trkpt><trkpt lat="53.9585115" lon="-1.7688029"><ele>264.0</ele><time>2026-04-26T12:12:46.915Z</time></trkpt><trkpt lat="53.9584684" lon="-1.7688828"><ele>264.0</ele><time>2026-04-26T12:12:47.913Z</time></trkpt><trkpt lat="53.9583893" lon="-1.7690585"><ele>264.0</ele><time>2026-04-26T12:12:49.913Z</time></trkpt><trkpt lat="53.9583406" lon="-1.7691643"><ele>264.0</ele><time>2026-04-26T12:12:50.912Z</time></trkpt><trkpt lat="53.9582856" lon="-1.7692647"><ele>264.0</ele><time>2026-04-26T12:12:51.913Z</time></trkpt><trkpt lat="53.9582303" lon="-1.7693633"><ele>264.0</ele><time>2026-04-26T12:12:52.911Z</time></trkpt><trkpt lat="53.9581814" lon="-1.7694738"><ele>263.0</ele><time>2026-04-26T12:12:53.913Z</time></trkpt><trkpt lat="53.9581351" lon="-1.7695925"><ele>262.0</ele><time>2026-04-26T12:12:54.911Z</time></trkpt><trkpt lat="53.9580911" lon="-1.769704"><ele>261.0</ele><time>2026-04-26T12:12:55.912Z</time></trkpt><trkpt lat="53.958056" lon="-1.7697962"><ele>260.0</ele><time>2026-04-26T12:12:56.912Z</time></trkpt><trkpt lat="53.958021" lon="-1.7699496"><ele>259.0</ele><time>2026-04-26T12:12:58.904Z</time></trkpt><trkpt lat="53.9580121" lon="-1.7700888"><ele>258.0</ele><time>2026-04-26T12:13:00.913Z</time></trkpt><trkpt lat="53.9580001" lon="-1.7702224"><ele>258.0</ele><time>2026-04-26T12:13:02.911Z</time></trkpt><trkpt lat="53.9579735" lon="-1.7703286"><ele>258.0</ele><time>2026-04-26T12:13:04.912Z</time></trkpt><trkpt lat="53.9579395" lon="-1.770435"><ele>258.0</ele><time>2026-04-26T12:13:06.912Z</time></trkpt><trkpt lat="53.9578972" lon="-1.7705444"><ele>258.0</ele><time>2026-04-26T12:13:08.911Z</time></trkpt><trkpt lat="53.9578466" lon="-1.7706626"><ele>258.0</ele><time>2026-04-26T12:13:10.914Z</time></trkpt><trkpt lat="53.9577993" lon="-1.7708045"><ele>258.0</ele><time>2026-04-26T12:13:12.907Z</time></trkpt><trkpt lat="53.9577641" lon="-1.7709135"><ele>258.0</ele><time>2026-04-26T12:13:15.91Z</time></trkpt><trkpt lat="53.9576971" lon="-1.7709333"><ele>258.0</ele><time>2026-04-26T12:14:52.922Z</time></trkpt><trkpt lat="53.9575963" lon="-1.7709859"><ele>258.0</ele><time>2026-04-26T12:14:54.927Z</time></trkpt><trkpt lat="53.9575248" lon="-1.7710224"><ele>258.0</ele><time>2026-04-26T12:14:55.922Z</time></trkpt><trkpt lat="53.957447" lon="-1.7710701"><ele>258.0</ele><time>2026-04-26T12:14:56.924Z</time></trkpt><trkpt lat="53.9573654" lon="-1.771124"><ele>258.0</ele><time>2026-04-26T12:14:57.922Z</time></trkpt><trkpt lat="53.9572844" lon="-1.7711792"><ele>258.1666666666667</ele><time>2026-04-26T12:14:58.922Z</time></trkpt><trkpt lat="53.9572038" lon="-1.7712223"><ele>258.3333333333333</ele><time>2026-04-26T12:14:59.924Z</time></trkpt><trkpt lat="53.9571371" lon="-1.7712466"><ele>258.5</ele><time>2026-04-26T12:15:00.922Z</time></trkpt><trkpt lat="53.9570612" lon="-1.7712813"><ele>258.66666666666663</ele><time>2026-04-26T12:15:02.922Z</time></trkpt><trkpt lat="53.9569985" lon="-1.7713106"><ele>258.8333333333333</ele><time>2026-04-26T12:15:04.922Z</time></trkpt><trkpt lat="53.9569014" lon="-1.7713643"><ele>259.0</ele><time>2026-04-26T12:15:07.919Z</time></trkpt><trkpt lat="53.9567796" lon="-1.7714446"><ele>259.0</ele><time>2026-04-26T12:15:09.921Z</time></trkpt><trkpt lat="53.9567187" lon="-1.7715251"><ele>259.0</ele><time>2026-04-26T12:15:10.919Z</time></trkpt><trkpt lat="53.9566568" lon="-1.7716306"><ele>259.0</ele><time>2026-04-26T12:15:11.921Z</time></trkpt><trkpt lat="53.9565972" lon="-1.7717296"><ele>259.0</ele><time>2026-04-26T12:15:12.923Z</time></trkpt><trkpt lat="53.9565469" lon="-1.7717968"><ele>259.0</ele><time>2026-04-26T12:15:13.925Z</time></trkpt><trkpt lat="53.9564935" lon="-1.7718615"><ele>259.0</ele><time>2026-04-26T12:15:15.921Z</time></trkpt><trkpt lat="53.9564322" lon="-1.7720314"><ele>258.5</ele><time>2026-04-26T12:15:25.922Z</time></trkpt><trkpt lat="53.956361" lon="-1.7721285"><ele>258.0</ele><time>2026-04-26T12:15:26.923Z</time></trkpt><trkpt lat="53.9562864" lon="-1.7722386"><ele>257.5</ele><time>2026-04-26T12:15:27.923Z</time></trkpt><trkpt lat="53.9562189" lon="-1.7723478"><ele>257.0</ele><time>2026-04-26T12:15:28.923Z</time></trkpt><trkpt lat="53.956155" lon="-1.7724472"><ele>256.5</ele><time>2026-04-26T12:15:29.922Z</time></trkpt><trkpt lat="53.9560965" lon="-1.7725282"><ele>256.0</ele><time>2026-04-26T12:15:30.924Z</time></trkpt><trkpt lat="53.9560139" lon="-1.7726256"><ele>256.0</ele><time>2026-04-26T12:15:32.921Z</time></trkpt><trkpt lat="53.955945" lon="-1.7726523"><ele>256.0</ele><time>2026-04-26T12:16:01.918Z</time></trkpt><trkpt lat="53.9558354" lon="-1.7726596"><ele>256.0</ele><time>2026-04-26T12:16:04.923Z</time></trkpt><trkpt lat="53.9557467" lon="-1.7726696"><ele>256.0</ele><time>2026-04-26T12:16:05.923Z</time></trkpt><trkpt lat="53.9556389" lon="-1.772696"><ele>256.0</ele><time>2026-04-26T12:16:06.924Z</time></trkpt><trkpt lat="53.9555059" lon="-1.7727319"><ele>255.0</ele><time>2026-04-26T12:16:07.925Z</time></trkpt><trkpt lat="53.9553506" lon="-1.7727755"><ele>254.0</ele><time>2026-04-26T12:16:08.919Z</time></trkpt><trkpt lat="53.9551896" lon="-1.7728206"><ele>253.0</ele><time>2026-04-26T12:16:09.927Z</time></trkpt><trkpt lat="53.9550443" lon="-1.7728618"><ele>252.0</ele><time>2026-04-26T12:16:10.925Z</time></trkpt><trkpt lat="53.9548998" lon="-1.7729057"><ele>251.0</ele><time>2026-04-26T12:16:11.923Z</time></trkpt><trkpt lat="53.9547573" lon="-1.7729486"><ele>250.0</ele><time>2026-04-26T12:16:12.922Z</time></trkpt><trkpt lat="53.9546182" lon="-1.7729914"><ele>249.0</ele><time>2026-04-26T12:16:13.929Z</time></trkpt><trkpt lat="53.9544845" lon="-1.7730336"><ele>249.0</ele><time>2026-04-26T12:16:14.919Z</time></trkpt><trkpt lat="53.9543461" lon="-1.7730753"><ele>249.0</ele><time>2026-04-26T12:16:15.925Z</time></trkpt><trkpt lat="53.9542097" lon="-1.7731165"><ele>249.0</ele><time>2026-04-26T12:16:16.923Z</time></trkpt><trkpt lat="53.9540699" lon="-1.7731575"><ele>249.0</ele><time>2026-04-26T12:16:17.922Z</time></trkpt><trkpt lat="53.9539317" lon="-1.7731991"><ele>248.25</ele><time>2026-04-26T12:16:18.924Z</time></trkpt><trkpt lat="53.9537975" lon="-1.773236"><ele>247.5</ele><time>2026-04-26T12:16:19.923Z</time></trkpt><trkpt lat="53.9536616" lon="-1.773274"><ele>246.75</ele><time>2026-04-26T12:16:20.924Z</time></trkpt><trkpt lat="53.9535329" lon="-1.7733105"><ele>246.0</ele><time>2026-04-26T12:16:21.924Z</time></trkpt><trkpt lat="53.9534152" lon="-1.7733447"><ele>245.16666666666666</ele><time>2026-04-26T12:16:22.923Z</time></trkpt><trkpt lat="53.9533083" lon="-1.7733819"><ele>244.33333333333331</ele><time>2026-04-26T12:16:23.927Z</time></trkpt><trkpt lat="53.9532141" lon="-1.7734169"><ele>243.5</ele><time>2026-04-26T12:16:24.923Z</time></trkpt><trkpt lat="53.9531337" lon="-1.77345"><ele>242.66666666666666</ele><time>2026-04-26T12:16:25.921Z</time></trkpt><trkpt lat="53.9530678" lon="-1.7734852"><ele>241.83333333333331</ele><time>2026-04-26T12:16:26.923Z</time></trkpt><trkpt lat="53.9529922" lon="-1.7734938"><ele>241.0</ele><time>2026-04-26T12:16:28.921Z</time></trkpt><trkpt lat="53.952979" lon="-1.7733821"><ele>241.0</ele><time>2026-04-26T12:16:43.919Z</time></trkpt><trkpt lat="53.9528448" lon="-1.7733847"><ele>241.0</ele><time>2026-04-26T12:16:46.91Z</time></trkpt><trkpt lat="53.9527542" lon="-1.7734112"><ele>241.0</ele><time>2026-04-26T12:16:47.911Z</time></trkpt><trkpt lat="53.952645" lon="-1.7734494"><ele>241.0</ele><time>2026-04-26T12:16:48.916Z</time></trkpt><trkpt lat="53.9525216" lon="-1.7734973"><ele>238.75</ele><time>2026-04-26T12:16:49.917Z</time></trkpt><trkpt lat="53.9523945" lon="-1.7735427"><ele>236.5</ele><time>2026-04-26T12:16:50.923Z</time></trkpt><trkpt lat="53.9522703" lon="-1.7735891"><ele>234.25</ele><time>2026-04-26T12:16:51.924Z</time></trkpt><trkpt lat="53.9521459" lon="-1.7736321"><ele>232.0</ele><time>2026-04-26T12:16:52.923Z</time></trkpt><trkpt lat="53.9520199" lon="-1.7736688"><ele>232.0</ele><time>2026-04-26T12:16:53.927Z</time></trkpt><trkpt lat="53.951899" lon="-1.7737077"><ele>232.0</ele><time>2026-04-26T12:16:54.922Z</time></trkpt><trkpt lat="53.9517765" lon="-1.7737495"><ele>232.0</ele><time>2026-04-26T12:16:55.923Z</time></trkpt><trkpt lat="53.9516415" lon="-1.7737919"><ele>232.0</ele><time>2026-04-26T12:16:56.914Z</time></trkpt><trkpt lat="53.951505" lon="-1.7738287"><ele>230.25</ele><time>2026-04-26T12:16:57.923Z</time></trkpt><trkpt lat="53.9513767" lon="-1.7738701"><ele>228.5</ele><time>2026-04-26T12:16:58.911Z</time></trkpt><trkpt lat="53.9512564" lon="-1.7739096"><ele>226.75</ele><time>2026-04-26T12:16:59.924Z</time></trkpt><trkpt lat="53.9511375" lon="-1.7739462"><ele>225.0</ele><time>2026-04-26T12:17:00.922Z</time></trkpt><trkpt lat="53.9510167" lon="-1.7739868"><ele>225.0</ele><time>2026-04-26T12:17:01.924Z</time></trkpt><trkpt lat="53.950892" lon="-1.7740305"><ele>225.0</ele><time>2026-04-26T12:17:02.924Z</time></trkpt><trkpt lat="53.9507693" lon="-1.7740696"><ele>225.0</ele><time>2026-04-26T12:17:03.925Z</time></trkpt><trkpt lat="53.9506441" lon="-1.7741095"><ele>225.0</ele><time>2026-04-26T12:17:04.921Z</time></trkpt><trkpt lat="53.9505072" lon="-1.7741554"><ele>221.66666666666669</ele><time>2026-04-26T12:17:05.923Z</time></trkpt><trkpt lat="53.950348" lon="-1.7742059"><ele>218.33333333333334</ele><time>2026-04-26T12:17:06.925Z</time></trkpt><trkpt lat="53.95016" lon="-1.7742598"><ele>215.0</ele><time>2026-04-26T12:17:07.924Z</time></trkpt><trkpt lat="53.9499523" lon="-1.774322"><ele>210.0</ele><time>2026-04-26T12:17:08.924Z</time></trkpt><trkpt lat="53.9497294" lon="-1.7743854"><ele>205.0</ele><time>2026-04-26T12:17:09.921Z</time></trkpt><trkpt lat="53.9495078" lon="-1.774449"><ele>205.0</ele><time>2026-04-26T12:17:10.919Z</time></trkpt><trkpt lat="53.9492946" lon="-1.7745107"><ele>205.0</ele><time>2026-04-26T12:17:11.919Z</time></trkpt><trkpt lat="53.9490849" lon="-1.7745784"><ele>205.0</ele><time>2026-04-26T12:17:12.921Z</time></trkpt><trkpt lat="53.9488793" lon="-1.77464"><ele>203.66666666666666</ele><time>2026-04-26T12:17:13.928Z</time></trkpt><trkpt lat="53.9486916" lon="-1.7746982"><ele>202.33333333333331</ele><time>2026-04-26T12:17:14.922Z</time></trkpt><trkpt lat="53.9485271" lon="-1.7747507"><ele>201.0</ele><time>2026-04-26T12:17:15.922Z</time></trkpt><trkpt lat="53.9483841" lon="-1.7747933"><ele>200.4</ele><time>2026-04-26T12:17:16.918Z</time></trkpt><trkpt lat="53.9482585" lon="-1.77483"><ele>199.8</ele><time>2026-04-26T12:17:17.922Z</time></trkpt><trkpt lat="53.9481446" lon="-1.7748684"><ele>199.20000000000002</ele><time>2026-04-26T12:17:18.921Z</time></trkpt><trkpt lat="53.948048" lon="-1.7749052"><ele>198.60000000000002</ele><time>2026-04-26T12:17:19.92Z</time></trkpt><trkpt lat="53.9479645" lon="-1.7749218"><ele>198.0</ele><time>2026-04-26T12:17:20.92Z</time></trkpt><trkpt lat="53.9479042" lon="-1.774885"><ele>198.0</ele><time>2026-04-26T12:17:21.923Z</time></trkpt><trkpt lat="53.9478507" lon="-1.7746873"><ele>198.0</ele><time>2026-04-26T12:17:23.924Z</time></trkpt><trkpt lat="53.9478165" lon="-1.7745286"><ele>198.0</ele><time>2026-04-26T12:17:25.922Z</time></trkpt><trkpt lat="53.9477348" lon="-1.77455"><ele>198.0</ele><time>2026-04-26T12:17:28.924Z</time></trkpt><trkpt lat="53.9476536" lon="-1.7745898"><ele>198.0</ele><time>2026-04-26T12:18:49.923Z</time></trkpt><trkpt lat="53.9475785" lon="-1.7746136"><ele>197.5</ele><time>2026-04-26T12:18:50.923Z</time></trkpt><trkpt lat="53.9474742" lon="-1.7746484"><ele>197.0</ele><time>2026-04-26T12:18:51.922Z</time></trkpt><trkpt lat="53.9473503" lon="-1.7746847"><ele>196.5</ele><time>2026-04-26T12:18:52.923Z</time></trkpt><trkpt lat="53.9472201" lon="-1.7747186"><ele>196.0</ele><time>2026-04-26T12:18:53.913Z</time></trkpt><trkpt lat="53.9470863" lon="-1.7747537"><ele>196.0</ele><time>2026-04-26T12:18:54.922Z</time></trkpt><trkpt lat="53.9469474" lon="-1.77479"><ele>196.0</ele><time>2026-04-26T12:18:55.921Z</time></trkpt><trkpt lat="53.946803" lon="-1.7748279"><ele>196.0</ele><time>2026-04-26T12:18:56.921Z</time></trkpt><trkpt lat="53.9466485" lon="-1.774872"><ele>196.0</ele><time>2026-04-26T12:18:57.92Z</time></trkpt><trkpt lat="53.94648" lon="-1.7749194"><ele>193.66666666666666</ele><time>2026-04-26T12:18:58.919Z</time></trkpt><trkpt lat="53.9463095" lon="-1.7749635"><ele>191.33333333333331</ele><time>2026-04-26T12:18:59.92Z</time></trkpt><trkpt lat="53.9461521" lon="-1.7749966"><ele>189.0</ele><time>2026-04-26T12:19:00.921Z</time></trkpt><trkpt lat="53.9460057" lon="-1.7750162"><ele>187.0</ele><time>2026-04-26T12:19:01.923Z</time></trkpt><trkpt lat="53.945863" lon="-1.7750235"><ele>185.0</ele><time>2026-04-26T12:19:02.924Z</time></trkpt><trkpt lat="53.9457103" lon="-1.7750227"><ele>183.0</ele><time>2026-04-26T12:19:03.926Z</time></trkpt><trkpt lat="53.9455526" lon="-1.775013"><ele>183.0</ele><time>2026-04-26T12:19:04.927Z</time></trkpt><trkpt lat="53.94539" lon="-1.7750096"><ele>183.0</ele><time>2026-04-26T12:19:05.927Z</time></trkpt><trkpt lat="53.9452141" lon="-1.7750251"><ele>183.0</ele><time>2026-04-26T12:19:06.927Z</time></trkpt><trkpt lat="53.9450279" lon="-1.7750561"><ele>182.0</ele><time>2026-04-26T12:19:07.923Z</time></trkpt><trkpt lat="53.9448453" lon="-1.7750927"><ele>181.0</ele><time>2026-04-26T12:19:08.924Z</time></trkpt><trkpt lat="53.9446803" lon="-1.7751416"><ele>180.0</ele><time>2026-04-26T12:19:09.923Z</time></trkpt><trkpt lat="53.94453" lon="-1.7751962"><ele>179.75</ele><time>2026-04-26T12:19:10.924Z</time></trkpt><trkpt lat="53.9443951" lon="-1.7752486"><ele>179.5</ele><time>2026-04-26T12:19:11.921Z</time></trkpt><trkpt lat="53.9442612" lon="-1.7752875"><ele>179.25</ele><time>2026-04-26T12:19:12.92Z</time></trkpt><trkpt lat="53.9441209" lon="-1.7753153"><ele>179.0</ele><time>2026-04-26T12:19:13.921Z</time></trkpt><trkpt lat="53.9439656" lon="-1.7753223"><ele>176.66666666666666</ele><time>2026-04-26T12:19:14.908Z</time></trkpt><trkpt lat="53.943801" lon="-1.775308"><ele>174.33333333333334</ele><time>2026-04-26T12:19:15.922Z</time></trkpt><trkpt lat="53.9436313" lon="-1.7752975"><ele>172.0</ele><time>2026-04-26T12:19:16.92Z</time></trkpt><trkpt lat="53.9434599" lon="-1.7753117"><ele>169.66666666666669</ele><time>2026-04-26T12:19:17.922Z</time></trkpt><trkpt lat="53.9432957" lon="-1.7753509"><ele>167.33333333333334</ele><time>2026-04-26T12:19:18.924Z</time></trkpt><trkpt lat="53.9431357" lon="-1.7754062"><ele>165.0</ele><time>2026-04-26T12:19:19.912Z</time></trkpt><trkpt lat="53.9429784" lon="-1.7754677"><ele>165.0</ele><time>2026-04-26T12:19:20.921Z</time></trkpt><trkpt lat="53.9428237" lon="-1.7755332"><ele>165.0</ele><time>2026-04-26T12:19:21.922Z</time></trkpt><trkpt lat="53.942671" lon="-1.7755951"><ele>165.0</ele><time>2026-04-26T12:19:22.92Z</time></trkpt><trkpt lat="53.9425213" lon="-1.7756383"><ele>163.0</ele><time>2026-04-26T12:19:23.92Z</time></trkpt><trkpt lat="53.9423773" lon="-1.7756568"><ele>161.0</ele><time>2026-04-26T12:19:24.918Z</time></trkpt><trkpt lat="53.9422399" lon="-1.7756535"><ele>159.0</ele><time>2026-04-26T12:19:25.919Z</time></trkpt><trkpt lat="53.9421091" lon="-1.7756681"><ele>157.0</ele><time>2026-04-26T12:19:26.919Z</time></trkpt><trkpt lat="53.941979" lon="-1.7757106"><ele>157.0</ele><time>2026-04-26T12:19:27.922Z</time></trkpt><trkpt lat="53.9418328" lon="-1.7757816"><ele>157.0</ele><time>2026-04-26T12:19:28.92Z</time></trkpt><trkpt lat="53.9416748" lon="-1.7758672"><ele>157.0</ele><time>2026-04-26T12:19:29.92Z</time></trkpt><trkpt lat="53.9415047" lon="-1.7759435"><ele>155.33333333333334</ele><time>2026-04-26T12:19:30.919Z</time></trkpt><trkpt lat="53.9413295" lon="-1.7760055"><ele>153.66666666666666</ele><time>2026-04-26T12:19:31.911Z</time></trkpt><trkpt lat="53.9411629" lon="-1.7760585"><ele>152.0</ele><time>2026-04-26T12:19:32.921Z</time></trkpt><trkpt lat="53.9410035" lon="-1.7761081"><ele>149.0</ele><time>2026-04-26T12:19:33.922Z</time></trkpt><trkpt lat="53.9408472" lon="-1.776156"><ele>146.0</ele><time>2026-04-26T12:19:34.922Z</time></trkpt><trkpt lat="53.9406913" lon="-1.7762065"><ele>143.0</ele><time>2026-04-26T12:19:35.921Z</time></trkpt><trkpt lat="53.9405293" lon="-1.7762503"><ele>143.0</ele><time>2026-04-26T12:19:36.91Z</time></trkpt><trkpt lat="53.9403608" lon="-1.7762765"><ele>143.0</ele><time>2026-04-26T12:19:37.91Z</time></trkpt><trkpt lat="53.9401884" lon="-1.7762916"><ele>143.0</ele><time>2026-04-26T12:19:38.908Z</time></trkpt><trkpt lat="53.9400073" lon="-1.7763017"><ele>141.0</ele><time>2026-04-26T12:19:39.921Z</time></trkpt><trkpt lat="53.9398222" lon="-1.7763176"><ele>139.0</ele><time>2026-04-26T12:19:40.92Z</time></trkpt><trkpt lat="53.9396297" lon="-1.7763512"><ele>137.0</ele><time>2026-04-26T12:19:41.918Z</time></trkpt><trkpt lat="53.9394294" lon="-1.7764112"><ele>137.0</ele><time>2026-04-26T12:19:42.92Z</time></trkpt><trkpt lat="53.9392346" lon="-1.776488"><ele>137.0</ele><time>2026-04-26T12:19:43.925Z</time></trkpt><trkpt lat="53.9390555" lon="-1.7765605"><ele>137.0</ele><time>2026-04-26T12:19:44.918Z</time></trkpt><trkpt lat="53.9388951" lon="-1.7766197"><ele>135.6</ele><time>2026-04-26T12:19:45.92Z</time></trkpt><trkpt lat="53.938754" lon="-1.7766576"><ele>134.2</ele><time>2026-04-26T12:19:46.92Z</time></trkpt><trkpt lat="53.9386392" lon="-1.7766666"><ele>132.8</ele><time>2026-04-26T12:19:47.918Z</time></trkpt><trkpt lat="53.9385485" lon="-1.7766667"><ele>131.4</ele><time>2026-04-26T12:19:48.916Z</time></trkpt><trkpt lat="53.938478" lon="-1.7766652"><ele>130.0</ele><time>2026-04-26T12:19:49.917Z</time></trkpt><trkpt lat="53.9383793" lon="-1.7766999"><ele>130.0</ele><time>2026-04-26T12:19:51.916Z</time></trkpt><trkpt lat="53.9383301" lon="-1.7767905"><ele>130.0</ele><time>2026-04-26T12:19:53.923Z</time></trkpt><trkpt lat="53.9383109" lon="-1.7769023"><ele>130.0</ele><time>2026-04-26T12:19:55.919Z</time></trkpt><trkpt lat="53.9382991" lon="-1.7770314"><ele>130.0</ele><time>2026-04-26T12:19:57.92Z</time></trkpt><trkpt lat="53.9382822" lon="-1.7771671"><ele>130.0</ele><time>2026-04-26T12:19:59.92Z</time></trkpt><trkpt lat="53.9382681" lon="-1.7773173"><ele>130.0</ele><time>2026-04-26T12:20:01.921Z</time></trkpt><trkpt lat="53.9382673" lon="-1.7774392"><ele>129.25</ele><time>2026-04-26T12:20:02.923Z</time></trkpt><trkpt lat="53.9382633" lon="-1.7776157"><ele>128.5</ele><time>2026-04-26T12:20:03.923Z</time></trkpt><trkpt lat="53.9382565" lon="-1.7778578"><ele>127.75</ele><time>2026-04-26T12:20:04.922Z</time></trkpt><trkpt lat="53.9382399" lon="-1.7781182"><ele>127.0</ele><time>2026-04-26T12:20:05.921Z</time></trkpt><trkpt lat="53.9382323" lon="-1.7783319"><ele>124.75</ele><time>2026-04-26T12:20:06.925Z</time></trkpt><trkpt lat="53.938223" lon="-1.7785226"><ele>122.5</ele><time>2026-04-26T12:20:07.925Z</time></trkpt><trkpt lat="53.9382275" lon="-1.7787102"><ele>120.25</ele><time>2026-04-26T12:20:08.922Z</time></trkpt><trkpt lat="53.9382359" lon="-1.7789273"><ele>118.0</ele><time>2026-04-26T12:20:09.921Z</time></trkpt><trkpt lat="53.9382231" lon="-1.7791604"><ele>117.33333333333334</ele><time>2026-04-26T12:20:10.914Z</time></trkpt><trkpt lat="53.9381704" lon="-1.7793971"><ele>116.66666666666666</ele><time>2026-04-26T12:20:11.923Z</time></trkpt><trkpt lat="53.9380802" lon="-1.7796279"><ele>116.0</ele><time>2026-04-26T12:20:12.923Z</time></trkpt><trkpt lat="53.9379812" lon="-1.7798507"><ele>116.0</ele><time>2026-04-26T12:20:13.92Z</time></trkpt><trkpt lat="53.9378741" lon="-1.7800696"><ele>116.0</ele><time>2026-04-26T12:20:14.924Z</time></trkpt><trkpt lat="53.9377713" lon="-1.7802796"><ele>116.0</ele><time>2026-04-26T12:20:15.922Z</time></trkpt><trkpt lat="53.9376792" lon="-1.780475"><ele>115.8</ele><time>2026-04-26T12:20:16.922Z</time></trkpt><trkpt lat="53.937599" lon="-1.7806397"><ele>115.6</ele><time>2026-04-26T12:20:17.921Z</time></trkpt><trkpt lat="53.9375277" lon="-1.7807836"><ele>115.4</ele><time>2026-04-26T12:20:18.922Z</time></trkpt><trkpt lat="53.9374679" lon="-1.7809088"><ele>115.2</ele><time>2026-04-26T12:20:19.925Z</time></trkpt><trkpt lat="53.9374152" lon="-1.7810202"><ele>115.0</ele><time>2026-04-26T12:20:20.924Z</time></trkpt><trkpt lat="53.9373623" lon="-1.7811247"><ele>114.2</ele><time>2026-04-26T12:20:21.92Z</time></trkpt><trkpt lat="53.9373068" lon="-1.7812351"><ele>113.4</ele><time>2026-04-26T12:20:22.92Z</time></trkpt><trkpt lat="53.9372487" lon="-1.7813622"><ele>112.6</ele><time>2026-04-26T12:20:23.928Z</time></trkpt><trkpt lat="53.9371876" lon="-1.7815065"><ele>111.8</ele><time>2026-04-26T12:20:24.923Z</time></trkpt><trkpt lat="53.9371218" lon="-1.7816629"><ele>111.0</ele><time>2026-04-26T12:20:25.922Z</time></trkpt><trkpt lat="53.9370481" lon="-1.7818365"><ele>110.8</ele><time>2026-04-26T12:20:26.923Z</time></trkpt><trkpt lat="53.9369738" lon="-1.7820182"><ele>110.6</ele><time>2026-04-26T12:20:27.925Z</time></trkpt><trkpt lat="53.9369038" lon="-1.7821869"><ele>110.4</ele><time>2026-04-26T12:20:28.923Z</time></trkpt><trkpt lat="53.9368438" lon="-1.7823366"><ele>110.2</ele><time>2026-04-26T12:20:29.919Z</time></trkpt><trkpt lat="53.9367904" lon="-1.782452"><ele>110.0</ele><time>2026-04-26T12:20:30.918Z</time></trkpt><trkpt lat="53.9367436" lon="-1.7825363"><ele>110.16666666666666</ele><time>2026-04-26T12:20:31.921Z</time></trkpt><trkpt lat="53.9366771" lon="-1.7826421"><ele>110.33333333333333</ele><time>2026-04-26T12:20:33.923Z</time></trkpt><trkpt lat="53.936682" lon="-1.7827901"><ele>110.5</ele><time>2026-04-26T12:20:35.926Z</time></trkpt><trkpt lat="53.9367245" lon="-1.7829032"><ele>110.66666666666666</ele><time>2026-04-26T12:20:36.923Z</time></trkpt><trkpt lat="53.9367701" lon="-1.783042"><ele>110.83333333333333</ele><time>2026-04-26T12:20:37.921Z</time></trkpt><trkpt lat="53.9367905" lon="-1.7831923"><ele>111.0</ele><time>2026-04-26T12:20:38.921Z</time></trkpt><trkpt lat="53.9367756" lon="-1.7833137"><ele>109.25</ele><time>2026-04-26T12:20:39.922Z</time></trkpt><trkpt lat="53.9367192" lon="-1.7834201"><ele>107.5</ele><time>2026-04-26T12:20:40.921Z</time></trkpt><trkpt lat="53.9366281" lon="-1.7835075"><ele>105.75</ele><time>2026-04-26T12:20:41.919Z</time></trkpt><trkpt lat="53.9365063" lon="-1.7835776"><ele>104.0</ele><time>2026-04-26T12:20:42.918Z</time></trkpt><trkpt lat="53.9363724" lon="-1.7836507"><ele>104.0</ele><time>2026-04-26T12:20:43.923Z</time></trkpt><trkpt lat="53.9362259" lon="-1.783737"><ele>104.0</ele><time>2026-04-26T12:20:44.92Z</time></trkpt><trkpt lat="53.9360776" lon="-1.7838365"><ele>104.0</ele><time>2026-04-26T12:20:45.923Z</time></trkpt><trkpt lat="53.9359293" lon="-1.7839468"><ele>102.66666666666666</ele><time>2026-04-26T12:20:46.921Z</time></trkpt><trkpt lat="53.9357713" lon="-1.7840509"><ele>101.33333333333334</ele><time>2026-04-26T12:20:47.918Z</time></trkpt><trkpt lat="53.9356044" lon="-1.7841477"><ele>100.0</ele><time>2026-04-26T12:20:48.907Z</time></trkpt><trkpt lat="53.9354277" lon="-1.7842337"><ele>100.0</ele><time>2026-04-26T12:20:49.923Z</time></trkpt><trkpt lat="53.9352495" lon="-1.7843027"><ele>100.0</ele><time>2026-04-26T12:20:50.922Z</time></trkpt><trkpt lat="53.9350757" lon="-1.7843647"><ele>100.0</ele><time>2026-04-26T12:20:51.923Z</time></trkpt><trkpt lat="53.9349075" lon="-1.7844215"><ele>98.0</ele><time>2026-04-26T12:20:52.925Z</time></trkpt><trkpt lat="53.9347526" lon="-1.7844722"><ele>96.0</ele><time>2026-04-26T12:20:53.925Z</time></trkpt><trkpt lat="53.9346016" lon="-1.7845276"><ele>94.0</ele><time>2026-04-26T12:20:54.923Z</time></trkpt><trkpt lat="53.9344477" lon="-1.7845887"><ele>94.0</ele><time>2026-04-26T12:20:55.909Z</time></trkpt><trkpt lat="53.934294" lon="-1.7846528"><ele>94.0</ele><time>2026-04-26T12:20:56.918Z</time></trkpt><trkpt lat="53.9341475" lon="-1.7847124"><ele>94.0</ele><time>2026-04-26T12:20:57.919Z</time></trkpt><trkpt lat="53.9340099" lon="-1.784749"><ele>94.0</ele><time>2026-04-26T12:20:58.922Z</time></trkpt><trkpt lat="53.9338741" lon="-1.7847177"><ele>90.33333333333333</ele><time>2026-04-26T12:20:59.925Z</time></trkpt><trkpt lat="53.9337372" lon="-1.7846063"><ele>86.66666666666667</ele><time>2026-04-26T12:21:00.923Z</time></trkpt><trkpt lat="53.9336189" lon="-1.7844294"><ele>83.0</ele><time>2026-04-26T12:21:01.925Z</time></trkpt><trkpt lat="53.9335206" lon="-1.7842046"><ele>83.0</ele><time>2026-04-26T12:21:02.924Z</time></trkpt><trkpt lat="53.9334209" lon="-1.78397"><ele>83.0</ele><time>2026-04-26T12:21:03.923Z</time></trkpt><trkpt lat="53.9333072" lon="-1.7837386"><ele>83.0</ele><time>2026-04-26T12:21:04.924Z</time></trkpt><trkpt lat="53.9331587" lon="-1.7835554"><ele>80.66666666666667</ele><time>2026-04-26T12:21:05.923Z</time></trkpt><trkpt lat="53.9329818" lon="-1.7834221"><ele>78.33333333333333</ele><time>2026-04-26T12:21:06.922Z</time></trkpt><trkpt lat="53.9327941" lon="-1.7833362"><ele>76.0</ele><time>2026-04-26T12:21:07.922Z</time></trkpt><trkpt lat="53.932597" lon="-1.7832836"><ele>76.33333333333333</ele><time>2026-04-26T12:21:08.92Z</time></trkpt><trkpt lat="53.9323953" lon="-1.7832464"><ele>76.66666666666667</ele><time>2026-04-26T12:21:09.921Z</time></trkpt><trkpt lat="53.9321902" lon="-1.7831996"><ele>77.0</ele><time>2026-04-26T12:21:10.919Z</time></trkpt><trkpt lat="53.9319778" lon="-1.7831477"><ele>77.0</ele><time>2026-04-26T12:21:11.915Z</time></trkpt><trkpt lat="53.9317622" lon="-1.7830935"><ele>77.0</ele><time>2026-04-26T12:21:12.916Z</time></trkpt><trkpt lat="53.9315547" lon="-1.7830216"><ele>77.0</ele><time>2026-04-26T12:21:13.921Z</time></trkpt><trkpt lat="53.9313609" lon="-1.782935"><ele>76.33333333333334</ele><time>2026-04-26T12:21:14.918Z</time></trkpt><trkpt lat="53.9311813" lon="-1.7828362"><ele>75.66666666666667</ele><time>2026-04-26T12:21:15.916Z</time></trkpt><trkpt lat="53.9309988" lon="-1.7827255"><ele>75.0</ele><time>2026-04-26T12:21:16.915Z</time></trkpt><trkpt lat="53.930807" lon="-1.7826078"><ele>75.0</ele><time>2026-04-26T12:21:17.917Z</time></trkpt><trkpt lat="53.9306188" lon="-1.7824925"><ele>75.0</ele><time>2026-04-26T12:21:18.917Z</time></trkpt><trkpt lat="53.9304502" lon="-1.782389"><ele>75.0</ele><time>2026-04-26T12:21:19.916Z</time></trkpt><trkpt lat="53.9303085" lon="-1.7823033"><ele>75.0</ele><time>2026-04-26T12:21:20.916Z</time></trkpt><trkpt lat="53.9301974" lon="-1.7822436"><ele>75.0</ele><time>2026-04-26T12:21:21.914Z</time></trkpt><trkpt lat="53.9301109" lon="-1.7822029"><ele>75.0</ele><time>2026-04-26T12:21:22.907Z</time></trkpt><trkpt lat="53.9300124" lon="-1.782182"><ele>75.0</ele><time>2026-04-26T12:21:24.916Z</time></trkpt><trkpt lat="53.9299682" lon="-1.7823"><ele>75.0</ele><time>2026-04-26T12:21:27.909Z</time></trkpt><trkpt lat="53.9299751" lon="-1.7824331"><ele>74.0</ele><time>2026-04-26T12:21:28.915Z</time></trkpt><trkpt lat="53.9299847" lon="-1.7826016"><ele>73.0</ele><time>2026-04-26T12:21:29.915Z</time></trkpt><trkpt lat="53.9300019" lon="-1.7828036"><ele>72.0</ele><time>2026-04-26T12:21:30.914Z</time></trkpt><trkpt lat="53.930029" lon="-1.7830448"><ele>71.0</ele><time>2026-04-26T12:21:31.917Z</time></trkpt><trkpt lat="53.9300492" lon="-1.7833199"><ele>70.66666666666667</ele><time>2026-04-26T12:21:32.915Z</time></trkpt><trkpt lat="53.9300492" lon="-1.7836219"><ele>70.33333333333333</ele><time>2026-04-26T12:21:33.922Z</time></trkpt><trkpt lat="53.9300413" lon="-1.78395"><ele>70.0</ele><time>2026-04-26T12:21:34.922Z</time></trkpt><trkpt lat="53.9300401" lon="-1.7842879"><ele>72.0</ele><time>2026-04-26T12:21:35.924Z</time></trkpt><trkpt lat="53.9300617" lon="-1.7846313"><ele>74.0</ele><time>2026-04-26T12:21:36.922Z</time></trkpt><trkpt lat="53.9300934" lon="-1.7849564"><ele>76.0</ele><time>2026-04-26T12:21:37.921Z</time></trkpt><trkpt lat="53.9301302" lon="-1.7852532"><ele>76.33333333333333</ele><time>2026-04-26T12:21:38.921Z</time></trkpt><trkpt lat="53.9301474" lon="-1.7855358"><ele>76.66666666666667</ele><time>2026-04-26T12:21:39.923Z</time></trkpt><trkpt lat="53.9301323" lon="-1.7858193"><ele>77.0</ele><time>2026-04-26T12:21:40.925Z</time></trkpt><trkpt lat="53.9300899" lon="-1.7861195"><ele>74.33333333333334</ele><time>2026-04-26T12:21:41.921Z</time></trkpt><trkpt lat="53.9300374" lon="-1.7864478"><ele>71.66666666666667</ele><time>2026-04-26T12:21:42.915Z</time></trkpt><trkpt lat="53.9299859" lon="-1.7868042"><ele>69.0</ele><time>2026-04-26T12:21:43.917Z</time></trkpt><trkpt lat="53.9299351" lon="-1.7871801"><ele>69.0</ele><time>2026-04-26T12:21:44.916Z</time></trkpt><trkpt lat="53.9298893" lon="-1.7875634"><ele>69.0</ele><time>2026-04-26T12:21:45.916Z</time></trkpt><trkpt lat="53.9298539" lon="-1.7879243"><ele>69.0</ele><time>2026-04-26T12:21:46.917Z</time></trkpt><trkpt lat="53.9298252" lon="-1.7882624"><ele>68.66666666666667</ele><time>2026-04-26T12:21:47.917Z</time></trkpt><trkpt lat="53.9298012" lon="-1.7885888"><ele>68.33333333333334</ele><time>2026-04-26T12:21:48.918Z</time></trkpt><trkpt lat="53.9297768" lon="-1.78891"><ele>68.0</ele><time>2026-04-26T12:21:49.909Z</time></trkpt><trkpt lat="53.9297599" lon="-1.7892271"><ele>68.33333333333334</ele><time>2026-04-26T12:21:50.915Z</time></trkpt><trkpt lat="53.9297478" lon="-1.7895444"><ele>68.66666666666667</ele><time>2026-04-26T12:21:51.916Z</time></trkpt><trkpt lat="53.929736" lon="-1.7898609"><ele>69.0</ele><time>2026-04-26T12:21:52.916Z</time></trkpt><trkpt lat="53.9297207" lon="-1.7901784"><ele>69.0</ele><time>2026-04-26T12:21:53.92Z</time></trkpt><trkpt lat="53.9297009" lon="-1.7905034"><ele>69.0</ele><time>2026-04-26T12:21:54.915Z</time></trkpt><trkpt lat="53.9296791" lon="-1.7908361"><ele>69.0</ele><time>2026-04-26T12:21:55.916Z</time></trkpt><trkpt lat="53.9296549" lon="-1.7911753"><ele>69.0</ele><time>2026-04-26T12:21:56.917Z</time></trkpt><trkpt lat="53.9296332" lon="-1.7915106"><ele>69.0</ele><time>2026-04-26T12:21:57.919Z</time></trkpt><trkpt lat="53.929615" lon="-1.7918318"><ele>69.0</ele><time>2026-04-26T12:21:58.916Z</time></trkpt><trkpt lat="53.9295991" lon="-1.7921286"><ele>69.0</ele><time>2026-04-26T12:21:59.915Z</time></trkpt><trkpt lat="53.9295838" lon="-1.7923714"><ele>69.0</ele><time>2026-04-26T12:22:00.921Z</time></trkpt><trkpt lat="53.9295699" lon="-1.7925555"><ele>69.0</ele><time>2026-04-26T12:22:01.917Z</time></trkpt><trkpt lat="53.9295557" lon="-1.7926759"><ele>69.0</ele><time>2026-04-26T12:22:02.918Z</time></trkpt><trkpt lat="53.929488" lon="-1.7927222"><ele>69.0</ele><time>2026-04-26T12:22:04.919Z</time></trkpt><trkpt lat="53.9294276" lon="-1.7926842"><ele>69.0</ele><time>2026-04-26T12:22:05.922Z</time></trkpt><trkpt lat="53.9293326" lon="-1.7926377"><ele>69.0</ele><time>2026-04-26T12:22:06.924Z</time></trkpt><trkpt lat="53.9292208" lon="-1.7925948"><ele>69.0</ele><time>2026-04-26T12:22:07.921Z</time></trkpt><trkpt lat="53.9291327" lon="-1.7925751"><ele>69.0</ele><time>2026-04-26T12:22:08.92Z</time></trkpt><trkpt lat="53.9290482" lon="-1.7925414"><ele>69.0</ele><time>2026-04-26T12:22:10.919Z</time></trkpt><trkpt lat="53.9289926" lon="-1.7926098"><ele>69.60000000000001</ele><time>2026-04-26T12:22:12.919Z</time></trkpt><trkpt lat="53.9289739" lon="-1.7927262"><ele>70.2</ele><time>2026-04-26T12:22:13.92Z</time></trkpt><trkpt lat="53.9289743" lon="-1.7928905"><ele>70.80000000000001</ele><time>2026-04-26T12:22:14.919Z</time></trkpt><trkpt lat="53.9289833" lon="-1.7930907"><ele>71.4</ele><time>2026-04-26T12:22:15.919Z</time></trkpt><trkpt lat="53.929002" lon="-1.7932736"><ele>72.0</ele><time>2026-04-26T12:22:16.918Z</time></trkpt><trkpt lat="53.9290106" lon="-1.793425"><ele>72.16666666666667</ele><time>2026-04-26T12:22:17.918Z</time></trkpt><trkpt lat="53.9290152" lon="-1.79356"><ele>72.33333333333333</ele><time>2026-04-26T12:22:18.918Z</time></trkpt><trkpt lat="53.9290182" lon="-1.7936769"><ele>72.5</ele><time>2026-04-26T12:22:19.919Z</time></trkpt><trkpt lat="53.9290199" lon="-1.7938315"><ele>72.66666666666666</ele><time>2026-04-26T12:22:21.92Z</time></trkpt><trkpt lat="53.9290131" lon="-1.7939423"><ele>72.83333333333333</ele><time>2026-04-26T12:22:25.918Z</time></trkpt><trkpt lat="53.9290112" lon="-1.7940796"><ele>73.0</ele><time>2026-04-26T12:22:27.92Z</time></trkpt><trkpt lat="53.929005" lon="-1.7942217"><ele>72.8</ele><time>2026-04-26T12:22:28.92Z</time></trkpt><trkpt lat="53.9289986" lon="-1.7944123"><ele>72.6</ele><time>2026-04-26T12:22:29.918Z</time></trkpt><trkpt lat="53.9289987" lon="-1.7945878"><ele>72.4</ele><time>2026-04-26T12:22:30.921Z</time></trkpt><trkpt lat="53.9290012" lon="-1.7947294"><ele>72.2</ele><time>2026-04-26T12:22:31.922Z</time></trkpt><trkpt lat="53.929009" lon="-1.7948666"><ele>72.0</ele><time>2026-04-26T12:22:32.922Z</time></trkpt><trkpt lat="53.9290142" lon="-1.7949932"><ele>72.0</ele><time>2026-04-26T12:22:33.928Z</time></trkpt><trkpt lat="53.9290094" lon="-1.7951016"><ele>72.0</ele><time>2026-04-26T12:22:34.922Z</time></trkpt><trkpt lat="53.928929" lon="-1.7951995"><ele>72.0</ele><time>2026-04-26T12:22:36.922Z</time></trkpt><trkpt lat="53.9288492" lon="-1.7952137"><ele>72.0</ele><time>2026-04-26T12:22:38.92Z</time></trkpt><trkpt lat="53.9287822" lon="-1.7952731"><ele>72.0</ele><time>2026-04-26T12:22:40.925Z</time></trkpt><trkpt lat="53.9287639" lon="-1.7954317"><ele>72.0</ele><time>2026-04-26T12:24:06.911Z</time></trkpt><trkpt lat="53.9288223" lon="-1.7954991"><ele>72.0</ele><time>2026-04-26T12:24:09.913Z</time></trkpt><trkpt lat="53.9287382" lon="-1.7955295"><ele>72.0</ele><time>2026-04-26T12:24:16.918Z</time></trkpt><trkpt lat="53.9287587" lon="-1.7954159"><ele>72.0</ele><time>2026-04-26T12:24:33.906Z</time></trkpt><trkpt lat="53.9289365" lon="-1.7956455"><ele>72.0</ele><time>2026-04-26T12:25:50.913Z</time></trkpt><trkpt lat="53.9290231" lon="-1.7958992"><ele>72.75</ele><time>2026-04-26T12:25:51.915Z</time></trkpt><trkpt lat="53.9290574" lon="-1.7960974"><ele>73.5</ele><time>2026-04-26T12:25:52.915Z</time></trkpt><trkpt lat="53.9290765" lon="-1.7962815"><ele>74.25</ele><time>2026-04-26T12:25:53.917Z</time></trkpt><trkpt lat="53.9290879" lon="-1.796471"><ele>75.0</ele><time>2026-04-26T12:25:54.914Z</time></trkpt><trkpt lat="53.9290966" lon="-1.7966743"><ele>75.75</ele><time>2026-04-26T12:25:55.913Z</time></trkpt><trkpt lat="53.9291072" lon="-1.7968871"><ele>76.5</ele><time>2026-04-26T12:25:56.912Z</time></trkpt><trkpt lat="53.9291233" lon="-1.797115"><ele>77.25</ele><time>2026-04-26T12:25:57.914Z</time></trkpt><trkpt lat="53.9291495" lon="-1.7973644"><ele>78.0</ele><time>2026-04-26T12:25:58.914Z</time></trkpt><trkpt lat="53.9291875" lon="-1.7976144"><ele>76.33333333333333</ele><time>2026-04-26T12:25:59.913Z</time></trkpt><trkpt lat="53.9292376" lon="-1.7978566"><ele>74.66666666666666</ele><time>2026-04-26T12:26:00.911Z</time></trkpt><trkpt lat="53.9292926" lon="-1.7980931"><ele>73.0</ele><time>2026-04-26T12:26:01.915Z</time></trkpt><trkpt lat="53.9293489" lon="-1.7983288"><ele>73.75</ele><time>2026-04-26T12:26:02.916Z</time></trkpt><trkpt lat="53.9294012" lon="-1.7985634"><ele>74.5</ele><time>2026-04-26T12:26:03.915Z</time></trkpt><trkpt lat="53.9294456" lon="-1.7987979"><ele>75.25</ele><time>2026-04-26T12:26:04.913Z</time></trkpt><trkpt lat="53.9294832" lon="-1.7990365"><ele>76.0</ele><time>2026-04-26T12:26:05.915Z</time></trkpt><trkpt lat="53.9295148" lon="-1.7992772"><ele>76.0</ele><time>2026-04-26T12:26:06.914Z</time></trkpt><trkpt lat="53.9295405" lon="-1.7995213"><ele>76.0</ele><time>2026-04-26T12:26:07.912Z</time></trkpt><trkpt lat="53.9295607" lon="-1.7997667"><ele>76.0</ele><time>2026-04-26T12:26:08.914Z</time></trkpt><trkpt lat="53.929581" lon="-1.8000105"><ele>76.0</ele><time>2026-04-26T12:26:09.912Z</time></trkpt><trkpt lat="53.9296038" lon="-1.800254"><ele>76.0</ele><time>2026-04-26T12:26:10.915Z</time></trkpt><trkpt lat="53.9296323" lon="-1.8005007"><ele>76.0</ele><time>2026-04-26T12:26:11.91Z</time></trkpt><trkpt lat="53.929668" lon="-1.8007523"><ele>76.0</ele><time>2026-04-26T12:26:12.91Z</time></trkpt><trkpt lat="53.9297078" lon="-1.8009988"><ele>76.25</ele><time>2026-04-26T12:26:13.92Z</time></trkpt><trkpt lat="53.9297406" lon="-1.8012382"><ele>76.5</ele><time>2026-04-26T12:26:14.906Z</time></trkpt><trkpt lat="53.9297601" lon="-1.8014769"><ele>76.75</ele><time>2026-04-26T12:26:15.911Z</time></trkpt><trkpt lat="53.929769" lon="-1.8017134"><ele>77.0</ele><time>2026-04-26T12:26:16.912Z</time></trkpt><trkpt lat="53.9297733" lon="-1.8019519"><ele>77.25</ele><time>2026-04-26T12:26:17.912Z</time></trkpt><trkpt lat="53.9297733" lon="-1.8021967"><ele>77.5</ele><time>2026-04-26T12:26:18.915Z</time></trkpt><trkpt lat="53.9297709" lon="-1.8024443"><ele>77.75</ele><time>2026-04-26T12:26:19.913Z</time></trkpt><trkpt lat="53.9297676" lon="-1.8026948"><ele>78.0</ele><time>2026-04-26T12:26:20.912Z</time></trkpt><trkpt lat="53.9297626" lon="-1.8029474"><ele>78.0</ele><time>2026-04-26T12:26:21.913Z</time></trkpt><trkpt lat="53.9297547" lon="-1.8031998"><ele>78.0</ele><time>2026-04-26T12:26:22.914Z</time></trkpt><trkpt lat="53.9297452" lon="-1.8034512"><ele>78.0</ele><time>2026-04-26T12:26:23.918Z</time></trkpt><trkpt lat="53.9297331" lon="-1.8036996"><ele>78.0</ele><time>2026-04-26T12:26:24.917Z</time></trkpt><trkpt lat="53.9297188" lon="-1.8039443"><ele>78.25</ele><time>2026-04-26T12:26:25.933Z</time></trkpt><trkpt lat="53.9297026" lon="-1.8041767"><ele>78.5</ele><time>2026-04-26T12:26:26.923Z</time></trkpt><trkpt lat="53.9296835" lon="-1.8044079"><ele>78.75</ele><time>2026-04-26T12:26:27.924Z</time></trkpt><trkpt lat="53.9296536" lon="-1.8046386"><ele>79.0</ele><time>2026-04-26T12:26:28.922Z</time></trkpt><trkpt lat="53.9296074" lon="-1.8048678"><ele>79.0</ele><time>2026-04-26T12:26:29.928Z</time></trkpt><trkpt lat="53.9295452" lon="-1.8050863"><ele>79.0</ele><time>2026-04-26T12:26:30.927Z</time></trkpt><trkpt lat="53.92947" lon="-1.8052921"><ele>79.0</ele><time>2026-04-26T12:26:31.93Z</time></trkpt><trkpt lat="53.9293897" lon="-1.8054873"><ele>79.0</ele><time>2026-04-26T12:26:32.928Z</time></trkpt><trkpt lat="53.9293102" lon="-1.8056861"><ele>79.0</ele><time>2026-04-26T12:26:33.933Z</time></trkpt><trkpt lat="53.9292345" lon="-1.8058895"><ele>79.0</ele><time>2026-04-26T12:26:34.931Z</time></trkpt><trkpt lat="53.9291604" lon="-1.8060982"><ele>79.0</ele><time>2026-04-26T12:26:35.931Z</time></trkpt><trkpt lat="53.9290881" lon="-1.8063118"><ele>79.0</ele><time>2026-04-26T12:26:36.931Z</time></trkpt><trkpt lat="53.9290163" lon="-1.8065252"><ele>79.0</ele><time>2026-04-26T12:26:37.929Z</time></trkpt><trkpt lat="53.9289481" lon="-1.8067316"><ele>79.0</ele><time>2026-04-26T12:26:38.928Z</time></trkpt><trkpt lat="53.9288837" lon="-1.8069341"><ele>79.0</ele><time>2026-04-26T12:26:39.93Z</time></trkpt><trkpt lat="53.928826" lon="-1.8071392"><ele>79.0</ele><time>2026-04-26T12:26:40.93Z</time></trkpt><trkpt lat="53.9287806" lon="-1.8073553"><ele>78.75</ele><time>2026-04-26T12:26:41.928Z</time></trkpt><trkpt lat="53.9287537" lon="-1.8075816"><ele>78.5</ele><time>2026-04-26T12:26:42.927Z</time></trkpt><trkpt lat="53.9287457" lon="-1.8078175"><ele>78.25</ele><time>2026-04-26T12:26:43.932Z</time></trkpt><trkpt lat="53.9287536" lon="-1.808055"><ele>78.0</ele><time>2026-04-26T12:26:44.927Z</time></trkpt><trkpt lat="53.9287755" lon="-1.8082951"><ele>78.0</ele><time>2026-04-26T12:26:45.931Z</time></trkpt><trkpt lat="53.9287892" lon="-1.8085356"><ele>78.0</ele><time>2026-04-26T12:26:46.929Z</time></trkpt><trkpt lat="53.9287995" lon="-1.8087818"><ele>78.0</ele><time>2026-04-26T12:26:47.927Z</time></trkpt><trkpt lat="53.9288077" lon="-1.8090416"><ele>78.0</ele><time>2026-04-26T12:26:48.928Z</time></trkpt><trkpt lat="53.9288132" lon="-1.8093107"><ele>78.0</ele><time>2026-04-26T12:26:49.929Z</time></trkpt><trkpt lat="53.9288141" lon="-1.8095756"><ele>78.0</ele><time>2026-04-26T12:26:50.928Z</time></trkpt><trkpt lat="53.9288066" lon="-1.8098389"><ele>78.0</ele><time>2026-04-26T12:26:51.928Z</time></trkpt><trkpt lat="53.9287933" lon="-1.8100995"><ele>78.0</ele><time>2026-04-26T12:26:52.93Z</time></trkpt><trkpt lat="53.9287761" lon="-1.8103537"><ele>78.0</ele><time>2026-04-26T12:26:53.915Z</time></trkpt><trkpt lat="53.9287589" lon="-1.8105976"><ele>78.0</ele><time>2026-04-26T12:26:54.923Z</time></trkpt><trkpt lat="53.9287431" lon="-1.8108305"><ele>78.0</ele><time>2026-04-26T12:26:55.929Z</time></trkpt><trkpt lat="53.9287298" lon="-1.8110517"><ele>78.0</ele><time>2026-04-26T12:26:56.927Z</time></trkpt><trkpt lat="53.9287184" lon="-1.8112664"><ele>78.0</ele><time>2026-04-26T12:26:57.929Z</time></trkpt><trkpt lat="53.928707" lon="-1.8114768"><ele>78.0</ele><time>2026-04-26T12:26:58.93Z</time></trkpt><trkpt lat="53.9286973" lon="-1.8116863"><ele>78.0</ele><time>2026-04-26T12:26:59.928Z</time></trkpt><trkpt lat="53.9286887" lon="-1.8118926"><ele>78.0</ele><time>2026-04-26T12:27:00.929Z</time></trkpt><trkpt lat="53.9286807" lon="-1.8120926"><ele>78.0</ele><time>2026-04-26T12:27:01.931Z</time></trkpt><trkpt lat="53.928672" lon="-1.8122885"><ele>78.0</ele><time>2026-04-26T12:27:02.934Z</time></trkpt><trkpt lat="53.9286655" lon="-1.8124764"><ele>78.0</ele><time>2026-04-26T12:27:03.934Z</time></trkpt><trkpt lat="53.9286586" lon="-1.8126594"><ele>78.0</ele><time>2026-04-26T12:27:04.93Z</time></trkpt><trkpt lat="53.9286532" lon="-1.8128357"><ele>78.0</ele><time>2026-04-26T12:27:05.931Z</time></trkpt><trkpt lat="53.9286478" lon="-1.8130082"><ele>78.0</ele><time>2026-04-26T12:27:06.934Z</time></trkpt><trkpt lat="53.9286414" lon="-1.813177"><ele>78.0</ele><time>2026-04-26T12:27:07.931Z</time></trkpt><trkpt lat="53.9286339" lon="-1.8133373"><ele>78.0</ele><time>2026-04-26T12:27:08.931Z</time></trkpt><trkpt lat="53.928629" lon="-1.813493"><ele>78.2</ele><time>2026-04-26T12:27:09.928Z</time></trkpt><trkpt lat="53.9286255" lon="-1.8136486"><ele>78.4</ele><time>2026-04-26T12:27:10.911Z</time></trkpt><trkpt lat="53.9286224" lon="-1.8138049"><ele>78.60000000000001</ele><time>2026-04-26T12:27:11.91Z</time></trkpt><trkpt lat="53.9286204" lon="-1.8139614"><ele>78.8</ele><time>2026-04-26T12:27:12.926Z</time></trkpt><trkpt lat="53.9286171" lon="-1.8141213"><ele>79.0</ele><time>2026-04-26T12:27:13.934Z</time></trkpt><trkpt lat="53.928612" lon="-1.8142858"><ele>78.8</ele><time>2026-04-26T12:27:14.931Z</time></trkpt><trkpt lat="53.9286042" lon="-1.8144477"><ele>78.60000000000001</ele><time>2026-04-26T12:27:15.93Z</time></trkpt><trkpt lat="53.9285954" lon="-1.8146111"><ele>78.4</ele><time>2026-04-26T12:27:16.929Z</time></trkpt><trkpt lat="53.9285859" lon="-1.8147721"><ele>78.2</ele><time>2026-04-26T12:27:17.929Z</time></trkpt><trkpt lat="53.9285762" lon="-1.8149313"><ele>78.0</ele><time>2026-04-26T12:27:18.93Z</time></trkpt><trkpt lat="53.9285656" lon="-1.8150883"><ele>78.2</ele><time>2026-04-26T12:27:19.93Z</time></trkpt><trkpt lat="53.9285523" lon="-1.8152458"><ele>78.4</ele><time>2026-04-26T12:27:20.931Z</time></trkpt><trkpt lat="53.9285413" lon="-1.8154041"><ele>78.60000000000001</ele><time>2026-04-26T12:27:21.93Z</time></trkpt><trkpt lat="53.9285324" lon="-1.8155622"><ele>78.8</ele><time>2026-04-26T12:27:22.932Z</time></trkpt><trkpt lat="53.9285231" lon="-1.8157185"><ele>79.0</ele><time>2026-04-26T12:27:23.933Z</time></trkpt><trkpt lat="53.9285155" lon="-1.8158767"><ele>79.0</ele><time>2026-04-26T12:27:24.93Z</time></trkpt><trkpt lat="53.9285108" lon="-1.8160324"><ele>79.0</ele><time>2026-04-26T12:27:25.929Z</time></trkpt><trkpt lat="53.9285067" lon="-1.816187"><ele>79.0</ele><time>2026-04-26T12:27:26.929Z</time></trkpt><trkpt lat="53.9285048" lon="-1.8163409"><ele>79.0</ele><time>2026-04-26T12:27:27.928Z</time></trkpt><trkpt lat="53.9285032" lon="-1.8164932"><ele>79.0</ele><time>2026-04-26T12:27:28.931Z</time></trkpt><trkpt lat="53.9285003" lon="-1.8166419"><ele>79.0</ele><time>2026-04-26T12:27:29.928Z</time></trkpt><trkpt lat="53.9284969" lon="-1.8167881"><ele>79.0</ele><time>2026-04-26T12:27:30.923Z</time></trkpt><trkpt lat="53.9284918" lon="-1.8169341"><ele>79.0</ele><time>2026-04-26T12:27:31.923Z</time></trkpt><trkpt lat="53.9284847" lon="-1.8170744"><ele>79.0</ele><time>2026-04-26T12:27:32.928Z</time></trkpt><trkpt lat="53.9284766" lon="-1.8172117"><ele>79.0</ele><time>2026-04-26T12:27:33.933Z</time></trkpt><trkpt lat="53.9284692" lon="-1.8173467"><ele>79.0</ele><time>2026-04-26T12:27:34.928Z</time></trkpt><trkpt lat="53.9284614" lon="-1.8174838"><ele>78.83333333333333</ele><time>2026-04-26T12:27:35.926Z</time></trkpt><trkpt lat="53.928454" lon="-1.8176133"><ele>78.66666666666666</ele><time>2026-04-26T12:27:36.925Z</time></trkpt><trkpt lat="53.9284468" lon="-1.817737"><ele>78.5</ele><time>2026-04-26T12:27:37.928Z</time></trkpt><trkpt lat="53.9284338" lon="-1.8178656"><ele>78.33333333333333</ele><time>2026-04-26T12:27:38.926Z</time></trkpt><trkpt lat="53.928415" lon="-1.8179934"><ele>78.16666666666667</ele><time>2026-04-26T12:27:39.93Z</time></trkpt><trkpt lat="53.9283927" lon="-1.8181143"><ele>78.0</ele><time>2026-04-26T12:27:40.932Z</time></trkpt><trkpt lat="53.9283639" lon="-1.818229"><ele>78.2</ele><time>2026-04-26T12:27:41.91Z</time></trkpt><trkpt lat="53.9283277" lon="-1.8183326"><ele>78.4</ele><time>2026-04-26T12:27:42.911Z</time></trkpt><trkpt lat="53.9282498" lon="-1.818475"><ele>78.60000000000001</ele><time>2026-04-26T12:27:44.915Z</time></trkpt><trkpt lat="53.9281569" lon="-1.8186062"><ele>78.8</ele><time>2026-04-26T12:27:46.914Z</time></trkpt><trkpt lat="53.9280957" lon="-1.8186848"><ele>79.0</ele><time>2026-04-26T12:27:47.913Z</time></trkpt><trkpt lat="53.9280274" lon="-1.8187632"><ele>79.0</ele><time>2026-04-26T12:27:48.913Z</time></trkpt><trkpt lat="53.9279588" lon="-1.8188343"><ele>79.0</ele><time>2026-04-26T12:27:49.913Z</time></trkpt><trkpt lat="53.9278948" lon="-1.8188957"><ele>79.0</ele><time>2026-04-26T12:27:50.912Z</time></trkpt><trkpt lat="53.9278365" lon="-1.8189518"><ele>79.0</ele><time>2026-04-26T12:27:51.912Z</time></trkpt><trkpt lat="53.9277323" lon="-1.8190655"><ele>79.0</ele><time>2026-04-26T12:27:53.914Z</time></trkpt><trkpt lat="53.927677" lon="-1.8191272"><ele>79.0</ele><time>2026-04-26T12:27:54.911Z</time></trkpt><trkpt lat="53.9276226" lon="-1.8191918"><ele>79.00000000000001</ele><time>2026-04-26T12:27:55.907Z</time></trkpt><trkpt lat="53.9275713" lon="-1.8192663"><ele>79.0</ele><time>2026-04-26T12:27:56.912Z</time></trkpt><trkpt lat="53.9275172" lon="-1.8193421"><ele>79.0</ele><time>2026-04-26T12:27:57.912Z</time></trkpt><trkpt lat="53.9274611" lon="-1.8194141"><ele>79.0</ele><time>2026-04-26T12:27:58.913Z</time></trkpt><trkpt lat="53.9274088" lon="-1.8194772"><ele>79.0</ele><time>2026-04-26T12:27:59.911Z</time></trkpt><trkpt lat="53.9273565" lon="-1.8195472"><ele>79.00000000000001</ele><time>2026-04-26T12:28:00.907Z</time></trkpt><trkpt lat="53.9273006" lon="-1.8196213"><ele>79.0</ele><time>2026-04-26T12:28:01.917Z</time></trkpt><trkpt lat="53.9272446" lon="-1.8196839"><ele>79.80000000000001</ele><time>2026-04-26T12:28:02.916Z</time></trkpt><trkpt lat="53.9271502" lon="-1.8197812"><ele>80.60000000000001</ele><time>2026-04-26T12:28:04.918Z</time></trkpt><trkpt lat="53.92706" lon="-1.8198606"><ele>81.4</ele><time>2026-04-26T12:28:06.915Z</time></trkpt><trkpt lat="53.92697" lon="-1.8199429"><ele>82.2</ele><time>2026-04-26T12:28:08.919Z</time></trkpt><trkpt lat="53.9268682" lon="-1.8200414"><ele>83.0</ele><time>2026-04-26T12:28:10.92Z</time></trkpt><trkpt lat="53.92681" lon="-1.8200919"><ele>83.80000000000001</ele><time>2026-04-26T12:28:11.918Z</time></trkpt><trkpt lat="53.9266989" lon="-1.8201759"><ele>84.6</ele><time>2026-04-26T12:28:13.916Z</time></trkpt><trkpt lat="53.9265954" lon="-1.8202649"><ele>85.4</ele><time>2026-04-26T12:28:15.905Z</time></trkpt><trkpt lat="53.9265048" lon="-1.8203722"><ele>86.19999999999999</ele><time>2026-04-26T12:28:17.911Z</time></trkpt><trkpt lat="53.9264415" lon="-1.8204887"><ele>87.0</ele><time>2026-04-26T12:28:19.91Z</time></trkpt><trkpt lat="53.9263965" lon="-1.8205649"><ele>87.0</ele><time>2026-04-26T12:28:24.904Z</time></trkpt><trkpt lat="53.9263383" lon="-1.8206873"><ele>87.0</ele><time>2026-04-26T12:28:29.912Z</time></trkpt><trkpt lat="53.9263063" lon="-1.8208341"><ele>87.0</ele><time>2026-04-26T12:28:31.915Z</time></trkpt><trkpt lat="53.9262924" lon="-1.8210299"><ele>87.0</ele><time>2026-04-26T12:28:33.919Z</time></trkpt><trkpt lat="53.926289" lon="-1.8212079"><ele>87.0</ele><time>2026-04-26T12:28:35.914Z</time></trkpt><trkpt lat="53.9262885" lon="-1.8213438"><ele>87.39999999999999</ele><time>2026-04-26T12:28:37.915Z</time></trkpt><trkpt lat="53.9262882" lon="-1.8215362"><ele>87.8</ele><time>2026-04-26T12:28:39.906Z</time></trkpt><trkpt lat="53.9262796" lon="-1.8217382"><ele>88.2</ele><time>2026-04-26T12:28:41.91Z</time></trkpt><trkpt lat="53.9262705" lon="-1.8219225"><ele>88.6</ele><time>2026-04-26T12:28:43.913Z</time></trkpt><trkpt lat="53.9262595" lon="-1.8220597"><ele>89.0</ele><time>2026-04-26T12:28:45.913Z</time></trkpt><trkpt lat="53.9262473" lon="-1.8221732"><ele>89.0</ele><time>2026-04-26T12:28:47.911Z</time></trkpt><trkpt lat="53.9262372" lon="-1.8223004"><ele>89.0</ele><time>2026-04-26T12:28:49.91Z</time></trkpt><trkpt lat="53.9262204" lon="-1.8224851"><ele>89.0</ele><time>2026-04-26T12:28:51.912Z</time></trkpt><trkpt lat="53.9261962" lon="-1.8226681"><ele>89.0</ele><time>2026-04-26T12:28:53.912Z</time></trkpt><trkpt lat="53.9261757" lon="-1.822814"><ele>89.0</ele><time>2026-04-26T12:28:55.91Z</time></trkpt><trkpt lat="53.9261297" lon="-1.8229144"><ele>88.83333333333334</ele><time>2026-04-26T12:28:58.909Z</time></trkpt><trkpt lat="53.9261078" lon="-1.8230424"><ele>88.66666666666667</ele><time>2026-04-26T12:29:01.914Z</time></trkpt><trkpt lat="53.9260899" lon="-1.8231545"><ele>88.5</ele><time>2026-04-26T12:29:04.914Z</time></trkpt><trkpt lat="53.9260471" lon="-1.8232491"><ele>88.33333333333333</ele><time>2026-04-26T12:29:21.911Z</time></trkpt><trkpt lat="53.9259418" lon="-1.8233508"><ele>88.16666666666666</ele><time>2026-04-26T12:29:23.913Z</time></trkpt><trkpt lat="53.9258688" lon="-1.823382"><ele>88.0</ele><time>2026-04-26T12:29:24.913Z</time></trkpt><trkpt lat="53.9257933" lon="-1.8234039"><ele>88.66666666666666</ele><time>2026-04-26T12:29:25.916Z</time></trkpt><trkpt lat="53.9257186" lon="-1.8234109"><ele>89.33333333333333</ele><time>2026-04-26T12:29:26.906Z</time></trkpt><trkpt lat="53.9256438" lon="-1.8234029"><ele>90.0</ele><time>2026-04-26T12:29:27.918Z</time></trkpt><trkpt lat="53.9255639" lon="-1.8233958"><ele>90.66666666666667</ele><time>2026-04-26T12:29:28.913Z</time></trkpt><trkpt lat="53.9254832" lon="-1.8233889"><ele>91.33333333333334</ele><time>2026-04-26T12:29:29.91Z</time></trkpt><trkpt lat="53.9254046" lon="-1.8233801"><ele>92.0</ele><time>2026-04-26T12:29:30.914Z</time></trkpt><trkpt lat="53.9253206" lon="-1.8233693"><ele>92.0</ele><time>2026-04-26T12:29:31.92Z</time></trkpt><trkpt lat="53.9252387" lon="-1.8233544"><ele>92.0</ele><time>2026-04-26T12:29:32.916Z</time></trkpt><trkpt lat="53.9251598" lon="-1.8233411"><ele>92.0</ele><time>2026-04-26T12:29:33.922Z</time></trkpt><trkpt lat="53.9250862" lon="-1.8233273"><ele>92.0</ele><time>2026-04-26T12:29:34.92Z</time></trkpt><trkpt lat="53.9250153" lon="-1.8233051"><ele>92.0</ele><time>2026-04-26T12:29:35.92Z</time></trkpt><trkpt lat="53.9249339" lon="-1.8232738"><ele>92.0</ele><time>2026-04-26T12:29:37.905Z</time></trkpt><trkpt lat="53.9248661" lon="-1.8232385"><ele>92.5</ele><time>2026-04-26T12:29:40.91Z</time></trkpt><trkpt lat="53.9247699" lon="-1.8231845"><ele>93.0</ele><time>2026-04-26T12:29:43.912Z</time></trkpt><trkpt lat="53.9246791" lon="-1.8231251"><ele>93.5</ele><time>2026-04-26T12:29:45.912Z</time></trkpt><trkpt lat="53.9246156" lon="-1.8230785"><ele>94.0</ele><time>2026-04-26T12:29:47.912Z</time></trkpt><trkpt lat="53.9245578" lon="-1.8230225"><ele>94.5</ele><time>2026-04-26T12:29:49.915Z</time></trkpt><trkpt lat="53.9245167" lon="-1.8229408"><ele>95.0</ele><time>2026-04-26T12:29:51.915Z</time></trkpt><trkpt lat="53.9244802" lon="-1.8227973"><ele>95.0</ele><time>2026-04-26T12:29:54.912Z</time></trkpt><trkpt lat="53.9244002" lon="-1.822714"><ele>95.0</ele><time>2026-04-26T12:29:56.911Z</time></trkpt><trkpt lat="53.9242759" lon="-1.8226798"><ele>95.0</ele><time>2026-04-26T12:29:58.911Z</time></trkpt><trkpt lat="53.9242072" lon="-1.8226668"><ele>95.0</ele><time>2026-04-26T12:29:59.911Z</time></trkpt><trkpt lat="53.9241338" lon="-1.8226467"><ele>95.0</ele><time>2026-04-26T12:30:00.909Z</time></trkpt><trkpt lat="53.9240603" lon="-1.8226247"><ele>95.0</ele><time>2026-04-26T12:30:01.907Z</time></trkpt><trkpt lat="53.9239885" lon="-1.8226014"><ele>96.16666666666667</ele><time>2026-04-26T12:30:02.909Z</time></trkpt><trkpt lat="53.9239128" lon="-1.8225833"><ele>97.33333333333334</ele><time>2026-04-26T12:30:03.913Z</time></trkpt><trkpt lat="53.9238342" lon="-1.8225705"><ele>98.5</ele><time>2026-04-26T12:30:04.909Z</time></trkpt><trkpt lat="53.9237522" lon="-1.8225561"><ele>99.66666666666667</ele><time>2026-04-26T12:30:05.91Z</time></trkpt><trkpt lat="53.9236659" lon="-1.8225437"><ele>100.83333333333333</ele><time>2026-04-26T12:30:06.908Z</time></trkpt><trkpt lat="53.9235757" lon="-1.8225285"><ele>102.0</ele><time>2026-04-26T12:30:07.909Z</time></trkpt><trkpt lat="53.9234815" lon="-1.8225105"><ele>103.39999999999999</ele><time>2026-04-26T12:30:08.912Z</time></trkpt><trkpt lat="53.9233839" lon="-1.8224953"><ele>104.8</ele><time>2026-04-26T12:30:09.914Z</time></trkpt><trkpt lat="53.9232872" lon="-1.8224861"><ele>106.2</ele><time>2026-04-26T12:30:10.913Z</time></trkpt><trkpt lat="53.9231917" lon="-1.822479"><ele>107.6</ele><time>2026-04-26T12:30:11.913Z</time></trkpt><trkpt lat="53.9230971" lon="-1.8224734"><ele>109.0</ele><time>2026-04-26T12:30:12.914Z</time></trkpt><trkpt lat="53.9230041" lon="-1.8224704"><ele>109.00000000000001</ele><time>2026-04-26T12:30:13.918Z</time></trkpt><trkpt lat="53.9229186" lon="-1.8224703"><ele>109.0</ele><time>2026-04-26T12:30:14.913Z</time></trkpt><trkpt lat="53.9228349" lon="-1.8224742"><ele>109.0</ele><time>2026-04-26T12:30:15.912Z</time></trkpt><trkpt lat="53.922745" lon="-1.8224725"><ele>109.0</ele><time>2026-04-26T12:30:16.914Z</time></trkpt><trkpt lat="53.9226584" lon="-1.8224661"><ele>109.00000000000001</ele><time>2026-04-26T12:30:17.911Z</time></trkpt><trkpt lat="53.9225748" lon="-1.8224594"><ele>109.0</ele><time>2026-04-26T12:30:18.908Z</time></trkpt><trkpt lat="53.9224911" lon="-1.8224554"><ele>111.33333333333334</ele><time>2026-04-26T12:30:19.909Z</time></trkpt><trkpt lat="53.9224062" lon="-1.8224518"><ele>113.66666666666667</ele><time>2026-04-26T12:30:20.91Z</time></trkpt><trkpt lat="53.9223177" lon="-1.8224491"><ele>116.0</ele><time>2026-04-26T12:30:21.908Z</time></trkpt><trkpt lat="53.922233" lon="-1.8224419"><ele>118.33333333333334</ele><time>2026-04-26T12:30:22.908Z</time></trkpt><trkpt lat="53.9221505" lon="-1.8224334"><ele>120.66666666666667</ele><time>2026-04-26T12:30:23.912Z</time></trkpt><trkpt lat="53.9220641" lon="-1.8224273"><ele>123.0</ele><time>2026-04-26T12:30:24.907Z</time></trkpt><trkpt lat="53.9219742" lon="-1.8224195"><ele>123.0</ele><time>2026-04-26T12:30:25.91Z</time></trkpt><trkpt lat="53.9218818" lon="-1.8224144"><ele>123.00000000000001</ele><time>2026-04-26T12:30:26.904Z</time></trkpt><trkpt lat="53.9217869" lon="-1.8224095"><ele>123.00000000000001</ele><time>2026-04-26T12:30:27.912Z</time></trkpt><trkpt lat="53.921693" lon="-1.822398"><ele>123.0</ele><time>2026-04-26T12:30:28.913Z</time></trkpt><trkpt lat="53.9215982" lon="-1.8223852"><ele>123.0</ele><time>2026-04-26T12:30:29.911Z</time></trkpt><trkpt lat="53.9215078" lon="-1.822383"><ele>124.60000000000001</ele><time>2026-04-26T12:30:30.913Z</time></trkpt><trkpt lat="53.9214315" lon="-1.8223787"><ele>126.20000000000002</ele><time>2026-04-26T12:30:31.913Z</time></trkpt><trkpt lat="53.9213678" lon="-1.8223634"><ele>127.8</ele><time>2026-04-26T12:30:33.908Z</time></trkpt><trkpt lat="53.9212648" lon="-1.8223645"><ele>129.4</ele><time>2026-04-26T12:30:40.909Z</time></trkpt><trkpt lat="53.9211192" lon="-1.8223471"><ele>131.0</ele><time>2026-04-26T12:30:42.91Z</time></trkpt><trkpt lat="53.9210036" lon="-1.8223225"><ele>133.66666666666666</ele><time>2026-04-26T12:30:43.914Z</time></trkpt><trkpt lat="53.9208597" lon="-1.822313"><ele>136.33333333333334</ele><time>2026-04-26T12:30:44.909Z</time></trkpt><trkpt lat="53.9207016" lon="-1.8223314"><ele>139.0</ele><time>2026-04-26T12:30:45.908Z</time></trkpt><trkpt lat="53.9205455" lon="-1.8224222"><ele>139.0</ele><time>2026-04-26T12:30:46.911Z</time></trkpt><trkpt lat="53.9204085" lon="-1.8225425"><ele>139.0</ele><time>2026-04-26T12:30:47.917Z</time></trkpt><trkpt lat="53.9202859" lon="-1.8226686"><ele>139.0</ele><time>2026-04-26T12:30:48.916Z</time></trkpt><trkpt lat="53.9201738" lon="-1.8228056"><ele>139.0</ele><time>2026-04-26T12:30:49.912Z</time></trkpt><trkpt lat="53.9200735" lon="-1.8229328"><ele>141.5</ele><time>2026-04-26T12:30:50.914Z</time></trkpt><trkpt lat="53.9199682" lon="-1.8230512"><ele>144.0</ele><time>2026-04-26T12:30:51.914Z</time></trkpt><trkpt lat="53.9198605" lon="-1.8231686"><ele>146.5</ele><time>2026-04-26T12:30:52.913Z</time></trkpt><trkpt lat="53.9197565" lon="-1.8232987"><ele>149.0</ele><time>2026-04-26T12:30:53.906Z</time></trkpt><trkpt lat="53.9196576" lon="-1.8234416"><ele>150.0</ele><time>2026-04-26T12:30:54.91Z</time></trkpt><trkpt lat="53.919561" lon="-1.8235913"><ele>151.0</ele><time>2026-04-26T12:30:55.909Z</time></trkpt><trkpt lat="53.9194775" lon="-1.8237591"><ele>152.0</ele><time>2026-04-26T12:30:56.909Z</time></trkpt><trkpt lat="53.9194081" lon="-1.8239552"><ele>153.0</ele><time>2026-04-26T12:30:57.91Z</time></trkpt><trkpt lat="53.9193481" lon="-1.8241751"><ele>154.0</ele><time>2026-04-26T12:30:58.909Z</time></trkpt><trkpt lat="53.9192985" lon="-1.8244099"><ele>155.0</ele><time>2026-04-26T12:30:59.908Z</time></trkpt><trkpt lat="53.9192566" lon="-1.8246504"><ele>156.0</ele><time>2026-04-26T12:31:00.913Z</time></trkpt><trkpt lat="53.9192133" lon="-1.8249035"><ele>159.33333333333334</ele><time>2026-04-26T12:31:01.916Z</time></trkpt><trkpt lat="53.919183" lon="-1.8251639"><ele>162.66666666666669</ele><time>2026-04-26T12:31:02.915Z</time></trkpt><trkpt lat="53.9191626" lon="-1.8254354"><ele>166.0</ele><time>2026-04-26T12:31:03.915Z</time></trkpt><trkpt lat="53.9191443" lon="-1.82571"><ele>166.0</ele><time>2026-04-26T12:31:04.913Z</time></trkpt><trkpt lat="53.9191278" lon="-1.825967"><ele>166.0</ele><time>2026-04-26T12:31:05.911Z</time></trkpt><trkpt lat="53.9191169" lon="-1.8262111"><ele>166.0</ele><time>2026-04-26T12:31:06.913Z</time></trkpt><trkpt lat="53.9191113" lon="-1.8264496"><ele>166.0</ele><time>2026-04-26T12:31:07.911Z</time></trkpt><trkpt lat="53.919101" lon="-1.8266784"><ele>167.75</ele><time>2026-04-26T12:31:08.912Z</time></trkpt><trkpt lat="53.9190855" lon="-1.8269046"><ele>169.5</ele><time>2026-04-26T12:31:09.911Z</time></trkpt><trkpt lat="53.9190653" lon="-1.827136"><ele>171.25</ele><time>2026-04-26T12:31:10.909Z</time></trkpt><trkpt lat="53.919044" lon="-1.8273812"><ele>173.0</ele><time>2026-04-26T12:31:11.909Z</time></trkpt><trkpt lat="53.9190267" lon="-1.8276439"><ele>173.66666666666666</ele><time>2026-04-26T12:31:12.908Z</time></trkpt><trkpt lat="53.9190075" lon="-1.8279207"><ele>174.33333333333334</ele><time>2026-04-26T12:31:13.903Z</time></trkpt><trkpt lat="53.9189873" lon="-1.8282101"><ele>175.0</ele><time>2026-04-26T12:31:14.909Z</time></trkpt><trkpt lat="53.9189642" lon="-1.8285064"><ele>175.33333333333334</ele><time>2026-04-26T12:31:15.908Z</time></trkpt><trkpt lat="53.9189396" lon="-1.8287934"><ele>175.66666666666666</ele><time>2026-04-26T12:31:16.908Z</time></trkpt><trkpt lat="53.9189047" lon="-1.8290596"><ele>176.0</ele><time>2026-04-26T12:31:17.901Z</time></trkpt><trkpt lat="53.9188471" lon="-1.8292961"><ele>175.75</ele><time>2026-04-26T12:31:18.907Z</time></trkpt><trkpt lat="53.9187651" lon="-1.8295023"><ele>175.5</ele><time>2026-04-26T12:31:19.91Z</time></trkpt><trkpt lat="53.9186689" lon="-1.8296894"><ele>175.25</ele><time>2026-04-26T12:31:20.901Z</time></trkpt><trkpt lat="53.9185537" lon="-1.8298634"><ele>175.0</ele><time>2026-04-26T12:31:21.908Z</time></trkpt><trkpt lat="53.9184325" lon="-1.8300497"><ele>179.66666666666669</ele><time>2026-04-26T12:31:22.913Z</time></trkpt><trkpt lat="53.9183105" lon="-1.830273"><ele>184.33333333333334</ele><time>2026-04-26T12:31:23.919Z</time></trkpt><trkpt lat="53.9181834" lon="-1.8305058"><ele>189.0</ele><time>2026-04-26T12:31:24.915Z</time></trkpt><trkpt lat="53.9180517" lon="-1.8307361"><ele>189.0</ele><time>2026-04-26T12:31:25.911Z</time></trkpt><trkpt lat="53.9179292" lon="-1.8309707"><ele>189.0</ele><time>2026-04-26T12:31:26.91Z</time></trkpt><trkpt lat="53.9178234" lon="-1.8312165"><ele>189.0</ele><time>2026-04-26T12:31:27.911Z</time></trkpt><trkpt lat="53.9177414" lon="-1.8314932"><ele>191.0</ele><time>2026-04-26T12:31:28.907Z</time></trkpt><trkpt lat="53.9176774" lon="-1.8317817"><ele>193.0</ele><time>2026-04-26T12:31:29.908Z</time></trkpt><trkpt lat="53.9176057" lon="-1.8320664"><ele>195.0</ele><time>2026-04-26T12:31:30.909Z</time></trkpt><trkpt lat="53.9175398" lon="-1.832332"><ele>198.75</ele><time>2026-04-26T12:31:31.911Z</time></trkpt><trkpt lat="53.9174833" lon="-1.8325684"><ele>202.5</ele><time>2026-04-26T12:31:32.908Z</time></trkpt><trkpt lat="53.9174373" lon="-1.8327954"><ele>206.25</ele><time>2026-04-26T12:31:33.913Z</time></trkpt><trkpt lat="53.9174109" lon="-1.8330281"><ele>210.0</ele><time>2026-04-26T12:31:34.911Z</time></trkpt><trkpt lat="53.9173999" lon="-1.8332763"><ele>211.0</ele><time>2026-04-26T12:31:35.91Z</time></trkpt><trkpt lat="53.9173984" lon="-1.833521"><ele>212.0</ele><time>2026-04-26T12:31:36.91Z</time></trkpt><trkpt lat="53.9173866" lon="-1.8337305"><ele>213.0</ele><time>2026-04-26T12:31:37.91Z</time></trkpt><trkpt lat="53.9173415" lon="-1.8338876"><ele>214.0</ele><time>2026-04-26T12:31:38.91Z</time></trkpt><trkpt lat="53.9172541" lon="-1.833987"><ele>214.0</ele><time>2026-04-26T12:31:39.913Z</time></trkpt><trkpt lat="53.9171398" lon="-1.8340391"><ele>214.0</ele><time>2026-04-26T12:31:40.914Z</time></trkpt><trkpt lat="53.91702" lon="-1.8340656"><ele>214.0</ele><time>2026-04-26T12:31:41.913Z</time></trkpt><trkpt lat="53.9168947" lon="-1.8341219"><ele>214.0</ele><time>2026-04-26T12:31:42.913Z</time></trkpt><trkpt lat="53.9167654" lon="-1.8342327"><ele>219.66666666666666</ele><time>2026-04-26T12:31:43.919Z</time></trkpt><trkpt lat="53.9166454" lon="-1.8344089"><ele>225.33333333333331</ele><time>2026-04-26T12:31:44.913Z</time></trkpt><trkpt lat="53.9165396" lon="-1.8346121"><ele>231.0</ele><time>2026-04-26T12:31:45.911Z</time></trkpt><trkpt lat="53.916435" lon="-1.8347989"><ele>231.0</ele><time>2026-04-26T12:31:46.914Z</time></trkpt><trkpt lat="53.916311" lon="-1.8349308"><ele>231.0</ele><time>2026-04-26T12:31:47.912Z</time></trkpt><trkpt lat="53.9161763" lon="-1.8349981"><ele>231.0</ele><time>2026-04-26T12:31:48.911Z</time></trkpt><trkpt lat="53.9160312" lon="-1.8350646"><ele>231.0</ele><time>2026-04-26T12:31:49.915Z</time></trkpt><trkpt lat="53.915894" lon="-1.8351611"><ele>234.60000000000002</ele><time>2026-04-26T12:31:50.913Z</time></trkpt><trkpt lat="53.9157874" lon="-1.8352692"><ele>238.20000000000002</ele><time>2026-04-26T12:31:51.91Z</time></trkpt><trkpt lat="53.9157152" lon="-1.8353802"><ele>241.79999999999998</ele><time>2026-04-26T12:31:52.912Z</time></trkpt><trkpt lat="53.9156744" lon="-1.8355096"><ele>245.39999999999998</ele><time>2026-04-26T12:31:53.915Z</time></trkpt><trkpt lat="53.9156559" lon="-1.8356438"><ele>249.0</ele><time>2026-04-26T12:31:54.911Z</time></trkpt><trkpt lat="53.9156583" lon="-1.8357875"><ele>249.0</ele><time>2026-04-26T12:31:55.91Z</time></trkpt><trkpt lat="53.9156716" lon="-1.8359345"><ele>248.99999999999997</ele><time>2026-04-26T12:31:56.907Z</time></trkpt><trkpt lat="53.9156992" lon="-1.8360776"><ele>248.99999999999997</ele><time>2026-04-26T12:31:57.912Z</time></trkpt><trkpt lat="53.9157555" lon="-1.8362144"><ele>249.0</ele><time>2026-04-26T12:31:58.912Z</time></trkpt><trkpt lat="53.9158267" lon="-1.8363493"><ele>249.0</ele><time>2026-04-26T12:31:59.911Z</time></trkpt><trkpt lat="53.9158716" lon="-1.836515"><ele>251.5</ele><time>2026-04-26T12:32:00.912Z</time></trkpt><trkpt lat="53.9158695" lon="-1.8366998"><ele>254.0</ele><time>2026-04-26T12:32:01.917Z</time></trkpt><trkpt lat="53.9158329" lon="-1.8368906"><ele>256.5</ele><time>2026-04-26T12:32:02.912Z</time></trkpt><trkpt lat="53.9157826" lon="-1.8370818"><ele>259.0</ele><time>2026-04-26T12:32:03.915Z</time></trkpt><trkpt lat="53.91572" lon="-1.8372715"><ele>260.25</ele><time>2026-04-26T12:32:04.915Z</time></trkpt><trkpt lat="53.9156411" lon="-1.8374482"><ele>261.5</ele><time>2026-04-26T12:32:05.911Z</time></trkpt><trkpt lat="53.9155504" lon="-1.8375967"><ele>262.75</ele><time>2026-04-26T12:32:06.914Z</time></trkpt><trkpt lat="53.9154556" lon="-1.8377289"><ele>264.0</ele><time>2026-04-26T12:32:07.914Z</time></trkpt><trkpt lat="53.91536" lon="-1.8378659"><ele>265.0</ele><time>2026-04-26T12:32:08.915Z</time></trkpt><trkpt lat="53.9152611" lon="-1.8380168"><ele>266.0</ele><time>2026-04-26T12:32:09.911Z</time></trkpt><trkpt lat="53.9151613" lon="-1.8381809"><ele>267.0</ele><time>2026-04-26T12:32:10.912Z</time></trkpt><trkpt lat="53.9150591" lon="-1.838352"><ele>268.0</ele><time>2026-04-26T12:32:11.91Z</time></trkpt><trkpt lat="53.9149489" lon="-1.8385137"><ele>273.0</ele><time>2026-04-26T12:32:12.911Z</time></trkpt><trkpt lat="53.9148324" lon="-1.838668"><ele>278.0</ele><time>2026-04-26T12:32:13.919Z</time></trkpt><trkpt lat="53.9147105" lon="-1.8388136"><ele>283.0</ele><time>2026-04-26T12:32:14.914Z</time></trkpt><trkpt lat="53.9145898" lon="-1.8389639"><ele>288.0</ele><time>2026-04-26T12:32:15.912Z</time></trkpt><trkpt lat="53.9144768" lon="-1.8391285"><ele>288.0</ele><time>2026-04-26T12:32:16.914Z</time></trkpt><trkpt lat="53.9143746" lon="-1.8392812"><ele>288.0</ele><time>2026-04-26T12:32:17.915Z</time></trkpt><trkpt lat="53.9142761" lon="-1.8393934"><ele>288.0</ele><time>2026-04-26T12:32:18.914Z</time></trkpt><trkpt lat="53.9141736" lon="-1.8394556"><ele>288.0</ele><time>2026-04-26T12:32:19.911Z</time></trkpt><trkpt lat="53.9140644" lon="-1.8394841"><ele>291.0</ele><time>2026-04-26T12:32:20.915Z</time></trkpt><trkpt lat="53.9139443" lon="-1.8394913"><ele>294.0</ele><time>2026-04-26T12:32:21.912Z</time></trkpt><trkpt lat="53.9138141" lon="-1.8394843"><ele>297.0</ele><time>2026-04-26T12:32:22.912Z</time></trkpt><trkpt lat="53.9136803" lon="-1.8394541"><ele>300.0</ele><time>2026-04-26T12:32:23.919Z</time></trkpt><trkpt lat="53.9135522" lon="-1.8394173"><ele>300.0</ele><time>2026-04-26T12:32:24.913Z</time></trkpt><trkpt lat="53.9134272" lon="-1.839367"><ele>300.0</ele><time>2026-04-26T12:32:25.913Z</time></trkpt><trkpt lat="53.913298" lon="-1.8393052"><ele>300.0</ele><time>2026-04-26T12:32:26.914Z</time></trkpt><trkpt lat="53.9131723" lon="-1.8392392"><ele>300.0</ele><time>2026-04-26T12:32:27.915Z</time></trkpt><trkpt lat="53.9130442" lon="-1.8391725"><ele>302.75</ele><time>2026-04-26T12:32:28.915Z</time></trkpt><trkpt lat="53.9129174" lon="-1.8391036"><ele>305.5</ele><time>2026-04-26T12:32:29.913Z</time></trkpt><trkpt lat="53.9127965" lon="-1.8390183"><ele>308.25</ele><time>2026-04-26T12:32:30.913Z</time></trkpt><trkpt lat="53.9126917" lon="-1.8389209"><ele>311.0</ele><time>2026-04-26T12:32:31.912Z</time></trkpt><trkpt lat="53.9126091" lon="-1.8388325"><ele>313.33333333333337</ele><time>2026-04-26T12:32:32.913Z</time></trkpt><trkpt lat="53.9125391" lon="-1.8387706"><ele>315.6666666666667</ele><time>2026-04-26T12:32:33.916Z</time></trkpt><trkpt lat="53.9124734" lon="-1.8387365"><ele>318.0</ele><time>2026-04-26T12:32:34.912Z</time></trkpt><trkpt lat="53.9124019" lon="-1.8387266"><ele>320.3333333333333</ele><time>2026-04-26T12:32:35.912Z</time></trkpt><trkpt lat="53.9123252" lon="-1.8387629"><ele>322.66666666666663</ele><time>2026-04-26T12:32:36.912Z</time></trkpt><trkpt lat="53.9122423" lon="-1.8388445"><ele>325.0</ele><time>2026-04-26T12:32:37.914Z</time></trkpt><trkpt lat="53.9121565" lon="-1.8389539"><ele>325.0</ele><time>2026-04-26T12:32:38.914Z</time></trkpt><trkpt lat="53.9120774" lon="-1.8390734"><ele>325.0</ele><time>2026-04-26T12:32:39.915Z</time></trkpt><trkpt lat="53.912002" lon="-1.8391981"><ele>325.0</ele><time>2026-04-26T12:32:40.916Z</time></trkpt><trkpt lat="53.9119238" lon="-1.8393349"><ele>325.0</ele><time>2026-04-26T12:32:41.916Z</time></trkpt><trkpt lat="53.9118493" lon="-1.8394827"><ele>325.0</ele><time>2026-04-26T12:32:42.906Z</time></trkpt><trkpt lat="53.9117771" lon="-1.8396394"><ele>326.8</ele><time>2026-04-26T12:32:43.915Z</time></trkpt><trkpt lat="53.9117082" lon="-1.8397934"><ele>328.6</ele><time>2026-04-26T12:32:44.914Z</time></trkpt><trkpt lat="53.9116402" lon="-1.8399318"><ele>330.4</ele><time>2026-04-26T12:32:45.917Z</time></trkpt><trkpt lat="53.9115717" lon="-1.8400598"><ele>332.2</ele><time>2026-04-26T12:32:46.916Z</time></trkpt><trkpt lat="53.9115036" lon="-1.8401825"><ele>334.0</ele><time>2026-04-26T12:32:47.914Z</time></trkpt><trkpt lat="53.9114392" lon="-1.8402903"><ele>334.79999999999995</ele><time>2026-04-26T12:32:48.916Z</time></trkpt><trkpt lat="53.9113764" lon="-1.8403962"><ele>335.59999999999997</ele><time>2026-04-26T12:32:49.916Z</time></trkpt><trkpt lat="53.9113139" lon="-1.8405143"><ele>336.4</ele><time>2026-04-26T12:32:50.914Z</time></trkpt><trkpt lat="53.9112487" lon="-1.8406413"><ele>337.2</ele><time>2026-04-26T12:32:51.916Z</time></trkpt><trkpt lat="53.9111807" lon="-1.8407804"><ele>338.0</ele><time>2026-04-26T12:32:52.915Z</time></trkpt><trkpt lat="53.9111122" lon="-1.8409183"><ele>338.4</ele><time>2026-04-26T12:32:53.918Z</time></trkpt><trkpt lat="53.9110451" lon="-1.8410432"><ele>338.79999999999995</ele><time>2026-04-26T12:32:54.905Z</time></trkpt><trkpt lat="53.9109827" lon="-1.8411603"><ele>339.2</ele><time>2026-04-26T12:32:55.916Z</time></trkpt><trkpt lat="53.9109212" lon="-1.8412796"><ele>339.6</ele><time>2026-04-26T12:32:56.915Z</time></trkpt><trkpt lat="53.910856" lon="-1.8414034"><ele>340.0</ele><time>2026-04-26T12:32:57.916Z</time></trkpt><trkpt lat="53.9107824" lon="-1.8415338"><ele>340.5</ele><time>2026-04-26T12:32:58.918Z</time></trkpt><trkpt lat="53.9107014" lon="-1.841691"><ele>341.0</ele><time>2026-04-26T12:32:59.916Z</time></trkpt><trkpt lat="53.9106162" lon="-1.8418819"><ele>341.5</ele><time>2026-04-26T12:33:00.916Z</time></trkpt><trkpt lat="53.9105213" lon="-1.8420912"><ele>342.0</ele><time>2026-04-26T12:33:01.919Z</time></trkpt><trkpt lat="53.9104207" lon="-1.8423138"><ele>342.6666666666667</ele><time>2026-04-26T12:33:02.917Z</time></trkpt><trkpt lat="53.9103062" lon="-1.8425284"><ele>343.33333333333337</ele><time>2026-04-26T12:33:03.923Z</time></trkpt><trkpt lat="53.910175" lon="-1.8427345"><ele>344.0</ele><time>2026-04-26T12:33:04.918Z</time></trkpt><trkpt lat="53.910037" lon="-1.8429396"><ele>345.33333333333337</ele><time>2026-04-26T12:33:05.918Z</time></trkpt><trkpt lat="53.9099068" lon="-1.8431333"><ele>346.6666666666667</ele><time>2026-04-26T12:33:06.92Z</time></trkpt><trkpt lat="53.9097876" lon="-1.8432872"><ele>348.0</ele><time>2026-04-26T12:33:07.922Z</time></trkpt><trkpt lat="53.9096711" lon="-1.8433977"><ele>348.0</ele><time>2026-04-26T12:33:08.92Z</time></trkpt><trkpt lat="53.909545" lon="-1.8434928"><ele>348.0</ele><time>2026-04-26T12:33:09.921Z</time></trkpt><trkpt lat="53.9094093" lon="-1.8435877"><ele>348.0</ele><time>2026-04-26T12:33:10.92Z</time></trkpt><trkpt lat="53.9092694" lon="-1.8436838"><ele>348.0</ele><time>2026-04-26T12:33:11.919Z</time></trkpt><trkpt lat="53.909126" lon="-1.8437796"><ele>349.0</ele><time>2026-04-26T12:33:12.919Z</time></trkpt><trkpt lat="53.9089665" lon="-1.8438773"><ele>350.0</ele><time>2026-04-26T12:33:13.923Z</time></trkpt><trkpt lat="53.9087834" lon="-1.843981"><ele>351.0</ele><time>2026-04-26T12:33:14.918Z</time></trkpt><trkpt lat="53.9085945" lon="-1.8440763"><ele>351.0</ele><time>2026-04-26T12:33:15.916Z</time></trkpt><trkpt lat="53.9084192" lon="-1.8441659"><ele>351.0</ele><time>2026-04-26T12:33:16.916Z</time></trkpt><trkpt lat="53.9082549" lon="-1.8442619"><ele>351.0</ele><time>2026-04-26T12:33:17.918Z</time></trkpt><trkpt lat="53.9080998" lon="-1.8443597"><ele>352.75</ele><time>2026-04-26T12:33:18.916Z</time></trkpt><trkpt lat="53.9079612" lon="-1.8444465"><ele>354.5</ele><time>2026-04-26T12:33:19.919Z</time></trkpt><trkpt lat="53.9078382" lon="-1.8445116"><ele>356.25</ele><time>2026-04-26T12:33:20.916Z</time></trkpt><trkpt lat="53.9077186" lon="-1.8445483"><ele>358.0</ele><time>2026-04-26T12:33:21.917Z</time></trkpt><trkpt lat="53.9076063" lon="-1.8445572"><ele>360.2</ele><time>2026-04-26T12:33:22.916Z</time></trkpt><trkpt lat="53.9075023" lon="-1.8445437"><ele>362.4</ele><time>2026-04-26T12:33:23.918Z</time></trkpt><trkpt lat="53.907399" lon="-1.8445268"><ele>364.59999999999997</ele><time>2026-04-26T12:33:24.916Z</time></trkpt><trkpt lat="53.9072984" lon="-1.8445367"><ele>366.79999999999995</ele><time>2026-04-26T12:33:25.914Z</time></trkpt><trkpt lat="53.907192" lon="-1.8445772"><ele>369.0</ele><time>2026-04-26T12:33:26.916Z</time></trkpt><trkpt lat="53.9070831" lon="-1.8446344"><ele>369.0</ele><time>2026-04-26T12:33:27.915Z</time></trkpt><trkpt lat="53.9069692" lon="-1.8447029"><ele>369.0</ele><time>2026-04-26T12:33:28.917Z</time></trkpt><trkpt lat="53.9068488" lon="-1.8447843"><ele>369.0</ele><time>2026-04-26T12:33:29.915Z</time></trkpt><trkpt lat="53.9067257" lon="-1.8448819"><ele>369.0</ele><time>2026-04-26T12:33:30.917Z</time></trkpt><trkpt lat="53.9066007" lon="-1.8449934"><ele>370.75</ele><time>2026-04-26T12:33:31.921Z</time></trkpt><trkpt lat="53.9064811" lon="-1.8451037"><ele>372.5</ele><time>2026-04-26T12:33:32.92Z</time></trkpt><trkpt lat="53.90636" lon="-1.8452077"><ele>374.25</ele><time>2026-04-26T12:33:33.925Z</time></trkpt><trkpt lat="53.9062333" lon="-1.8453009"><ele>376.0</ele><time>2026-04-26T12:33:34.918Z</time></trkpt><trkpt lat="53.9060953" lon="-1.8453905"><ele>376.66666666666663</ele><time>2026-04-26T12:33:35.908Z</time></trkpt><trkpt lat="53.9059495" lon="-1.8454885"><ele>377.3333333333333</ele><time>2026-04-26T12:33:36.912Z</time></trkpt><trkpt lat="53.9058072" lon="-1.845595"><ele>378.0</ele><time>2026-04-26T12:33:37.911Z</time></trkpt><trkpt lat="53.9056742" lon="-1.8456971"><ele>378.3333333333333</ele><time>2026-04-26T12:33:38.91Z</time></trkpt><trkpt lat="53.9055432" lon="-1.8458008"><ele>378.66666666666663</ele><time>2026-04-26T12:33:39.907Z</time></trkpt><trkpt lat="53.9054015" lon="-1.8459162"><ele>379.0</ele><time>2026-04-26T12:33:40.911Z</time></trkpt><trkpt lat="53.9052463" lon="-1.8460421"><ele>379.3333333333333</ele><time>2026-04-26T12:33:41.904Z</time></trkpt><trkpt lat="53.9050839" lon="-1.8461769"><ele>379.6666666666667</ele><time>2026-04-26T12:33:42.905Z</time></trkpt><trkpt lat="53.9049225" lon="-1.8463116"><ele>380.0</ele><time>2026-04-26T12:33:43.91Z</time></trkpt><trkpt lat="53.9047641" lon="-1.84644"><ele>380.0</ele><time>2026-04-26T12:33:44.904Z</time></trkpt><trkpt lat="53.9046146" lon="-1.8465619"><ele>380.0</ele><time>2026-04-26T12:33:45.909Z</time></trkpt><trkpt lat="53.9044784" lon="-1.8466642"><ele>380.0</ele><time>2026-04-26T12:33:46.907Z</time></trkpt><trkpt lat="53.904365" lon="-1.8467419"><ele>380.0</ele><time>2026-04-26T12:33:47.908Z</time></trkpt><trkpt lat="53.9042807" lon="-1.8468026"><ele>380.0</ele><time>2026-04-26T12:33:48.909Z</time></trkpt><trkpt lat="53.9042191" lon="-1.8468483"><ele>380.0</ele><time>2026-04-26T12:33:49.906Z</time></trkpt><trkpt lat="53.9041548" lon="-1.8468888"><ele>380.0</ele><time>2026-04-26T12:33:51.917Z</time></trkpt><trkpt lat="53.9041151" lon="-1.8470083"><ele>380.0</ele><time>2026-04-26T12:33:56.915Z</time></trkpt><trkpt lat="53.9040853" lon="-1.8471102"><ele>380.0</ele><time>2026-04-26T12:33:57.908Z</time></trkpt><trkpt lat="53.9040492" lon="-1.8472478"><ele>380.0</ele><time>2026-04-26T12:33:58.916Z</time></trkpt><trkpt lat="53.904011" lon="-1.8474032"><ele>380.0</ele><time>2026-04-26T12:33:59.915Z</time></trkpt><trkpt lat="53.9039857" lon="-1.8475338"><ele>380.0</ele><time>2026-04-26T12:34:00.916Z</time></trkpt><trkpt lat="53.9039573" lon="-1.847656"><ele>380.0</ele><time>2026-04-26T12:34:01.919Z</time></trkpt><trkpt lat="53.9039282" lon="-1.8477886"><ele>380.0</ele><time>2026-04-26T12:34:02.919Z</time></trkpt><trkpt lat="53.9038995" lon="-1.8479581"><ele>380.0</ele><time>2026-04-26T12:34:03.927Z</time></trkpt><trkpt lat="53.9038647" lon="-1.8481779"><ele>380.0</ele><time>2026-04-26T12:34:04.921Z</time></trkpt><trkpt lat="53.9038236" lon="-1.8484366"><ele>380.0</ele><time>2026-04-26T12:34:05.919Z</time></trkpt><trkpt lat="53.9037756" lon="-1.848732"><ele>380.0</ele><time>2026-04-26T12:34:06.92Z</time></trkpt><trkpt lat="53.9037188" lon="-1.8490566"><ele>380.0</ele><time>2026-04-26T12:34:07.922Z</time></trkpt><trkpt lat="53.9036492" lon="-1.8494101"><ele>380.0</ele><time>2026-04-26T12:34:08.921Z</time></trkpt><trkpt lat="53.9035717" lon="-1.8498032"><ele>380.5</ele><time>2026-04-26T12:34:09.919Z</time></trkpt><trkpt lat="53.9034891" lon="-1.8502375"><ele>381.0</ele><time>2026-04-26T12:34:10.921Z</time></trkpt><trkpt lat="53.9034005" lon="-1.8506949"><ele>378.0</ele><time>2026-04-26T12:34:11.916Z</time></trkpt><trkpt lat="53.903316" lon="-1.8511628"><ele>375.0</ele><time>2026-04-26T12:34:12.916Z</time></trkpt><trkpt lat="53.903233" lon="-1.8516137"><ele>375.0</ele><time>2026-04-26T12:34:13.924Z</time></trkpt><trkpt lat="53.9031529" lon="-1.8520429"><ele>375.0</ele><time>2026-04-26T12:34:14.916Z</time></trkpt><trkpt lat="53.9030742" lon="-1.8524484"><ele>377.0</ele><time>2026-04-26T12:34:15.918Z</time></trkpt><trkpt lat="53.9029993" lon="-1.8528464"><ele>379.0</ele><time>2026-04-26T12:34:16.917Z</time></trkpt><trkpt lat="53.902928" lon="-1.8532184"><ele>379.66666666666663</ele><time>2026-04-26T12:34:17.917Z</time></trkpt><trkpt lat="53.9028617" lon="-1.8535503"><ele>380.3333333333333</ele><time>2026-04-26T12:34:18.915Z</time></trkpt><trkpt lat="53.9028099" lon="-1.8538481"><ele>381.0</ele><time>2026-04-26T12:34:19.912Z</time></trkpt><trkpt lat="53.9027688" lon="-1.8541336"><ele>381.3333333333333</ele><time>2026-04-26T12:34:20.916Z</time></trkpt><trkpt lat="53.9027266" lon="-1.8544254"><ele>381.66666666666663</ele><time>2026-04-26T12:34:21.917Z</time></trkpt><trkpt lat="53.9026782" lon="-1.8547269"><ele>382.0</ele><time>2026-04-26T12:34:22.916Z</time></trkpt><trkpt lat="53.9026246" lon="-1.8550325"><ele>378.3333333333333</ele><time>2026-04-26T12:34:23.908Z</time></trkpt><trkpt lat="53.9025603" lon="-1.855342"><ele>374.6666666666667</ele><time>2026-04-26T12:34:24.916Z</time></trkpt><trkpt lat="53.902488" lon="-1.8556531"><ele>371.0</ele><time>2026-04-26T12:34:25.916Z</time></trkpt><trkpt lat="53.9024003" lon="-1.855955"><ele>370.6666666666667</ele><time>2026-04-26T12:34:26.919Z</time></trkpt><trkpt lat="53.902292" lon="-1.8562591"><ele>370.3333333333333</ele><time>2026-04-26T12:34:27.915Z</time></trkpt><trkpt lat="53.9021681" lon="-1.8565859"><ele>370.0</ele><time>2026-04-26T12:34:28.915Z</time></trkpt><trkpt lat="53.902048" lon="-1.8569029"><ele>370.0</ele><time>2026-04-26T12:34:29.917Z</time></trkpt><trkpt lat="53.9019292" lon="-1.8571961"><ele>370.0</ele><time>2026-04-26T12:34:30.916Z</time></trkpt><trkpt lat="53.9018217" lon="-1.8574761"><ele>370.0</ele><time>2026-04-26T12:34:31.921Z</time></trkpt><trkpt lat="53.9017196" lon="-1.8577344"><ele>364.0</ele><time>2026-04-26T12:34:32.92Z</time></trkpt><trkpt lat="53.9016109" lon="-1.8579684"><ele>358.0</ele><time>2026-04-26T12:34:33.916Z</time></trkpt><trkpt lat="53.9014821" lon="-1.8581752"><ele>352.0</ele><time>2026-04-26T12:34:34.92Z</time></trkpt><trkpt lat="53.9013469" lon="-1.8583437"><ele>352.3333333333333</ele><time>2026-04-26T12:34:35.92Z</time></trkpt><trkpt lat="53.9011964" lon="-1.8584755"><ele>352.6666666666667</ele><time>2026-04-26T12:34:36.92Z</time></trkpt><trkpt lat="53.9009954" lon="-1.8585727"><ele>353.0</ele><time>2026-04-26T12:34:37.921Z</time></trkpt><trkpt lat="53.900776" lon="-1.8586745"><ele>345.5</ele><time>2026-04-26T12:34:38.921Z</time></trkpt><trkpt lat="53.9005516" lon="-1.8587974"><ele>338.0</ele><time>2026-04-26T12:34:39.918Z</time></trkpt><trkpt lat="53.9003175" lon="-1.8589382"><ele>333.0</ele><time>2026-04-26T12:34:40.916Z</time></trkpt><trkpt lat="53.9000779" lon="-1.8590846"><ele>328.0</ele><time>2026-04-26T12:34:41.916Z</time></trkpt><trkpt lat="53.8998322" lon="-1.8592255"><ele>330.0</ele><time>2026-04-26T12:34:42.915Z</time></trkpt><trkpt lat="53.8995964" lon="-1.8593631"><ele>332.0</ele><time>2026-04-26T12:34:43.921Z</time></trkpt><trkpt lat="53.8993646" lon="-1.8595032"><ele>328.5</ele><time>2026-04-26T12:34:44.917Z</time></trkpt><trkpt lat="53.8991321" lon="-1.8596402"><ele>325.0</ele><time>2026-04-26T12:34:45.91Z</time></trkpt><trkpt lat="53.8988988" lon="-1.8597784"><ele>325.0</ele><time>2026-04-26T12:34:46.917Z</time></trkpt><trkpt lat="53.8986671" lon="-1.8599143"><ele>325.0</ele><time>2026-04-26T12:34:47.918Z</time></trkpt><trkpt lat="53.8984429" lon="-1.860043"><ele>324.0</ele><time>2026-04-26T12:34:48.918Z</time></trkpt><trkpt lat="53.8982177" lon="-1.8601766"><ele>323.0</ele><time>2026-04-26T12:34:49.917Z</time></trkpt><trkpt lat="53.8979919" lon="-1.8603134"><ele>323.0</ele><time>2026-04-26T12:34:50.915Z</time></trkpt><trkpt lat="53.8977674" lon="-1.8604456"><ele>323.0</ele><time>2026-04-26T12:34:51.916Z</time></trkpt><trkpt lat="53.8975364" lon="-1.8605821"><ele>316.5</ele><time>2026-04-26T12:34:52.919Z</time></trkpt><trkpt lat="53.8972981" lon="-1.8607272"><ele>310.0</ele><time>2026-04-26T12:34:53.911Z</time></trkpt><trkpt lat="53.8970548" lon="-1.8608735"><ele>311.5</ele><time>2026-04-26T12:34:54.918Z</time></trkpt><trkpt lat="53.8968153" lon="-1.8610173"><ele>313.0</ele><time>2026-04-26T12:34:55.918Z</time></trkpt><trkpt lat="53.8965894" lon="-1.861147"><ele>310.0</ele><time>2026-04-26T12:34:56.919Z</time></trkpt><trkpt lat="53.8963762" lon="-1.8612708"><ele>307.0</ele><time>2026-04-26T12:34:57.917Z</time></trkpt><trkpt lat="53.8961655" lon="-1.8613945"><ele>304.0</ele><time>2026-04-26T12:34:58.917Z</time></trkpt><trkpt lat="53.8959457" lon="-1.8615264"><ele>300.5</ele><time>2026-04-26T12:34:59.917Z</time></trkpt><trkpt lat="53.8957184" lon="-1.8616659"><ele>297.0</ele><time>2026-04-26T12:35:00.917Z</time></trkpt><trkpt lat="53.8954897" lon="-1.8618064"><ele>297.0</ele><time>2026-04-26T12:35:01.917Z</time></trkpt><trkpt lat="53.8952613" lon="-1.8619449"><ele>297.0</ele><time>2026-04-26T12:35:02.916Z</time></trkpt><trkpt lat="53.8950378" lon="-1.8620787"><ele>294.5</ele><time>2026-04-26T12:35:03.922Z</time></trkpt><trkpt lat="53.8948196" lon="-1.8622076"><ele>292.0</ele><time>2026-04-26T12:35:04.918Z</time></trkpt><trkpt lat="53.8946038" lon="-1.8623376"><ele>292.0</ele><time>2026-04-26T12:35:05.915Z</time></trkpt><trkpt lat="53.8943971" lon="-1.8624604"><ele>292.0</ele><time>2026-04-26T12:35:06.918Z</time></trkpt><trkpt lat="53.8942052" lon="-1.8625757"><ele>292.0</ele><time>2026-04-26T12:35:07.917Z</time></trkpt><trkpt lat="53.8940162" lon="-1.8626914"><ele>291.0</ele><time>2026-04-26T12:35:08.917Z</time></trkpt><trkpt lat="53.893825" lon="-1.8628079"><ele>290.0</ele><time>2026-04-26T12:35:09.92Z</time></trkpt><trkpt lat="53.8936276" lon="-1.8629259"><ele>289.0</ele><time>2026-04-26T12:35:10.917Z</time></trkpt><trkpt lat="53.8934255" lon="-1.8630444"><ele>287.3333333333333</ele><time>2026-04-26T12:35:11.916Z</time></trkpt><trkpt lat="53.8932213" lon="-1.8631568"><ele>285.6666666666667</ele><time>2026-04-26T12:35:12.916Z</time></trkpt><trkpt lat="53.8930154" lon="-1.863275"><ele>284.0</ele><time>2026-04-26T12:35:13.921Z</time></trkpt><trkpt lat="53.8928104" lon="-1.8633966"><ele>284.0</ele><time>2026-04-26T12:35:14.916Z</time></trkpt><trkpt lat="53.8926127" lon="-1.86352"><ele>284.0</ele><time>2026-04-26T12:35:15.916Z</time></trkpt><trkpt lat="53.8924236" lon="-1.8636514"><ele>284.0</ele><time>2026-04-26T12:35:16.917Z</time></trkpt><trkpt lat="53.8922514" lon="-1.8637951"><ele>283.0</ele><time>2026-04-26T12:35:17.916Z</time></trkpt><trkpt lat="53.8920905" lon="-1.8639505"><ele>282.0</ele><time>2026-04-26T12:35:18.917Z</time></trkpt><trkpt lat="53.8919261" lon="-1.8640971"><ele>281.0</ele><time>2026-04-26T12:35:19.915Z</time></trkpt><trkpt lat="53.8917554" lon="-1.8642109"><ele>280.6666666666667</ele><time>2026-04-26T12:35:20.921Z</time></trkpt><trkpt lat="53.8915771" lon="-1.8642658"><ele>280.3333333333333</ele><time>2026-04-26T12:35:21.916Z</time></trkpt><trkpt lat="53.8913999" lon="-1.8642918"><ele>280.0</ele><time>2026-04-26T12:35:22.918Z</time></trkpt><trkpt lat="53.8912279" lon="-1.8643479"><ele>281.3333333333333</ele><time>2026-04-26T12:35:23.926Z</time></trkpt><trkpt lat="53.8910441" lon="-1.864446"><ele>282.6666666666667</ele><time>2026-04-26T12:35:24.916Z</time></trkpt><trkpt lat="53.8908572" lon="-1.8645701"><ele>284.0</ele><time>2026-04-26T12:35:25.918Z</time></trkpt><trkpt lat="53.8906671" lon="-1.8646994"><ele>284.0</ele><time>2026-04-26T12:35:26.916Z</time></trkpt><trkpt lat="53.8904787" lon="-1.8648157"><ele>284.0</ele><time>2026-04-26T12:35:27.916Z</time></trkpt><trkpt lat="53.890298" lon="-1.8649252"><ele>284.0</ele><time>2026-04-26T12:35:28.916Z</time></trkpt><trkpt lat="53.8901286" lon="-1.8650269"><ele>284.33333333333337</ele><time>2026-04-26T12:35:29.916Z</time></trkpt><trkpt lat="53.8899729" lon="-1.8651214"><ele>284.6666666666667</ele><time>2026-04-26T12:35:30.916Z</time></trkpt><trkpt lat="53.8898307" lon="-1.8652134"><ele>285.0</ele><time>2026-04-26T12:35:31.918Z</time></trkpt><trkpt lat="53.889695" lon="-1.8652981"><ele>285.0</ele><time>2026-04-26T12:35:32.918Z</time></trkpt><trkpt lat="53.8895604" lon="-1.8653764"><ele>285.0</ele><time>2026-04-26T12:35:33.922Z</time></trkpt><trkpt lat="53.8894258" lon="-1.865445"><ele>285.0</ele><time>2026-04-26T12:35:34.916Z</time></trkpt><trkpt lat="53.8892857" lon="-1.8655121"><ele>285.0</ele><time>2026-04-26T12:35:35.916Z</time></trkpt><trkpt lat="53.8891431" lon="-1.8655846"><ele>283.0</ele><time>2026-04-26T12:35:36.916Z</time></trkpt><trkpt lat="53.8890003" lon="-1.8656705"><ele>281.0</ele><time>2026-04-26T12:35:37.915Z</time></trkpt><trkpt lat="53.8888591" lon="-1.8657704"><ele>279.0</ele><time>2026-04-26T12:35:38.915Z</time></trkpt><trkpt lat="53.8887173" lon="-1.8658696"><ele>279.0</ele><time>2026-04-26T12:35:39.917Z</time></trkpt><trkpt lat="53.8885722" lon="-1.8659532"><ele>279.0</ele><time>2026-04-26T12:35:40.914Z</time></trkpt><trkpt lat="53.8884264" lon="-1.86602"><ele>279.0</ele><time>2026-04-26T12:35:41.91Z</time></trkpt><trkpt lat="53.8882905" lon="-1.8660796"><ele>279.0</ele><time>2026-04-26T12:35:42.911Z</time></trkpt><trkpt lat="53.8881582" lon="-1.8661474"><ele>277.6666666666667</ele><time>2026-04-26T12:35:43.915Z</time></trkpt><trkpt lat="53.8880147" lon="-1.8662293"><ele>276.33333333333337</ele><time>2026-04-26T12:35:44.912Z</time></trkpt><trkpt lat="53.8878599" lon="-1.8663205"><ele>275.0</ele><time>2026-04-26T12:35:45.912Z</time></trkpt><trkpt lat="53.8876966" lon="-1.8664228"><ele>273.6666666666667</ele><time>2026-04-26T12:35:46.913Z</time></trkpt><trkpt lat="53.8875224" lon="-1.8665365"><ele>272.3333333333333</ele><time>2026-04-26T12:35:47.91Z</time></trkpt><trkpt lat="53.8873294" lon="-1.8666617"><ele>271.0</ele><time>2026-04-26T12:35:48.911Z</time></trkpt><trkpt lat="53.8871243" lon="-1.8667919"><ele>270.3333333333333</ele><time>2026-04-26T12:35:49.913Z</time></trkpt><trkpt lat="53.8869133" lon="-1.8669154"><ele>269.6666666666667</ele><time>2026-04-26T12:35:50.912Z</time></trkpt><trkpt lat="53.8867013" lon="-1.8670358"><ele>269.0</ele><time>2026-04-26T12:35:51.911Z</time></trkpt><trkpt lat="53.8865022" lon="-1.8671525"><ele>266.6666666666667</ele><time>2026-04-26T12:35:52.915Z</time></trkpt><trkpt lat="53.8863202" lon="-1.8672575"><ele>264.3333333333333</ele><time>2026-04-26T12:35:53.916Z</time></trkpt><trkpt lat="53.8861567" lon="-1.8673545"><ele>262.0</ele><time>2026-04-26T12:35:54.915Z</time></trkpt><trkpt lat="53.8859952" lon="-1.8674593"><ele>261.3333333333333</ele><time>2026-04-26T12:35:55.915Z</time></trkpt><trkpt lat="53.8858311" lon="-1.8675653"><ele>260.6666666666667</ele><time>2026-04-26T12:35:56.914Z</time></trkpt><trkpt lat="53.8856716" lon="-1.8676581"><ele>260.0</ele><time>2026-04-26T12:35:57.913Z</time></trkpt><trkpt lat="53.8855317" lon="-1.8677377"><ele>259.83333333333337</ele><time>2026-04-26T12:35:58.912Z</time></trkpt><trkpt lat="53.8854113" lon="-1.8678031"><ele>259.6666666666667</ele><time>2026-04-26T12:35:59.913Z</time></trkpt><trkpt lat="53.8853192" lon="-1.8678495"><ele>259.5</ele><time>2026-04-26T12:36:00.915Z</time></trkpt><trkpt lat="53.8852472" lon="-1.8678898"><ele>259.3333333333333</ele><time>2026-04-26T12:36:01.917Z</time></trkpt><trkpt lat="53.8851839" lon="-1.8679283"><ele>259.16666666666663</ele><time>2026-04-26T12:36:02.914Z</time></trkpt><trkpt lat="53.885113" lon="-1.8679574"><ele>259.0</ele><time>2026-04-26T12:36:04.916Z</time></trkpt><trkpt lat="53.8850425" lon="-1.8677661"><ele>257.5</ele><time>2026-04-26T12:36:07.917Z</time></trkpt><trkpt lat="53.8849835" lon="-1.8676214"><ele>256.0</ele><time>2026-04-26T12:36:08.919Z</time></trkpt><trkpt lat="53.8849215" lon="-1.8674438"><ele>254.5</ele><time>2026-04-26T12:36:09.919Z</time></trkpt><trkpt lat="53.8848482" lon="-1.8672462"><ele>253.0</ele><time>2026-04-26T12:36:10.917Z</time></trkpt><trkpt lat="53.8847693" lon="-1.8669935"><ele>253.0</ele><time>2026-04-26T12:36:11.914Z</time></trkpt><trkpt lat="53.8846677" lon="-1.8667071"><ele>253.0</ele><time>2026-04-26T12:36:12.916Z</time></trkpt><trkpt lat="53.8845655" lon="-1.8663974"><ele>253.0</ele><time>2026-04-26T12:36:13.923Z</time></trkpt><trkpt lat="53.884455" lon="-1.8660608"><ele>252.0</ele><time>2026-04-26T12:36:14.921Z</time></trkpt><trkpt lat="53.8843376" lon="-1.8656985"><ele>251.0</ele><time>2026-04-26T12:36:15.92Z</time></trkpt><trkpt lat="53.884216" lon="-1.8653277"><ele>248.5</ele><time>2026-04-26T12:36:16.92Z</time></trkpt><trkpt lat="53.8840951" lon="-1.86496"><ele>246.0</ele><time>2026-04-26T12:36:17.919Z</time></trkpt><trkpt lat="53.883979" lon="-1.8646107"><ele>246.0</ele><time>2026-04-26T12:36:18.916Z</time></trkpt><trkpt lat="53.8838709" lon="-1.8642945"><ele>246.0</ele><time>2026-04-26T12:36:19.915Z</time></trkpt><trkpt lat="53.8837672" lon="-1.8640136"><ele>246.0</ele><time>2026-04-26T12:36:20.915Z</time></trkpt><trkpt lat="53.8836769" lon="-1.863771"><ele>246.5</ele><time>2026-04-26T12:36:21.913Z</time></trkpt><trkpt lat="53.8835955" lon="-1.8635616"><ele>247.0</ele><time>2026-04-26T12:36:22.911Z</time></trkpt><trkpt lat="53.8835238" lon="-1.863384"><ele>247.5</ele><time>2026-04-26T12:36:23.913Z</time></trkpt><trkpt lat="53.8834495" lon="-1.8632301"><ele>248.0</ele><time>2026-04-26T12:36:24.914Z</time></trkpt><trkpt lat="53.883374" lon="-1.8630625"><ele>246.75</ele><time>2026-04-26T12:36:25.914Z</time></trkpt><trkpt lat="53.8832958" lon="-1.8628904"><ele>245.5</ele><time>2026-04-26T12:36:26.915Z</time></trkpt><trkpt lat="53.8832108" lon="-1.8626978"><ele>244.25</ele><time>2026-04-26T12:36:27.911Z</time></trkpt><trkpt lat="53.8831285" lon="-1.8624732"><ele>243.0</ele><time>2026-04-26T12:36:28.911Z</time></trkpt><trkpt lat="53.8830403" lon="-1.8622265"><ele>243.0</ele><time>2026-04-26T12:36:29.916Z</time></trkpt><trkpt lat="53.8829369" lon="-1.8619667"><ele>243.0</ele><time>2026-04-26T12:36:30.915Z</time></trkpt><trkpt lat="53.8828241" lon="-1.8617196"><ele>243.0</ele><time>2026-04-26T12:36:31.916Z</time></trkpt><trkpt lat="53.8827056" lon="-1.8615141"><ele>241.5</ele><time>2026-04-26T12:36:32.916Z</time></trkpt><trkpt lat="53.8825953" lon="-1.8613424"><ele>240.0</ele><time>2026-04-26T12:36:33.918Z</time></trkpt><trkpt lat="53.8825056" lon="-1.8611789"><ele>238.5</ele><time>2026-04-26T12:36:34.918Z</time></trkpt><trkpt lat="53.882445" lon="-1.8610257"><ele>237.0</ele><time>2026-04-26T12:36:35.916Z</time></trkpt><trkpt lat="53.8824139" lon="-1.8608671"><ele>237.0</ele><time>2026-04-26T12:36:36.918Z</time></trkpt><trkpt lat="53.8823931" lon="-1.8607044"><ele>237.0</ele><time>2026-04-26T12:36:37.915Z</time></trkpt><trkpt lat="53.8823557" lon="-1.8605366"><ele>237.0</ele><time>2026-04-26T12:36:38.915Z</time></trkpt><trkpt lat="53.8822863" lon="-1.8603536"><ele>237.0</ele><time>2026-04-26T12:36:39.914Z</time></trkpt><trkpt lat="53.8821758" lon="-1.8601428"><ele>236.33333333333331</ele><time>2026-04-26T12:36:40.924Z</time></trkpt><trkpt lat="53.8820358" lon="-1.8599086"><ele>235.66666666666666</ele><time>2026-04-26T12:36:41.914Z</time></trkpt><trkpt lat="53.8818812" lon="-1.8596751"><ele>235.0</ele><time>2026-04-26T12:36:42.913Z</time></trkpt><trkpt lat="53.8817308" lon="-1.859463"><ele>233.0</ele><time>2026-04-26T12:36:43.914Z</time></trkpt><trkpt lat="53.8815918" lon="-1.8592639"><ele>231.0</ele><time>2026-04-26T12:36:44.915Z</time></trkpt><trkpt lat="53.8814734" lon="-1.8590898"><ele>229.0</ele><time>2026-04-26T12:36:45.918Z</time></trkpt><trkpt lat="53.8813576" lon="-1.8589446"><ele>229.0</ele><time>2026-04-26T12:36:46.913Z</time></trkpt><trkpt lat="53.8812206" lon="-1.8588597"><ele>229.0</ele><time>2026-04-26T12:36:47.916Z</time></trkpt><trkpt lat="53.8810582" lon="-1.8588337"><ele>229.0</ele><time>2026-04-26T12:36:48.916Z</time></trkpt><trkpt lat="53.8808965" lon="-1.8588067"><ele>227.5</ele><time>2026-04-26T12:36:49.916Z</time></trkpt><trkpt lat="53.8807448" lon="-1.8587486"><ele>226.0</ele><time>2026-04-26T12:36:50.918Z</time></trkpt><trkpt lat="53.8806114" lon="-1.8586759"><ele>224.5</ele><time>2026-04-26T12:36:51.917Z</time></trkpt><trkpt lat="53.8804868" lon="-1.8586223"><ele>223.0</ele><time>2026-04-26T12:36:52.919Z</time></trkpt><trkpt lat="53.88036" lon="-1.8585928"><ele>223.0</ele><time>2026-04-26T12:36:53.916Z</time></trkpt><trkpt lat="53.8802277" lon="-1.8585876"><ele>223.0</ele><time>2026-04-26T12:36:54.915Z</time></trkpt><trkpt lat="53.8801033" lon="-1.8585832"><ele>223.0</ele><time>2026-04-26T12:36:55.913Z</time></trkpt><trkpt lat="53.8799898" lon="-1.8585634"><ele>223.0</ele><time>2026-04-26T12:36:56.915Z</time></trkpt><trkpt lat="53.8798934" lon="-1.8585169"><ele>221.75</ele><time>2026-04-26T12:36:57.913Z</time></trkpt><trkpt lat="53.8798216" lon="-1.8584295"><ele>220.5</ele><time>2026-04-26T12:36:58.914Z</time></trkpt><trkpt lat="53.8797689" lon="-1.8582738"><ele>219.25</ele><time>2026-04-26T12:36:59.915Z</time></trkpt><trkpt lat="53.8797188" lon="-1.8580698"><ele>218.0</ele><time>2026-04-26T12:37:00.915Z</time></trkpt><trkpt lat="53.8796552" lon="-1.8578421"><ele>217.66666666666669</ele><time>2026-04-26T12:37:01.918Z</time></trkpt><trkpt lat="53.879567" lon="-1.8576084"><ele>217.33333333333331</ele><time>2026-04-26T12:37:02.917Z</time></trkpt><trkpt lat="53.8794653" lon="-1.8573874"><ele>217.0</ele><time>2026-04-26T12:37:03.923Z</time></trkpt><trkpt lat="53.8793509" lon="-1.8571926"><ele>213.0</ele><time>2026-04-26T12:37:04.919Z</time></trkpt><trkpt lat="53.8792275" lon="-1.8570163"><ele>209.0</ele><time>2026-04-26T12:37:05.918Z</time></trkpt><trkpt lat="53.8791008" lon="-1.8568416"><ele>205.0</ele><time>2026-04-26T12:37:06.919Z</time></trkpt><trkpt lat="53.8789762" lon="-1.8566622"><ele>204.33333333333331</ele><time>2026-04-26T12:37:07.919Z</time></trkpt><trkpt lat="53.8788499" lon="-1.8564785"><ele>203.66666666666669</ele><time>2026-04-26T12:37:08.919Z</time></trkpt><trkpt lat="53.8787175" lon="-1.8563094"><ele>203.0</ele><time>2026-04-26T12:37:09.917Z</time></trkpt><trkpt lat="53.8785731" lon="-1.8561897"><ele>201.33333333333334</ele><time>2026-04-26T12:37:10.917Z</time></trkpt><trkpt lat="53.8784177" lon="-1.8561168"><ele>199.66666666666669</ele><time>2026-04-26T12:37:11.914Z</time></trkpt><trkpt lat="53.8782623" lon="-1.8560371"><ele>198.0</ele><time>2026-04-26T12:37:12.915Z</time></trkpt><trkpt lat="53.8781118" lon="-1.8559364"><ele>197.25</ele><time>2026-04-26T12:37:13.918Z</time></trkpt><trkpt lat="53.8779778" lon="-1.8558078"><ele>196.5</ele><time>2026-04-26T12:37:14.917Z</time></trkpt><trkpt lat="53.8778684" lon="-1.8556522"><ele>195.75</ele><time>2026-04-26T12:37:15.916Z</time></trkpt><trkpt lat="53.8777859" lon="-1.8554583"><ele>195.0</ele><time>2026-04-26T12:37:16.917Z</time></trkpt><trkpt lat="53.8777091" lon="-1.8552466"><ele>194.33333333333331</ele><time>2026-04-26T12:37:17.917Z</time></trkpt><trkpt lat="53.8776283" lon="-1.8550262"><ele>193.66666666666666</ele><time>2026-04-26T12:37:18.919Z</time></trkpt><trkpt lat="53.8775318" lon="-1.8548259"><ele>193.0</ele><time>2026-04-26T12:37:19.917Z</time></trkpt><trkpt lat="53.8774164" lon="-1.8546509"><ele>193.0</ele><time>2026-04-26T12:37:20.906Z</time></trkpt><trkpt lat="53.8772915" lon="-1.8544901"><ele>193.0</ele><time>2026-04-26T12:37:21.913Z</time></trkpt><trkpt lat="53.8771705" lon="-1.854345"><ele>193.0</ele><time>2026-04-26T12:37:22.915Z</time></trkpt><trkpt lat="53.8770736" lon="-1.8542204"><ele>193.0</ele><time>2026-04-26T12:37:23.918Z</time></trkpt><trkpt lat="53.8769984" lon="-1.8541138"><ele>192.4</ele><time>2026-04-26T12:37:24.916Z</time></trkpt><trkpt lat="53.8769285" lon="-1.8540268"><ele>191.8</ele><time>2026-04-26T12:37:25.915Z</time></trkpt><trkpt lat="53.8768525" lon="-1.8539667"><ele>191.2</ele><time>2026-04-26T12:37:26.916Z</time></trkpt><trkpt lat="53.8767519" lon="-1.8539506"><ele>190.6</ele><time>2026-04-26T12:37:27.916Z</time></trkpt><trkpt lat="53.8766371" lon="-1.8539718"><ele>190.0</ele><time>2026-04-26T12:37:28.914Z</time></trkpt><trkpt lat="53.8765326" lon="-1.8540091"><ele>190.0</ele><time>2026-04-26T12:37:29.914Z</time></trkpt><trkpt lat="53.8764349" lon="-1.854055"><ele>190.0</ele><time>2026-04-26T12:37:30.916Z</time></trkpt><trkpt lat="53.8763396" lon="-1.8541042"><ele>190.0</ele><time>2026-04-26T12:37:31.914Z</time></trkpt><trkpt lat="53.8762388" lon="-1.8541628"><ele>190.0</ele><time>2026-04-26T12:37:32.915Z</time></trkpt><trkpt lat="53.8761402" lon="-1.8542378"><ele>190.0</ele><time>2026-04-26T12:37:33.918Z</time></trkpt><trkpt lat="53.8760466" lon="-1.8543272"><ele>190.6</ele><time>2026-04-26T12:37:34.914Z</time></trkpt><trkpt lat="53.8759596" lon="-1.8544214"><ele>191.2</ele><time>2026-04-26T12:37:35.913Z</time></trkpt><trkpt lat="53.8758701" lon="-1.8545074"><ele>191.8</ele><time>2026-04-26T12:37:36.915Z</time></trkpt><trkpt lat="53.8757731" lon="-1.854562"><ele>192.4</ele><time>2026-04-26T12:37:37.912Z</time></trkpt><trkpt lat="53.8756662" lon="-1.8545777"><ele>193.0</ele><time>2026-04-26T12:37:38.913Z</time></trkpt><trkpt lat="53.8755478" lon="-1.8545759"><ele>191.25</ele><time>2026-04-26T12:37:39.914Z</time></trkpt><trkpt lat="53.8754271" lon="-1.8545657"><ele>189.5</ele><time>2026-04-26T12:37:40.913Z</time></trkpt><trkpt lat="53.875311" lon="-1.8545452"><ele>187.75</ele><time>2026-04-26T12:37:41.912Z</time></trkpt><trkpt lat="53.8751959" lon="-1.8545171"><ele>186.0</ele><time>2026-04-26T12:37:42.912Z</time></trkpt><trkpt lat="53.8750845" lon="-1.8544817"><ele>184.0</ele><time>2026-04-26T12:37:43.914Z</time></trkpt><trkpt lat="53.8749733" lon="-1.8544487"><ele>182.0</ele><time>2026-04-26T12:37:44.913Z</time></trkpt><trkpt lat="53.8748609" lon="-1.8544306"><ele>180.0</ele><time>2026-04-26T12:37:45.915Z</time></trkpt><trkpt lat="53.8747392" lon="-1.8544282"><ele>178.0</ele><time>2026-04-26T12:37:46.917Z</time></trkpt><trkpt lat="53.8746093" lon="-1.8544498"><ele>178.0</ele><time>2026-04-26T12:37:47.913Z</time></trkpt><trkpt lat="53.8744824" lon="-1.8544809"><ele>178.0</ele><time>2026-04-26T12:37:48.914Z</time></trkpt><trkpt lat="53.8743624" lon="-1.8545231"><ele>178.0</ele><time>2026-04-26T12:37:49.915Z</time></trkpt><trkpt lat="53.8742487" lon="-1.8545623"><ele>178.0</ele><time>2026-04-26T12:37:50.914Z</time></trkpt><trkpt lat="53.8741385" lon="-1.8545926"><ele>176.0</ele><time>2026-04-26T12:37:51.912Z</time></trkpt><trkpt lat="53.8740327" lon="-1.8546032"><ele>174.0</ele><time>2026-04-26T12:37:52.914Z</time></trkpt><trkpt lat="53.8739328" lon="-1.8545887"><ele>172.0</ele><time>2026-04-26T12:37:53.914Z</time></trkpt><trkpt lat="53.8738356" lon="-1.8545573"><ele>170.0</ele><time>2026-04-26T12:37:54.915Z</time></trkpt><trkpt lat="53.8737399" lon="-1.8545187"><ele>168.0</ele><time>2026-04-26T12:37:55.914Z</time></trkpt><trkpt lat="53.8736498" lon="-1.8544836"><ele>168.0</ele><time>2026-04-26T12:37:56.916Z</time></trkpt><trkpt lat="53.8735702" lon="-1.8544534"><ele>168.0</ele><time>2026-04-26T12:37:57.915Z</time></trkpt><trkpt lat="53.873507" lon="-1.854421"><ele>168.0</ele><time>2026-04-26T12:37:58.914Z</time></trkpt><trkpt lat="53.8734312" lon="-1.8543467"><ele>168.0</ele><time>2026-04-26T12:38:00.914Z</time></trkpt><trkpt lat="53.8733946" lon="-1.8542113"><ele>168.0</ele><time>2026-04-26T12:39:13.918Z</time></trkpt><trkpt lat="53.8733984" lon="-1.8541026"><ele>168.0</ele><time>2026-04-26T12:39:15.916Z</time></trkpt><trkpt lat="53.8733686" lon="-1.853978"><ele>166.20000000000002</ele><time>2026-04-26T12:39:17.915Z</time></trkpt><trkpt lat="53.8732335" lon="-1.8539531"><ele>164.4</ele><time>2026-04-26T12:39:19.915Z</time></trkpt><trkpt lat="53.873132" lon="-1.853977"><ele>162.60000000000002</ele><time>2026-04-26T12:39:20.917Z</time></trkpt><trkpt lat="53.8730325" lon="-1.854002"><ele>160.8</ele><time>2026-04-26T12:39:21.922Z</time></trkpt><trkpt lat="53.8729328" lon="-1.8540339"><ele>159.0</ele><time>2026-04-26T12:39:22.921Z</time></trkpt><trkpt lat="53.8728237" lon="-1.8540739"><ele>159.0</ele><time>2026-04-26T12:39:23.925Z</time></trkpt><trkpt lat="53.8727169" lon="-1.854113"><ele>159.0</ele><time>2026-04-26T12:39:24.916Z</time></trkpt><trkpt lat="53.8726176" lon="-1.8541423"><ele>159.0</ele><time>2026-04-26T12:39:25.916Z</time></trkpt><trkpt lat="53.8725252" lon="-1.8541551"><ele>159.0</ele><time>2026-04-26T12:39:26.915Z</time></trkpt><trkpt lat="53.872439" lon="-1.8541367"><ele>159.0</ele><time>2026-04-26T12:39:27.917Z</time></trkpt><trkpt lat="53.8723547" lon="-1.8540968"><ele>158.0</ele><time>2026-04-26T12:39:28.916Z</time></trkpt><trkpt lat="53.87227" lon="-1.8540408"><ele>157.0</ele><time>2026-04-26T12:39:29.92Z</time></trkpt><trkpt lat="53.8721853" lon="-1.8539696"><ele>156.0</ele><time>2026-04-26T12:39:30.919Z</time></trkpt><trkpt lat="53.8721039" lon="-1.8538995"><ele>155.0</ele><time>2026-04-26T12:39:31.922Z</time></trkpt><trkpt lat="53.8720216" lon="-1.8538399"><ele>154.0</ele><time>2026-04-26T12:39:32.921Z</time></trkpt><trkpt lat="53.8719346" lon="-1.8538087"><ele>154.0</ele><time>2026-04-26T12:39:33.92Z</time></trkpt><trkpt lat="53.8718411" lon="-1.8538038"><ele>154.0</ele><time>2026-04-26T12:39:34.918Z</time></trkpt><trkpt lat="53.8717447" lon="-1.8538186"><ele>154.0</ele><time>2026-04-26T12:39:35.919Z</time></trkpt><trkpt lat="53.87165" lon="-1.853848"><ele>154.0</ele><time>2026-04-26T12:39:36.92Z</time></trkpt><trkpt lat="53.8715622" lon="-1.8538918"><ele>154.0</ele><time>2026-04-26T12:39:37.921Z</time></trkpt><trkpt lat="53.8714796" lon="-1.8539434"><ele>152.66666666666669</ele><time>2026-04-26T12:39:38.924Z</time></trkpt><trkpt lat="53.8713988" lon="-1.8539919"><ele>151.33333333333334</ele><time>2026-04-26T12:39:39.917Z</time></trkpt><trkpt lat="53.8713201" lon="-1.8540393"><ele>150.0</ele><time>2026-04-26T12:39:40.917Z</time></trkpt><trkpt lat="53.8712391" lon="-1.8540855"><ele>148.66666666666666</ele><time>2026-04-26T12:39:41.914Z</time></trkpt><trkpt lat="53.8711531" lon="-1.8541349"><ele>147.33333333333331</ele><time>2026-04-26T12:39:42.919Z</time></trkpt><trkpt lat="53.8710623" lon="-1.8541779"><ele>146.0</ele><time>2026-04-26T12:39:43.917Z</time></trkpt><trkpt lat="53.8709696" lon="-1.8542058"><ele>145.0</ele><time>2026-04-26T12:39:44.914Z</time></trkpt><trkpt lat="53.8708742" lon="-1.8542206"><ele>144.0</ele><time>2026-04-26T12:39:45.921Z</time></trkpt><trkpt lat="53.8707774" lon="-1.8542213"><ele>143.0</ele><time>2026-04-26T12:39:46.919Z</time></trkpt><trkpt lat="53.8706814" lon="-1.8542146"><ele>142.0</ele><time>2026-04-26T12:39:47.909Z</time></trkpt><trkpt lat="53.8705856" lon="-1.8542016"><ele>141.0</ele><time>2026-04-26T12:39:48.92Z</time></trkpt><trkpt lat="53.8704952" lon="-1.8541774"><ele>141.0</ele><time>2026-04-26T12:39:49.916Z</time></trkpt><trkpt lat="53.8704133" lon="-1.8541322"><ele>141.0</ele><time>2026-04-26T12:39:50.919Z</time></trkpt><trkpt lat="53.870339" lon="-1.8540639"><ele>141.0</ele><time>2026-04-26T12:39:51.917Z</time></trkpt><trkpt lat="53.8702705" lon="-1.8539775"><ele>141.0</ele><time>2026-04-26T12:39:52.915Z</time></trkpt><trkpt lat="53.8702053" lon="-1.8538846"><ele>141.0</ele><time>2026-04-26T12:39:53.927Z</time></trkpt><trkpt lat="53.8701407" lon="-1.8537925"><ele>141.0</ele><time>2026-04-26T12:39:54.92Z</time></trkpt><trkpt lat="53.8700716" lon="-1.8537064"><ele>140.5</ele><time>2026-04-26T12:39:55.921Z</time></trkpt><trkpt lat="53.8699957" lon="-1.8536458"><ele>140.0</ele><time>2026-04-26T12:39:56.921Z</time></trkpt><trkpt lat="53.8699079" lon="-1.8536163"><ele>139.5</ele><time>2026-04-26T12:39:57.92Z</time></trkpt><trkpt lat="53.8698169" lon="-1.8536116"><ele>139.0</ele><time>2026-04-26T12:39:58.922Z</time></trkpt><trkpt lat="53.869731" lon="-1.853642"><ele>138.5</ele><time>2026-04-26T12:39:59.919Z</time></trkpt><trkpt lat="53.8696465" lon="-1.853681"><ele>138.0</ele><time>2026-04-26T12:40:00.917Z</time></trkpt><trkpt lat="53.869563" lon="-1.8537273"><ele>138.0</ele><time>2026-04-26T12:40:01.915Z</time></trkpt><trkpt lat="53.8694757" lon="-1.8537592"><ele>138.0</ele><time>2026-04-26T12:40:02.914Z</time></trkpt><trkpt lat="53.8693881" lon="-1.853792"><ele>138.0</ele><time>2026-04-26T12:40:03.919Z</time></trkpt><trkpt lat="53.8692925" lon="-1.8538164"><ele>138.0</ele><time>2026-04-26T12:40:04.916Z</time></trkpt><trkpt lat="53.8691899" lon="-1.8538171"><ele>138.0</ele><time>2026-04-26T12:40:05.916Z</time></trkpt><trkpt lat="53.8690803" lon="-1.8537877"><ele>137.25</ele><time>2026-04-26T12:40:06.914Z</time></trkpt><trkpt lat="53.8689708" lon="-1.8537211"><ele>136.5</ele><time>2026-04-26T12:40:07.92Z</time></trkpt><trkpt lat="53.8688612" lon="-1.8536192"><ele>135.75</ele><time>2026-04-26T12:40:08.919Z</time></trkpt><trkpt lat="53.8687558" lon="-1.8535177"><ele>135.0</ele><time>2026-04-26T12:40:09.915Z</time></trkpt><trkpt lat="53.8686483" lon="-1.8533884"><ele>135.0</ele><time>2026-04-26T12:40:10.916Z</time></trkpt><trkpt lat="53.8685339" lon="-1.8532383"><ele>135.0</ele><time>2026-04-26T12:40:11.915Z</time></trkpt><trkpt lat="53.8684241" lon="-1.8530901"><ele>135.0</ele><time>2026-04-26T12:40:12.92Z</time></trkpt><trkpt lat="53.8683202" lon="-1.8529533"><ele>135.0</ele><time>2026-04-26T12:40:13.924Z</time></trkpt><trkpt lat="53.868226" lon="-1.8528194"><ele>132.25</ele><time>2026-04-26T12:40:14.922Z</time></trkpt><trkpt lat="53.868137" lon="-1.8526845"><ele>129.5</ele><time>2026-04-26T12:40:15.921Z</time></trkpt><trkpt lat="53.8680466" lon="-1.8525458"><ele>126.75</ele><time>2026-04-26T12:40:16.925Z</time></trkpt><trkpt lat="53.8679538" lon="-1.8524072"><ele>124.0</ele><time>2026-04-26T12:40:17.918Z</time></trkpt><trkpt lat="53.8678617" lon="-1.8522732"><ele>123.25</ele><time>2026-04-26T12:40:18.915Z</time></trkpt><trkpt lat="53.8677682" lon="-1.8521345"><ele>122.5</ele><time>2026-04-26T12:40:19.912Z</time></trkpt><trkpt lat="53.8676783" lon="-1.8519822"><ele>121.75</ele><time>2026-04-26T12:40:20.913Z</time></trkpt><trkpt lat="53.8675975" lon="-1.8518046"><ele>121.0</ele><time>2026-04-26T12:40:21.917Z</time></trkpt><trkpt lat="53.8675328" lon="-1.8516086"><ele>118.75</ele><time>2026-04-26T12:40:22.912Z</time></trkpt><trkpt lat="53.8674774" lon="-1.8513993"><ele>116.5</ele><time>2026-04-26T12:40:23.915Z</time></trkpt><trkpt lat="53.8674243" lon="-1.8511898"><ele>114.25</ele><time>2026-04-26T12:40:24.914Z</time></trkpt><trkpt lat="53.8673662" lon="-1.8509895"><ele>112.0</ele><time>2026-04-26T12:40:25.915Z</time></trkpt><trkpt lat="53.8673054" lon="-1.8507958"><ele>112.0</ele><time>2026-04-26T12:40:26.914Z</time></trkpt><trkpt lat="53.8672456" lon="-1.850616"><ele>111.99999999999999</ele><time>2026-04-26T12:40:27.916Z</time></trkpt><trkpt lat="53.8671892" lon="-1.8504612"><ele>111.99999999999999</ele><time>2026-04-26T12:40:28.914Z</time></trkpt><trkpt lat="53.8671399" lon="-1.850343"><ele>112.0</ele><time>2026-04-26T12:40:29.914Z</time></trkpt><trkpt lat="53.8670976" lon="-1.8502521"><ele>112.0</ele><time>2026-04-26T12:40:30.915Z</time></trkpt><trkpt lat="53.8670506" lon="-1.8501692"><ele>111.66666666666667</ele><time>2026-04-26T12:40:31.916Z</time></trkpt><trkpt lat="53.8669991" lon="-1.8500852"><ele>111.33333333333334</ele><time>2026-04-26T12:40:32.915Z</time></trkpt><trkpt lat="53.8669406" lon="-1.8500005"><ele>111.0</ele><time>2026-04-26T12:40:33.919Z</time></trkpt><trkpt lat="53.8668753" lon="-1.8499236"><ele>110.66666666666666</ele><time>2026-04-26T12:40:34.918Z</time></trkpt><trkpt lat="53.8668105" lon="-1.8498344"><ele>110.33333333333333</ele><time>2026-04-26T12:40:35.916Z</time></trkpt><trkpt lat="53.8667459" lon="-1.8497342"><ele>110.0</ele><time>2026-04-26T12:40:36.915Z</time></trkpt><trkpt lat="53.8666763" lon="-1.8496354"><ele>109.2</ele><time>2026-04-26T12:40:37.916Z</time></trkpt><trkpt lat="53.8666034" lon="-1.8495418"><ele>108.4</ele><time>2026-04-26T12:40:38.914Z</time></trkpt><trkpt lat="53.8665306" lon="-1.8494504"><ele>107.6</ele><time>2026-04-26T12:40:39.916Z</time></trkpt><trkpt lat="53.8664502" lon="-1.8493608"><ele>106.8</ele><time>2026-04-26T12:40:40.917Z</time></trkpt><trkpt lat="53.8663605" lon="-1.8492789"><ele>106.0</ele><time>2026-04-26T12:40:41.915Z</time></trkpt><trkpt lat="53.8662658" lon="-1.8492088"><ele>105.8</ele><time>2026-04-26T12:40:42.916Z</time></trkpt><trkpt lat="53.8661699" lon="-1.8491541"><ele>105.6</ele><time>2026-04-26T12:40:43.913Z</time></trkpt><trkpt lat="53.8660811" lon="-1.8491102"><ele>105.4</ele><time>2026-04-26T12:40:44.913Z</time></trkpt><trkpt lat="53.8659943" lon="-1.8490753"><ele>105.2</ele><time>2026-04-26T12:40:45.916Z</time></trkpt><trkpt lat="53.8659087" lon="-1.8490382"><ele>105.0</ele><time>2026-04-26T12:40:46.915Z</time></trkpt><trkpt lat="53.8658202" lon="-1.8490093"><ele>104.4</ele><time>2026-04-26T12:40:47.915Z</time></trkpt><trkpt lat="53.8657325" lon="-1.8489873"><ele>103.8</ele><time>2026-04-26T12:40:48.917Z</time></trkpt><trkpt lat="53.865645" lon="-1.8489635"><ele>103.19999999999999</ele><time>2026-04-26T12:40:49.914Z</time></trkpt><trkpt lat="53.8655546" lon="-1.848939"><ele>102.6</ele><time>2026-04-26T12:40:50.915Z</time></trkpt><trkpt lat="53.8654583" lon="-1.8489231"><ele>102.0</ele><time>2026-04-26T12:40:51.915Z</time></trkpt><trkpt lat="53.8653581" lon="-1.8489106"><ele>102.0</ele><time>2026-04-26T12:40:52.915Z</time></trkpt><trkpt lat="53.8652601" lon="-1.8489021"><ele>102.0</ele><time>2026-04-26T12:40:53.916Z</time></trkpt><trkpt lat="53.8651666" lon="-1.8488903"><ele>102.0</ele><time>2026-04-26T12:40:54.916Z</time></trkpt><trkpt lat="53.8650741" lon="-1.848886"><ele>102.0</ele><time>2026-04-26T12:40:55.917Z</time></trkpt><trkpt lat="53.8649835" lon="-1.8489016"><ele>102.0</ele><time>2026-04-26T12:40:56.916Z</time></trkpt><trkpt lat="53.8648931" lon="-1.8489478"><ele>101.19999999999999</ele><time>2026-04-26T12:40:57.918Z</time></trkpt><trkpt lat="53.8648054" lon="-1.8490455"><ele>100.4</ele><time>2026-04-26T12:40:58.919Z</time></trkpt><trkpt lat="53.8647304" lon="-1.8491738"><ele>99.6</ele><time>2026-04-26T12:40:59.917Z</time></trkpt><trkpt lat="53.8646643" lon="-1.8493091"><ele>98.80000000000001</ele><time>2026-04-26T12:41:00.917Z</time></trkpt><trkpt lat="53.8645997" lon="-1.8494423"><ele>98.0</ele><time>2026-04-26T12:41:01.917Z</time></trkpt><trkpt lat="53.8645357" lon="-1.8495711"><ele>98.0</ele><time>2026-04-26T12:41:02.919Z</time></trkpt><trkpt lat="53.8644694" lon="-1.8496943"><ele>98.0</ele><time>2026-04-26T12:41:03.925Z</time></trkpt><trkpt lat="53.8644015" lon="-1.8498147"><ele>98.0</ele><time>2026-04-26T12:41:04.918Z</time></trkpt><trkpt lat="53.8643379" lon="-1.849931"><ele>98.0</ele><time>2026-04-26T12:41:05.918Z</time></trkpt><trkpt lat="53.8642787" lon="-1.8500372"><ele>98.0</ele><time>2026-04-26T12:41:06.92Z</time></trkpt><trkpt lat="53.8642247" lon="-1.8501252"><ele>97.0</ele><time>2026-04-26T12:41:07.918Z</time></trkpt><trkpt lat="53.8641728" lon="-1.8501979"><ele>96.0</ele><time>2026-04-26T12:41:08.919Z</time></trkpt><trkpt lat="53.864078" lon="-1.8503241"><ele>95.0</ele><time>2026-04-26T12:41:10.92Z</time></trkpt><trkpt lat="53.8640212" lon="-1.8503906"><ele>94.0</ele><time>2026-04-26T12:41:12.917Z</time></trkpt><trkpt lat="53.8639419" lon="-1.8503417"><ele>93.0</ele><time>2026-04-26T12:41:16.908Z</time></trkpt><trkpt lat="53.863885" lon="-1.8501532"><ele>93.0</ele><time>2026-04-26T12:41:18.918Z</time></trkpt><trkpt lat="53.8638581" lon="-1.8500081"><ele>93.0</ele><time>2026-04-26T12:41:19.919Z</time></trkpt><trkpt lat="53.8638341" lon="-1.8498479"><ele>93.0</ele><time>2026-04-26T12:41:20.918Z</time></trkpt><trkpt lat="53.863814" lon="-1.8496818"><ele>93.0</ele><time>2026-04-26T12:41:21.918Z</time></trkpt><trkpt lat="53.8638012" lon="-1.8495037"><ele>93.0</ele><time>2026-04-26T12:41:22.917Z</time></trkpt><trkpt lat="53.8637919" lon="-1.8493286"><ele>93.4</ele><time>2026-04-26T12:41:23.927Z</time></trkpt><trkpt lat="53.8637875" lon="-1.8491572"><ele>93.80000000000001</ele><time>2026-04-26T12:41:24.918Z</time></trkpt><trkpt lat="53.8637867" lon="-1.8489735"><ele>94.2</ele><time>2026-04-26T12:41:25.918Z</time></trkpt><trkpt lat="53.8637858" lon="-1.848776"><ele>94.6</ele><time>2026-04-26T12:41:26.918Z</time></trkpt><trkpt lat="53.8637799" lon="-1.8485705"><ele>95.0</ele><time>2026-04-26T12:41:27.916Z</time></trkpt><trkpt lat="53.8637677" lon="-1.8483649"><ele>95.5</ele><time>2026-04-26T12:41:28.918Z</time></trkpt><trkpt lat="53.8637483" lon="-1.848171"><ele>96.0</ele><time>2026-04-26T12:41:29.918Z</time></trkpt><trkpt lat="53.8637138" lon="-1.8479901"><ele>96.5</ele><time>2026-04-26T12:41:30.919Z</time></trkpt><trkpt lat="53.8636506" lon="-1.8478264"><ele>97.0</ele><time>2026-04-26T12:41:31.919Z</time></trkpt><trkpt lat="53.8635644" lon="-1.8476854"><ele>97.25</ele><time>2026-04-26T12:41:32.915Z</time></trkpt><trkpt lat="53.8634579" lon="-1.8475641"><ele>97.5</ele><time>2026-04-26T12:41:33.921Z</time></trkpt><trkpt lat="53.8633357" lon="-1.8474614"><ele>97.75</ele><time>2026-04-26T12:41:34.921Z</time></trkpt><trkpt lat="53.8632097" lon="-1.8473726"><ele>98.0</ele><time>2026-04-26T12:41:35.921Z</time></trkpt><trkpt lat="53.8630861" lon="-1.8472789"><ele>97.5</ele><time>2026-04-26T12:41:36.918Z</time></trkpt><trkpt lat="53.8629656" lon="-1.847181"><ele>97.0</ele><time>2026-04-26T12:41:37.91Z</time></trkpt><trkpt lat="53.8628534" lon="-1.8470814"><ele>96.5</ele><time>2026-04-26T12:41:38.918Z</time></trkpt><trkpt lat="53.86274" lon="-1.8469823"><ele>96.0</ele><time>2026-04-26T12:41:39.919Z</time></trkpt><trkpt lat="53.8626302" lon="-1.8468889"><ele>95.75</ele><time>2026-04-26T12:41:40.919Z</time></trkpt><trkpt lat="53.8625192" lon="-1.8467994"><ele>95.5</ele><time>2026-04-26T12:41:41.917Z</time></trkpt><trkpt lat="53.862406" lon="-1.8467084"><ele>95.25</ele><time>2026-04-26T12:41:42.917Z</time></trkpt><trkpt lat="53.8622948" lon="-1.8466171"><ele>95.0</ele><time>2026-04-26T12:41:43.919Z</time></trkpt><trkpt lat="53.862186" lon="-1.8465239"><ele>94.75</ele><time>2026-04-26T12:41:44.915Z</time></trkpt><trkpt lat="53.8620777" lon="-1.8464337"><ele>94.5</ele><time>2026-04-26T12:41:45.915Z</time></trkpt><trkpt lat="53.8619694" lon="-1.8463437"><ele>94.25</ele><time>2026-04-26T12:41:46.916Z</time></trkpt><trkpt lat="53.8618608" lon="-1.8462519"><ele>94.0</ele><time>2026-04-26T12:41:47.919Z</time></trkpt><trkpt lat="53.8617508" lon="-1.8461608"><ele>93.75</ele><time>2026-04-26T12:41:48.917Z</time></trkpt><trkpt lat="53.8616403" lon="-1.8460679"><ele>93.5</ele><time>2026-04-26T12:41:49.916Z</time></trkpt><trkpt lat="53.8615268" lon="-1.8459719"><ele>93.25</ele><time>2026-04-26T12:41:50.917Z</time></trkpt><trkpt lat="53.8614108" lon="-1.8458744"><ele>93.0</ele><time>2026-04-26T12:41:51.917Z</time></trkpt><trkpt lat="53.861294" lon="-1.84578"><ele>93.0</ele><time>2026-04-26T12:41:52.918Z</time></trkpt><trkpt lat="53.8611792" lon="-1.8456836"><ele>93.0</ele><time>2026-04-26T12:41:53.917Z</time></trkpt><trkpt lat="53.861065" lon="-1.8455848"><ele>93.0</ele><time>2026-04-26T12:41:54.917Z</time></trkpt><trkpt lat="53.8609517" lon="-1.8454878"><ele>93.0</ele><time>2026-04-26T12:41:55.917Z</time></trkpt><trkpt lat="53.860842" lon="-1.8454016"><ele>93.0</ele><time>2026-04-26T12:41:56.919Z</time></trkpt><trkpt lat="53.8607297" lon="-1.8453301"><ele>93.0</ele><time>2026-04-26T12:41:57.916Z</time></trkpt><trkpt lat="53.8606209" lon="-1.8452746"><ele>93.0</ele><time>2026-04-26T12:41:58.916Z</time></trkpt><trkpt lat="53.8605097" lon="-1.8452466"><ele>93.0</ele><time>2026-04-26T12:41:59.917Z</time></trkpt><trkpt lat="53.8603909" lon="-1.845246"><ele>93.0</ele><time>2026-04-26T12:42:00.914Z</time></trkpt><trkpt lat="53.8602692" lon="-1.8452686"><ele>93.0</ele><time>2026-04-26T12:42:01.922Z</time></trkpt><trkpt lat="53.8601481" lon="-1.8453156"><ele>93.0</ele><time>2026-04-26T12:42:02.92Z</time></trkpt><trkpt lat="53.8600269" lon="-1.8453807"><ele>93.0</ele><time>2026-04-26T12:42:03.925Z</time></trkpt><trkpt lat="53.8599037" lon="-1.8454448"><ele>92.25</ele><time>2026-04-26T12:42:04.92Z</time></trkpt><trkpt lat="53.8597771" lon="-1.8454988"><ele>91.5</ele><time>2026-04-26T12:42:05.92Z</time></trkpt><trkpt lat="53.8596502" lon="-1.8455467"><ele>90.75</ele><time>2026-04-26T12:42:06.92Z</time></trkpt><trkpt lat="53.8595248" lon="-1.8455929"><ele>90.0</ele><time>2026-04-26T12:42:07.921Z</time></trkpt><trkpt lat="53.859396" lon="-1.8456318"><ele>89.5</ele><time>2026-04-26T12:42:08.921Z</time></trkpt><trkpt lat="53.8592664" lon="-1.8456625"><ele>89.0</ele><time>2026-04-26T12:42:09.917Z</time></trkpt><trkpt lat="53.859139" lon="-1.8456838"><ele>88.5</ele><time>2026-04-26T12:42:10.918Z</time></trkpt><trkpt lat="53.859014" lon="-1.8457025"><ele>88.0</ele><time>2026-04-26T12:42:11.915Z</time></trkpt><trkpt lat="53.8588921" lon="-1.8457159"><ele>88.0</ele><time>2026-04-26T12:42:12.916Z</time></trkpt><trkpt lat="53.8587708" lon="-1.8457252"><ele>88.0</ele><time>2026-04-26T12:42:13.92Z</time></trkpt><trkpt lat="53.8586532" lon="-1.8457326"><ele>88.0</ele><time>2026-04-26T12:42:14.917Z</time></trkpt><trkpt lat="53.858548" lon="-1.8457391"><ele>88.0</ele><time>2026-04-26T12:42:15.917Z</time></trkpt><trkpt lat="53.8584598" lon="-1.8457446"><ele>88.0</ele><time>2026-04-26T12:42:16.915Z</time></trkpt><trkpt lat="53.858379" lon="-1.8457492"><ele>88.2</ele><time>2026-04-26T12:42:17.915Z</time></trkpt><trkpt lat="53.8582968" lon="-1.8457587"><ele>88.4</ele><time>2026-04-26T12:42:18.917Z</time></trkpt><trkpt lat="53.8582013" lon="-1.8457744"><ele>88.60000000000001</ele><time>2026-04-26T12:42:19.918Z</time></trkpt><trkpt lat="53.8580876" lon="-1.8457972"><ele>88.80000000000001</ele><time>2026-04-26T12:42:20.916Z</time></trkpt><trkpt lat="53.8579691" lon="-1.845821"><ele>89.0</ele><time>2026-04-26T12:42:21.917Z</time></trkpt><trkpt lat="53.8578565" lon="-1.8458389"><ele>89.0</ele><time>2026-04-26T12:42:22.918Z</time></trkpt><trkpt lat="53.8577427" lon="-1.8458528"><ele>89.0</ele><time>2026-04-26T12:42:23.925Z</time></trkpt><trkpt lat="53.8576261" lon="-1.8458461"><ele>89.0</ele><time>2026-04-26T12:42:24.922Z</time></trkpt><trkpt lat="53.857507" lon="-1.8458066"><ele>89.0</ele><time>2026-04-26T12:42:25.92Z</time></trkpt><trkpt lat="53.8573857" lon="-1.8457323"><ele>89.0</ele><time>2026-04-26T12:42:26.917Z</time></trkpt><trkpt lat="53.8572596" lon="-1.8456319"><ele>89.0</ele><time>2026-04-26T12:42:27.918Z</time></trkpt><trkpt lat="53.8571317" lon="-1.8455215"><ele>89.0</ele><time>2026-04-26T12:42:28.918Z</time></trkpt><trkpt lat="53.8570028" lon="-1.8454187"><ele>89.0</ele><time>2026-04-26T12:42:29.916Z</time></trkpt><trkpt lat="53.8568746" lon="-1.8453356"><ele>90.75</ele><time>2026-04-26T12:42:30.914Z</time></trkpt><trkpt lat="53.8567453" lon="-1.845272"><ele>92.5</ele><time>2026-04-26T12:42:31.916Z</time></trkpt><trkpt lat="53.8566188" lon="-1.845227"><ele>94.25</ele><time>2026-04-26T12:42:32.919Z</time></trkpt><trkpt lat="53.856498" lon="-1.8452047"><ele>96.0</ele><time>2026-04-26T12:42:33.921Z</time></trkpt><trkpt lat="53.8563768" lon="-1.8451973"><ele>96.0</ele><time>2026-04-26T12:42:34.917Z</time></trkpt><trkpt lat="53.856254" lon="-1.8451678"><ele>96.0</ele><time>2026-04-26T12:42:35.916Z</time></trkpt><trkpt lat="53.8561294" lon="-1.8451057"><ele>96.0</ele><time>2026-04-26T12:42:36.918Z</time></trkpt><trkpt lat="53.8560089" lon="-1.8450124"><ele>96.0</ele><time>2026-04-26T12:42:37.917Z</time></trkpt><trkpt lat="53.855892" lon="-1.844897"><ele>95.25</ele><time>2026-04-26T12:42:38.915Z</time></trkpt><trkpt lat="53.8557844" lon="-1.8447653"><ele>94.5</ele><time>2026-04-26T12:42:39.92Z</time></trkpt><trkpt lat="53.8556852" lon="-1.8446245"><ele>93.75</ele><time>2026-04-26T12:42:40.92Z</time></trkpt><trkpt lat="53.85559" lon="-1.844486"><ele>93.0</ele><time>2026-04-26T12:42:41.917Z</time></trkpt><trkpt lat="53.855493" lon="-1.8443513"><ele>92.5</ele><time>2026-04-26T12:42:42.909Z</time></trkpt><trkpt lat="53.855392" lon="-1.8442221"><ele>92.0</ele><time>2026-04-26T12:42:43.921Z</time></trkpt><trkpt lat="53.8552869" lon="-1.8440863"><ele>91.5</ele><time>2026-04-26T12:42:44.917Z</time></trkpt><trkpt lat="53.8551788" lon="-1.8439419"><ele>91.0</ele><time>2026-04-26T12:42:45.916Z</time></trkpt><trkpt lat="53.8550695" lon="-1.8437961"><ele>91.0</ele><time>2026-04-26T12:42:46.914Z</time></trkpt><trkpt lat="53.854959" lon="-1.8436515"><ele>91.0</ele><time>2026-04-26T12:42:47.912Z</time></trkpt><trkpt lat="53.8548465" lon="-1.8435103"><ele>91.0</ele><time>2026-04-26T12:42:48.911Z</time></trkpt><trkpt lat="53.8547338" lon="-1.8433789"><ele>91.0</ele><time>2026-04-26T12:42:49.915Z</time></trkpt><trkpt lat="53.8546229" lon="-1.8432546"><ele>89.75</ele><time>2026-04-26T12:42:50.914Z</time></trkpt><trkpt lat="53.8545106" lon="-1.8431409"><ele>88.5</ele><time>2026-04-26T12:42:51.913Z</time></trkpt><trkpt lat="53.8543979" lon="-1.8430395"><ele>87.25</ele><time>2026-04-26T12:42:52.912Z</time></trkpt><trkpt lat="53.8542855" lon="-1.8429427"><ele>86.0</ele><time>2026-04-26T12:42:53.907Z</time></trkpt><trkpt lat="53.8541715" lon="-1.8428484"><ele>86.25</ele><time>2026-04-26T12:42:54.914Z</time></trkpt><trkpt lat="53.8540622" lon="-1.8427273"><ele>86.5</ele><time>2026-04-26T12:42:55.915Z</time></trkpt><trkpt lat="53.8539655" lon="-1.8425618"><ele>86.75</ele><time>2026-04-26T12:42:56.915Z</time></trkpt><trkpt lat="53.8538841" lon="-1.8423672"><ele>87.0</ele><time>2026-04-26T12:42:57.913Z</time></trkpt><trkpt lat="53.8538073" lon="-1.8421788"><ele>87.0</ele><time>2026-04-26T12:42:58.914Z</time></trkpt><trkpt lat="53.8537284" lon="-1.8420058"><ele>87.0</ele><time>2026-04-26T12:42:59.914Z</time></trkpt><trkpt lat="53.8536419" lon="-1.8418474"><ele>87.0</ele><time>2026-04-26T12:43:00.914Z</time></trkpt><trkpt lat="53.8535409" lon="-1.8417165"><ele>87.0</ele><time>2026-04-26T12:43:01.915Z</time></trkpt><trkpt lat="53.8534257" lon="-1.841619"><ele>86.75</ele><time>2026-04-26T12:43:02.915Z</time></trkpt><trkpt lat="53.8533029" lon="-1.8415532"><ele>86.5</ele><time>2026-04-26T12:43:03.915Z</time></trkpt><trkpt lat="53.853181" lon="-1.8415066"><ele>86.25</ele><time>2026-04-26T12:43:04.915Z</time></trkpt><trkpt lat="53.8530581" lon="-1.8414717"><ele>86.0</ele><time>2026-04-26T12:43:05.915Z</time></trkpt><trkpt lat="53.8529299" lon="-1.8414378"><ele>86.0</ele><time>2026-04-26T12:43:06.918Z</time></trkpt><trkpt lat="53.852802" lon="-1.8413927"><ele>86.0</ele><time>2026-04-26T12:43:07.916Z</time></trkpt><trkpt lat="53.8526785" lon="-1.8413366"><ele>86.0</ele><time>2026-04-26T12:43:08.915Z</time></trkpt><trkpt lat="53.8525567" lon="-1.8412737"><ele>86.0</ele><time>2026-04-26T12:43:09.916Z</time></trkpt><trkpt lat="53.8524371" lon="-1.8412082"><ele>86.5</ele><time>2026-04-26T12:43:10.916Z</time></trkpt><trkpt lat="53.8523206" lon="-1.8411398"><ele>87.0</ele><time>2026-04-26T12:43:11.911Z</time></trkpt><trkpt lat="53.8522071" lon="-1.8410717"><ele>87.5</ele><time>2026-04-26T12:43:12.91Z</time></trkpt><trkpt lat="53.8520965" lon="-1.8410067"><ele>88.0</ele><time>2026-04-26T12:43:13.914Z</time></trkpt><trkpt lat="53.8519882" lon="-1.8409466"><ele>87.0</ele><time>2026-04-26T12:43:14.913Z</time></trkpt><trkpt lat="53.8518817" lon="-1.840889"><ele>86.0</ele><time>2026-04-26T12:43:15.913Z</time></trkpt><trkpt lat="53.8517754" lon="-1.8408355"><ele>85.0</ele><time>2026-04-26T12:43:16.913Z</time></trkpt><trkpt lat="53.8516741" lon="-1.8407873"><ele>84.0</ele><time>2026-04-26T12:43:17.913Z</time></trkpt><trkpt lat="53.851573" lon="-1.8407366"><ele>83.0</ele><time>2026-04-26T12:43:18.914Z</time></trkpt><trkpt lat="53.8514731" lon="-1.8406881"><ele>83.0</ele><time>2026-04-26T12:43:19.915Z</time></trkpt><trkpt lat="53.8513816" lon="-1.8406451"><ele>83.0</ele><time>2026-04-26T12:43:20.917Z</time></trkpt><trkpt lat="53.8512942" lon="-1.8406031"><ele>83.0</ele><time>2026-04-26T12:43:21.918Z</time></trkpt><trkpt lat="53.8512138" lon="-1.8405604"><ele>83.0</ele><time>2026-04-26T12:43:22.92Z</time></trkpt><trkpt lat="53.8511475" lon="-1.8405182"><ele>83.0</ele><time>2026-04-26T12:43:23.925Z</time></trkpt><trkpt lat="53.8510633" lon="-1.8404673"><ele>83.0</ele><time>2026-04-26T12:43:25.916Z</time></trkpt><trkpt lat="53.850982" lon="-1.8404309"><ele>82.60000000000001</ele><time>2026-04-26T12:43:52.915Z</time></trkpt><trkpt lat="53.8508794" lon="-1.8404166"><ele>82.2</ele><time>2026-04-26T12:43:53.924Z</time></trkpt><trkpt lat="53.8507811" lon="-1.8404361"><ele>81.8</ele><time>2026-04-26T12:43:54.921Z</time></trkpt><trkpt lat="53.8506938" lon="-1.8405156"><ele>81.4</ele><time>2026-04-26T12:43:55.919Z</time></trkpt><trkpt lat="53.8506239" lon="-1.8406389"><ele>81.0</ele><time>2026-04-26T12:43:56.927Z</time></trkpt><trkpt lat="53.8505695" lon="-1.8407742"><ele>81.0</ele><time>2026-04-26T12:43:57.92Z</time></trkpt><trkpt lat="53.8505245" lon="-1.840912"><ele>81.0</ele><time>2026-04-26T12:43:58.92Z</time></trkpt><trkpt lat="53.8504792" lon="-1.8410504"><ele>81.0</ele><time>2026-04-26T12:43:59.922Z</time></trkpt><trkpt lat="53.8504336" lon="-1.841188"><ele>81.0</ele><time>2026-04-26T12:44:00.92Z</time></trkpt><trkpt lat="53.8503949" lon="-1.8413173"><ele>81.0</ele><time>2026-04-26T12:44:01.924Z</time></trkpt><trkpt lat="53.8503552" lon="-1.8414372"><ele>81.0</ele><time>2026-04-26T12:44:02.922Z</time></trkpt><trkpt lat="53.8503124" lon="-1.8415552"><ele>81.0</ele><time>2026-04-26T12:44:03.925Z</time></trkpt><trkpt lat="53.8502674" lon="-1.8416812"><ele>81.0</ele><time>2026-04-26T12:44:04.924Z</time></trkpt><trkpt lat="53.8502193" lon="-1.8418089"><ele>81.0</ele><time>2026-04-26T12:44:05.923Z</time></trkpt><trkpt lat="53.8501662" lon="-1.8419322"><ele>81.0</ele><time>2026-04-26T12:44:06.918Z</time></trkpt><trkpt lat="53.8501087" lon="-1.8420408"><ele>81.0</ele><time>2026-04-26T12:44:07.92Z</time></trkpt><trkpt lat="53.8500414" lon="-1.842128"><ele>81.0</ele><time>2026-04-26T12:44:08.92Z</time></trkpt><trkpt lat="53.8499567" lon="-1.842185"><ele>82.6</ele><time>2026-04-26T12:44:09.918Z</time></trkpt><trkpt lat="53.849856" lon="-1.8421956"><ele>84.19999999999999</ele><time>2026-04-26T12:44:10.919Z</time></trkpt><trkpt lat="53.8497606" lon="-1.842184"><ele>85.80000000000001</ele><time>2026-04-26T12:44:11.914Z</time></trkpt><trkpt lat="53.8496729" lon="-1.8421664"><ele>87.4</ele><time>2026-04-26T12:44:12.912Z</time></trkpt><trkpt lat="53.8495862" lon="-1.8421419"><ele>89.0</ele><time>2026-04-26T12:44:13.917Z</time></trkpt><trkpt lat="53.8494933" lon="-1.8421103"><ele>89.0</ele><time>2026-04-26T12:44:14.912Z</time></trkpt><trkpt lat="53.8494051" lon="-1.8420912"><ele>89.0</ele><time>2026-04-26T12:44:15.913Z</time></trkpt><trkpt lat="53.8493359" lon="-1.8420832"><ele>89.0</ele><time>2026-04-26T12:44:16.913Z</time></trkpt><trkpt lat="53.8492497" lon="-1.8421237"><ele>89.0</ele><time>2026-04-26T12:44:18.912Z</time></trkpt><trkpt lat="53.8492925" lon="-1.8422984"><ele>89.0</ele><time>2026-04-26T12:44:20.913Z</time></trkpt><trkpt lat="53.8493589" lon="-1.8423675"><ele>89.0</ele><time>2026-04-26T12:44:21.912Z</time></trkpt><trkpt lat="53.8494472" lon="-1.8424229"><ele>89.0</ele><time>2026-04-26T12:44:22.912Z</time></trkpt><trkpt lat="53.8495529" lon="-1.8424926"><ele>89.0</ele><time>2026-04-26T12:44:23.916Z</time></trkpt><trkpt lat="53.8496763" lon="-1.8425943"><ele>89.0</ele><time>2026-04-26T12:44:24.914Z</time></trkpt><trkpt lat="53.8498113" lon="-1.8427188"><ele>89.0</ele><time>2026-04-26T12:44:25.911Z</time></trkpt><trkpt lat="53.8499521" lon="-1.842861"><ele>90.33333333333334</ele><time>2026-04-26T12:44:26.918Z</time></trkpt><trkpt lat="53.8500937" lon="-1.8430286"><ele>91.66666666666667</ele><time>2026-04-26T12:44:27.916Z</time></trkpt><trkpt lat="53.8502249" lon="-1.8432041"><ele>93.0</ele><time>2026-04-26T12:44:28.912Z</time></trkpt><trkpt lat="53.8503459" lon="-1.843389"><ele>95.80000000000001</ele><time>2026-04-26T12:44:29.91Z</time></trkpt><trkpt lat="53.8504291" lon="-1.8435497"><ele>98.6</ele><time>2026-04-26T12:44:30.911Z</time></trkpt><trkpt lat="53.8504778" lon="-1.843694"><ele>101.39999999999999</ele><time>2026-04-26T12:44:31.912Z</time></trkpt><trkpt lat="53.8504906" lon="-1.8438306"><ele>104.19999999999999</ele><time>2026-04-26T12:44:32.917Z</time></trkpt><trkpt lat="53.8504719" lon="-1.8439828"><ele>107.0</ele><time>2026-04-26T12:44:33.917Z</time></trkpt><trkpt lat="53.8504379" lon="-1.8441581"><ele>109.5</ele><time>2026-04-26T12:44:34.918Z</time></trkpt><trkpt lat="53.8504136" lon="-1.8443528"><ele>112.0</ele><time>2026-04-26T12:44:35.918Z</time></trkpt><trkpt lat="53.8504168" lon="-1.8445584"><ele>114.5</ele><time>2026-04-26T12:44:36.911Z</time></trkpt><trkpt lat="53.8504461" lon="-1.844785"><ele>117.0</ele><time>2026-04-26T12:44:37.918Z</time></trkpt><trkpt lat="53.8504942" lon="-1.8450137"><ele>119.0</ele><time>2026-04-26T12:44:38.919Z</time></trkpt><trkpt lat="53.8505572" lon="-1.8452566"><ele>121.0</ele><time>2026-04-26T12:44:39.922Z</time></trkpt><trkpt lat="53.8506262" lon="-1.8455096"><ele>123.0</ele><time>2026-04-26T12:44:40.923Z</time></trkpt><trkpt lat="53.8506887" lon="-1.8457743"><ele>125.0</ele><time>2026-04-26T12:44:41.918Z</time></trkpt><trkpt lat="53.8507425" lon="-1.846042"><ele>127.0</ele><time>2026-04-26T12:44:42.918Z</time></trkpt><trkpt lat="53.8507884" lon="-1.8463151"><ele>129.0</ele><time>2026-04-26T12:44:43.92Z</time></trkpt><trkpt lat="53.8508291" lon="-1.8465986"><ele>132.33333333333334</ele><time>2026-04-26T12:44:44.921Z</time></trkpt><trkpt lat="53.8508544" lon="-1.8468717"><ele>135.66666666666669</ele><time>2026-04-26T12:44:45.919Z</time></trkpt><trkpt lat="53.850868" lon="-1.8471366"><ele>139.0</ele><time>2026-04-26T12:44:46.921Z</time></trkpt><trkpt lat="53.8508716" lon="-1.8474019"><ele>141.66666666666669</ele><time>2026-04-26T12:44:47.924Z</time></trkpt><trkpt lat="53.8508568" lon="-1.8476757"><ele>144.33333333333334</ele><time>2026-04-26T12:44:48.92Z</time></trkpt><trkpt lat="53.8508456" lon="-1.8479567"><ele>147.0</ele><time>2026-04-26T12:44:49.921Z</time></trkpt><trkpt lat="53.8508325" lon="-1.8482445"><ele>148.66666666666666</ele><time>2026-04-26T12:44:50.92Z</time></trkpt><trkpt lat="53.8508131" lon="-1.8485321"><ele>150.33333333333331</ele><time>2026-04-26T12:44:51.916Z</time></trkpt><trkpt lat="53.8507981" lon="-1.8488169"><ele>152.0</ele><time>2026-04-26T12:44:52.915Z</time></trkpt><trkpt lat="53.8507918" lon="-1.8490944"><ele>154.0</ele><time>2026-04-26T12:44:53.919Z</time></trkpt><trkpt lat="53.8507952" lon="-1.8493692"><ele>156.0</ele><time>2026-04-26T12:44:54.917Z</time></trkpt><trkpt lat="53.8508055" lon="-1.8496433"><ele>158.0</ele><time>2026-04-26T12:44:55.919Z</time></trkpt><trkpt lat="53.850816" lon="-1.849914"><ele>159.66666666666666</ele><time>2026-04-26T12:44:56.92Z</time></trkpt><trkpt lat="53.8508333" lon="-1.8501985"><ele>161.33333333333334</ele><time>2026-04-26T12:44:57.919Z</time></trkpt><trkpt lat="53.8508589" lon="-1.8504872"><ele>163.0</ele><time>2026-04-26T12:44:58.918Z</time></trkpt><trkpt lat="53.8508962" lon="-1.8507818"><ele>164.66666666666669</ele><time>2026-04-26T12:44:59.916Z</time></trkpt><trkpt lat="53.8509439" lon="-1.8510786"><ele>166.33333333333334</ele><time>2026-04-26T12:45:00.917Z</time></trkpt><trkpt lat="53.8509979" lon="-1.8513714"><ele>168.0</ele><time>2026-04-26T12:45:01.919Z</time></trkpt><trkpt lat="53.8510612" lon="-1.851658"><ele>172.0</ele><time>2026-04-26T12:45:02.919Z</time></trkpt><trkpt lat="53.8511312" lon="-1.8519388"><ele>176.0</ele><time>2026-04-26T12:45:03.919Z</time></trkpt><trkpt lat="53.8512146" lon="-1.8522139"><ele>180.0</ele><time>2026-04-26T12:45:04.919Z</time></trkpt><trkpt lat="53.8513055" lon="-1.8524934"><ele>184.0</ele><time>2026-04-26T12:45:05.918Z</time></trkpt><trkpt lat="53.8513989" lon="-1.8527833"><ele>188.0</ele><time>2026-04-26T12:45:06.917Z</time></trkpt><trkpt lat="53.8514861" lon="-1.8530624"><ele>192.0</ele><time>2026-04-26T12:45:07.915Z</time></trkpt><trkpt lat="53.8515788" lon="-1.8533225"><ele>193.0</ele><time>2026-04-26T12:45:08.916Z</time></trkpt><trkpt lat="53.8516766" lon="-1.8535722"><ele>194.0</ele><time>2026-04-26T12:45:09.915Z</time></trkpt><trkpt lat="53.8517822" lon="-1.853808"><ele>195.0</ele><time>2026-04-26T12:45:10.916Z</time></trkpt><trkpt lat="53.8518876" lon="-1.8540535"><ele>199.66666666666669</ele><time>2026-04-26T12:45:11.912Z</time></trkpt><trkpt lat="53.8519872" lon="-1.8543098"><ele>204.33333333333334</ele><time>2026-04-26T12:45:12.914Z</time></trkpt><trkpt lat="53.8520862" lon="-1.854572"><ele>209.0</ele><time>2026-04-26T12:45:13.914Z</time></trkpt><trkpt lat="53.8521848" lon="-1.8548349"><ele>209.0</ele><time>2026-04-26T12:45:14.914Z</time></trkpt><trkpt lat="53.8522859" lon="-1.8551049"><ele>209.0</ele><time>2026-04-26T12:45:15.913Z</time></trkpt><trkpt lat="53.8523894" lon="-1.8553845"><ele>209.0</ele><time>2026-04-26T12:45:16.911Z</time></trkpt><trkpt lat="53.8524864" lon="-1.8556606"><ele>212.66666666666669</ele><time>2026-04-26T12:45:17.912Z</time></trkpt><trkpt lat="53.8525775" lon="-1.8559128"><ele>216.33333333333331</ele><time>2026-04-26T12:45:18.909Z</time></trkpt><trkpt lat="53.8526709" lon="-1.8561359"><ele>220.0</ele><time>2026-04-26T12:45:19.911Z</time></trkpt><trkpt lat="53.8527779" lon="-1.8563247"><ele>220.0</ele><time>2026-04-26T12:45:20.909Z</time></trkpt><trkpt lat="53.8529018" lon="-1.8564859"><ele>220.0</ele><time>2026-04-26T12:45:21.91Z</time></trkpt><trkpt lat="53.8530304" lon="-1.8566469"><ele>220.0</ele><time>2026-04-26T12:45:22.912Z</time></trkpt><trkpt lat="53.8531678" lon="-1.8568121"><ele>218.0</ele><time>2026-04-26T12:45:23.918Z</time></trkpt><trkpt lat="53.8533134" lon="-1.8569864"><ele>216.0</ele><time>2026-04-26T12:45:24.912Z</time></trkpt><trkpt lat="53.8534608" lon="-1.8571703"><ele>214.0</ele><time>2026-04-26T12:45:25.911Z</time></trkpt><trkpt lat="53.8535996" lon="-1.8573584"><ele>214.0</ele><time>2026-04-26T12:45:26.913Z</time></trkpt><trkpt lat="53.8537274" lon="-1.8575446"><ele>214.0</ele><time>2026-04-26T12:45:27.914Z</time></trkpt><trkpt lat="53.8538325" lon="-1.8577447"><ele>214.0</ele><time>2026-04-26T12:45:28.912Z</time></trkpt><trkpt lat="53.8539173" lon="-1.8579647"><ele>218.0</ele><time>2026-04-26T12:45:29.916Z</time></trkpt><trkpt lat="53.8539972" lon="-1.8582014"><ele>222.0</ele><time>2026-04-26T12:45:30.918Z</time></trkpt><trkpt lat="53.8540665" lon="-1.8584499"><ele>226.0</ele><time>2026-04-26T12:45:31.921Z</time></trkpt><trkpt lat="53.8541284" lon="-1.8586847"><ele>227.5</ele><time>2026-04-26T12:45:32.919Z</time></trkpt><trkpt lat="53.8541834" lon="-1.8588971"><ele>229.0</ele><time>2026-04-26T12:45:33.919Z</time></trkpt><trkpt lat="53.8542267" lon="-1.8591002"><ele>230.5</ele><time>2026-04-26T12:45:34.919Z</time></trkpt><trkpt lat="53.854253" lon="-1.8593194"><ele>232.0</ele><time>2026-04-26T12:45:35.921Z</time></trkpt><trkpt lat="53.8542761" lon="-1.8595624"><ele>231.5</ele><time>2026-04-26T12:45:36.916Z</time></trkpt><trkpt lat="53.8543014" lon="-1.8598204"><ele>231.0</ele><time>2026-04-26T12:45:37.918Z</time></trkpt><trkpt lat="53.8543301" lon="-1.8600714"><ele>230.5</ele><time>2026-04-26T12:45:38.919Z</time></trkpt><trkpt lat="53.8543544" lon="-1.8602903"><ele>230.0</ele><time>2026-04-26T12:45:39.917Z</time></trkpt><trkpt lat="53.8543753" lon="-1.8604734"><ele>230.0</ele><time>2026-04-26T12:45:40.916Z</time></trkpt><trkpt lat="53.8543936" lon="-1.8606148"><ele>230.0</ele><time>2026-04-26T12:45:41.911Z</time></trkpt><trkpt lat="53.8544168" lon="-1.8607707"><ele>230.0</ele><time>2026-04-26T12:45:43.915Z</time></trkpt><trkpt lat="53.8544585" lon="-1.8608533"><ele>230.0</ele><time>2026-04-26T12:45:46.92Z</time></trkpt><trkpt lat="53.8544767" lon="-1.8610953"><ele>230.0</ele><time>2026-04-26T12:45:48.917Z</time></trkpt><trkpt lat="53.8545" lon="-1.8613022"><ele>230.66666666666669</ele><time>2026-04-26T12:45:49.915Z</time></trkpt><trkpt lat="53.8545409" lon="-1.8615514"><ele>231.33333333333331</ele><time>2026-04-26T12:45:50.918Z</time></trkpt><trkpt lat="53.8545807" lon="-1.8618299"><ele>232.0</ele><time>2026-04-26T12:45:51.918Z</time></trkpt><trkpt lat="53.8546157" lon="-1.8621208"><ele>233.0</ele><time>2026-04-26T12:45:52.922Z</time></trkpt><trkpt lat="53.8546385" lon="-1.8624182"><ele>234.0</ele><time>2026-04-26T12:45:53.927Z</time></trkpt><trkpt lat="53.8546475" lon="-1.8627049"><ele>235.0</ele><time>2026-04-26T12:45:54.918Z</time></trkpt><trkpt lat="53.8546465" lon="-1.8629839"><ele>236.33333333333331</ele><time>2026-04-26T12:45:55.917Z</time></trkpt><trkpt lat="53.8546418" lon="-1.8632593"><ele>237.66666666666669</ele><time>2026-04-26T12:45:56.919Z</time></trkpt><trkpt lat="53.8546392" lon="-1.8635357"><ele>239.0</ele><time>2026-04-26T12:45:57.92Z</time></trkpt><trkpt lat="53.8546341" lon="-1.8637989"><ele>239.39999999999998</ele><time>2026-04-26T12:45:58.921Z</time></trkpt><trkpt lat="53.8546313" lon="-1.8640314"><ele>239.79999999999998</ele><time>2026-04-26T12:45:59.918Z</time></trkpt><trkpt lat="53.8546268" lon="-1.8642155"><ele>240.20000000000002</ele><time>2026-04-26T12:46:00.919Z</time></trkpt><trkpt lat="53.8546215" lon="-1.8643489"><ele>240.60000000000002</ele><time>2026-04-26T12:46:01.922Z</time></trkpt><trkpt lat="53.8546214" lon="-1.8645286"><ele>241.0</ele><time>2026-04-26T12:46:03.927Z</time></trkpt><trkpt lat="53.8546035" lon="-1.8647057"><ele>241.5</ele><time>2026-04-26T12:46:05.919Z</time></trkpt><trkpt lat="53.8545978" lon="-1.8648548"><ele>242.0</ele><time>2026-04-26T12:46:06.919Z</time></trkpt><trkpt lat="53.8545919" lon="-1.8650497"><ele>242.5</ele><time>2026-04-26T12:46:07.92Z</time></trkpt><trkpt lat="53.8545898" lon="-1.8653205"><ele>243.0</ele><time>2026-04-26T12:46:08.917Z</time></trkpt><trkpt lat="53.8545816" lon="-1.8656371"><ele>245.33333333333331</ele><time>2026-04-26T12:46:09.921Z</time></trkpt><trkpt lat="53.8545749" lon="-1.8659857"><ele>247.66666666666666</ele><time>2026-04-26T12:46:10.919Z</time></trkpt><trkpt lat="53.8545782" lon="-1.8663482"><ele>250.0</ele><time>2026-04-26T12:46:11.913Z</time></trkpt><trkpt lat="53.8545873" lon="-1.8667211"><ele>251.33333333333331</ele><time>2026-04-26T12:46:12.914Z</time></trkpt><trkpt lat="53.8546021" lon="-1.8670932"><ele>252.66666666666669</ele><time>2026-04-26T12:46:13.917Z</time></trkpt><trkpt lat="53.854615" lon="-1.8674628"><ele>254.0</ele><time>2026-04-26T12:46:14.914Z</time></trkpt><trkpt lat="53.8546243" lon="-1.8678166"><ele>255.66666666666669</ele><time>2026-04-26T12:46:15.912Z</time></trkpt><trkpt lat="53.8546288" lon="-1.8681564"><ele>257.3333333333333</ele><time>2026-04-26T12:46:16.914Z</time></trkpt><trkpt lat="53.8546275" lon="-1.8684866"><ele>259.0</ele><time>2026-04-26T12:46:17.915Z</time></trkpt><trkpt lat="53.8546262" lon="-1.8688171"><ele>259.0</ele><time>2026-04-26T12:46:18.916Z</time></trkpt><trkpt lat="53.8546311" lon="-1.8691556"><ele>259.0</ele><time>2026-04-26T12:46:19.914Z</time></trkpt><trkpt lat="53.8546421" lon="-1.8694922"><ele>259.0</ele><time>2026-04-26T12:46:20.916Z</time></trkpt><trkpt lat="53.8546563" lon="-1.8698125"><ele>259.66666666666663</ele><time>2026-04-26T12:46:21.915Z</time></trkpt><trkpt lat="53.8546718" lon="-1.8701201"><ele>260.3333333333333</ele><time>2026-04-26T12:46:22.906Z</time></trkpt><trkpt lat="53.8546806" lon="-1.8704223"><ele>261.0</ele><time>2026-04-26T12:46:23.913Z</time></trkpt><trkpt lat="53.8546844" lon="-1.8707292"><ele>262.0</ele><time>2026-04-26T12:46:24.915Z</time></trkpt><trkpt lat="53.8546835" lon="-1.8710435"><ele>263.0</ele><time>2026-04-26T12:46:25.914Z</time></trkpt><trkpt lat="53.8546847" lon="-1.8713558"><ele>264.0</ele><time>2026-04-26T12:46:26.915Z</time></trkpt><trkpt lat="53.8546887" lon="-1.8716477"><ele>265.0</ele><time>2026-04-26T12:46:27.912Z</time></trkpt><trkpt lat="53.8546847" lon="-1.8719152"><ele>266.0</ele><time>2026-04-26T12:46:28.916Z</time></trkpt><trkpt lat="53.8546771" lon="-1.8721685"><ele>267.0</ele><time>2026-04-26T12:46:29.915Z</time></trkpt><trkpt lat="53.8546715" lon="-1.8724322"><ele>268.0</ele><time>2026-04-26T12:46:30.915Z</time></trkpt><trkpt lat="53.8546673" lon="-1.8727027"><ele>269.0</ele><time>2026-04-26T12:46:31.917Z</time></trkpt><trkpt lat="53.8546615" lon="-1.8729837"><ele>270.0</ele><time>2026-04-26T12:46:32.918Z</time></trkpt><trkpt lat="53.8546498" lon="-1.8732801"><ele>270.3333333333333</ele><time>2026-04-26T12:46:33.92Z</time></trkpt><trkpt lat="53.8546275" lon="-1.873589"><ele>270.66666666666663</ele><time>2026-04-26T12:46:34.917Z</time></trkpt><trkpt lat="53.8545972" lon="-1.8739072"><ele>271.0</ele><time>2026-04-26T12:46:35.916Z</time></trkpt><trkpt lat="53.8545641" lon="-1.8742511"><ele>270.0</ele><time>2026-04-26T12:46:36.917Z</time></trkpt><trkpt lat="53.8545315" lon="-1.8746294"><ele>269.0</ele><time>2026-04-26T12:46:37.918Z</time></trkpt><trkpt lat="53.854501" lon="-1.8750333"><ele>268.5</ele><time>2026-04-26T12:46:38.915Z</time></trkpt><trkpt lat="53.8544756" lon="-1.8754491"><ele>268.0</ele><time>2026-04-26T12:46:39.915Z</time></trkpt><trkpt lat="53.8544486" lon="-1.8758428"><ele>268.66666666666663</ele><time>2026-04-26T12:46:40.919Z</time></trkpt><trkpt lat="53.8544252" lon="-1.8761947"><ele>269.3333333333333</ele><time>2026-04-26T12:46:41.916Z</time></trkpt><trkpt lat="53.854408" lon="-1.8764912"><ele>270.0</ele><time>2026-04-26T12:46:42.916Z</time></trkpt><trkpt lat="53.8543959" lon="-1.8767659"><ele>270.6666666666667</ele><time>2026-04-26T12:46:43.915Z</time></trkpt><trkpt lat="53.8543839" lon="-1.8770517"><ele>271.33333333333337</ele><time>2026-04-26T12:46:44.914Z</time></trkpt><trkpt lat="53.8543692" lon="-1.8773396"><ele>272.0</ele><time>2026-04-26T12:46:45.915Z</time></trkpt><trkpt lat="53.8543499" lon="-1.8776363"><ele>272.0</ele><time>2026-04-26T12:46:46.92Z</time></trkpt><trkpt lat="53.8543271" lon="-1.8779232"><ele>272.0</ele><time>2026-04-26T12:46:47.918Z</time></trkpt><trkpt lat="53.8543001" lon="-1.8781839"><ele>272.0</ele><time>2026-04-26T12:46:48.914Z</time></trkpt><trkpt lat="53.854275" lon="-1.8784152"><ele>271.6</ele><time>2026-04-26T12:46:49.914Z</time></trkpt><trkpt lat="53.8542552" lon="-1.8786202"><ele>271.2</ele><time>2026-04-26T12:46:50.916Z</time></trkpt><trkpt lat="53.8542359" lon="-1.8787961"><ele>270.8</ele><time>2026-04-26T12:46:51.916Z</time></trkpt><trkpt lat="53.8542212" lon="-1.8789364"><ele>270.4</ele><time>2026-04-26T12:46:52.915Z</time></trkpt><trkpt lat="53.8542002" lon="-1.8791058"><ele>270.0</ele><time>2026-04-26T12:46:54.914Z</time></trkpt><trkpt lat="53.8541827" lon="-1.8792287"><ele>270.2</ele><time>2026-04-26T12:46:56.914Z</time></trkpt><trkpt lat="53.8541518" lon="-1.8793396"><ele>270.4</ele><time>2026-04-26T12:46:57.916Z</time></trkpt><trkpt lat="53.8540909" lon="-1.8794749"><ele>270.6</ele><time>2026-04-26T12:46:58.919Z</time></trkpt><trkpt lat="53.8540089" lon="-1.8796211"><ele>270.8</ele><time>2026-04-26T12:46:59.917Z</time></trkpt><trkpt lat="53.8539083" lon="-1.8797672"><ele>271.0</ele><time>2026-04-26T12:47:00.917Z</time></trkpt><trkpt lat="53.8537983" lon="-1.8799171"><ele>271.0</ele><time>2026-04-26T12:47:01.908Z</time></trkpt><trkpt lat="53.8536808" lon="-1.8800857"><ele>271.0</ele><time>2026-04-26T12:47:02.918Z</time></trkpt><trkpt lat="53.8535573" lon="-1.8802796"><ele>271.0</ele><time>2026-04-26T12:47:03.923Z</time></trkpt><trkpt lat="53.8534312" lon="-1.8804781"><ele>271.5</ele><time>2026-04-26T12:47:04.92Z</time></trkpt><trkpt lat="53.8533131" lon="-1.8806648"><ele>272.0</ele><time>2026-04-26T12:47:05.917Z</time></trkpt><trkpt lat="53.8532057" lon="-1.8808375"><ele>272.5</ele><time>2026-04-26T12:47:06.918Z</time></trkpt><trkpt lat="53.8531128" lon="-1.8809959"><ele>273.0</ele><time>2026-04-26T12:47:07.92Z</time></trkpt><trkpt lat="53.853035" lon="-1.8811276"><ele>273.2</ele><time>2026-04-26T12:47:08.918Z</time></trkpt><trkpt lat="53.8529781" lon="-1.8812117"><ele>273.4</ele><time>2026-04-26T12:47:09.92Z</time></trkpt><trkpt lat="53.8529201" lon="-1.881266"><ele>273.59999999999997</ele><time>2026-04-26T12:47:11.916Z</time></trkpt><trkpt lat="53.852927" lon="-1.8813824"><ele>273.8</ele><time>2026-04-26T12:48:22.92Z</time></trkpt><trkpt lat="53.8530342" lon="-1.8815646"><ele>274.0</ele><time>2026-04-26T12:48:24.92Z</time></trkpt><trkpt lat="53.8531305" lon="-1.8816819"><ele>274.0</ele><time>2026-04-26T12:48:25.916Z</time></trkpt><trkpt lat="53.85324" lon="-1.8818226"><ele>274.0</ele><time>2026-04-26T12:48:26.914Z</time></trkpt><trkpt lat="53.8533599" lon="-1.8819767"><ele>274.0</ele><time>2026-04-26T12:48:27.92Z</time></trkpt><trkpt lat="53.8534857" lon="-1.8821407"><ele>274.0</ele><time>2026-04-26T12:48:28.915Z</time></trkpt><trkpt lat="53.8536183" lon="-1.882315"><ele>273.0</ele><time>2026-04-26T12:48:29.919Z</time></trkpt><trkpt lat="53.8537699" lon="-1.8825148"><ele>272.0</ele><time>2026-04-26T12:48:30.92Z</time></trkpt><trkpt lat="53.8539458" lon="-1.8827445"><ele>271.0</ele><time>2026-04-26T12:48:31.921Z</time></trkpt><trkpt lat="53.8541288" lon="-1.8829799"><ele>268.66666666666663</ele><time>2026-04-26T12:48:32.921Z</time></trkpt><trkpt lat="53.8543018" lon="-1.8832046"><ele>266.3333333333333</ele><time>2026-04-26T12:48:33.924Z</time></trkpt><trkpt lat="53.8544712" lon="-1.8834266"><ele>264.0</ele><time>2026-04-26T12:48:34.919Z</time></trkpt><trkpt lat="53.8546374" lon="-1.8836399"><ele>263.3333333333333</ele><time>2026-04-26T12:48:35.918Z</time></trkpt><trkpt lat="53.8547941" lon="-1.8838411"><ele>262.66666666666663</ele><time>2026-04-26T12:48:36.919Z</time></trkpt><trkpt lat="53.8549378" lon="-1.8840318"><ele>262.0</ele><time>2026-04-26T12:48:37.92Z</time></trkpt><trkpt lat="53.8550671" lon="-1.884201"><ele>261.75</ele><time>2026-04-26T12:48:38.919Z</time></trkpt><trkpt lat="53.8551852" lon="-1.8843495"><ele>261.5</ele><time>2026-04-26T12:48:39.917Z</time></trkpt><trkpt lat="53.8552975" lon="-1.8844892"><ele>261.25</ele><time>2026-04-26T12:48:40.918Z</time></trkpt><trkpt lat="53.8554151" lon="-1.8846344"><ele>261.0</ele><time>2026-04-26T12:48:41.912Z</time></trkpt><trkpt lat="53.855534" lon="-1.8847849"><ele>261.0</ele><time>2026-04-26T12:48:42.92Z</time></trkpt><trkpt lat="53.8556504" lon="-1.8849327"><ele>261.0</ele><time>2026-04-26T12:48:43.922Z</time></trkpt><trkpt lat="53.8557609" lon="-1.8850695"><ele>261.0</ele><time>2026-04-26T12:48:44.918Z</time></trkpt><trkpt lat="53.8558677" lon="-1.885202"><ele>261.0</ele><time>2026-04-26T12:48:45.916Z</time></trkpt><trkpt lat="53.8559731" lon="-1.8853319"><ele>259.0</ele><time>2026-04-26T12:48:46.909Z</time></trkpt><trkpt lat="53.8560766" lon="-1.8854618"><ele>257.0</ele><time>2026-04-26T12:48:47.92Z</time></trkpt><trkpt lat="53.8561809" lon="-1.8855944"><ele>255.0</ele><time>2026-04-26T12:48:48.92Z</time></trkpt><trkpt lat="53.8562815" lon="-1.8857281"><ele>253.0</ele><time>2026-04-26T12:48:49.917Z</time></trkpt><trkpt lat="53.8563754" lon="-1.8858595"><ele>253.0</ele><time>2026-04-26T12:48:50.917Z</time></trkpt><trkpt lat="53.8564647" lon="-1.885981"><ele>253.0</ele><time>2026-04-26T12:48:51.914Z</time></trkpt><trkpt lat="53.8565593" lon="-1.8861017"><ele>253.0</ele><time>2026-04-26T12:48:52.918Z</time></trkpt><trkpt lat="53.8566559" lon="-1.8862267"><ele>253.0</ele><time>2026-04-26T12:48:53.922Z</time></trkpt><trkpt lat="53.8567522" lon="-1.8863571"><ele>251.2</ele><time>2026-04-26T12:48:54.919Z</time></trkpt><trkpt lat="53.8568422" lon="-1.8864901"><ele>249.4</ele><time>2026-04-26T12:48:55.921Z</time></trkpt><trkpt lat="53.8569228" lon="-1.8866251"><ele>247.59999999999997</ele><time>2026-04-26T12:48:56.921Z</time></trkpt><trkpt lat="53.8569964" lon="-1.8867606"><ele>245.79999999999998</ele><time>2026-04-26T12:48:57.919Z</time></trkpt><trkpt lat="53.8570671" lon="-1.8868951"><ele>244.0</ele><time>2026-04-26T12:48:58.918Z</time></trkpt><trkpt lat="53.8571372" lon="-1.8870317"><ele>243.39999999999998</ele><time>2026-04-26T12:48:59.92Z</time></trkpt><trkpt lat="53.8572049" lon="-1.8871695"><ele>242.79999999999998</ele><time>2026-04-26T12:49:00.919Z</time></trkpt><trkpt lat="53.8572688" lon="-1.8873004"><ele>242.20000000000002</ele><time>2026-04-26T12:49:01.922Z</time></trkpt><trkpt lat="53.8573324" lon="-1.8874223"><ele>241.60000000000002</ele><time>2026-04-26T12:49:02.919Z</time></trkpt><trkpt lat="53.8573955" lon="-1.8875423"><ele>241.0</ele><time>2026-04-26T12:49:03.927Z</time></trkpt><trkpt lat="53.8574581" lon="-1.8876712"><ele>240.60000000000002</ele><time>2026-04-26T12:49:04.919Z</time></trkpt><trkpt lat="53.8575166" lon="-1.8878084"><ele>240.20000000000002</ele><time>2026-04-26T12:49:05.918Z</time></trkpt><trkpt lat="53.8575706" lon="-1.8879516"><ele>239.79999999999998</ele><time>2026-04-26T12:49:06.92Z</time></trkpt><trkpt lat="53.8576194" lon="-1.8880997"><ele>239.39999999999998</ele><time>2026-04-26T12:49:07.918Z</time></trkpt><trkpt lat="53.8576656" lon="-1.8882566"><ele>239.0</ele><time>2026-04-26T12:49:08.918Z</time></trkpt><trkpt lat="53.8577116" lon="-1.8884202"><ele>235.25</ele><time>2026-04-26T12:49:09.922Z</time></trkpt><trkpt lat="53.8577584" lon="-1.8885887"><ele>231.5</ele><time>2026-04-26T12:49:10.921Z</time></trkpt><trkpt lat="53.8578062" lon="-1.8887593"><ele>227.75</ele><time>2026-04-26T12:49:11.919Z</time></trkpt><trkpt lat="53.8578537" lon="-1.8889334"><ele>224.0</ele><time>2026-04-26T12:49:12.918Z</time></trkpt><trkpt lat="53.8578997" lon="-1.8891152"><ele>223.5</ele><time>2026-04-26T12:49:13.924Z</time></trkpt><trkpt lat="53.8579491" lon="-1.8893017"><ele>223.0</ele><time>2026-04-26T12:49:14.919Z</time></trkpt><trkpt lat="53.8579998" lon="-1.8894862"><ele>222.5</ele><time>2026-04-26T12:49:15.919Z</time></trkpt><trkpt lat="53.8580501" lon="-1.8896656"><ele>222.0</ele><time>2026-04-26T12:49:16.919Z</time></trkpt><trkpt lat="53.8580994" lon="-1.8898322"><ele>222.0</ele><time>2026-04-26T12:49:17.918Z</time></trkpt><trkpt lat="53.8581451" lon="-1.889984"><ele>222.0</ele><time>2026-04-26T12:49:18.92Z</time></trkpt><trkpt lat="53.8581866" lon="-1.8901242"><ele>222.0</ele><time>2026-04-26T12:49:19.917Z</time></trkpt><trkpt lat="53.8582255" lon="-1.8902607"><ele>222.0</ele><time>2026-04-26T12:49:20.917Z</time></trkpt><trkpt lat="53.8582631" lon="-1.8903946"><ele>222.0</ele><time>2026-04-26T12:49:21.919Z</time></trkpt><trkpt lat="53.8583004" lon="-1.8905266"><ele>221.6</ele><time>2026-04-26T12:49:22.917Z</time></trkpt><trkpt lat="53.8583406" lon="-1.8906588"><ele>221.2</ele><time>2026-04-26T12:49:23.921Z</time></trkpt><trkpt lat="53.8583838" lon="-1.8908006"><ele>220.8</ele><time>2026-04-26T12:49:24.916Z</time></trkpt><trkpt lat="53.8584237" lon="-1.8909515"><ele>220.4</ele><time>2026-04-26T12:49:25.917Z</time></trkpt><trkpt lat="53.8584639" lon="-1.8910968"><ele>220.0</ele><time>2026-04-26T12:49:26.916Z</time></trkpt><trkpt lat="53.8585023" lon="-1.891233"><ele>219.49999999999997</ele><time>2026-04-26T12:49:27.916Z</time></trkpt><trkpt lat="53.8585367" lon="-1.8913566"><ele>219.0</ele><time>2026-04-26T12:49:28.917Z</time></trkpt><trkpt lat="53.8585657" lon="-1.8914598"><ele>218.5</ele><time>2026-04-26T12:49:29.915Z</time></trkpt><trkpt lat="53.8585993" lon="-1.8915944"><ele>218.0</ele><time>2026-04-26T12:49:31.918Z</time></trkpt><trkpt lat="53.8586198" lon="-1.8917103"><ele>217.49999999999997</ele><time>2026-04-26T12:49:33.926Z</time></trkpt><trkpt lat="53.8586359" lon="-1.8918268"><ele>217.0</ele><time>2026-04-26T12:49:34.921Z</time></trkpt><trkpt lat="53.8586571" lon="-1.8919882"><ele>216.49999999999997</ele><time>2026-04-26T12:49:35.92Z</time></trkpt><trkpt lat="53.8586817" lon="-1.8921621"><ele>216.0</ele><time>2026-04-26T12:49:36.919Z</time></trkpt><trkpt lat="53.8587035" lon="-1.8923196"><ele>215.5</ele><time>2026-04-26T12:49:37.922Z</time></trkpt><trkpt lat="53.8587236" lon="-1.8924512"><ele>215.0</ele><time>2026-04-26T12:49:38.919Z</time></trkpt><trkpt lat="53.8587403" lon="-1.8925645"><ele>214.49999999999997</ele><time>2026-04-26T12:49:39.916Z</time></trkpt><trkpt lat="53.8587556" lon="-1.8926765"><ele>214.0</ele><time>2026-04-26T12:49:40.917Z</time></trkpt><trkpt lat="53.8587731" lon="-1.8928073"><ele>213.6</ele><time>2026-04-26T12:49:41.919Z</time></trkpt><trkpt lat="53.8587942" lon="-1.89296"><ele>213.2</ele><time>2026-04-26T12:49:42.916Z</time></trkpt><trkpt lat="53.8588177" lon="-1.8931272"><ele>212.79999999999998</ele><time>2026-04-26T12:49:43.918Z</time></trkpt><trkpt lat="53.8588456" lon="-1.8933067"><ele>212.39999999999998</ele><time>2026-04-26T12:49:44.917Z</time></trkpt><trkpt lat="53.8588749" lon="-1.8934928"><ele>212.0</ele><time>2026-04-26T12:49:45.916Z</time></trkpt><trkpt lat="53.8589039" lon="-1.8936784"><ele>211.0</ele><time>2026-04-26T12:49:46.918Z</time></trkpt><trkpt lat="53.8589315" lon="-1.8938635"><ele>210.0</ele><time>2026-04-26T12:49:47.918Z</time></trkpt><trkpt lat="53.8589581" lon="-1.8940395"><ele>209.0</ele><time>2026-04-26T12:49:48.914Z</time></trkpt><trkpt lat="53.8589835" lon="-1.8942149"><ele>208.0</ele><time>2026-04-26T12:49:49.916Z</time></trkpt><trkpt lat="53.8590091" lon="-1.894399"><ele>207.0</ele><time>2026-04-26T12:49:50.917Z</time></trkpt><trkpt lat="53.8590347" lon="-1.8945875"><ele>206.0</ele><time>2026-04-26T12:49:51.917Z</time></trkpt><trkpt lat="53.8590591" lon="-1.8947801"><ele>205.0</ele><time>2026-04-26T12:49:52.919Z</time></trkpt><trkpt lat="53.8590803" lon="-1.8949753"><ele>204.0</ele><time>2026-04-26T12:49:53.923Z</time></trkpt><trkpt lat="53.8591006" lon="-1.8951754"><ele>203.0</ele><time>2026-04-26T12:49:54.918Z</time></trkpt><trkpt lat="53.8591211" lon="-1.8953734"><ele>202.25</ele><time>2026-04-26T12:49:55.916Z</time></trkpt><trkpt lat="53.8591355" lon="-1.8955724"><ele>201.5</ele><time>2026-04-26T12:49:56.916Z</time></trkpt><trkpt lat="53.859146" lon="-1.8957764"><ele>200.75</ele><time>2026-04-26T12:49:57.915Z</time></trkpt><trkpt lat="53.8591554" lon="-1.8959809"><ele>200.0</ele><time>2026-04-26T12:49:58.917Z</time></trkpt><trkpt lat="53.8591616" lon="-1.8961842"><ele>199.25</ele><time>2026-04-26T12:49:59.918Z</time></trkpt><trkpt lat="53.8591652" lon="-1.8963901"><ele>198.5</ele><time>2026-04-26T12:50:00.917Z</time></trkpt><trkpt lat="53.8591719" lon="-1.8965905"><ele>197.75</ele><time>2026-04-26T12:50:01.916Z</time></trkpt><trkpt lat="53.8591833" lon="-1.8967833"><ele>197.0</ele><time>2026-04-26T12:50:02.919Z</time></trkpt><trkpt lat="53.8592001" lon="-1.8969659"><ele>196.39999999999998</ele><time>2026-04-26T12:50:03.921Z</time></trkpt><trkpt lat="53.8592206" lon="-1.8971442"><ele>195.79999999999998</ele><time>2026-04-26T12:50:04.918Z</time></trkpt><trkpt lat="53.8592416" lon="-1.8973275"><ele>195.2</ele><time>2026-04-26T12:50:05.916Z</time></trkpt><trkpt lat="53.8592601" lon="-1.8975108"><ele>194.6</ele><time>2026-04-26T12:50:06.917Z</time></trkpt><trkpt lat="53.8592769" lon="-1.8976813"><ele>194.0</ele><time>2026-04-26T12:50:07.916Z</time></trkpt><trkpt lat="53.8592947" lon="-1.8978332"><ele>194.0</ele><time>2026-04-26T12:50:08.915Z</time></trkpt><trkpt lat="53.8593069" lon="-1.8979632"><ele>194.0</ele><time>2026-04-26T12:50:09.919Z</time></trkpt><trkpt lat="53.8592955" lon="-1.8981397"><ele>194.0</ele><time>2026-04-26T12:50:11.914Z</time></trkpt><trkpt lat="53.8591907" lon="-1.8981372"><ele>194.0</ele><time>2026-04-26T12:50:13.921Z</time></trkpt><trkpt lat="53.8591013" lon="-1.8980743"><ele>194.0</ele><time>2026-04-26T12:50:14.917Z</time></trkpt><trkpt lat="53.8589905" lon="-1.898014"><ele>192.25</ele><time>2026-04-26T12:50:15.92Z</time></trkpt><trkpt lat="53.8588623" lon="-1.8979652"><ele>190.5</ele><time>2026-04-26T12:50:16.917Z</time></trkpt><trkpt lat="53.8587193" lon="-1.8979199"><ele>188.75</ele><time>2026-04-26T12:50:17.917Z</time></trkpt><trkpt lat="53.8585687" lon="-1.8978742"><ele>187.0</ele><time>2026-04-26T12:50:18.916Z</time></trkpt><trkpt lat="53.8584201" lon="-1.8978437"><ele>185.75</ele><time>2026-04-26T12:50:19.918Z</time></trkpt><trkpt lat="53.8582789" lon="-1.8978475"><ele>184.5</ele><time>2026-04-26T12:50:20.918Z</time></trkpt><trkpt lat="53.8581417" lon="-1.8978932"><ele>183.25</ele><time>2026-04-26T12:50:21.916Z</time></trkpt><trkpt lat="53.8580037" lon="-1.8979844"><ele>182.0</ele><time>2026-04-26T12:50:22.916Z</time></trkpt><trkpt lat="53.8578574" lon="-1.8981321"><ele>182.0</ele><time>2026-04-26T12:50:23.919Z</time></trkpt><trkpt lat="53.8577053" lon="-1.8983179"><ele>182.0</ele><time>2026-04-26T12:50:24.916Z</time></trkpt><trkpt lat="53.8575477" lon="-1.8985232"><ele>182.0</ele><time>2026-04-26T12:50:25.916Z</time></trkpt><trkpt lat="53.8574023" lon="-1.8987219"><ele>183.5</ele><time>2026-04-26T12:50:26.917Z</time></trkpt><trkpt lat="53.8572836" lon="-1.8988724"><ele>185.0</ele><time>2026-04-26T12:50:27.916Z</time></trkpt><trkpt lat="53.8571747" lon="-1.8989562"><ele>186.5</ele><time>2026-04-26T12:50:28.908Z</time></trkpt><trkpt lat="53.8570559" lon="-1.8989672"><ele>188.0</ele><time>2026-04-26T12:50:29.914Z</time></trkpt><trkpt lat="53.8569023" lon="-1.8989495"><ele>191.75</ele><time>2026-04-26T12:50:30.916Z</time></trkpt><trkpt lat="53.8567504" lon="-1.8989268"><ele>195.5</ele><time>2026-04-26T12:50:31.917Z</time></trkpt><trkpt lat="53.8566167" lon="-1.8989198"><ele>199.25</ele><time>2026-04-26T12:50:32.915Z</time></trkpt><trkpt lat="53.8565043" lon="-1.898933"><ele>203.0</ele><time>2026-04-26T12:50:33.917Z</time></trkpt><trkpt lat="53.8564162" lon="-1.8989581"><ele>203.00000000000003</ele><time>2026-04-26T12:50:34.914Z</time></trkpt><trkpt lat="53.8563347" lon="-1.8989821"><ele>203.0</ele><time>2026-04-26T12:50:35.912Z</time></trkpt><trkpt lat="53.8562529" lon="-1.8990036"><ele>203.0</ele><time>2026-04-26T12:50:36.915Z</time></trkpt><trkpt lat="53.8561671" lon="-1.899019"><ele>203.0</ele><time>2026-04-26T12:50:37.917Z</time></trkpt><trkpt lat="53.85609" lon="-1.8990387"><ele>203.00000000000003</ele><time>2026-04-26T12:50:38.917Z</time></trkpt><trkpt lat="53.8560066" lon="-1.8990589"><ele>203.0</ele><time>2026-04-26T12:50:39.916Z</time></trkpt><trkpt lat="53.8559187" lon="-1.8990905"><ele>203.00000000000003</ele><time>2026-04-26T12:50:40.915Z</time></trkpt><trkpt lat="53.8558333" lon="-1.8991293"><ele>203.0</ele><time>2026-04-26T12:50:41.912Z</time></trkpt><trkpt lat="53.8557487" lon="-1.8991713"><ele>203.0</ele><time>2026-04-26T12:50:42.913Z</time></trkpt><trkpt lat="53.8556685" lon="-1.8992136"><ele>203.0</ele><time>2026-04-26T12:50:43.915Z</time></trkpt><trkpt lat="53.8555924" lon="-1.8992513"><ele>203.00000000000003</ele><time>2026-04-26T12:50:44.914Z</time></trkpt><trkpt lat="53.8555228" lon="-1.8992919"><ele>203.0</ele><time>2026-04-26T12:50:45.913Z</time></trkpt><trkpt lat="53.8554556" lon="-1.8993399"><ele>203.0</ele><time>2026-04-26T12:50:46.915Z</time></trkpt><trkpt lat="53.8553904" lon="-1.8993963"><ele>203.0</ele><time>2026-04-26T12:50:47.914Z</time></trkpt><trkpt lat="53.8553309" lon="-1.8994518"><ele>203.0</ele><time>2026-04-26T12:50:48.914Z</time></trkpt><trkpt lat="53.8552703" lon="-1.8995023"><ele>203.0</ele><time>2026-04-26T12:50:49.913Z</time></trkpt><trkpt lat="53.8552044" lon="-1.899554"><ele>203.0</ele><time>2026-04-26T12:50:50.913Z</time></trkpt><trkpt lat="53.8551321" lon="-1.8996028"><ele>203.0</ele><time>2026-04-26T12:50:51.913Z</time></trkpt><trkpt lat="53.8550528" lon="-1.8996395"><ele>203.0</ele><time>2026-04-26T12:50:52.913Z</time></trkpt><trkpt lat="53.8549785" lon="-1.8996576"><ele>206.16666666666669</ele><time>2026-04-26T12:50:53.906Z</time></trkpt><trkpt lat="53.8549043" lon="-1.8996681"><ele>209.33333333333334</ele><time>2026-04-26T12:50:54.912Z</time></trkpt><trkpt lat="53.8548303" lon="-1.8996853"><ele>212.5</ele><time>2026-04-26T12:50:55.913Z</time></trkpt><trkpt lat="53.8547508" lon="-1.8997157"><ele>215.66666666666669</ele><time>2026-04-26T12:50:56.912Z</time></trkpt><trkpt lat="53.8546693" lon="-1.8997617"><ele>218.83333333333334</ele><time>2026-04-26T12:50:57.911Z</time></trkpt><trkpt lat="53.8545941" lon="-1.8998059"><ele>222.0</ele><time>2026-04-26T12:50:58.913Z</time></trkpt><trkpt lat="53.8545172" lon="-1.8998503"><ele>222.0</ele><time>2026-04-26T12:50:59.913Z</time></trkpt><trkpt lat="53.8544383" lon="-1.8998891"><ele>222.0</ele><time>2026-04-26T12:51:00.911Z</time></trkpt><trkpt lat="53.8543577" lon="-1.8999242"><ele>222.0</ele><time>2026-04-26T12:51:01.913Z</time></trkpt><trkpt lat="53.8542792" lon="-1.8999594"><ele>222.0</ele><time>2026-04-26T12:51:02.914Z</time></trkpt><trkpt lat="53.8542027" lon="-1.8999983"><ele>222.0</ele><time>2026-04-26T12:51:03.919Z</time></trkpt><trkpt lat="53.8541245" lon="-1.9000375"><ele>222.0</ele><time>2026-04-26T12:51:04.915Z</time></trkpt><trkpt lat="53.8540467" lon="-1.9000766"><ele>222.33333333333334</ele><time>2026-04-26T12:51:05.913Z</time></trkpt><trkpt lat="53.8539751" lon="-1.9001212"><ele>222.66666666666669</ele><time>2026-04-26T12:51:06.916Z</time></trkpt><trkpt lat="53.8538965" lon="-1.900163"><ele>223.0</ele><time>2026-04-26T12:51:07.914Z</time></trkpt><trkpt lat="53.8538102" lon="-1.9001878"><ele>223.33333333333334</ele><time>2026-04-26T12:51:08.915Z</time></trkpt><trkpt lat="53.8537213" lon="-1.9001804"><ele>223.66666666666669</ele><time>2026-04-26T12:51:09.918Z</time></trkpt><trkpt lat="53.8536338" lon="-1.9001382"><ele>224.0</ele><time>2026-04-26T12:51:10.918Z</time></trkpt><trkpt lat="53.8535449" lon="-1.9000638"><ele>227.2</ele><time>2026-04-26T12:51:11.916Z</time></trkpt><trkpt lat="53.8534581" lon="-1.8999761"><ele>230.39999999999998</ele><time>2026-04-26T12:51:12.916Z</time></trkpt><trkpt lat="53.8533772" lon="-1.8998861"><ele>233.6</ele><time>2026-04-26T12:51:13.919Z</time></trkpt><trkpt lat="53.8533011" lon="-1.899796"><ele>236.8</ele><time>2026-04-26T12:51:14.919Z</time></trkpt><trkpt lat="53.8532265" lon="-1.8997169"><ele>240.0</ele><time>2026-04-26T12:51:15.916Z</time></trkpt><trkpt lat="53.8531473" lon="-1.8996492"><ele>241.25</ele><time>2026-04-26T12:51:16.922Z</time></trkpt><trkpt lat="53.8530543" lon="-1.8996032"><ele>242.5</ele><time>2026-04-26T12:51:17.922Z</time></trkpt><trkpt lat="53.8529363" lon="-1.899571"><ele>243.75</ele><time>2026-04-26T12:51:18.923Z</time></trkpt><trkpt lat="53.8527855" lon="-1.8995198"><ele>245.0</ele><time>2026-04-26T12:51:19.926Z</time></trkpt><trkpt lat="53.8526222" lon="-1.899444"><ele>246.0</ele><time>2026-04-26T12:51:20.92Z</time></trkpt><trkpt lat="53.8524708" lon="-1.899374"><ele>247.0</ele><time>2026-04-26T12:51:21.927Z</time></trkpt><trkpt lat="53.8523383" lon="-1.8993493"><ele>248.0</ele><time>2026-04-26T12:51:22.922Z</time></trkpt><trkpt lat="53.8522158" lon="-1.8993903"><ele>249.0</ele><time>2026-04-26T12:51:23.918Z</time></trkpt><trkpt lat="53.852091" lon="-1.8994886"><ele>249.0</ele><time>2026-04-26T12:51:24.919Z</time></trkpt><trkpt lat="53.8519725" lon="-1.8996107"><ele>249.0</ele><time>2026-04-26T12:51:25.92Z</time></trkpt><trkpt lat="53.8518644" lon="-1.8997068"><ele>249.0</ele><time>2026-04-26T12:51:26.922Z</time></trkpt><trkpt lat="53.851731" lon="-1.8997266"><ele>249.0</ele><time>2026-04-26T12:51:27.921Z</time></trkpt><trkpt lat="53.8515666" lon="-1.8996781"><ele>250.0</ele><time>2026-04-26T12:51:28.92Z</time></trkpt><trkpt lat="53.8513859" lon="-1.8996063"><ele>251.0</ele><time>2026-04-26T12:51:29.921Z</time></trkpt><trkpt lat="53.8511842" lon="-1.8995409"><ele>252.0</ele><time>2026-04-26T12:51:30.923Z</time></trkpt><trkpt lat="53.8509603" lon="-1.899468"><ele>251.5</ele><time>2026-04-26T12:51:31.922Z</time></trkpt><trkpt lat="53.8507176" lon="-1.8994264"><ele>251.0</ele><time>2026-04-26T12:51:32.912Z</time></trkpt><trkpt lat="53.8504729" lon="-1.8994328"><ele>251.0</ele><time>2026-04-26T12:51:33.924Z</time></trkpt><trkpt lat="53.8502312" lon="-1.8994947"><ele>251.0</ele><time>2026-04-26T12:51:34.921Z</time></trkpt><trkpt lat="53.8500032" lon="-1.8995924"><ele>251.33333333333334</ele><time>2026-04-26T12:51:35.92Z</time></trkpt><trkpt lat="53.8497942" lon="-1.8996996"><ele>251.66666666666669</ele><time>2026-04-26T12:51:36.921Z</time></trkpt><trkpt lat="53.8495976" lon="-1.8998094"><ele>252.0</ele><time>2026-04-26T12:51:37.922Z</time></trkpt><trkpt lat="53.8494076" lon="-1.8999165"><ele>251.66666666666669</ele><time>2026-04-26T12:51:38.921Z</time></trkpt><trkpt lat="53.849223" lon="-1.9000294"><ele>251.33333333333334</ele><time>2026-04-26T12:51:39.921Z</time></trkpt><trkpt lat="53.8490365" lon="-1.9001449"><ele>251.0</ele><time>2026-04-26T12:51:40.923Z</time></trkpt><trkpt lat="53.8488429" lon="-1.9002584"><ele>251.0</ele><time>2026-04-26T12:51:41.918Z</time></trkpt><trkpt lat="53.8486409" lon="-1.900378"><ele>251.0</ele><time>2026-04-26T12:51:42.919Z</time></trkpt><trkpt lat="53.8484314" lon="-1.9005095"><ele>251.0</ele><time>2026-04-26T12:51:43.922Z</time></trkpt><trkpt lat="53.8482172" lon="-1.9006514"><ele>252.0</ele><time>2026-04-26T12:51:44.917Z</time></trkpt><trkpt lat="53.8479967" lon="-1.900806"><ele>253.0</ele><time>2026-04-26T12:51:45.92Z</time></trkpt><trkpt lat="53.8477642" lon="-1.9009697"><ele>257.0</ele><time>2026-04-26T12:51:46.922Z</time></trkpt><trkpt lat="53.8475189" lon="-1.9011347"><ele>261.0</ele><time>2026-04-26T12:51:47.918Z</time></trkpt><trkpt lat="53.8472806" lon="-1.9012889"><ele>261.0</ele><time>2026-04-26T12:51:48.919Z</time></trkpt><trkpt lat="53.8470686" lon="-1.901423"><ele>261.0</ele><time>2026-04-26T12:51:49.919Z</time></trkpt><trkpt lat="53.8468822" lon="-1.9015377"><ele>261.0</ele><time>2026-04-26T12:51:50.916Z</time></trkpt><trkpt lat="53.8467058" lon="-1.9016449"><ele>262.0</ele><time>2026-04-26T12:51:51.918Z</time></trkpt><trkpt lat="53.8465281" lon="-1.9017522"><ele>263.0</ele><time>2026-04-26T12:51:52.921Z</time></trkpt><trkpt lat="53.8463454" lon="-1.9018586"><ele>264.0</ele><time>2026-04-26T12:51:53.923Z</time></trkpt><trkpt lat="53.8461599" lon="-1.901962"><ele>264.0</ele><time>2026-04-26T12:51:54.919Z</time></trkpt><trkpt lat="53.8459709" lon="-1.9020736"><ele>264.0</ele><time>2026-04-26T12:51:55.918Z</time></trkpt><trkpt lat="53.8457758" lon="-1.9021875"><ele>264.0</ele><time>2026-04-26T12:51:56.921Z</time></trkpt><trkpt lat="53.8455755" lon="-1.9022949"><ele>266.0</ele><time>2026-04-26T12:51:57.916Z</time></trkpt><trkpt lat="53.84537" lon="-1.9023896"><ele>268.0</ele><time>2026-04-26T12:51:58.92Z</time></trkpt><trkpt lat="53.845164" lon="-1.9024623"><ele>270.0</ele><time>2026-04-26T12:51:59.918Z</time></trkpt><trkpt lat="53.8449677" lon="-1.9025015"><ele>272.3333333333333</ele><time>2026-04-26T12:52:00.92Z</time></trkpt><trkpt lat="53.8447858" lon="-1.9024924"><ele>274.66666666666663</ele><time>2026-04-26T12:52:01.919Z</time></trkpt><trkpt lat="53.8446248" lon="-1.9024541"><ele>277.0</ele><time>2026-04-26T12:52:02.92Z</time></trkpt><trkpt lat="53.8444854" lon="-1.9024059"><ele>277.0</ele><time>2026-04-26T12:52:03.928Z</time></trkpt><trkpt lat="53.8443705" lon="-1.902357"><ele>277.0</ele><time>2026-04-26T12:52:04.92Z</time></trkpt><trkpt lat="53.8442775" lon="-1.902305"><ele>277.0</ele><time>2026-04-26T12:52:05.919Z</time></trkpt><trkpt lat="53.8442014" lon="-1.902252"><ele>277.0</ele><time>2026-04-26T12:52:06.922Z</time></trkpt><trkpt lat="53.8441405" lon="-1.902209"><ele>277.0</ele><time>2026-04-26T12:52:07.924Z</time></trkpt><trkpt lat="53.8440714" lon="-1.9021864"><ele>277.0</ele><time>2026-04-26T12:52:12.921Z</time></trkpt><trkpt lat="53.8440541" lon="-1.9022988"><ele>277.0</ele><time>2026-04-26T12:52:14.919Z</time></trkpt><trkpt lat="53.8440555" lon="-1.9024236"><ele>277.0</ele><time>2026-04-26T12:52:15.918Z</time></trkpt><trkpt lat="53.8440568" lon="-1.9026063"><ele>277.0</ele><time>2026-04-26T12:52:16.918Z</time></trkpt><trkpt lat="53.8440475" lon="-1.9028375"><ele>277.0</ele><time>2026-04-26T12:52:17.92Z</time></trkpt><trkpt lat="53.844032" lon="-1.9031107"><ele>276.3333333333333</ele><time>2026-04-26T12:52:18.919Z</time></trkpt><trkpt lat="53.8440214" lon="-1.903421"><ele>275.6666666666667</ele><time>2026-04-26T12:52:19.92Z</time></trkpt><trkpt lat="53.8440076" lon="-1.903745"><ele>275.0</ele><time>2026-04-26T12:52:20.925Z</time></trkpt><trkpt lat="53.8439911" lon="-1.904045"><ele>275.33333333333337</ele><time>2026-04-26T12:52:21.92Z</time></trkpt><trkpt lat="53.8439584" lon="-1.9043225"><ele>275.6666666666667</ele><time>2026-04-26T12:52:22.922Z</time></trkpt><trkpt lat="53.8438994" lon="-1.904588"><ele>276.0</ele><time>2026-04-26T12:52:23.927Z</time></trkpt><trkpt lat="53.8438186" lon="-1.9048633"><ele>275.3333333333333</ele><time>2026-04-26T12:52:24.92Z</time></trkpt><trkpt lat="53.8437411" lon="-1.9051282"><ele>274.66666666666663</ele><time>2026-04-26T12:52:25.92Z</time></trkpt><trkpt lat="53.8436775" lon="-1.9053654"><ele>274.0</ele><time>2026-04-26T12:52:26.92Z</time></trkpt><trkpt lat="53.8436281" lon="-1.9055911"><ele>274.0</ele><time>2026-04-26T12:52:27.92Z</time></trkpt><trkpt lat="53.8435991" lon="-1.9058324"><ele>274.0</ele><time>2026-04-26T12:52:28.919Z</time></trkpt><trkpt lat="53.8435763" lon="-1.9061081"><ele>274.0</ele><time>2026-04-26T12:52:29.919Z</time></trkpt><trkpt lat="53.8435454" lon="-1.9064188"><ele>274.3333333333333</ele><time>2026-04-26T12:52:30.919Z</time></trkpt><trkpt lat="53.8435156" lon="-1.9067428"><ele>274.6666666666667</ele><time>2026-04-26T12:52:31.918Z</time></trkpt><trkpt lat="53.8434887" lon="-1.9070299"><ele>275.0</ele><time>2026-04-26T12:52:32.92Z</time></trkpt><trkpt lat="53.8434471" lon="-1.9072672"><ele>277.33333333333337</ele><time>2026-04-26T12:52:33.922Z</time></trkpt><trkpt lat="53.8433701" lon="-1.9074673"><ele>279.6666666666667</ele><time>2026-04-26T12:52:34.921Z</time></trkpt><trkpt lat="53.8432607" lon="-1.907678"><ele>282.0</ele><time>2026-04-26T12:52:35.919Z</time></trkpt><trkpt lat="53.8431166" lon="-1.9078986"><ele>283.0</ele><time>2026-04-26T12:52:36.92Z</time></trkpt><trkpt lat="53.8429565" lon="-1.9080927"><ele>284.0</ele><time>2026-04-26T12:52:37.919Z</time></trkpt><trkpt lat="53.8428104" lon="-1.9082618"><ele>285.0</ele><time>2026-04-26T12:52:38.921Z</time></trkpt><trkpt lat="53.8426888" lon="-1.9084556"><ele>285.0</ele><time>2026-04-26T12:52:39.923Z</time></trkpt><trkpt lat="53.8425874" lon="-1.9086954"><ele>285.0</ele><time>2026-04-26T12:52:40.91Z</time></trkpt><trkpt lat="53.8424956" lon="-1.9089722"><ele>285.0</ele><time>2026-04-26T12:52:41.916Z</time></trkpt><trkpt lat="53.8424031" lon="-1.9092757"><ele>286.5</ele><time>2026-04-26T12:52:42.919Z</time></trkpt><trkpt lat="53.842294" lon="-1.909606"><ele>288.0</ele><time>2026-04-26T12:52:43.924Z</time></trkpt><trkpt lat="53.842165" lon="-1.9099535"><ele>289.0</ele><time>2026-04-26T12:52:44.919Z</time></trkpt><trkpt lat="53.8420271" lon="-1.9102922"><ele>290.0</ele><time>2026-04-26T12:52:45.917Z</time></trkpt><trkpt lat="53.8418945" lon="-1.9106068"><ele>288.6666666666667</ele><time>2026-04-26T12:52:46.918Z</time></trkpt><trkpt lat="53.8417766" lon="-1.9108837"><ele>287.3333333333333</ele><time>2026-04-26T12:52:47.917Z</time></trkpt><trkpt lat="53.841666" lon="-1.9111203"><ele>286.0</ele><time>2026-04-26T12:52:48.916Z</time></trkpt><trkpt lat="53.841561" lon="-1.9113241"><ele>286.0</ele><time>2026-04-26T12:52:49.92Z</time></trkpt><trkpt lat="53.8414672" lon="-1.9114982"><ele>286.0</ele><time>2026-04-26T12:52:50.919Z</time></trkpt><trkpt lat="53.841384" lon="-1.9116568"><ele>286.0</ele><time>2026-04-26T12:52:51.92Z</time></trkpt><trkpt lat="53.8413038" lon="-1.9118161"><ele>286.0</ele><time>2026-04-26T12:52:52.919Z</time></trkpt><trkpt lat="53.8412294" lon="-1.9119682"><ele>286.0</ele><time>2026-04-26T12:52:53.921Z</time></trkpt><trkpt lat="53.8411567" lon="-1.9121231"><ele>286.0</ele><time>2026-04-26T12:52:54.92Z</time></trkpt><trkpt lat="53.8410777" lon="-1.9122988"><ele>286.0</ele><time>2026-04-26T12:52:55.921Z</time></trkpt><trkpt lat="53.840988" lon="-1.9125"><ele>286.0</ele><time>2026-04-26T12:52:56.922Z</time></trkpt><trkpt lat="53.8408852" lon="-1.9127331"><ele>286.0</ele><time>2026-04-26T12:52:57.919Z</time></trkpt><trkpt lat="53.840767" lon="-1.9130012"><ele>286.0</ele><time>2026-04-26T12:52:58.919Z</time></trkpt><trkpt lat="53.8406384" lon="-1.9132944"><ele>286.0</ele><time>2026-04-26T12:52:59.918Z</time></trkpt><trkpt lat="53.8405047" lon="-1.9135972"><ele>286.5</ele><time>2026-04-26T12:53:00.923Z</time></trkpt><trkpt lat="53.8403622" lon="-1.9139148"><ele>287.0</ele><time>2026-04-26T12:53:01.918Z</time></trkpt><trkpt lat="53.8402132" lon="-1.9142508"><ele>285.0</ele><time>2026-04-26T12:53:02.92Z</time></trkpt><trkpt lat="53.8400631" lon="-1.9145902"><ele>283.0</ele><time>2026-04-26T12:53:03.922Z</time></trkpt><trkpt lat="53.8399197" lon="-1.9149142"><ele>284.3333333333333</ele><time>2026-04-26T12:53:04.92Z</time></trkpt><trkpt lat="53.839782" lon="-1.9152062"><ele>285.6666666666667</ele><time>2026-04-26T12:53:05.923Z</time></trkpt><trkpt lat="53.8396532" lon="-1.9154771"><ele>287.0</ele><time>2026-04-26T12:53:06.921Z</time></trkpt><trkpt lat="53.8395306" lon="-1.9157296"><ele>287.33333333333337</ele><time>2026-04-26T12:53:07.919Z</time></trkpt><trkpt lat="53.8394185" lon="-1.9159722"><ele>287.6666666666667</ele><time>2026-04-26T12:53:08.919Z</time></trkpt><trkpt lat="53.8393176" lon="-1.9162202"><ele>288.0</ele><time>2026-04-26T12:53:09.92Z</time></trkpt><trkpt lat="53.8392202" lon="-1.9164785"><ele>286.0</ele><time>2026-04-26T12:53:10.921Z</time></trkpt><trkpt lat="53.8391286" lon="-1.9167565"><ele>284.0</ele><time>2026-04-26T12:53:11.918Z</time></trkpt><trkpt lat="53.8390397" lon="-1.9170499"><ele>282.0</ele><time>2026-04-26T12:53:12.919Z</time></trkpt><trkpt lat="53.8389459" lon="-1.9173544"><ele>280.3333333333333</ele><time>2026-04-26T12:53:13.924Z</time></trkpt><trkpt lat="53.8388425" lon="-1.9176664"><ele>278.66666666666663</ele><time>2026-04-26T12:53:14.919Z</time></trkpt><trkpt lat="53.8387298" lon="-1.9179813"><ele>277.0</ele><time>2026-04-26T12:53:15.917Z</time></trkpt><trkpt lat="53.8386102" lon="-1.9182986"><ele>276.3333333333333</ele><time>2026-04-26T12:53:16.919Z</time></trkpt><trkpt lat="53.8384904" lon="-1.9186069"><ele>275.6666666666667</ele><time>2026-04-26T12:53:17.919Z</time></trkpt><trkpt lat="53.8383729" lon="-1.9189034"><ele>275.0</ele><time>2026-04-26T12:53:18.918Z</time></trkpt><trkpt lat="53.8382569" lon="-1.9191975"><ele>273.33333333333337</ele><time>2026-04-26T12:53:19.917Z</time></trkpt><trkpt lat="53.8381416" lon="-1.9194925"><ele>271.6666666666667</ele><time>2026-04-26T12:53:20.919Z</time></trkpt><trkpt lat="53.8380263" lon="-1.919794"><ele>270.0</ele><time>2026-04-26T12:53:21.91Z</time></trkpt><trkpt lat="53.8379053" lon="-1.9201071"><ele>267.6666666666667</ele><time>2026-04-26T12:53:22.919Z</time></trkpt><trkpt lat="53.8377802" lon="-1.9204261"><ele>265.33333333333337</ele><time>2026-04-26T12:53:23.922Z</time></trkpt><trkpt lat="53.8376609" lon="-1.9207368"><ele>263.0</ele><time>2026-04-26T12:53:24.919Z</time></trkpt><trkpt lat="53.8375521" lon="-1.9210248"><ele>263.0</ele><time>2026-04-26T12:53:25.92Z</time></trkpt><trkpt lat="53.8374485" lon="-1.9212954"><ele>263.0</ele><time>2026-04-26T12:53:26.919Z</time></trkpt><trkpt lat="53.8373436" lon="-1.9215619"><ele>263.0</ele><time>2026-04-26T12:53:27.918Z</time></trkpt><trkpt lat="53.8372347" lon="-1.9218385"><ele>260.6666666666667</ele><time>2026-04-26T12:53:28.917Z</time></trkpt><trkpt lat="53.8371268" lon="-1.9221182"><ele>258.3333333333333</ele><time>2026-04-26T12:53:29.914Z</time></trkpt><trkpt lat="53.8370256" lon="-1.9223777"><ele>256.0</ele><time>2026-04-26T12:53:30.915Z</time></trkpt><trkpt lat="53.8369297" lon="-1.9226236"><ele>257.3333333333333</ele><time>2026-04-26T12:53:31.919Z</time></trkpt><trkpt lat="53.8368419" lon="-1.922864"><ele>258.6666666666667</ele><time>2026-04-26T12:53:32.92Z</time></trkpt><trkpt lat="53.8367631" lon="-1.923095"><ele>260.0</ele><time>2026-04-26T12:53:33.927Z</time></trkpt><trkpt lat="53.8366937" lon="-1.9233244"><ele>258.5</ele><time>2026-04-26T12:53:34.921Z</time></trkpt><trkpt lat="53.8366356" lon="-1.9235489"><ele>257.0</ele><time>2026-04-26T12:53:35.919Z</time></trkpt><trkpt lat="53.8365847" lon="-1.9237653"><ele>255.5</ele><time>2026-04-26T12:53:36.918Z</time></trkpt><trkpt lat="53.8365364" lon="-1.923976"><ele>254.0</ele><time>2026-04-26T12:53:37.922Z</time></trkpt><trkpt lat="53.8364897" lon="-1.9241926"><ele>252.0</ele><time>2026-04-26T12:53:38.921Z</time></trkpt><trkpt lat="53.8364438" lon="-1.9244551"><ele>250.0</ele><time>2026-04-26T12:53:39.923Z</time></trkpt><trkpt lat="53.8364004" lon="-1.9247729"><ele>248.0</ele><time>2026-04-26T12:53:40.912Z</time></trkpt><trkpt lat="53.8363613" lon="-1.9251019"><ele>246.66666666666669</ele><time>2026-04-26T12:53:41.921Z</time></trkpt><trkpt lat="53.8363231" lon="-1.9254134"><ele>245.33333333333331</ele><time>2026-04-26T12:53:42.92Z</time></trkpt><trkpt lat="53.8362877" lon="-1.9256922"><ele>244.0</ele><time>2026-04-26T12:53:43.923Z</time></trkpt><trkpt lat="53.8362495" lon="-1.9259346"><ele>242.75</ele><time>2026-04-26T12:53:44.92Z</time></trkpt><trkpt lat="53.8362094" lon="-1.9261566"><ele>241.5</ele><time>2026-04-26T12:53:45.921Z</time></trkpt><trkpt lat="53.8361599" lon="-1.9263671"><ele>240.25</ele><time>2026-04-26T12:53:46.918Z</time></trkpt><trkpt lat="53.8361043" lon="-1.9265652"><ele>239.0</ele><time>2026-04-26T12:53:47.918Z</time></trkpt><trkpt lat="53.836041" lon="-1.9267511"><ele>240.0</ele><time>2026-04-26T12:53:48.918Z</time></trkpt><trkpt lat="53.8359695" lon="-1.9269321"><ele>241.0</ele><time>2026-04-26T12:53:49.919Z</time></trkpt><trkpt lat="53.8358972" lon="-1.9271192"><ele>242.0</ele><time>2026-04-26T12:53:50.918Z</time></trkpt><trkpt lat="53.8358227" lon="-1.9273035"><ele>243.0</ele><time>2026-04-26T12:53:51.919Z</time></trkpt><trkpt lat="53.8357467" lon="-1.9274775"><ele>241.5</ele><time>2026-04-26T12:53:52.918Z</time></trkpt><trkpt lat="53.83567" lon="-1.9276464"><ele>240.0</ele><time>2026-04-26T12:53:53.923Z</time></trkpt><trkpt lat="53.8355965" lon="-1.9278229"><ele>238.5</ele><time>2026-04-26T12:53:54.92Z</time></trkpt><trkpt lat="53.8355256" lon="-1.92801"><ele>237.0</ele><time>2026-04-26T12:53:55.918Z</time></trkpt><trkpt lat="53.8354568" lon="-1.928193"><ele>237.0</ele><time>2026-04-26T12:53:56.913Z</time></trkpt><trkpt lat="53.8353945" lon="-1.9283707"><ele>237.0</ele><time>2026-04-26T12:53:57.917Z</time></trkpt><trkpt lat="53.8353376" lon="-1.9285521"><ele>237.0</ele><time>2026-04-26T12:53:58.917Z</time></trkpt><trkpt lat="53.8352875" lon="-1.9287378"><ele>237.0</ele><time>2026-04-26T12:53:59.919Z</time></trkpt><trkpt lat="53.8352469" lon="-1.9289237"><ele>235.8</ele><time>2026-04-26T12:54:00.919Z</time></trkpt><trkpt lat="53.8352152" lon="-1.9290932"><ele>234.6</ele><time>2026-04-26T12:54:01.922Z</time></trkpt><trkpt lat="53.8351964" lon="-1.9292352"><ele>233.40000000000003</ele><time>2026-04-26T12:54:02.926Z</time></trkpt><trkpt lat="53.8351915" lon="-1.9293577"><ele>232.20000000000002</ele><time>2026-04-26T12:54:03.917Z</time></trkpt><trkpt lat="53.8351823" lon="-1.9294637"><ele>231.0</ele><time>2026-04-26T12:54:04.92Z</time></trkpt><trkpt lat="53.8350948" lon="-1.9296377"><ele>231.0</ele><time>2026-04-26T12:54:06.92Z</time></trkpt><trkpt lat="53.8350249" lon="-1.92975"><ele>231.0</ele><time>2026-04-26T12:54:07.919Z</time></trkpt><trkpt lat="53.8349453" lon="-1.9298801"><ele>231.0</ele><time>2026-04-26T12:54:08.919Z</time></trkpt><trkpt lat="53.8348543" lon="-1.9300236"><ele>231.0</ele><time>2026-04-26T12:54:09.92Z</time></trkpt><trkpt lat="53.8347579" lon="-1.9301723"><ele>230.20000000000002</ele><time>2026-04-26T12:54:10.92Z</time></trkpt><trkpt lat="53.8346694" lon="-1.9303041"><ele>229.40000000000003</ele><time>2026-04-26T12:54:11.917Z</time></trkpt><trkpt lat="53.8345941" lon="-1.9304052"><ele>228.6</ele><time>2026-04-26T12:54:12.917Z</time></trkpt><trkpt lat="53.8345246" lon="-1.930484"><ele>227.8</ele><time>2026-04-26T12:54:13.922Z</time></trkpt><trkpt lat="53.8344539" lon="-1.9305427"><ele>227.0</ele><time>2026-04-26T12:54:14.92Z</time></trkpt><trkpt lat="53.8343726" lon="-1.9305633"><ele>227.16666666666669</ele><time>2026-04-26T12:54:15.919Z</time></trkpt><trkpt lat="53.8342915" lon="-1.9305601"><ele>227.33333333333334</ele><time>2026-04-26T12:54:16.921Z</time></trkpt><trkpt lat="53.8342176" lon="-1.9305281"><ele>227.5</ele><time>2026-04-26T12:54:17.919Z</time></trkpt><trkpt lat="53.8341448" lon="-1.93048"><ele>227.66666666666669</ele><time>2026-04-26T12:54:18.917Z</time></trkpt><trkpt lat="53.8340751" lon="-1.9304336"><ele>227.83333333333334</ele><time>2026-04-26T12:54:19.916Z</time></trkpt><trkpt lat="53.8340119" lon="-1.9303856"><ele>228.0</ele><time>2026-04-26T12:54:20.918Z</time></trkpt><trkpt lat="53.8339266" lon="-1.9302957"><ele>228.0</ele><time>2026-04-26T12:54:22.917Z</time></trkpt><trkpt lat="53.8338533" lon="-1.9302539"><ele>228.0</ele><time>2026-04-26T12:54:25.917Z</time></trkpt><trkpt lat="53.8338439" lon="-1.930401"><ele>228.0</ele><time>2026-04-26T12:54:27.916Z</time></trkpt><trkpt lat="53.8338724" lon="-1.9305141"><ele>228.0</ele><time>2026-04-26T12:54:28.917Z</time></trkpt><trkpt lat="53.8339219" lon="-1.9306273"><ele>228.0</ele><time>2026-04-26T12:54:29.917Z</time></trkpt><trkpt lat="53.8339732" lon="-1.9307342"><ele>228.0</ele><time>2026-04-26T12:54:30.915Z</time></trkpt><trkpt lat="53.8340259" lon="-1.930838"><ele>227.66666666666666</ele><time>2026-04-26T12:54:31.919Z</time></trkpt><trkpt lat="53.8340846" lon="-1.9309369"><ele>227.33333333333331</ele><time>2026-04-26T12:54:32.918Z</time></trkpt><trkpt lat="53.8341473" lon="-1.9310269"><ele>227.0</ele><time>2026-04-26T12:54:33.92Z</time></trkpt><trkpt lat="53.8342122" lon="-1.931099"><ele>226.66666666666666</ele><time>2026-04-26T12:54:34.918Z</time></trkpt><trkpt lat="53.834273" lon="-1.9311593"><ele>226.33333333333331</ele><time>2026-04-26T12:54:35.918Z</time></trkpt><trkpt lat="53.8343647" lon="-1.9312567"><ele>226.0</ele><time>2026-04-26T12:54:37.917Z</time></trkpt><trkpt lat="53.8344377" lon="-1.9313278"><ele>225.0</ele><time>2026-04-26T12:54:39.917Z</time></trkpt><trkpt lat="53.8345197" lon="-1.9313971"><ele>224.00000000000003</ele><time>2026-04-26T12:54:41.915Z</time></trkpt><trkpt lat="53.8345787" lon="-1.9314448"><ele>223.00000000000003</ele><time>2026-04-26T12:54:42.916Z</time></trkpt><trkpt lat="53.8346539" lon="-1.9314977"><ele>222.0</ele><time>2026-04-26T12:54:43.919Z</time></trkpt><trkpt lat="53.834749" lon="-1.9315648"><ele>221.0</ele><time>2026-04-26T12:54:44.915Z</time></trkpt><trkpt lat="53.8348499" lon="-1.9316445"><ele>221.00000000000003</ele><time>2026-04-26T12:54:45.92Z</time></trkpt><trkpt lat="53.834939" lon="-1.9317191"><ele>221.0</ele><time>2026-04-26T12:54:46.92Z</time></trkpt><trkpt lat="53.835011" lon="-1.9317782"><ele>221.0</ele><time>2026-04-26T12:54:47.922Z</time></trkpt><trkpt lat="53.8351117" lon="-1.9318576"><ele>221.0</ele><time>2026-04-26T12:54:49.915Z</time></trkpt><trkpt lat="53.8351772" lon="-1.9319093"><ele>221.00000000000003</ele><time>2026-04-26T12:54:51.921Z</time></trkpt><trkpt lat="53.8352268" lon="-1.9320175"><ele>221.0</ele><time>2026-04-26T12:54:54.92Z</time></trkpt><trkpt lat="53.8352756" lon="-1.9322032"><ele>219.66666666666669</ele><time>2026-04-26T12:54:56.919Z</time></trkpt><trkpt lat="53.8352945" lon="-1.9323228"><ele>218.33333333333334</ele><time>2026-04-26T12:54:57.92Z</time></trkpt><trkpt lat="53.8353" lon="-1.9324565"><ele>217.0</ele><time>2026-04-26T12:54:58.924Z</time></trkpt><trkpt lat="53.835299" lon="-1.9325914"><ele>215.66666666666669</ele><time>2026-04-26T12:54:59.923Z</time></trkpt><trkpt lat="53.8352948" lon="-1.9327207"><ele>214.33333333333334</ele><time>2026-04-26T12:55:00.924Z</time></trkpt><trkpt lat="53.8352905" lon="-1.9328337"><ele>213.0</ele><time>2026-04-26T12:55:01.926Z</time></trkpt><trkpt lat="53.8352869" lon="-1.933052"><ele>212.83333333333334</ele><time>2026-04-26T12:55:03.927Z</time></trkpt><trkpt lat="53.8352825" lon="-1.9331761"><ele>212.66666666666669</ele><time>2026-04-26T12:55:04.925Z</time></trkpt><trkpt lat="53.8352789" lon="-1.933309"><ele>212.5</ele><time>2026-04-26T12:55:05.925Z</time></trkpt><trkpt lat="53.8352758" lon="-1.933443"><ele>212.33333333333334</ele><time>2026-04-26T12:55:06.923Z</time></trkpt><trkpt lat="53.8352734" lon="-1.9335709"><ele>212.16666666666669</ele><time>2026-04-26T12:55:07.924Z</time></trkpt><trkpt lat="53.8352723" lon="-1.9336963"><ele>212.0</ele><time>2026-04-26T12:55:08.924Z</time></trkpt><trkpt lat="53.8352702" lon="-1.9338228"><ele>211.85714285714286</ele><time>2026-04-26T12:55:09.921Z</time></trkpt><trkpt lat="53.8352721" lon="-1.933951"><ele>211.7142857142857</ele><time>2026-04-26T12:55:10.921Z</time></trkpt><trkpt lat="53.8352774" lon="-1.9340712"><ele>211.57142857142856</ele><time>2026-04-26T12:55:11.917Z</time></trkpt><trkpt lat="53.8352861" lon="-1.934183"><ele>211.42857142857144</ele><time>2026-04-26T12:55:12.918Z</time></trkpt><trkpt lat="53.8352964" lon="-1.9342989"><ele>211.28571428571428</ele><time>2026-04-26T12:55:13.923Z</time></trkpt><trkpt lat="53.835309" lon="-1.9344238"><ele>211.14285714285714</ele><time>2026-04-26T12:55:14.919Z</time></trkpt><trkpt lat="53.8353249" lon="-1.9345559"><ele>211.0</ele><time>2026-04-26T12:55:15.924Z</time></trkpt><trkpt lat="53.8353391" lon="-1.934687"><ele>210.83333333333331</ele><time>2026-04-26T12:55:16.919Z</time></trkpt><trkpt lat="53.8353504" lon="-1.9348236"><ele>210.66666666666666</ele><time>2026-04-26T12:55:17.919Z</time></trkpt><trkpt lat="53.8353602" lon="-1.9349658"><ele>210.5</ele><time>2026-04-26T12:55:18.919Z</time></trkpt><trkpt lat="53.8353639" lon="-1.9351138"><ele>210.33333333333331</ele><time>2026-04-26T12:55:19.919Z</time></trkpt><trkpt lat="53.835365" lon="-1.9352617"><ele>210.16666666666666</ele><time>2026-04-26T12:55:20.92Z</time></trkpt><trkpt lat="53.8353634" lon="-1.935404"><ele>210.0</ele><time>2026-04-26T12:55:21.92Z</time></trkpt><trkpt lat="53.8353576" lon="-1.9355352"><ele>210.0</ele><time>2026-04-26T12:55:22.92Z</time></trkpt><trkpt lat="53.8353468" lon="-1.9356639"><ele>210.0</ele><time>2026-04-26T12:55:23.922Z</time></trkpt><trkpt lat="53.8353328" lon="-1.935799"><ele>210.0</ele><time>2026-04-26T12:55:24.918Z</time></trkpt><trkpt lat="53.8353203" lon="-1.9359393"><ele>210.0</ele><time>2026-04-26T12:55:25.921Z</time></trkpt><trkpt lat="53.8353091" lon="-1.936081"><ele>210.0</ele><time>2026-04-26T12:55:26.921Z</time></trkpt><trkpt lat="53.835299" lon="-1.9362176"><ele>210.0</ele><time>2026-04-26T12:55:27.92Z</time></trkpt><trkpt lat="53.8352908" lon="-1.9363488"><ele>210.16666666666666</ele><time>2026-04-26T12:55:28.92Z</time></trkpt><trkpt lat="53.8352793" lon="-1.9364814"><ele>210.33333333333331</ele><time>2026-04-26T12:55:29.92Z</time></trkpt><trkpt lat="53.8352662" lon="-1.9366192"><ele>210.5</ele><time>2026-04-26T12:55:30.92Z</time></trkpt><trkpt lat="53.835255" lon="-1.9367634"><ele>210.66666666666666</ele><time>2026-04-26T12:55:31.919Z</time></trkpt><trkpt lat="53.8352454" lon="-1.9369104"><ele>210.83333333333331</ele><time>2026-04-26T12:55:32.921Z</time></trkpt><trkpt lat="53.8352378" lon="-1.9370552"><ele>211.0</ele><time>2026-04-26T12:55:33.926Z</time></trkpt><trkpt lat="53.8352322" lon="-1.9371937"><ele>210.99999999999997</ele><time>2026-04-26T12:55:34.92Z</time></trkpt><trkpt lat="53.835225" lon="-1.9373331"><ele>211.0</ele><time>2026-04-26T12:55:35.927Z</time></trkpt><trkpt lat="53.8352138" lon="-1.9374741"><ele>211.0</ele><time>2026-04-26T12:55:36.921Z</time></trkpt><trkpt lat="53.8352" lon="-1.937615"><ele>211.0</ele><time>2026-04-26T12:55:37.925Z</time></trkpt><trkpt lat="53.8351871" lon="-1.9377484"><ele>210.99999999999997</ele><time>2026-04-26T12:55:38.923Z</time></trkpt><trkpt lat="53.8351749" lon="-1.937879"><ele>211.0</ele><time>2026-04-26T12:55:39.926Z</time></trkpt><trkpt lat="53.8351601" lon="-1.9380172"><ele>210.99999999999997</ele><time>2026-04-26T12:55:40.925Z</time></trkpt><trkpt lat="53.8351441" lon="-1.9381537"><ele>211.0</ele><time>2026-04-26T12:55:41.924Z</time></trkpt><trkpt lat="53.835132" lon="-1.9382796"><ele>211.0</ele><time>2026-04-26T12:55:42.923Z</time></trkpt><trkpt lat="53.8351215" lon="-1.9383969"><ele>211.0</ele><time>2026-04-26T12:55:43.926Z</time></trkpt><trkpt lat="53.835111" lon="-1.9385215"><ele>210.99999999999997</ele><time>2026-04-26T12:55:44.922Z</time></trkpt><trkpt lat="53.8351017" lon="-1.9386659"><ele>211.0</ele><time>2026-04-26T12:55:45.919Z</time></trkpt><trkpt lat="53.8350928" lon="-1.9388361"><ele>211.75</ele><time>2026-04-26T12:55:46.921Z</time></trkpt><trkpt lat="53.8350821" lon="-1.9390269"><ele>212.5</ele><time>2026-04-26T12:55:47.919Z</time></trkpt><trkpt lat="53.835063" lon="-1.9392263"><ele>213.25</ele><time>2026-04-26T12:55:48.919Z</time></trkpt><trkpt lat="53.835034" lon="-1.9394311"><ele>214.0</ele><time>2026-04-26T12:55:49.921Z</time></trkpt><trkpt lat="53.8349965" lon="-1.9396298"><ele>214.0</ele><time>2026-04-26T12:55:50.92Z</time></trkpt><trkpt lat="53.8349534" lon="-1.9398272"><ele>214.0</ele><time>2026-04-26T12:55:51.92Z</time></trkpt><trkpt lat="53.8349134" lon="-1.9400293"><ele>214.0</ele><time>2026-04-26T12:55:52.919Z</time></trkpt><trkpt lat="53.8348727" lon="-1.9402333"><ele>214.0</ele><time>2026-04-26T12:55:53.921Z</time></trkpt><trkpt lat="53.8348265" lon="-1.940438"><ele>213.25</ele><time>2026-04-26T12:55:54.918Z</time></trkpt><trkpt lat="53.8347779" lon="-1.9406479"><ele>212.5</ele><time>2026-04-26T12:55:55.919Z</time></trkpt><trkpt lat="53.8347341" lon="-1.9408594"><ele>211.75</ele><time>2026-04-26T12:55:56.918Z</time></trkpt><trkpt lat="53.8346945" lon="-1.9410618"><ele>211.0</ele><time>2026-04-26T12:55:57.92Z</time></trkpt><trkpt lat="53.834659" lon="-1.9412516"><ele>210.25</ele><time>2026-04-26T12:55:58.921Z</time></trkpt><trkpt lat="53.8346245" lon="-1.9414398"><ele>209.5</ele><time>2026-04-26T12:55:59.92Z</time></trkpt><trkpt lat="53.8345921" lon="-1.9416239"><ele>208.75</ele><time>2026-04-26T12:56:00.918Z</time></trkpt><trkpt lat="53.8345576" lon="-1.9418044"><ele>208.0</ele><time>2026-04-26T12:56:01.923Z</time></trkpt><trkpt lat="53.8345199" lon="-1.9419894"><ele>207.25</ele><time>2026-04-26T12:56:02.922Z</time></trkpt><trkpt lat="53.8344812" lon="-1.9421796"><ele>206.5</ele><time>2026-04-26T12:56:03.925Z</time></trkpt><trkpt lat="53.8344397" lon="-1.9423742"><ele>205.75</ele><time>2026-04-26T12:56:04.921Z</time></trkpt><trkpt lat="53.8343968" lon="-1.9425751"><ele>205.0</ele><time>2026-04-26T12:56:05.92Z</time></trkpt><trkpt lat="53.8343516" lon="-1.9427811"><ele>202.75</ele><time>2026-04-26T12:56:06.921Z</time></trkpt><trkpt lat="53.8343065" lon="-1.9429868"><ele>200.5</ele><time>2026-04-26T12:56:07.921Z</time></trkpt><trkpt lat="53.834261" lon="-1.9431929"><ele>198.25</ele><time>2026-04-26T12:56:08.919Z</time></trkpt><trkpt lat="53.8342124" lon="-1.9433985"><ele>196.0</ele><time>2026-04-26T12:56:09.921Z</time></trkpt><trkpt lat="53.8341594" lon="-1.943599"><ele>194.5</ele><time>2026-04-26T12:56:10.92Z</time></trkpt><trkpt lat="53.8341038" lon="-1.943787"><ele>193.0</ele><time>2026-04-26T12:56:11.918Z</time></trkpt><trkpt lat="53.8340488" lon="-1.9439639"><ele>191.5</ele><time>2026-04-26T12:56:12.919Z</time></trkpt><trkpt lat="53.8339959" lon="-1.9441297"><ele>190.0</ele><time>2026-04-26T12:56:13.923Z</time></trkpt><trkpt lat="53.8339459" lon="-1.9442866"><ele>188.33333333333334</ele><time>2026-04-26T12:56:14.918Z</time></trkpt><trkpt lat="53.8339" lon="-1.9444298"><ele>186.66666666666669</ele><time>2026-04-26T12:56:15.919Z</time></trkpt><trkpt lat="53.8338579" lon="-1.9445507"><ele>185.0</ele><time>2026-04-26T12:56:16.918Z</time></trkpt><trkpt lat="53.8338191" lon="-1.9446578"><ele>183.33333333333334</ele><time>2026-04-26T12:56:17.917Z</time></trkpt><trkpt lat="53.8337852" lon="-1.9447548"><ele>181.66666666666666</ele><time>2026-04-26T12:56:18.919Z</time></trkpt><trkpt lat="53.8337313" lon="-1.9449144"><ele>180.0</ele><time>2026-04-26T12:56:20.919Z</time></trkpt><trkpt lat="53.8336781" lon="-1.945011"><ele>180.2</ele><time>2026-04-26T12:56:23.926Z</time></trkpt><trkpt lat="53.8336181" lon="-1.9451921"><ele>180.4</ele><time>2026-04-26T12:56:58.919Z</time></trkpt><trkpt lat="53.8335729" lon="-1.9453204"><ele>180.60000000000002</ele><time>2026-04-26T12:56:59.91Z</time></trkpt><trkpt lat="53.8335277" lon="-1.945459"><ele>180.8</ele><time>2026-04-26T12:57:00.916Z</time></trkpt><trkpt lat="53.8334824" lon="-1.9455964"><ele>181.0</ele><time>2026-04-26T12:57:01.921Z</time></trkpt><trkpt lat="53.83343" lon="-1.9457321"><ele>181.0</ele><time>2026-04-26T12:57:02.92Z</time></trkpt><trkpt lat="53.8333648" lon="-1.9458687"><ele>181.0</ele><time>2026-04-26T12:57:03.924Z</time></trkpt><trkpt lat="53.8332871" lon="-1.946005"><ele>181.0</ele><time>2026-04-26T12:57:04.922Z</time></trkpt><trkpt lat="53.8332025" lon="-1.9461371"><ele>181.0</ele><time>2026-04-26T12:57:05.919Z</time></trkpt><trkpt lat="53.8331119" lon="-1.946249"><ele>181.0</ele><time>2026-04-26T12:57:06.919Z</time></trkpt><trkpt lat="53.8330093" lon="-1.9463427"><ele>179.75</ele><time>2026-04-26T12:57:07.921Z</time></trkpt><trkpt lat="53.8328931" lon="-1.9464308"><ele>178.5</ele><time>2026-04-26T12:57:08.921Z</time></trkpt><trkpt lat="53.8327698" lon="-1.9465211"><ele>177.25</ele><time>2026-04-26T12:57:09.92Z</time></trkpt><trkpt lat="53.8326414" lon="-1.9466192"><ele>176.0</ele><time>2026-04-26T12:57:10.919Z</time></trkpt><trkpt lat="53.8325126" lon="-1.9467221"><ele>175.20000000000002</ele><time>2026-04-26T12:57:11.917Z</time></trkpt><trkpt lat="53.8323913" lon="-1.9468234"><ele>174.4</ele><time>2026-04-26T12:57:12.918Z</time></trkpt><trkpt lat="53.8322841" lon="-1.9469154"><ele>173.6</ele><time>2026-04-26T12:57:13.924Z</time></trkpt><trkpt lat="53.8321936" lon="-1.9469859"><ele>172.8</ele><time>2026-04-26T12:57:14.919Z</time></trkpt><trkpt lat="53.8321124" lon="-1.9470468"><ele>172.0</ele><time>2026-04-26T12:57:15.917Z</time></trkpt><trkpt lat="53.8320275" lon="-1.9471152"><ele>172.0</ele><time>2026-04-26T12:57:16.917Z</time></trkpt><trkpt lat="53.8319358" lon="-1.9472052"><ele>172.0</ele><time>2026-04-26T12:57:17.921Z</time></trkpt><trkpt lat="53.8318456" lon="-1.9473203"><ele>172.0</ele><time>2026-04-26T12:57:18.916Z</time></trkpt><trkpt lat="53.8317549" lon="-1.9474714"><ele>172.0</ele><time>2026-04-26T12:57:19.919Z</time></trkpt><trkpt lat="53.8316619" lon="-1.947644"><ele>172.25</ele><time>2026-04-26T12:57:20.917Z</time></trkpt><trkpt lat="53.8315661" lon="-1.9478308"><ele>172.5</ele><time>2026-04-26T12:57:21.916Z</time></trkpt><trkpt lat="53.8314768" lon="-1.9480151"><ele>172.75</ele><time>2026-04-26T12:57:22.915Z</time></trkpt><trkpt lat="53.831395" lon="-1.9481822"><ele>173.0</ele><time>2026-04-26T12:57:23.92Z</time></trkpt><trkpt lat="53.8313199" lon="-1.9483178"><ele>173.0</ele><time>2026-04-26T12:57:24.921Z</time></trkpt><trkpt lat="53.831237" lon="-1.9484024"><ele>173.0</ele><time>2026-04-26T12:57:25.921Z</time></trkpt><trkpt lat="53.8311408" lon="-1.9484286"><ele>173.0</ele><time>2026-04-26T12:57:26.92Z</time></trkpt><trkpt lat="53.8310359" lon="-1.9484023"><ele>173.0</ele><time>2026-04-26T12:57:27.922Z</time></trkpt><trkpt lat="53.8309234" lon="-1.9483567"><ele>173.0</ele><time>2026-04-26T12:57:28.92Z</time></trkpt><trkpt lat="53.8308046" lon="-1.9483154"><ele>173.0</ele><time>2026-04-26T12:57:29.922Z</time></trkpt><trkpt lat="53.8306828" lon="-1.9482838"><ele>173.0</ele><time>2026-04-26T12:57:30.922Z</time></trkpt><trkpt lat="53.8305527" lon="-1.9482647"><ele>173.0</ele><time>2026-04-26T12:57:31.919Z</time></trkpt><trkpt lat="53.8304167" lon="-1.9482461"><ele>173.0</ele><time>2026-04-26T12:57:32.919Z</time></trkpt><trkpt lat="53.8302781" lon="-1.9482282"><ele>173.25</ele><time>2026-04-26T12:57:33.921Z</time></trkpt><trkpt lat="53.8301376" lon="-1.9482114"><ele>173.5</ele><time>2026-04-26T12:57:34.923Z</time></trkpt><trkpt lat="53.8300005" lon="-1.9481904"><ele>173.75</ele><time>2026-04-26T12:57:35.925Z</time></trkpt><trkpt lat="53.8298629" lon="-1.9481666"><ele>174.0</ele><time>2026-04-26T12:57:36.925Z</time></trkpt><trkpt lat="53.8297256" lon="-1.9481431"><ele>174.0</ele><time>2026-04-26T12:57:37.919Z</time></trkpt><trkpt lat="53.8295894" lon="-1.9481199"><ele>174.0</ele><time>2026-04-26T12:57:38.919Z</time></trkpt><trkpt lat="53.829465" lon="-1.9480984"><ele>174.0</ele><time>2026-04-26T12:57:39.92Z</time></trkpt><trkpt lat="53.829354" lon="-1.9480844"><ele>174.0</ele><time>2026-04-26T12:57:40.92Z</time></trkpt><trkpt lat="53.8292603" lon="-1.9480749"><ele>174.28571428571428</ele><time>2026-04-26T12:57:41.917Z</time></trkpt><trkpt lat="53.8291854" lon="-1.9480651"><ele>174.57142857142858</ele><time>2026-04-26T12:57:42.916Z</time></trkpt><trkpt lat="53.8291209" lon="-1.9480704"><ele>174.85714285714286</ele><time>2026-04-26T12:57:43.92Z</time></trkpt><trkpt lat="53.8290616" lon="-1.9481096"><ele>175.14285714285714</ele><time>2026-04-26T12:57:44.919Z</time></trkpt><trkpt lat="53.8290212" lon="-1.9482005"><ele>175.42857142857142</ele><time>2026-04-26T12:57:45.919Z</time></trkpt><trkpt lat="53.8290027" lon="-1.9483357"><ele>175.71428571428572</ele><time>2026-04-26T12:57:46.917Z</time></trkpt><trkpt lat="53.828984" lon="-1.9484946"><ele>176.0</ele><time>2026-04-26T12:57:47.916Z</time></trkpt><trkpt lat="53.8289621" lon="-1.9486832"><ele>176.0</ele><time>2026-04-26T12:57:48.919Z</time></trkpt><trkpt lat="53.8289339" lon="-1.948894"><ele>176.0</ele><time>2026-04-26T12:57:49.916Z</time></trkpt><trkpt lat="53.8289061" lon="-1.9491155"><ele>176.0</ele><time>2026-04-26T12:57:50.919Z</time></trkpt><trkpt lat="53.8288759" lon="-1.949335"><ele>176.0</ele><time>2026-04-26T12:57:51.916Z</time></trkpt><trkpt lat="53.8288494" lon="-1.9495365"><ele>177.5</ele><time>2026-04-26T12:57:52.916Z</time></trkpt><trkpt lat="53.8288288" lon="-1.9497321"><ele>179.0</ele><time>2026-04-26T12:57:53.922Z</time></trkpt><trkpt lat="53.8288147" lon="-1.9499311"><ele>180.5</ele><time>2026-04-26T12:57:54.916Z</time></trkpt><trkpt lat="53.8288112" lon="-1.9501366"><ele>182.0</ele><time>2026-04-26T12:57:55.917Z</time></trkpt><trkpt lat="53.8288189" lon="-1.9503311"><ele>183.39999999999998</ele><time>2026-04-26T12:57:56.917Z</time></trkpt><trkpt lat="53.8288276" lon="-1.9505183"><ele>184.79999999999998</ele><time>2026-04-26T12:57:57.921Z</time></trkpt><trkpt lat="53.8288254" lon="-1.9507015"><ele>186.2</ele><time>2026-04-26T12:57:58.917Z</time></trkpt><trkpt lat="53.8288137" lon="-1.9508701"><ele>187.6</ele><time>2026-04-26T12:57:59.92Z</time></trkpt><trkpt lat="53.8287985" lon="-1.9510323"><ele>189.0</ele><time>2026-04-26T12:58:00.923Z</time></trkpt><trkpt lat="53.8287817" lon="-1.9511946"><ele>190.39999999999998</ele><time>2026-04-26T12:58:01.925Z</time></trkpt><trkpt lat="53.8287612" lon="-1.9513604"><ele>191.8</ele><time>2026-04-26T12:58:02.913Z</time></trkpt><trkpt lat="53.8287377" lon="-1.9515323"><ele>193.2</ele><time>2026-04-26T12:58:03.923Z</time></trkpt><trkpt lat="53.8287092" lon="-1.9517042"><ele>194.60000000000002</ele><time>2026-04-26T12:58:04.92Z</time></trkpt><trkpt lat="53.8286807" lon="-1.9518757"><ele>196.0</ele><time>2026-04-26T12:58:05.919Z</time></trkpt><trkpt lat="53.8286553" lon="-1.9520446"><ele>197.0</ele><time>2026-04-26T12:58:06.918Z</time></trkpt><trkpt lat="53.828638" lon="-1.9522116"><ele>198.0</ele><time>2026-04-26T12:58:07.918Z</time></trkpt><trkpt lat="53.8286238" lon="-1.9523741"><ele>199.0</ele><time>2026-04-26T12:58:08.92Z</time></trkpt><trkpt lat="53.8286152" lon="-1.9525341"><ele>200.0</ele><time>2026-04-26T12:58:09.919Z</time></trkpt><trkpt lat="53.8286133" lon="-1.952684"><ele>201.0</ele><time>2026-04-26T12:58:10.92Z</time></trkpt><trkpt lat="53.828621" lon="-1.9528091"><ele>202.20000000000002</ele><time>2026-04-26T12:58:11.916Z</time></trkpt><trkpt lat="53.8286309" lon="-1.9529203"><ele>203.4</ele><time>2026-04-26T12:58:12.915Z</time></trkpt><trkpt lat="53.828641" lon="-1.9531239"><ele>204.6</ele><time>2026-04-26T12:58:14.917Z</time></trkpt><trkpt lat="53.8285628" lon="-1.9532591"><ele>205.8</ele><time>2026-04-26T12:58:16.918Z</time></trkpt><trkpt lat="53.8284799" lon="-1.9532627"><ele>207.0</ele><time>2026-04-26T12:58:17.912Z</time></trkpt><trkpt lat="53.8283875" lon="-1.9532421"><ele>207.75</ele><time>2026-04-26T12:58:18.915Z</time></trkpt><trkpt lat="53.8282881" lon="-1.9532182"><ele>208.5</ele><time>2026-04-26T12:58:19.917Z</time></trkpt><trkpt lat="53.828177" lon="-1.9531969"><ele>209.25</ele><time>2026-04-26T12:58:20.917Z</time></trkpt><trkpt lat="53.8280594" lon="-1.9531734"><ele>210.0</ele><time>2026-04-26T12:58:21.918Z</time></trkpt><trkpt lat="53.8279412" lon="-1.9531459"><ele>210.0</ele><time>2026-04-26T12:58:22.921Z</time></trkpt><trkpt lat="53.8278322" lon="-1.9531096"><ele>210.0</ele><time>2026-04-26T12:58:23.922Z</time></trkpt><trkpt lat="53.8277267" lon="-1.9530575"><ele>210.0</ele><time>2026-04-26T12:58:24.917Z</time></trkpt><trkpt lat="53.8276306" lon="-1.9529792"><ele>210.0</ele><time>2026-04-26T12:58:25.917Z</time></trkpt><trkpt lat="53.8275479" lon="-1.9528895"><ele>210.0</ele><time>2026-04-26T12:58:26.916Z</time></trkpt><trkpt lat="53.8274782" lon="-1.9528104"><ele>210.16666666666666</ele><time>2026-04-26T12:58:27.918Z</time></trkpt><trkpt lat="53.8274122" lon="-1.9527382"><ele>210.33333333333331</ele><time>2026-04-26T12:58:28.917Z</time></trkpt><trkpt lat="53.8273471" lon="-1.9526688"><ele>210.5</ele><time>2026-04-26T12:58:29.917Z</time></trkpt><trkpt lat="53.8272833" lon="-1.9526033"><ele>210.66666666666666</ele><time>2026-04-26T12:58:30.913Z</time></trkpt><trkpt lat="53.8272276" lon="-1.9525471"><ele>210.83333333333331</ele><time>2026-04-26T12:58:31.92Z</time></trkpt><trkpt lat="53.8271574" lon="-1.9524845"><ele>211.0</ele><time>2026-04-26T12:58:33.926Z</time></trkpt><trkpt lat="53.827084" lon="-1.952414"><ele>210.49999999999997</ele><time>2026-04-26T12:58:35.917Z</time></trkpt><trkpt lat="53.8270358" lon="-1.952344"><ele>210.0</ele><time>2026-04-26T12:58:36.921Z</time></trkpt><trkpt lat="53.8269887" lon="-1.9522552"><ele>209.5</ele><time>2026-04-26T12:58:37.921Z</time></trkpt><trkpt lat="53.8269305" lon="-1.9521484"><ele>209.0</ele><time>2026-04-26T12:58:38.923Z</time></trkpt><trkpt lat="53.8268619" lon="-1.9520306"><ele>208.49999999999997</ele><time>2026-04-26T12:58:39.921Z</time></trkpt><trkpt lat="53.8267879" lon="-1.951894"><ele>208.0</ele><time>2026-04-26T12:58:40.92Z</time></trkpt><trkpt lat="53.8267067" lon="-1.9517453"><ele>207.0</ele><time>2026-04-26T12:58:41.915Z</time></trkpt><trkpt lat="53.8266209" lon="-1.9515864"><ele>206.0</ele><time>2026-04-26T12:58:42.917Z</time></trkpt><trkpt lat="53.8265298" lon="-1.9514172"><ele>205.0</ele><time>2026-04-26T12:58:43.922Z</time></trkpt><trkpt lat="53.8264372" lon="-1.9512439"><ele>204.0</ele><time>2026-04-26T12:58:44.917Z</time></trkpt><trkpt lat="53.8263415" lon="-1.9510683"><ele>204.0</ele><time>2026-04-26T12:58:45.916Z</time></trkpt><trkpt lat="53.8262409" lon="-1.9509011"><ele>204.0</ele><time>2026-04-26T12:58:46.917Z</time></trkpt><trkpt lat="53.8261302" lon="-1.9507519"><ele>204.0</ele><time>2026-04-26T12:58:47.917Z</time></trkpt><trkpt lat="53.8260078" lon="-1.9506272"><ele>204.0</ele><time>2026-04-26T12:58:48.926Z</time></trkpt><trkpt lat="53.8258727" lon="-1.9505279"><ele>204.66666666666669</ele><time>2026-04-26T12:58:49.923Z</time></trkpt><trkpt lat="53.8257275" lon="-1.9504562"><ele>205.33333333333334</ele><time>2026-04-26T12:58:50.921Z</time></trkpt><trkpt lat="53.8255716" lon="-1.9504027"><ele>206.0</ele><time>2026-04-26T12:58:51.921Z</time></trkpt><trkpt lat="53.8254057" lon="-1.9503554"><ele>206.0</ele><time>2026-04-26T12:58:52.922Z</time></trkpt><trkpt lat="53.8252353" lon="-1.9503067"><ele>206.0</ele><time>2026-04-26T12:58:53.912Z</time></trkpt><trkpt lat="53.8250645" lon="-1.9502567"><ele>206.0</ele><time>2026-04-26T12:58:54.919Z</time></trkpt><trkpt lat="53.8248868" lon="-1.9502019"><ele>206.33333333333334</ele><time>2026-04-26T12:58:55.919Z</time></trkpt><trkpt lat="53.8247027" lon="-1.9501375"><ele>206.66666666666669</ele><time>2026-04-26T12:58:56.917Z</time></trkpt><trkpt lat="53.8245155" lon="-1.9500652"><ele>207.0</ele><time>2026-04-26T12:58:57.916Z</time></trkpt><trkpt lat="53.8243292" lon="-1.9499956"><ele>207.0</ele><time>2026-04-26T12:58:58.917Z</time></trkpt><trkpt lat="53.8241494" lon="-1.9499345"><ele>207.0</ele><time>2026-04-26T12:58:59.92Z</time></trkpt><trkpt lat="53.8239795" lon="-1.9498822"><ele>207.0</ele><time>2026-04-26T12:59:00.917Z</time></trkpt><trkpt lat="53.8238218" lon="-1.9498391"><ele>207.0</ele><time>2026-04-26T12:59:01.92Z</time></trkpt><trkpt lat="53.8236776" lon="-1.9498162"><ele>207.0</ele><time>2026-04-26T12:59:02.921Z</time></trkpt><trkpt lat="53.8235425" lon="-1.9498271"><ele>207.0</ele><time>2026-04-26T12:59:03.924Z</time></trkpt><trkpt lat="53.8234065" lon="-1.9498908"><ele>207.0</ele><time>2026-04-26T12:59:04.922Z</time></trkpt><trkpt lat="53.8232604" lon="-1.9500054"><ele>210.0</ele><time>2026-04-26T12:59:05.918Z</time></trkpt><trkpt lat="53.823104" lon="-1.9501422"><ele>213.0</ele><time>2026-04-26T12:59:06.922Z</time></trkpt><trkpt lat="53.8229282" lon="-1.9502815"><ele>216.0</ele><time>2026-04-26T12:59:07.911Z</time></trkpt><trkpt lat="53.8227385" lon="-1.9504228"><ele>217.66666666666669</ele><time>2026-04-26T12:59:08.923Z</time></trkpt><trkpt lat="53.8225395" lon="-1.9505713"><ele>219.33333333333334</ele><time>2026-04-26T12:59:09.921Z</time></trkpt><trkpt lat="53.822332" lon="-1.9507265"><ele>221.0</ele><time>2026-04-26T12:59:10.922Z</time></trkpt><trkpt lat="53.8221219" lon="-1.9508839"><ele>224.5</ele><time>2026-04-26T12:59:11.919Z</time></trkpt><trkpt lat="53.821911" lon="-1.9510452"><ele>228.0</ele><time>2026-04-26T12:59:12.917Z</time></trkpt><trkpt lat="53.8217068" lon="-1.9512106"><ele>230.0</ele><time>2026-04-26T12:59:13.923Z</time></trkpt><trkpt lat="53.821524" lon="-1.951396"><ele>232.0</ele><time>2026-04-26T12:59:14.918Z</time></trkpt><trkpt lat="53.82135" lon="-1.9516117"><ele>234.0</ele><time>2026-04-26T12:59:15.918Z</time></trkpt><trkpt lat="53.8211782" lon="-1.9518489"><ele>235.66666666666669</ele><time>2026-04-26T12:59:16.918Z</time></trkpt><trkpt lat="53.8210115" lon="-1.9520859"><ele>237.33333333333334</ele><time>2026-04-26T12:59:17.919Z</time></trkpt><trkpt lat="53.8208606" lon="-1.9523046"><ele>239.0</ele><time>2026-04-26T12:59:18.919Z</time></trkpt><trkpt lat="53.8207329" lon="-1.9524956"><ele>240.25</ele><time>2026-04-26T12:59:19.915Z</time></trkpt><trkpt lat="53.8206231" lon="-1.9526599"><ele>241.5</ele><time>2026-04-26T12:59:20.919Z</time></trkpt><trkpt lat="53.8205272" lon="-1.9528047"><ele>242.75</ele><time>2026-04-26T12:59:21.919Z</time></trkpt><trkpt lat="53.8204503" lon="-1.9529221"><ele>244.0</ele><time>2026-04-26T12:59:22.912Z</time></trkpt><trkpt lat="53.820392" lon="-1.9530115"><ele>244.0</ele><time>2026-04-26T12:59:23.924Z</time></trkpt><trkpt lat="53.8203482" lon="-1.9530922"><ele>243.99999999999997</ele><time>2026-04-26T12:59:25.916Z</time></trkpt><trkpt lat="53.8203032" lon="-1.9532019"><ele>243.99999999999997</ele><time>2026-04-26T12:59:28.918Z</time></trkpt><trkpt lat="53.8202381" lon="-1.9533549"><ele>244.0</ele><time>2026-04-26T12:59:30.918Z</time></trkpt><trkpt lat="53.8201478" lon="-1.9535233"><ele>244.0</ele><time>2026-04-26T12:59:32.92Z</time></trkpt><trkpt lat="53.8200919" lon="-1.9536155"><ele>243.83333333333331</ele><time>2026-04-26T12:59:33.924Z</time></trkpt><trkpt lat="53.8200339" lon="-1.953714"><ele>243.66666666666666</ele><time>2026-04-26T12:59:34.921Z</time></trkpt><trkpt lat="53.8199741" lon="-1.9538176"><ele>243.5</ele><time>2026-04-26T12:59:35.92Z</time></trkpt><trkpt lat="53.819912" lon="-1.9539294"><ele>243.33333333333331</ele><time>2026-04-26T12:59:36.915Z</time></trkpt><trkpt lat="53.8198492" lon="-1.9540435"><ele>243.16666666666666</ele><time>2026-04-26T12:59:37.916Z</time></trkpt><trkpt lat="53.8197841" lon="-1.9541637"><ele>243.0</ele><time>2026-04-26T12:59:38.917Z</time></trkpt><trkpt lat="53.8197178" lon="-1.9542876"><ele>243.75</ele><time>2026-04-26T12:59:39.916Z</time></trkpt><trkpt lat="53.8196462" lon="-1.9544251"><ele>244.5</ele><time>2026-04-26T12:59:40.918Z</time></trkpt><trkpt lat="53.8195628" lon="-1.9545958"><ele>245.25</ele><time>2026-04-26T12:59:41.919Z</time></trkpt><trkpt lat="53.8194589" lon="-1.9548077"><ele>246.0</ele><time>2026-04-26T12:59:42.919Z</time></trkpt><trkpt lat="53.8193375" lon="-1.9550191"><ele>244.66666666666669</ele><time>2026-04-26T12:59:43.924Z</time></trkpt><trkpt lat="53.8192126" lon="-1.9552122"><ele>243.33333333333334</ele><time>2026-04-26T12:59:44.918Z</time></trkpt><trkpt lat="53.8190953" lon="-1.9553943"><ele>242.0</ele><time>2026-04-26T12:59:45.919Z</time></trkpt><trkpt lat="53.8189929" lon="-1.9555796"><ele>242.0</ele><time>2026-04-26T12:59:46.919Z</time></trkpt><trkpt lat="53.8189032" lon="-1.9557807"><ele>242.0</ele><time>2026-04-26T12:59:47.919Z</time></trkpt><trkpt lat="53.8188253" lon="-1.9559886"><ele>242.0</ele><time>2026-04-26T12:59:48.918Z</time></trkpt><trkpt lat="53.8187498" lon="-1.9562087"><ele>242.0</ele><time>2026-04-26T12:59:49.918Z</time></trkpt><trkpt lat="53.8186741" lon="-1.9564418"><ele>242.33333333333334</ele><time>2026-04-26T12:59:50.918Z</time></trkpt><trkpt lat="53.8185993" lon="-1.9566832"><ele>242.66666666666669</ele><time>2026-04-26T12:59:51.919Z</time></trkpt><trkpt lat="53.8185256" lon="-1.9569318"><ele>243.0</ele><time>2026-04-26T12:59:52.919Z</time></trkpt><trkpt lat="53.818452" lon="-1.9571832"><ele>242.33333333333331</ele><time>2026-04-26T12:59:53.924Z</time></trkpt><trkpt lat="53.8183786" lon="-1.9574387"><ele>241.66666666666666</ele><time>2026-04-26T12:59:54.911Z</time></trkpt><trkpt lat="53.8183038" lon="-1.9576966"><ele>241.0</ele><time>2026-04-26T12:59:55.918Z</time></trkpt><trkpt lat="53.818229" lon="-1.9579583"><ele>241.0</ele><time>2026-04-26T12:59:56.918Z</time></trkpt><trkpt lat="53.8181535" lon="-1.9582301"><ele>241.0</ele><time>2026-04-26T12:59:57.919Z</time></trkpt><trkpt lat="53.818075" lon="-1.9585042"><ele>241.0</ele><time>2026-04-26T12:59:58.918Z</time></trkpt><trkpt lat="53.8179938" lon="-1.958781"><ele>241.0</ele><time>2026-04-26T12:59:59.919Z</time></trkpt><trkpt lat="53.8179113" lon="-1.9590613"><ele>241.0</ele><time>2026-04-26T13:00:00.921Z</time></trkpt><trkpt lat="53.8178271" lon="-1.959343"><ele>241.0</ele><time>2026-04-26T13:00:01.908Z</time></trkpt><trkpt lat="53.8177436" lon="-1.9596259"><ele>241.0</ele><time>2026-04-26T13:00:02.907Z</time></trkpt><trkpt lat="53.8176612" lon="-1.9599104"><ele>241.0</ele><time>2026-04-26T13:00:03.921Z</time></trkpt><trkpt lat="53.8175783" lon="-1.9601947"><ele>241.0</ele><time>2026-04-26T13:00:04.914Z</time></trkpt><trkpt lat="53.8174952" lon="-1.9604797"><ele>241.0</ele><time>2026-04-26T13:00:05.915Z</time></trkpt><trkpt lat="53.817414" lon="-1.9607518"><ele>241.0</ele><time>2026-04-26T13:00:06.916Z</time></trkpt><trkpt lat="53.8173408" lon="-1.9610013"><ele>241.0</ele><time>2026-04-26T13:00:07.915Z</time></trkpt><trkpt lat="53.8172736" lon="-1.9612233"><ele>241.5</ele><time>2026-04-26T13:00:08.913Z</time></trkpt><trkpt lat="53.8172141" lon="-1.9614181"><ele>242.0</ele><time>2026-04-26T13:00:09.915Z</time></trkpt><trkpt lat="53.8171653" lon="-1.9615979"><ele>242.5</ele><time>2026-04-26T13:00:10.916Z</time></trkpt><trkpt lat="53.817134" lon="-1.9617793"><ele>243.0</ele><time>2026-04-26T13:00:11.919Z</time></trkpt><trkpt lat="53.8171156" lon="-1.9619845"><ele>243.25</ele><time>2026-04-26T13:00:12.918Z</time></trkpt><trkpt lat="53.8171076" lon="-1.9622192"><ele>243.5</ele><time>2026-04-26T13:00:13.927Z</time></trkpt><trkpt lat="53.8171112" lon="-1.9624716"><ele>243.75</ele><time>2026-04-26T13:00:14.92Z</time></trkpt><trkpt lat="53.8170955" lon="-1.9627392"><ele>244.0</ele><time>2026-04-26T13:00:15.92Z</time></trkpt><trkpt lat="53.8170538" lon="-1.9630085"><ele>244.66666666666666</ele><time>2026-04-26T13:00:16.915Z</time></trkpt><trkpt lat="53.8169935" lon="-1.9632838"><ele>245.33333333333331</ele><time>2026-04-26T13:00:17.918Z</time></trkpt><trkpt lat="53.816929" lon="-1.9635727"><ele>246.0</ele><time>2026-04-26T13:00:18.919Z</time></trkpt><trkpt lat="53.8168709" lon="-1.9638663"><ele>246.33333333333331</ele><time>2026-04-26T13:00:19.921Z</time></trkpt><trkpt lat="53.816819" lon="-1.9641641"><ele>246.66666666666666</ele><time>2026-04-26T13:00:20.919Z</time></trkpt><trkpt lat="53.8167683" lon="-1.9644573"><ele>247.0</ele><time>2026-04-26T13:00:21.916Z</time></trkpt><trkpt lat="53.8167128" lon="-1.9647435"><ele>248.0</ele><time>2026-04-26T13:00:22.92Z</time></trkpt><trkpt lat="53.8166479" lon="-1.9650203"><ele>249.0</ele><time>2026-04-26T13:00:23.924Z</time></trkpt><trkpt lat="53.8165748" lon="-1.9652905"><ele>250.0</ele><time>2026-04-26T13:00:24.921Z</time></trkpt><trkpt lat="53.8164944" lon="-1.9655542"><ele>250.66666666666666</ele><time>2026-04-26T13:00:25.919Z</time></trkpt><trkpt lat="53.8164142" lon="-1.9658145"><ele>251.33333333333331</ele><time>2026-04-26T13:00:26.921Z</time></trkpt><trkpt lat="53.8163362" lon="-1.9660739"><ele>252.0</ele><time>2026-04-26T13:00:27.921Z</time></trkpt><trkpt lat="53.8162568" lon="-1.9663379"><ele>252.33333333333331</ele><time>2026-04-26T13:00:28.917Z</time></trkpt><trkpt lat="53.8161741" lon="-1.9666054"><ele>252.66666666666666</ele><time>2026-04-26T13:00:29.919Z</time></trkpt><trkpt lat="53.816087" lon="-1.9668764"><ele>253.0</ele><time>2026-04-26T13:00:30.92Z</time></trkpt><trkpt lat="53.8160022" lon="-1.9671443"><ele>253.0</ele><time>2026-04-26T13:00:31.917Z</time></trkpt><trkpt lat="53.8159246" lon="-1.9673948"><ele>253.0</ele><time>2026-04-26T13:00:32.917Z</time></trkpt><trkpt lat="53.8158516" lon="-1.9676247"><ele>253.0</ele><time>2026-04-26T13:00:33.92Z</time></trkpt><trkpt lat="53.8157866" lon="-1.9678312"><ele>253.0</ele><time>2026-04-26T13:00:34.916Z</time></trkpt><trkpt lat="53.8157276" lon="-1.9680068"><ele>253.0</ele><time>2026-04-26T13:00:35.914Z</time></trkpt><trkpt lat="53.8156768" lon="-1.9681521"><ele>253.0</ele><time>2026-04-26T13:00:36.915Z</time></trkpt><trkpt lat="53.8156361" lon="-1.9682711"><ele>253.0</ele><time>2026-04-26T13:00:37.917Z</time></trkpt><trkpt lat="53.8156033" lon="-1.9683722"><ele>253.0</ele><time>2026-04-26T13:00:38.915Z</time></trkpt><trkpt lat="53.8155658" lon="-1.968515"><ele>253.4</ele><time>2026-04-26T13:00:40.919Z</time></trkpt><trkpt lat="53.8155385" lon="-1.968628"><ele>253.8</ele><time>2026-04-26T13:00:41.919Z</time></trkpt><trkpt lat="53.8154967" lon="-1.9687758"><ele>254.2</ele><time>2026-04-26T13:00:42.92Z</time></trkpt><trkpt lat="53.8154465" lon="-1.9689619"><ele>254.6</ele><time>2026-04-26T13:00:43.921Z</time></trkpt><trkpt lat="53.8153944" lon="-1.969181"><ele>255.0</ele><time>2026-04-26T13:00:44.92Z</time></trkpt><trkpt lat="53.8153479" lon="-1.9694145"><ele>255.5</ele><time>2026-04-26T13:00:45.917Z</time></trkpt><trkpt lat="53.8153022" lon="-1.9696459"><ele>256.0</ele><time>2026-04-26T13:00:46.92Z</time></trkpt><trkpt lat="53.8152542" lon="-1.9698752"><ele>256.5</ele><time>2026-04-26T13:00:47.92Z</time></trkpt><trkpt lat="53.8152028" lon="-1.9701129"><ele>257.0</ele><time>2026-04-26T13:00:48.918Z</time></trkpt><trkpt lat="53.8151489" lon="-1.9703685"><ele>257.0</ele><time>2026-04-26T13:00:49.919Z</time></trkpt><trkpt lat="53.8150866" lon="-1.9706473"><ele>257.0</ele><time>2026-04-26T13:00:50.919Z</time></trkpt><trkpt lat="53.8150124" lon="-1.9709496"><ele>257.0</ele><time>2026-04-26T13:00:51.919Z</time></trkpt><trkpt lat="53.8149186" lon="-1.9712711"><ele>257.0</ele><time>2026-04-26T13:00:52.912Z</time></trkpt><trkpt lat="53.8148045" lon="-1.9715937"><ele>257.0</ele><time>2026-04-26T13:00:53.924Z</time></trkpt><trkpt lat="53.8146774" lon="-1.9719035"><ele>257.0</ele><time>2026-04-26T13:00:54.918Z</time></trkpt><trkpt lat="53.8145535" lon="-1.9722077"><ele>257.6666666666667</ele><time>2026-04-26T13:00:55.919Z</time></trkpt><trkpt lat="53.8144418" lon="-1.9725035"><ele>258.3333333333333</ele><time>2026-04-26T13:00:56.919Z</time></trkpt><trkpt lat="53.8143422" lon="-1.9727877"><ele>259.0</ele><time>2026-04-26T13:00:57.921Z</time></trkpt><trkpt lat="53.8142518" lon="-1.973067"><ele>257.0</ele><time>2026-04-26T13:00:58.918Z</time></trkpt><trkpt lat="53.8141698" lon="-1.9733478"><ele>255.0</ele><time>2026-04-26T13:00:59.922Z</time></trkpt><trkpt lat="53.8140941" lon="-1.9736365"><ele>253.0</ele><time>2026-04-26T13:01:00.919Z</time></trkpt><trkpt lat="53.8140228" lon="-1.9739145"><ele>253.0</ele><time>2026-04-26T13:01:01.919Z</time></trkpt><trkpt lat="53.8139571" lon="-1.9741744"><ele>253.0</ele><time>2026-04-26T13:01:02.92Z</time></trkpt><trkpt lat="53.8138985" lon="-1.9744036"><ele>253.0</ele><time>2026-04-26T13:01:03.925Z</time></trkpt><trkpt lat="53.8138488" lon="-1.9745959"><ele>253.0</ele><time>2026-04-26T13:01:04.918Z</time></trkpt><trkpt lat="53.8138085" lon="-1.9747534"><ele>253.4</ele><time>2026-04-26T13:01:05.919Z</time></trkpt><trkpt lat="53.8137819" lon="-1.9748711"><ele>253.8</ele><time>2026-04-26T13:01:06.916Z</time></trkpt><trkpt lat="53.8137597" lon="-1.9750238"><ele>254.2</ele><time>2026-04-26T13:01:08.919Z</time></trkpt><trkpt lat="53.8136979" lon="-1.9751094"><ele>254.6</ele><time>2026-04-26T13:05:12.924Z</time></trkpt><trkpt lat="53.8135565" lon="-1.9751701"><ele>255.0</ele><time>2026-04-26T13:05:14.923Z</time></trkpt><trkpt lat="53.8134535" lon="-1.9752208"><ele>252.75</ele><time>2026-04-26T13:05:15.923Z</time></trkpt><trkpt lat="53.8133218" lon="-1.9752741"><ele>250.5</ele><time>2026-04-26T13:05:16.92Z</time></trkpt><trkpt lat="53.8131771" lon="-1.9753379"><ele>248.25</ele><time>2026-04-26T13:05:17.922Z</time></trkpt><trkpt lat="53.8130275" lon="-1.9753988"><ele>246.0</ele><time>2026-04-26T13:05:18.916Z</time></trkpt><trkpt lat="53.8128732" lon="-1.9754655"><ele>246.0</ele><time>2026-04-26T13:05:19.923Z</time></trkpt><trkpt lat="53.8127161" lon="-1.9755374"><ele>246.0</ele><time>2026-04-26T13:05:20.924Z</time></trkpt><trkpt lat="53.8125729" lon="-1.9756162"><ele>246.0</ele><time>2026-04-26T13:05:21.922Z</time></trkpt><trkpt lat="53.8124456" lon="-1.975707"><ele>246.5</ele><time>2026-04-26T13:05:22.924Z</time></trkpt><trkpt lat="53.812339" lon="-1.9758242"><ele>247.0</ele><time>2026-04-26T13:05:23.924Z</time></trkpt><trkpt lat="53.812251" lon="-1.9759764"><ele>247.5</ele><time>2026-04-26T13:05:24.92Z</time></trkpt><trkpt lat="53.8121732" lon="-1.9761629"><ele>248.0</ele><time>2026-04-26T13:05:25.924Z</time></trkpt><trkpt lat="53.8120909" lon="-1.9763704"><ele>249.33333333333334</ele><time>2026-04-26T13:05:26.924Z</time></trkpt><trkpt lat="53.8120028" lon="-1.9766006"><ele>250.66666666666669</ele><time>2026-04-26T13:05:27.924Z</time></trkpt><trkpt lat="53.8119107" lon="-1.976839"><ele>252.0</ele><time>2026-04-26T13:05:28.922Z</time></trkpt><trkpt lat="53.8118265" lon="-1.9770593"><ele>254.0</ele><time>2026-04-26T13:05:29.923Z</time></trkpt><trkpt lat="53.8117606" lon="-1.9772487"><ele>256.0</ele><time>2026-04-26T13:05:30.923Z</time></trkpt><trkpt lat="53.8117233" lon="-1.977413"><ele>258.0</ele><time>2026-04-26T13:05:31.922Z</time></trkpt><trkpt lat="53.8117118" lon="-1.9775756"><ele>260.0</ele><time>2026-04-26T13:05:32.922Z</time></trkpt><trkpt lat="53.8117213" lon="-1.9777468"><ele>262.0</ele><time>2026-04-26T13:05:33.927Z</time></trkpt><trkpt lat="53.8117459" lon="-1.9779371"><ele>262.6</ele><time>2026-04-26T13:05:34.923Z</time></trkpt><trkpt lat="53.811773" lon="-1.9781343"><ele>263.2</ele><time>2026-04-26T13:05:35.923Z</time></trkpt><trkpt lat="53.8118002" lon="-1.9783198"><ele>263.8</ele><time>2026-04-26T13:05:36.922Z</time></trkpt><trkpt lat="53.8118239" lon="-1.9784939"><ele>264.4</ele><time>2026-04-26T13:05:37.925Z</time></trkpt><trkpt lat="53.8118466" lon="-1.978664"><ele>265.0</ele><time>2026-04-26T13:05:38.919Z</time></trkpt><trkpt lat="53.8118703" lon="-1.9788427"><ele>263.5</ele><time>2026-04-26T13:05:39.922Z</time></trkpt><trkpt lat="53.8118957" lon="-1.9790259"><ele>262.0</ele><time>2026-04-26T13:05:40.921Z</time></trkpt><trkpt lat="53.8119251" lon="-1.979223"><ele>260.5</ele><time>2026-04-26T13:05:41.923Z</time></trkpt><trkpt lat="53.8119539" lon="-1.9794304"><ele>259.0</ele><time>2026-04-26T13:05:42.92Z</time></trkpt><trkpt lat="53.8119812" lon="-1.9796353"><ele>259.4</ele><time>2026-04-26T13:05:43.919Z</time></trkpt><trkpt lat="53.812005" lon="-1.9798293"><ele>259.79999999999995</ele><time>2026-04-26T13:05:44.922Z</time></trkpt><trkpt lat="53.8120253" lon="-1.9800101"><ele>260.20000000000005</ele><time>2026-04-26T13:05:45.921Z</time></trkpt><trkpt lat="53.8120429" lon="-1.9801655"><ele>260.6</ele><time>2026-04-26T13:05:46.926Z</time></trkpt><trkpt lat="53.8120522" lon="-1.9802936"><ele>261.0</ele><time>2026-04-26T13:05:47.92Z</time></trkpt><trkpt lat="53.8120402" lon="-1.9804099"><ele>261.0</ele><time>2026-04-26T13:05:48.922Z</time></trkpt><trkpt lat="53.811998" lon="-1.980519"><ele>261.0</ele><time>2026-04-26T13:05:49.92Z</time></trkpt><trkpt lat="53.8119337" lon="-1.9806234"><ele>261.0</ele><time>2026-04-26T13:05:50.924Z</time></trkpt><trkpt lat="53.811856" lon="-1.9807208"><ele>261.0</ele><time>2026-04-26T13:05:51.92Z</time></trkpt><trkpt lat="53.8117663" lon="-1.9808231"><ele>261.0</ele><time>2026-04-26T13:05:52.92Z</time></trkpt><trkpt lat="53.8116766" lon="-1.9809321"><ele>264.0</ele><time>2026-04-26T13:05:53.926Z</time></trkpt><trkpt lat="53.8115919" lon="-1.9810619"><ele>267.0</ele><time>2026-04-26T13:05:54.921Z</time></trkpt><trkpt lat="53.8115061" lon="-1.9812035"><ele>270.0</ele><time>2026-04-26T13:05:55.92Z</time></trkpt><trkpt lat="53.8114185" lon="-1.9813471"><ele>273.0</ele><time>2026-04-26T13:05:56.921Z</time></trkpt><trkpt lat="53.8113376" lon="-1.9814809"><ele>273.0</ele><time>2026-04-26T13:05:57.922Z</time></trkpt><trkpt lat="53.811263" lon="-1.9815974"><ele>273.0</ele><time>2026-04-26T13:05:58.921Z</time></trkpt><trkpt lat="53.8111914" lon="-1.9817144"><ele>273.0</ele><time>2026-04-26T13:05:59.92Z</time></trkpt><trkpt lat="53.8111162" lon="-1.9818443"><ele>273.0</ele><time>2026-04-26T13:06:00.921Z</time></trkpt><trkpt lat="53.811036" lon="-1.9819869"><ele>273.0</ele><time>2026-04-26T13:06:01.922Z</time></trkpt><trkpt lat="53.8109459" lon="-1.9821303"><ele>275.25</ele><time>2026-04-26T13:06:02.923Z</time></trkpt><trkpt lat="53.8108449" lon="-1.9822747"><ele>277.5</ele><time>2026-04-26T13:06:03.929Z</time></trkpt><trkpt lat="53.8107416" lon="-1.9824159"><ele>279.75</ele><time>2026-04-26T13:06:04.921Z</time></trkpt><trkpt lat="53.8106394" lon="-1.9825526"><ele>282.0</ele><time>2026-04-26T13:06:05.922Z</time></trkpt><trkpt lat="53.8105415" lon="-1.9826879"><ele>282.75</ele><time>2026-04-26T13:06:06.925Z</time></trkpt><trkpt lat="53.8104493" lon="-1.9828232"><ele>283.5</ele><time>2026-04-26T13:06:07.923Z</time></trkpt><trkpt lat="53.8103579" lon="-1.9829605"><ele>284.25</ele><time>2026-04-26T13:06:08.923Z</time></trkpt><trkpt lat="53.8102696" lon="-1.9830935"><ele>285.0</ele><time>2026-04-26T13:06:09.924Z</time></trkpt><trkpt lat="53.8101842" lon="-1.9832276"><ele>287.4</ele><time>2026-04-26T13:06:10.923Z</time></trkpt><trkpt lat="53.8101004" lon="-1.9833627"><ele>289.8</ele><time>2026-04-26T13:06:11.921Z</time></trkpt><trkpt lat="53.8100199" lon="-1.9834946"><ele>292.2</ele><time>2026-04-26T13:06:12.911Z</time></trkpt><trkpt lat="53.8099408" lon="-1.9836214"><ele>294.6</ele><time>2026-04-26T13:06:13.926Z</time></trkpt><trkpt lat="53.8098746" lon="-1.9837345"><ele>297.0</ele><time>2026-04-26T13:06:14.922Z</time></trkpt><trkpt lat="53.809819" lon="-1.983835"><ele>297.0</ele><time>2026-04-26T13:06:15.921Z</time></trkpt><trkpt lat="53.8097727" lon="-1.9839304"><ele>297.0</ele><time>2026-04-26T13:06:16.922Z</time></trkpt><trkpt lat="53.8097306" lon="-1.9840099"><ele>297.0</ele><time>2026-04-26T13:06:17.922Z</time></trkpt><trkpt lat="53.8096335" lon="-1.9841121"><ele>297.0</ele><time>2026-04-26T13:06:19.921Z</time></trkpt><trkpt lat="53.8095409" lon="-1.9841964"><ele>297.0</ele><time>2026-04-26T13:06:21.924Z</time></trkpt><trkpt lat="53.8094676" lon="-1.98429"><ele>297.0</ele><time>2026-04-26T13:06:23.922Z</time></trkpt><trkpt lat="53.8093883" lon="-1.9844408"><ele>301.2</ele><time>2026-04-26T13:06:25.924Z</time></trkpt><trkpt lat="53.8093236" lon="-1.9846071"><ele>305.4</ele><time>2026-04-26T13:06:27.92Z</time></trkpt><trkpt lat="53.8092532" lon="-1.9847279"><ele>309.6</ele><time>2026-04-26T13:06:29.922Z</time></trkpt><trkpt lat="53.8091571" lon="-1.98484"><ele>313.8</ele><time>2026-04-26T13:06:31.922Z</time></trkpt><trkpt lat="53.8091005" lon="-1.98491"><ele>318.0</ele><time>2026-04-26T13:06:32.922Z</time></trkpt><trkpt lat="53.8090368" lon="-1.984989"><ele>319.3333333333333</ele><time>2026-04-26T13:06:33.926Z</time></trkpt><trkpt lat="53.8089688" lon="-1.985073"><ele>320.6666666666667</ele><time>2026-04-26T13:06:34.923Z</time></trkpt><trkpt lat="53.8088978" lon="-1.985161"><ele>322.0</ele><time>2026-04-26T13:06:35.923Z</time></trkpt><trkpt lat="53.80883" lon="-1.9852465"><ele>323.33333333333337</ele><time>2026-04-26T13:06:36.922Z</time></trkpt><trkpt lat="53.8087694" lon="-1.9853166"><ele>324.6666666666667</ele><time>2026-04-26T13:06:37.923Z</time></trkpt><trkpt lat="53.8087118" lon="-1.9853732"><ele>326.0</ele><time>2026-04-26T13:06:38.921Z</time></trkpt><trkpt lat="53.8086549" lon="-1.9854233"><ele>326.0</ele><time>2026-04-26T13:06:39.921Z</time></trkpt><trkpt lat="53.8085982" lon="-1.9854719"><ele>326.0</ele><time>2026-04-26T13:06:40.923Z</time></trkpt><trkpt lat="53.8084997" lon="-1.9855723"><ele>326.0</ele><time>2026-04-26T13:06:42.92Z</time></trkpt><trkpt lat="53.808433" lon="-1.9856868"><ele>326.0</ele><time>2026-04-26T13:06:44.92Z</time></trkpt><trkpt lat="53.8083287" lon="-1.9858427"><ele>326.0</ele><time>2026-04-26T13:06:46.922Z</time></trkpt><trkpt lat="53.8082616" lon="-1.9859307"><ele>329.4</ele><time>2026-04-26T13:06:47.92Z</time></trkpt><trkpt lat="53.8081908" lon="-1.9860315"><ele>332.8</ele><time>2026-04-26T13:06:48.917Z</time></trkpt><trkpt lat="53.8081191" lon="-1.9861374"><ele>336.2</ele><time>2026-04-26T13:06:49.922Z</time></trkpt><trkpt lat="53.8080416" lon="-1.9862391"><ele>339.59999999999997</ele><time>2026-04-26T13:06:50.922Z</time></trkpt><trkpt lat="53.8079652" lon="-1.9863313"><ele>343.0</ele><time>2026-04-26T13:06:51.921Z</time></trkpt><trkpt lat="53.8078928" lon="-1.9864119"><ele>343.0</ele><time>2026-04-26T13:06:52.92Z</time></trkpt><trkpt lat="53.8078194" lon="-1.9864907"><ele>343.0</ele><time>2026-04-26T13:06:53.915Z</time></trkpt><trkpt lat="53.8077427" lon="-1.9865743"><ele>343.0</ele><time>2026-04-26T13:06:54.922Z</time></trkpt><trkpt lat="53.8076674" lon="-1.9866709"><ele>343.0</ele><time>2026-04-26T13:06:55.921Z</time></trkpt><trkpt lat="53.8076003" lon="-1.9867919"><ele>343.0</ele><time>2026-04-26T13:06:56.921Z</time></trkpt><trkpt lat="53.8075371" lon="-1.9869316"><ele>345.2</ele><time>2026-04-26T13:06:57.922Z</time></trkpt><trkpt lat="53.8074786" lon="-1.9870822"><ele>347.4</ele><time>2026-04-26T13:06:58.923Z</time></trkpt><trkpt lat="53.8074232" lon="-1.9872353"><ele>349.59999999999997</ele><time>2026-04-26T13:06:59.922Z</time></trkpt><trkpt lat="53.8073753" lon="-1.9873904"><ele>351.79999999999995</ele><time>2026-04-26T13:07:00.922Z</time></trkpt><trkpt lat="53.8073211" lon="-1.9875452"><ele>354.0</ele><time>2026-04-26T13:07:01.922Z</time></trkpt><trkpt lat="53.8072528" lon="-1.9876968"><ele>354.5</ele><time>2026-04-26T13:07:02.923Z</time></trkpt><trkpt lat="53.8071644" lon="-1.9878512"><ele>355.0</ele><time>2026-04-26T13:07:03.929Z</time></trkpt><trkpt lat="53.8070601" lon="-1.9880097"><ele>355.5</ele><time>2026-04-26T13:07:04.923Z</time></trkpt><trkpt lat="53.8069569" lon="-1.9881534"><ele>356.0</ele><time>2026-04-26T13:07:05.923Z</time></trkpt><trkpt lat="53.8068686" lon="-1.9882755"><ele>357.1666666666667</ele><time>2026-04-26T13:07:06.925Z</time></trkpt><trkpt lat="53.8067945" lon="-1.988376"><ele>358.33333333333337</ele><time>2026-04-26T13:07:07.925Z</time></trkpt><trkpt lat="53.806724" lon="-1.9884528"><ele>359.5</ele><time>2026-04-26T13:07:08.925Z</time></trkpt><trkpt lat="53.8066454" lon="-1.9885011"><ele>360.6666666666667</ele><time>2026-04-26T13:07:09.921Z</time></trkpt><trkpt lat="53.8065619" lon="-1.988531"><ele>361.8333333333333</ele><time>2026-04-26T13:07:10.921Z</time></trkpt><trkpt lat="53.8064773" lon="-1.9885616"><ele>363.0</ele><time>2026-04-26T13:07:11.924Z</time></trkpt><trkpt lat="53.8063767" lon="-1.9886134"><ele>363.0</ele><time>2026-04-26T13:07:12.921Z</time></trkpt><trkpt lat="53.8062772" lon="-1.9886658"><ele>363.0</ele><time>2026-04-26T13:07:13.927Z</time></trkpt><trkpt lat="53.8061986" lon="-1.9887073"><ele>363.0</ele><time>2026-04-26T13:07:14.921Z</time></trkpt><trkpt lat="53.8061291" lon="-1.988727"><ele>363.0</ele><time>2026-04-26T13:07:15.922Z</time></trkpt><trkpt lat="53.8060539" lon="-1.988725"><ele>363.0</ele><time>2026-04-26T13:07:16.922Z</time></trkpt><trkpt lat="53.8059739" lon="-1.9887165"><ele>363.0</ele><time>2026-04-26T13:07:17.922Z</time></trkpt><trkpt lat="53.8058847" lon="-1.9887124"><ele>363.3333333333333</ele><time>2026-04-26T13:07:18.919Z</time></trkpt><trkpt lat="53.8057838" lon="-1.9887202"><ele>363.6666666666667</ele><time>2026-04-26T13:07:19.922Z</time></trkpt><trkpt lat="53.8056843" lon="-1.9887282"><ele>364.0</ele><time>2026-04-26T13:07:20.922Z</time></trkpt><trkpt lat="53.8055958" lon="-1.9887292"><ele>364.33333333333337</ele><time>2026-04-26T13:07:21.921Z</time></trkpt><trkpt lat="53.8055163" lon="-1.9887252"><ele>364.6666666666667</ele><time>2026-04-26T13:07:22.92Z</time></trkpt><trkpt lat="53.8054464" lon="-1.9887334"><ele>365.0</ele><time>2026-04-26T13:07:23.928Z</time></trkpt><trkpt lat="53.8053855" lon="-1.9887614"><ele>365.0</ele><time>2026-04-26T13:07:24.921Z</time></trkpt><trkpt lat="53.8053074" lon="-1.9888269"><ele>365.0</ele><time>2026-04-26T13:07:26.921Z</time></trkpt><trkpt lat="53.805235" lon="-1.9889066"><ele>365.0</ele><time>2026-04-26T13:07:30.921Z</time></trkpt><trkpt lat="53.8051626" lon="-1.9890607"><ele>365.0</ele><time>2026-04-26T13:07:32.919Z</time></trkpt><trkpt lat="53.8051085" lon="-1.989176"><ele>365.0</ele><time>2026-04-26T13:07:33.926Z</time></trkpt><trkpt lat="53.8050484" lon="-1.9893035"><ele>365.8</ele><time>2026-04-26T13:07:34.921Z</time></trkpt><trkpt lat="53.804988" lon="-1.9894414"><ele>366.6</ele><time>2026-04-26T13:07:35.922Z</time></trkpt><trkpt lat="53.8049237" lon="-1.9895897"><ele>367.4</ele><time>2026-04-26T13:07:36.92Z</time></trkpt><trkpt lat="53.8048552" lon="-1.989749"><ele>368.2</ele><time>2026-04-26T13:07:37.923Z</time></trkpt><trkpt lat="53.8047899" lon="-1.9899102"><ele>369.0</ele><time>2026-04-26T13:07:38.921Z</time></trkpt><trkpt lat="53.8047279" lon="-1.9900686"><ele>369.6</ele><time>2026-04-26T13:07:39.924Z</time></trkpt><trkpt lat="53.8046691" lon="-1.9902224"><ele>370.2</ele><time>2026-04-26T13:07:40.925Z</time></trkpt><trkpt lat="53.8046053" lon="-1.9903661"><ele>370.8</ele><time>2026-04-26T13:07:41.922Z</time></trkpt><trkpt lat="53.80454" lon="-1.9905061"><ele>371.40000000000003</ele><time>2026-04-26T13:07:42.921Z</time></trkpt><trkpt lat="53.8044767" lon="-1.9906472"><ele>372.0</ele><time>2026-04-26T13:07:43.927Z</time></trkpt><trkpt lat="53.8044101" lon="-1.990791"><ele>373.0</ele><time>2026-04-26T13:07:44.921Z</time></trkpt><trkpt lat="53.8043387" lon="-1.990942"><ele>374.0</ele><time>2026-04-26T13:07:45.921Z</time></trkpt><trkpt lat="53.8042697" lon="-1.9910984"><ele>375.0</ele><time>2026-04-26T13:07:46.921Z</time></trkpt><trkpt lat="53.8042036" lon="-1.991246"><ele>376.0</ele><time>2026-04-26T13:07:47.919Z</time></trkpt><trkpt lat="53.8041336" lon="-1.9913774"><ele>377.0</ele><time>2026-04-26T13:07:48.922Z</time></trkpt><trkpt lat="53.8040539" lon="-1.9915112"><ele>377.25</ele><time>2026-04-26T13:07:49.921Z</time></trkpt><trkpt lat="53.8039712" lon="-1.9916551"><ele>377.5</ele><time>2026-04-26T13:07:50.923Z</time></trkpt><trkpt lat="53.8038956" lon="-1.9918023"><ele>377.75</ele><time>2026-04-26T13:07:51.92Z</time></trkpt><trkpt lat="53.8038261" lon="-1.9919484"><ele>378.0</ele><time>2026-04-26T13:07:52.921Z</time></trkpt><trkpt lat="53.8037591" lon="-1.9920873"><ele>379.0</ele><time>2026-04-26T13:07:53.928Z</time></trkpt><trkpt lat="53.8036903" lon="-1.9922205"><ele>380.0</ele><time>2026-04-26T13:07:54.921Z</time></trkpt><trkpt lat="53.8036196" lon="-1.9923518"><ele>381.0</ele><time>2026-04-26T13:07:55.92Z</time></trkpt><trkpt lat="53.8035473" lon="-1.9924804"><ele>382.0</ele><time>2026-04-26T13:07:56.921Z</time></trkpt><trkpt lat="53.8034734" lon="-1.9926021"><ele>383.0</ele><time>2026-04-26T13:07:57.92Z</time></trkpt><trkpt lat="53.8033946" lon="-1.9927121"><ele>385.4</ele><time>2026-04-26T13:07:58.921Z</time></trkpt><trkpt lat="53.8033099" lon="-1.9928049"><ele>387.79999999999995</ele><time>2026-04-26T13:07:59.921Z</time></trkpt><trkpt lat="53.8032224" lon="-1.9928805"><ele>390.2</ele><time>2026-04-26T13:08:00.92Z</time></trkpt><trkpt lat="53.8031423" lon="-1.9929454"><ele>392.6</ele><time>2026-04-26T13:08:01.923Z</time></trkpt><trkpt lat="53.8030657" lon="-1.9929855"><ele>395.0</ele><time>2026-04-26T13:08:02.923Z</time></trkpt><trkpt lat="53.8029826" lon="-1.9929791"><ele>395.0</ele><time>2026-04-26T13:08:03.928Z</time></trkpt><trkpt lat="53.8028963" lon="-1.992922"><ele>395.0</ele><time>2026-04-26T13:08:04.922Z</time></trkpt><trkpt lat="53.8028098" lon="-1.9928306"><ele>395.0</ele><time>2026-04-26T13:08:05.924Z</time></trkpt><trkpt lat="53.802716" lon="-1.9927333"><ele>395.0</ele><time>2026-04-26T13:08:06.922Z</time></trkpt><trkpt lat="53.8026145" lon="-1.9926647"><ele>395.0</ele><time>2026-04-26T13:08:07.926Z</time></trkpt><trkpt lat="53.8025256" lon="-1.9926474"><ele>396.8333333333333</ele><time>2026-04-26T13:08:08.927Z</time></trkpt><trkpt lat="53.8024395" lon="-1.9926743"><ele>398.66666666666663</ele><time>2026-04-26T13:08:10.925Z</time></trkpt><trkpt lat="53.8024153" lon="-1.9927853"><ele>400.5</ele><time>2026-04-26T13:09:35.919Z</time></trkpt><trkpt lat="53.8023346" lon="-1.9929324"><ele>402.33333333333337</ele><time>2026-04-26T13:09:37.925Z</time></trkpt><trkpt lat="53.8022784" lon="-1.9929819"><ele>404.1666666666667</ele><time>2026-04-26T13:09:38.926Z</time></trkpt><trkpt lat="53.8021789" lon="-1.9929994"><ele>406.0</ele><time>2026-04-26T13:09:40.925Z</time></trkpt><trkpt lat="53.8021127" lon="-1.9930749"><ele>406.00000000000006</ele><time>2026-04-26T13:09:42.921Z</time></trkpt><trkpt lat="53.8020469" lon="-1.993222"><ele>406.0</ele><time>2026-04-26T13:09:54.913Z</time></trkpt><trkpt lat="53.8019983" lon="-1.9933168"><ele>406.0</ele><time>2026-04-26T13:09:55.921Z</time></trkpt><trkpt lat="53.8019403" lon="-1.9933938"><ele>406.0</ele><time>2026-04-26T13:09:56.923Z</time></trkpt><trkpt lat="53.8018838" lon="-1.9934667"><ele>406.00000000000006</ele><time>2026-04-26T13:09:57.919Z</time></trkpt><trkpt lat="53.8018288" lon="-1.9935482"><ele>406.0</ele><time>2026-04-26T13:09:58.92Z</time></trkpt><trkpt lat="53.8017752" lon="-1.9936324"><ele>408.1666666666667</ele><time>2026-04-26T13:09:59.914Z</time></trkpt><trkpt lat="53.8017285" lon="-1.9937218"><ele>410.33333333333337</ele><time>2026-04-26T13:10:00.92Z</time></trkpt><trkpt lat="53.8016865" lon="-1.993815"><ele>412.5</ele><time>2026-04-26T13:10:01.922Z</time></trkpt><trkpt lat="53.8016413" lon="-1.9939097"><ele>414.66666666666663</ele><time>2026-04-26T13:10:02.921Z</time></trkpt><trkpt lat="53.8015892" lon="-1.9940122"><ele>416.8333333333333</ele><time>2026-04-26T13:10:03.926Z</time></trkpt><trkpt lat="53.8015339" lon="-1.9941364"><ele>419.0</ele><time>2026-04-26T13:10:04.921Z</time></trkpt><trkpt lat="53.8014767" lon="-1.9942869"><ele>419.5</ele><time>2026-04-26T13:10:05.923Z</time></trkpt><trkpt lat="53.8014147" lon="-1.9944409"><ele>420.0</ele><time>2026-04-26T13:10:06.923Z</time></trkpt><trkpt lat="53.8013452" lon="-1.9946014"><ele>420.5</ele><time>2026-04-26T13:10:07.923Z</time></trkpt><trkpt lat="53.8012689" lon="-1.9947785"><ele>421.0</ele><time>2026-04-26T13:10:08.921Z</time></trkpt><trkpt lat="53.8011846" lon="-1.9949634"><ele>421.0</ele><time>2026-04-26T13:10:09.926Z</time></trkpt><trkpt lat="53.8010956" lon="-1.9951338"><ele>421.0</ele><time>2026-04-26T13:10:10.924Z</time></trkpt><trkpt lat="53.8010005" lon="-1.9952843"><ele>421.0</ele><time>2026-04-26T13:10:11.921Z</time></trkpt><trkpt lat="53.8008912" lon="-1.995415"><ele>421.0</ele><time>2026-04-26T13:10:12.919Z</time></trkpt><trkpt lat="53.8007682" lon="-1.995525"><ele>421.75</ele><time>2026-04-26T13:10:13.919Z</time></trkpt><trkpt lat="53.8006457" lon="-1.9956122"><ele>422.5</ele><time>2026-04-26T13:10:14.923Z</time></trkpt><trkpt lat="53.8005248" lon="-1.9956788"><ele>423.25</ele><time>2026-04-26T13:10:15.922Z</time></trkpt><trkpt lat="53.8003945" lon="-1.9957238"><ele>424.0</ele><time>2026-04-26T13:10:16.922Z</time></trkpt><trkpt lat="53.8002523" lon="-1.9957545"><ele>424.6666666666667</ele><time>2026-04-26T13:10:17.923Z</time></trkpt><trkpt lat="53.8001" lon="-1.9957827"><ele>425.33333333333337</ele><time>2026-04-26T13:10:18.922Z</time></trkpt><trkpt lat="53.7999406" lon="-1.9958202"><ele>426.0</ele><time>2026-04-26T13:10:19.923Z</time></trkpt><trkpt lat="53.7997739" lon="-1.99587"><ele>426.0</ele><time>2026-04-26T13:10:20.922Z</time></trkpt><trkpt lat="53.799605" lon="-1.9959203"><ele>426.0</ele><time>2026-04-26T13:10:21.923Z</time></trkpt><trkpt lat="53.7994374" lon="-1.9959654"><ele>426.0</ele><time>2026-04-26T13:10:22.922Z</time></trkpt><trkpt lat="53.7992759" lon="-1.9960016"><ele>426.0</ele><time>2026-04-26T13:10:23.93Z</time></trkpt><trkpt lat="53.7991236" lon="-1.9960313"><ele>426.0</ele><time>2026-04-26T13:10:24.921Z</time></trkpt><trkpt lat="53.7989796" lon="-1.996063"><ele>426.0</ele><time>2026-04-26T13:10:25.923Z</time></trkpt><trkpt lat="53.7988412" lon="-1.9961021"><ele>426.0</ele><time>2026-04-26T13:10:26.923Z</time></trkpt><trkpt lat="53.7987107" lon="-1.9961597"><ele>426.0</ele><time>2026-04-26T13:10:27.924Z</time></trkpt><trkpt lat="53.7985811" lon="-1.9962519"><ele>426.0</ele><time>2026-04-26T13:10:28.922Z</time></trkpt><trkpt lat="53.7984497" lon="-1.9963787"><ele>426.0</ele><time>2026-04-26T13:10:29.921Z</time></trkpt><trkpt lat="53.7983102" lon="-1.9965267"><ele>425.0</ele><time>2026-04-26T13:10:30.922Z</time></trkpt><trkpt lat="53.7981634" lon="-1.9966856"><ele>424.0</ele><time>2026-04-26T13:10:31.927Z</time></trkpt><trkpt lat="53.7980099" lon="-1.9968346"><ele>423.0</ele><time>2026-04-26T13:10:32.925Z</time></trkpt><trkpt lat="53.7978698" lon="-1.9969697"><ele>423.0</ele><time>2026-04-26T13:10:33.928Z</time></trkpt><trkpt lat="53.7977358" lon="-1.9971025"><ele>423.0</ele><time>2026-04-26T13:10:34.923Z</time></trkpt><trkpt lat="53.7976092" lon="-1.9972187"><ele>423.0</ele><time>2026-04-26T13:10:35.924Z</time></trkpt><trkpt lat="53.7974897" lon="-1.9973166"><ele>423.0</ele><time>2026-04-26T13:10:36.925Z</time></trkpt><trkpt lat="53.7973759" lon="-1.9974004"><ele>422.0</ele><time>2026-04-26T13:10:37.924Z</time></trkpt><trkpt lat="53.7972638" lon="-1.9974766"><ele>421.0</ele><time>2026-04-26T13:10:38.924Z</time></trkpt><trkpt lat="53.7971553" lon="-1.9975393"><ele>420.0</ele><time>2026-04-26T13:10:39.922Z</time></trkpt><trkpt lat="53.7970539" lon="-1.9975872"><ele>419.0</ele><time>2026-04-26T13:10:40.924Z</time></trkpt><trkpt lat="53.796964" lon="-1.9976243"><ele>418.0</ele><time>2026-04-26T13:10:41.922Z</time></trkpt><trkpt lat="53.7968765" lon="-1.9976584"><ele>416.2</ele><time>2026-04-26T13:10:42.921Z</time></trkpt><trkpt lat="53.7967939" lon="-1.9976972"><ele>414.4</ele><time>2026-04-26T13:10:43.924Z</time></trkpt><trkpt lat="53.7967155" lon="-1.9977469"><ele>412.59999999999997</ele><time>2026-04-26T13:10:44.924Z</time></trkpt><trkpt lat="53.7966359" lon="-1.9978112"><ele>410.79999999999995</ele><time>2026-04-26T13:10:45.922Z</time></trkpt><trkpt lat="53.7965495" lon="-1.9978963"><ele>409.0</ele><time>2026-04-26T13:10:46.924Z</time></trkpt><trkpt lat="53.7964537" lon="-1.997994"><ele>409.0</ele><time>2026-04-26T13:10:47.924Z</time></trkpt><trkpt lat="53.7963518" lon="-1.9981053"><ele>409.0</ele><time>2026-04-26T13:10:48.923Z</time></trkpt><trkpt lat="53.7962574" lon="-1.9982277"><ele>409.0</ele><time>2026-04-26T13:10:49.922Z</time></trkpt><trkpt lat="53.7961783" lon="-1.9983606"><ele>409.0</ele><time>2026-04-26T13:10:50.924Z</time></trkpt><trkpt lat="53.7961104" lon="-1.9985146"><ele>409.0</ele><time>2026-04-26T13:10:51.922Z</time></trkpt><trkpt lat="53.7960389" lon="-1.9986902"><ele>409.0</ele><time>2026-04-26T13:10:52.923Z</time></trkpt><trkpt lat="53.795958" lon="-1.9988776"><ele>409.0</ele><time>2026-04-26T13:10:53.925Z</time></trkpt><trkpt lat="53.7958565" lon="-1.9990735"><ele>409.0</ele><time>2026-04-26T13:10:54.924Z</time></trkpt><trkpt lat="53.7957438" lon="-1.9992666"><ele>404.33333333333337</ele><time>2026-04-26T13:10:55.919Z</time></trkpt><trkpt lat="53.7956204" lon="-1.9994644"><ele>399.66666666666663</ele><time>2026-04-26T13:10:56.922Z</time></trkpt><trkpt lat="53.795482" lon="-1.9996872"><ele>395.0</ele><time>2026-04-26T13:10:57.924Z</time></trkpt><trkpt lat="53.7953395" lon="-1.9999151"><ele>395.0</ele><time>2026-04-26T13:10:58.924Z</time></trkpt><trkpt lat="53.7952025" lon="-2.0001386"><ele>395.0</ele><time>2026-04-26T13:10:59.923Z</time></trkpt><trkpt lat="53.7950748" lon="-2.0003499"><ele>395.0</ele><time>2026-04-26T13:11:00.923Z</time></trkpt><trkpt lat="53.7949546" lon="-2.000544"><ele>392.75</ele><time>2026-04-26T13:11:01.925Z</time></trkpt><trkpt lat="53.7948415" lon="-2.0007259"><ele>390.5</ele><time>2026-04-26T13:11:02.926Z</time></trkpt><trkpt lat="53.7947407" lon="-2.0008911"><ele>388.25</ele><time>2026-04-26T13:11:03.931Z</time></trkpt><trkpt lat="53.7946536" lon="-2.0010328"><ele>386.0</ele><time>2026-04-26T13:11:04.924Z</time></trkpt><trkpt lat="53.7945862" lon="-2.0011447"><ele>385.8333333333333</ele><time>2026-04-26T13:11:05.924Z</time></trkpt><trkpt lat="53.7945387" lon="-2.0012195"><ele>385.66666666666663</ele><time>2026-04-26T13:11:06.924Z</time></trkpt><trkpt lat="53.7944932" lon="-2.0013047"><ele>385.5</ele><time>2026-04-26T13:11:08.924Z</time></trkpt><trkpt lat="53.7944115" lon="-2.0013534"><ele>385.33333333333337</ele><time>2026-04-26T13:11:41.925Z</time></trkpt><trkpt lat="53.7943312" lon="-2.001494"><ele>385.1666666666667</ele><time>2026-04-26T13:11:43.921Z</time></trkpt><trkpt lat="53.7942742" lon="-2.0015873"><ele>385.0</ele><time>2026-04-26T13:11:44.923Z</time></trkpt><trkpt lat="53.7942128" lon="-2.0016902"><ele>383.83333333333337</ele><time>2026-04-26T13:11:45.922Z</time></trkpt><trkpt lat="53.7941491" lon="-2.0017827"><ele>382.6666666666667</ele><time>2026-04-26T13:11:46.924Z</time></trkpt><trkpt lat="53.7940788" lon="-2.001847"><ele>381.5</ele><time>2026-04-26T13:11:47.922Z</time></trkpt><trkpt lat="53.7940014" lon="-2.0019087"><ele>380.33333333333337</ele><time>2026-04-26T13:11:48.921Z</time></trkpt><trkpt lat="53.7939218" lon="-2.0019705"><ele>379.1666666666667</ele><time>2026-04-26T13:11:49.922Z</time></trkpt><trkpt lat="53.7938472" lon="-2.0020255"><ele>378.0</ele><time>2026-04-26T13:11:50.924Z</time></trkpt><trkpt lat="53.7937792" lon="-2.0020754"><ele>378.0</ele><time>2026-04-26T13:11:51.922Z</time></trkpt><trkpt lat="53.793712" lon="-2.0021273"><ele>378.0</ele><time>2026-04-26T13:11:52.923Z</time></trkpt><trkpt lat="53.7936366" lon="-2.0021922"><ele>378.0</ele><time>2026-04-26T13:11:53.926Z</time></trkpt><trkpt lat="53.793543" lon="-2.0022684"><ele>378.0</ele><time>2026-04-26T13:11:54.924Z</time></trkpt><trkpt lat="53.7934341" lon="-2.0023619"><ele>378.0</ele><time>2026-04-26T13:11:55.922Z</time></trkpt><trkpt lat="53.7933208" lon="-2.0024647"><ele>376.75</ele><time>2026-04-26T13:11:56.923Z</time></trkpt><trkpt lat="53.7932042" lon="-2.0025761"><ele>375.5</ele><time>2026-04-26T13:11:57.926Z</time></trkpt><trkpt lat="53.7930823" lon="-2.0026984"><ele>374.25</ele><time>2026-04-26T13:11:58.927Z</time></trkpt><trkpt lat="53.7929624" lon="-2.0028357"><ele>373.0</ele><time>2026-04-26T13:11:59.923Z</time></trkpt><trkpt lat="53.7928498" lon="-2.0029835"><ele>373.0</ele><time>2026-04-26T13:12:00.923Z</time></trkpt><trkpt lat="53.7927396" lon="-2.0031331"><ele>373.0</ele><time>2026-04-26T13:12:01.927Z</time></trkpt><trkpt lat="53.7926297" lon="-2.0032893"><ele>373.0</ele><time>2026-04-26T13:12:02.926Z</time></trkpt><trkpt lat="53.7925174" lon="-2.0034425"><ele>373.0</ele><time>2026-04-26T13:12:03.924Z</time></trkpt><trkpt lat="53.7924048" lon="-2.0035781"><ele>371.0</ele><time>2026-04-26T13:12:04.925Z</time></trkpt><trkpt lat="53.7922897" lon="-2.0037015"><ele>369.0</ele><time>2026-04-26T13:12:05.926Z</time></trkpt><trkpt lat="53.7921664" lon="-2.0038143"><ele>367.0</ele><time>2026-04-26T13:12:06.925Z</time></trkpt><trkpt lat="53.7920392" lon="-2.003911"><ele>365.0</ele><time>2026-04-26T13:12:07.927Z</time></trkpt><trkpt lat="53.7919143" lon="-2.0039897"><ele>363.25</ele><time>2026-04-26T13:12:08.926Z</time></trkpt><trkpt lat="53.7917882" lon="-2.0040626"><ele>361.5</ele><time>2026-04-26T13:12:09.922Z</time></trkpt><trkpt lat="53.7916538" lon="-2.0041406"><ele>359.75</ele><time>2026-04-26T13:12:10.92Z</time></trkpt><trkpt lat="53.791514" lon="-2.0042113"><ele>358.0</ele><time>2026-04-26T13:12:11.922Z</time></trkpt><trkpt lat="53.791372" lon="-2.0042625"><ele>357.5</ele><time>2026-04-26T13:12:12.923Z</time></trkpt><trkpt lat="53.7912304" lon="-2.0043141"><ele>357.0</ele><time>2026-04-26T13:12:13.931Z</time></trkpt><trkpt lat="53.7910887" lon="-2.0043872"><ele>356.5</ele><time>2026-04-26T13:12:14.922Z</time></trkpt><trkpt lat="53.7909503" lon="-2.0044715"><ele>356.0</ele><time>2026-04-26T13:12:15.922Z</time></trkpt><trkpt lat="53.7908223" lon="-2.0045731"><ele>353.5</ele><time>2026-04-26T13:12:16.923Z</time></trkpt><trkpt lat="53.7907007" lon="-2.0046982"><ele>351.0</ele><time>2026-04-26T13:12:17.923Z</time></trkpt><trkpt lat="53.7905868" lon="-2.0048411"><ele>348.5</ele><time>2026-04-26T13:12:18.924Z</time></trkpt><trkpt lat="53.7904761" lon="-2.0050015"><ele>346.0</ele><time>2026-04-26T13:12:19.922Z</time></trkpt><trkpt lat="53.7903687" lon="-2.0051592"><ele>346.0</ele><time>2026-04-26T13:12:20.92Z</time></trkpt><trkpt lat="53.7902531" lon="-2.0053093"><ele>346.0</ele><time>2026-04-26T13:12:21.925Z</time></trkpt><trkpt lat="53.7901308" lon="-2.0054553"><ele>346.0</ele><time>2026-04-26T13:12:22.923Z</time></trkpt><trkpt lat="53.7900037" lon="-2.0056043"><ele>342.75</ele><time>2026-04-26T13:12:23.925Z</time></trkpt><trkpt lat="53.7898773" lon="-2.0057608"><ele>339.5</ele><time>2026-04-26T13:12:24.925Z</time></trkpt><trkpt lat="53.7897717" lon="-2.0059267"><ele>336.25</ele><time>2026-04-26T13:12:25.922Z</time></trkpt><trkpt lat="53.7896562" lon="-2.0060791"><ele>333.0</ele><time>2026-04-26T13:12:26.924Z</time></trkpt><trkpt lat="53.7895382" lon="-2.0062303"><ele>333.0</ele><time>2026-04-26T13:12:27.921Z</time></trkpt><trkpt lat="53.7894273" lon="-2.00638"><ele>333.0</ele><time>2026-04-26T13:12:28.922Z</time></trkpt><trkpt lat="53.7893222" lon="-2.006537"><ele>333.0</ele><time>2026-04-26T13:12:29.924Z</time></trkpt><trkpt lat="53.7892191" lon="-2.0066954"><ele>333.0</ele><time>2026-04-26T13:12:30.923Z</time></trkpt><trkpt lat="53.7891168" lon="-2.0068521"><ele>328.0</ele><time>2026-04-26T13:12:31.92Z</time></trkpt><trkpt lat="53.7890146" lon="-2.007009"><ele>323.0</ele><time>2026-04-26T13:12:32.92Z</time></trkpt><trkpt lat="53.788911" lon="-2.0071645"><ele>318.0</ele><time>2026-04-26T13:12:33.926Z</time></trkpt><trkpt lat="53.7888088" lon="-2.0073149"><ele>313.0</ele><time>2026-04-26T13:12:34.921Z</time></trkpt><trkpt lat="53.7887144" lon="-2.0074579"><ele>312.5</ele><time>2026-04-26T13:12:35.919Z</time></trkpt><trkpt lat="53.7886363" lon="-2.0075694"><ele>312.0</ele><time>2026-04-26T13:12:36.921Z</time></trkpt><trkpt lat="53.7885722" lon="-2.0076321"><ele>311.5</ele><time>2026-04-26T13:12:37.92Z</time></trkpt><trkpt lat="53.7884494" lon="-2.0075981"><ele>311.0</ele><time>2026-04-26T13:12:39.919Z</time></trkpt><trkpt lat="53.7883878" lon="-2.0075557"><ele>310.5</ele><time>2026-04-26T13:12:40.922Z</time></trkpt><trkpt lat="53.7883183" lon="-2.0075754"><ele>310.0</ele><time>2026-04-26T13:12:41.926Z</time></trkpt><trkpt lat="53.7882524" lon="-2.0076763"><ele>307.0</ele><time>2026-04-26T13:12:42.923Z</time></trkpt><trkpt lat="53.7881889" lon="-2.0078224"><ele>304.0</ele><time>2026-04-26T13:12:43.929Z</time></trkpt><trkpt lat="53.7881221" lon="-2.0079789"><ele>301.0</ele><time>2026-04-26T13:12:44.925Z</time></trkpt><trkpt lat="53.7880411" lon="-2.0081253"><ele>298.0</ele><time>2026-04-26T13:12:45.923Z</time></trkpt><trkpt lat="53.7879335" lon="-2.0082487"><ele>297.0</ele><time>2026-04-26T13:12:46.921Z</time></trkpt><trkpt lat="53.7877962" lon="-2.0083592"><ele>296.0</ele><time>2026-04-26T13:12:47.924Z</time></trkpt><trkpt lat="53.7876409" lon="-2.0084735"><ele>295.0</ele><time>2026-04-26T13:12:48.923Z</time></trkpt><trkpt lat="53.7874723" lon="-2.0085968"><ele>297.3333333333333</ele><time>2026-04-26T13:12:49.926Z</time></trkpt><trkpt lat="53.7873075" lon="-2.0087032"><ele>299.6666666666667</ele><time>2026-04-26T13:12:50.922Z</time></trkpt><trkpt lat="53.787135" lon="-2.0088065"><ele>302.0</ele><time>2026-04-26T13:12:51.923Z</time></trkpt><trkpt lat="53.7869606" lon="-2.008899"><ele>307.0</ele><time>2026-04-26T13:12:52.921Z</time></trkpt><trkpt lat="53.7867866" lon="-2.0089939"><ele>312.0</ele><time>2026-04-26T13:12:53.925Z</time></trkpt><trkpt lat="53.7866248" lon="-2.009079"><ele>317.0</ele><time>2026-04-26T13:12:54.92Z</time></trkpt><trkpt lat="53.7864689" lon="-2.0091357"><ele>316.25</ele><time>2026-04-26T13:12:55.924Z</time></trkpt><trkpt lat="53.7863102" lon="-2.0091711"><ele>315.5</ele><time>2026-04-26T13:12:56.923Z</time></trkpt><trkpt lat="53.7861622" lon="-2.0091953"><ele>314.75</ele><time>2026-04-26T13:12:57.923Z</time></trkpt><trkpt lat="53.7860256" lon="-2.009221"><ele>314.0</ele><time>2026-04-26T13:12:58.912Z</time></trkpt><trkpt lat="53.7858899" lon="-2.0092678"><ele>314.0</ele><time>2026-04-26T13:12:59.919Z</time></trkpt><trkpt lat="53.7857555" lon="-2.0093317"><ele>314.0</ele><time>2026-04-26T13:13:00.922Z</time></trkpt><trkpt lat="53.7856024" lon="-2.0094023"><ele>314.0</ele><time>2026-04-26T13:13:01.92Z</time></trkpt><trkpt lat="53.7854398" lon="-2.0094721"><ele>314.0</ele><time>2026-04-26T13:13:02.92Z</time></trkpt><trkpt lat="53.7852708" lon="-2.009547"><ele>314.0</ele><time>2026-04-26T13:13:03.923Z</time></trkpt><trkpt lat="53.785094" lon="-2.0096213"><ele>314.0</ele><time>2026-04-26T13:13:04.92Z</time></trkpt><trkpt lat="53.7849158" lon="-2.0096753"><ele>315.33333333333337</ele><time>2026-04-26T13:13:05.92Z</time></trkpt><trkpt lat="53.7847348" lon="-2.0097109"><ele>316.6666666666667</ele><time>2026-04-26T13:13:06.921Z</time></trkpt><trkpt lat="53.7845491" lon="-2.0097293"><ele>318.0</ele><time>2026-04-26T13:13:07.925Z</time></trkpt><trkpt lat="53.7843654" lon="-2.0097258"><ele>318.3333333333333</ele><time>2026-04-26T13:13:08.923Z</time></trkpt><trkpt lat="53.784182" lon="-2.0097053"><ele>318.66666666666663</ele><time>2026-04-26T13:13:09.913Z</time></trkpt><trkpt lat="53.7839985" lon="-2.0096759"><ele>319.0</ele><time>2026-04-26T13:13:10.92Z</time></trkpt><trkpt lat="53.7838195" lon="-2.0096507"><ele>319.0</ele><time>2026-04-26T13:13:11.922Z</time></trkpt><trkpt lat="53.7836488" lon="-2.0096352"><ele>319.0</ele><time>2026-04-26T13:13:12.924Z</time></trkpt><trkpt lat="53.7834909" lon="-2.0096194"><ele>319.0</ele><time>2026-04-26T13:13:13.921Z</time></trkpt><trkpt lat="53.78334" lon="-2.009591"><ele>318.0</ele><time>2026-04-26T13:13:14.915Z</time></trkpt><trkpt lat="53.7831935" lon="-2.0095415"><ele>317.0</ele><time>2026-04-26T13:13:15.923Z</time></trkpt><trkpt lat="53.7830482" lon="-2.0094706"><ele>316.0</ele><time>2026-04-26T13:13:16.923Z</time></trkpt><trkpt lat="53.7829045" lon="-2.0093819"><ele>316.0</ele><time>2026-04-26T13:13:17.923Z</time></trkpt><trkpt lat="53.7827771" lon="-2.0092836"><ele>316.0</ele><time>2026-04-26T13:13:18.922Z</time></trkpt><trkpt lat="53.7826641" lon="-2.0091942"><ele>316.0</ele><time>2026-04-26T13:13:19.924Z</time></trkpt><trkpt lat="53.7825467" lon="-2.0091388"><ele>316.0</ele><time>2026-04-26T13:13:20.926Z</time></trkpt><trkpt lat="53.7824212" lon="-2.0091248"><ele>317.5</ele><time>2026-04-26T13:13:21.924Z</time></trkpt><trkpt lat="53.7822937" lon="-2.0091295"><ele>319.0</ele><time>2026-04-26T13:13:22.924Z</time></trkpt><trkpt lat="53.7821508" lon="-2.0091233"><ele>320.5</ele><time>2026-04-26T13:13:23.932Z</time></trkpt><trkpt lat="53.7820086" lon="-2.0091021"><ele>322.0</ele><time>2026-04-26T13:13:24.923Z</time></trkpt><trkpt lat="53.7818758" lon="-2.0090734"><ele>320.5</ele><time>2026-04-26T13:13:25.923Z</time></trkpt><trkpt lat="53.7817473" lon="-2.0090254"><ele>319.0</ele><time>2026-04-26T13:13:26.921Z</time></trkpt><trkpt lat="53.7816119" lon="-2.0089402"><ele>317.5</ele><time>2026-04-26T13:13:27.925Z</time></trkpt><trkpt lat="53.7814696" lon="-2.008838"><ele>316.0</ele><time>2026-04-26T13:13:28.925Z</time></trkpt><trkpt lat="53.781336" lon="-2.0087508"><ele>316.0</ele><time>2026-04-26T13:13:29.927Z</time></trkpt><trkpt lat="53.7812199" lon="-2.0086652"><ele>316.0</ele><time>2026-04-26T13:13:30.925Z</time></trkpt><trkpt lat="53.7811167" lon="-2.0085534"><ele>316.0</ele><time>2026-04-26T13:13:31.925Z</time></trkpt><trkpt lat="53.7810227" lon="-2.0084117"><ele>316.0</ele><time>2026-04-26T13:13:32.926Z</time></trkpt><trkpt lat="53.780934" lon="-2.0082392"><ele>315.75</ele><time>2026-04-26T13:13:33.932Z</time></trkpt><trkpt lat="53.7808421" lon="-2.0080833"><ele>315.5</ele><time>2026-04-26T13:13:34.928Z</time></trkpt><trkpt lat="53.7807393" lon="-2.0079703"><ele>315.25</ele><time>2026-04-26T13:13:35.926Z</time></trkpt><trkpt lat="53.7806373" lon="-2.0078975"><ele>315.0</ele><time>2026-04-26T13:13:36.925Z</time></trkpt><trkpt lat="53.7805295" lon="-2.0078744"><ele>315.0</ele><time>2026-04-26T13:13:37.924Z</time></trkpt><trkpt lat="53.7804235" lon="-2.0079166"><ele>315.0</ele><time>2026-04-26T13:13:38.925Z</time></trkpt><trkpt lat="53.7803169" lon="-2.0080118"><ele>315.0</ele><time>2026-04-26T13:13:39.924Z</time></trkpt><trkpt lat="53.7802089" lon="-2.008121"><ele>315.0</ele><time>2026-04-26T13:13:40.926Z</time></trkpt><trkpt lat="53.7801001" lon="-2.0082114"><ele>315.4</ele><time>2026-04-26T13:13:41.924Z</time></trkpt><trkpt lat="53.7799966" lon="-2.0082688"><ele>315.8</ele><time>2026-04-26T13:13:42.923Z</time></trkpt><trkpt lat="53.7798996" lon="-2.0082727"><ele>316.2</ele><time>2026-04-26T13:13:43.93Z</time></trkpt><trkpt lat="53.7798099" lon="-2.0082106"><ele>316.6</ele><time>2026-04-26T13:13:44.923Z</time></trkpt><trkpt lat="53.7797293" lon="-2.0081063"><ele>317.0</ele><time>2026-04-26T13:13:45.922Z</time></trkpt><trkpt lat="53.7796367" lon="-2.0080304"><ele>317.0</ele><time>2026-04-26T13:13:46.924Z</time></trkpt><trkpt lat="53.7795296" lon="-2.0080153"><ele>317.0</ele><time>2026-04-26T13:13:47.926Z</time></trkpt><trkpt lat="53.7794128" lon="-2.0080812"><ele>317.0</ele><time>2026-04-26T13:13:48.926Z</time></trkpt><trkpt lat="53.7792955" lon="-2.0081847"><ele>317.0</ele><time>2026-04-26T13:13:49.923Z</time></trkpt><trkpt lat="53.7791694" lon="-2.0082995"><ele>315.5</ele><time>2026-04-26T13:13:50.924Z</time></trkpt><trkpt lat="53.7790331" lon="-2.0084101"><ele>314.0</ele><time>2026-04-26T13:13:51.922Z</time></trkpt><trkpt lat="53.7788957" lon="-2.0085085"><ele>312.5</ele><time>2026-04-26T13:13:52.924Z</time></trkpt><trkpt lat="53.7787656" lon="-2.0085858"><ele>311.0</ele><time>2026-04-26T13:13:53.93Z</time></trkpt><trkpt lat="53.7786304" lon="-2.0086494"><ele>312.0</ele><time>2026-04-26T13:13:54.926Z</time></trkpt><trkpt lat="53.7784899" lon="-2.0087097"><ele>313.0</ele><time>2026-04-26T13:13:55.915Z</time></trkpt><trkpt lat="53.7783384" lon="-2.0087743"><ele>314.0</ele><time>2026-04-26T13:13:56.923Z</time></trkpt><trkpt lat="53.7781742" lon="-2.0088476"><ele>314.0</ele><time>2026-04-26T13:13:57.927Z</time></trkpt><trkpt lat="53.7779968" lon="-2.0089325"><ele>314.0</ele><time>2026-04-26T13:13:58.926Z</time></trkpt><trkpt lat="53.7778073" lon="-2.0090365"><ele>314.0</ele><time>2026-04-26T13:13:59.929Z</time></trkpt><trkpt lat="53.7776095" lon="-2.0091528"><ele>312.33333333333337</ele><time>2026-04-26T13:14:00.929Z</time></trkpt><trkpt lat="53.7774215" lon="-2.0092626"><ele>310.6666666666667</ele><time>2026-04-26T13:14:01.926Z</time></trkpt><trkpt lat="53.7772563" lon="-2.0093486"><ele>309.0</ele><time>2026-04-26T13:14:02.926Z</time></trkpt><trkpt lat="53.7771124" lon="-2.0094012"><ele>309.0</ele><time>2026-04-26T13:14:03.93Z</time></trkpt><trkpt lat="53.7769723" lon="-2.0094223"><ele>309.0</ele><time>2026-04-26T13:14:04.928Z</time></trkpt><trkpt lat="53.7768172" lon="-2.0094263"><ele>309.0</ele><time>2026-04-26T13:14:05.926Z</time></trkpt><trkpt lat="53.7766575" lon="-2.0094216"><ele>311.0</ele><time>2026-04-26T13:14:06.926Z</time></trkpt><trkpt lat="53.7764867" lon="-2.0094076"><ele>313.0</ele><time>2026-04-26T13:14:07.926Z</time></trkpt><trkpt lat="53.7763119" lon="-2.0093805"><ele>315.0</ele><time>2026-04-26T13:14:08.928Z</time></trkpt><trkpt lat="53.7761466" lon="-2.009348"><ele>316.6666666666667</ele><time>2026-04-26T13:14:09.927Z</time></trkpt><trkpt lat="53.775986" lon="-2.0093327"><ele>318.33333333333337</ele><time>2026-04-26T13:14:10.931Z</time></trkpt><trkpt lat="53.7758194" lon="-2.0093484"><ele>320.0</ele><time>2026-04-26T13:14:11.926Z</time></trkpt><trkpt lat="53.7756418" lon="-2.009389"><ele>320.0</ele><time>2026-04-26T13:14:12.922Z</time></trkpt><trkpt lat="53.7754574" lon="-2.0094462"><ele>320.0</ele><time>2026-04-26T13:14:13.927Z</time></trkpt><trkpt lat="53.7752673" lon="-2.0095198"><ele>320.0</ele><time>2026-04-26T13:14:14.925Z</time></trkpt><trkpt lat="53.7750757" lon="-2.0095988"><ele>321.33333333333337</ele><time>2026-04-26T13:14:15.924Z</time></trkpt><trkpt lat="53.7748926" lon="-2.0096589"><ele>322.6666666666667</ele><time>2026-04-26T13:14:16.927Z</time></trkpt><trkpt lat="53.7747162" lon="-2.009686"><ele>324.0</ele><time>2026-04-26T13:14:17.925Z</time></trkpt><trkpt lat="53.7745449" lon="-2.0096909"><ele>324.0</ele><time>2026-04-26T13:14:18.924Z</time></trkpt><trkpt lat="53.7743838" lon="-2.0097077"><ele>324.0</ele><time>2026-04-26T13:14:19.923Z</time></trkpt><trkpt lat="53.7742329" lon="-2.0097752"><ele>324.0</ele><time>2026-04-26T13:14:20.925Z</time></trkpt><trkpt lat="53.7740858" lon="-2.009893"><ele>321.3333333333333</ele><time>2026-04-26T13:14:21.925Z</time></trkpt><trkpt lat="53.7739338" lon="-2.0100173"><ele>318.66666666666663</ele><time>2026-04-26T13:14:22.927Z</time></trkpt><trkpt lat="53.7737682" lon="-2.0101357"><ele>316.0</ele><time>2026-04-26T13:14:23.928Z</time></trkpt><trkpt lat="53.7735916" lon="-2.0102457"><ele>319.3333333333333</ele><time>2026-04-26T13:14:24.924Z</time></trkpt><trkpt lat="53.7734021" lon="-2.0103521"><ele>322.6666666666667</ele><time>2026-04-26T13:14:25.925Z</time></trkpt><trkpt lat="53.7732046" lon="-2.010465"><ele>326.0</ele><time>2026-04-26T13:14:26.926Z</time></trkpt><trkpt lat="53.7730125" lon="-2.0105688"><ele>326.0</ele><time>2026-04-26T13:14:27.925Z</time></trkpt><trkpt lat="53.7728253" lon="-2.0106543"><ele>326.0</ele><time>2026-04-26T13:14:28.926Z</time></trkpt><trkpt lat="53.7726345" lon="-2.0107212"><ele>326.0</ele><time>2026-04-26T13:14:29.924Z</time></trkpt><trkpt lat="53.7724389" lon="-2.0107746"><ele>324.33333333333337</ele><time>2026-04-26T13:14:30.924Z</time></trkpt><trkpt lat="53.7722383" lon="-2.0108188"><ele>322.6666666666667</ele><time>2026-04-26T13:14:31.926Z</time></trkpt><trkpt lat="53.7720492" lon="-2.0108564"><ele>321.0</ele><time>2026-04-26T13:14:32.926Z</time></trkpt><trkpt lat="53.7718755" lon="-2.0108894"><ele>322.0</ele><time>2026-04-26T13:14:33.927Z</time></trkpt><trkpt lat="53.7717121" lon="-2.0109187"><ele>323.0</ele><time>2026-04-26T13:14:34.924Z</time></trkpt><trkpt lat="53.7715558" lon="-2.0109425"><ele>324.0</ele><time>2026-04-26T13:14:35.926Z</time></trkpt><trkpt lat="53.7714075" lon="-2.0109617"><ele>324.0</ele><time>2026-04-26T13:14:36.925Z</time></trkpt><trkpt lat="53.7712693" lon="-2.0109825"><ele>324.0</ele><time>2026-04-26T13:14:37.925Z</time></trkpt><trkpt lat="53.7711433" lon="-2.0110017"><ele>324.0</ele><time>2026-04-26T13:14:38.929Z</time></trkpt><trkpt lat="53.7710246" lon="-2.0110176"><ele>324.0</ele><time>2026-04-26T13:14:39.926Z</time></trkpt><trkpt lat="53.7709079" lon="-2.0110235"><ele>323.79999999999995</ele><time>2026-04-26T13:14:40.928Z</time></trkpt><trkpt lat="53.7708003" lon="-2.0110153"><ele>323.59999999999997</ele><time>2026-04-26T13:14:41.927Z</time></trkpt><trkpt lat="53.7706976" lon="-2.010997"><ele>323.4</ele><time>2026-04-26T13:14:42.929Z</time></trkpt><trkpt lat="53.7705998" lon="-2.0109828"><ele>323.2</ele><time>2026-04-26T13:14:43.931Z</time></trkpt><trkpt lat="53.7705042" lon="-2.0109698"><ele>323.0</ele><time>2026-04-26T13:14:44.93Z</time></trkpt><trkpt lat="53.7704085" lon="-2.010958"><ele>323.0</ele><time>2026-04-26T13:14:45.929Z</time></trkpt><trkpt lat="53.7703178" lon="-2.0109513"><ele>323.0</ele><time>2026-04-26T13:14:46.926Z</time></trkpt><trkpt lat="53.7702333" lon="-2.0109439"><ele>323.0</ele><time>2026-04-26T13:14:47.928Z</time></trkpt><trkpt lat="53.7701531" lon="-2.0109365"><ele>323.0</ele><time>2026-04-26T13:14:48.925Z</time></trkpt><trkpt lat="53.7700755" lon="-2.0109283"><ele>323.0</ele><time>2026-04-26T13:14:49.923Z</time></trkpt><trkpt lat="53.7699988" lon="-2.0109176"><ele>323.0</ele><time>2026-04-26T13:14:50.923Z</time></trkpt><trkpt lat="53.7699258" lon="-2.0109011"><ele>323.2</ele><time>2026-04-26T13:14:51.922Z</time></trkpt><trkpt lat="53.7698605" lon="-2.0108768"><ele>323.4</ele><time>2026-04-26T13:14:52.925Z</time></trkpt><trkpt lat="53.7697657" lon="-2.0108214"><ele>323.59999999999997</ele><time>2026-04-26T13:14:54.923Z</time></trkpt><trkpt lat="53.7696951" lon="-2.0107808"><ele>323.79999999999995</ele><time>2026-04-26T13:14:56.924Z</time></trkpt><trkpt lat="53.7696203" lon="-2.0107297"><ele>324.0</ele><time>2026-04-26T13:14:58.924Z</time></trkpt><trkpt lat="53.7694861" lon="-2.0106878"><ele>326.0</ele><time>2026-04-26T13:15:00.925Z</time></trkpt><trkpt lat="53.7693706" lon="-2.0107043"><ele>328.0</ele><time>2026-04-26T13:15:01.923Z</time></trkpt><trkpt lat="53.769233" lon="-2.0107285"><ele>330.0</ele><time>2026-04-26T13:15:02.922Z</time></trkpt><trkpt lat="53.7690638" lon="-2.0107462"><ele>332.0</ele><time>2026-04-26T13:15:03.929Z</time></trkpt><trkpt lat="53.7688742" lon="-2.0107554"><ele>332.0</ele><time>2026-04-26T13:15:04.922Z</time></trkpt><trkpt lat="53.7686932" lon="-2.010746"><ele>332.0</ele><time>2026-04-26T13:15:05.923Z</time></trkpt><trkpt lat="53.7685266" lon="-2.0107161"><ele>332.0</ele><time>2026-04-26T13:15:06.923Z</time></trkpt><trkpt lat="53.7683754" lon="-2.0106798"><ele>331.0</ele><time>2026-04-26T13:15:07.922Z</time></trkpt><trkpt lat="53.7682308" lon="-2.0106455"><ele>330.0</ele><time>2026-04-26T13:15:08.922Z</time></trkpt><trkpt lat="53.7680955" lon="-2.0106224"><ele>329.0</ele><time>2026-04-26T13:15:09.928Z</time></trkpt><trkpt lat="53.7679584" lon="-2.0106086"><ele>328.0</ele><time>2026-04-26T13:15:10.927Z</time></trkpt><trkpt lat="53.7678215" lon="-2.0105965"><ele>326.5</ele><time>2026-04-26T13:15:11.923Z</time></trkpt><trkpt lat="53.7676859" lon="-2.0105877"><ele>325.0</ele><time>2026-04-26T13:15:12.923Z</time></trkpt><trkpt lat="53.767543" lon="-2.0105782"><ele>323.5</ele><time>2026-04-26T13:15:13.928Z</time></trkpt><trkpt lat="53.7673958" lon="-2.0105827"><ele>322.0</ele><time>2026-04-26T13:15:14.923Z</time></trkpt><trkpt lat="53.7672517" lon="-2.0106165"><ele>322.0</ele><time>2026-04-26T13:15:15.923Z</time></trkpt><trkpt lat="53.7671099" lon="-2.0106599"><ele>322.0</ele><time>2026-04-26T13:15:16.924Z</time></trkpt><trkpt lat="53.7669697" lon="-2.0106845"><ele>322.0</ele><time>2026-04-26T13:15:17.917Z</time></trkpt><trkpt lat="53.7668275" lon="-2.0106885"><ele>322.0</ele><time>2026-04-26T13:15:18.921Z</time></trkpt><trkpt lat="53.7666818" lon="-2.0106692"><ele>321.0</ele><time>2026-04-26T13:15:19.92Z</time></trkpt><trkpt lat="53.766531" lon="-2.0106328"><ele>320.0</ele><time>2026-04-26T13:15:20.922Z</time></trkpt><trkpt lat="53.7663736" lon="-2.0105876"><ele>319.0</ele><time>2026-04-26T13:15:21.924Z</time></trkpt><trkpt lat="53.7662132" lon="-2.0105369"><ele>319.0</ele><time>2026-04-26T13:15:22.924Z</time></trkpt><trkpt lat="53.7660485" lon="-2.0104741"><ele>319.0</ele><time>2026-04-26T13:15:23.928Z</time></trkpt><trkpt lat="53.7658834" lon="-2.0104077"><ele>319.0</ele><time>2026-04-26T13:15:24.921Z</time></trkpt><trkpt lat="53.7657222" lon="-2.0103472"><ele>317.25</ele><time>2026-04-26T13:15:25.925Z</time></trkpt><trkpt lat="53.7655712" lon="-2.0102878"><ele>315.5</ele><time>2026-04-26T13:15:26.924Z</time></trkpt><trkpt lat="53.7654301" lon="-2.0102218"><ele>313.75</ele><time>2026-04-26T13:15:27.922Z</time></trkpt><trkpt lat="53.7652926" lon="-2.0101468"><ele>312.0</ele><time>2026-04-26T13:15:28.924Z</time></trkpt><trkpt lat="53.7651565" lon="-2.0100716"><ele>311.25</ele><time>2026-04-26T13:15:29.923Z</time></trkpt><trkpt lat="53.7650261" lon="-2.0099963"><ele>310.5</ele><time>2026-04-26T13:15:30.923Z</time></trkpt><trkpt lat="53.764907" lon="-2.009913"><ele>309.75</ele><time>2026-04-26T13:15:31.927Z</time></trkpt><trkpt lat="53.7648034" lon="-2.0098097"><ele>309.0</ele><time>2026-04-26T13:15:32.927Z</time></trkpt><trkpt lat="53.7647163" lon="-2.0096927"><ele>309.0</ele><time>2026-04-26T13:15:33.93Z</time></trkpt><trkpt lat="53.7646388" lon="-2.0095542"><ele>309.0</ele><time>2026-04-26T13:15:34.923Z</time></trkpt><trkpt lat="53.7645642" lon="-2.0093926"><ele>309.0</ele><time>2026-04-26T13:15:35.922Z</time></trkpt><trkpt lat="53.7644896" lon="-2.0092189"><ele>309.0</ele><time>2026-04-26T13:15:36.924Z</time></trkpt><trkpt lat="53.7644158" lon="-2.0090447"><ele>306.25</ele><time>2026-04-26T13:15:37.926Z</time></trkpt><trkpt lat="53.7643382" lon="-2.0088664"><ele>303.5</ele><time>2026-04-26T13:15:38.926Z</time></trkpt><trkpt lat="53.7642564" lon="-2.008687"><ele>300.75</ele><time>2026-04-26T13:15:39.924Z</time></trkpt><trkpt lat="53.7641688" lon="-2.0085028"><ele>298.0</ele><time>2026-04-26T13:15:40.926Z</time></trkpt><trkpt lat="53.7640716" lon="-2.0083095"><ele>298.0</ele><time>2026-04-26T13:15:41.924Z</time></trkpt><trkpt lat="53.763978" lon="-2.0081133"><ele>298.0</ele><time>2026-04-26T13:15:42.923Z</time></trkpt><trkpt lat="53.7638945" lon="-2.0079242"><ele>298.0</ele><time>2026-04-26T13:15:43.931Z</time></trkpt><trkpt lat="53.7638192" lon="-2.0077484"><ele>298.0</ele><time>2026-04-26T13:15:44.923Z</time></trkpt><trkpt lat="53.7637516" lon="-2.0075876"><ele>298.6</ele><time>2026-04-26T13:15:45.922Z</time></trkpt><trkpt lat="53.7636887" lon="-2.0074433"><ele>299.20000000000005</ele><time>2026-04-26T13:15:46.924Z</time></trkpt><trkpt lat="53.7636309" lon="-2.0073015"><ele>299.8</ele><time>2026-04-26T13:15:47.923Z</time></trkpt><trkpt lat="53.7635779" lon="-2.0071528"><ele>300.40000000000003</ele><time>2026-04-26T13:15:48.918Z</time></trkpt><trkpt lat="53.7635269" lon="-2.0069987"><ele>301.0</ele><time>2026-04-26T13:15:49.921Z</time></trkpt><trkpt lat="53.7634808" lon="-2.0068431"><ele>298.40000000000003</ele><time>2026-04-26T13:15:50.92Z</time></trkpt><trkpt lat="53.763435" lon="-2.0066874"><ele>295.8</ele><time>2026-04-26T13:15:51.921Z</time></trkpt><trkpt lat="53.763391" lon="-2.0065325"><ele>293.20000000000005</ele><time>2026-04-26T13:15:52.922Z</time></trkpt><trkpt lat="53.7633519" lon="-2.0063834"><ele>290.6</ele><time>2026-04-26T13:15:53.928Z</time></trkpt><trkpt lat="53.7633165" lon="-2.0062404"><ele>288.0</ele><time>2026-04-26T13:15:54.922Z</time></trkpt><trkpt lat="53.7632855" lon="-2.0061022"><ele>287.8333333333333</ele><time>2026-04-26T13:15:55.922Z</time></trkpt><trkpt lat="53.7632549" lon="-2.0059771"><ele>287.6666666666667</ele><time>2026-04-26T13:15:56.922Z</time></trkpt><trkpt lat="53.7632276" lon="-2.0058732"><ele>287.5</ele><time>2026-04-26T13:15:57.921Z</time></trkpt><trkpt lat="53.7631962" lon="-2.0057475"><ele>287.33333333333337</ele><time>2026-04-26T13:15:59.922Z</time></trkpt><trkpt lat="53.7631593" lon="-2.0056255"><ele>287.1666666666667</ele><time>2026-04-26T13:16:02.923Z</time></trkpt><trkpt lat="53.763117" lon="-2.0054818"><ele>287.0</ele><time>2026-04-26T13:16:04.921Z</time></trkpt><trkpt lat="53.7630784" lon="-2.0053962"><ele>287.5</ele><time>2026-04-26T13:16:05.922Z</time></trkpt><trkpt lat="53.7630289" lon="-2.0053166"><ele>288.0</ele><time>2026-04-26T13:16:06.921Z</time></trkpt><trkpt lat="53.7629774" lon="-2.0052514"><ele>288.5</ele><time>2026-04-26T13:16:07.921Z</time></trkpt><trkpt lat="53.7628916" lon="-2.0051678"><ele>289.0</ele><time>2026-04-26T13:16:09.921Z</time></trkpt><trkpt lat="53.7627889" lon="-2.0051576"><ele>289.5</ele><time>2026-04-26T13:16:12.921Z</time></trkpt><trkpt lat="53.7627176" lon="-2.0051509"><ele>290.0</ele><time>2026-04-26T13:16:13.933Z</time></trkpt><trkpt lat="53.7626183" lon="-2.0051219"><ele>289.8</ele><time>2026-04-26T13:16:14.927Z</time></trkpt><trkpt lat="53.7625017" lon="-2.0050798"><ele>289.6</ele><time>2026-04-26T13:16:15.924Z</time></trkpt><trkpt lat="53.7623892" lon="-2.0050396"><ele>289.4</ele><time>2026-04-26T13:16:16.921Z</time></trkpt><trkpt lat="53.7622853" lon="-2.0050061"><ele>289.2</ele><time>2026-04-26T13:16:17.924Z</time></trkpt><trkpt lat="53.7621835" lon="-2.0049812"><ele>289.0</ele><time>2026-04-26T13:16:18.921Z</time></trkpt><trkpt lat="53.7620785" lon="-2.0049618"><ele>289.0</ele><time>2026-04-26T13:16:19.922Z</time></trkpt><trkpt lat="53.7619701" lon="-2.0049696"><ele>289.0</ele><time>2026-04-26T13:16:20.923Z</time></trkpt><trkpt lat="53.7618631" lon="-2.0050232"><ele>289.0</ele><time>2026-04-26T13:16:21.922Z</time></trkpt><trkpt lat="53.76176" lon="-2.005115"><ele>289.0</ele><time>2026-04-26T13:16:22.919Z</time></trkpt><trkpt lat="53.7616709" lon="-2.0052375"><ele>286.75</ele><time>2026-04-26T13:16:23.927Z</time></trkpt><trkpt lat="53.7616075" lon="-2.0053993"><ele>284.5</ele><time>2026-04-26T13:16:24.922Z</time></trkpt><trkpt lat="53.7615629" lon="-2.0055927"><ele>282.25</ele><time>2026-04-26T13:16:25.92Z</time></trkpt><trkpt lat="53.7615139" lon="-2.0057959"><ele>280.0</ele><time>2026-04-26T13:16:26.923Z</time></trkpt><trkpt lat="53.7614554" lon="-2.005988"><ele>278.5</ele><time>2026-04-26T13:16:27.923Z</time></trkpt><trkpt lat="53.7613864" lon="-2.00616"><ele>277.0</ele><time>2026-04-26T13:16:28.924Z</time></trkpt><trkpt lat="53.7613067" lon="-2.0063071"><ele>275.5</ele><time>2026-04-26T13:16:29.921Z</time></trkpt><trkpt lat="53.7612131" lon="-2.0064243"><ele>274.0</ele><time>2026-04-26T13:16:30.922Z</time></trkpt><trkpt lat="53.7611082" lon="-2.0065066"><ele>273.25</ele><time>2026-04-26T13:16:31.92Z</time></trkpt><trkpt lat="53.7609925" lon="-2.0065785"><ele>272.5</ele><time>2026-04-26T13:16:32.919Z</time></trkpt><trkpt lat="53.7608778" lon="-2.0066469"><ele>271.75</ele><time>2026-04-26T13:16:33.928Z</time></trkpt><trkpt lat="53.7607691" lon="-2.0067303"><ele>271.0</ele><time>2026-04-26T13:16:34.923Z</time></trkpt><trkpt lat="53.7606567" lon="-2.0068286"><ele>271.0</ele><time>2026-04-26T13:16:35.924Z</time></trkpt><trkpt lat="53.7605464" lon="-2.006934"><ele>271.0</ele><time>2026-04-26T13:16:36.922Z</time></trkpt><trkpt lat="53.7604359" lon="-2.0070505"><ele>271.0</ele><time>2026-04-26T13:16:37.922Z</time></trkpt><trkpt lat="53.7603208" lon="-2.0071775"><ele>271.0</ele><time>2026-04-26T13:16:38.923Z</time></trkpt><trkpt lat="53.760203" lon="-2.0073187"><ele>272.3333333333333</ele><time>2026-04-26T13:16:39.922Z</time></trkpt><trkpt lat="53.7600835" lon="-2.0074724"><ele>273.6666666666667</ele><time>2026-04-26T13:16:40.914Z</time></trkpt><trkpt lat="53.7599638" lon="-2.0076313"><ele>275.0</ele><time>2026-04-26T13:16:41.913Z</time></trkpt><trkpt lat="53.7598467" lon="-2.0077924"><ele>272.5</ele><time>2026-04-26T13:16:42.922Z</time></trkpt><trkpt lat="53.7597327" lon="-2.0079527"><ele>270.0</ele><time>2026-04-26T13:16:43.926Z</time></trkpt><trkpt lat="53.7596198" lon="-2.0081104"><ele>267.5</ele><time>2026-04-26T13:16:44.922Z</time></trkpt><trkpt lat="53.759511" lon="-2.0082698"><ele>265.0</ele><time>2026-04-26T13:16:45.923Z</time></trkpt><trkpt lat="53.7594068" lon="-2.0084299"><ele>263.5</ele><time>2026-04-26T13:16:46.922Z</time></trkpt><trkpt lat="53.7593053" lon="-2.0085928"><ele>262.0</ele><time>2026-04-26T13:16:47.924Z</time></trkpt><trkpt lat="53.7592006" lon="-2.0087593"><ele>260.5</ele><time>2026-04-26T13:16:48.923Z</time></trkpt><trkpt lat="53.7590909" lon="-2.0089334"><ele>259.0</ele><time>2026-04-26T13:16:49.922Z</time></trkpt><trkpt lat="53.7589793" lon="-2.0091153"><ele>258.0</ele><time>2026-04-26T13:16:50.924Z</time></trkpt><trkpt lat="53.7588695" lon="-2.0092934"><ele>257.0</ele><time>2026-04-26T13:16:51.922Z</time></trkpt><trkpt lat="53.7587625" lon="-2.0094618"><ele>256.0</ele><time>2026-04-26T13:16:52.926Z</time></trkpt><trkpt lat="53.758652" lon="-2.0096263"><ele>255.0</ele><time>2026-04-26T13:16:53.93Z</time></trkpt><trkpt lat="53.7585326" lon="-2.0097699"><ele>255.0</ele><time>2026-04-26T13:16:54.926Z</time></trkpt><trkpt lat="53.7583963" lon="-2.0098946"><ele>255.0</ele><time>2026-04-26T13:16:55.923Z</time></trkpt><trkpt lat="53.7582454" lon="-2.010005"><ele>255.0</ele><time>2026-04-26T13:16:56.926Z</time></trkpt><trkpt lat="53.758092" lon="-2.0100987"><ele>252.5</ele><time>2026-04-26T13:16:57.924Z</time></trkpt><trkpt lat="53.7579445" lon="-2.0101697"><ele>250.0</ele><time>2026-04-26T13:16:58.925Z</time></trkpt><trkpt lat="53.7578152" lon="-2.0102104"><ele>247.5</ele><time>2026-04-26T13:16:59.922Z</time></trkpt><trkpt lat="53.7576993" lon="-2.0102153"><ele>245.0</ele><time>2026-04-26T13:17:00.92Z</time></trkpt><trkpt lat="53.7575953" lon="-2.0101882"><ele>243.5</ele><time>2026-04-26T13:17:01.921Z</time></trkpt><trkpt lat="53.7575027" lon="-2.0101174"><ele>242.0</ele><time>2026-04-26T13:17:02.922Z</time></trkpt><trkpt lat="53.7574167" lon="-2.0099839"><ele>240.5</ele><time>2026-04-26T13:17:03.928Z</time></trkpt><trkpt lat="53.7573388" lon="-2.0098044"><ele>239.0</ele><time>2026-04-26T13:17:04.923Z</time></trkpt><trkpt lat="53.757248" lon="-2.009598"><ele>243.66666666666669</ele><time>2026-04-26T13:17:05.921Z</time></trkpt><trkpt lat="53.7571413" lon="-2.0094014"><ele>248.33333333333331</ele><time>2026-04-26T13:17:06.922Z</time></trkpt><trkpt lat="53.7570143" lon="-2.0092333"><ele>253.0</ele><time>2026-04-26T13:17:07.921Z</time></trkpt><trkpt lat="53.7568827" lon="-2.0090967"><ele>253.75</ele><time>2026-04-26T13:17:08.922Z</time></trkpt><trkpt lat="53.7567501" lon="-2.0089887"><ele>254.5</ele><time>2026-04-26T13:17:09.923Z</time></trkpt><trkpt lat="53.7566154" lon="-2.0089142"><ele>255.25</ele><time>2026-04-26T13:17:10.922Z</time></trkpt><trkpt lat="53.7564778" lon="-2.0088619"><ele>256.0</ele><time>2026-04-26T13:17:11.919Z</time></trkpt><trkpt lat="53.7563376" lon="-2.0088305"><ele>256.0</ele><time>2026-04-26T13:17:12.924Z</time></trkpt><trkpt lat="53.7561967" lon="-2.0088149"><ele>256.0</ele><time>2026-04-26T13:17:13.926Z</time></trkpt><trkpt lat="53.7560541" lon="-2.0087997"><ele>256.0</ele><time>2026-04-26T13:17:14.921Z</time></trkpt><trkpt lat="53.755912" lon="-2.008778"><ele>256.0</ele><time>2026-04-26T13:17:15.924Z</time></trkpt><trkpt lat="53.7557693" lon="-2.00873"><ele>251.0</ele><time>2026-04-26T13:17:16.924Z</time></trkpt><trkpt lat="53.7556263" lon="-2.0086653"><ele>246.0</ele><time>2026-04-26T13:17:17.924Z</time></trkpt><trkpt lat="53.7554795" lon="-2.0086022"><ele>241.0</ele><time>2026-04-26T13:17:18.925Z</time></trkpt><trkpt lat="53.755328" lon="-2.0085411"><ele>236.33333333333331</ele><time>2026-04-26T13:17:19.925Z</time></trkpt><trkpt lat="53.755177" lon="-2.0084942"><ele>231.66666666666669</ele><time>2026-04-26T13:17:20.924Z</time></trkpt><trkpt lat="53.755021" lon="-2.0084597"><ele>227.0</ele><time>2026-04-26T13:17:21.922Z</time></trkpt><trkpt lat="53.7548724" lon="-2.0084416"><ele>227.0</ele><time>2026-04-26T13:17:22.921Z</time></trkpt><trkpt lat="53.7547267" lon="-2.0084359"><ele>227.0</ele><time>2026-04-26T13:17:23.924Z</time></trkpt><trkpt lat="53.7545858" lon="-2.0084383"><ele>227.0</ele><time>2026-04-26T13:17:24.922Z</time></trkpt><trkpt lat="53.7544432" lon="-2.0084456"><ele>227.0</ele><time>2026-04-26T13:17:25.924Z</time></trkpt><trkpt lat="53.7542975" lon="-2.0084662"><ele>226.0</ele><time>2026-04-26T13:17:26.922Z</time></trkpt><trkpt lat="53.7541529" lon="-2.0085026"><ele>225.0</ele><time>2026-04-26T13:17:27.921Z</time></trkpt><trkpt lat="53.7540079" lon="-2.0085442"><ele>224.0</ele><time>2026-04-26T13:17:28.921Z</time></trkpt><trkpt lat="53.7538631" lon="-2.0085868"><ele>223.0</ele><time>2026-04-26T13:17:29.919Z</time></trkpt><trkpt lat="53.7537206" lon="-2.0086258"><ele>223.0</ele><time>2026-04-26T13:17:30.921Z</time></trkpt><trkpt lat="53.7535777" lon="-2.0086592"><ele>223.0</ele><time>2026-04-26T13:17:31.916Z</time></trkpt><trkpt lat="53.7534338" lon="-2.0086795"><ele>223.0</ele><time>2026-04-26T13:17:32.918Z</time></trkpt><trkpt lat="53.7532884" lon="-2.0086848"><ele>223.0</ele><time>2026-04-26T13:17:33.918Z</time></trkpt><trkpt lat="53.7531434" lon="-2.0086841"><ele>222.25</ele><time>2026-04-26T13:17:34.925Z</time></trkpt><trkpt lat="53.752999" lon="-2.0087001"><ele>221.5</ele><time>2026-04-26T13:17:35.922Z</time></trkpt><trkpt lat="53.7528611" lon="-2.0087516"><ele>220.75</ele><time>2026-04-26T13:17:36.923Z</time></trkpt><trkpt lat="53.7527294" lon="-2.0088424"><ele>220.0</ele><time>2026-04-26T13:17:37.928Z</time></trkpt><trkpt lat="53.7525992" lon="-2.0089661"><ele>223.66666666666666</ele><time>2026-04-26T13:17:38.926Z</time></trkpt><trkpt lat="53.7524701" lon="-2.009104"><ele>227.33333333333331</ele><time>2026-04-26T13:17:39.925Z</time></trkpt><trkpt lat="53.7523365" lon="-2.009272"><ele>231.0</ele><time>2026-04-26T13:17:40.92Z</time></trkpt><trkpt lat="53.7522015" lon="-2.0094504"><ele>229.0</ele><time>2026-04-26T13:17:41.924Z</time></trkpt><trkpt lat="53.7520682" lon="-2.0096141"><ele>227.0</ele><time>2026-04-26T13:17:42.923Z</time></trkpt><trkpt lat="53.7519402" lon="-2.0097628"><ele>225.0</ele><time>2026-04-26T13:17:43.936Z</time></trkpt><trkpt lat="53.7518151" lon="-2.0099007"><ele>216.0</ele><time>2026-04-26T13:17:44.936Z</time></trkpt><trkpt lat="53.7516897" lon="-2.0100322"><ele>207.0</ele><time>2026-04-26T13:17:45.937Z</time></trkpt><trkpt lat="53.7515625" lon="-2.0101651"><ele>198.0</ele><time>2026-04-26T13:17:46.936Z</time></trkpt><trkpt lat="53.7514336" lon="-2.0103046"><ele>198.0</ele><time>2026-04-26T13:17:47.936Z</time></trkpt><trkpt lat="53.7513046" lon="-2.0104493"><ele>198.0</ele><time>2026-04-26T13:17:48.933Z</time></trkpt><trkpt lat="53.751179" lon="-2.0105984"><ele>198.0</ele><time>2026-04-26T13:17:49.933Z</time></trkpt><trkpt lat="53.7510598" lon="-2.0107463"><ele>196.75</ele><time>2026-04-26T13:17:50.918Z</time></trkpt><trkpt lat="53.750949" lon="-2.0108908"><ele>195.5</ele><time>2026-04-26T13:17:51.917Z</time></trkpt><trkpt lat="53.7508459" lon="-2.0110332"><ele>194.25</ele><time>2026-04-26T13:17:52.917Z</time></trkpt><trkpt lat="53.7507442" lon="-2.0111634"><ele>193.0</ele><time>2026-04-26T13:17:53.918Z</time></trkpt><trkpt lat="53.7506415" lon="-2.0112703"><ele>193.0</ele><time>2026-04-26T13:17:54.916Z</time></trkpt><trkpt lat="53.7505263" lon="-2.0113569"><ele>193.0</ele><time>2026-04-26T13:17:55.919Z</time></trkpt><trkpt lat="53.7504035" lon="-2.0114188"><ele>193.0</ele><time>2026-04-26T13:17:56.919Z</time></trkpt><trkpt lat="53.7502737" lon="-2.0114615"><ele>193.0</ele><time>2026-04-26T13:17:57.918Z</time></trkpt><trkpt lat="53.750134" lon="-2.0114943"><ele>196.25</ele><time>2026-04-26T13:17:58.918Z</time></trkpt><trkpt lat="53.7499971" lon="-2.0115306"><ele>199.5</ele><time>2026-04-26T13:17:59.92Z</time></trkpt><trkpt lat="53.7498653" lon="-2.0115675"><ele>202.75</ele><time>2026-04-26T13:18:00.919Z</time></trkpt><trkpt lat="53.7497378" lon="-2.0116031"><ele>206.0</ele><time>2026-04-26T13:18:01.921Z</time></trkpt><trkpt lat="53.7496129" lon="-2.0116408"><ele>199.0</ele><time>2026-04-26T13:18:02.922Z</time></trkpt><trkpt lat="53.7494878" lon="-2.0116791"><ele>192.0</ele><time>2026-04-26T13:18:03.924Z</time></trkpt><trkpt lat="53.7493648" lon="-2.0117172"><ele>185.0</ele><time>2026-04-26T13:18:04.919Z</time></trkpt><trkpt lat="53.7492501" lon="-2.0117486"><ele>178.0</ele><time>2026-04-26T13:18:05.92Z</time></trkpt><trkpt lat="53.7491422" lon="-2.0117792"><ele>177.60000000000002</ele><time>2026-04-26T13:18:06.923Z</time></trkpt><trkpt lat="53.7490387" lon="-2.0118172"><ele>177.20000000000002</ele><time>2026-04-26T13:18:07.924Z</time></trkpt><trkpt lat="53.7489384" lon="-2.0118514"><ele>176.8</ele><time>2026-04-26T13:18:08.922Z</time></trkpt><trkpt lat="53.7488368" lon="-2.0118726"><ele>176.4</ele><time>2026-04-26T13:18:09.921Z</time></trkpt><trkpt lat="53.7487335" lon="-2.0118792"><ele>176.0</ele><time>2026-04-26T13:18:10.922Z</time></trkpt><trkpt lat="53.7486284" lon="-2.0118721"><ele>175.8</ele><time>2026-04-26T13:18:11.914Z</time></trkpt><trkpt lat="53.7485271" lon="-2.0118436"><ele>175.60000000000002</ele><time>2026-04-26T13:18:12.919Z</time></trkpt><trkpt lat="53.7484294" lon="-2.0117914"><ele>175.4</ele><time>2026-04-26T13:18:13.913Z</time></trkpt><trkpt lat="53.7483317" lon="-2.0117231"><ele>175.2</ele><time>2026-04-26T13:18:14.921Z</time></trkpt><trkpt lat="53.7482366" lon="-2.0116524"><ele>175.0</ele><time>2026-04-26T13:18:15.924Z</time></trkpt><trkpt lat="53.7481404" lon="-2.0115802"><ele>175.0</ele><time>2026-04-26T13:18:16.923Z</time></trkpt><trkpt lat="53.7480449" lon="-2.0115058"><ele>175.0</ele><time>2026-04-26T13:18:17.924Z</time></trkpt><trkpt lat="53.7479495" lon="-2.0114292"><ele>175.0</ele><time>2026-04-26T13:18:18.922Z</time></trkpt><trkpt lat="53.7478589" lon="-2.0113541"><ele>175.0</ele><time>2026-04-26T13:18:19.923Z</time></trkpt><trkpt lat="53.7477712" lon="-2.0112862"><ele>175.0</ele><time>2026-04-26T13:18:20.922Z</time></trkpt><trkpt lat="53.7476868" lon="-2.0112174"><ele>171.2</ele><time>2026-04-26T13:18:21.918Z</time></trkpt><trkpt lat="53.7476028" lon="-2.0111461"><ele>167.4</ele><time>2026-04-26T13:18:22.918Z</time></trkpt><trkpt lat="53.7475275" lon="-2.0110765"><ele>163.6</ele><time>2026-04-26T13:18:23.921Z</time></trkpt><trkpt lat="53.7474502" lon="-2.0110044"><ele>159.8</ele><time>2026-04-26T13:18:24.917Z</time></trkpt><trkpt lat="53.747385" lon="-2.0109485"><ele>156.0</ele><time>2026-04-26T13:18:25.919Z</time></trkpt><trkpt lat="53.747286" lon="-2.0108538"><ele>154.66666666666666</ele><time>2026-04-26T13:18:27.918Z</time></trkpt><trkpt lat="53.7472052" lon="-2.0107753"><ele>153.33333333333334</ele><time>2026-04-26T13:18:29.92Z</time></trkpt><trkpt lat="53.7471418" lon="-2.0107036"><ele>152.0</ele><time>2026-04-26T13:18:31.919Z</time></trkpt><trkpt lat="53.7470759" lon="-2.0106096"><ele>150.66666666666669</ele><time>2026-04-26T13:18:34.919Z</time></trkpt><trkpt lat="53.74702" lon="-2.0105566"><ele>149.33333333333334</ele><time>2026-04-26T13:18:36.92Z</time></trkpt><trkpt lat="53.7469396" lon="-2.0104946"><ele>148.0</ele><time>2026-04-26T13:18:38.921Z</time></trkpt><trkpt lat="53.7468653" lon="-2.0103941"><ele>148.0</ele><time>2026-04-26T13:18:40.918Z</time></trkpt><trkpt lat="53.746796" lon="-2.0102936"><ele>148.0</ele><time>2026-04-26T13:18:42.919Z</time></trkpt><trkpt lat="53.7467251" lon="-2.0102096"><ele>148.0</ele><time>2026-04-26T13:18:44.92Z</time></trkpt><trkpt lat="53.7466522" lon="-2.0101353"><ele>148.0</ele><time>2026-04-26T13:18:46.919Z</time></trkpt><trkpt lat="53.7465818" lon="-2.0100104"><ele>148.0</ele><time>2026-04-26T13:18:48.915Z</time></trkpt><trkpt lat="53.7465033" lon="-2.0099053"><ele>151.5</ele><time>2026-04-26T13:18:50.917Z</time></trkpt><trkpt lat="53.7464389" lon="-2.0098108"><ele>155.0</ele><time>2026-04-26T13:18:52.919Z</time></trkpt><trkpt lat="53.7463702" lon="-2.0097539"><ele>158.5</ele><time>2026-04-26T13:18:54.913Z</time></trkpt><trkpt lat="53.7463083" lon="-2.009697"><ele>162.0</ele><time>2026-04-26T13:18:56.918Z</time></trkpt><trkpt lat="53.7462213" lon="-2.0096193"><ele>165.5</ele><time>2026-04-26T13:18:58.916Z</time></trkpt><trkpt lat="53.7461503" lon="-2.0095685"><ele>169.0</ele><time>2026-04-26T13:18:59.917Z</time></trkpt><trkpt lat="53.7460688" lon="-2.0095148"><ele>166.28571428571428</ele><time>2026-04-26T13:19:00.919Z</time></trkpt><trkpt lat="53.7459877" lon="-2.009472"><ele>163.57142857142856</ele><time>2026-04-26T13:19:01.921Z</time></trkpt><trkpt lat="53.7459147" lon="-2.0094452"><ele>160.85714285714283</ele><time>2026-04-26T13:19:02.919Z</time></trkpt><trkpt lat="53.745844" lon="-2.0094336"><ele>158.14285714285714</ele><time>2026-04-26T13:19:03.923Z</time></trkpt><trkpt lat="53.7457752" lon="-2.0094249"><ele>155.42857142857142</ele><time>2026-04-26T13:19:04.918Z</time></trkpt><trkpt lat="53.7457098" lon="-2.0094195"><ele>152.7142857142857</ele><time>2026-04-26T13:19:05.917Z</time></trkpt><trkpt lat="53.7456405" lon="-2.0094192"><ele>150.0</ele><time>2026-04-26T13:19:06.918Z</time></trkpt><trkpt lat="53.7455739" lon="-2.0094192"><ele>150.0</ele><time>2026-04-26T13:19:07.919Z</time></trkpt><trkpt lat="53.7454996" lon="-2.0094104"><ele>150.0</ele><time>2026-04-26T13:19:08.919Z</time></trkpt><trkpt lat="53.7454027" lon="-2.0094036"><ele>150.0</ele><time>2026-04-26T13:19:09.921Z</time></trkpt><trkpt lat="53.7452947" lon="-2.0094012"><ele>150.0</ele><time>2026-04-26T13:19:10.918Z</time></trkpt><trkpt lat="53.74519" lon="-2.0093982"><ele>150.0</ele><time>2026-04-26T13:19:11.921Z</time></trkpt><trkpt lat="53.7450933" lon="-2.0093936"><ele>149.4</ele><time>2026-04-26T13:19:12.921Z</time></trkpt><trkpt lat="53.7450032" lon="-2.0093874"><ele>148.8</ele><time>2026-04-26T13:19:13.92Z</time></trkpt><trkpt lat="53.7449211" lon="-2.0093596"><ele>148.2</ele><time>2026-04-26T13:19:14.918Z</time></trkpt><trkpt lat="53.744838" lon="-2.0092908"><ele>147.6</ele><time>2026-04-26T13:19:15.924Z</time></trkpt><trkpt lat="53.7447486" lon="-2.0091868"><ele>147.0</ele><time>2026-04-26T13:19:16.922Z</time></trkpt><trkpt lat="53.7446592" lon="-2.0090841"><ele>147.0</ele><time>2026-04-26T13:19:17.923Z</time></trkpt><trkpt lat="53.7445699" lon="-2.0090162"><ele>147.0</ele><time>2026-04-26T13:19:18.919Z</time></trkpt><trkpt lat="53.7444839" lon="-2.0089964"><ele>147.0</ele><time>2026-04-26T13:19:19.919Z</time></trkpt><trkpt lat="53.7443994" lon="-2.0090242"><ele>147.0</ele><time>2026-04-26T13:19:20.921Z</time></trkpt><trkpt lat="53.7443115" lon="-2.0090981"><ele>147.0</ele><time>2026-04-26T13:19:21.92Z</time></trkpt><trkpt lat="53.7442256" lon="-2.0091937"><ele>143.79999999999998</ele><time>2026-04-26T13:19:22.918Z</time></trkpt><trkpt lat="53.74414" lon="-2.0093033"><ele>140.6</ele><time>2026-04-26T13:19:23.924Z</time></trkpt><trkpt lat="53.744069" lon="-2.0094439"><ele>137.39999999999998</ele><time>2026-04-26T13:19:24.92Z</time></trkpt><trkpt lat="53.7440209" lon="-2.0096128"><ele>134.2</ele><time>2026-04-26T13:19:25.92Z</time></trkpt><trkpt lat="53.7439801" lon="-2.0098032"><ele>131.0</ele><time>2026-04-26T13:19:26.922Z</time></trkpt><trkpt lat="53.743941" lon="-2.0099926"><ele>128.6</ele><time>2026-04-26T13:19:27.922Z</time></trkpt><trkpt lat="53.7438987" lon="-2.0101723"><ele>126.19999999999999</ele><time>2026-04-26T13:19:28.915Z</time></trkpt><trkpt lat="53.7438498" lon="-2.0103271"><ele>123.80000000000001</ele><time>2026-04-26T13:19:29.917Z</time></trkpt><trkpt lat="53.743786" lon="-2.0104451"><ele>121.4</ele><time>2026-04-26T13:19:30.917Z</time></trkpt><trkpt lat="53.7437083" lon="-2.0105384"><ele>119.0</ele><time>2026-04-26T13:19:31.921Z</time></trkpt><trkpt lat="53.7436157" lon="-2.0106349"><ele>120.25</ele><time>2026-04-26T13:19:32.918Z</time></trkpt><trkpt lat="53.7435194" lon="-2.0107528"><ele>121.5</ele><time>2026-04-26T13:19:33.919Z</time></trkpt><trkpt lat="53.7434135" lon="-2.0108923"><ele>122.75</ele><time>2026-04-26T13:19:34.919Z</time></trkpt><trkpt lat="53.7432945" lon="-2.0110426"><ele>124.0</ele><time>2026-04-26T13:19:35.919Z</time></trkpt><trkpt lat="53.7431825" lon="-2.011192"><ele>124.0</ele><time>2026-04-26T13:19:36.923Z</time></trkpt><trkpt lat="53.7430884" lon="-2.0113269"><ele>124.0</ele><time>2026-04-26T13:19:37.927Z</time></trkpt><trkpt lat="53.7430021" lon="-2.0114406"><ele>124.0</ele><time>2026-04-26T13:19:38.922Z</time></trkpt><trkpt lat="53.742915" lon="-2.01153"><ele>124.0</ele><time>2026-04-26T13:19:39.921Z</time></trkpt><trkpt lat="53.742827" lon="-2.0115891"><ele>124.0</ele><time>2026-04-26T13:19:40.912Z</time></trkpt><trkpt lat="53.7427426" lon="-2.0116136"><ele>124.0</ele><time>2026-04-26T13:19:41.92Z</time></trkpt><trkpt lat="53.7426538" lon="-2.0116095"><ele>124.0</ele><time>2026-04-26T13:19:42.924Z</time></trkpt><trkpt lat="53.7425651" lon="-2.0115922"><ele>124.0</ele><time>2026-04-26T13:19:43.924Z</time></trkpt><trkpt lat="53.7424743" lon="-2.0115706"><ele>124.0</ele><time>2026-04-26T13:19:44.922Z</time></trkpt><trkpt lat="53.7423796" lon="-2.0115532"><ele>124.0</ele><time>2026-04-26T13:19:45.917Z</time></trkpt><trkpt lat="53.7422849" lon="-2.0115378"><ele>124.0</ele><time>2026-04-26T13:19:46.919Z</time></trkpt><trkpt lat="53.7421886" lon="-2.0115156"><ele>124.0</ele><time>2026-04-26T13:19:47.918Z</time></trkpt><trkpt lat="53.742087" lon="-2.0114825"><ele>124.0</ele><time>2026-04-26T13:19:48.923Z</time></trkpt><trkpt lat="53.7419847" lon="-2.011433"><ele>124.0</ele><time>2026-04-26T13:19:49.92Z</time></trkpt><trkpt lat="53.7418821" lon="-2.0113598"><ele>124.0</ele><time>2026-04-26T13:19:50.917Z</time></trkpt><trkpt lat="53.7417786" lon="-2.0112546"><ele>121.0</ele><time>2026-04-26T13:19:51.923Z</time></trkpt><trkpt lat="53.7416724" lon="-2.0111149"><ele>118.0</ele><time>2026-04-26T13:19:52.922Z</time></trkpt><trkpt lat="53.7415584" lon="-2.0109402"><ele>115.0</ele><time>2026-04-26T13:19:53.927Z</time></trkpt><trkpt lat="53.7414319" lon="-2.0107506"><ele>115.75</ele><time>2026-04-26T13:19:54.921Z</time></trkpt><trkpt lat="53.7413069" lon="-2.010563"><ele>116.5</ele><time>2026-04-26T13:19:55.923Z</time></trkpt><trkpt lat="53.7411975" lon="-2.0104091"><ele>117.25</ele><time>2026-04-26T13:19:56.922Z</time></trkpt><trkpt lat="53.741087" lon="-2.0102935"><ele>118.0</ele><time>2026-04-26T13:19:57.92Z</time></trkpt><trkpt lat="53.740974" lon="-2.010211"><ele>118.0</ele><time>2026-04-26T13:19:58.917Z</time></trkpt><trkpt lat="53.7408608" lon="-2.0101673"><ele>118.00000000000001</ele><time>2026-04-26T13:19:59.914Z</time></trkpt><trkpt lat="53.7407504" lon="-2.0101311"><ele>118.00000000000001</ele><time>2026-04-26T13:20:00.917Z</time></trkpt><trkpt lat="53.7406478" lon="-2.0100789"><ele>118.0</ele><time>2026-04-26T13:20:01.914Z</time></trkpt><trkpt lat="53.7405479" lon="-2.0100108"><ele>118.0</ele><time>2026-04-26T13:20:02.915Z</time></trkpt><trkpt lat="53.7404553" lon="-2.0099365"><ele>117.4</ele><time>2026-04-26T13:20:03.92Z</time></trkpt><trkpt lat="53.7403692" lon="-2.0098671"><ele>116.80000000000001</ele><time>2026-04-26T13:20:04.917Z</time></trkpt><trkpt lat="53.7403005" lon="-2.0098065"><ele>116.2</ele><time>2026-04-26T13:20:05.917Z</time></trkpt><trkpt lat="53.7402079" lon="-2.0097189"><ele>115.6</ele><time>2026-04-26T13:20:07.918Z</time></trkpt><trkpt lat="53.7401468" lon="-2.0096548"><ele>115.0</ele><time>2026-04-26T13:20:10.918Z</time></trkpt><trkpt lat="53.7400422" lon="-2.0094931"><ele>115.0</ele><time>2026-04-26T13:20:12.916Z</time></trkpt><trkpt lat="53.7399621" lon="-2.0093679"><ele>115.0</ele><time>2026-04-26T13:20:13.917Z</time></trkpt><trkpt lat="53.7398898" lon="-2.0092484"><ele>115.0</ele><time>2026-04-26T13:20:14.918Z</time></trkpt><trkpt lat="53.739809" lon="-2.0091133"><ele>115.0</ele><time>2026-04-26T13:20:15.92Z</time></trkpt><trkpt lat="53.7397298" lon="-2.0089745"><ele>115.0</ele><time>2026-04-26T13:20:16.923Z</time></trkpt><trkpt lat="53.7396607" lon="-2.0088504"><ele>113.50000000000001</ele><time>2026-04-26T13:20:17.919Z</time></trkpt><trkpt lat="53.7396001" lon="-2.0087371"><ele>112.0</ele><time>2026-04-26T13:20:18.919Z</time></trkpt><trkpt lat="53.7395384" lon="-2.0086304"><ele>110.5</ele><time>2026-04-26T13:20:19.917Z</time></trkpt><trkpt lat="53.739477" lon="-2.0085273"><ele>109.0</ele><time>2026-04-26T13:20:20.916Z</time></trkpt><trkpt lat="53.739424" lon="-2.0084449"><ele>107.50000000000001</ele><time>2026-04-26T13:20:21.915Z</time></trkpt><trkpt lat="53.7393234" lon="-2.0084401"><ele>106.0</ele><time>2026-04-26T13:20:23.923Z</time></trkpt><trkpt lat="53.739276" lon="-2.0085335"><ele>106.0</ele><time>2026-04-26T13:20:24.919Z</time></trkpt><trkpt lat="53.7392085" lon="-2.008652"><ele>106.0</ele><time>2026-04-26T13:20:26.923Z</time></trkpt><trkpt lat="53.7391015" lon="-2.0085409"><ele>106.0</ele><time>2026-04-26T13:20:29.918Z</time></trkpt><trkpt lat="53.7390435" lon="-2.0084342"><ele>106.0</ele><time>2026-04-26T13:20:31.922Z</time></trkpt><trkpt lat="53.7389615" lon="-2.0082992"><ele>106.0</ele><time>2026-04-26T13:20:33.926Z</time></trkpt><trkpt lat="53.7389133" lon="-2.0082207"><ele>105.50000000000001</ele><time>2026-04-26T13:20:34.921Z</time></trkpt><trkpt lat="53.7388647" lon="-2.0081471"><ele>105.0</ele><time>2026-04-26T13:20:35.922Z</time></trkpt><trkpt lat="53.7388191" lon="-2.0080719"><ele>104.5</ele><time>2026-04-26T13:20:36.923Z</time></trkpt><trkpt lat="53.7387307" lon="-2.0079156"><ele>104.0</ele><time>2026-04-26T13:20:38.923Z</time></trkpt><trkpt lat="53.7386751" lon="-2.0078614"><ele>103.50000000000001</ele><time>2026-04-26T13:20:39.913Z</time></trkpt><trkpt lat="53.7386083" lon="-2.0078371"><ele>103.0</ele><time>2026-04-26T13:20:40.918Z</time></trkpt><trkpt lat="53.738532" lon="-2.0078266"><ele>103.00000000000001</ele><time>2026-04-26T13:20:41.917Z</time></trkpt><trkpt lat="53.7384558" lon="-2.0078037"><ele>103.0</ele><time>2026-04-26T13:20:42.918Z</time></trkpt><trkpt lat="53.7383819" lon="-2.0077604"><ele>103.0</ele><time>2026-04-26T13:20:43.923Z</time></trkpt><trkpt lat="53.7383061" lon="-2.0077186"><ele>103.0</ele><time>2026-04-26T13:20:44.918Z</time></trkpt><trkpt lat="53.7382297" lon="-2.0076888"><ele>103.00000000000001</ele><time>2026-04-26T13:20:45.916Z</time></trkpt><trkpt lat="53.7381579" lon="-2.0076741"><ele>103.0</ele><time>2026-04-26T13:20:46.918Z</time></trkpt><trkpt lat="53.7380415" lon="-2.0076778"><ele>103.0</ele><time>2026-04-26T13:20:48.917Z</time></trkpt><trkpt lat="53.7379528" lon="-2.0077436"><ele>103.0</ele><time>2026-04-26T13:20:50.921Z</time></trkpt><trkpt lat="53.7378405" lon="-2.0078588"><ele>103.0</ele><time>2026-04-26T13:20:52.918Z</time></trkpt><trkpt lat="53.737759" lon="-2.0079136"><ele>103.0</ele><time>2026-04-26T13:20:53.923Z</time></trkpt><trkpt lat="53.7376656" lon="-2.0079658"><ele>103.0</ele><time>2026-04-26T13:20:54.92Z</time></trkpt><trkpt lat="53.7375738" lon="-2.0080073"><ele>103.60000000000001</ele><time>2026-04-26T13:20:55.922Z</time></trkpt><trkpt lat="53.7374955" lon="-2.0080475"><ele>104.2</ele><time>2026-04-26T13:20:56.921Z</time></trkpt><trkpt lat="53.7374307" lon="-2.008078"><ele>104.8</ele><time>2026-04-26T13:20:57.919Z</time></trkpt><trkpt lat="53.7373198" lon="-2.0081215"><ele>105.4</ele><time>2026-04-26T13:20:59.914Z</time></trkpt><trkpt lat="53.7372039" lon="-2.008113"><ele>106.0</ele><time>2026-04-26T13:21:01.915Z</time></trkpt><trkpt lat="53.7371421" lon="-2.0080522"><ele>106.00000000000001</ele><time>2026-04-26T13:21:02.923Z</time></trkpt><trkpt lat="53.7370832" lon="-2.0079335"><ele>106.0</ele><time>2026-04-26T13:21:03.921Z</time></trkpt><trkpt lat="53.7370165" lon="-2.007815"><ele>106.0</ele><time>2026-04-26T13:21:04.919Z</time></trkpt><trkpt lat="53.7369513" lon="-2.0077238"><ele>106.0</ele><time>2026-04-26T13:21:05.916Z</time></trkpt><trkpt lat="53.7368892" lon="-2.0076418"><ele>106.00000000000001</ele><time>2026-04-26T13:21:06.918Z</time></trkpt><trkpt lat="53.7368244" lon="-2.0075539"><ele>106.0</ele><time>2026-04-26T13:21:07.916Z</time></trkpt><trkpt lat="53.7367535" lon="-2.0074541"><ele>108.0</ele><time>2026-04-26T13:21:08.917Z</time></trkpt><trkpt lat="53.7366647" lon="-2.0073398"><ele>110.0</ele><time>2026-04-26T13:21:09.918Z</time></trkpt><trkpt lat="53.7365561" lon="-2.0071977"><ele>112.0</ele><time>2026-04-26T13:21:10.916Z</time></trkpt><trkpt lat="53.7364354" lon="-2.007019"><ele>114.0</ele><time>2026-04-26T13:21:11.919Z</time></trkpt><trkpt lat="53.7363082" lon="-2.0068155"><ele>111.66666666666666</ele><time>2026-04-26T13:21:12.917Z</time></trkpt><trkpt lat="53.7361852" lon="-2.00659"><ele>109.33333333333333</ele><time>2026-04-26T13:21:13.917Z</time></trkpt><trkpt lat="53.7360776" lon="-2.0063368"><ele>107.0</ele><time>2026-04-26T13:21:14.919Z</time></trkpt><trkpt lat="53.7359914" lon="-2.0060523"><ele>114.33333333333333</ele><time>2026-04-26T13:21:15.916Z</time></trkpt><trkpt lat="53.7359065" lon="-2.0057463"><ele>121.66666666666666</ele><time>2026-04-26T13:21:16.916Z</time></trkpt><trkpt lat="53.73581" lon="-2.0054395"><ele>129.0</ele><time>2026-04-26T13:21:17.916Z</time></trkpt><trkpt lat="53.7356898" lon="-2.0051555"><ele>125.66666666666666</ele><time>2026-04-26T13:21:18.917Z</time></trkpt><trkpt lat="53.7355534" lon="-2.0048995"><ele>122.33333333333333</ele><time>2026-04-26T13:21:19.914Z</time></trkpt><trkpt lat="53.7354157" lon="-2.0046536"><ele>119.0</ele><time>2026-04-26T13:21:20.914Z</time></trkpt><trkpt lat="53.7352826" lon="-2.0044099"><ele>127.33333333333333</ele><time>2026-04-26T13:21:21.918Z</time></trkpt><trkpt lat="53.735155" lon="-2.0041663"><ele>135.66666666666666</ele><time>2026-04-26T13:21:22.916Z</time></trkpt><trkpt lat="53.7350342" lon="-2.0039117"><ele>144.0</ele><time>2026-04-26T13:21:23.916Z</time></trkpt><trkpt lat="53.7349233" lon="-2.0036471"><ele>144.0</ele><time>2026-04-26T13:21:24.916Z</time></trkpt><trkpt lat="53.7348238" lon="-2.0034077"><ele>144.0</ele><time>2026-04-26T13:21:25.916Z</time></trkpt><trkpt lat="53.7347422" lon="-2.0032232"><ele>144.0</ele><time>2026-04-26T13:21:26.919Z</time></trkpt><trkpt lat="53.7346725" lon="-2.0031055"><ele>144.0</ele><time>2026-04-26T13:21:27.918Z</time></trkpt><trkpt lat="53.7346069" lon="-2.003065"><ele>145.33333333333334</ele><time>2026-04-26T13:21:28.919Z</time></trkpt><trkpt lat="53.73454" lon="-2.0030946"><ele>146.66666666666666</ele><time>2026-04-26T13:21:29.921Z</time></trkpt><trkpt lat="53.7344804" lon="-2.0031597"><ele>148.0</ele><time>2026-04-26T13:21:30.921Z</time></trkpt><trkpt lat="53.7344283" lon="-2.0032541"><ele>149.33333333333331</ele><time>2026-04-26T13:21:31.92Z</time></trkpt><trkpt lat="53.7343745" lon="-2.0033524"><ele>150.66666666666666</ele><time>2026-04-26T13:21:32.92Z</time></trkpt><trkpt lat="53.7343217" lon="-2.0034547"><ele>152.0</ele><time>2026-04-26T13:21:33.926Z</time></trkpt><trkpt lat="53.7342696" lon="-2.0035625"><ele>152.0</ele><time>2026-04-26T13:21:34.921Z</time></trkpt><trkpt lat="53.7342184" lon="-2.0036758"><ele>152.0</ele><time>2026-04-26T13:21:35.921Z</time></trkpt><trkpt lat="53.734168" lon="-2.0037878"><ele>152.0</ele><time>2026-04-26T13:21:36.922Z</time></trkpt><trkpt lat="53.734113" lon="-2.0038893"><ele>152.0</ele><time>2026-04-26T13:21:37.926Z</time></trkpt><trkpt lat="53.7340569" lon="-2.0039881"><ele>152.0</ele><time>2026-04-26T13:21:38.921Z</time></trkpt><trkpt lat="53.7340023" lon="-2.0040907"><ele>152.0</ele><time>2026-04-26T13:21:39.923Z</time></trkpt><trkpt lat="53.7339517" lon="-2.0041973"><ele>153.8</ele><time>2026-04-26T13:21:40.925Z</time></trkpt><trkpt lat="53.7339028" lon="-2.0043125"><ele>155.6</ele><time>2026-04-26T13:21:41.922Z</time></trkpt><trkpt lat="53.7338564" lon="-2.0044119"><ele>157.4</ele><time>2026-04-26T13:21:42.925Z</time></trkpt><trkpt lat="53.733807" lon="-2.0044932"><ele>159.20000000000002</ele><time>2026-04-26T13:21:43.923Z</time></trkpt><trkpt lat="53.7337417" lon="-2.0046582"><ele>161.0</ele><time>2026-04-26T13:21:45.921Z</time></trkpt><trkpt lat="53.733762" lon="-2.0048612"><ele>161.0</ele><time>2026-04-26T13:21:47.923Z</time></trkpt><trkpt lat="53.7337913" lon="-2.0049727"><ele>161.0</ele><time>2026-04-26T13:21:48.923Z</time></trkpt><trkpt lat="53.7338165" lon="-2.0050819"><ele>161.0</ele><time>2026-04-26T13:21:49.92Z</time></trkpt><trkpt lat="53.7337852" lon="-2.0052724"><ele>161.0</ele><time>2026-04-26T13:21:51.925Z</time></trkpt><trkpt lat="53.7337335" lon="-2.0053521"><ele>161.0</ele><time>2026-04-26T13:21:52.922Z</time></trkpt><trkpt lat="53.7336691" lon="-2.0054345"><ele>161.0</ele><time>2026-04-26T13:21:53.923Z</time></trkpt><trkpt lat="53.7336052" lon="-2.0055297"><ele>162.20000000000002</ele><time>2026-04-26T13:21:54.921Z</time></trkpt><trkpt lat="53.7335557" lon="-2.0056266"><ele>163.4</ele><time>2026-04-26T13:21:55.92Z</time></trkpt><trkpt lat="53.7334648" lon="-2.0057243"><ele>164.6</ele><time>2026-04-26T13:21:57.921Z</time></trkpt><trkpt lat="53.733395" lon="-2.0056975"><ele>165.8</ele><time>2026-04-26T13:21:58.921Z</time></trkpt><trkpt lat="53.7333099" lon="-2.005651"><ele>167.0</ele><time>2026-04-26T13:21:59.921Z</time></trkpt><trkpt lat="53.7332065" lon="-2.0055985"><ele>167.0</ele><time>2026-04-26T13:22:00.919Z</time></trkpt><trkpt lat="53.7330963" lon="-2.0055422"><ele>167.0</ele><time>2026-04-26T13:22:01.921Z</time></trkpt><trkpt lat="53.7329843" lon="-2.0054795"><ele>167.0</ele><time>2026-04-26T13:22:02.922Z</time></trkpt><trkpt lat="53.7328706" lon="-2.0054171"><ele>167.0</ele><time>2026-04-26T13:22:03.924Z</time></trkpt><trkpt lat="53.7327635" lon="-2.005364"><ele>166.8</ele><time>2026-04-26T13:22:04.922Z</time></trkpt><trkpt lat="53.7326577" lon="-2.005316"><ele>166.6</ele><time>2026-04-26T13:22:05.921Z</time></trkpt><trkpt lat="53.7325585" lon="-2.0052702"><ele>166.4</ele><time>2026-04-26T13:22:06.922Z</time></trkpt><trkpt lat="53.7324643" lon="-2.005226"><ele>166.20000000000002</ele><time>2026-04-26T13:22:07.921Z</time></trkpt><trkpt lat="53.7323784" lon="-2.0051843"><ele>166.0</ele><time>2026-04-26T13:22:08.919Z</time></trkpt><trkpt lat="53.7322978" lon="-2.0051485"><ele>166.0</ele><time>2026-04-26T13:22:09.92Z</time></trkpt><trkpt lat="53.7322256" lon="-2.0051102"><ele>166.0</ele><time>2026-04-26T13:22:10.923Z</time></trkpt><trkpt lat="53.7321559" lon="-2.0050631"><ele>166.0</ele><time>2026-04-26T13:22:11.919Z</time></trkpt><trkpt lat="53.7320877" lon="-2.0050002"><ele>166.0</ele><time>2026-04-26T13:22:12.921Z</time></trkpt><trkpt lat="53.7320127" lon="-2.004921"><ele>166.0</ele><time>2026-04-26T13:22:13.922Z</time></trkpt><trkpt lat="53.7319296" lon="-2.00483"><ele>166.0</ele><time>2026-04-26T13:22:14.92Z</time></trkpt><trkpt lat="53.7318382" lon="-2.0047344"><ele>164.0</ele><time>2026-04-26T13:22:15.919Z</time></trkpt><trkpt lat="53.7317451" lon="-2.0046448"><ele>162.0</ele><time>2026-04-26T13:22:16.92Z</time></trkpt><trkpt lat="53.7316447" lon="-2.0045614"><ele>160.0</ele><time>2026-04-26T13:22:17.92Z</time></trkpt><trkpt lat="53.7315454" lon="-2.0044784"><ele>158.0</ele><time>2026-04-26T13:22:18.914Z</time></trkpt><trkpt lat="53.7314501" lon="-2.0043905"><ele>156.0</ele><time>2026-04-26T13:22:19.919Z</time></trkpt><trkpt lat="53.7313604" lon="-2.0042945"><ele>156.0</ele><time>2026-04-26T13:22:20.918Z</time></trkpt><trkpt lat="53.7312777" lon="-2.00419"><ele>156.0</ele><time>2026-04-26T13:22:21.919Z</time></trkpt><trkpt lat="53.7312007" lon="-2.0040716"><ele>156.0</ele><time>2026-04-26T13:22:22.918Z</time></trkpt><trkpt lat="53.7311325" lon="-2.0039318"><ele>156.0</ele><time>2026-04-26T13:22:23.921Z</time></trkpt><trkpt lat="53.7310613" lon="-2.0037852"><ele>156.0</ele><time>2026-04-26T13:22:24.92Z</time></trkpt><trkpt lat="53.730987" lon="-2.0036394"><ele>156.0</ele><time>2026-04-26T13:22:25.92Z</time></trkpt><trkpt lat="53.7309112" lon="-2.003498"><ele>156.0</ele><time>2026-04-26T13:22:26.919Z</time></trkpt><trkpt lat="53.7308297" lon="-2.00337"><ele>156.0</ele><time>2026-04-26T13:22:27.915Z</time></trkpt><trkpt lat="53.7307392" lon="-2.0032486"><ele>156.0</ele><time>2026-04-26T13:22:28.917Z</time></trkpt><trkpt lat="53.730646" lon="-2.0031191"><ele>155.0</ele><time>2026-04-26T13:22:29.916Z</time></trkpt><trkpt lat="53.7305589" lon="-2.0029703"><ele>154.0</ele><time>2026-04-26T13:22:30.918Z</time></trkpt><trkpt lat="53.7304831" lon="-2.002802"><ele>153.0</ele><time>2026-04-26T13:22:31.919Z</time></trkpt><trkpt lat="53.7304118" lon="-2.0026261"><ele>152.0</ele><time>2026-04-26T13:22:32.919Z</time></trkpt><trkpt lat="53.7303401" lon="-2.0024716"><ele>151.4</ele><time>2026-04-26T13:22:33.921Z</time></trkpt><trkpt lat="53.7302787" lon="-2.0023508"><ele>150.79999999999998</ele><time>2026-04-26T13:22:34.923Z</time></trkpt><trkpt lat="53.7302362" lon="-2.0022285"><ele>150.2</ele><time>2026-04-26T13:22:35.923Z</time></trkpt><trkpt lat="53.7302041" lon="-2.00208"><ele>149.6</ele><time>2026-04-26T13:22:36.923Z</time></trkpt><trkpt lat="53.7301674" lon="-2.0019084"><ele>149.0</ele><time>2026-04-26T13:22:37.925Z</time></trkpt><trkpt lat="53.7301201" lon="-2.0017305"><ele>151.25</ele><time>2026-04-26T13:22:38.919Z</time></trkpt><trkpt lat="53.7300667" lon="-2.00156"><ele>153.5</ele><time>2026-04-26T13:22:39.921Z</time></trkpt><trkpt lat="53.7300058" lon="-2.0013955"><ele>155.75</ele><time>2026-04-26T13:22:40.921Z</time></trkpt><trkpt lat="53.7299323" lon="-2.0012285"><ele>158.0</ele><time>2026-04-26T13:22:41.917Z</time></trkpt><trkpt lat="53.7298452" lon="-2.0010612"><ele>158.0</ele><time>2026-04-26T13:22:42.919Z</time></trkpt><trkpt lat="53.7297631" lon="-2.0008898"><ele>158.0</ele><time>2026-04-26T13:22:43.927Z</time></trkpt><trkpt lat="53.7296871" lon="-2.0007104"><ele>158.0</ele><time>2026-04-26T13:22:44.922Z</time></trkpt><trkpt lat="53.7296205" lon="-2.0005146"><ele>158.0</ele><time>2026-04-26T13:22:45.92Z</time></trkpt><trkpt lat="53.7295601" lon="-2.0002922"><ele>156.66666666666666</ele><time>2026-04-26T13:22:46.921Z</time></trkpt><trkpt lat="53.7294976" lon="-2.0000486"><ele>155.33333333333334</ele><time>2026-04-26T13:22:47.922Z</time></trkpt><trkpt lat="53.7294397" lon="-1.9998009"><ele>154.0</ele><time>2026-04-26T13:22:48.921Z</time></trkpt><trkpt lat="53.729393" lon="-1.9995776"><ele>157.5</ele><time>2026-04-26T13:22:49.919Z</time></trkpt><trkpt lat="53.7293505" lon="-1.9993755"><ele>161.0</ele><time>2026-04-26T13:22:50.921Z</time></trkpt><trkpt lat="53.7293151" lon="-1.9991904"><ele>164.5</ele><time>2026-04-26T13:22:51.925Z</time></trkpt><trkpt lat="53.7292863" lon="-1.9990134"><ele>168.0</ele><time>2026-04-26T13:22:52.924Z</time></trkpt><trkpt lat="53.7292604" lon="-1.9988319"><ele>168.0</ele><time>2026-04-26T13:22:53.919Z</time></trkpt><trkpt lat="53.7292399" lon="-1.998649"><ele>168.0</ele><time>2026-04-26T13:22:54.92Z</time></trkpt><trkpt lat="53.7292259" lon="-1.9984705"><ele>168.0</ele><time>2026-04-26T13:22:55.919Z</time></trkpt><trkpt lat="53.7292218" lon="-1.9982941"><ele>168.0</ele><time>2026-04-26T13:22:56.92Z</time></trkpt><trkpt lat="53.7292217" lon="-1.9981182"><ele>168.0</ele><time>2026-04-26T13:22:57.922Z</time></trkpt><trkpt lat="53.729217" lon="-1.9979477"><ele>167.16666666666666</ele><time>2026-04-26T13:22:58.922Z</time></trkpt><trkpt lat="53.7292068" lon="-1.9977882"><ele>166.33333333333334</ele><time>2026-04-26T13:22:59.92Z</time></trkpt><trkpt lat="53.7291973" lon="-1.9976409"><ele>165.5</ele><time>2026-04-26T13:23:00.922Z</time></trkpt><trkpt lat="53.729191" lon="-1.9975163"><ele>164.66666666666669</ele><time>2026-04-26T13:23:01.92Z</time></trkpt><trkpt lat="53.7291867" lon="-1.9974053"><ele>163.83333333333334</ele><time>2026-04-26T13:23:02.919Z</time></trkpt><trkpt lat="53.729188" lon="-1.9972896"><ele>163.0</ele><time>2026-04-26T13:23:03.923Z</time></trkpt><trkpt lat="53.729197" lon="-1.9971531"><ele>162.0</ele><time>2026-04-26T13:23:04.921Z</time></trkpt><trkpt lat="53.7292126" lon="-1.996987"><ele>161.0</ele><time>2026-04-26T13:23:05.921Z</time></trkpt><trkpt lat="53.729231" lon="-1.9967889"><ele>160.0</ele><time>2026-04-26T13:23:06.922Z</time></trkpt><trkpt lat="53.7292446" lon="-1.9965782"><ele>159.0</ele><time>2026-04-26T13:23:07.92Z</time></trkpt><trkpt lat="53.7292561" lon="-1.9963697"><ele>157.25</ele><time>2026-04-26T13:23:08.911Z</time></trkpt><trkpt lat="53.7292664" lon="-1.9961633"><ele>155.5</ele><time>2026-04-26T13:23:09.916Z</time></trkpt><trkpt lat="53.7292716" lon="-1.9959604"><ele>153.75</ele><time>2026-04-26T13:23:10.912Z</time></trkpt><trkpt lat="53.7292762" lon="-1.9957616"><ele>152.0</ele><time>2026-04-26T13:23:11.923Z</time></trkpt><trkpt lat="53.7292782" lon="-1.9955696"><ele>151.2</ele><time>2026-04-26T13:23:12.922Z</time></trkpt><trkpt lat="53.7292794" lon="-1.9953852"><ele>150.39999999999998</ele><time>2026-04-26T13:23:13.927Z</time></trkpt><trkpt lat="53.7292811" lon="-1.9952087"><ele>149.60000000000002</ele><time>2026-04-26T13:23:14.922Z</time></trkpt><trkpt lat="53.7292824" lon="-1.9950468"><ele>148.8</ele><time>2026-04-26T13:23:15.923Z</time></trkpt><trkpt lat="53.7292884" lon="-1.9949002"><ele>148.0</ele><time>2026-04-26T13:23:16.923Z</time></trkpt><trkpt lat="53.7293019" lon="-1.9947658"><ele>147.20000000000002</ele><time>2026-04-26T13:23:17.921Z</time></trkpt><trkpt lat="53.7293309" lon="-1.9946346"><ele>146.4</ele><time>2026-04-26T13:23:18.92Z</time></trkpt><trkpt lat="53.7293771" lon="-1.9944999"><ele>145.60000000000002</ele><time>2026-04-26T13:23:19.922Z</time></trkpt><trkpt lat="53.7294335" lon="-1.9943619"><ele>144.8</ele><time>2026-04-26T13:23:20.921Z</time></trkpt><trkpt lat="53.7294921" lon="-1.9942176"><ele>144.0</ele><time>2026-04-26T13:23:21.915Z</time></trkpt><trkpt lat="53.7295518" lon="-1.9940755"><ele>141.4</ele><time>2026-04-26T13:23:22.919Z</time></trkpt><trkpt lat="53.7296072" lon="-1.9939404"><ele>138.8</ele><time>2026-04-26T13:23:23.925Z</time></trkpt><trkpt lat="53.7296568" lon="-1.9938124"><ele>136.2</ele><time>2026-04-26T13:23:24.92Z</time></trkpt><trkpt lat="53.7296918" lon="-1.9937009"><ele>133.6</ele><time>2026-04-26T13:23:25.919Z</time></trkpt><trkpt lat="53.7297244" lon="-1.9935044"><ele>131.0</ele><time>2026-04-26T13:23:27.921Z</time></trkpt><trkpt lat="53.7297051" lon="-1.9933004"><ele>130.33333333333331</ele><time>2026-04-26T13:23:29.911Z</time></trkpt><trkpt lat="53.7296932" lon="-1.9931905"><ele>129.66666666666666</ele><time>2026-04-26T13:23:30.911Z</time></trkpt><trkpt lat="53.7296846" lon="-1.9930648"><ele>129.0</ele><time>2026-04-26T13:23:31.92Z</time></trkpt><trkpt lat="53.7296817" lon="-1.9929235"><ele>128.33333333333334</ele><time>2026-04-26T13:23:32.914Z</time></trkpt><trkpt lat="53.7296837" lon="-1.9927626"><ele>127.66666666666667</ele><time>2026-04-26T13:23:33.913Z</time></trkpt><trkpt lat="53.729683" lon="-1.9925916"><ele>127.0</ele><time>2026-04-26T13:23:34.913Z</time></trkpt><trkpt lat="53.7296797" lon="-1.9924127"><ele>126.0</ele><time>2026-04-26T13:23:35.92Z</time></trkpt><trkpt lat="53.7296717" lon="-1.992231"><ele>124.99999999999999</ele><time>2026-04-26T13:23:36.921Z</time></trkpt><trkpt lat="53.7296575" lon="-1.9920508"><ele>123.99999999999999</ele><time>2026-04-26T13:23:37.915Z</time></trkpt><trkpt lat="53.7296394" lon="-1.9918801"><ele>123.0</ele><time>2026-04-26T13:23:38.92Z</time></trkpt><trkpt lat="53.7296215" lon="-1.9917233"><ele>122.0</ele><time>2026-04-26T13:23:39.921Z</time></trkpt><trkpt lat="53.7295988" lon="-1.9915709"><ele>121.39999999999999</ele><time>2026-04-26T13:23:40.922Z</time></trkpt><trkpt lat="53.7295661" lon="-1.9914185"><ele>120.79999999999998</ele><time>2026-04-26T13:23:41.92Z</time></trkpt><trkpt lat="53.7295236" lon="-1.9912674"><ele>120.2</ele><time>2026-04-26T13:23:42.921Z</time></trkpt><trkpt lat="53.7294678" lon="-1.991119"><ele>119.6</ele><time>2026-04-26T13:23:43.927Z</time></trkpt><trkpt lat="53.7294023" lon="-1.9909732"><ele>119.0</ele><time>2026-04-26T13:23:44.922Z</time></trkpt><trkpt lat="53.7293356" lon="-1.9908216"><ele>119.0</ele><time>2026-04-26T13:23:45.922Z</time></trkpt><trkpt lat="53.7292754" lon="-1.9906552"><ele>119.0</ele><time>2026-04-26T13:23:46.921Z</time></trkpt><trkpt lat="53.7292245" lon="-1.9904693"><ele>119.0</ele><time>2026-04-26T13:23:47.92Z</time></trkpt><trkpt lat="53.7291852" lon="-1.9902681"><ele>119.0</ele><time>2026-04-26T13:23:48.92Z</time></trkpt><trkpt lat="53.729149" lon="-1.9900575"><ele>117.75</ele><time>2026-04-26T13:23:49.92Z</time></trkpt><trkpt lat="53.7291102" lon="-1.9898483"><ele>116.5</ele><time>2026-04-26T13:23:50.919Z</time></trkpt><trkpt lat="53.7290669" lon="-1.9896518"><ele>115.25</ele><time>2026-04-26T13:23:51.919Z</time></trkpt><trkpt lat="53.7290136" lon="-1.9894639"><ele>114.0</ele><time>2026-04-26T13:23:52.919Z</time></trkpt><trkpt lat="53.728951" lon="-1.9892813"><ele>113.25</ele><time>2026-04-26T13:23:53.924Z</time></trkpt><trkpt lat="53.7288792" lon="-1.9890956"><ele>112.5</ele><time>2026-04-26T13:23:54.923Z</time></trkpt><trkpt lat="53.7288053" lon="-1.9889132"><ele>111.75</ele><time>2026-04-26T13:23:55.922Z</time></trkpt><trkpt lat="53.7287297" lon="-1.9887356"><ele>111.0</ele><time>2026-04-26T13:23:56.923Z</time></trkpt><trkpt lat="53.728658" lon="-1.9885682"><ele>111.0</ele><time>2026-04-26T13:23:57.923Z</time></trkpt><trkpt lat="53.7285978" lon="-1.988419"><ele>111.0</ele><time>2026-04-26T13:23:58.923Z</time></trkpt><trkpt lat="53.7285523" lon="-1.9882876"><ele>111.0</ele><time>2026-04-26T13:23:59.924Z</time></trkpt><trkpt lat="53.7285229" lon="-1.9881658"><ele>111.0</ele><time>2026-04-26T13:24:00.924Z</time></trkpt><trkpt lat="53.7285093" lon="-1.9880379"><ele>111.0</ele><time>2026-04-26T13:24:01.922Z</time></trkpt><trkpt lat="53.7285062" lon="-1.9878915"><ele>111.0</ele><time>2026-04-26T13:24:02.915Z</time></trkpt><trkpt lat="53.7285083" lon="-1.9877403"><ele>110.33333333333333</ele><time>2026-04-26T13:24:03.923Z</time></trkpt><trkpt lat="53.7285149" lon="-1.9875986"><ele>109.66666666666666</ele><time>2026-04-26T13:24:04.921Z</time></trkpt><trkpt lat="53.7285424" lon="-1.9874632"><ele>109.0</ele><time>2026-04-26T13:24:05.925Z</time></trkpt><trkpt lat="53.7285841" lon="-1.9873414"><ele>108.33333333333333</ele><time>2026-04-26T13:24:06.926Z</time></trkpt><trkpt lat="53.7286279" lon="-1.9872276"><ele>107.66666666666666</ele><time>2026-04-26T13:24:07.921Z</time></trkpt><trkpt lat="53.7286721" lon="-1.9871246"><ele>107.0</ele><time>2026-04-26T13:24:08.921Z</time></trkpt><trkpt lat="53.7287139" lon="-1.9870369"><ele>107.0</ele><time>2026-04-26T13:24:09.92Z</time></trkpt><trkpt lat="53.7287805" lon="-1.9869167"><ele>106.99999999999999</ele><time>2026-04-26T13:24:11.921Z</time></trkpt><trkpt lat="53.7288369" lon="-1.9868496"><ele>106.99999999999999</ele><time>2026-04-26T13:24:14.921Z</time></trkpt><trkpt lat="53.7287704" lon="-1.9867612"><ele>107.0</ele><time>2026-04-26T13:24:19.92Z</time></trkpt><trkpt lat="53.7286761" lon="-1.9866932"><ele>107.0</ele><time>2026-04-26T13:24:21.923Z</time></trkpt><trkpt lat="53.7285747" lon="-1.9866023"><ele>105.66666666666666</ele><time>2026-04-26T13:24:23.926Z</time></trkpt><trkpt lat="53.7284854" lon="-1.9865285"><ele>104.33333333333333</ele><time>2026-04-26T13:24:25.922Z</time></trkpt><trkpt lat="53.7284309" lon="-1.9864298"><ele>103.0</ele><time>2026-04-26T13:24:27.922Z</time></trkpt><trkpt lat="53.7284452" lon="-1.9862497"><ele>101.66666666666666</ele><time>2026-04-26T13:24:29.922Z</time></trkpt><trkpt lat="53.7284765" lon="-1.9861433"><ele>100.33333333333333</ele><time>2026-04-26T13:24:30.919Z</time></trkpt><trkpt lat="53.7284988" lon="-1.9860177"><ele>99.0</ele><time>2026-04-26T13:24:31.925Z</time></trkpt><trkpt lat="53.7285121" lon="-1.9858748"><ele>99.2</ele><time>2026-04-26T13:24:32.922Z</time></trkpt><trkpt lat="53.7285216" lon="-1.9857137"><ele>99.4</ele><time>2026-04-26T13:24:33.926Z</time></trkpt><trkpt lat="53.7285208" lon="-1.9855353"><ele>99.6</ele><time>2026-04-26T13:24:34.923Z</time></trkpt><trkpt lat="53.7285048" lon="-1.9853615"><ele>99.8</ele><time>2026-04-26T13:24:35.921Z</time></trkpt><trkpt lat="53.7284913" lon="-1.9851882"><ele>100.0</ele><time>2026-04-26T13:24:36.922Z</time></trkpt><trkpt lat="53.7284828" lon="-1.9850215"><ele>100.6</ele><time>2026-04-26T13:24:37.923Z</time></trkpt><trkpt lat="53.7284747" lon="-1.9848536"><ele>101.2</ele><time>2026-04-26T13:24:38.926Z</time></trkpt><trkpt lat="53.7284708" lon="-1.984688"><ele>101.80000000000001</ele><time>2026-04-26T13:24:39.92Z</time></trkpt><trkpt lat="53.7284746" lon="-1.9845223"><ele>102.4</ele><time>2026-04-26T13:24:40.921Z</time></trkpt><trkpt lat="53.7284866" lon="-1.984359"><ele>103.0</ele><time>2026-04-26T13:24:41.921Z</time></trkpt><trkpt lat="53.7285032" lon="-1.9842007"><ele>103.00000000000001</ele><time>2026-04-26T13:24:42.922Z</time></trkpt><trkpt lat="53.7285244" lon="-1.9840466"><ele>103.0</ele><time>2026-04-26T13:24:43.927Z</time></trkpt><trkpt lat="53.7285499" lon="-1.9838926"><ele>103.0</ele><time>2026-04-26T13:24:44.923Z</time></trkpt><trkpt lat="53.728576" lon="-1.9837523"><ele>103.0</ele><time>2026-04-26T13:24:45.924Z</time></trkpt><trkpt lat="53.728601" lon="-1.9836276"><ele>103.00000000000001</ele><time>2026-04-26T13:24:46.924Z</time></trkpt><trkpt lat="53.7286229" lon="-1.9835173"><ele>103.0</ele><time>2026-04-26T13:24:47.92Z</time></trkpt><trkpt lat="53.728667" lon="-1.9833345"><ele>102.4</ele><time>2026-04-26T13:24:49.921Z</time></trkpt><trkpt lat="53.7287137" lon="-1.9831974"><ele>101.80000000000001</ele><time>2026-04-26T13:24:51.92Z</time></trkpt><trkpt lat="53.7286495" lon="-1.9830563"><ele>101.2</ele><time>2026-04-26T13:24:53.927Z</time></trkpt><trkpt lat="53.7285704" lon="-1.9830238"><ele>100.6</ele><time>2026-04-26T13:24:54.922Z</time></trkpt><trkpt lat="53.728483" lon="-1.983024"><ele>100.0</ele><time>2026-04-26T13:24:55.922Z</time></trkpt><trkpt lat="53.728385" lon="-1.9830273"><ele>100.0</ele><time>2026-04-26T13:24:56.923Z</time></trkpt><trkpt lat="53.7282886" lon="-1.9830077"><ele>100.0</ele><time>2026-04-26T13:24:57.923Z</time></trkpt><trkpt lat="53.7282002" lon="-1.9829476"><ele>100.0</ele><time>2026-04-26T13:24:58.923Z</time></trkpt><trkpt lat="53.7281183" lon="-1.9828411"><ele>100.0</ele><time>2026-04-26T13:24:59.921Z</time></trkpt><trkpt lat="53.72804" lon="-1.982716"><ele>100.0</ele><time>2026-04-26T13:25:00.921Z</time></trkpt><trkpt lat="53.7279611" lon="-1.9825722"><ele>100.75</ele><time>2026-04-26T13:25:01.919Z</time></trkpt><trkpt lat="53.7278832" lon="-1.9824191"><ele>101.5</ele><time>2026-04-26T13:25:02.92Z</time></trkpt><trkpt lat="53.7278021" lon="-1.9822627"><ele>102.25</ele><time>2026-04-26T13:25:03.921Z</time></trkpt><trkpt lat="53.7277277" lon="-1.982101"><ele>103.0</ele><time>2026-04-26T13:25:04.919Z</time></trkpt><trkpt lat="53.7276648" lon="-1.9819279"><ele>103.0</ele><time>2026-04-26T13:25:05.92Z</time></trkpt><trkpt lat="53.7276179" lon="-1.9817442"><ele>103.0</ele><time>2026-04-26T13:25:06.919Z</time></trkpt><trkpt lat="53.7275861" lon="-1.9815558"><ele>103.0</ele><time>2026-04-26T13:25:07.917Z</time></trkpt><trkpt lat="53.7275596" lon="-1.9813625"><ele>103.0</ele><time>2026-04-26T13:25:08.917Z</time></trkpt><trkpt lat="53.7275408" lon="-1.9811631"><ele>102.0</ele><time>2026-04-26T13:25:09.919Z</time></trkpt><trkpt lat="53.7275272" lon="-1.9809618"><ele>101.0</ele><time>2026-04-26T13:25:10.919Z</time></trkpt><trkpt lat="53.7275127" lon="-1.9807597"><ele>100.0</ele><time>2026-04-26T13:25:11.919Z</time></trkpt><trkpt lat="53.727498" lon="-1.980559"><ele>99.0</ele><time>2026-04-26T13:25:12.923Z</time></trkpt><trkpt lat="53.7274827" lon="-1.9803563"><ele>98.25</ele><time>2026-04-26T13:25:13.924Z</time></trkpt><trkpt lat="53.7274698" lon="-1.9801546"><ele>97.5</ele><time>2026-04-26T13:25:14.921Z</time></trkpt><trkpt lat="53.7274556" lon="-1.979952"><ele>96.75</ele><time>2026-04-26T13:25:15.922Z</time></trkpt><trkpt lat="53.7274385" lon="-1.9797392"><ele>96.0</ele><time>2026-04-26T13:25:16.924Z</time></trkpt><trkpt lat="53.727424" lon="-1.9795181"><ele>96.0</ele><time>2026-04-26T13:25:17.919Z</time></trkpt><trkpt lat="53.7274087" lon="-1.9792968"><ele>96.0</ele><time>2026-04-26T13:25:18.92Z</time></trkpt><trkpt lat="53.7273979" lon="-1.9790757"><ele>96.0</ele><time>2026-04-26T13:25:19.92Z</time></trkpt><trkpt lat="53.7273912" lon="-1.9788595"><ele>96.0</ele><time>2026-04-26T13:25:20.92Z</time></trkpt><trkpt lat="53.7273781" lon="-1.9786509"><ele>96.0</ele><time>2026-04-26T13:25:21.917Z</time></trkpt><trkpt lat="53.7273642" lon="-1.9784423"><ele>96.0</ele><time>2026-04-26T13:25:22.918Z</time></trkpt><trkpt lat="53.7273514" lon="-1.978233"><ele>96.0</ele><time>2026-04-26T13:25:23.917Z</time></trkpt><trkpt lat="53.7273359" lon="-1.9780265"><ele>96.0</ele><time>2026-04-26T13:25:24.919Z</time></trkpt><trkpt lat="53.7273126" lon="-1.977826"><ele>96.5</ele><time>2026-04-26T13:25:25.919Z</time></trkpt><trkpt lat="53.7272796" lon="-1.977632"><ele>97.0</ele><time>2026-04-26T13:25:26.92Z</time></trkpt><trkpt lat="53.727232" lon="-1.9774512"><ele>97.5</ele><time>2026-04-26T13:25:27.919Z</time></trkpt><trkpt lat="53.7271786" lon="-1.9772812"><ele>98.0</ele><time>2026-04-26T13:25:28.919Z</time></trkpt><trkpt lat="53.7271289" lon="-1.9771056"><ele>99.25</ele><time>2026-04-26T13:25:29.917Z</time></trkpt><trkpt lat="53.7270881" lon="-1.976922"><ele>100.5</ele><time>2026-04-26T13:25:30.921Z</time></trkpt><trkpt lat="53.7270573" lon="-1.9767286"><ele>101.75</ele><time>2026-04-26T13:25:31.916Z</time></trkpt><trkpt lat="53.7270297" lon="-1.9765307"><ele>103.0</ele><time>2026-04-26T13:25:32.917Z</time></trkpt><trkpt lat="53.7270102" lon="-1.9763262"><ele>104.0</ele><time>2026-04-26T13:25:33.919Z</time></trkpt><trkpt lat="53.7270001" lon="-1.9761113"><ele>105.0</ele><time>2026-04-26T13:25:34.91Z</time></trkpt><trkpt lat="53.7269997" lon="-1.9758916"><ele>106.0</ele><time>2026-04-26T13:25:35.917Z</time></trkpt><trkpt lat="53.7270029" lon="-1.9756692"><ele>107.0</ele><time>2026-04-26T13:25:36.918Z</time></trkpt><trkpt lat="53.7270058" lon="-1.9754475"><ele>107.75</ele><time>2026-04-26T13:25:37.915Z</time></trkpt><trkpt lat="53.7270072" lon="-1.9752275"><ele>108.5</ele><time>2026-04-26T13:25:38.918Z</time></trkpt><trkpt lat="53.7270107" lon="-1.9750093"><ele>109.25</ele><time>2026-04-26T13:25:39.919Z</time></trkpt><trkpt lat="53.7270147" lon="-1.9747894"><ele>110.0</ele><time>2026-04-26T13:25:40.919Z</time></trkpt><trkpt lat="53.7270137" lon="-1.9745615"><ele>110.0</ele><time>2026-04-26T13:25:41.919Z</time></trkpt><trkpt lat="53.7269944" lon="-1.9743164"><ele>110.0</ele><time>2026-04-26T13:25:42.922Z</time></trkpt><trkpt lat="53.7269654" lon="-1.9740489"><ele>110.0</ele><time>2026-04-26T13:25:43.921Z</time></trkpt><trkpt lat="53.7269326" lon="-1.9737565"><ele>111.0</ele><time>2026-04-26T13:25:44.919Z</time></trkpt><trkpt lat="53.7269087" lon="-1.9734503"><ele>112.0</ele><time>2026-04-26T13:25:45.918Z</time></trkpt><trkpt lat="53.7268957" lon="-1.9731448"><ele>113.0</ele><time>2026-04-26T13:25:46.918Z</time></trkpt><trkpt lat="53.7268855" lon="-1.9728684"><ele>119.4</ele><time>2026-04-26T13:25:47.918Z</time></trkpt><trkpt lat="53.7268837" lon="-1.972639"><ele>125.80000000000001</ele><time>2026-04-26T13:25:48.918Z</time></trkpt><trkpt lat="53.7268724" lon="-1.972463"><ele>132.2</ele><time>2026-04-26T13:25:49.918Z</time></trkpt><trkpt lat="53.7268335" lon="-1.9723284"><ele>138.6</ele><time>2026-04-26T13:25:50.918Z</time></trkpt><trkpt lat="53.7267665" lon="-1.9722188"><ele>145.0</ele><time>2026-04-26T13:25:51.918Z</time></trkpt><trkpt lat="53.7266944" lon="-1.9721049"><ele>145.0</ele><time>2026-04-26T13:25:52.92Z</time></trkpt><trkpt lat="53.7266395" lon="-1.9719589"><ele>145.0</ele><time>2026-04-26T13:25:53.921Z</time></trkpt><trkpt lat="53.7265968" lon="-1.9717965"><ele>145.0</ele><time>2026-04-26T13:25:54.917Z</time></trkpt><trkpt lat="53.7265694" lon="-1.9716205"><ele>145.0</ele><time>2026-04-26T13:25:55.916Z</time></trkpt><trkpt lat="53.7265722" lon="-1.9714392"><ele>145.0</ele><time>2026-04-26T13:25:56.917Z</time></trkpt><trkpt lat="53.7266178" lon="-1.9712587"><ele>145.2</ele><time>2026-04-26T13:25:57.922Z</time></trkpt><trkpt lat="53.7266836" lon="-1.9710738"><ele>145.4</ele><time>2026-04-26T13:25:58.918Z</time></trkpt><trkpt lat="53.7267435" lon="-1.9708924"><ele>145.6</ele><time>2026-04-26T13:25:59.917Z</time></trkpt><trkpt lat="53.7267771" lon="-1.9707324"><ele>145.8</ele><time>2026-04-26T13:26:00.919Z</time></trkpt><trkpt lat="53.7267757" lon="-1.9705928"><ele>146.0</ele><time>2026-04-26T13:26:01.92Z</time></trkpt><trkpt lat="53.7267385" lon="-1.97047"><ele>146.75</ele><time>2026-04-26T13:26:02.921Z</time></trkpt><trkpt lat="53.7266757" lon="-1.9703326"><ele>147.5</ele><time>2026-04-26T13:26:03.92Z</time></trkpt><trkpt lat="53.726607" lon="-1.9701615"><ele>148.25</ele><time>2026-04-26T13:26:04.919Z</time></trkpt><trkpt lat="53.726555" lon="-1.9699544"><ele>149.0</ele><time>2026-04-26T13:26:05.918Z</time></trkpt><trkpt lat="53.7265307" lon="-1.9697063"><ele>150.33333333333331</ele><time>2026-04-26T13:26:06.923Z</time></trkpt><trkpt lat="53.7265321" lon="-1.9694287"><ele>151.66666666666666</ele><time>2026-04-26T13:26:07.923Z</time></trkpt><trkpt lat="53.7265451" lon="-1.9691654"><ele>153.0</ele><time>2026-04-26T13:26:08.923Z</time></trkpt><trkpt lat="53.7265687" lon="-1.9689505"><ele>154.0</ele><time>2026-04-26T13:26:09.919Z</time></trkpt><trkpt lat="53.7265967" lon="-1.9687981"><ele>155.0</ele><time>2026-04-26T13:26:10.918Z</time></trkpt><trkpt lat="53.726626" lon="-1.9687002"><ele>156.0</ele><time>2026-04-26T13:26:11.916Z</time></trkpt><trkpt lat="53.7266587" lon="-1.9685958"><ele>157.0</ele><time>2026-04-26T13:26:13.921Z</time></trkpt><trkpt lat="53.7266567" lon="-1.968428"><ele>158.0</ele><time>2026-04-26T13:26:15.92Z</time></trkpt><trkpt lat="53.7266284" lon="-1.9683006"><ele>159.0</ele><time>2026-04-26T13:26:16.916Z</time></trkpt><trkpt lat="53.7265896" lon="-1.9681411"><ele>159.33333333333334</ele><time>2026-04-26T13:26:17.913Z</time></trkpt><trkpt lat="53.7265395" lon="-1.9679336"><ele>159.66666666666669</ele><time>2026-04-26T13:26:18.923Z</time></trkpt><trkpt lat="53.7264901" lon="-1.9676827"><ele>160.0</ele><time>2026-04-26T13:26:19.925Z</time></trkpt><trkpt lat="53.7264351" lon="-1.9673931"><ele>160.0</ele><time>2026-04-26T13:26:20.921Z</time></trkpt><trkpt lat="53.7263673" lon="-1.9670728"><ele>160.0</ele><time>2026-04-26T13:26:21.922Z</time></trkpt><trkpt lat="53.7262853" lon="-1.9667301"><ele>160.0</ele><time>2026-04-26T13:26:22.922Z</time></trkpt><trkpt lat="53.7261991" lon="-1.9663884"><ele>158.0</ele><time>2026-04-26T13:26:23.927Z</time></trkpt><trkpt lat="53.7260988" lon="-1.9660381"><ele>156.0</ele><time>2026-04-26T13:26:24.918Z</time></trkpt><trkpt lat="53.7260041" lon="-1.9657106"><ele>154.0</ele><time>2026-04-26T13:26:25.918Z</time></trkpt><trkpt lat="53.7259135" lon="-1.9654234"><ele>160.33333333333334</ele><time>2026-04-26T13:26:26.916Z</time></trkpt><trkpt lat="53.7258167" lon="-1.9651633"><ele>166.66666666666666</ele><time>2026-04-26T13:26:27.918Z</time></trkpt><trkpt lat="53.7257037" lon="-1.9649103"><ele>173.0</ele><time>2026-04-26T13:26:28.92Z</time></trkpt><trkpt lat="53.7255853" lon="-1.9646487"><ele>173.0</ele><time>2026-04-26T13:26:29.921Z</time></trkpt><trkpt lat="53.7254691" lon="-1.9643769"><ele>173.0</ele><time>2026-04-26T13:26:30.919Z</time></trkpt><trkpt lat="53.7253555" lon="-1.9640969"><ele>173.0</ele><time>2026-04-26T13:26:31.923Z</time></trkpt><trkpt lat="53.7252441" lon="-1.9638091"><ele>176.0</ele><time>2026-04-26T13:26:32.925Z</time></trkpt><trkpt lat="53.7251274" lon="-1.9635114"><ele>179.0</ele><time>2026-04-26T13:26:33.923Z</time></trkpt><trkpt lat="53.7250155" lon="-1.9632252"><ele>182.0</ele><time>2026-04-26T13:26:34.925Z</time></trkpt><trkpt lat="53.7249144" lon="-1.9629686"><ele>182.0</ele><time>2026-04-26T13:26:35.926Z</time></trkpt><trkpt lat="53.724828" lon="-1.9627497"><ele>182.0</ele><time>2026-04-26T13:26:36.926Z</time></trkpt><trkpt lat="53.7247535" lon="-1.9625612"><ele>182.0</ele><time>2026-04-26T13:26:37.925Z</time></trkpt><trkpt lat="53.7246916" lon="-1.9624009"><ele>182.0</ele><time>2026-04-26T13:26:38.923Z</time></trkpt><trkpt lat="53.7246376" lon="-1.9622672"><ele>181.39999999999998</ele><time>2026-04-26T13:26:39.924Z</time></trkpt><trkpt lat="53.7245808" lon="-1.9621509"><ele>180.79999999999998</ele><time>2026-04-26T13:26:40.925Z</time></trkpt><trkpt lat="53.7245067" lon="-1.9620505"><ele>180.2</ele><time>2026-04-26T13:26:41.924Z</time></trkpt><trkpt lat="53.7244129" lon="-1.961965"><ele>179.6</ele><time>2026-04-26T13:26:42.924Z</time></trkpt><trkpt lat="53.7243106" lon="-1.9618852"><ele>179.0</ele><time>2026-04-26T13:26:43.93Z</time></trkpt><trkpt lat="53.7242058" lon="-1.9618"><ele>180.2</ele><time>2026-04-26T13:26:44.922Z</time></trkpt><trkpt lat="53.7241044" lon="-1.9617192"><ele>181.39999999999998</ele><time>2026-04-26T13:26:45.926Z</time></trkpt><trkpt lat="53.724005" lon="-1.9616435"><ele>182.6</ele><time>2026-04-26T13:26:46.924Z</time></trkpt><trkpt lat="53.7239065" lon="-1.9615712"><ele>183.8</ele><time>2026-04-26T13:26:47.923Z</time></trkpt><trkpt lat="53.7238077" lon="-1.9615054"><ele>185.0</ele><time>2026-04-26T13:26:48.925Z</time></trkpt><trkpt lat="53.7237071" lon="-1.9614472"><ele>185.0</ele><time>2026-04-26T13:26:49.921Z</time></trkpt><trkpt lat="53.7236029" lon="-1.9614019"><ele>185.0</ele><time>2026-04-26T13:26:50.923Z</time></trkpt><trkpt lat="53.7235055" lon="-1.9613723"><ele>185.0</ele><time>2026-04-26T13:26:51.923Z</time></trkpt><trkpt lat="53.723424" lon="-1.9613514"><ele>185.0</ele><time>2026-04-26T13:26:52.923Z</time></trkpt><trkpt lat="53.7233538" lon="-1.9613152"><ele>185.0</ele><time>2026-04-26T13:26:53.923Z</time></trkpt><trkpt lat="53.7232855" lon="-1.9612467"><ele>185.0</ele><time>2026-04-26T13:26:54.924Z</time></trkpt><trkpt lat="53.7232257" lon="-1.961145"><ele>184.6</ele><time>2026-04-26T13:26:55.923Z</time></trkpt><trkpt lat="53.7231663" lon="-1.9610284"><ele>184.2</ele><time>2026-04-26T13:26:56.924Z</time></trkpt><trkpt lat="53.7230941" lon="-1.9609041"><ele>183.8</ele><time>2026-04-26T13:26:57.926Z</time></trkpt><trkpt lat="53.7230132" lon="-1.9607658"><ele>183.4</ele><time>2026-04-26T13:26:58.926Z</time></trkpt><trkpt lat="53.7229297" lon="-1.9606219"><ele>183.0</ele><time>2026-04-26T13:26:59.925Z</time></trkpt><trkpt lat="53.7228409" lon="-1.9604743"><ele>183.0</ele><time>2026-04-26T13:27:00.924Z</time></trkpt><trkpt lat="53.7227473" lon="-1.960324"><ele>183.0</ele><time>2026-04-26T13:27:01.928Z</time></trkpt><trkpt lat="53.7226485" lon="-1.9601848"><ele>183.0</ele><time>2026-04-26T13:27:02.925Z</time></trkpt><trkpt lat="53.722539" lon="-1.9600738"><ele>183.0</ele><time>2026-04-26T13:27:03.929Z</time></trkpt><trkpt lat="53.7224173" lon="-1.9599915"><ele>182.0</ele><time>2026-04-26T13:27:04.925Z</time></trkpt><trkpt lat="53.7222896" lon="-1.9599288"><ele>181.0</ele><time>2026-04-26T13:27:05.925Z</time></trkpt><trkpt lat="53.7221521" lon="-1.9598748"><ele>180.0</ele><time>2026-04-26T13:27:06.926Z</time></trkpt><trkpt lat="53.7220156" lon="-1.959831"><ele>179.0</ele><time>2026-04-26T13:27:07.926Z</time></trkpt><trkpt lat="53.7218995" lon="-1.9597774"><ele>180.0</ele><time>2026-04-26T13:27:08.925Z</time></trkpt><trkpt lat="53.7218033" lon="-1.9596926"><ele>181.0</ele><time>2026-04-26T13:27:09.925Z</time></trkpt><trkpt lat="53.7217177" lon="-1.9595773"><ele>182.0</ele><time>2026-04-26T13:27:10.924Z</time></trkpt><trkpt lat="53.7216345" lon="-1.9594545"><ele>183.0</ele><time>2026-04-26T13:27:11.924Z</time></trkpt><trkpt lat="53.7215473" lon="-1.9593435"><ele>184.0</ele><time>2026-04-26T13:27:12.928Z</time></trkpt><trkpt lat="53.7214525" lon="-1.9592565"><ele>182.75</ele><time>2026-04-26T13:27:13.93Z</time></trkpt><trkpt lat="53.7213508" lon="-1.9591682"><ele>181.5</ele><time>2026-04-26T13:27:14.925Z</time></trkpt><trkpt lat="53.7212553" lon="-1.9590416"><ele>180.25</ele><time>2026-04-26T13:27:15.924Z</time></trkpt><trkpt lat="53.7211672" lon="-1.9588801"><ele>179.0</ele><time>2026-04-26T13:27:16.924Z</time></trkpt><trkpt lat="53.721079" lon="-1.9587014"><ele>181.75</ele><time>2026-04-26T13:27:17.923Z</time></trkpt><trkpt lat="53.7209853" lon="-1.9585274"><ele>184.5</ele><time>2026-04-26T13:27:18.925Z</time></trkpt><trkpt lat="53.7208841" lon="-1.9583536"><ele>187.25</ele><time>2026-04-26T13:27:19.925Z</time></trkpt><trkpt lat="53.720782" lon="-1.9581713"><ele>190.0</ele><time>2026-04-26T13:27:20.925Z</time></trkpt><trkpt lat="53.7206814" lon="-1.9579912"><ele>190.0</ele><time>2026-04-26T13:27:21.924Z</time></trkpt><trkpt lat="53.720591" lon="-1.9578241"><ele>190.0</ele><time>2026-04-26T13:27:22.923Z</time></trkpt><trkpt lat="53.7205121" lon="-1.9576697"><ele>190.0</ele><time>2026-04-26T13:27:23.922Z</time></trkpt><trkpt lat="53.7204527" lon="-1.9575021"><ele>190.0</ele><time>2026-04-26T13:27:24.926Z</time></trkpt><trkpt lat="53.7204122" lon="-1.957309"><ele>189.5</ele><time>2026-04-26T13:27:25.924Z</time></trkpt><trkpt lat="53.7203799" lon="-1.9571025"><ele>189.0</ele><time>2026-04-26T13:27:26.923Z</time></trkpt><trkpt lat="53.7203467" lon="-1.956892"><ele>188.5</ele><time>2026-04-26T13:27:27.925Z</time></trkpt><trkpt lat="53.7203079" lon="-1.9567061"><ele>188.0</ele><time>2026-04-26T13:27:28.925Z</time></trkpt><trkpt lat="53.720264" lon="-1.9565396"><ele>191.2</ele><time>2026-04-26T13:27:29.925Z</time></trkpt><trkpt lat="53.720202" lon="-1.9563925"><ele>194.4</ele><time>2026-04-26T13:27:30.926Z</time></trkpt><trkpt lat="53.7201181" lon="-1.9562741"><ele>197.6</ele><time>2026-04-26T13:27:31.926Z</time></trkpt><trkpt lat="53.7200173" lon="-1.9561914"><ele>200.79999999999998</ele><time>2026-04-26T13:27:32.923Z</time></trkpt><trkpt lat="53.7199054" lon="-1.9561357"><ele>204.0</ele><time>2026-04-26T13:27:33.928Z</time></trkpt><trkpt lat="53.7197985" lon="-1.9560906"><ele>204.0</ele><time>2026-04-26T13:27:34.924Z</time></trkpt><trkpt lat="53.7197185" lon="-1.9560302"><ele>204.0</ele><time>2026-04-26T13:27:35.924Z</time></trkpt><trkpt lat="53.7196624" lon="-1.9559401"><ele>204.0</ele><time>2026-04-26T13:27:36.923Z</time></trkpt><trkpt lat="53.7196208" lon="-1.9558217"><ele>204.0</ele><time>2026-04-26T13:27:37.923Z</time></trkpt><trkpt lat="53.7195871" lon="-1.9557036"><ele>204.0</ele><time>2026-04-26T13:27:38.923Z</time></trkpt><trkpt lat="53.7195557" lon="-1.9556029"><ele>204.0</ele><time>2026-04-26T13:27:39.927Z</time></trkpt><trkpt lat="53.7195009" lon="-1.9554373"><ele>203.83333333333334</ele><time>2026-04-26T13:27:41.922Z</time></trkpt><trkpt lat="53.7194835" lon="-1.9552229"><ele>203.66666666666669</ele><time>2026-04-26T13:27:43.927Z</time></trkpt><trkpt lat="53.7194913" lon="-1.9551054"><ele>203.5</ele><time>2026-04-26T13:27:44.927Z</time></trkpt><trkpt lat="53.7194992" lon="-1.9549911"><ele>203.33333333333334</ele><time>2026-04-26T13:27:45.923Z</time></trkpt><trkpt lat="53.7195067" lon="-1.9548821"><ele>203.16666666666669</ele><time>2026-04-26T13:27:46.927Z</time></trkpt><trkpt lat="53.7195149" lon="-1.9547601"><ele>203.0</ele><time>2026-04-26T13:27:48.925Z</time></trkpt><trkpt lat="53.7194846" lon="-1.9549233"><ele>203.0</ele><time>2026-04-26T13:29:40.93Z</time></trkpt><trkpt lat="53.7194846" lon="-1.9550643"><ele>203.0</ele><time>2026-04-26T13:29:41.933Z</time></trkpt><trkpt lat="53.7194859" lon="-1.9552141"><ele>203.0</ele><time>2026-04-26T13:29:42.933Z</time></trkpt><trkpt lat="53.7194825" lon="-1.9553732"><ele>203.0</ele><time>2026-04-26T13:29:43.934Z</time></trkpt><trkpt lat="53.7194667" lon="-1.9555331"><ele>203.0</ele><time>2026-04-26T13:29:44.933Z</time></trkpt><trkpt lat="53.7194344" lon="-1.9556928"><ele>204.2</ele><time>2026-04-26T13:29:45.934Z</time></trkpt><trkpt lat="53.7193917" lon="-1.95586"><ele>205.4</ele><time>2026-04-26T13:29:46.933Z</time></trkpt><trkpt lat="53.7193422" lon="-1.9560356"><ele>206.6</ele><time>2026-04-26T13:29:47.93Z</time></trkpt><trkpt lat="53.7192987" lon="-1.9561875"><ele>207.79999999999998</ele><time>2026-04-26T13:29:48.927Z</time></trkpt><trkpt lat="53.7192611" lon="-1.9563019"><ele>209.0</ele><time>2026-04-26T13:29:49.927Z</time></trkpt><trkpt lat="53.7192222" lon="-1.9564002"><ele>209.39999999999998</ele><time>2026-04-26T13:29:50.925Z</time></trkpt><trkpt lat="53.7191754" lon="-1.9564982"><ele>209.8</ele><time>2026-04-26T13:29:51.932Z</time></trkpt><trkpt lat="53.7191148" lon="-1.9566048"><ele>210.2</ele><time>2026-04-26T13:29:52.934Z</time></trkpt><trkpt lat="53.7190354" lon="-1.956716"><ele>210.60000000000002</ele><time>2026-04-26T13:29:53.933Z</time></trkpt><trkpt lat="53.7189409" lon="-1.9568389"><ele>211.0</ele><time>2026-04-26T13:29:54.932Z</time></trkpt><trkpt lat="53.7188303" lon="-1.9569835"><ele>211.66666666666666</ele><time>2026-04-26T13:29:55.934Z</time></trkpt><trkpt lat="53.7187094" lon="-1.9571412"><ele>212.33333333333331</ele><time>2026-04-26T13:29:56.92Z</time></trkpt><trkpt lat="53.7185683" lon="-1.9573133"><ele>213.0</ele><time>2026-04-26T13:29:57.932Z</time></trkpt><trkpt lat="53.7184114" lon="-1.9574844"><ele>215.66666666666669</ele><time>2026-04-26T13:29:58.932Z</time></trkpt><trkpt lat="53.7182493" lon="-1.9576427"><ele>218.33333333333334</ele><time>2026-04-26T13:29:59.933Z</time></trkpt><trkpt lat="53.7180973" lon="-1.95779"><ele>221.0</ele><time>2026-04-26T13:30:00.934Z</time></trkpt><trkpt lat="53.7179637" lon="-1.9579408"><ele>221.0</ele><time>2026-04-26T13:30:01.928Z</time></trkpt><trkpt lat="53.7178419" lon="-1.9580932"><ele>221.0</ele><time>2026-04-26T13:30:02.927Z</time></trkpt><trkpt lat="53.7177241" lon="-1.9582377"><ele>221.0</ele><time>2026-04-26T13:30:03.932Z</time></trkpt><trkpt lat="53.7176149" lon="-1.958375"><ele>221.0</ele><time>2026-04-26T13:30:04.93Z</time></trkpt><trkpt lat="53.7175135" lon="-1.9584969"><ele>223.8</ele><time>2026-04-26T13:30:05.931Z</time></trkpt><trkpt lat="53.7174196" lon="-1.9585971"><ele>226.60000000000002</ele><time>2026-04-26T13:30:06.925Z</time></trkpt><trkpt lat="53.7173368" lon="-1.9587068"><ele>229.4</ele><time>2026-04-26T13:30:07.93Z</time></trkpt><trkpt lat="53.7172701" lon="-1.9588357"><ele>232.2</ele><time>2026-04-26T13:30:08.927Z</time></trkpt><trkpt lat="53.7172055" lon="-1.9589419"><ele>235.0</ele><time>2026-04-26T13:30:09.927Z</time></trkpt><trkpt lat="53.7171229" lon="-1.9589971"><ele>235.0</ele><time>2026-04-26T13:30:10.93Z</time></trkpt><trkpt lat="53.7170159" lon="-1.9589979"><ele>235.0</ele><time>2026-04-26T13:30:11.931Z</time></trkpt><trkpt lat="53.7168893" lon="-1.9589741"><ele>235.0</ele><time>2026-04-26T13:30:12.932Z</time></trkpt><trkpt lat="53.7167312" lon="-1.9589679"><ele>235.0</ele><time>2026-04-26T13:30:13.934Z</time></trkpt><trkpt lat="53.7165691" lon="-1.959011"><ele>239.0</ele><time>2026-04-26T13:30:14.933Z</time></trkpt><trkpt lat="53.7164158" lon="-1.9590945"><ele>243.0</ele><time>2026-04-26T13:30:15.932Z</time></trkpt><trkpt lat="53.7162621" lon="-1.9592043"><ele>247.0</ele><time>2026-04-26T13:30:16.932Z</time></trkpt><trkpt lat="53.7161037" lon="-1.9593441"><ele>250.25</ele><time>2026-04-26T13:30:17.93Z</time></trkpt><trkpt lat="53.7159697" lon="-1.9594778"><ele>253.5</ele><time>2026-04-26T13:30:18.932Z</time></trkpt><trkpt lat="53.7158764" lon="-1.9596046"><ele>256.75</ele><time>2026-04-26T13:30:19.929Z</time></trkpt><trkpt lat="53.7158095" lon="-1.9597436"><ele>260.0</ele><time>2026-04-26T13:30:20.931Z</time></trkpt><trkpt lat="53.7157605" lon="-1.9599042"><ele>260.75</ele><time>2026-04-26T13:30:21.922Z</time></trkpt><trkpt lat="53.7157142" lon="-1.9600811"><ele>261.5</ele><time>2026-04-26T13:30:22.933Z</time></trkpt><trkpt lat="53.7156615" lon="-1.9602701"><ele>262.25</ele><time>2026-04-26T13:30:23.931Z</time></trkpt><trkpt lat="53.7155981" lon="-1.9604723"><ele>263.0</ele><time>2026-04-26T13:30:24.935Z</time></trkpt><trkpt lat="53.7155249" lon="-1.9606856"><ele>264.0</ele><time>2026-04-26T13:30:25.932Z</time></trkpt><trkpt lat="53.7154518" lon="-1.9608982"><ele>265.0</ele><time>2026-04-26T13:30:26.93Z</time></trkpt><trkpt lat="53.7153804" lon="-1.9610979"><ele>266.0</ele><time>2026-04-26T13:30:27.932Z</time></trkpt><trkpt lat="53.7153196" lon="-1.9612742"><ele>267.0</ele><time>2026-04-26T13:30:28.932Z</time></trkpt><trkpt lat="53.7152677" lon="-1.9614251"><ele>267.6666666666667</ele><time>2026-04-26T13:30:29.931Z</time></trkpt><trkpt lat="53.7152282" lon="-1.9615553"><ele>268.3333333333333</ele><time>2026-04-26T13:30:30.934Z</time></trkpt><trkpt lat="53.715201" lon="-1.9616604"><ele>269.0</ele><time>2026-04-26T13:30:31.928Z</time></trkpt><trkpt lat="53.7151548" lon="-1.9617906"><ele>269.66666666666663</ele><time>2026-04-26T13:30:33.931Z</time></trkpt><trkpt lat="53.7150915" lon="-1.9617932"><ele>270.3333333333333</ele><time>2026-04-26T13:30:35.926Z</time></trkpt><trkpt lat="53.7149842" lon="-1.9616667"><ele>271.0</ele><time>2026-04-26T13:30:37.927Z</time></trkpt><trkpt lat="53.7149189" lon="-1.9615795"><ele>271.0</ele><time>2026-04-26T13:30:38.924Z</time></trkpt><trkpt lat="53.7148391" lon="-1.9614874"><ele>271.0</ele><time>2026-04-26T13:30:39.926Z</time></trkpt><trkpt lat="53.7147458" lon="-1.9613924"><ele>271.0</ele><time>2026-04-26T13:30:40.928Z</time></trkpt><trkpt lat="53.7146451" lon="-1.9612872"><ele>271.0</ele><time>2026-04-26T13:30:41.931Z</time></trkpt><trkpt lat="53.7145372" lon="-1.9611757"><ele>271.0</ele><time>2026-04-26T13:30:42.929Z</time></trkpt><trkpt lat="53.7144243" lon="-1.9610575"><ele>271.0</ele><time>2026-04-26T13:30:43.935Z</time></trkpt><trkpt lat="53.7143066" lon="-1.9609314"><ele>271.0</ele><time>2026-04-26T13:30:44.931Z</time></trkpt><trkpt lat="53.7141848" lon="-1.9607978"><ele>271.0</ele><time>2026-04-26T13:30:45.931Z</time></trkpt><trkpt lat="53.7140607" lon="-1.9606544"><ele>272.0</ele><time>2026-04-26T13:30:46.929Z</time></trkpt><trkpt lat="53.7139351" lon="-1.9605045"><ele>273.0</ele><time>2026-04-26T13:30:47.927Z</time></trkpt><trkpt lat="53.7138181" lon="-1.9603588"><ele>274.0</ele><time>2026-04-26T13:30:48.932Z</time></trkpt><trkpt lat="53.713721" lon="-1.9602316"><ele>275.0</ele><time>2026-04-26T13:30:49.929Z</time></trkpt><trkpt lat="53.7136328" lon="-1.960134"><ele>276.5</ele><time>2026-04-26T13:30:50.931Z</time></trkpt><trkpt lat="53.7135377" lon="-1.9600606"><ele>278.0</ele><time>2026-04-26T13:30:51.928Z</time></trkpt><trkpt lat="53.7134339" lon="-1.9600059"><ele>279.5</ele><time>2026-04-26T13:30:52.933Z</time></trkpt><trkpt lat="53.7133204" lon="-1.9599555"><ele>281.0</ele><time>2026-04-26T13:30:53.929Z</time></trkpt><trkpt lat="53.7131962" lon="-1.9599085"><ele>281.0</ele><time>2026-04-26T13:30:54.932Z</time></trkpt><trkpt lat="53.7130625" lon="-1.9598583"><ele>281.0</ele><time>2026-04-26T13:30:55.933Z</time></trkpt><trkpt lat="53.7129223" lon="-1.9598075"><ele>281.0</ele><time>2026-04-26T13:30:56.93Z</time></trkpt><trkpt lat="53.7127817" lon="-1.9597579"><ele>281.0</ele><time>2026-04-26T13:30:57.932Z</time></trkpt><trkpt lat="53.7126378" lon="-1.9597034"><ele>282.6666666666667</ele><time>2026-04-26T13:30:58.929Z</time></trkpt><trkpt lat="53.7124866" lon="-1.959644"><ele>284.3333333333333</ele><time>2026-04-26T13:30:59.929Z</time></trkpt><trkpt lat="53.7123309" lon="-1.9595954"><ele>286.0</ele><time>2026-04-26T13:31:00.929Z</time></trkpt><trkpt lat="53.7121707" lon="-1.9595661"><ele>286.0</ele><time>2026-04-26T13:31:01.928Z</time></trkpt><trkpt lat="53.7120093" lon="-1.9595501"><ele>286.0</ele><time>2026-04-26T13:31:02.927Z</time></trkpt><trkpt lat="53.7118476" lon="-1.9595481"><ele>286.0</ele><time>2026-04-26T13:31:03.928Z</time></trkpt><trkpt lat="53.7116842" lon="-1.9595547"><ele>285.5</ele><time>2026-04-26T13:31:04.927Z</time></trkpt><trkpt lat="53.7115341" lon="-1.9595586"><ele>285.0</ele><time>2026-04-26T13:31:05.928Z</time></trkpt><trkpt lat="53.7113908" lon="-1.9595621"><ele>284.5</ele><time>2026-04-26T13:31:06.924Z</time></trkpt><trkpt lat="53.7112543" lon="-1.9595703"><ele>284.0</ele><time>2026-04-26T13:31:07.928Z</time></trkpt><trkpt lat="53.7111209" lon="-1.9595854"><ele>283.75</ele><time>2026-04-26T13:31:08.928Z</time></trkpt><trkpt lat="53.710986" lon="-1.9596193"><ele>283.5</ele><time>2026-04-26T13:31:09.93Z</time></trkpt><trkpt lat="53.710855" lon="-1.9596717"><ele>283.25</ele><time>2026-04-26T13:31:10.931Z</time></trkpt><trkpt lat="53.7107336" lon="-1.9597287"><ele>283.0</ele><time>2026-04-26T13:31:11.931Z</time></trkpt><trkpt lat="53.7106209" lon="-1.9597668"><ele>283.0</ele><time>2026-04-26T13:31:12.932Z</time></trkpt><trkpt lat="53.7105187" lon="-1.9597673"><ele>283.0</ele><time>2026-04-26T13:31:13.934Z</time></trkpt><trkpt lat="53.7104279" lon="-1.9597228"><ele>283.0</ele><time>2026-04-26T13:31:14.93Z</time></trkpt><trkpt lat="53.7103379" lon="-1.9596258"><ele>283.0</ele><time>2026-04-26T13:31:15.929Z</time></trkpt><trkpt lat="53.710247" lon="-1.9595143"><ele>283.0</ele><time>2026-04-26T13:31:16.93Z</time></trkpt><trkpt lat="53.7101506" lon="-1.9594195"><ele>283.75</ele><time>2026-04-26T13:31:17.923Z</time></trkpt><trkpt lat="53.7100409" lon="-1.9593418"><ele>284.5</ele><time>2026-04-26T13:31:18.932Z</time></trkpt><trkpt lat="53.7099201" lon="-1.9592723"><ele>285.25</ele><time>2026-04-26T13:31:19.931Z</time></trkpt><trkpt lat="53.7097874" lon="-1.9592115"><ele>286.0</ele><time>2026-04-26T13:31:20.931Z</time></trkpt><trkpt lat="53.7096492" lon="-1.9591595"><ele>283.75</ele><time>2026-04-26T13:31:21.931Z</time></trkpt><trkpt lat="53.7095143" lon="-1.959115"><ele>281.5</ele><time>2026-04-26T13:31:22.93Z</time></trkpt><trkpt lat="53.7093894" lon="-1.959076"><ele>279.25</ele><time>2026-04-26T13:31:23.932Z</time></trkpt><trkpt lat="53.7092822" lon="-1.9590448"><ele>277.0</ele><time>2026-04-26T13:31:24.933Z</time></trkpt><trkpt lat="53.7091939" lon="-1.9590208"><ele>277.0</ele><time>2026-04-26T13:31:25.93Z</time></trkpt><trkpt lat="53.7091232" lon="-1.9590007"><ele>277.0</ele><time>2026-04-26T13:31:26.928Z</time></trkpt><trkpt lat="53.7090337" lon="-1.9589686"><ele>277.0</ele><time>2026-04-26T13:31:28.933Z</time></trkpt><trkpt lat="53.7089562" lon="-1.9589168"><ele>277.0</ele><time>2026-04-26T13:31:32.926Z</time></trkpt><trkpt lat="53.7088289" lon="-1.9588662"><ele>277.0</ele><time>2026-04-26T13:31:34.932Z</time></trkpt><trkpt lat="53.708726" lon="-1.9588368"><ele>277.0</ele><time>2026-04-26T13:31:35.932Z</time></trkpt><trkpt lat="53.7086001" lon="-1.9588042"><ele>277.0</ele><time>2026-04-26T13:31:36.932Z</time></trkpt><trkpt lat="53.7084615" lon="-1.9587631"><ele>277.0</ele><time>2026-04-26T13:31:37.932Z</time></trkpt><trkpt lat="53.7083209" lon="-1.9587183"><ele>277.0</ele><time>2026-04-26T13:31:38.939Z</time></trkpt><trkpt lat="53.7081922" lon="-1.9586793"><ele>276.2</ele><time>2026-04-26T13:31:39.934Z</time></trkpt><trkpt lat="53.708079" lon="-1.9586423"><ele>275.4</ele><time>2026-04-26T13:31:40.931Z</time></trkpt><trkpt lat="53.707986" lon="-1.9585893"><ele>274.6</ele><time>2026-04-26T13:31:41.932Z</time></trkpt><trkpt lat="53.7079111" lon="-1.9585161"><ele>273.8</ele><time>2026-04-26T13:31:42.933Z</time></trkpt><trkpt lat="53.707842" lon="-1.9584158"><ele>273.0</ele><time>2026-04-26T13:31:43.931Z</time></trkpt><trkpt lat="53.7077634" lon="-1.9582898"><ele>272.5</ele><time>2026-04-26T13:31:44.93Z</time></trkpt><trkpt lat="53.7076772" lon="-1.958145"><ele>272.0</ele><time>2026-04-26T13:31:45.931Z</time></trkpt><trkpt lat="53.7075808" lon="-1.9579919"><ele>271.5</ele><time>2026-04-26T13:31:46.932Z</time></trkpt><trkpt lat="53.7074774" lon="-1.9578254"><ele>271.0</ele><time>2026-04-26T13:31:47.93Z</time></trkpt><trkpt lat="53.707371" lon="-1.9576309"><ele>269.66666666666663</ele><time>2026-04-26T13:31:48.93Z</time></trkpt><trkpt lat="53.7072584" lon="-1.957389"><ele>268.3333333333333</ele><time>2026-04-26T13:31:49.931Z</time></trkpt><trkpt lat="53.7071372" lon="-1.9571228"><ele>267.0</ele><time>2026-04-26T13:31:50.931Z</time></trkpt><trkpt lat="53.7070093" lon="-1.9568367"><ele>267.6666666666667</ele><time>2026-04-26T13:31:51.932Z</time></trkpt><trkpt lat="53.7068866" lon="-1.9565609"><ele>268.33333333333337</ele><time>2026-04-26T13:31:52.934Z</time></trkpt><trkpt lat="53.7067742" lon="-1.9563068"><ele>269.0</ele><time>2026-04-26T13:31:53.934Z</time></trkpt><trkpt lat="53.7066628" lon="-1.9560669"><ele>268.0</ele><time>2026-04-26T13:31:54.933Z</time></trkpt><trkpt lat="53.706543" lon="-1.9558402"><ele>267.0</ele><time>2026-04-26T13:31:55.931Z</time></trkpt><trkpt lat="53.7064174" lon="-1.9556203"><ele>266.0</ele><time>2026-04-26T13:31:56.93Z</time></trkpt><trkpt lat="53.7062924" lon="-1.9553887"><ele>266.0</ele><time>2026-04-26T13:31:57.933Z</time></trkpt><trkpt lat="53.7061724" lon="-1.9551374"><ele>266.0</ele><time>2026-04-26T13:31:58.933Z</time></trkpt><trkpt lat="53.7060667" lon="-1.9549048"><ele>266.0</ele><time>2026-04-26T13:31:59.931Z</time></trkpt><trkpt lat="53.7059768" lon="-1.9547176"><ele>267.0</ele><time>2026-04-26T13:32:00.932Z</time></trkpt><trkpt lat="53.705902" lon="-1.954574"><ele>268.0</ele><time>2026-04-26T13:32:01.931Z</time></trkpt><trkpt lat="53.7058445" lon="-1.9544712"><ele>269.0</ele><time>2026-04-26T13:32:02.929Z</time></trkpt><trkpt lat="53.7057241" lon="-1.9544147"><ele>270.0</ele><time>2026-04-26T13:32:04.918Z</time></trkpt><trkpt lat="53.7056391" lon="-1.9544729"><ele>271.0</ele><time>2026-04-26T13:32:05.93Z</time></trkpt><trkpt lat="53.7055458" lon="-1.9545682"><ele>271.0</ele><time>2026-04-26T13:32:06.93Z</time></trkpt><trkpt lat="53.7054522" lon="-1.9546579"><ele>271.0</ele><time>2026-04-26T13:32:07.931Z</time></trkpt><trkpt lat="53.7053731" lon="-1.9547016"><ele>271.0</ele><time>2026-04-26T13:32:08.93Z</time></trkpt><trkpt lat="53.7052974" lon="-1.9545297"><ele>271.0</ele><time>2026-04-26T13:32:10.931Z</time></trkpt><trkpt lat="53.7052784" lon="-1.9543404"><ele>271.0</ele><time>2026-04-26T13:32:11.931Z</time></trkpt><trkpt lat="53.705256" lon="-1.9540817"><ele>271.66666666666663</ele><time>2026-04-26T13:32:12.931Z</time></trkpt><trkpt lat="53.7052202" lon="-1.9538238"><ele>272.3333333333333</ele><time>2026-04-26T13:32:13.934Z</time></trkpt><trkpt lat="53.7051795" lon="-1.9535391"><ele>273.0</ele><time>2026-04-26T13:32:14.933Z</time></trkpt><trkpt lat="53.7051303" lon="-1.9532516"><ele>271.6666666666667</ele><time>2026-04-26T13:32:15.934Z</time></trkpt><trkpt lat="53.7050804" lon="-1.9529408"><ele>270.33333333333337</ele><time>2026-04-26T13:32:16.934Z</time></trkpt><trkpt lat="53.7050272" lon="-1.9526356"><ele>269.0</ele><time>2026-04-26T13:32:17.931Z</time></trkpt><trkpt lat="53.7049816" lon="-1.9523477"><ele>268.8</ele><time>2026-04-26T13:32:18.935Z</time></trkpt><trkpt lat="53.7049493" lon="-1.9521148"><ele>268.59999999999997</ele><time>2026-04-26T13:32:19.936Z</time></trkpt><trkpt lat="53.7049202" lon="-1.9519487"><ele>268.4</ele><time>2026-04-26T13:32:20.933Z</time></trkpt><trkpt lat="53.704873" lon="-1.9518253"><ele>268.2</ele><time>2026-04-26T13:32:21.933Z</time></trkpt><trkpt lat="53.7048056" lon="-1.9517334"><ele>268.0</ele><time>2026-04-26T13:32:22.932Z</time></trkpt><trkpt lat="53.704712" lon="-1.9516762"><ele>267.75</ele><time>2026-04-26T13:32:23.935Z</time></trkpt><trkpt lat="53.7045909" lon="-1.9516478"><ele>267.5</ele><time>2026-04-26T13:32:24.932Z</time></trkpt><trkpt lat="53.7044565" lon="-1.9516046"><ele>267.25</ele><time>2026-04-26T13:32:25.932Z</time></trkpt><trkpt lat="53.7043233" lon="-1.9515109"><ele>267.0</ele><time>2026-04-26T13:32:26.931Z</time></trkpt><trkpt lat="53.704193" lon="-1.9513957"><ele>267.0</ele><time>2026-04-26T13:32:27.93Z</time></trkpt><trkpt lat="53.7040744" lon="-1.951282"><ele>267.0</ele><time>2026-04-26T13:32:28.933Z</time></trkpt><trkpt lat="53.7039677" lon="-1.9511853"><ele>267.0</ele><time>2026-04-26T13:32:29.931Z</time></trkpt><trkpt lat="53.7038784" lon="-1.9511025"><ele>267.0</ele><time>2026-04-26T13:32:30.931Z</time></trkpt><trkpt lat="53.7038045" lon="-1.9510316"><ele>267.0</ele><time>2026-04-26T13:32:31.931Z</time></trkpt><trkpt lat="53.7037429" lon="-1.9509682"><ele>267.0</ele><time>2026-04-26T13:32:32.933Z</time></trkpt><trkpt lat="53.7036666" lon="-1.9508893"><ele>267.0</ele><time>2026-04-26T13:32:34.932Z</time></trkpt><trkpt lat="53.7036256" lon="-1.9510054"><ele>267.0</ele><time>2026-04-26T13:32:40.93Z</time></trkpt><trkpt lat="53.7035821" lon="-1.9512328"><ele>267.0</ele><time>2026-04-26T13:32:42.917Z</time></trkpt><trkpt lat="53.703564" lon="-1.9514024"><ele>267.0</ele><time>2026-04-26T13:32:43.927Z</time></trkpt><trkpt lat="53.7035463" lon="-1.9515905"><ele>267.0</ele><time>2026-04-26T13:32:44.928Z</time></trkpt><trkpt lat="53.7035288" lon="-1.951796"><ele>267.0</ele><time>2026-04-26T13:32:45.929Z</time></trkpt><trkpt lat="53.7035114" lon="-1.9520059"><ele>267.0</ele><time>2026-04-26T13:32:46.933Z</time></trkpt><trkpt lat="53.7034943" lon="-1.9522198"><ele>267.0</ele><time>2026-04-26T13:32:47.932Z</time></trkpt><trkpt lat="53.7034751" lon="-1.9524348"><ele>268.0</ele><time>2026-04-26T13:32:48.933Z</time></trkpt><trkpt lat="53.703451" lon="-1.9526525"><ele>269.0</ele><time>2026-04-26T13:32:49.934Z</time></trkpt><trkpt lat="53.7034159" lon="-1.9528744"><ele>270.0</ele><time>2026-04-26T13:32:50.937Z</time></trkpt><trkpt lat="53.7033617" lon="-1.9530929"><ele>271.0</ele><time>2026-04-26T13:32:51.93Z</time></trkpt><trkpt lat="53.7032943" lon="-1.9533046"><ele>273.0</ele><time>2026-04-26T13:32:52.931Z</time></trkpt><trkpt lat="53.7032281" lon="-1.9535198"><ele>275.0</ele><time>2026-04-26T13:32:53.932Z</time></trkpt><trkpt lat="53.7031722" lon="-1.9537544"><ele>277.0</ele><time>2026-04-26T13:32:54.929Z</time></trkpt><trkpt lat="53.7031332" lon="-1.9540101"><ele>278.66666666666663</ele><time>2026-04-26T13:32:55.929Z</time></trkpt><trkpt lat="53.7031046" lon="-1.9542755"><ele>280.3333333333333</ele><time>2026-04-26T13:32:56.93Z</time></trkpt><trkpt lat="53.703083" lon="-1.9545397"><ele>282.0</ele><time>2026-04-26T13:32:57.931Z</time></trkpt><trkpt lat="53.7030516" lon="-1.9548"><ele>282.0</ele><time>2026-04-26T13:32:58.929Z</time></trkpt><trkpt lat="53.70301" lon="-1.9550307"><ele>282.0</ele><time>2026-04-26T13:32:59.93Z</time></trkpt><trkpt lat="53.7029614" lon="-1.9552212"><ele>282.0</ele><time>2026-04-26T13:33:00.932Z</time></trkpt><trkpt lat="53.7029037" lon="-1.9553813"><ele>282.0</ele><time>2026-04-26T13:33:01.933Z</time></trkpt><trkpt lat="53.7028361" lon="-1.9555197"><ele>282.4</ele><time>2026-04-26T13:33:02.93Z</time></trkpt><trkpt lat="53.7027687" lon="-1.9556479"><ele>282.79999999999995</ele><time>2026-04-26T13:33:03.931Z</time></trkpt><trkpt lat="53.7027082" lon="-1.9557977"><ele>283.2</ele><time>2026-04-26T13:33:04.929Z</time></trkpt><trkpt lat="53.7026622" lon="-1.955971"><ele>283.59999999999997</ele><time>2026-04-26T13:33:05.926Z</time></trkpt><trkpt lat="53.7026298" lon="-1.9561656"><ele>284.0</ele><time>2026-04-26T13:33:06.929Z</time></trkpt><trkpt lat="53.7026104" lon="-1.9563751"><ele>285.75</ele><time>2026-04-26T13:33:07.93Z</time></trkpt><trkpt lat="53.7026021" lon="-1.9565982"><ele>287.5</ele><time>2026-04-26T13:33:08.927Z</time></trkpt><trkpt lat="53.702599" lon="-1.9568279"><ele>289.25</ele><time>2026-04-26T13:33:09.928Z</time></trkpt><trkpt lat="53.7025926" lon="-1.9570541"><ele>291.0</ele><time>2026-04-26T13:33:10.931Z</time></trkpt><trkpt lat="53.7025704" lon="-1.9572711"><ele>293.25</ele><time>2026-04-26T13:33:11.928Z</time></trkpt><trkpt lat="53.702522" lon="-1.9574817"><ele>295.5</ele><time>2026-04-26T13:33:12.928Z</time></trkpt><trkpt lat="53.7024487" lon="-1.9576681"><ele>297.75</ele><time>2026-04-26T13:33:13.932Z</time></trkpt><trkpt lat="53.702357" lon="-1.957847"><ele>300.0</ele><time>2026-04-26T13:33:14.93Z</time></trkpt><trkpt lat="53.7022642" lon="-1.9580438"><ele>303.0</ele><time>2026-04-26T13:33:15.931Z</time></trkpt><trkpt lat="53.702175" lon="-1.9582618"><ele>306.0</ele><time>2026-04-26T13:33:16.931Z</time></trkpt><trkpt lat="53.7020757" lon="-1.9585096"><ele>309.0</ele><time>2026-04-26T13:33:17.932Z</time></trkpt><trkpt lat="53.7019639" lon="-1.9587733"><ele>309.3333333333333</ele><time>2026-04-26T13:33:18.931Z</time></trkpt><trkpt lat="53.7018321" lon="-1.9590499"><ele>309.66666666666663</ele><time>2026-04-26T13:33:19.93Z</time></trkpt><trkpt lat="53.7016826" lon="-1.9593296"><ele>310.0</ele><time>2026-04-26T13:33:20.93Z</time></trkpt><trkpt lat="53.7015427" lon="-1.9595907"><ele>312.3333333333333</ele><time>2026-04-26T13:33:21.931Z</time></trkpt><trkpt lat="53.7014212" lon="-1.9598227"><ele>314.6666666666667</ele><time>2026-04-26T13:33:22.933Z</time></trkpt><trkpt lat="53.7013303" lon="-1.9600223"><ele>317.0</ele><time>2026-04-26T13:33:23.94Z</time></trkpt><trkpt lat="53.7012604" lon="-1.9602107"><ele>317.5</ele><time>2026-04-26T13:33:24.93Z</time></trkpt><trkpt lat="53.7012196" lon="-1.9603834"><ele>318.0</ele><time>2026-04-26T13:33:25.933Z</time></trkpt><trkpt lat="53.7011997" lon="-1.960558"><ele>318.5</ele><time>2026-04-26T13:33:26.931Z</time></trkpt><trkpt lat="53.7011984" lon="-1.9607481"><ele>319.0</ele><time>2026-04-26T13:33:27.934Z</time></trkpt><trkpt lat="53.7012067" lon="-1.9609577"><ele>319.25</ele><time>2026-04-26T13:33:28.932Z</time></trkpt><trkpt lat="53.7012163" lon="-1.9611898"><ele>319.5</ele><time>2026-04-26T13:33:29.933Z</time></trkpt><trkpt lat="53.7012316" lon="-1.9614428"><ele>319.75</ele><time>2026-04-26T13:33:30.934Z</time></trkpt><trkpt lat="53.7012454" lon="-1.9617025"><ele>320.0</ele><time>2026-04-26T13:33:31.929Z</time></trkpt><trkpt lat="53.7012452" lon="-1.9619581"><ele>319.25</ele><time>2026-04-26T13:33:32.933Z</time></trkpt><trkpt lat="53.7012433" lon="-1.9622059"><ele>318.5</ele><time>2026-04-26T13:33:33.936Z</time></trkpt><trkpt lat="53.7012463" lon="-1.9624305"><ele>317.75</ele><time>2026-04-26T13:33:34.935Z</time></trkpt><trkpt lat="53.7012722" lon="-1.9626498"><ele>317.0</ele><time>2026-04-26T13:33:35.932Z</time></trkpt><trkpt lat="53.7013164" lon="-1.9628665"><ele>316.5</ele><time>2026-04-26T13:33:36.932Z</time></trkpt><trkpt lat="53.7013753" lon="-1.9630867"><ele>316.0</ele><time>2026-04-26T13:33:37.931Z</time></trkpt><trkpt lat="53.7014357" lon="-1.963302"><ele>315.5</ele><time>2026-04-26T13:33:38.933Z</time></trkpt><trkpt lat="53.7014819" lon="-1.9635211"><ele>315.0</ele><time>2026-04-26T13:33:39.932Z</time></trkpt><trkpt lat="53.7015094" lon="-1.9637482"><ele>315.0</ele><time>2026-04-26T13:33:40.933Z</time></trkpt><trkpt lat="53.7015165" lon="-1.9639689"><ele>315.0</ele><time>2026-04-26T13:33:41.93Z</time></trkpt><trkpt lat="53.7014974" lon="-1.9641685"><ele>315.0</ele><time>2026-04-26T13:33:42.932Z</time></trkpt><trkpt lat="53.7014412" lon="-1.9643518"><ele>315.0</ele><time>2026-04-26T13:33:43.935Z</time></trkpt><trkpt lat="53.7013517" lon="-1.9645201"><ele>315.6666666666667</ele><time>2026-04-26T13:33:44.934Z</time></trkpt><trkpt lat="53.7012415" lon="-1.9646954"><ele>316.33333333333337</ele><time>2026-04-26T13:33:45.932Z</time></trkpt><trkpt lat="53.7011261" lon="-1.9648917"><ele>317.0</ele><time>2026-04-26T13:33:46.932Z</time></trkpt><trkpt lat="53.7010128" lon="-1.9651012"><ele>317.6666666666667</ele><time>2026-04-26T13:33:47.931Z</time></trkpt><trkpt lat="53.7009026" lon="-1.9653029"><ele>318.3333333333333</ele><time>2026-04-26T13:33:48.933Z</time></trkpt><trkpt lat="53.700798" lon="-1.9654857"><ele>319.0</ele><time>2026-04-26T13:33:49.934Z</time></trkpt><trkpt lat="53.7006937" lon="-1.9656562"><ele>319.0</ele><time>2026-04-26T13:33:50.932Z</time></trkpt><trkpt lat="53.7005786" lon="-1.9658117"><ele>319.0</ele><time>2026-04-26T13:33:51.932Z</time></trkpt><trkpt lat="53.7004538" lon="-1.96595"><ele>319.0</ele><time>2026-04-26T13:33:52.932Z</time></trkpt><trkpt lat="53.7003312" lon="-1.9660693"><ele>319.0</ele><time>2026-04-26T13:33:53.934Z</time></trkpt><trkpt lat="53.7002163" lon="-1.9661848"><ele>319.0</ele><time>2026-04-26T13:33:54.932Z</time></trkpt><trkpt lat="53.7001098" lon="-1.966311"><ele>319.0</ele><time>2026-04-26T13:33:55.93Z</time></trkpt><trkpt lat="53.7000117" lon="-1.9664634"><ele>319.0</ele><time>2026-04-26T13:33:56.933Z</time></trkpt><trkpt lat="53.6999214" lon="-1.9666464"><ele>319.0</ele><time>2026-04-26T13:33:57.932Z</time></trkpt><trkpt lat="53.6998304" lon="-1.9668572"><ele>319.66666666666663</ele><time>2026-04-26T13:33:58.932Z</time></trkpt><trkpt lat="53.6997333" lon="-1.9670905"><ele>320.3333333333333</ele><time>2026-04-26T13:33:59.932Z</time></trkpt><trkpt lat="53.6996297" lon="-1.9673389"><ele>321.0</ele><time>2026-04-26T13:34:00.933Z</time></trkpt><trkpt lat="53.6995226" lon="-1.9675971"><ele>320.3333333333333</ele><time>2026-04-26T13:34:01.931Z</time></trkpt><trkpt lat="53.6994058" lon="-1.9678517"><ele>319.66666666666663</ele><time>2026-04-26T13:34:02.931Z</time></trkpt><trkpt lat="53.699277" lon="-1.9681009"><ele>319.0</ele><time>2026-04-26T13:34:03.936Z</time></trkpt><trkpt lat="53.6991409" lon="-1.9683477"><ele>320.0</ele><time>2026-04-26T13:34:04.931Z</time></trkpt><trkpt lat="53.699003" lon="-1.9686009"><ele>321.0</ele><time>2026-04-26T13:34:05.934Z</time></trkpt><trkpt lat="53.6988679" lon="-1.9688495"><ele>322.0</ele><time>2026-04-26T13:34:06.933Z</time></trkpt><trkpt lat="53.6987386" lon="-1.9690765"><ele>323.0</ele><time>2026-04-26T13:34:07.932Z</time></trkpt><trkpt lat="53.6986219" lon="-1.9692776"><ele>324.0</ele><time>2026-04-26T13:34:08.929Z</time></trkpt><trkpt lat="53.6985152" lon="-1.9694551"><ele>325.0</ele><time>2026-04-26T13:34:09.932Z</time></trkpt><trkpt lat="53.6984077" lon="-1.9696206"><ele>325.0</ele><time>2026-04-26T13:34:10.931Z</time></trkpt><trkpt lat="53.6982936" lon="-1.9697778"><ele>325.0</ele><time>2026-04-26T13:34:11.93Z</time></trkpt><trkpt lat="53.6981722" lon="-1.9699178"><ele>325.0</ele><time>2026-04-26T13:34:12.929Z</time></trkpt><trkpt lat="53.6980464" lon="-1.9700445"><ele>325.0</ele><time>2026-04-26T13:34:13.934Z</time></trkpt><trkpt lat="53.6979207" lon="-1.9701684"><ele>325.75</ele><time>2026-04-26T13:34:14.931Z</time></trkpt><trkpt lat="53.697792" lon="-1.9702898"><ele>326.5</ele><time>2026-04-26T13:34:15.932Z</time></trkpt><trkpt lat="53.6976633" lon="-1.9704002"><ele>327.25</ele><time>2026-04-26T13:34:16.929Z</time></trkpt><trkpt lat="53.6975355" lon="-1.9704921"><ele>328.0</ele><time>2026-04-26T13:34:17.929Z</time></trkpt><trkpt lat="53.6974122" lon="-1.9705628"><ele>328.0</ele><time>2026-04-26T13:34:18.929Z</time></trkpt><trkpt lat="53.6973016" lon="-1.970613"><ele>328.0</ele><time>2026-04-26T13:34:19.929Z</time></trkpt><trkpt lat="53.6972057" lon="-1.9706539"><ele>328.0</ele><time>2026-04-26T13:34:20.93Z</time></trkpt><trkpt lat="53.6971228" lon="-1.9707043"><ele>328.0</ele><time>2026-04-26T13:34:21.926Z</time></trkpt><trkpt lat="53.6970474" lon="-1.9707768"><ele>328.0</ele><time>2026-04-26T13:34:22.933Z</time></trkpt><trkpt lat="53.6969754" lon="-1.9708812"><ele>326.0</ele><time>2026-04-26T13:34:23.932Z</time></trkpt><trkpt lat="53.6969069" lon="-1.9710286"><ele>324.0</ele><time>2026-04-26T13:34:24.932Z</time></trkpt><trkpt lat="53.6968349" lon="-1.9711971"><ele>322.0</ele><time>2026-04-26T13:34:25.931Z</time></trkpt><trkpt lat="53.6967641" lon="-1.9713556"><ele>320.0</ele><time>2026-04-26T13:34:26.933Z</time></trkpt><trkpt lat="53.6966989" lon="-1.9714881"><ele>320.0</ele><time>2026-04-26T13:34:27.93Z</time></trkpt><trkpt lat="53.6966388" lon="-1.9715825"><ele>320.0</ele><time>2026-04-26T13:34:28.929Z</time></trkpt><trkpt lat="53.6965565" lon="-1.9716862"><ele>320.0</ele><time>2026-04-26T13:34:30.931Z</time></trkpt><trkpt lat="53.6965132" lon="-1.9718172"><ele>320.0</ele><time>2026-04-26T13:35:25.926Z</time></trkpt><trkpt lat="53.6964345" lon="-1.9719787"><ele>320.0</ele><time>2026-04-26T13:35:27.926Z</time></trkpt><trkpt lat="53.6963864" lon="-1.9720547"><ele>320.0</ele><time>2026-04-26T13:35:28.925Z</time></trkpt><trkpt lat="53.6962788" lon="-1.9721519"><ele>320.0</ele><time>2026-04-26T13:35:30.927Z</time></trkpt><trkpt lat="53.6961793" lon="-1.9721286"><ele>320.0</ele><time>2026-04-26T13:35:32.923Z</time></trkpt><trkpt lat="53.6961586" lon="-1.9719613"><ele>320.0</ele><time>2026-04-26T13:35:34.925Z</time></trkpt><trkpt lat="53.6961623" lon="-1.9718197"><ele>320.0</ele><time>2026-04-26T13:35:35.925Z</time></trkpt><trkpt lat="53.6961582" lon="-1.9716515"><ele>320.0</ele><time>2026-04-26T13:35:36.925Z</time></trkpt><trkpt lat="53.696153" lon="-1.9714522"><ele>320.0</ele><time>2026-04-26T13:35:37.926Z</time></trkpt><trkpt lat="53.6961442" lon="-1.9712275"><ele>320.0</ele><time>2026-04-26T13:35:38.925Z</time></trkpt><trkpt lat="53.6961377" lon="-1.9709898"><ele>320.0</ele><time>2026-04-26T13:35:39.925Z</time></trkpt><trkpt lat="53.6961226" lon="-1.9707519"><ele>318.5</ele><time>2026-04-26T13:35:40.927Z</time></trkpt><trkpt lat="53.6961063" lon="-1.9705139"><ele>317.0</ele><time>2026-04-26T13:35:41.928Z</time></trkpt><trkpt lat="53.6960978" lon="-1.9703015"><ele>315.5</ele><time>2026-04-26T13:35:42.915Z</time></trkpt><trkpt lat="53.6960878" lon="-1.9701252"><ele>314.0</ele><time>2026-04-26T13:35:43.926Z</time></trkpt><trkpt lat="53.6960632" lon="-1.9699779"><ele>308.25</ele><time>2026-04-26T13:35:44.926Z</time></trkpt><trkpt lat="53.6960177" lon="-1.9698367"><ele>302.5</ele><time>2026-04-26T13:35:45.923Z</time></trkpt><trkpt lat="53.6959497" lon="-1.9696836"><ele>296.75</ele><time>2026-04-26T13:35:46.919Z</time></trkpt><trkpt lat="53.6958683" lon="-1.9695269"><ele>291.0</ele><time>2026-04-26T13:35:47.926Z</time></trkpt><trkpt lat="53.6957748" lon="-1.9693613"><ele>289.6666666666667</ele><time>2026-04-26T13:35:48.926Z</time></trkpt><trkpt lat="53.6956759" lon="-1.9691743"><ele>288.33333333333337</ele><time>2026-04-26T13:35:49.924Z</time></trkpt><trkpt lat="53.6955734" lon="-1.9689704"><ele>287.0</ele><time>2026-04-26T13:35:50.925Z</time></trkpt><trkpt lat="53.6954727" lon="-1.9687552"><ele>287.0</ele><time>2026-04-26T13:35:51.927Z</time></trkpt><trkpt lat="53.6953758" lon="-1.9685369"><ele>287.0</ele><time>2026-04-26T13:35:52.93Z</time></trkpt><trkpt lat="53.6952861" lon="-1.9683083"><ele>287.0</ele><time>2026-04-26T13:35:53.933Z</time></trkpt><trkpt lat="53.6952071" lon="-1.9680813"><ele>285.25</ele><time>2026-04-26T13:35:54.926Z</time></trkpt><trkpt lat="53.6951449" lon="-1.9678798"><ele>283.5</ele><time>2026-04-26T13:35:55.927Z</time></trkpt><trkpt lat="53.6950869" lon="-1.9676799"><ele>281.75</ele><time>2026-04-26T13:35:56.924Z</time></trkpt><trkpt lat="53.6950323" lon="-1.9674964"><ele>280.0</ele><time>2026-04-26T13:35:57.926Z</time></trkpt><trkpt lat="53.6949755" lon="-1.9673291"><ele>279.5</ele><time>2026-04-26T13:35:58.926Z</time></trkpt><trkpt lat="53.6949101" lon="-1.9671731"><ele>279.0</ele><time>2026-04-26T13:35:59.924Z</time></trkpt><trkpt lat="53.6948271" lon="-1.9670276"><ele>278.5</ele><time>2026-04-26T13:36:00.924Z</time></trkpt><trkpt lat="53.6947292" lon="-1.9669033"><ele>278.0</ele><time>2026-04-26T13:36:01.926Z</time></trkpt><trkpt lat="53.6946321" lon="-1.9667996"><ele>278.0</ele><time>2026-04-26T13:36:02.923Z</time></trkpt><trkpt lat="53.6945526" lon="-1.9667226"><ele>278.0</ele><time>2026-04-26T13:36:03.93Z</time></trkpt><trkpt lat="53.6944961" lon="-1.9666652"><ele>278.0</ele><time>2026-04-26T13:36:04.926Z</time></trkpt><trkpt lat="53.6944594" lon="-1.9665644"><ele>278.0</ele><time>2026-04-26T13:36:06.924Z</time></trkpt><trkpt lat="53.6945316" lon="-1.9664276"><ele>278.0</ele><time>2026-04-26T13:36:08.928Z</time></trkpt><trkpt lat="53.6945954" lon="-1.9663269"><ele>278.0</ele><time>2026-04-26T13:36:09.925Z</time></trkpt><trkpt lat="53.6946527" lon="-1.9662084"><ele>277.2</ele><time>2026-04-26T13:36:10.927Z</time></trkpt><trkpt lat="53.6946967" lon="-1.9660807"><ele>276.4</ele><time>2026-04-26T13:36:11.923Z</time></trkpt><trkpt lat="53.6947263" lon="-1.9659441"><ele>275.59999999999997</ele><time>2026-04-26T13:36:12.919Z</time></trkpt><trkpt lat="53.6947439" lon="-1.9657952"><ele>274.8</ele><time>2026-04-26T13:36:13.926Z</time></trkpt><trkpt lat="53.6947477" lon="-1.9656385"><ele>274.0</ele><time>2026-04-26T13:36:14.925Z</time></trkpt><trkpt lat="53.6947394" lon="-1.9654779"><ele>273.16666666666663</ele><time>2026-04-26T13:36:15.924Z</time></trkpt><trkpt lat="53.694732" lon="-1.9653149"><ele>272.3333333333333</ele><time>2026-04-26T13:36:16.925Z</time></trkpt><trkpt lat="53.6947236" lon="-1.9651525"><ele>271.5</ele><time>2026-04-26T13:36:17.924Z</time></trkpt><trkpt lat="53.6947209" lon="-1.9650054"><ele>270.6666666666667</ele><time>2026-04-26T13:36:18.926Z</time></trkpt><trkpt lat="53.6947296" lon="-1.9648644"><ele>269.83333333333337</ele><time>2026-04-26T13:36:19.925Z</time></trkpt><trkpt lat="53.6947438" lon="-1.9647318"><ele>269.0</ele><time>2026-04-26T13:36:20.925Z</time></trkpt><trkpt lat="53.6947689" lon="-1.9646071"><ele>267.6666666666667</ele><time>2026-04-26T13:36:21.926Z</time></trkpt><trkpt lat="53.6948064" lon="-1.9644946"><ele>266.33333333333337</ele><time>2026-04-26T13:36:22.925Z</time></trkpt><trkpt lat="53.6948583" lon="-1.9644049"><ele>265.0</ele><time>2026-04-26T13:36:23.925Z</time></trkpt><trkpt lat="53.6949178" lon="-1.9643398"><ele>263.6666666666667</ele><time>2026-04-26T13:36:24.93Z</time></trkpt><trkpt lat="53.6950197" lon="-1.9642122"><ele>262.3333333333333</ele><time>2026-04-26T13:36:26.93Z</time></trkpt><trkpt lat="53.6950541" lon="-1.9640876"><ele>261.0</ele><time>2026-04-26T13:36:27.926Z</time></trkpt><trkpt lat="53.6950618" lon="-1.9639378"><ele>259.75</ele><time>2026-04-26T13:36:28.927Z</time></trkpt><trkpt lat="53.6950543" lon="-1.9637461"><ele>258.5</ele><time>2026-04-26T13:36:29.927Z</time></trkpt><trkpt lat="53.6950464" lon="-1.9635405"><ele>257.25</ele><time>2026-04-26T13:36:30.927Z</time></trkpt><trkpt lat="53.6950461" lon="-1.9633194"><ele>256.0</ele><time>2026-04-26T13:36:31.927Z</time></trkpt><trkpt lat="53.6950501" lon="-1.9631057"><ele>255.20000000000002</ele><time>2026-04-26T13:36:32.926Z</time></trkpt><trkpt lat="53.695067" lon="-1.9629033"><ele>254.40000000000003</ele><time>2026-04-26T13:36:33.926Z</time></trkpt><trkpt lat="53.6950895" lon="-1.9627021"><ele>253.6</ele><time>2026-04-26T13:36:34.924Z</time></trkpt><trkpt lat="53.6951088" lon="-1.9625256"><ele>252.8</ele><time>2026-04-26T13:36:35.927Z</time></trkpt><trkpt lat="53.6951236" lon="-1.9623717"><ele>252.0</ele><time>2026-04-26T13:36:36.926Z</time></trkpt><trkpt lat="53.6951413" lon="-1.9622328"><ele>252.2</ele><time>2026-04-26T13:36:37.925Z</time></trkpt><trkpt lat="53.6951713" lon="-1.9621117"><ele>252.39999999999998</ele><time>2026-04-26T13:36:38.926Z</time></trkpt><trkpt lat="53.6952127" lon="-1.9619927"><ele>252.60000000000002</ele><time>2026-04-26T13:36:39.927Z</time></trkpt><trkpt lat="53.6952636" lon="-1.9618679"><ele>252.8</ele><time>2026-04-26T13:36:40.927Z</time></trkpt><trkpt lat="53.6953194" lon="-1.9617287"><ele>253.0</ele><time>2026-04-26T13:36:41.925Z</time></trkpt><trkpt lat="53.6953743" lon="-1.9615739"><ele>253.0</ele><time>2026-04-26T13:36:42.924Z</time></trkpt><trkpt lat="53.6954355" lon="-1.96142"><ele>253.0</ele><time>2026-04-26T13:36:43.925Z</time></trkpt><trkpt lat="53.6954988" lon="-1.9612719"><ele>253.0</ele><time>2026-04-26T13:36:44.924Z</time></trkpt><trkpt lat="53.6955624" lon="-1.9611341"><ele>253.0</ele><time>2026-04-26T13:36:45.924Z</time></trkpt><trkpt lat="53.695625" lon="-1.9610126"><ele>253.0</ele><time>2026-04-26T13:36:46.924Z</time></trkpt><trkpt lat="53.6956769" lon="-1.9609165"><ele>251.60000000000002</ele><time>2026-04-26T13:36:47.922Z</time></trkpt><trkpt lat="53.6957309" lon="-1.9607994"><ele>250.20000000000002</ele><time>2026-04-26T13:36:49.923Z</time></trkpt><trkpt lat="53.6956996" lon="-1.9607061"><ele>248.8</ele><time>2026-04-26T13:36:53.925Z</time></trkpt><trkpt lat="53.6955846" lon="-1.9606994"><ele>247.4</ele><time>2026-04-26T13:36:54.926Z</time></trkpt><trkpt lat="53.6954279" lon="-1.9606918"><ele>246.0</ele><time>2026-04-26T13:36:55.923Z</time></trkpt><trkpt lat="53.6952523" lon="-1.9606936"><ele>244.33333333333331</ele><time>2026-04-26T13:36:56.918Z</time></trkpt><trkpt lat="53.6950752" lon="-1.960717"><ele>242.66666666666666</ele><time>2026-04-26T13:36:57.929Z</time></trkpt><trkpt lat="53.6949099" lon="-1.960775"><ele>241.0</ele><time>2026-04-26T13:36:58.931Z</time></trkpt><trkpt lat="53.6947627" lon="-1.9608302"><ele>241.0</ele><time>2026-04-26T13:36:59.928Z</time></trkpt><trkpt lat="53.6946277" lon="-1.960879"><ele>241.00000000000003</ele><time>2026-04-26T13:37:00.925Z</time></trkpt><trkpt lat="53.6945291" lon="-1.9609072"><ele>241.00000000000003</ele><time>2026-04-26T13:37:01.922Z</time></trkpt><trkpt lat="53.6944522" lon="-1.96089"><ele>241.0</ele><time>2026-04-26T13:37:02.927Z</time></trkpt><trkpt lat="53.694382" lon="-1.9608271"><ele>241.0</ele><time>2026-04-26T13:37:03.927Z</time></trkpt><trkpt lat="53.694301" lon="-1.9607316"><ele>239.5</ele><time>2026-04-26T13:37:04.925Z</time></trkpt><trkpt lat="53.6942147" lon="-1.9606259"><ele>238.0</ele><time>2026-04-26T13:37:05.925Z</time></trkpt><trkpt lat="53.6941137" lon="-1.9605156"><ele>236.5</ele><time>2026-04-26T13:37:06.926Z</time></trkpt><trkpt lat="53.6939952" lon="-1.9603991"><ele>235.0</ele><time>2026-04-26T13:37:07.929Z</time></trkpt><trkpt lat="53.6938649" lon="-1.9602698"><ele>235.0</ele><time>2026-04-26T13:37:08.928Z</time></trkpt><trkpt lat="53.6937367" lon="-1.9601416"><ele>235.0</ele><time>2026-04-26T13:37:09.925Z</time></trkpt><trkpt lat="53.6936179" lon="-1.9600198"><ele>235.0</ele><time>2026-04-26T13:37:10.927Z</time></trkpt><trkpt lat="53.6935155" lon="-1.9598893"><ele>235.0</ele><time>2026-04-26T13:37:11.926Z</time></trkpt><trkpt lat="53.6934254" lon="-1.9597383"><ele>234.5</ele><time>2026-04-26T13:37:12.926Z</time></trkpt><trkpt lat="53.6933396" lon="-1.9595643"><ele>234.0</ele><time>2026-04-26T13:37:13.929Z</time></trkpt><trkpt lat="53.693253" lon="-1.9593785"><ele>233.5</ele><time>2026-04-26T13:37:14.925Z</time></trkpt><trkpt lat="53.6931615" lon="-1.9591858"><ele>233.0</ele><time>2026-04-26T13:37:15.926Z</time></trkpt><trkpt lat="53.6930694" lon="-1.9589824"><ele>233.0</ele><time>2026-04-26T13:37:16.925Z</time></trkpt><trkpt lat="53.6929803" lon="-1.9587736"><ele>233.0</ele><time>2026-04-26T13:37:17.925Z</time></trkpt><trkpt lat="53.6929008" lon="-1.9585655"><ele>233.0</ele><time>2026-04-26T13:37:18.926Z</time></trkpt><trkpt lat="53.692833" lon="-1.9583669"><ele>233.0</ele><time>2026-04-26T13:37:19.927Z</time></trkpt><trkpt lat="53.6927734" lon="-1.9581861"><ele>231.0</ele><time>2026-04-26T13:37:20.926Z</time></trkpt><trkpt lat="53.6927183" lon="-1.9580209"><ele>229.0</ele><time>2026-04-26T13:37:21.926Z</time></trkpt><trkpt lat="53.6926598" lon="-1.9578748"><ele>227.0</ele><time>2026-04-26T13:37:22.925Z</time></trkpt><trkpt lat="53.6925994" lon="-1.9577461"><ele>225.0</ele><time>2026-04-26T13:37:23.921Z</time></trkpt><trkpt lat="53.6925517" lon="-1.9576253"><ele>223.0</ele><time>2026-04-26T13:37:24.926Z</time></trkpt><trkpt lat="53.6925267" lon="-1.9575038"><ele>222.99999999999997</ele><time>2026-04-26T13:37:25.925Z</time></trkpt><trkpt lat="53.6925302" lon="-1.9573801"><ele>223.0</ele><time>2026-04-26T13:37:26.924Z</time></trkpt><trkpt lat="53.6925535" lon="-1.9572613"><ele>223.0</ele><time>2026-04-26T13:37:27.925Z</time></trkpt><trkpt lat="53.6925963" lon="-1.9571171"><ele>223.0</ele><time>2026-04-26T13:37:29.925Z</time></trkpt><trkpt lat="53.6925053" lon="-1.957176"><ele>222.99999999999997</ele><time>2026-04-26T13:37:32.926Z</time></trkpt><trkpt lat="53.6924259" lon="-1.9572308"><ele>223.0</ele><time>2026-04-26T13:37:33.928Z</time></trkpt><trkpt lat="53.6923306" lon="-1.9572596"><ele>223.0</ele><time>2026-04-26T13:37:34.927Z</time></trkpt><trkpt lat="53.6922185" lon="-1.9572854"><ele>223.0</ele><time>2026-04-26T13:37:35.924Z</time></trkpt><trkpt lat="53.6921075" lon="-1.9573119"><ele>223.0</ele><time>2026-04-26T13:37:36.923Z</time></trkpt><trkpt lat="53.6920051" lon="-1.9573359"><ele>223.0</ele><time>2026-04-26T13:37:37.925Z</time></trkpt><trkpt lat="53.6919207" lon="-1.9573658"><ele>223.0</ele><time>2026-04-26T13:37:38.924Z</time></trkpt><trkpt lat="53.6918523" lon="-1.9574197"><ele>221.49999999999997</ele><time>2026-04-26T13:37:39.925Z</time></trkpt><trkpt lat="53.6917885" lon="-1.9574963"><ele>220.0</ele><time>2026-04-26T13:37:40.924Z</time></trkpt><trkpt lat="53.6917226" lon="-1.9575614"><ele>218.5</ele><time>2026-04-26T13:37:41.927Z</time></trkpt><trkpt lat="53.6916418" lon="-1.9575947"><ele>217.0</ele><time>2026-04-26T13:37:42.927Z</time></trkpt><trkpt lat="53.6915517" lon="-1.9575789"><ele>215.49999999999997</ele><time>2026-04-26T13:37:43.93Z</time></trkpt><trkpt lat="53.691471" lon="-1.9575335"><ele>214.0</ele><time>2026-04-26T13:37:44.927Z</time></trkpt><trkpt lat="53.6913787" lon="-1.9574767"><ele>214.0</ele><time>2026-04-26T13:37:45.924Z</time></trkpt><trkpt lat="53.6912712" lon="-1.957428"><ele>213.99999999999997</ele><time>2026-04-26T13:37:46.925Z</time></trkpt><trkpt lat="53.6911664" lon="-1.9573928"><ele>213.99999999999997</ele><time>2026-04-26T13:37:47.925Z</time></trkpt><trkpt lat="53.6910662" lon="-1.9573736"><ele>214.0</ele><time>2026-04-26T13:37:48.925Z</time></trkpt><trkpt lat="53.6909748" lon="-1.9573731"><ele>214.0</ele><time>2026-04-26T13:37:49.924Z</time></trkpt><trkpt lat="53.6908953" lon="-1.9574116"><ele>212.83333333333331</ele><time>2026-04-26T13:37:50.925Z</time></trkpt><trkpt lat="53.6908236" lon="-1.9574709"><ele>211.66666666666666</ele><time>2026-04-26T13:37:51.918Z</time></trkpt><trkpt lat="53.6907638" lon="-1.9575351"><ele>210.5</ele><time>2026-04-26T13:37:52.926Z</time></trkpt><trkpt lat="53.6907066" lon="-1.9575817"><ele>209.33333333333331</ele><time>2026-04-26T13:37:53.928Z</time></trkpt><trkpt lat="53.6905937" lon="-1.9575902"><ele>208.16666666666666</ele><time>2026-04-26T13:37:55.923Z</time></trkpt><trkpt lat="53.6905216" lon="-1.957542"><ele>207.0</ele><time>2026-04-26T13:37:56.925Z</time></trkpt><trkpt lat="53.6904257" lon="-1.9574503"><ele>206.8</ele><time>2026-04-26T13:37:57.925Z</time></trkpt><trkpt lat="53.6903174" lon="-1.9573707"><ele>206.6</ele><time>2026-04-26T13:37:58.929Z</time></trkpt><trkpt lat="53.6902096" lon="-1.9573096"><ele>206.4</ele><time>2026-04-26T13:37:59.926Z</time></trkpt><trkpt lat="53.6901058" lon="-1.9572758"><ele>206.20000000000002</ele><time>2026-04-26T13:38:00.93Z</time></trkpt><trkpt lat="53.6900099" lon="-1.9572663"><ele>206.0</ele><time>2026-04-26T13:38:01.928Z</time></trkpt><trkpt lat="53.6899346" lon="-1.9572613"><ele>204.60000000000002</ele><time>2026-04-26T13:38:02.928Z</time></trkpt><trkpt lat="53.6898487" lon="-1.9572138"><ele>203.2</ele><time>2026-04-26T13:38:04.925Z</time></trkpt><trkpt lat="53.6898378" lon="-1.9570361"><ele>201.8</ele><time>2026-04-26T13:38:06.924Z</time></trkpt><trkpt lat="53.6898297" lon="-1.9568967"><ele>200.39999999999998</ele><time>2026-04-26T13:38:07.923Z</time></trkpt><trkpt lat="53.689817" lon="-1.9567482"><ele>199.0</ele><time>2026-04-26T13:38:08.922Z</time></trkpt><trkpt lat="53.6897987" lon="-1.9565917"><ele>198.33333333333331</ele><time>2026-04-26T13:38:09.925Z</time></trkpt><trkpt lat="53.6897739" lon="-1.9564402"><ele>197.66666666666666</ele><time>2026-04-26T13:38:10.925Z</time></trkpt><trkpt lat="53.6897463" lon="-1.9563051"><ele>197.0</ele><time>2026-04-26T13:38:11.919Z</time></trkpt><trkpt lat="53.6897197" lon="-1.9561806"><ele>196.33333333333331</ele><time>2026-04-26T13:38:12.925Z</time></trkpt><trkpt lat="53.6896956" lon="-1.9560567"><ele>195.66666666666666</ele><time>2026-04-26T13:38:13.927Z</time></trkpt><trkpt lat="53.6896754" lon="-1.9559279"><ele>195.0</ele><time>2026-04-26T13:38:14.924Z</time></trkpt><trkpt lat="53.6896591" lon="-1.9557907"><ele>194.6</ele><time>2026-04-26T13:38:15.924Z</time></trkpt><trkpt lat="53.689652" lon="-1.9556469"><ele>194.2</ele><time>2026-04-26T13:38:16.916Z</time></trkpt><trkpt lat="53.6896572" lon="-1.9554833"><ele>193.8</ele><time>2026-04-26T13:38:17.924Z</time></trkpt><trkpt lat="53.689672" lon="-1.9552959"><ele>193.4</ele><time>2026-04-26T13:38:18.924Z</time></trkpt><trkpt lat="53.6896894" lon="-1.9551011"><ele>193.0</ele><time>2026-04-26T13:38:19.924Z</time></trkpt><trkpt lat="53.6897067" lon="-1.9549183"><ele>193.0</ele><time>2026-04-26T13:38:20.928Z</time></trkpt><trkpt lat="53.6897164" lon="-1.9547436"><ele>193.0</ele><time>2026-04-26T13:38:21.926Z</time></trkpt><trkpt lat="53.6897064" lon="-1.9545675"><ele>193.0</ele><time>2026-04-26T13:38:22.927Z</time></trkpt><trkpt lat="53.6896637" lon="-1.9543988"><ele>193.0</ele><time>2026-04-26T13:38:23.929Z</time></trkpt><trkpt lat="53.6895818" lon="-1.9542444"><ele>193.0</ele><time>2026-04-26T13:38:24.923Z</time></trkpt><trkpt lat="53.6894735" lon="-1.9541086"><ele>191.25</ele><time>2026-04-26T13:38:25.928Z</time></trkpt><trkpt lat="53.689366" lon="-1.953984"><ele>189.5</ele><time>2026-04-26T13:38:26.927Z</time></trkpt><trkpt lat="53.6892705" lon="-1.953862"><ele>187.75</ele><time>2026-04-26T13:38:27.927Z</time></trkpt><trkpt lat="53.6891805" lon="-1.953733"><ele>186.0</ele><time>2026-04-26T13:38:28.927Z</time></trkpt><trkpt lat="53.6890947" lon="-1.9535871"><ele>186.0</ele><time>2026-04-26T13:38:29.926Z</time></trkpt><trkpt lat="53.6890102" lon="-1.9534129"><ele>186.0</ele><time>2026-04-26T13:38:30.923Z</time></trkpt><trkpt lat="53.6889271" lon="-1.9532271"><ele>186.0</ele><time>2026-04-26T13:38:31.922Z</time></trkpt><trkpt lat="53.6888481" lon="-1.9530372"><ele>186.0</ele><time>2026-04-26T13:38:32.921Z</time></trkpt><trkpt lat="53.6887764" lon="-1.9528613"><ele>185.60000000000002</ele><time>2026-04-26T13:38:33.929Z</time></trkpt><trkpt lat="53.6887113" lon="-1.9527006"><ele>185.2</ele><time>2026-04-26T13:38:34.926Z</time></trkpt><trkpt lat="53.6886528" lon="-1.9525585"><ele>184.8</ele><time>2026-04-26T13:38:35.924Z</time></trkpt><trkpt lat="53.6885903" lon="-1.9524184"><ele>184.39999999999998</ele><time>2026-04-26T13:38:36.924Z</time></trkpt><trkpt lat="53.6885355" lon="-1.9522655"><ele>184.0</ele><time>2026-04-26T13:38:37.921Z</time></trkpt><trkpt lat="53.6884833" lon="-1.9521024"><ele>181.75</ele><time>2026-04-26T13:38:38.924Z</time></trkpt><trkpt lat="53.6884381" lon="-1.9519301"><ele>179.5</ele><time>2026-04-26T13:38:39.923Z</time></trkpt><trkpt lat="53.6884013" lon="-1.9517504"><ele>177.25</ele><time>2026-04-26T13:38:40.926Z</time></trkpt><trkpt lat="53.688371" lon="-1.9515608"><ele>175.0</ele><time>2026-04-26T13:38:41.922Z</time></trkpt><trkpt lat="53.6883395" lon="-1.9513704"><ele>174.6</ele><time>2026-04-26T13:38:42.923Z</time></trkpt><trkpt lat="53.6883108" lon="-1.9511844"><ele>174.2</ele><time>2026-04-26T13:38:43.928Z</time></trkpt><trkpt lat="53.6882885" lon="-1.9510095"><ele>173.8</ele><time>2026-04-26T13:38:44.924Z</time></trkpt><trkpt lat="53.6882778" lon="-1.9508478"><ele>173.4</ele><time>2026-04-26T13:38:45.924Z</time></trkpt><trkpt lat="53.6882775" lon="-1.9506889"><ele>173.0</ele><time>2026-04-26T13:38:46.924Z</time></trkpt><trkpt lat="53.6882863" lon="-1.9505258"><ele>173.0</ele><time>2026-04-26T13:38:47.922Z</time></trkpt><trkpt lat="53.6883" lon="-1.9503481"><ele>173.0</ele><time>2026-04-26T13:38:48.922Z</time></trkpt><trkpt lat="53.6883072" lon="-1.9501693"><ele>173.0</ele><time>2026-04-26T13:38:49.925Z</time></trkpt><trkpt lat="53.6883066" lon="-1.9500074"><ele>173.0</ele><time>2026-04-26T13:38:50.923Z</time></trkpt><trkpt lat="53.6882951" lon="-1.9498661"><ele>173.0</ele><time>2026-04-26T13:38:51.923Z</time></trkpt><trkpt lat="53.6882691" lon="-1.9497471"><ele>173.16666666666666</ele><time>2026-04-26T13:38:52.925Z</time></trkpt><trkpt lat="53.6882275" lon="-1.949645"><ele>173.33333333333331</ele><time>2026-04-26T13:38:53.922Z</time></trkpt><trkpt lat="53.6881777" lon="-1.9495465"><ele>173.5</ele><time>2026-04-26T13:38:54.925Z</time></trkpt><trkpt lat="53.6881223" lon="-1.9494574"><ele>173.66666666666666</ele><time>2026-04-26T13:38:55.924Z</time></trkpt><trkpt lat="53.688066" lon="-1.9493816"><ele>173.83333333333334</ele><time>2026-04-26T13:38:56.923Z</time></trkpt><trkpt lat="53.6880107" lon="-1.9493187"><ele>174.0</ele><time>2026-04-26T13:38:57.924Z</time></trkpt><trkpt lat="53.6879354" lon="-1.9492063"><ele>174.0</ele><time>2026-04-26T13:38:59.921Z</time></trkpt><trkpt lat="53.687901" lon="-1.9490349"><ele>174.0</ele><time>2026-04-26T13:39:01.923Z</time></trkpt><trkpt lat="53.6878892" lon="-1.9489185"><ele>174.0</ele><time>2026-04-26T13:39:02.921Z</time></trkpt><trkpt lat="53.687869" lon="-1.9488011"><ele>174.0</ele><time>2026-04-26T13:39:03.921Z</time></trkpt><trkpt lat="53.6878411" lon="-1.9486868"><ele>174.0</ele><time>2026-04-26T13:39:04.921Z</time></trkpt><trkpt lat="53.6878062" lon="-1.9485839"><ele>174.0</ele><time>2026-04-26T13:39:05.923Z</time></trkpt><trkpt lat="53.6877755" lon="-1.9484867"><ele>173.6</ele><time>2026-04-26T13:39:06.922Z</time></trkpt><trkpt lat="53.6877235" lon="-1.9482971"><ele>173.2</ele><time>2026-04-26T13:39:08.923Z</time></trkpt><trkpt lat="53.6877172" lon="-1.9481858"><ele>172.79999999999998</ele><time>2026-04-26T13:39:09.921Z</time></trkpt><trkpt lat="53.6877265" lon="-1.9480671"><ele>172.39999999999998</ele><time>2026-04-26T13:39:10.924Z</time></trkpt><trkpt lat="53.6877784" lon="-1.9478983"><ele>172.0</ele><time>2026-04-26T13:39:12.919Z</time></trkpt><trkpt lat="53.6876761" lon="-1.947866"><ele>167.6</ele><time>2026-04-26T13:39:17.921Z</time></trkpt><trkpt lat="53.6875995" lon="-1.9479068"><ele>163.2</ele><time>2026-04-26T13:39:18.921Z</time></trkpt><trkpt lat="53.6875156" lon="-1.9479697"><ele>158.8</ele><time>2026-04-26T13:39:19.92Z</time></trkpt><trkpt lat="53.687437" lon="-1.9480576"><ele>154.4</ele><time>2026-04-26T13:39:20.922Z</time></trkpt><trkpt lat="53.6873624" lon="-1.9481446"><ele>150.0</ele><time>2026-04-26T13:39:21.92Z</time></trkpt><trkpt lat="53.6872842" lon="-1.9482326"><ele>150.0</ele><time>2026-04-26T13:39:22.922Z</time></trkpt><trkpt lat="53.6872004" lon="-1.9483297"><ele>150.0</ele><time>2026-04-26T13:39:23.919Z</time></trkpt><trkpt lat="53.6871163" lon="-1.9484347"><ele>150.0</ele><time>2026-04-26T13:39:24.92Z</time></trkpt><trkpt lat="53.6870389" lon="-1.9485397"><ele>150.0</ele><time>2026-04-26T13:39:25.924Z</time></trkpt><trkpt lat="53.6869748" lon="-1.9486376"><ele>150.0</ele><time>2026-04-26T13:39:26.926Z</time></trkpt><trkpt lat="53.6869214" lon="-1.9487163"><ele>150.33333333333334</ele><time>2026-04-26T13:39:27.928Z</time></trkpt><trkpt lat="53.6868591" lon="-1.9487654"><ele>150.66666666666666</ele><time>2026-04-26T13:39:28.924Z</time></trkpt><trkpt lat="53.6867862" lon="-1.948778"><ele>151.0</ele><time>2026-04-26T13:39:29.92Z</time></trkpt><trkpt lat="53.6867109" lon="-1.9487558"><ele>151.33333333333331</ele><time>2026-04-26T13:39:30.923Z</time></trkpt><trkpt lat="53.6866267" lon="-1.9487114"><ele>151.66666666666666</ele><time>2026-04-26T13:39:31.925Z</time></trkpt><trkpt lat="53.6865407" lon="-1.9486728"><ele>152.0</ele><time>2026-04-26T13:39:32.927Z</time></trkpt><trkpt lat="53.6864582" lon="-1.9486695"><ele>152.0</ele><time>2026-04-26T13:39:33.928Z</time></trkpt><trkpt lat="53.6863863" lon="-1.9487237"><ele>152.0</ele><time>2026-04-26T13:39:34.926Z</time></trkpt><trkpt lat="53.6863097" lon="-1.9488118"><ele>152.0</ele><time>2026-04-26T13:39:35.925Z</time></trkpt><trkpt lat="53.6862381" lon="-1.9489377"><ele>152.0</ele><time>2026-04-26T13:39:36.925Z</time></trkpt><trkpt lat="53.6861741" lon="-1.9490698"><ele>152.0</ele><time>2026-04-26T13:39:37.926Z</time></trkpt><trkpt lat="53.6861187" lon="-1.9491822"><ele>153.66666666666666</ele><time>2026-04-26T13:39:38.928Z</time></trkpt><trkpt lat="53.6860745" lon="-1.9492619"><ele>155.33333333333331</ele><time>2026-04-26T13:39:39.928Z</time></trkpt><trkpt lat="53.6859984" lon="-1.9493878"><ele>157.0</ele><time>2026-04-26T13:40:17.917Z</time></trkpt><trkpt lat="53.6859541" lon="-1.949478"><ele>158.66666666666666</ele><time>2026-04-26T13:40:18.923Z</time></trkpt><trkpt lat="53.6858955" lon="-1.9495732"><ele>160.33333333333334</ele><time>2026-04-26T13:40:19.92Z</time></trkpt><trkpt lat="53.6858267" lon="-1.9496682"><ele>162.0</ele><time>2026-04-26T13:40:20.922Z</time></trkpt><trkpt lat="53.6857467" lon="-1.9497755"><ele>162.0</ele><time>2026-04-26T13:40:21.921Z</time></trkpt><trkpt lat="53.685661" lon="-1.9498954"><ele>162.0</ele><time>2026-04-26T13:40:22.924Z</time></trkpt><trkpt lat="53.6855748" lon="-1.9500079"><ele>162.0</ele><time>2026-04-26T13:40:23.928Z</time></trkpt><trkpt lat="53.685476" lon="-1.9501149"><ele>162.0</ele><time>2026-04-26T13:40:24.922Z</time></trkpt><trkpt lat="53.6853647" lon="-1.9502119"><ele>162.5</ele><time>2026-04-26T13:40:25.925Z</time></trkpt><trkpt lat="53.6852471" lon="-1.9502967"><ele>163.0</ele><time>2026-04-26T13:40:26.924Z</time></trkpt><trkpt lat="53.6851255" lon="-1.9503872"><ele>163.5</ele><time>2026-04-26T13:40:27.925Z</time></trkpt><trkpt lat="53.6850051" lon="-1.9504893"><ele>164.0</ele><time>2026-04-26T13:40:28.925Z</time></trkpt><trkpt lat="53.6848795" lon="-1.9505954"><ele>164.0</ele><time>2026-04-26T13:40:29.925Z</time></trkpt><trkpt lat="53.6847488" lon="-1.9507058"><ele>164.0</ele><time>2026-04-26T13:40:30.924Z</time></trkpt><trkpt lat="53.6846141" lon="-1.950817"><ele>164.0</ele><time>2026-04-26T13:40:31.924Z</time></trkpt><trkpt lat="53.6844746" lon="-1.9509303"><ele>166.5</ele><time>2026-04-26T13:40:32.928Z</time></trkpt><trkpt lat="53.6843323" lon="-1.9510451"><ele>169.0</ele><time>2026-04-26T13:40:33.921Z</time></trkpt><trkpt lat="53.6841959" lon="-1.9511489"><ele>171.5</ele><time>2026-04-26T13:40:34.927Z</time></trkpt><trkpt lat="53.6840715" lon="-1.9512361"><ele>174.0</ele><time>2026-04-26T13:40:35.925Z</time></trkpt><trkpt lat="53.6839537" lon="-1.951293"><ele>174.0</ele><time>2026-04-26T13:40:36.926Z</time></trkpt><trkpt lat="53.683838" lon="-1.9513165"><ele>174.0</ele><time>2026-04-26T13:40:37.924Z</time></trkpt><trkpt lat="53.6837204" lon="-1.9512887"><ele>174.0</ele><time>2026-04-26T13:40:38.925Z</time></trkpt><trkpt lat="53.6836091" lon="-1.9511917"><ele>174.0</ele><time>2026-04-26T13:40:39.925Z</time></trkpt><trkpt lat="53.6835041" lon="-1.951056"><ele>178.0</ele><time>2026-04-26T13:40:40.924Z</time></trkpt><trkpt lat="53.6834021" lon="-1.9508769"><ele>182.0</ele><time>2026-04-26T13:40:41.922Z</time></trkpt><trkpt lat="53.6832956" lon="-1.9506781"><ele>186.0</ele><time>2026-04-26T13:40:42.922Z</time></trkpt><trkpt lat="53.6831799" lon="-1.9504664"><ele>188.33333333333331</ele><time>2026-04-26T13:40:43.926Z</time></trkpt><trkpt lat="53.6830664" lon="-1.950254"><ele>190.66666666666666</ele><time>2026-04-26T13:40:44.924Z</time></trkpt><trkpt lat="53.682948" lon="-1.9500293"><ele>193.0</ele><time>2026-04-26T13:40:45.921Z</time></trkpt><trkpt lat="53.6828203" lon="-1.9497944"><ele>200.0</ele><time>2026-04-26T13:40:46.923Z</time></trkpt><trkpt lat="53.682691" lon="-1.9495621"><ele>207.0</ele><time>2026-04-26T13:40:47.923Z</time></trkpt><trkpt lat="53.6825498" lon="-1.949348"><ele>214.0</ele><time>2026-04-26T13:40:48.923Z</time></trkpt><trkpt lat="53.6824379" lon="-1.9491564"><ele>214.99999999999997</ele><time>2026-04-26T13:40:49.921Z</time></trkpt><trkpt lat="53.6823467" lon="-1.9490083"><ele>216.0</ele><time>2026-04-26T13:40:50.921Z</time></trkpt><trkpt lat="53.6822747" lon="-1.9489157"><ele>217.0</ele><time>2026-04-26T13:40:51.922Z</time></trkpt><trkpt lat="53.6822049" lon="-1.948886"><ele>218.0</ele><time>2026-04-26T13:40:52.92Z</time></trkpt><trkpt lat="53.6821428" lon="-1.9489212"><ele>218.99999999999997</ele><time>2026-04-26T13:40:53.923Z</time></trkpt><trkpt lat="53.6820821" lon="-1.9490074"><ele>220.0</ele><time>2026-04-26T13:40:54.922Z</time></trkpt><trkpt lat="53.6820128" lon="-1.9490924"><ele>221.25</ele><time>2026-04-26T13:40:55.92Z</time></trkpt><trkpt lat="53.6819231" lon="-1.9491721"><ele>222.5</ele><time>2026-04-26T13:40:56.921Z</time></trkpt><trkpt lat="53.6818141" lon="-1.9492657"><ele>223.75</ele><time>2026-04-26T13:40:57.925Z</time></trkpt><trkpt lat="53.6816941" lon="-1.9493569"><ele>225.0</ele><time>2026-04-26T13:40:58.922Z</time></trkpt><trkpt lat="53.681573" lon="-1.9494498"><ele>225.0</ele><time>2026-04-26T13:40:59.919Z</time></trkpt><trkpt lat="53.6814557" lon="-1.9495416"><ele>225.0</ele><time>2026-04-26T13:41:00.92Z</time></trkpt><trkpt lat="53.6813507" lon="-1.9496176"><ele>225.0</ele><time>2026-04-26T13:41:01.923Z</time></trkpt><trkpt lat="53.6812668" lon="-1.9496658"><ele>225.0</ele><time>2026-04-26T13:41:02.922Z</time></trkpt><trkpt lat="53.6811727" lon="-1.9497102"><ele>225.0</ele><time>2026-04-26T13:41:04.925Z</time></trkpt><trkpt lat="53.6810946" lon="-1.9497923"><ele>227.2</ele><time>2026-04-26T13:41:06.928Z</time></trkpt><trkpt lat="53.6810369" lon="-1.9498889"><ele>229.4</ele><time>2026-04-26T13:41:07.924Z</time></trkpt><trkpt lat="53.6809813" lon="-1.9500189"><ele>231.60000000000002</ele><time>2026-04-26T13:41:08.918Z</time></trkpt><trkpt lat="53.680929" lon="-1.9501673"><ele>233.8</ele><time>2026-04-26T13:41:09.925Z</time></trkpt><trkpt lat="53.6808752" lon="-1.9503238"><ele>236.0</ele><time>2026-04-26T13:41:10.927Z</time></trkpt><trkpt lat="53.6808186" lon="-1.9504833"><ele>236.25</ele><time>2026-04-26T13:41:11.922Z</time></trkpt><trkpt lat="53.680757" lon="-1.9506491"><ele>236.5</ele><time>2026-04-26T13:41:12.922Z</time></trkpt><trkpt lat="53.6806945" lon="-1.9508215"><ele>236.75</ele><time>2026-04-26T13:41:13.92Z</time></trkpt><trkpt lat="53.6806325" lon="-1.9509906"><ele>237.0</ele><time>2026-04-26T13:41:14.924Z</time></trkpt><trkpt lat="53.6805736" lon="-1.95113"><ele>237.6</ele><time>2026-04-26T13:41:15.927Z</time></trkpt><trkpt lat="53.6805083" lon="-1.951216"><ele>238.2</ele><time>2026-04-26T13:41:17.925Z</time></trkpt><trkpt lat="53.680418" lon="-1.9511713"><ele>238.8</ele><time>2026-04-26T13:42:01.93Z</time></trkpt><trkpt lat="53.680332" lon="-1.9511832"><ele>239.4</ele><time>2026-04-26T13:42:02.929Z</time></trkpt><trkpt lat="53.6802214" lon="-1.9512087"><ele>240.0</ele><time>2026-04-26T13:42:03.932Z</time></trkpt><trkpt lat="53.6801027" lon="-1.9512371"><ele>240.0</ele><time>2026-04-26T13:42:04.928Z</time></trkpt><trkpt lat="53.6799738" lon="-1.9512685"><ele>240.0</ele><time>2026-04-26T13:42:05.926Z</time></trkpt><trkpt lat="53.6798425" lon="-1.9512916"><ele>240.0</ele><time>2026-04-26T13:42:06.927Z</time></trkpt><trkpt lat="53.6797022" lon="-1.9513047"><ele>240.0</ele><time>2026-04-26T13:42:07.928Z</time></trkpt><trkpt lat="53.6795527" lon="-1.9513115"><ele>241.0</ele><time>2026-04-26T13:42:08.928Z</time></trkpt><trkpt lat="53.6793919" lon="-1.9513268"><ele>242.0</ele><time>2026-04-26T13:42:09.92Z</time></trkpt><trkpt lat="53.6792226" lon="-1.951348"><ele>243.0</ele><time>2026-04-26T13:42:10.927Z</time></trkpt><trkpt lat="53.6790481" lon="-1.9513935"><ele>243.0</ele><time>2026-04-26T13:42:11.929Z</time></trkpt><trkpt lat="53.6788663" lon="-1.951458"><ele>243.0</ele><time>2026-04-26T13:42:12.926Z</time></trkpt><trkpt lat="53.6786828" lon="-1.951539"><ele>243.0</ele><time>2026-04-26T13:42:13.932Z</time></trkpt><trkpt lat="53.6785065" lon="-1.9516221"><ele>243.75</ele><time>2026-04-26T13:42:14.927Z</time></trkpt><trkpt lat="53.6783479" lon="-1.9516983"><ele>244.5</ele><time>2026-04-26T13:42:15.927Z</time></trkpt><trkpt lat="53.6782085" lon="-1.95176"><ele>245.25</ele><time>2026-04-26T13:42:16.929Z</time></trkpt><trkpt lat="53.6780781" lon="-1.9518122"><ele>246.0</ele><time>2026-04-26T13:42:17.927Z</time></trkpt><trkpt lat="53.677947" lon="-1.9518584"><ele>246.4</ele><time>2026-04-26T13:42:18.928Z</time></trkpt><trkpt lat="53.6778177" lon="-1.9518929"><ele>246.8</ele><time>2026-04-26T13:42:19.93Z</time></trkpt><trkpt lat="53.6777019" lon="-1.9519183"><ele>247.20000000000002</ele><time>2026-04-26T13:42:20.927Z</time></trkpt><trkpt lat="53.6776056" lon="-1.9519334"><ele>247.60000000000002</ele><time>2026-04-26T13:42:21.927Z</time></trkpt><trkpt lat="53.6775322" lon="-1.9519316"><ele>248.0</ele><time>2026-04-26T13:42:22.926Z</time></trkpt><trkpt lat="53.6774463" lon="-1.9519105"><ele>248.0</ele><time>2026-04-26T13:42:24.926Z</time></trkpt><trkpt lat="53.6773767" lon="-1.951849"><ele>248.0</ele><time>2026-04-26T13:42:26.927Z</time></trkpt><trkpt lat="53.6773056" lon="-1.9517929"><ele>248.0</ele><time>2026-04-26T13:42:27.928Z</time></trkpt><trkpt lat="53.6772103" lon="-1.9517172"><ele>248.0</ele><time>2026-04-26T13:42:28.928Z</time></trkpt><trkpt lat="53.6770961" lon="-1.9516326"><ele>248.0</ele><time>2026-04-26T13:42:29.928Z</time></trkpt><trkpt lat="53.6769652" lon="-1.9515455"><ele>246.0</ele><time>2026-04-26T13:42:30.927Z</time></trkpt><trkpt lat="53.6768246" lon="-1.9514511"><ele>244.0</ele><time>2026-04-26T13:42:31.927Z</time></trkpt><trkpt lat="53.6766796" lon="-1.9513494"><ele>242.0</ele><time>2026-04-26T13:42:32.928Z</time></trkpt><trkpt lat="53.6765309" lon="-1.9512416"><ele>242.0</ele><time>2026-04-26T13:42:33.934Z</time></trkpt><trkpt lat="53.6763857" lon="-1.9511332"><ele>242.0</ele><time>2026-04-26T13:42:34.927Z</time></trkpt><trkpt lat="53.6762506" lon="-1.9510405"><ele>242.0</ele><time>2026-04-26T13:42:35.927Z</time></trkpt><trkpt lat="53.676131" lon="-1.9509737"><ele>242.0</ele><time>2026-04-26T13:42:36.928Z</time></trkpt><trkpt lat="53.6760266" lon="-1.9509324"><ele>242.39999999999998</ele><time>2026-04-26T13:42:37.927Z</time></trkpt><trkpt lat="53.6759417" lon="-1.9509105"><ele>242.79999999999998</ele><time>2026-04-26T13:42:38.925Z</time></trkpt><trkpt lat="53.6758722" lon="-1.9509042"><ele>243.2</ele><time>2026-04-26T13:42:39.926Z</time></trkpt><trkpt lat="53.6757625" lon="-1.9509204"><ele>243.6</ele><time>2026-04-26T13:42:41.934Z</time></trkpt><trkpt lat="53.6756609" lon="-1.9509501"><ele>244.0</ele><time>2026-04-26T13:42:43.927Z</time></trkpt><trkpt lat="53.6757622" lon="-1.9508661"><ele>242.66666666666666</ele><time>2026-04-26T13:43:16.927Z</time></trkpt><trkpt lat="53.6758453" lon="-1.9507035"><ele>241.33333333333331</ele><time>2026-04-26T13:43:17.929Z</time></trkpt><trkpt lat="53.6759564" lon="-1.950516"><ele>240.0</ele><time>2026-04-26T13:43:18.93Z</time></trkpt><trkpt lat="53.6760909" lon="-1.9503148"><ele>239.33333333333331</ele><time>2026-04-26T13:43:19.932Z</time></trkpt><trkpt lat="53.6762172" lon="-1.9501394"><ele>238.66666666666666</ele><time>2026-04-26T13:43:20.935Z</time></trkpt><trkpt lat="53.6763233" lon="-1.9499661"><ele>238.0</ele><time>2026-04-26T13:43:21.933Z</time></trkpt><trkpt lat="53.6764086" lon="-1.9497728"><ele>237.0</ele><time>2026-04-26T13:43:22.931Z</time></trkpt><trkpt lat="53.6764825" lon="-1.9495565"><ele>236.0</ele><time>2026-04-26T13:43:23.93Z</time></trkpt><trkpt lat="53.6765492" lon="-1.9493446"><ele>235.0</ele><time>2026-04-26T13:43:24.927Z</time></trkpt><trkpt lat="53.6766134" lon="-1.9491517"><ele>234.0</ele><time>2026-04-26T13:43:25.919Z</time></trkpt><trkpt lat="53.6766689" lon="-1.9489696"><ele>232.5</ele><time>2026-04-26T13:43:26.925Z</time></trkpt><trkpt lat="53.6767106" lon="-1.948792"><ele>231.0</ele><time>2026-04-26T13:43:27.926Z</time></trkpt><trkpt lat="53.6767363" lon="-1.9486052"><ele>229.5</ele><time>2026-04-26T13:43:28.929Z</time></trkpt><trkpt lat="53.6767385" lon="-1.948404"><ele>228.0</ele><time>2026-04-26T13:43:29.925Z</time></trkpt><trkpt lat="53.6767276" lon="-1.94819"><ele>226.25</ele><time>2026-04-26T13:43:30.929Z</time></trkpt><trkpt lat="53.6767162" lon="-1.9479626"><ele>224.5</ele><time>2026-04-26T13:43:31.929Z</time></trkpt><trkpt lat="53.6767072" lon="-1.947734"><ele>222.75</ele><time>2026-04-26T13:43:32.928Z</time></trkpt><trkpt lat="53.6766969" lon="-1.9475078"><ele>221.0</ele><time>2026-04-26T13:43:33.933Z</time></trkpt><trkpt lat="53.6766867" lon="-1.9472891"><ele>219.0</ele><time>2026-04-26T13:43:34.928Z</time></trkpt><trkpt lat="53.6766751" lon="-1.9470821"><ele>217.0</ele><time>2026-04-26T13:43:35.928Z</time></trkpt><trkpt lat="53.6766576" lon="-1.9468861"><ele>215.0</ele><time>2026-04-26T13:43:36.929Z</time></trkpt><trkpt lat="53.6766344" lon="-1.9466942"><ele>213.0</ele><time>2026-04-26T13:43:37.928Z</time></trkpt><trkpt lat="53.6766071" lon="-1.9465033"><ele>210.5</ele><time>2026-04-26T13:43:38.929Z</time></trkpt><trkpt lat="53.6765779" lon="-1.9463145"><ele>208.0</ele><time>2026-04-26T13:43:39.927Z</time></trkpt><trkpt lat="53.6765434" lon="-1.9461316"><ele>205.5</ele><time>2026-04-26T13:43:40.927Z</time></trkpt><trkpt lat="53.6765058" lon="-1.9459452"><ele>203.0</ele><time>2026-04-26T13:43:41.926Z</time></trkpt><trkpt lat="53.6764635" lon="-1.945762"><ele>201.4</ele><time>2026-04-26T13:43:42.924Z</time></trkpt><trkpt lat="53.6764126" lon="-1.9455876"><ele>199.8</ele><time>2026-04-26T13:43:43.927Z</time></trkpt><trkpt lat="53.676364" lon="-1.9454108"><ele>198.2</ele><time>2026-04-26T13:43:44.926Z</time></trkpt><trkpt lat="53.6763252" lon="-1.945236"><ele>196.6</ele><time>2026-04-26T13:43:45.925Z</time></trkpt><trkpt lat="53.6762932" lon="-1.9450654"><ele>195.0</ele><time>2026-04-26T13:43:46.926Z</time></trkpt><trkpt lat="53.6762651" lon="-1.9449016"><ele>194.16666666666666</ele><time>2026-04-26T13:43:47.924Z</time></trkpt><trkpt lat="53.6762421" lon="-1.9447555"><ele>193.33333333333334</ele><time>2026-04-26T13:43:48.926Z</time></trkpt><trkpt lat="53.6762245" lon="-1.9446238"><ele>192.5</ele><time>2026-04-26T13:43:49.925Z</time></trkpt><trkpt lat="53.6762163" lon="-1.9444921"><ele>191.66666666666669</ele><time>2026-04-26T13:43:50.928Z</time></trkpt><trkpt lat="53.6762157" lon="-1.9443542"><ele>190.83333333333334</ele><time>2026-04-26T13:43:51.924Z</time></trkpt><trkpt lat="53.6762201" lon="-1.9442125"><ele>190.0</ele><time>2026-04-26T13:43:52.92Z</time></trkpt><trkpt lat="53.6762286" lon="-1.9440832"><ele>189.16666666666669</ele><time>2026-04-26T13:43:53.929Z</time></trkpt><trkpt lat="53.6762377" lon="-1.9439732"><ele>188.33333333333334</ele><time>2026-04-26T13:43:54.923Z</time></trkpt><trkpt lat="53.6762025" lon="-1.9438547"><ele>187.5</ele><time>2026-04-26T13:43:58.924Z</time></trkpt><trkpt lat="53.6761493" lon="-1.9437042"><ele>186.66666666666666</ele><time>2026-04-26T13:44:00.928Z</time></trkpt><trkpt lat="53.6761288" lon="-1.9435835"><ele>185.83333333333331</ele><time>2026-04-26T13:44:01.927Z</time></trkpt><trkpt lat="53.6761093" lon="-1.9434696"><ele>185.0</ele><time>2026-04-26T13:44:02.928Z</time></trkpt><trkpt lat="53.6760762" lon="-1.9432779"><ele>183.0</ele><time>2026-04-26T13:44:04.928Z</time></trkpt><trkpt lat="53.6760448" lon="-1.9430996"><ele>181.0</ele><time>2026-04-26T13:44:06.928Z</time></trkpt><trkpt lat="53.6759854" lon="-1.9429325"><ele>179.0</ele><time>2026-04-26T13:44:08.932Z</time></trkpt><trkpt lat="53.6759381" lon="-1.9428533"><ele>177.0</ele><time>2026-04-26T13:44:09.929Z</time></trkpt><trkpt lat="53.6758872" lon="-1.9427668"><ele>175.0</ele><time>2026-04-26T13:44:10.934Z</time></trkpt><trkpt lat="53.6758336" lon="-1.9426685"><ele>173.0</ele><time>2026-04-26T13:44:11.929Z</time></trkpt><trkpt lat="53.6757816" lon="-1.9425675"><ele>171.7142857142857</ele><time>2026-04-26T13:44:12.933Z</time></trkpt><trkpt lat="53.6757352" lon="-1.9424701"><ele>170.42857142857144</ele><time>2026-04-26T13:44:13.929Z</time></trkpt><trkpt lat="53.6756896" lon="-1.9423835"><ele>169.14285714285714</ele><time>2026-04-26T13:44:14.926Z</time></trkpt><trkpt lat="53.6756377" lon="-1.9423024"><ele>167.85714285714283</ele><time>2026-04-26T13:44:15.926Z</time></trkpt><trkpt lat="53.6755804" lon="-1.9422231"><ele>166.57142857142856</ele><time>2026-04-26T13:44:16.927Z</time></trkpt><trkpt lat="53.6755172" lon="-1.9421545"><ele>165.28571428571428</ele><time>2026-04-26T13:44:17.925Z</time></trkpt><trkpt lat="53.6754435" lon="-1.9421088"><ele>164.0</ele><time>2026-04-26T13:44:18.924Z</time></trkpt><trkpt lat="53.6753587" lon="-1.9420968"><ele>162.79999999999998</ele><time>2026-04-26T13:44:19.926Z</time></trkpt><trkpt lat="53.6752632" lon="-1.9421268"><ele>161.6</ele><time>2026-04-26T13:44:20.926Z</time></trkpt><trkpt lat="53.6751747" lon="-1.9421994"><ele>160.4</ele><time>2026-04-26T13:44:21.926Z</time></trkpt><trkpt lat="53.6750944" lon="-1.9422712"><ele>159.2</ele><time>2026-04-26T13:44:22.925Z</time></trkpt><trkpt lat="53.6750202" lon="-1.9423431"><ele>158.0</ele><time>2026-04-26T13:44:23.926Z</time></trkpt><trkpt lat="53.6749412" lon="-1.9424266"><ele>158.0</ele><time>2026-04-26T13:44:24.923Z</time></trkpt><trkpt lat="53.6748601" lon="-1.9425214"><ele>158.0</ele><time>2026-04-26T13:44:25.93Z</time></trkpt><trkpt lat="53.6747815" lon="-1.9426163"><ele>158.0</ele><time>2026-04-26T13:44:26.929Z</time></trkpt><trkpt lat="53.6747105" lon="-1.942699"><ele>158.0</ele><time>2026-04-26T13:44:27.93Z</time></trkpt><trkpt lat="53.6746476" lon="-1.9427752"><ele>158.0</ele><time>2026-04-26T13:44:28.927Z</time></trkpt><trkpt lat="53.6745944" lon="-1.9428367"><ele>158.0</ele><time>2026-04-26T13:44:29.927Z</time></trkpt><trkpt lat="53.6745314" lon="-1.9428979"><ele>158.0</ele><time>2026-04-26T13:44:31.928Z</time></trkpt><trkpt lat="53.6745463" lon="-1.9427525"><ele>158.0</ele><time>2026-04-26T13:44:36.924Z</time></trkpt><trkpt lat="53.6745816" lon="-1.9426508"><ele>158.0</ele><time>2026-04-26T13:44:37.924Z</time></trkpt><trkpt lat="53.6746305" lon="-1.9425524"><ele>158.0</ele><time>2026-04-26T13:44:38.926Z</time></trkpt><trkpt lat="53.6746843" lon="-1.9424534"><ele>158.0</ele><time>2026-04-26T13:44:39.923Z</time></trkpt><trkpt lat="53.6747382" lon="-1.9423564"><ele>158.0</ele><time>2026-04-26T13:44:40.922Z</time></trkpt><trkpt lat="53.6747843" lon="-1.942258"><ele>158.0</ele><time>2026-04-26T13:44:41.92Z</time></trkpt><trkpt lat="53.674824" lon="-1.9421651"><ele>158.0</ele><time>2026-04-26T13:44:42.924Z</time></trkpt><trkpt lat="53.6748796" lon="-1.9419828"><ele>158.0</ele><time>2026-04-26T13:44:44.915Z</time></trkpt><trkpt lat="53.6749005" lon="-1.9418093"><ele>158.0</ele><time>2026-04-26T13:44:46.919Z</time></trkpt><trkpt lat="53.6748802" lon="-1.9416082"><ele>158.0</ele><time>2026-04-26T13:44:48.921Z</time></trkpt><trkpt lat="53.6748344" lon="-1.9414471"><ele>155.6</ele><time>2026-04-26T13:44:50.918Z</time></trkpt><trkpt lat="53.6748098" lon="-1.94134"><ele>153.20000000000002</ele><time>2026-04-26T13:44:52.919Z</time></trkpt><trkpt lat="53.6747927" lon="-1.9411988"><ele>150.8</ele><time>2026-04-26T13:44:58.92Z</time></trkpt><trkpt lat="53.6747346" lon="-1.9409666"><ele>148.4</ele><time>2026-04-26T13:45:00.923Z</time></trkpt><trkpt lat="53.6746865" lon="-1.9408198"><ele>146.0</ele><time>2026-04-26T13:45:01.923Z</time></trkpt><trkpt lat="53.6746138" lon="-1.9406146"><ele>143.33333333333331</ele><time>2026-04-26T13:45:02.926Z</time></trkpt><trkpt lat="53.6744992" lon="-1.9403393"><ele>140.66666666666666</ele><time>2026-04-26T13:45:03.931Z</time></trkpt><trkpt lat="53.6743564" lon="-1.9400283"><ele>138.0</ele><time>2026-04-26T13:45:04.932Z</time></trkpt><trkpt lat="53.6742016" lon="-1.9397315"><ele>134.33333333333334</ele><time>2026-04-26T13:45:05.93Z</time></trkpt><trkpt lat="53.6740645" lon="-1.9394632"><ele>130.66666666666669</ele><time>2026-04-26T13:45:06.928Z</time></trkpt><trkpt lat="53.6739476" lon="-1.939235"><ele>127.0</ele><time>2026-04-26T13:45:07.928Z</time></trkpt><trkpt lat="53.6738347" lon="-1.9390149"><ele>127.0</ele><time>2026-04-26T13:45:08.929Z</time></trkpt><trkpt lat="53.6737241" lon="-1.9388131"><ele>127.0</ele><time>2026-04-26T13:45:09.929Z</time></trkpt><trkpt lat="53.6736166" lon="-1.9386201"><ele>127.0</ele><time>2026-04-26T13:45:10.931Z</time></trkpt><trkpt lat="53.6735098" lon="-1.9384262"><ele>132.0</ele><time>2026-04-26T13:45:11.93Z</time></trkpt><trkpt lat="53.6734046" lon="-1.9382366"><ele>137.0</ele><time>2026-04-26T13:45:12.924Z</time></trkpt><trkpt lat="53.6732911" lon="-1.9380511"><ele>142.0</ele><time>2026-04-26T13:45:13.928Z</time></trkpt><trkpt lat="53.6731729" lon="-1.937871"><ele>142.0</ele><time>2026-04-26T13:45:14.922Z</time></trkpt><trkpt lat="53.6730535" lon="-1.9377001"><ele>142.0</ele><time>2026-04-26T13:45:15.924Z</time></trkpt><trkpt lat="53.6729377" lon="-1.9375346"><ele>142.0</ele><time>2026-04-26T13:45:16.923Z</time></trkpt><trkpt lat="53.6728242" lon="-1.937374"><ele>147.75</ele><time>2026-04-26T13:45:17.921Z</time></trkpt><trkpt lat="53.6727128" lon="-1.9372148"><ele>153.5</ele><time>2026-04-26T13:45:18.922Z</time></trkpt><trkpt lat="53.6726034" lon="-1.9370568"><ele>159.25</ele><time>2026-04-26T13:45:19.923Z</time></trkpt><trkpt lat="53.6724973" lon="-1.9369048"><ele>165.0</ele><time>2026-04-26T13:45:20.923Z</time></trkpt><trkpt lat="53.6724002" lon="-1.9367678"><ele>164.0</ele><time>2026-04-26T13:45:21.924Z</time></trkpt><trkpt lat="53.6722985" lon="-1.9366244"><ele>163.0</ele><time>2026-04-26T13:45:22.924Z</time></trkpt><trkpt lat="53.6721921" lon="-1.9364728"><ele>162.0</ele><time>2026-04-26T13:45:23.923Z</time></trkpt><trkpt lat="53.6720958" lon="-1.9363239"><ele>161.0</ele><time>2026-04-26T13:45:24.921Z</time></trkpt><trkpt lat="53.6720141" lon="-1.9361747"><ele>161.0</ele><time>2026-04-26T13:45:25.925Z</time></trkpt><trkpt lat="53.6719416" lon="-1.9360377"><ele>161.0</ele><time>2026-04-26T13:45:26.925Z</time></trkpt><trkpt lat="53.6718878" lon="-1.9358987"><ele>161.0</ele><time>2026-04-26T13:45:27.923Z</time></trkpt><trkpt lat="53.6718572" lon="-1.9357578"><ele>161.0</ele><time>2026-04-26T13:45:28.927Z</time></trkpt><trkpt lat="53.671854" lon="-1.9356227"><ele>161.0</ele><time>2026-04-26T13:45:29.925Z</time></trkpt><trkpt lat="53.6718941" lon="-1.9354908"><ele>161.66666666666666</ele><time>2026-04-26T13:45:30.927Z</time></trkpt><trkpt lat="53.6719562" lon="-1.9353975"><ele>162.33333333333331</ele><time>2026-04-26T13:45:31.928Z</time></trkpt><trkpt lat="53.6720206" lon="-1.9353377"><ele>163.0</ele><time>2026-04-26T13:45:32.93Z</time></trkpt><trkpt lat="53.6720884" lon="-1.9352944"><ele>163.66666666666666</ele><time>2026-04-26T13:45:33.926Z</time></trkpt><trkpt lat="53.6721584" lon="-1.9352503"><ele>164.33333333333334</ele><time>2026-04-26T13:45:34.922Z</time></trkpt><trkpt lat="53.6722328" lon="-1.935201"><ele>165.0</ele><time>2026-04-26T13:45:35.923Z</time></trkpt><trkpt lat="53.6723133" lon="-1.935152"><ele>165.0</ele><time>2026-04-26T13:45:36.924Z</time></trkpt><trkpt lat="53.6724028" lon="-1.9351056"><ele>165.0</ele><time>2026-04-26T13:45:37.928Z</time></trkpt><trkpt lat="53.6724774" lon="-1.9350718"><ele>165.0</ele><time>2026-04-26T13:45:38.927Z</time></trkpt><trkpt lat="53.6725603" lon="-1.9350132"><ele>165.0</ele><time>2026-04-26T13:45:40.926Z</time></trkpt><trkpt lat="53.6724562" lon="-1.9349559"><ele>165.0</ele><time>2026-04-26T13:45:43.928Z</time></trkpt><trkpt lat="53.6723777" lon="-1.9350133"><ele>165.0</ele><time>2026-04-26T13:45:44.927Z</time></trkpt><trkpt lat="53.6722964" lon="-1.9350812"><ele>165.0</ele><time>2026-04-26T13:45:45.924Z</time></trkpt><trkpt lat="53.6722195" lon="-1.9351523"><ele>165.0</ele><time>2026-04-26T13:45:46.923Z</time></trkpt><trkpt lat="53.6721539" lon="-1.9352073"><ele>165.0</ele><time>2026-04-26T13:45:47.922Z</time></trkpt><trkpt lat="53.6720904" lon="-1.935246"><ele>165.0</ele><time>2026-04-26T13:45:48.921Z</time></trkpt><trkpt lat="53.672026" lon="-1.9352591"><ele>165.0</ele><time>2026-04-26T13:45:49.919Z</time></trkpt><trkpt lat="53.6719559" lon="-1.9352589"><ele>167.8</ele><time>2026-04-26T13:45:50.921Z</time></trkpt><trkpt lat="53.6718697" lon="-1.9352731"><ele>170.6</ele><time>2026-04-26T13:45:51.921Z</time></trkpt><trkpt lat="53.6717776" lon="-1.9353074"><ele>173.39999999999998</ele><time>2026-04-26T13:45:52.923Z</time></trkpt><trkpt lat="53.6716815" lon="-1.9353483"><ele>176.2</ele><time>2026-04-26T13:45:53.922Z</time></trkpt><trkpt lat="53.6715807" lon="-1.9353917"><ele>179.0</ele><time>2026-04-26T13:45:54.921Z</time></trkpt><trkpt lat="53.6714777" lon="-1.9354218"><ele>179.0</ele><time>2026-04-26T13:45:55.922Z</time></trkpt><trkpt lat="53.6713751" lon="-1.9354177"><ele>179.0</ele><time>2026-04-26T13:45:56.925Z</time></trkpt><trkpt lat="53.6712758" lon="-1.9353731"><ele>179.0</ele><time>2026-04-26T13:45:57.922Z</time></trkpt><trkpt lat="53.6711828" lon="-1.9352865"><ele>179.0</ele><time>2026-04-26T13:45:58.924Z</time></trkpt><trkpt lat="53.6710992" lon="-1.9351769"><ele>179.0</ele><time>2026-04-26T13:45:59.923Z</time></trkpt><trkpt lat="53.6710214" lon="-1.9350747"><ele>181.5</ele><time>2026-04-26T13:46:00.926Z</time></trkpt><trkpt lat="53.6709549" lon="-1.9349942"><ele>184.0</ele><time>2026-04-26T13:46:01.925Z</time></trkpt><trkpt lat="53.6708717" lon="-1.934941"><ele>186.5</ele><time>2026-04-26T13:46:03.922Z</time></trkpt><trkpt lat="53.6708407" lon="-1.935059"><ele>189.0</ele><time>2026-04-26T13:46:05.924Z</time></trkpt><trkpt lat="53.6708417" lon="-1.9351834"><ele>191.50000000000003</ele><time>2026-04-26T13:46:06.921Z</time></trkpt><trkpt lat="53.6708519" lon="-1.9353327"><ele>194.0</ele><time>2026-04-26T13:46:07.92Z</time></trkpt><trkpt lat="53.6708576" lon="-1.9354872"><ele>195.25</ele><time>2026-04-26T13:46:08.924Z</time></trkpt><trkpt lat="53.67086" lon="-1.9356475"><ele>196.5</ele><time>2026-04-26T13:46:09.926Z</time></trkpt><trkpt lat="53.6708603" lon="-1.935829"><ele>197.75</ele><time>2026-04-26T13:46:10.925Z</time></trkpt><trkpt lat="53.6708576" lon="-1.9360382"><ele>199.0</ele><time>2026-04-26T13:46:11.924Z</time></trkpt><trkpt lat="53.6708554" lon="-1.9362654"><ele>199.25</ele><time>2026-04-26T13:46:12.925Z</time></trkpt><trkpt lat="53.6708552" lon="-1.9364895"><ele>199.5</ele><time>2026-04-26T13:46:13.928Z</time></trkpt><trkpt lat="53.6708667" lon="-1.9367053"><ele>199.75</ele><time>2026-04-26T13:46:14.925Z</time></trkpt><trkpt lat="53.6708784" lon="-1.936918"><ele>200.0</ele><time>2026-04-26T13:46:15.925Z</time></trkpt><trkpt lat="53.6708888" lon="-1.9371175"><ele>200.0</ele><time>2026-04-26T13:46:16.924Z</time></trkpt><trkpt lat="53.6708927" lon="-1.9372809"><ele>200.0</ele><time>2026-04-26T13:46:17.92Z</time></trkpt><trkpt lat="53.6708739" lon="-1.9374111"><ele>200.0</ele><time>2026-04-26T13:46:18.921Z</time></trkpt><trkpt lat="53.6708222" lon="-1.9375346"><ele>200.0</ele><time>2026-04-26T13:46:19.922Z</time></trkpt><trkpt lat="53.6707485" lon="-1.937655"><ele>200.0</ele><time>2026-04-26T13:46:20.923Z</time></trkpt><trkpt lat="53.6706625" lon="-1.937783"><ele>199.0</ele><time>2026-04-26T13:46:21.919Z</time></trkpt><trkpt lat="53.6705675" lon="-1.9379317"><ele>198.0</ele><time>2026-04-26T13:46:22.921Z</time></trkpt><trkpt lat="53.670466" lon="-1.938095"><ele>197.0</ele><time>2026-04-26T13:46:23.919Z</time></trkpt><trkpt lat="53.6703567" lon="-1.9382606"><ele>196.0</ele><time>2026-04-26T13:46:24.922Z</time></trkpt><trkpt lat="53.6702431" lon="-1.938437"><ele>200.33333333333331</ele><time>2026-04-26T13:46:25.922Z</time></trkpt><trkpt lat="53.6701273" lon="-1.9386325"><ele>204.66666666666669</ele><time>2026-04-26T13:46:26.921Z</time></trkpt><trkpt lat="53.6700087" lon="-1.9388412"><ele>209.0</ele><time>2026-04-26T13:46:27.918Z</time></trkpt><trkpt lat="53.6698793" lon="-1.9390588"><ele>207.0</ele><time>2026-04-26T13:46:28.915Z</time></trkpt><trkpt lat="53.6697466" lon="-1.9392806"><ele>205.0</ele><time>2026-04-26T13:46:29.921Z</time></trkpt><trkpt lat="53.6696164" lon="-1.9394962"><ele>203.0</ele><time>2026-04-26T13:46:30.923Z</time></trkpt><trkpt lat="53.6694972" lon="-1.9396934"><ele>205.0</ele><time>2026-04-26T13:46:31.923Z</time></trkpt><trkpt lat="53.669388" lon="-1.9398644"><ele>207.0</ele><time>2026-04-26T13:46:32.923Z</time></trkpt><trkpt lat="53.6692838" lon="-1.9400075"><ele>209.0</ele><time>2026-04-26T13:46:33.922Z</time></trkpt><trkpt lat="53.6691788" lon="-1.940126"><ele>211.0</ele><time>2026-04-26T13:46:34.922Z</time></trkpt><trkpt lat="53.6690594" lon="-1.9402125"><ele>211.0</ele><time>2026-04-26T13:46:35.922Z</time></trkpt><trkpt lat="53.6689209" lon="-1.94027"><ele>211.0</ele><time>2026-04-26T13:46:36.922Z</time></trkpt><trkpt lat="53.6687792" lon="-1.9403305"><ele>211.0</ele><time>2026-04-26T13:46:37.92Z</time></trkpt><trkpt lat="53.6686334" lon="-1.940385"><ele>211.0</ele><time>2026-04-26T13:46:38.92Z</time></trkpt><trkpt lat="53.6684822" lon="-1.9404532"><ele>215.0</ele><time>2026-04-26T13:46:39.92Z</time></trkpt><trkpt lat="53.6683215" lon="-1.9405371"><ele>219.0</ele><time>2026-04-26T13:46:40.923Z</time></trkpt><trkpt lat="53.6681504" lon="-1.9406388"><ele>223.0</ele><time>2026-04-26T13:46:41.923Z</time></trkpt><trkpt lat="53.6679799" lon="-1.9407482"><ele>223.0</ele><time>2026-04-26T13:46:42.921Z</time></trkpt><trkpt lat="53.6678083" lon="-1.9408634"><ele>223.0</ele><time>2026-04-26T13:46:43.924Z</time></trkpt><trkpt lat="53.6676457" lon="-1.9409728"><ele>223.0</ele><time>2026-04-26T13:46:44.919Z</time></trkpt><trkpt lat="53.6674881" lon="-1.9410741"><ele>222.5</ele><time>2026-04-26T13:46:45.921Z</time></trkpt><trkpt lat="53.6673412" lon="-1.9411636"><ele>222.0</ele><time>2026-04-26T13:46:46.92Z</time></trkpt><trkpt lat="53.6672103" lon="-1.9412416"><ele>221.5</ele><time>2026-04-26T13:46:47.921Z</time></trkpt><trkpt lat="53.6671008" lon="-1.9413063"><ele>221.0</ele><time>2026-04-26T13:46:48.921Z</time></trkpt><trkpt lat="53.6669972" lon="-1.9413559"><ele>222.8</ele><time>2026-04-26T13:46:49.919Z</time></trkpt><trkpt lat="53.6669092" lon="-1.941388"><ele>224.60000000000002</ele><time>2026-04-26T13:46:50.921Z</time></trkpt><trkpt lat="53.6668142" lon="-1.9414058"><ele>226.4</ele><time>2026-04-26T13:46:51.921Z</time></trkpt><trkpt lat="53.6667162" lon="-1.9414061"><ele>228.2</ele><time>2026-04-26T13:46:52.92Z</time></trkpt><trkpt lat="53.6666065" lon="-1.9413849"><ele>230.0</ele><time>2026-04-26T13:46:53.917Z</time></trkpt><trkpt lat="53.6665015" lon="-1.9413556"><ele>230.0</ele><time>2026-04-26T13:46:54.921Z</time></trkpt><trkpt lat="53.6664203" lon="-1.9413316"><ele>230.0</ele><time>2026-04-26T13:46:55.924Z</time></trkpt><trkpt lat="53.6662934" lon="-1.9412889"><ele>230.0</ele><time>2026-04-26T13:46:57.919Z</time></trkpt><trkpt lat="53.6662189" lon="-1.9412538"><ele>230.0</ele><time>2026-04-26T13:46:59.922Z</time></trkpt><trkpt lat="53.6663255" lon="-1.9413176"><ele>230.0</ele><time>2026-04-26T13:47:06.925Z</time></trkpt><trkpt lat="53.6663969" lon="-1.9413403"><ele>230.00000000000003</ele><time>2026-04-26T13:47:07.925Z</time></trkpt><trkpt lat="53.6664695" lon="-1.9413698"><ele>230.0</ele><time>2026-04-26T13:47:08.922Z</time></trkpt><trkpt lat="53.666545" lon="-1.9414022"><ele>230.0</ele><time>2026-04-26T13:47:09.923Z</time></trkpt><trkpt lat="53.6666264" lon="-1.941425"><ele>230.0</ele><time>2026-04-26T13:47:10.924Z</time></trkpt><trkpt lat="53.6667053" lon="-1.9414389"><ele>230.00000000000003</ele><time>2026-04-26T13:47:11.92Z</time></trkpt><trkpt lat="53.666769" lon="-1.941446"><ele>230.0</ele><time>2026-04-26T13:47:12.923Z</time></trkpt><trkpt lat="53.6668421" lon="-1.9414641"><ele>230.00000000000003</ele><time>2026-04-26T13:47:14.923Z</time></trkpt><trkpt lat="53.6668002" lon="-1.9415674"><ele>230.0</ele><time>2026-04-26T13:47:17.922Z</time></trkpt><trkpt lat="53.6667405" lon="-1.9416341"><ele>230.0</ele><time>2026-04-26T13:47:18.923Z</time></trkpt><trkpt lat="53.6666763" lon="-1.9416986"><ele>230.0</ele><time>2026-04-26T13:47:19.923Z</time></trkpt><trkpt lat="53.6666031" lon="-1.9417614"><ele>230.00000000000003</ele><time>2026-04-26T13:47:20.924Z</time></trkpt><trkpt lat="53.6665227" lon="-1.9418235"><ele>230.0</ele><time>2026-04-26T13:47:21.923Z</time></trkpt><trkpt lat="53.6664354" lon="-1.9419001"><ele>228.8</ele><time>2026-04-26T13:47:22.924Z</time></trkpt><trkpt lat="53.6663465" lon="-1.9419855"><ele>227.6</ele><time>2026-04-26T13:47:23.927Z</time></trkpt><trkpt lat="53.6662601" lon="-1.9420794"><ele>226.39999999999998</ele><time>2026-04-26T13:47:24.924Z</time></trkpt><trkpt lat="53.6661707" lon="-1.9421811"><ele>225.2</ele><time>2026-04-26T13:47:25.926Z</time></trkpt><trkpt lat="53.6660759" lon="-1.9422913"><ele>224.0</ele><time>2026-04-26T13:47:26.925Z</time></trkpt><trkpt lat="53.6659816" lon="-1.9423987"><ele>224.0</ele><time>2026-04-26T13:47:27.926Z</time></trkpt><trkpt lat="53.6658827" lon="-1.9425093"><ele>224.0</ele><time>2026-04-26T13:47:28.927Z</time></trkpt><trkpt lat="53.6657773" lon="-1.9426351"><ele>224.0</ele><time>2026-04-26T13:47:29.925Z</time></trkpt><trkpt lat="53.6656563" lon="-1.9427731"><ele>224.0</ele><time>2026-04-26T13:47:30.926Z</time></trkpt><trkpt lat="53.6655307" lon="-1.942918"><ele>223.25</ele><time>2026-04-26T13:47:31.926Z</time></trkpt><trkpt lat="53.6654106" lon="-1.9430569"><ele>222.5</ele><time>2026-04-26T13:47:32.925Z</time></trkpt><trkpt lat="53.6652994" lon="-1.9431899"><ele>221.75</ele><time>2026-04-26T13:47:33.928Z</time></trkpt><trkpt lat="53.6652022" lon="-1.943314"><ele>221.0</ele><time>2026-04-26T13:47:34.926Z</time></trkpt><trkpt lat="53.6651127" lon="-1.9434269"><ele>218.60000000000002</ele><time>2026-04-26T13:47:35.928Z</time></trkpt><trkpt lat="53.6650322" lon="-1.9435223"><ele>216.20000000000002</ele><time>2026-04-26T13:47:36.925Z</time></trkpt><trkpt lat="53.6649596" lon="-1.9436003"><ele>213.8</ele><time>2026-04-26T13:47:37.925Z</time></trkpt><trkpt lat="53.6648872" lon="-1.9436559"><ele>211.39999999999998</ele><time>2026-04-26T13:47:38.925Z</time></trkpt><trkpt lat="53.6648005" lon="-1.9436904"><ele>209.0</ele><time>2026-04-26T13:47:39.923Z</time></trkpt><trkpt lat="53.6646996" lon="-1.943706"><ele>209.0</ele><time>2026-04-26T13:47:40.925Z</time></trkpt><trkpt lat="53.6645838" lon="-1.9437287"><ele>209.0</ele><time>2026-04-26T13:47:41.924Z</time></trkpt><trkpt lat="53.6644661" lon="-1.9437635"><ele>209.0</ele><time>2026-04-26T13:47:42.924Z</time></trkpt><trkpt lat="53.6643563" lon="-1.9437979"><ele>209.0</ele><time>2026-04-26T13:47:43.928Z</time></trkpt><trkpt lat="53.6642424" lon="-1.9438342"><ele>209.5</ele><time>2026-04-26T13:47:44.925Z</time></trkpt><trkpt lat="53.6641201" lon="-1.9438514"><ele>210.0</ele><time>2026-04-26T13:47:45.925Z</time></trkpt><trkpt lat="53.6639919" lon="-1.9438357"><ele>210.5</ele><time>2026-04-26T13:47:46.925Z</time></trkpt><trkpt lat="53.6638621" lon="-1.9437997"><ele>211.0</ele><time>2026-04-26T13:47:47.929Z</time></trkpt><trkpt lat="53.6637353" lon="-1.9437645"><ele>210.5</ele><time>2026-04-26T13:47:48.928Z</time></trkpt><trkpt lat="53.6636075" lon="-1.9437319"><ele>210.0</ele><time>2026-04-26T13:47:49.929Z</time></trkpt><trkpt lat="53.6634791" lon="-1.9436991"><ele>209.5</ele><time>2026-04-26T13:47:50.932Z</time></trkpt><trkpt lat="53.6633497" lon="-1.9436636"><ele>209.0</ele><time>2026-04-26T13:47:51.931Z</time></trkpt><trkpt lat="53.6632201" lon="-1.9436333"><ele>209.0</ele><time>2026-04-26T13:47:52.931Z</time></trkpt><trkpt lat="53.6630917" lon="-1.9436223"><ele>209.0</ele><time>2026-04-26T13:47:53.93Z</time></trkpt><trkpt lat="53.6629612" lon="-1.9436393"><ele>209.0</ele><time>2026-04-26T13:47:54.929Z</time></trkpt><trkpt lat="53.6628253" lon="-1.9436836"><ele>209.0</ele><time>2026-04-26T13:47:55.925Z</time></trkpt><trkpt lat="53.6626874" lon="-1.9437391"><ele>210.0</ele><time>2026-04-26T13:47:56.928Z</time></trkpt><trkpt lat="53.662549" lon="-1.9437922"><ele>211.0</ele><time>2026-04-26T13:47:57.924Z</time></trkpt><trkpt lat="53.6624113" lon="-1.9438236"><ele>212.0</ele><time>2026-04-26T13:47:58.926Z</time></trkpt><trkpt lat="53.6622822" lon="-1.9438343"><ele>213.0</ele><time>2026-04-26T13:47:59.924Z</time></trkpt><trkpt lat="53.6621621" lon="-1.943843"><ele>213.0</ele><time>2026-04-26T13:48:00.925Z</time></trkpt><trkpt lat="53.6620437" lon="-1.9438707"><ele>213.0</ele><time>2026-04-26T13:48:01.923Z</time></trkpt><trkpt lat="53.6619282" lon="-1.9438977"><ele>213.0</ele><time>2026-04-26T13:48:02.925Z</time></trkpt><trkpt lat="53.6618149" lon="-1.943908"><ele>213.0</ele><time>2026-04-26T13:48:03.927Z</time></trkpt><trkpt lat="53.6616967" lon="-1.9439006"><ele>213.5</ele><time>2026-04-26T13:48:04.926Z</time></trkpt><trkpt lat="53.6615794" lon="-1.9438741"><ele>214.0</ele><time>2026-04-26T13:48:05.924Z</time></trkpt><trkpt lat="53.661469" lon="-1.943826"><ele>214.5</ele><time>2026-04-26T13:48:06.92Z</time></trkpt><trkpt lat="53.6613591" lon="-1.9437564"><ele>215.0</ele><time>2026-04-26T13:48:07.925Z</time></trkpt><trkpt lat="53.6612433" lon="-1.9436654"><ele>215.0</ele><time>2026-04-26T13:48:08.926Z</time></trkpt><trkpt lat="53.6611303" lon="-1.9435677"><ele>215.0</ele><time>2026-04-26T13:48:09.927Z</time></trkpt><trkpt lat="53.6610294" lon="-1.943459"><ele>215.0</ele><time>2026-04-26T13:48:10.927Z</time></trkpt><trkpt lat="53.6609259" lon="-1.9433481"><ele>215.0</ele><time>2026-04-26T13:48:11.926Z</time></trkpt><trkpt lat="53.6608092" lon="-1.9432473"><ele>216.5</ele><time>2026-04-26T13:48:12.925Z</time></trkpt><trkpt lat="53.6606857" lon="-1.943159"><ele>218.0</ele><time>2026-04-26T13:48:13.927Z</time></trkpt><trkpt lat="53.6605698" lon="-1.9430892"><ele>219.5</ele><time>2026-04-26T13:48:14.924Z</time></trkpt><trkpt lat="53.6604634" lon="-1.9430411"><ele>221.0</ele><time>2026-04-26T13:48:15.924Z</time></trkpt><trkpt lat="53.6603584" lon="-1.9430064"><ele>218.4</ele><time>2026-04-26T13:48:16.927Z</time></trkpt><trkpt lat="53.6602578" lon="-1.9429842"><ele>215.8</ele><time>2026-04-26T13:48:17.926Z</time></trkpt><trkpt lat="53.6601633" lon="-1.9429753"><ele>213.20000000000002</ele><time>2026-04-26T13:48:18.924Z</time></trkpt><trkpt lat="53.6600745" lon="-1.9429615"><ele>210.60000000000002</ele><time>2026-04-26T13:48:19.923Z</time></trkpt><trkpt lat="53.659984" lon="-1.9429353"><ele>208.0</ele><time>2026-04-26T13:48:20.923Z</time></trkpt><trkpt lat="53.6598929" lon="-1.9429015"><ele>207.99999999999997</ele><time>2026-04-26T13:48:21.924Z</time></trkpt><trkpt lat="53.6598099" lon="-1.9428617"><ele>208.0</ele><time>2026-04-26T13:48:22.926Z</time></trkpt><trkpt lat="53.6597311" lon="-1.9428195"><ele>208.0</ele><time>2026-04-26T13:48:23.928Z</time></trkpt><trkpt lat="53.6596548" lon="-1.9427831"><ele>208.0</ele><time>2026-04-26T13:48:24.926Z</time></trkpt><trkpt lat="53.6595775" lon="-1.9427441"><ele>207.99999999999997</ele><time>2026-04-26T13:48:25.922Z</time></trkpt><trkpt lat="53.6595041" lon="-1.9427056"><ele>208.0</ele><time>2026-04-26T13:48:26.923Z</time></trkpt><trkpt lat="53.6594365" lon="-1.9426711"><ele>208.0</ele><time>2026-04-26T13:48:27.928Z</time></trkpt><trkpt lat="53.6593188" lon="-1.94261"><ele>208.0</ele><time>2026-04-26T13:48:29.929Z</time></trkpt><trkpt lat="53.6592373" lon="-1.9425662"><ele>208.0</ele><time>2026-04-26T13:48:30.928Z</time></trkpt><trkpt lat="53.6591442" lon="-1.9425301"><ele>208.0</ele><time>2026-04-26T13:48:31.929Z</time></trkpt><trkpt lat="53.659049" lon="-1.9424874"><ele>208.0</ele><time>2026-04-26T13:48:32.928Z</time></trkpt><trkpt lat="53.6589623" lon="-1.9424359"><ele>208.0</ele><time>2026-04-26T13:48:33.927Z</time></trkpt><trkpt lat="53.6588769" lon="-1.9423682"><ele>208.0</ele><time>2026-04-26T13:48:34.929Z</time></trkpt><trkpt lat="53.6587913" lon="-1.942295"><ele>208.0</ele><time>2026-04-26T13:48:35.929Z</time></trkpt><trkpt lat="53.6587029" lon="-1.9422283"><ele>208.0</ele><time>2026-04-26T13:48:36.929Z</time></trkpt><trkpt lat="53.6586182" lon="-1.9421652"><ele>208.0</ele><time>2026-04-26T13:48:37.929Z</time></trkpt><trkpt lat="53.6585331" lon="-1.9420995"><ele>204.8</ele><time>2026-04-26T13:48:38.929Z</time></trkpt><trkpt lat="53.6584522" lon="-1.9420309"><ele>201.60000000000002</ele><time>2026-04-26T13:48:39.93Z</time></trkpt><trkpt lat="53.6583691" lon="-1.941965"><ele>198.39999999999998</ele><time>2026-04-26T13:48:40.929Z</time></trkpt><trkpt lat="53.6582832" lon="-1.9418936"><ele>195.2</ele><time>2026-04-26T13:48:41.926Z</time></trkpt><trkpt lat="53.6582039" lon="-1.9418204"><ele>192.0</ele><time>2026-04-26T13:48:42.927Z</time></trkpt><trkpt lat="53.6581351" lon="-1.941748"><ele>193.33333333333334</ele><time>2026-04-26T13:48:43.927Z</time></trkpt><trkpt lat="53.6580798" lon="-1.9416875"><ele>194.66666666666669</ele><time>2026-04-26T13:48:44.923Z</time></trkpt><trkpt lat="53.6579674" lon="-1.9415696"><ele>196.0</ele><time>2026-04-26T13:48:46.924Z</time></trkpt><trkpt lat="53.6578972" lon="-1.9415065"><ele>197.33333333333334</ele><time>2026-04-26T13:48:47.928Z</time></trkpt><trkpt lat="53.6578342" lon="-1.9414444"><ele>198.66666666666669</ele><time>2026-04-26T13:48:48.916Z</time></trkpt><trkpt lat="53.6577448" lon="-1.9413834"><ele>200.0</ele><time>2026-04-26T13:48:50.924Z</time></trkpt><trkpt lat="53.6576766" lon="-1.9414655"><ele>200.2</ele><time>2026-04-26T13:48:52.925Z</time></trkpt><trkpt lat="53.6576328" lon="-1.9416813"><ele>200.4</ele><time>2026-04-26T13:48:54.924Z</time></trkpt><trkpt lat="53.657599" lon="-1.9418065"><ele>200.60000000000002</ele><time>2026-04-26T13:48:55.925Z</time></trkpt><trkpt lat="53.6575549" lon="-1.9419194"><ele>200.8</ele><time>2026-04-26T13:48:56.922Z</time></trkpt><trkpt lat="53.6574997" lon="-1.9420151"><ele>201.0</ele><time>2026-04-26T13:48:57.923Z</time></trkpt><trkpt lat="53.6574379" lon="-1.9421032"><ele>199.8</ele><time>2026-04-26T13:48:58.925Z</time></trkpt><trkpt lat="53.6573733" lon="-1.9421972"><ele>198.60000000000002</ele><time>2026-04-26T13:48:59.926Z</time></trkpt><trkpt lat="53.6573207" lon="-1.9422861"><ele>197.4</ele><time>2026-04-26T13:49:00.923Z</time></trkpt><trkpt lat="53.6572621" lon="-1.9424374"><ele>196.2</ele><time>2026-04-26T13:49:02.924Z</time></trkpt><trkpt lat="53.6572183" lon="-1.9425251"><ele>195.0</ele><time>2026-04-26T13:49:04.925Z</time></trkpt><trkpt lat="53.6571099" lon="-1.9426222"><ele>194.0</ele><time>2026-04-26T13:49:06.928Z</time></trkpt><trkpt lat="53.6570332" lon="-1.9427302"><ele>193.0</ele><time>2026-04-26T13:49:07.928Z</time></trkpt><trkpt lat="53.6569518" lon="-1.9428463"><ele>192.0</ele><time>2026-04-26T13:49:08.926Z</time></trkpt><trkpt lat="53.6568637" lon="-1.9429724"><ele>191.0</ele><time>2026-04-26T13:49:09.925Z</time></trkpt><trkpt lat="53.6567781" lon="-1.9430924"><ele>190.0</ele><time>2026-04-26T13:49:10.927Z</time></trkpt><trkpt lat="53.6566892" lon="-1.9431972"><ele>193.25</ele><time>2026-04-26T13:49:11.928Z</time></trkpt><trkpt lat="53.6565929" lon="-1.9432876"><ele>196.5</ele><time>2026-04-26T13:49:12.928Z</time></trkpt><trkpt lat="53.6564839" lon="-1.9433595"><ele>199.75</ele><time>2026-04-26T13:49:13.927Z</time></trkpt><trkpt lat="53.6563652" lon="-1.9434237"><ele>203.0</ele><time>2026-04-26T13:49:14.925Z</time></trkpt><trkpt lat="53.6562614" lon="-1.9434756"><ele>203.0</ele><time>2026-04-26T13:49:15.927Z</time></trkpt><trkpt lat="53.6561714" lon="-1.9435166"><ele>203.0</ele><time>2026-04-26T13:49:16.926Z</time></trkpt><trkpt lat="53.6561087" lon="-1.9435453"><ele>203.0</ele><time>2026-04-26T13:49:17.924Z</time></trkpt><trkpt lat="53.6560314" lon="-1.9435043"><ele>203.0</ele><time>2026-04-26T13:49:19.924Z</time></trkpt><trkpt lat="53.6559652" lon="-1.9432844"><ele>203.0</ele><time>2026-04-26T13:49:21.924Z</time></trkpt><trkpt lat="53.6559153" lon="-1.9430992"><ele>209.33333333333334</ele><time>2026-04-26T13:49:22.926Z</time></trkpt><trkpt lat="53.655855" lon="-1.9428541"><ele>215.66666666666669</ele><time>2026-04-26T13:49:23.929Z</time></trkpt><trkpt lat="53.6557847" lon="-1.9426105"><ele>222.0</ele><time>2026-04-26T13:49:24.925Z</time></trkpt><trkpt lat="53.6557114" lon="-1.9423996"><ele>222.8</ele><time>2026-04-26T13:49:25.924Z</time></trkpt><trkpt lat="53.6556335" lon="-1.9422304"><ele>223.6</ele><time>2026-04-26T13:49:26.928Z</time></trkpt><trkpt lat="53.655558" lon="-1.942114"><ele>224.40000000000003</ele><time>2026-04-26T13:49:27.927Z</time></trkpt><trkpt lat="53.6554924" lon="-1.9420533"><ele>225.20000000000002</ele><time>2026-04-26T13:49:28.928Z</time></trkpt><trkpt lat="53.655424" lon="-1.9420134"><ele>226.0</ele><time>2026-04-26T13:49:30.928Z</time></trkpt><trkpt lat="53.6554778" lon="-1.9419166"><ele>226.0</ele><time>2026-04-26T13:49:32.929Z</time></trkpt><trkpt lat="53.6555258" lon="-1.9418342"><ele>226.00000000000003</ele><time>2026-04-26T13:49:33.929Z</time></trkpt><trkpt lat="53.655581" lon="-1.9417253"><ele>226.00000000000003</ele><time>2026-04-26T13:49:34.926Z</time></trkpt><trkpt lat="53.6556411" lon="-1.9415875"><ele>226.0</ele><time>2026-04-26T13:49:35.926Z</time></trkpt><trkpt lat="53.6556993" lon="-1.9414301"><ele>226.0</ele><time>2026-04-26T13:49:36.926Z</time></trkpt><trkpt lat="53.6557402" lon="-1.9412591"><ele>227.75</ele><time>2026-04-26T13:49:37.928Z</time></trkpt><trkpt lat="53.6557674" lon="-1.9410685"><ele>229.5</ele><time>2026-04-26T13:49:38.928Z</time></trkpt><trkpt lat="53.6557893" lon="-1.9408655"><ele>231.25</ele><time>2026-04-26T13:49:39.924Z</time></trkpt><trkpt lat="53.6558139" lon="-1.9406622"><ele>233.0</ele><time>2026-04-26T13:49:40.927Z</time></trkpt><trkpt lat="53.6558471" lon="-1.9404889"><ele>233.4</ele><time>2026-04-26T13:49:41.922Z</time></trkpt><trkpt lat="53.6558966" lon="-1.9403404"><ele>233.8</ele><time>2026-04-26T13:49:42.922Z</time></trkpt><trkpt lat="53.6559645" lon="-1.9402116"><ele>234.2</ele><time>2026-04-26T13:49:43.927Z</time></trkpt><trkpt lat="53.6560438" lon="-1.9400939"><ele>234.6</ele><time>2026-04-26T13:49:44.926Z</time></trkpt><trkpt lat="53.6561184" lon="-1.9399588"><ele>235.0</ele><time>2026-04-26T13:49:45.923Z</time></trkpt><trkpt lat="53.6561819" lon="-1.9398122"><ele>234.99999999999997</ele><time>2026-04-26T13:49:46.921Z</time></trkpt><trkpt lat="53.6562311" lon="-1.9396756"><ele>235.0</ele><time>2026-04-26T13:49:47.923Z</time></trkpt><trkpt lat="53.6562588" lon="-1.9395508"><ele>235.0</ele><time>2026-04-26T13:49:48.924Z</time></trkpt><trkpt lat="53.6562632" lon="-1.9394414"><ele>235.0</ele><time>2026-04-26T13:49:49.925Z</time></trkpt><trkpt lat="53.6562039" lon="-1.9392506"><ele>234.99999999999997</ele><time>2026-04-26T13:49:51.923Z</time></trkpt><trkpt lat="53.6561366" lon="-1.939169"><ele>235.0</ele><time>2026-04-26T13:49:52.925Z</time></trkpt><trkpt lat="53.6560534" lon="-1.939076"><ele>241.75</ele><time>2026-04-26T13:49:53.927Z</time></trkpt><trkpt lat="53.6559527" lon="-1.9389522"><ele>248.5</ele><time>2026-04-26T13:49:54.927Z</time></trkpt><trkpt lat="53.6558505" lon="-1.9388102"><ele>255.25</ele><time>2026-04-26T13:49:55.926Z</time></trkpt><trkpt lat="53.6557536" lon="-1.9386472"><ele>262.0</ele><time>2026-04-26T13:49:56.928Z</time></trkpt><trkpt lat="53.6556658" lon="-1.9384581"><ele>262.5</ele><time>2026-04-26T13:49:57.927Z</time></trkpt><trkpt lat="53.6555847" lon="-1.9382579"><ele>263.0</ele><time>2026-04-26T13:49:58.926Z</time></trkpt><trkpt lat="53.6555065" lon="-1.938075"><ele>263.5</ele><time>2026-04-26T13:49:59.925Z</time></trkpt><trkpt lat="53.6554361" lon="-1.9379231"><ele>264.0</ele><time>2026-04-26T13:50:00.924Z</time></trkpt><trkpt lat="53.6553763" lon="-1.9378063"><ele>264.0</ele><time>2026-04-26T13:50:01.924Z</time></trkpt><trkpt lat="53.6553204" lon="-1.9377203"><ele>264.0</ele><time>2026-04-26T13:50:02.924Z</time></trkpt><trkpt lat="53.6552598" lon="-1.9376488"><ele>264.0</ele><time>2026-04-26T13:50:03.927Z</time></trkpt><trkpt lat="53.6551831" lon="-1.9375751"><ele>264.0</ele><time>2026-04-26T13:50:04.931Z</time></trkpt><trkpt lat="53.6551053" lon="-1.9374888"><ele>264.0</ele><time>2026-04-26T13:50:05.925Z</time></trkpt><trkpt lat="53.6550321" lon="-1.9373869"><ele>264.0</ele><time>2026-04-26T13:50:06.925Z</time></trkpt><trkpt lat="53.6549777" lon="-1.9372615"><ele>265.8</ele><time>2026-04-26T13:50:07.925Z</time></trkpt><trkpt lat="53.6549461" lon="-1.9371098"><ele>267.59999999999997</ele><time>2026-04-26T13:50:08.923Z</time></trkpt><trkpt lat="53.6549335" lon="-1.9369273"><ele>269.4</ele><time>2026-04-26T13:50:09.925Z</time></trkpt><trkpt lat="53.6549239" lon="-1.9367333"><ele>271.2</ele><time>2026-04-26T13:50:10.925Z</time></trkpt><trkpt lat="53.654916" lon="-1.9365331"><ele>273.0</ele><time>2026-04-26T13:50:11.925Z</time></trkpt><trkpt lat="53.6549149" lon="-1.9363142"><ele>273.25</ele><time>2026-04-26T13:50:12.922Z</time></trkpt><trkpt lat="53.6549242" lon="-1.9360699"><ele>273.5</ele><time>2026-04-26T13:50:13.926Z</time></trkpt><trkpt lat="53.6549367" lon="-1.9358244"><ele>273.75</ele><time>2026-04-26T13:50:14.926Z</time></trkpt><trkpt lat="53.6549529" lon="-1.9356115"><ele>274.0</ele><time>2026-04-26T13:50:15.925Z</time></trkpt><trkpt lat="53.6549739" lon="-1.9354162"><ele>275.5</ele><time>2026-04-26T13:50:16.924Z</time></trkpt><trkpt lat="53.6550014" lon="-1.9352364"><ele>277.0</ele><time>2026-04-26T13:50:17.923Z</time></trkpt><trkpt lat="53.6550368" lon="-1.9350553"><ele>278.5</ele><time>2026-04-26T13:50:18.925Z</time></trkpt><trkpt lat="53.6550748" lon="-1.9348586"><ele>280.0</ele><time>2026-04-26T13:50:19.923Z</time></trkpt><trkpt lat="53.6551109" lon="-1.934648"><ele>282.25</ele><time>2026-04-26T13:50:20.925Z</time></trkpt><trkpt lat="53.6551477" lon="-1.9344449"><ele>284.5</ele><time>2026-04-26T13:50:21.925Z</time></trkpt><trkpt lat="53.6551844" lon="-1.9342594"><ele>286.75</ele><time>2026-04-26T13:50:22.924Z</time></trkpt><trkpt lat="53.6552139" lon="-1.9340787"><ele>289.0</ele><time>2026-04-26T13:50:23.927Z</time></trkpt><trkpt lat="53.6552379" lon="-1.9338889"><ele>287.75</ele><time>2026-04-26T13:50:24.924Z</time></trkpt><trkpt lat="53.6552598" lon="-1.9336837"><ele>286.5</ele><time>2026-04-26T13:50:25.925Z</time></trkpt><trkpt lat="53.6552764" lon="-1.9334696"><ele>285.25</ele><time>2026-04-26T13:50:26.925Z</time></trkpt><trkpt lat="53.6552884" lon="-1.9332386"><ele>284.0</ele><time>2026-04-26T13:50:27.926Z</time></trkpt><trkpt lat="53.6552981" lon="-1.933006"><ele>284.0</ele><time>2026-04-26T13:50:28.923Z</time></trkpt><trkpt lat="53.6553048" lon="-1.9327998"><ele>284.0</ele><time>2026-04-26T13:50:29.923Z</time></trkpt><trkpt lat="53.6553022" lon="-1.9326284"><ele>284.0</ele><time>2026-04-26T13:50:30.923Z</time></trkpt><trkpt lat="53.6552867" lon="-1.932468"><ele>284.0</ele><time>2026-04-26T13:50:31.925Z</time></trkpt><trkpt lat="53.6552719" lon="-1.932295"><ele>284.0</ele><time>2026-04-26T13:50:32.924Z</time></trkpt><trkpt lat="53.6552621" lon="-1.9321079"><ele>287.83333333333337</ele><time>2026-04-26T13:50:33.926Z</time></trkpt><trkpt lat="53.6552552" lon="-1.9319289"><ele>291.6666666666667</ele><time>2026-04-26T13:50:34.923Z</time></trkpt><trkpt lat="53.6552468" lon="-1.9317861"><ele>295.5</ele><time>2026-04-26T13:50:35.923Z</time></trkpt><trkpt lat="53.6552382" lon="-1.9316749"><ele>299.3333333333333</ele><time>2026-04-26T13:50:36.928Z</time></trkpt><trkpt lat="53.6552405" lon="-1.9314985"><ele>303.16666666666663</ele><time>2026-04-26T13:50:38.924Z</time></trkpt><trkpt lat="53.6552459" lon="-1.9313678"><ele>307.0</ele><time>2026-04-26T13:50:40.925Z</time></trkpt><trkpt lat="53.6552296" lon="-1.9312335"><ele>308.0</ele><time>2026-04-26T13:50:44.923Z</time></trkpt><trkpt lat="53.6552149" lon="-1.9310733"><ele>309.0</ele><time>2026-04-26T13:50:46.925Z</time></trkpt><trkpt lat="53.6551727" lon="-1.9308885"><ele>310.0</ele><time>2026-04-26T13:50:48.924Z</time></trkpt><trkpt lat="53.6551315" lon="-1.9307895"><ele>311.0</ele><time>2026-04-26T13:50:50.925Z</time></trkpt><trkpt lat="53.6550692" lon="-1.9309507"><ele>312.0</ele><time>2026-04-26T13:50:55.923Z</time></trkpt><trkpt lat="53.655051" lon="-1.9310737"><ele>312.0</ele><time>2026-04-26T13:50:56.923Z</time></trkpt><trkpt lat="53.6550331" lon="-1.9312248"><ele>312.0</ele><time>2026-04-26T13:50:57.923Z</time></trkpt><trkpt lat="53.6550072" lon="-1.9313994"><ele>312.0</ele><time>2026-04-26T13:50:58.925Z</time></trkpt><trkpt lat="53.6549742" lon="-1.9315666"><ele>312.0</ele><time>2026-04-26T13:50:59.923Z</time></trkpt><trkpt lat="53.6549367" lon="-1.9317305"><ele>312.0</ele><time>2026-04-26T13:51:00.925Z</time></trkpt><trkpt lat="53.6548983" lon="-1.931896"><ele>311.0</ele><time>2026-04-26T13:51:01.927Z</time></trkpt><trkpt lat="53.6548551" lon="-1.9320597"><ele>310.0</ele><time>2026-04-26T13:51:02.926Z</time></trkpt><trkpt lat="53.6548091" lon="-1.9322182"><ele>309.0</ele><time>2026-04-26T13:51:03.934Z</time></trkpt><trkpt lat="53.6547611" lon="-1.9323681"><ele>308.0</ele><time>2026-04-26T13:51:04.926Z</time></trkpt><trkpt lat="53.654707" lon="-1.9325133"><ele>307.0</ele><time>2026-04-26T13:51:05.926Z</time></trkpt><trkpt lat="53.6546456" lon="-1.9326559"><ele>305.75</ele><time>2026-04-26T13:51:06.926Z</time></trkpt><trkpt lat="53.6545746" lon="-1.9328001"><ele>304.5</ele><time>2026-04-26T13:51:07.927Z</time></trkpt><trkpt lat="53.6544952" lon="-1.9329543"><ele>303.25</ele><time>2026-04-26T13:51:08.927Z</time></trkpt><trkpt lat="53.6544074" lon="-1.9331176"><ele>302.0</ele><time>2026-04-26T13:51:09.928Z</time></trkpt><trkpt lat="53.6543181" lon="-1.9332736"><ele>303.6</ele><time>2026-04-26T13:51:10.928Z</time></trkpt><trkpt lat="53.6542386" lon="-1.9334085"><ele>305.2</ele><time>2026-04-26T13:51:11.922Z</time></trkpt><trkpt lat="53.654164" lon="-1.933525"><ele>306.8</ele><time>2026-04-26T13:51:12.915Z</time></trkpt><trkpt lat="53.654097" lon="-1.9336223"><ele>308.4</ele><time>2026-04-26T13:51:13.918Z</time></trkpt><trkpt lat="53.6540342" lon="-1.9336952"><ele>310.0</ele><time>2026-04-26T13:51:14.924Z</time></trkpt><trkpt lat="53.6539656" lon="-1.9337402"><ele>310.0</ele><time>2026-04-26T13:51:15.916Z</time></trkpt><trkpt lat="53.6538889" lon="-1.9337658"><ele>310.0</ele><time>2026-04-26T13:51:16.921Z</time></trkpt><trkpt lat="53.6538046" lon="-1.9337786"><ele>310.0</ele><time>2026-04-26T13:51:17.923Z</time></trkpt><trkpt lat="53.6537177" lon="-1.9337973"><ele>310.0</ele><time>2026-04-26T13:51:18.917Z</time></trkpt><trkpt lat="53.6536369" lon="-1.9338103"><ele>310.0</ele><time>2026-04-26T13:51:19.926Z</time></trkpt><trkpt lat="53.6535725" lon="-1.9338128"><ele>310.0</ele><time>2026-04-26T13:51:20.924Z</time></trkpt><trkpt lat="53.6534822" lon="-1.9338163"><ele>310.66666666666663</ele><time>2026-04-26T13:51:22.924Z</time></trkpt><trkpt lat="53.6534232" lon="-1.9339116"><ele>311.3333333333333</ele><time>2026-04-26T13:51:24.925Z</time></trkpt><trkpt lat="53.6533483" lon="-1.9340337"><ele>312.0</ele><time>2026-04-26T13:51:26.924Z</time></trkpt><trkpt lat="53.6532939" lon="-1.9341245"><ele>312.6666666666667</ele><time>2026-04-26T13:51:28.923Z</time></trkpt><trkpt lat="53.6532607" lon="-1.934231"><ele>313.33333333333337</ele><time>2026-04-26T13:51:30.923Z</time></trkpt><trkpt lat="53.6532188" lon="-1.9344089"><ele>314.0</ele><time>2026-04-26T13:51:32.926Z</time></trkpt><trkpt lat="53.6531849" lon="-1.9345235"><ele>314.0</ele><time>2026-04-26T13:51:33.92Z</time></trkpt><trkpt lat="53.6531396" lon="-1.934621"><ele>314.0</ele><time>2026-04-26T13:51:34.928Z</time></trkpt><trkpt lat="53.6530847" lon="-1.9347015"><ele>314.0</ele><time>2026-04-26T13:51:35.925Z</time></trkpt><trkpt lat="53.653018" lon="-1.9347751"><ele>314.0</ele><time>2026-04-26T13:51:36.93Z</time></trkpt><trkpt lat="53.6529412" lon="-1.9348529"><ele>314.0</ele><time>2026-04-26T13:51:37.928Z</time></trkpt><trkpt lat="53.6528609" lon="-1.9349296"><ele>314.0</ele><time>2026-04-26T13:51:38.925Z</time></trkpt><trkpt lat="53.6527828" lon="-1.9349982"><ele>312.83333333333337</ele><time>2026-04-26T13:51:39.926Z</time></trkpt><trkpt lat="53.6527058" lon="-1.9350578"><ele>311.6666666666667</ele><time>2026-04-26T13:51:40.929Z</time></trkpt><trkpt lat="53.6526255" lon="-1.9351086"><ele>310.5</ele><time>2026-04-26T13:51:41.925Z</time></trkpt><trkpt lat="53.6525508" lon="-1.935137"><ele>309.3333333333333</ele><time>2026-04-26T13:51:42.924Z</time></trkpt><trkpt lat="53.6524781" lon="-1.9351525"><ele>308.16666666666663</ele><time>2026-04-26T13:51:43.929Z</time></trkpt><trkpt lat="53.6524035" lon="-1.9351563"><ele>307.0</ele><time>2026-04-26T13:51:44.924Z</time></trkpt><trkpt lat="53.6523259" lon="-1.9351465"><ele>307.0</ele><time>2026-04-26T13:51:45.924Z</time></trkpt><trkpt lat="53.6522485" lon="-1.9351481"><ele>307.0</ele><time>2026-04-26T13:51:46.928Z</time></trkpt><trkpt lat="53.6521692" lon="-1.9351698"><ele>307.0</ele><time>2026-04-26T13:51:47.925Z</time></trkpt><trkpt lat="53.6520818" lon="-1.9352008"><ele>307.0</ele><time>2026-04-26T13:51:48.925Z</time></trkpt><trkpt lat="53.6519923" lon="-1.9352312"><ele>307.0</ele><time>2026-04-26T13:51:49.925Z</time></trkpt><trkpt lat="53.651905" lon="-1.9352639"><ele>307.0</ele><time>2026-04-26T13:51:50.925Z</time></trkpt><trkpt lat="53.6518249" lon="-1.9352958"><ele>308.2</ele><time>2026-04-26T13:51:51.928Z</time></trkpt><trkpt lat="53.651748" lon="-1.9353295"><ele>309.4</ele><time>2026-04-26T13:51:52.927Z</time></trkpt><trkpt lat="53.6516748" lon="-1.9353597"><ele>310.6</ele><time>2026-04-26T13:51:53.929Z</time></trkpt><trkpt lat="53.6515601" lon="-1.9353952"><ele>311.8</ele><time>2026-04-26T13:51:55.924Z</time></trkpt><trkpt lat="53.6514904" lon="-1.935416"><ele>313.0</ele><time>2026-04-26T13:51:57.925Z</time></trkpt><trkpt lat="53.6514424" lon="-1.9352512"><ele>313.0</ele><time>2026-04-26T13:52:00.923Z</time></trkpt><trkpt lat="53.6513803" lon="-1.9351191"><ele>313.0</ele><time>2026-04-26T13:52:02.929Z</time></trkpt><trkpt lat="53.6512943" lon="-1.9350021"><ele>313.0</ele><time>2026-04-26T13:52:04.929Z</time></trkpt><trkpt lat="53.6512058" lon="-1.9349244"><ele>313.0</ele><time>2026-04-26T13:52:06.93Z</time></trkpt><trkpt lat="53.6510749" lon="-1.9348295"><ele>315.0</ele><time>2026-04-26T13:52:08.931Z</time></trkpt><trkpt lat="53.6509727" lon="-1.9347559"><ele>317.0</ele><time>2026-04-26T13:52:09.925Z</time></trkpt><trkpt lat="53.6508551" lon="-1.9346634"><ele>319.0</ele><time>2026-04-26T13:52:10.929Z</time></trkpt><trkpt lat="53.6507378" lon="-1.9345548"><ele>321.0</ele><time>2026-04-26T13:52:11.925Z</time></trkpt><trkpt lat="53.6506247" lon="-1.9344351"><ele>321.0</ele><time>2026-04-26T13:52:12.925Z</time></trkpt><trkpt lat="53.6505164" lon="-1.9343096"><ele>321.0</ele><time>2026-04-26T13:52:13.931Z</time></trkpt><trkpt lat="53.6504047" lon="-1.9341789"><ele>321.0</ele><time>2026-04-26T13:52:14.926Z</time></trkpt><trkpt lat="53.6502832" lon="-1.9340528"><ele>321.0</ele><time>2026-04-26T13:52:15.927Z</time></trkpt><trkpt lat="53.6501626" lon="-1.9339406"><ele>321.4</ele><time>2026-04-26T13:52:16.924Z</time></trkpt><trkpt lat="53.6500506" lon="-1.9338567"><ele>321.8</ele><time>2026-04-26T13:52:17.927Z</time></trkpt><trkpt lat="53.6499499" lon="-1.9338072"><ele>322.2</ele><time>2026-04-26T13:52:18.928Z</time></trkpt><trkpt lat="53.6498729" lon="-1.9337625"><ele>322.59999999999997</ele><time>2026-04-26T13:52:19.927Z</time></trkpt><trkpt lat="53.6497768" lon="-1.9336379"><ele>323.0</ele><time>2026-04-26T13:52:21.923Z</time></trkpt><trkpt lat="53.6497299" lon="-1.9335481"><ele>323.0</ele><time>2026-04-26T13:52:22.926Z</time></trkpt><trkpt lat="53.6496678" lon="-1.9334493"><ele>323.0</ele><time>2026-04-26T13:52:23.929Z</time></trkpt><trkpt lat="53.6495955" lon="-1.9333489"><ele>323.0</ele><time>2026-04-26T13:52:24.924Z</time></trkpt><trkpt lat="53.6495264" lon="-1.9332403"><ele>323.0</ele><time>2026-04-26T13:52:25.923Z</time></trkpt><trkpt lat="53.6494635" lon="-1.9331241"><ele>323.0</ele><time>2026-04-26T13:52:26.925Z</time></trkpt><trkpt lat="53.6494103" lon="-1.9330193"><ele>323.0</ele><time>2026-04-26T13:52:27.923Z</time></trkpt><trkpt lat="53.6493657" lon="-1.9329152"><ele>323.0</ele><time>2026-04-26T13:52:28.926Z</time></trkpt><trkpt lat="53.649329" lon="-1.9328181"><ele>323.0</ele><time>2026-04-26T13:52:29.925Z</time></trkpt><trkpt lat="53.6492984" lon="-1.9327245"><ele>323.0</ele><time>2026-04-26T13:52:30.924Z</time></trkpt><trkpt lat="53.649263" lon="-1.9325241"><ele>323.0</ele><time>2026-04-26T13:52:32.924Z</time></trkpt><trkpt lat="53.6492375" lon="-1.9324127"><ele>323.0</ele><time>2026-04-26T13:52:33.927Z</time></trkpt><trkpt lat="53.6492025" lon="-1.9323231"><ele>323.0</ele><time>2026-04-26T13:52:34.925Z</time></trkpt><trkpt lat="53.6491483" lon="-1.9322231"><ele>322.5</ele><time>2026-04-26T13:52:36.926Z</time></trkpt><trkpt lat="53.6491519" lon="-1.9320793"><ele>322.0</ele><time>2026-04-26T13:52:39.926Z</time></trkpt><trkpt lat="53.6491847" lon="-1.9319762"><ele>321.5</ele><time>2026-04-26T13:52:40.926Z</time></trkpt><trkpt lat="53.6492302" lon="-1.9318701"><ele>321.0</ele><time>2026-04-26T13:52:41.924Z</time></trkpt><trkpt lat="53.6492698" lon="-1.9317443"><ele>320.5</ele><time>2026-04-26T13:52:42.925Z</time></trkpt><trkpt lat="53.6492969" lon="-1.9316079"><ele>320.0</ele><time>2026-04-26T13:52:43.927Z</time></trkpt><trkpt lat="53.6493135" lon="-1.9314618"><ele>319.6</ele><time>2026-04-26T13:52:44.927Z</time></trkpt><trkpt lat="53.6493266" lon="-1.9313066"><ele>319.2</ele><time>2026-04-26T13:52:45.924Z</time></trkpt><trkpt lat="53.6493375" lon="-1.9311412"><ele>318.8</ele><time>2026-04-26T13:52:46.926Z</time></trkpt><trkpt lat="53.6493458" lon="-1.9309764"><ele>318.4</ele><time>2026-04-26T13:52:47.923Z</time></trkpt><trkpt lat="53.6493466" lon="-1.9308174"><ele>318.0</ele><time>2026-04-26T13:52:48.923Z</time></trkpt><trkpt lat="53.6493344" lon="-1.930661"><ele>317.1666666666667</ele><time>2026-04-26T13:52:49.925Z</time></trkpt><trkpt lat="53.6493165" lon="-1.9305245"><ele>316.3333333333333</ele><time>2026-04-26T13:52:50.926Z</time></trkpt><trkpt lat="53.6492933" lon="-1.9304096"><ele>315.5</ele><time>2026-04-26T13:52:51.926Z</time></trkpt><trkpt lat="53.6492726" lon="-1.9303071"><ele>314.66666666666663</ele><time>2026-04-26T13:52:52.926Z</time></trkpt><trkpt lat="53.6492507" lon="-1.9301421"><ele>313.8333333333333</ele><time>2026-04-26T13:52:54.924Z</time></trkpt><trkpt lat="53.6492444" lon="-1.9300353"><ele>313.0</ele><time>2026-04-26T13:52:57.924Z</time></trkpt><trkpt lat="53.6491568" lon="-1.9300162"><ele>313.0</ele><time>2026-04-26T13:53:00.919Z</time></trkpt><trkpt lat="53.6490806" lon="-1.930054"><ele>313.0</ele><time>2026-04-26T13:53:01.926Z</time></trkpt><trkpt lat="53.6489841" lon="-1.9301072"><ele>313.0</ele><time>2026-04-26T13:53:02.927Z</time></trkpt><trkpt lat="53.648874" lon="-1.930175"><ele>313.0</ele><time>2026-04-26T13:53:03.933Z</time></trkpt><trkpt lat="53.6487533" lon="-1.9302568"><ele>313.0</ele><time>2026-04-26T13:53:04.927Z</time></trkpt><trkpt lat="53.6486227" lon="-1.9303431"><ele>309.66666666666663</ele><time>2026-04-26T13:53:05.926Z</time></trkpt><trkpt lat="53.6484789" lon="-1.9304281"><ele>306.3333333333333</ele><time>2026-04-26T13:53:06.927Z</time></trkpt><trkpt lat="53.6483332" lon="-1.9305124"><ele>303.0</ele><time>2026-04-26T13:53:07.929Z</time></trkpt><trkpt lat="53.6481804" lon="-1.9306073"><ele>303.0</ele><time>2026-04-26T13:53:08.929Z</time></trkpt><trkpt lat="53.6480218" lon="-1.930706"><ele>303.0</ele><time>2026-04-26T13:53:09.928Z</time></trkpt><trkpt lat="53.6478533" lon="-1.930803"><ele>303.0</ele><time>2026-04-26T13:53:10.933Z</time></trkpt><trkpt lat="53.6476789" lon="-1.930909"><ele>298.0</ele><time>2026-04-26T13:53:11.929Z</time></trkpt><trkpt lat="53.6474982" lon="-1.9310176"><ele>293.0</ele><time>2026-04-26T13:53:12.928Z</time></trkpt><trkpt lat="53.6473135" lon="-1.931127"><ele>288.0</ele><time>2026-04-26T13:53:13.928Z</time></trkpt><trkpt lat="53.647129" lon="-1.931237"><ele>295.6666666666667</ele><time>2026-04-26T13:53:14.924Z</time></trkpt><trkpt lat="53.6469444" lon="-1.9313502"><ele>303.33333333333337</ele><time>2026-04-26T13:53:15.926Z</time></trkpt><trkpt lat="53.6467548" lon="-1.9314657"><ele>311.0</ele><time>2026-04-26T13:53:16.926Z</time></trkpt><trkpt lat="53.6465641" lon="-1.9315836"><ele>311.0</ele><time>2026-04-26T13:53:17.925Z</time></trkpt><trkpt lat="53.6463721" lon="-1.9317012"><ele>311.0</ele><time>2026-04-26T13:53:18.927Z</time></trkpt><trkpt lat="53.6461788" lon="-1.9318194"><ele>311.0</ele><time>2026-04-26T13:53:19.925Z</time></trkpt><trkpt lat="53.6459833" lon="-1.931939"><ele>315.6666666666667</ele><time>2026-04-26T13:53:20.925Z</time></trkpt><trkpt lat="53.6457849" lon="-1.9320578"><ele>320.3333333333333</ele><time>2026-04-26T13:53:21.924Z</time></trkpt><trkpt lat="53.6455869" lon="-1.9321761"><ele>325.0</ele><time>2026-04-26T13:53:22.926Z</time></trkpt><trkpt lat="53.6453882" lon="-1.9322967"><ele>326.0</ele><time>2026-04-26T13:53:23.935Z</time></trkpt><trkpt lat="53.6451871" lon="-1.9324182"><ele>327.0</ele><time>2026-04-26T13:53:24.925Z</time></trkpt><trkpt lat="53.6449888" lon="-1.9325371"><ele>328.0</ele><time>2026-04-26T13:53:25.925Z</time></trkpt><trkpt lat="53.6447902" lon="-1.9326589"><ele>329.66666666666663</ele><time>2026-04-26T13:53:26.924Z</time></trkpt><trkpt lat="53.6445902" lon="-1.9327801"><ele>331.3333333333333</ele><time>2026-04-26T13:53:27.925Z</time></trkpt><trkpt lat="53.6443892" lon="-1.932898"><ele>333.0</ele><time>2026-04-26T13:53:28.926Z</time></trkpt><trkpt lat="53.6441893" lon="-1.9330135"><ele>333.3333333333333</ele><time>2026-04-26T13:53:29.924Z</time></trkpt><trkpt lat="53.6439885" lon="-1.9331284"><ele>333.66666666666663</ele><time>2026-04-26T13:53:30.926Z</time></trkpt><trkpt lat="53.6437875" lon="-1.9332452"><ele>334.0</ele><time>2026-04-26T13:53:31.927Z</time></trkpt><trkpt lat="53.6435856" lon="-1.9333637"><ele>335.66666666666663</ele><time>2026-04-26T13:53:32.929Z</time></trkpt><trkpt lat="53.6433813" lon="-1.9334844"><ele>337.3333333333333</ele><time>2026-04-26T13:53:33.934Z</time></trkpt><trkpt lat="53.6431752" lon="-1.9336082"><ele>339.0</ele><time>2026-04-26T13:53:34.928Z</time></trkpt><trkpt lat="53.6429689" lon="-1.9337391"><ele>339.6666666666667</ele><time>2026-04-26T13:53:35.927Z</time></trkpt><trkpt lat="53.642763" lon="-1.9338804"><ele>340.33333333333337</ele><time>2026-04-26T13:53:36.928Z</time></trkpt><trkpt lat="53.6425591" lon="-1.9340342"><ele>341.0</ele><time>2026-04-26T13:53:37.928Z</time></trkpt><trkpt lat="53.6423594" lon="-1.9342131"><ele>341.5</ele><time>2026-04-26T13:53:38.929Z</time></trkpt><trkpt lat="53.6421643" lon="-1.9344084"><ele>342.0</ele><time>2026-04-26T13:53:39.928Z</time></trkpt><trkpt lat="53.6419725" lon="-1.9346253"><ele>344.0</ele><time>2026-04-26T13:53:40.93Z</time></trkpt><trkpt lat="53.6417915" lon="-1.9348655"><ele>346.0</ele><time>2026-04-26T13:53:41.927Z</time></trkpt><trkpt lat="53.6416254" lon="-1.9351255"><ele>346.66666666666663</ele><time>2026-04-26T13:53:42.925Z</time></trkpt><trkpt lat="53.6414736" lon="-1.9354035"><ele>347.3333333333333</ele><time>2026-04-26T13:53:43.933Z</time></trkpt><trkpt lat="53.6413348" lon="-1.9356869"><ele>348.0</ele><time>2026-04-26T13:53:44.926Z</time></trkpt><trkpt lat="53.6412128" lon="-1.9359534"><ele>349.3333333333333</ele><time>2026-04-26T13:53:45.926Z</time></trkpt><trkpt lat="53.6411052" lon="-1.9361987"><ele>350.66666666666663</ele><time>2026-04-26T13:53:46.927Z</time></trkpt><trkpt lat="53.6410067" lon="-1.9364169"><ele>352.0</ele><time>2026-04-26T13:53:47.925Z</time></trkpt><trkpt lat="53.6409106" lon="-1.9366269"><ele>352.75</ele><time>2026-04-26T13:53:48.925Z</time></trkpt><trkpt lat="53.6408149" lon="-1.9368371"><ele>353.5</ele><time>2026-04-26T13:53:49.927Z</time></trkpt><trkpt lat="53.6407291" lon="-1.9370362"><ele>354.25</ele><time>2026-04-26T13:53:50.925Z</time></trkpt><trkpt lat="53.6406538" lon="-1.9372092"><ele>355.0</ele><time>2026-04-26T13:53:51.924Z</time></trkpt><trkpt lat="53.6405929" lon="-1.9373559"><ele>355.0</ele><time>2026-04-26T13:53:52.924Z</time></trkpt><trkpt lat="53.6405393" lon="-1.937459"><ele>355.0</ele><time>2026-04-26T13:53:53.932Z</time></trkpt><trkpt lat="53.6404743" lon="-1.9375209"><ele>355.0</ele><time>2026-04-26T13:53:54.926Z</time></trkpt><trkpt lat="53.6403946" lon="-1.9375357"><ele>355.0</ele><time>2026-04-26T13:53:55.927Z</time></trkpt><trkpt lat="53.6403003" lon="-1.9375272"><ele>355.0</ele><time>2026-04-26T13:53:56.928Z</time></trkpt><trkpt lat="53.6401818" lon="-1.9375018"><ele>354.8</ele><time>2026-04-26T13:53:57.927Z</time></trkpt><trkpt lat="53.6400709" lon="-1.9374932"><ele>354.6</ele><time>2026-04-26T13:53:58.928Z</time></trkpt><trkpt lat="53.6399688" lon="-1.9374996"><ele>354.4</ele><time>2026-04-26T13:53:59.927Z</time></trkpt><trkpt lat="53.6398732" lon="-1.9375078"><ele>354.2</ele><time>2026-04-26T13:54:00.926Z</time></trkpt><trkpt lat="53.6397784" lon="-1.9375385"><ele>354.0</ele><time>2026-04-26T13:54:01.933Z</time></trkpt><trkpt lat="53.6396875" lon="-1.9376014"><ele>354.6666666666667</ele><time>2026-04-26T13:54:02.928Z</time></trkpt><trkpt lat="53.6395976" lon="-1.9376937"><ele>355.3333333333333</ele><time>2026-04-26T13:54:03.935Z</time></trkpt><trkpt lat="53.6395172" lon="-1.9377836"><ele>356.0</ele><time>2026-04-26T13:54:04.929Z</time></trkpt><trkpt lat="53.6394578" lon="-1.9378765"><ele>356.66666666666663</ele><time>2026-04-26T13:54:05.927Z</time></trkpt><trkpt lat="53.6394104" lon="-1.9379744"><ele>357.3333333333333</ele><time>2026-04-26T13:54:06.927Z</time></trkpt><trkpt lat="53.6393672" lon="-1.9380832"><ele>358.0</ele><time>2026-04-26T13:54:07.929Z</time></trkpt><trkpt lat="53.6393203" lon="-1.9382052"><ele>357.0</ele><time>2026-04-26T13:54:08.928Z</time></trkpt><trkpt lat="53.6392614" lon="-1.9383371"><ele>356.0</ele><time>2026-04-26T13:54:09.929Z</time></trkpt><trkpt lat="53.6391854" lon="-1.9384645"><ele>355.0</ele><time>2026-04-26T13:54:10.93Z</time></trkpt><trkpt lat="53.6390908" lon="-1.9385695"><ele>354.0</ele><time>2026-04-26T13:54:11.928Z</time></trkpt><trkpt lat="53.6389811" lon="-1.9386415"><ele>353.0</ele><time>2026-04-26T13:54:12.927Z</time></trkpt><trkpt lat="53.6388625" lon="-1.9386847"><ele>353.0</ele><time>2026-04-26T13:54:13.928Z</time></trkpt><trkpt lat="53.6387449" lon="-1.93871"><ele>353.0</ele><time>2026-04-26T13:54:14.924Z</time></trkpt><trkpt lat="53.6386291" lon="-1.9387153"><ele>353.0</ele><time>2026-04-26T13:54:15.926Z</time></trkpt><trkpt lat="53.6385171" lon="-1.9387088"><ele>353.0</ele><time>2026-04-26T13:54:16.931Z</time></trkpt><trkpt lat="53.6384042" lon="-1.9387279"><ele>350.0</ele><time>2026-04-26T13:54:17.929Z</time></trkpt><trkpt lat="53.6382919" lon="-1.9387828"><ele>347.0</ele><time>2026-04-26T13:54:18.932Z</time></trkpt><trkpt lat="53.6381951" lon="-1.9388948"><ele>344.0</ele><time>2026-04-26T13:54:19.927Z</time></trkpt><trkpt lat="53.6380974" lon="-1.9390596"><ele>341.0</ele><time>2026-04-26T13:54:20.925Z</time></trkpt><trkpt lat="53.6379887" lon="-1.9392382"><ele>341.0</ele><time>2026-04-26T13:54:21.927Z</time></trkpt><trkpt lat="53.6378747" lon="-1.9394107"><ele>341.0</ele><time>2026-04-26T13:54:22.926Z</time></trkpt><trkpt lat="53.6377626" lon="-1.939576"><ele>341.0</ele><time>2026-04-26T13:54:23.929Z</time></trkpt><trkpt lat="53.6376478" lon="-1.9397329"><ele>337.75</ele><time>2026-04-26T13:54:24.927Z</time></trkpt><trkpt lat="53.637545" lon="-1.9398824"><ele>334.5</ele><time>2026-04-26T13:54:25.924Z</time></trkpt><trkpt lat="53.6374479" lon="-1.9400461"><ele>331.25</ele><time>2026-04-26T13:54:26.927Z</time></trkpt><trkpt lat="53.637352" lon="-1.9402063"><ele>328.0</ele><time>2026-04-26T13:54:27.925Z</time></trkpt><trkpt lat="53.6372562" lon="-1.94036"><ele>328.0</ele><time>2026-04-26T13:54:28.924Z</time></trkpt><trkpt lat="53.6371596" lon="-1.9405117"><ele>328.0</ele><time>2026-04-26T13:54:29.923Z</time></trkpt><trkpt lat="53.6370723" lon="-1.9406619"><ele>328.0</ele><time>2026-04-26T13:54:30.921Z</time></trkpt><trkpt lat="53.6369895" lon="-1.9408161"><ele>328.0</ele><time>2026-04-26T13:54:31.924Z</time></trkpt><trkpt lat="53.6369101" lon="-1.9409753"><ele>325.25</ele><time>2026-04-26T13:54:32.927Z</time></trkpt><trkpt lat="53.6368229" lon="-1.9411398"><ele>322.5</ele><time>2026-04-26T13:54:33.929Z</time></trkpt><trkpt lat="53.6367229" lon="-1.9413021"><ele>319.75</ele><time>2026-04-26T13:54:34.926Z</time></trkpt><trkpt lat="53.636616" lon="-1.941446"><ele>317.0</ele><time>2026-04-26T13:54:35.927Z</time></trkpt><trkpt lat="53.6365152" lon="-1.9415666"><ele>317.0</ele><time>2026-04-26T13:54:36.927Z</time></trkpt><trkpt lat="53.6364235" lon="-1.9416678"><ele>317.0</ele><time>2026-04-26T13:54:37.929Z</time></trkpt><trkpt lat="53.6363439" lon="-1.9417405"><ele>317.0</ele><time>2026-04-26T13:54:38.928Z</time></trkpt><trkpt lat="53.6362762" lon="-1.9417734"><ele>317.0</ele><time>2026-04-26T13:54:39.925Z</time></trkpt><trkpt lat="53.6361832" lon="-1.941711"><ele>317.0</ele><time>2026-04-26T13:54:41.926Z</time></trkpt><trkpt lat="53.6361368" lon="-1.9416233"><ele>317.0</ele><time>2026-04-26T13:54:42.925Z</time></trkpt><trkpt lat="53.6360995" lon="-1.9414771"><ele>313.0</ele><time>2026-04-26T13:54:43.929Z</time></trkpt><trkpt lat="53.636083" lon="-1.94129"><ele>309.0</ele><time>2026-04-26T13:54:44.924Z</time></trkpt><trkpt lat="53.6360833" lon="-1.9410797"><ele>305.0</ele><time>2026-04-26T13:54:45.919Z</time></trkpt><trkpt lat="53.6360916" lon="-1.9408542"><ele>301.0</ele><time>2026-04-26T13:54:46.927Z</time></trkpt><trkpt lat="53.6360964" lon="-1.9406392"><ele>299.25</ele><time>2026-04-26T13:54:47.925Z</time></trkpt><trkpt lat="53.6360972" lon="-1.9404299"><ele>297.5</ele><time>2026-04-26T13:54:48.925Z</time></trkpt><trkpt lat="53.6360873" lon="-1.940238"><ele>295.75</ele><time>2026-04-26T13:54:49.924Z</time></trkpt><trkpt lat="53.6360658" lon="-1.9400468"><ele>294.0</ele><time>2026-04-26T13:54:50.925Z</time></trkpt><trkpt lat="53.6360336" lon="-1.9398547"><ele>292.5</ele><time>2026-04-26T13:54:51.923Z</time></trkpt><trkpt lat="53.6359976" lon="-1.9396548"><ele>291.0</ele><time>2026-04-26T13:54:52.924Z</time></trkpt><trkpt lat="53.6359647" lon="-1.9394459"><ele>289.5</ele><time>2026-04-26T13:54:53.919Z</time></trkpt><trkpt lat="53.6359328" lon="-1.9392367"><ele>288.0</ele><time>2026-04-26T13:54:54.924Z</time></trkpt><trkpt lat="53.6359058" lon="-1.9390353"><ele>286.2</ele><time>2026-04-26T13:54:55.926Z</time></trkpt><trkpt lat="53.6358809" lon="-1.9388443"><ele>284.4</ele><time>2026-04-26T13:54:56.925Z</time></trkpt><trkpt lat="53.6358568" lon="-1.9386782"><ele>282.59999999999997</ele><time>2026-04-26T13:54:57.925Z</time></trkpt><trkpt lat="53.635836" lon="-1.9385407"><ele>280.8</ele><time>2026-04-26T13:54:58.924Z</time></trkpt><trkpt lat="53.635812" lon="-1.9384332"><ele>279.0</ele><time>2026-04-26T13:54:59.924Z</time></trkpt><trkpt lat="53.635712" lon="-1.938351"><ele>279.0</ele><time>2026-04-26T13:55:01.926Z</time></trkpt><trkpt lat="53.6356347" lon="-1.9384192"><ele>279.0</ele><time>2026-04-26T13:55:02.928Z</time></trkpt><trkpt lat="53.6355538" lon="-1.9385395"><ele>279.0</ele><time>2026-04-26T13:55:03.931Z</time></trkpt><trkpt lat="53.6354997" lon="-1.9386726"><ele>279.0</ele><time>2026-04-26T13:55:04.926Z</time></trkpt><trkpt lat="53.6354408" lon="-1.9388067"><ele>279.0</ele><time>2026-04-26T13:55:05.929Z</time></trkpt><trkpt lat="53.6353743" lon="-1.9389095"><ele>278.4</ele><time>2026-04-26T13:55:06.93Z</time></trkpt><trkpt lat="53.6353003" lon="-1.9389337"><ele>277.79999999999995</ele><time>2026-04-26T13:55:07.928Z</time></trkpt><trkpt lat="53.6352127" lon="-1.9388995"><ele>277.20000000000005</ele><time>2026-04-26T13:55:08.927Z</time></trkpt><trkpt lat="53.6351088" lon="-1.938849"><ele>276.6</ele><time>2026-04-26T13:55:09.929Z</time></trkpt><trkpt lat="53.6349735" lon="-1.9387981"><ele>276.0</ele><time>2026-04-26T13:55:10.929Z</time></trkpt><trkpt lat="53.6348172" lon="-1.9387643"><ele>276.0</ele><time>2026-04-26T13:55:11.925Z</time></trkpt><trkpt lat="53.634624" lon="-1.9387497"><ele>276.0</ele><time>2026-04-26T13:55:12.932Z</time></trkpt><trkpt lat="53.6344047" lon="-1.9387191"><ele>276.0</ele><time>2026-04-26T13:55:13.929Z</time></trkpt><trkpt lat="53.6341825" lon="-1.9386733"><ele>279.0</ele><time>2026-04-26T13:55:14.932Z</time></trkpt><trkpt lat="53.6339755" lon="-1.938617"><ele>282.0</ele><time>2026-04-26T13:55:15.924Z</time></trkpt><trkpt lat="53.6338009" lon="-1.9385402"><ele>285.0</ele><time>2026-04-26T13:55:16.928Z</time></trkpt><trkpt lat="53.6336659" lon="-1.93845"><ele>285.0</ele><time>2026-04-26T13:55:17.924Z</time></trkpt><trkpt lat="53.6335666" lon="-1.938377"><ele>285.0</ele><time>2026-04-26T13:55:18.925Z</time></trkpt><trkpt lat="53.6335169" lon="-1.9382975"><ele>285.0</ele><time>2026-04-26T13:55:19.923Z</time></trkpt><trkpt lat="53.6335135" lon="-1.9381634"><ele>285.0</ele><time>2026-04-26T13:55:20.927Z</time></trkpt><trkpt lat="53.6335543" lon="-1.9380088"><ele>285.0</ele><time>2026-04-26T13:55:21.927Z</time></trkpt><trkpt lat="53.6336404" lon="-1.9378574"><ele>285.0</ele><time>2026-04-26T13:55:22.925Z</time></trkpt><trkpt lat="53.6337551" lon="-1.9376956"><ele>285.0</ele><time>2026-04-26T13:55:23.926Z</time></trkpt><trkpt lat="53.6338467" lon="-1.9375237"><ele>285.0</ele><time>2026-04-26T13:55:24.923Z</time></trkpt><trkpt lat="53.6339339" lon="-1.9373333"><ele>285.0</ele><time>2026-04-26T13:55:25.925Z</time></trkpt><trkpt lat="53.6340031" lon="-1.9371223"><ele>285.5</ele><time>2026-04-26T13:55:26.927Z</time></trkpt><trkpt lat="53.6340377" lon="-1.9368941"><ele>286.0</ele><time>2026-04-26T13:55:27.927Z</time></trkpt><trkpt lat="53.6340344" lon="-1.9366565"><ele>286.5</ele><time>2026-04-26T13:55:28.924Z</time></trkpt><trkpt lat="53.6340011" lon="-1.9364174"><ele>287.0</ele><time>2026-04-26T13:55:29.924Z</time></trkpt><trkpt lat="53.6339739" lon="-1.9361654"><ele>287.6666666666667</ele><time>2026-04-26T13:55:30.924Z</time></trkpt><trkpt lat="53.6339618" lon="-1.9359028"><ele>288.3333333333333</ele><time>2026-04-26T13:55:31.929Z</time></trkpt><trkpt lat="53.6339558" lon="-1.9356358"><ele>289.0</ele><time>2026-04-26T13:55:32.928Z</time></trkpt><trkpt lat="53.6339411" lon="-1.9353678"><ele>289.66666666666663</ele><time>2026-04-26T13:55:33.929Z</time></trkpt><trkpt lat="53.6339248" lon="-1.9351039"><ele>290.3333333333333</ele><time>2026-04-26T13:55:34.925Z</time></trkpt><trkpt lat="53.6339079" lon="-1.9348534"><ele>291.0</ele><time>2026-04-26T13:55:35.927Z</time></trkpt><trkpt lat="53.6338902" lon="-1.9346142"><ele>291.5</ele><time>2026-04-26T13:55:36.925Z</time></trkpt><trkpt lat="53.6338802" lon="-1.934384"><ele>292.0</ele><time>2026-04-26T13:55:37.927Z</time></trkpt><trkpt lat="53.6339114" lon="-1.9341558"><ele>292.5</ele><time>2026-04-26T13:55:38.927Z</time></trkpt><trkpt lat="53.633973" lon="-1.9339471"><ele>293.0</ele><time>2026-04-26T13:55:39.926Z</time></trkpt><trkpt lat="53.6340583" lon="-1.9337575"><ele>294.33333333333337</ele><time>2026-04-26T13:55:40.928Z</time></trkpt><trkpt lat="53.6341549" lon="-1.933555"><ele>295.6666666666667</ele><time>2026-04-26T13:55:41.925Z</time></trkpt><trkpt lat="53.6342444" lon="-1.9333403"><ele>297.0</ele><time>2026-04-26T13:55:42.924Z</time></trkpt><trkpt lat="53.6343273" lon="-1.9331131"><ele>295.3333333333333</ele><time>2026-04-26T13:55:43.926Z</time></trkpt><trkpt lat="53.6344052" lon="-1.9328731"><ele>293.66666666666663</ele><time>2026-04-26T13:55:44.924Z</time></trkpt><trkpt lat="53.6344798" lon="-1.9326246"><ele>292.0</ele><time>2026-04-26T13:55:45.926Z</time></trkpt><trkpt lat="53.6345511" lon="-1.9323691"><ele>292.0</ele><time>2026-04-26T13:55:46.926Z</time></trkpt><trkpt lat="53.6346247" lon="-1.9321071"><ele>292.0</ele><time>2026-04-26T13:55:47.926Z</time></trkpt><trkpt lat="53.6347001" lon="-1.9318378"><ele>292.0</ele><time>2026-04-26T13:55:48.927Z</time></trkpt><trkpt lat="53.6347746" lon="-1.9315635"><ele>294.66666666666663</ele><time>2026-04-26T13:55:49.924Z</time></trkpt><trkpt lat="53.634848" lon="-1.9312838"><ele>297.3333333333333</ele><time>2026-04-26T13:55:50.924Z</time></trkpt><trkpt lat="53.63492" lon="-1.9309967"><ele>300.0</ele><time>2026-04-26T13:55:51.926Z</time></trkpt><trkpt lat="53.634989" lon="-1.9307019"><ele>303.3333333333333</ele><time>2026-04-26T13:55:52.925Z</time></trkpt><trkpt lat="53.6350565" lon="-1.9304068"><ele>306.66666666666663</ele><time>2026-04-26T13:55:53.929Z</time></trkpt><trkpt lat="53.6351175" lon="-1.9301094"><ele>310.0</ele><time>2026-04-26T13:55:54.924Z</time></trkpt><trkpt lat="53.6351693" lon="-1.929813"><ele>312.66666666666663</ele><time>2026-04-26T13:55:55.924Z</time></trkpt><trkpt lat="53.6352163" lon="-1.9295189"><ele>315.3333333333333</ele><time>2026-04-26T13:55:56.923Z</time></trkpt><trkpt lat="53.6352605" lon="-1.9292288"><ele>318.0</ele><time>2026-04-26T13:55:57.918Z</time></trkpt><trkpt lat="53.635303" lon="-1.928961"><ele>314.5</ele><time>2026-04-26T13:55:58.925Z</time></trkpt><trkpt lat="53.6353412" lon="-1.9287326"><ele>311.0</ele><time>2026-04-26T13:55:59.924Z</time></trkpt><trkpt lat="53.6353771" lon="-1.928542"><ele>307.5</ele><time>2026-04-26T13:56:00.924Z</time></trkpt><trkpt lat="53.6354114" lon="-1.9283772"><ele>304.0</ele><time>2026-04-26T13:56:01.929Z</time></trkpt><trkpt lat="53.6354557" lon="-1.9282171"><ele>304.0</ele><time>2026-04-26T13:56:02.919Z</time></trkpt><trkpt lat="53.6355171" lon="-1.9280516"><ele>304.0</ele><time>2026-04-26T13:56:03.93Z</time></trkpt><trkpt lat="53.6355706" lon="-1.9278529"><ele>304.0</ele><time>2026-04-26T13:56:04.924Z</time></trkpt><trkpt lat="53.6356149" lon="-1.9276311"><ele>304.0</ele><time>2026-04-26T13:56:05.928Z</time></trkpt><trkpt lat="53.6356549" lon="-1.927388"><ele>306.3333333333333</ele><time>2026-04-26T13:56:06.928Z</time></trkpt><trkpt lat="53.6356978" lon="-1.9271382"><ele>308.6666666666667</ele><time>2026-04-26T13:56:07.925Z</time></trkpt><trkpt lat="53.63573" lon="-1.9268917"><ele>311.0</ele><time>2026-04-26T13:56:08.929Z</time></trkpt><trkpt lat="53.6357388" lon="-1.9266425"><ele>313.0</ele><time>2026-04-26T13:56:09.927Z</time></trkpt><trkpt lat="53.6357316" lon="-1.9263889"><ele>315.0</ele><time>2026-04-26T13:56:10.929Z</time></trkpt><trkpt lat="53.6357305" lon="-1.9261346"><ele>317.0</ele><time>2026-04-26T13:56:11.924Z</time></trkpt><trkpt lat="53.6357425" lon="-1.9258809"><ele>318.0</ele><time>2026-04-26T13:56:12.926Z</time></trkpt><trkpt lat="53.635768" lon="-1.9256364"><ele>319.0</ele><time>2026-04-26T13:56:13.929Z</time></trkpt><trkpt lat="53.6358173" lon="-1.9254134"><ele>320.0</ele><time>2026-04-26T13:56:14.924Z</time></trkpt><trkpt lat="53.6358884" lon="-1.9252091"><ele>321.0</ele><time>2026-04-26T13:56:15.926Z</time></trkpt><trkpt lat="53.6359758" lon="-1.92502"><ele>322.3333333333333</ele><time>2026-04-26T13:56:16.925Z</time></trkpt><trkpt lat="53.6360701" lon="-1.9248232"><ele>323.66666666666663</ele><time>2026-04-26T13:56:17.923Z</time></trkpt><trkpt lat="53.6361635" lon="-1.9246143"><ele>325.0</ele><time>2026-04-26T13:56:18.926Z</time></trkpt><trkpt lat="53.6362588" lon="-1.9243982"><ele>322.0</ele><time>2026-04-26T13:56:19.927Z</time></trkpt><trkpt lat="53.6363568" lon="-1.9241795"><ele>319.0</ele><time>2026-04-26T13:56:20.925Z</time></trkpt><trkpt lat="53.6364565" lon="-1.9239608"><ele>316.0</ele><time>2026-04-26T13:56:21.926Z</time></trkpt><trkpt lat="53.636567" lon="-1.9237509"><ele>316.0</ele><time>2026-04-26T13:56:22.926Z</time></trkpt><trkpt lat="53.6366954" lon="-1.9235568"><ele>316.0</ele><time>2026-04-26T13:56:23.931Z</time></trkpt><trkpt lat="53.6368353" lon="-1.9233668"><ele>316.0</ele><time>2026-04-26T13:56:24.925Z</time></trkpt><trkpt lat="53.6369786" lon="-1.9231713"><ele>316.66666666666663</ele><time>2026-04-26T13:56:25.925Z</time></trkpt><trkpt lat="53.637123" lon="-1.9229716"><ele>317.3333333333333</ele><time>2026-04-26T13:56:26.926Z</time></trkpt><trkpt lat="53.6372777" lon="-1.9227559"><ele>318.0</ele><time>2026-04-26T13:56:27.926Z</time></trkpt><trkpt lat="53.6374341" lon="-1.9225405"><ele>318.0</ele><time>2026-04-26T13:56:28.924Z</time></trkpt><trkpt lat="53.6375824" lon="-1.9223428"><ele>318.0</ele><time>2026-04-26T13:56:29.926Z</time></trkpt><trkpt lat="53.6377238" lon="-1.9221604"><ele>318.0</ele><time>2026-04-26T13:56:30.927Z</time></trkpt><trkpt lat="53.6378601" lon="-1.9219801"><ele>315.3333333333333</ele><time>2026-04-26T13:56:31.927Z</time></trkpt><trkpt lat="53.6379968" lon="-1.9218002"><ele>312.66666666666663</ele><time>2026-04-26T13:56:32.926Z</time></trkpt><trkpt lat="53.6381322" lon="-1.92162"><ele>310.0</ele><time>2026-04-26T13:56:33.93Z</time></trkpt><trkpt lat="53.6382607" lon="-1.9214512"><ele>310.0</ele><time>2026-04-26T13:56:34.928Z</time></trkpt><trkpt lat="53.6383871" lon="-1.9212872"><ele>310.0</ele><time>2026-04-26T13:56:35.929Z</time></trkpt><trkpt lat="53.6385142" lon="-1.9211161"><ele>310.0</ele><time>2026-04-26T13:56:36.928Z</time></trkpt><trkpt lat="53.6386437" lon="-1.9209458"><ele>308.0</ele><time>2026-04-26T13:56:37.928Z</time></trkpt><trkpt lat="53.6387812" lon="-1.9207753"><ele>306.0</ele><time>2026-04-26T13:56:38.929Z</time></trkpt><trkpt lat="53.6389256" lon="-1.9206007"><ele>304.0</ele><time>2026-04-26T13:56:39.932Z</time></trkpt><trkpt lat="53.6390748" lon="-1.9204145"><ele>304.0</ele><time>2026-04-26T13:56:40.929Z</time></trkpt><trkpt lat="53.6392244" lon="-1.9202186"><ele>304.0</ele><time>2026-04-26T13:56:41.925Z</time></trkpt><trkpt lat="53.6393692" lon="-1.9200211"><ele>304.0</ele><time>2026-04-26T13:56:42.923Z</time></trkpt><trkpt lat="53.6395092" lon="-1.9198375"><ele>303.3333333333333</ele><time>2026-04-26T13:56:43.918Z</time></trkpt><trkpt lat="53.639654" lon="-1.9196744"><ele>302.6666666666667</ele><time>2026-04-26T13:56:44.928Z</time></trkpt><trkpt lat="53.6398131" lon="-1.9195312"><ele>302.0</ele><time>2026-04-26T13:56:45.926Z</time></trkpt><trkpt lat="53.6399792" lon="-1.9193995"><ele>302.0</ele><time>2026-04-26T13:56:46.929Z</time></trkpt><trkpt lat="53.6401478" lon="-1.9192799"><ele>302.0</ele><time>2026-04-26T13:56:47.927Z</time></trkpt><trkpt lat="53.640319" lon="-1.9191627"><ele>302.0</ele><time>2026-04-26T13:56:48.926Z</time></trkpt><trkpt lat="53.6404928" lon="-1.9190381"><ele>301.6666666666667</ele><time>2026-04-26T13:56:49.927Z</time></trkpt><trkpt lat="53.6406739" lon="-1.9189124"><ele>301.3333333333333</ele><time>2026-04-26T13:56:50.925Z</time></trkpt><trkpt lat="53.6408583" lon="-1.9187894"><ele>301.0</ele><time>2026-04-26T13:56:51.927Z</time></trkpt><trkpt lat="53.6410447" lon="-1.9186625"><ele>302.0</ele><time>2026-04-26T13:56:52.927Z</time></trkpt><trkpt lat="53.6412339" lon="-1.918531"><ele>303.0</ele><time>2026-04-26T13:56:53.93Z</time></trkpt><trkpt lat="53.6414209" lon="-1.9183997"><ele>304.0</ele><time>2026-04-26T13:56:54.924Z</time></trkpt><trkpt lat="53.641599" lon="-1.9182751"><ele>304.0</ele><time>2026-04-26T13:56:55.925Z</time></trkpt><trkpt lat="53.6417595" lon="-1.9181638"><ele>304.0</ele><time>2026-04-26T13:56:56.928Z</time></trkpt><trkpt lat="53.6419034" lon="-1.9180625"><ele>304.0</ele><time>2026-04-26T13:56:57.925Z</time></trkpt><trkpt lat="53.6420338" lon="-1.9179695"><ele>304.59999999999997</ele><time>2026-04-26T13:56:58.925Z</time></trkpt><trkpt lat="53.6421468" lon="-1.9178892"><ele>305.2</ele><time>2026-04-26T13:56:59.924Z</time></trkpt><trkpt lat="53.6422433" lon="-1.9178155"><ele>305.79999999999995</ele><time>2026-04-26T13:57:00.924Z</time></trkpt><trkpt lat="53.6423175" lon="-1.917732"><ele>306.4</ele><time>2026-04-26T13:57:01.928Z</time></trkpt><trkpt lat="53.6423611" lon="-1.9176159"><ele>307.0</ele><time>2026-04-26T13:57:02.929Z</time></trkpt><trkpt lat="53.6423785" lon="-1.9174646"><ele>307.0</ele><time>2026-04-26T13:57:03.934Z</time></trkpt><trkpt lat="53.6423666" lon="-1.9173063"><ele>307.0</ele><time>2026-04-26T13:57:04.929Z</time></trkpt><trkpt lat="53.6423281" lon="-1.9171429"><ele>307.0</ele><time>2026-04-26T13:57:05.928Z</time></trkpt><trkpt lat="53.6422771" lon="-1.9169378"><ele>307.0</ele><time>2026-04-26T13:57:06.928Z</time></trkpt><trkpt lat="53.6422436" lon="-1.9167074"><ele>308.0</ele><time>2026-04-26T13:57:07.928Z</time></trkpt><trkpt lat="53.642209" lon="-1.9164526"><ele>309.0</ele><time>2026-04-26T13:57:08.929Z</time></trkpt><trkpt lat="53.6421729" lon="-1.9161844"><ele>310.0</ele><time>2026-04-26T13:57:09.925Z</time></trkpt><trkpt lat="53.64214" lon="-1.9159097"><ele>311.0</ele><time>2026-04-26T13:57:10.925Z</time></trkpt><trkpt lat="53.6421098" lon="-1.9156314"><ele>312.0</ele><time>2026-04-26T13:57:11.924Z</time></trkpt><trkpt lat="53.6420812" lon="-1.9153542"><ele>313.0</ele><time>2026-04-26T13:57:12.925Z</time></trkpt><trkpt lat="53.6420547" lon="-1.9150867"><ele>313.75</ele><time>2026-04-26T13:57:13.929Z</time></trkpt><trkpt lat="53.6420309" lon="-1.9148438"><ele>314.5</ele><time>2026-04-26T13:57:14.923Z</time></trkpt><trkpt lat="53.6420082" lon="-1.9146222"><ele>315.25</ele><time>2026-04-26T13:57:15.921Z</time></trkpt><trkpt lat="53.6419763" lon="-1.9144436"><ele>316.0</ele><time>2026-04-26T13:57:16.924Z</time></trkpt><trkpt lat="53.6419181" lon="-1.9143318"><ele>317.3333333333333</ele><time>2026-04-26T13:57:17.923Z</time></trkpt><trkpt lat="53.641846" lon="-1.9142531"><ele>318.66666666666663</ele><time>2026-04-26T13:57:18.928Z</time></trkpt><trkpt lat="53.6417669" lon="-1.9141751"><ele>320.0</ele><time>2026-04-26T13:57:19.926Z</time></trkpt><trkpt lat="53.6416821" lon="-1.914101"><ele>321.3333333333333</ele><time>2026-04-26T13:57:20.924Z</time></trkpt><trkpt lat="53.6416031" lon="-1.9140393"><ele>322.6666666666667</ele><time>2026-04-26T13:57:21.925Z</time></trkpt><trkpt lat="53.6415269" lon="-1.9139963"><ele>324.0</ele><time>2026-04-26T13:57:22.924Z</time></trkpt><trkpt lat="53.6414458" lon="-1.9139596"><ele>324.0</ele><time>2026-04-26T13:57:23.925Z</time></trkpt><trkpt lat="53.6413569" lon="-1.9139035"><ele>324.0</ele><time>2026-04-26T13:57:24.925Z</time></trkpt><trkpt lat="53.6412501" lon="-1.9138199"><ele>324.0</ele><time>2026-04-26T13:57:25.919Z</time></trkpt><trkpt lat="53.64112" lon="-1.9137283"><ele>324.0</ele><time>2026-04-26T13:57:26.924Z</time></trkpt><trkpt lat="53.6409612" lon="-1.9136497"><ele>327.6666666666667</ele><time>2026-04-26T13:57:27.928Z</time></trkpt><trkpt lat="53.6407845" lon="-1.9135813"><ele>331.33333333333337</ele><time>2026-04-26T13:57:28.926Z</time></trkpt><trkpt lat="53.6406049" lon="-1.9135135"><ele>335.0</ele><time>2026-04-26T13:57:29.924Z</time></trkpt><trkpt lat="53.6404161" lon="-1.9134473"><ele>336.0</ele><time>2026-04-26T13:57:30.925Z</time></trkpt><trkpt lat="53.6402228" lon="-1.9133721"><ele>337.0</ele><time>2026-04-26T13:57:31.926Z</time></trkpt><trkpt lat="53.6400259" lon="-1.9132886"><ele>338.0</ele><time>2026-04-26T13:57:32.926Z</time></trkpt><trkpt lat="53.6398246" lon="-1.9132064"><ele>338.0</ele><time>2026-04-26T13:57:33.931Z</time></trkpt><trkpt lat="53.6396194" lon="-1.9131248"><ele>338.0</ele><time>2026-04-26T13:57:34.926Z</time></trkpt><trkpt lat="53.6394117" lon="-1.9130407"><ele>338.0</ele><time>2026-04-26T13:57:35.925Z</time></trkpt><trkpt lat="53.6392025" lon="-1.9129548"><ele>341.33333333333337</ele><time>2026-04-26T13:57:36.927Z</time></trkpt><trkpt lat="53.6390025" lon="-1.9128754"><ele>344.6666666666667</ele><time>2026-04-26T13:57:37.929Z</time></trkpt><trkpt lat="53.6388235" lon="-1.9128097"><ele>348.0</ele><time>2026-04-26T13:57:38.928Z</time></trkpt><trkpt lat="53.6386681" lon="-1.912735"><ele>349.75</ele><time>2026-04-26T13:57:39.93Z</time></trkpt><trkpt lat="53.6385389" lon="-1.912627"><ele>351.5</ele><time>2026-04-26T13:57:40.932Z</time></trkpt><trkpt lat="53.6384203" lon="-1.9124837"><ele>353.25</ele><time>2026-04-26T13:57:41.923Z</time></trkpt><trkpt lat="53.6383069" lon="-1.9123129"><ele>355.0</ele><time>2026-04-26T13:57:42.924Z</time></trkpt><trkpt lat="53.6382105" lon="-1.9121214"><ele>355.0</ele><time>2026-04-26T13:57:43.932Z</time></trkpt><trkpt lat="53.6381325" lon="-1.9119172"><ele>355.0</ele><time>2026-04-26T13:57:44.925Z</time></trkpt><trkpt lat="53.6380851" lon="-1.9117147"><ele>355.0</ele><time>2026-04-26T13:57:45.925Z</time></trkpt><trkpt lat="53.6380566" lon="-1.9115453"><ele>355.0</ele><time>2026-04-26T13:57:46.927Z</time></trkpt><trkpt lat="53.6380433" lon="-1.911425"><ele>355.0</ele><time>2026-04-26T13:57:47.924Z</time></trkpt><trkpt lat="53.6379678" lon="-1.9114414"><ele>355.0</ele><time>2026-04-26T13:57:51.928Z</time></trkpt><trkpt lat="53.6379824" lon="-1.9116781"><ele>355.0</ele><time>2026-04-26T13:57:53.931Z</time></trkpt><trkpt lat="53.6380017" lon="-1.9118726"><ele>355.0</ele><time>2026-04-26T13:57:54.929Z</time></trkpt><trkpt lat="53.6380035" lon="-1.9120934"><ele>355.0</ele><time>2026-04-26T13:57:55.931Z</time></trkpt><trkpt lat="53.6379845" lon="-1.9123244"><ele>355.0</ele><time>2026-04-26T13:57:56.926Z</time></trkpt><trkpt lat="53.6379531" lon="-1.9125573"><ele>355.0</ele><time>2026-04-26T13:57:57.926Z</time></trkpt><trkpt lat="53.6379083" lon="-1.9128016"><ele>355.0</ele><time>2026-04-26T13:57:58.925Z</time></trkpt><trkpt lat="53.6378542" lon="-1.9130451"><ele>358.0</ele><time>2026-04-26T13:57:59.924Z</time></trkpt><trkpt lat="53.6377916" lon="-1.9132861"><ele>361.0</ele><time>2026-04-26T13:58:00.924Z</time></trkpt><trkpt lat="53.6377187" lon="-1.9135228"><ele>364.0</ele><time>2026-04-26T13:58:01.93Z</time></trkpt><trkpt lat="53.637639" lon="-1.9137535"><ele>364.0</ele><time>2026-04-26T13:58:02.929Z</time></trkpt><trkpt lat="53.6375582" lon="-1.9139744"><ele>364.0</ele><time>2026-04-26T13:58:03.932Z</time></trkpt><trkpt lat="53.6374835" lon="-1.914169"><ele>364.0</ele><time>2026-04-26T13:58:04.926Z</time></trkpt><trkpt lat="53.6374218" lon="-1.9143353"><ele>364.0</ele><time>2026-04-26T13:58:05.929Z</time></trkpt><trkpt lat="53.6373713" lon="-1.9144693"><ele>364.0</ele><time>2026-04-26T13:58:06.93Z</time></trkpt><trkpt lat="53.6373288" lon="-1.9145745"><ele>364.0</ele><time>2026-04-26T13:58:07.93Z</time></trkpt><trkpt lat="53.6372556" lon="-1.9146532"><ele>364.0</ele><time>2026-04-26T13:58:09.93Z</time></trkpt><trkpt lat="53.6372127" lon="-1.9145409"><ele>364.0</ele><time>2026-04-26T13:58:11.927Z</time></trkpt><trkpt lat="53.6372036" lon="-1.9144304"><ele>364.0</ele><time>2026-04-26T13:58:12.926Z</time></trkpt><trkpt lat="53.6372058" lon="-1.9142862"><ele>364.0</ele><time>2026-04-26T13:58:13.929Z</time></trkpt><trkpt lat="53.6372091" lon="-1.9141255"><ele>364.0</ele><time>2026-04-26T13:58:14.925Z</time></trkpt><trkpt lat="53.6372079" lon="-1.9139339"><ele>364.0</ele><time>2026-04-26T13:58:15.927Z</time></trkpt><trkpt lat="53.6372033" lon="-1.9137284"><ele>364.0</ele><time>2026-04-26T13:58:16.926Z</time></trkpt><trkpt lat="53.6372037" lon="-1.9135219"><ele>364.0</ele><time>2026-04-26T13:58:17.928Z</time></trkpt><trkpt lat="53.6372022" lon="-1.9133104"><ele>364.5</ele><time>2026-04-26T13:58:18.926Z</time></trkpt><trkpt lat="53.6372017" lon="-1.9130976"><ele>365.0</ele><time>2026-04-26T13:58:19.923Z</time></trkpt><trkpt lat="53.6372097" lon="-1.9128773"><ele>365.5</ele><time>2026-04-26T13:58:20.926Z</time></trkpt><trkpt lat="53.6372255" lon="-1.9126462"><ele>366.0</ele><time>2026-04-26T13:58:21.925Z</time></trkpt><trkpt lat="53.6372477" lon="-1.9123907"><ele>367.0</ele><time>2026-04-26T13:58:22.928Z</time></trkpt><trkpt lat="53.637273" lon="-1.9121089"><ele>368.0</ele><time>2026-04-26T13:58:23.931Z</time></trkpt><trkpt lat="53.6372914" lon="-1.9118257"><ele>369.0</ele><time>2026-04-26T13:58:24.926Z</time></trkpt><trkpt lat="53.6372881" lon="-1.9115675"><ele>369.75</ele><time>2026-04-26T13:58:25.916Z</time></trkpt><trkpt lat="53.6372579" lon="-1.9113495"><ele>370.5</ele><time>2026-04-26T13:58:26.924Z</time></trkpt><trkpt lat="53.637203" lon="-1.9111686"><ele>371.25</ele><time>2026-04-26T13:58:27.925Z</time></trkpt><trkpt lat="53.6371262" lon="-1.911004"><ele>372.0</ele><time>2026-04-26T13:58:28.924Z</time></trkpt><trkpt lat="53.6369359" lon="-1.9107034"><ele>373.8</ele><time>2026-04-26T13:58:30.925Z</time></trkpt><trkpt lat="53.6368449" lon="-1.9105612"><ele>375.6</ele><time>2026-04-26T13:58:31.922Z</time></trkpt><trkpt lat="53.6367668" lon="-1.9104155"><ele>377.40000000000003</ele><time>2026-04-26T13:58:32.931Z</time></trkpt><trkpt lat="53.6367098" lon="-1.9102733"><ele>379.20000000000005</ele><time>2026-04-26T13:58:33.935Z</time></trkpt><trkpt lat="53.6366733" lon="-1.9101437"><ele>381.0</ele><time>2026-04-26T13:58:34.93Z</time></trkpt><trkpt lat="53.6366482" lon="-1.9100334"><ele>381.0</ele><time>2026-04-26T13:58:35.93Z</time></trkpt><trkpt lat="53.6366076" lon="-1.9098837"><ele>381.0</ele><time>2026-04-26T13:58:37.929Z</time></trkpt><trkpt lat="53.6365465" lon="-1.9097949"><ele>381.0</ele><time>2026-04-26T13:58:39.931Z</time></trkpt><trkpt lat="53.6364758" lon="-1.9097059"><ele>381.0</ele><time>2026-04-26T13:58:41.927Z</time></trkpt><trkpt lat="53.6364087" lon="-1.9095974"><ele>381.0</ele><time>2026-04-26T13:58:43.931Z</time></trkpt><trkpt lat="53.6363528" lon="-1.9094844"><ele>381.0</ele><time>2026-04-26T13:58:45.927Z</time></trkpt><trkpt lat="53.6362936" lon="-1.9093461"><ele>380.6</ele><time>2026-04-26T13:58:47.927Z</time></trkpt><trkpt lat="53.6362525" lon="-1.9091783"><ele>380.20000000000005</ele><time>2026-04-26T13:58:49.927Z</time></trkpt><trkpt lat="53.6362469" lon="-1.9089901"><ele>379.79999999999995</ele><time>2026-04-26T13:58:51.928Z</time></trkpt><trkpt lat="53.6362512" lon="-1.908797"><ele>379.4</ele><time>2026-04-26T13:58:53.918Z</time></trkpt><trkpt lat="53.6362471" lon="-1.9086072"><ele>379.0</ele><time>2026-04-26T13:58:55.927Z</time></trkpt><trkpt lat="53.6362392" lon="-1.9084049"><ele>378.79999999999995</ele><time>2026-04-26T13:58:57.928Z</time></trkpt><trkpt lat="53.6362375" lon="-1.9082081"><ele>378.59999999999997</ele><time>2026-04-26T13:58:59.926Z</time></trkpt><trkpt lat="53.6362341" lon="-1.9080109"><ele>378.4</ele><time>2026-04-26T13:59:01.93Z</time></trkpt><trkpt lat="53.6362169" lon="-1.9078392"><ele>378.2</ele><time>2026-04-26T13:59:03.931Z</time></trkpt><trkpt lat="53.6361997" lon="-1.9077004"><ele>378.0</ele><time>2026-04-26T13:59:05.929Z</time></trkpt><trkpt lat="53.6361615" lon="-1.9075213"><ele>373.79999999999995</ele><time>2026-04-26T13:59:07.928Z</time></trkpt><trkpt lat="53.6361364" lon="-1.9073947"><ele>369.6</ele><time>2026-04-26T13:59:08.927Z</time></trkpt><trkpt lat="53.636113" lon="-1.9072398"><ele>365.4</ele><time>2026-04-26T13:59:09.928Z</time></trkpt><trkpt lat="53.6360914" lon="-1.9070761"><ele>361.20000000000005</ele><time>2026-04-26T13:59:10.931Z</time></trkpt><trkpt lat="53.6360719" lon="-1.9069095"><ele>357.0</ele><time>2026-04-26T13:59:11.924Z</time></trkpt><trkpt lat="53.6360488" lon="-1.9067484"><ele>356.6</ele><time>2026-04-26T13:59:12.926Z</time></trkpt><trkpt lat="53.6360223" lon="-1.9065912"><ele>356.20000000000005</ele><time>2026-04-26T13:59:13.928Z</time></trkpt><trkpt lat="53.6359964" lon="-1.906442"><ele>355.8</ele><time>2026-04-26T13:59:14.925Z</time></trkpt><trkpt lat="53.635969" lon="-1.906298"><ele>355.4</ele><time>2026-04-26T13:59:15.925Z</time></trkpt><trkpt lat="53.6359366" lon="-1.9061592"><ele>355.0</ele><time>2026-04-26T13:59:16.925Z</time></trkpt><trkpt lat="53.6358998" lon="-1.9060225"><ele>354.2</ele><time>2026-04-26T13:59:17.927Z</time></trkpt><trkpt lat="53.6358588" lon="-1.905875"><ele>353.4</ele><time>2026-04-26T13:59:18.931Z</time></trkpt><trkpt lat="53.6358156" lon="-1.905718"><ele>352.6</ele><time>2026-04-26T13:59:19.932Z</time></trkpt><trkpt lat="53.635769" lon="-1.9055553"><ele>351.8</ele><time>2026-04-26T13:59:20.929Z</time></trkpt><trkpt lat="53.6357245" lon="-1.9053832"><ele>351.0</ele><time>2026-04-26T13:59:21.932Z</time></trkpt><trkpt lat="53.6356849" lon="-1.9052094"><ele>350.20000000000005</ele><time>2026-04-26T13:59:22.934Z</time></trkpt><trkpt lat="53.6356433" lon="-1.9050422"><ele>349.40000000000003</ele><time>2026-04-26T13:59:23.934Z</time></trkpt><trkpt lat="53.6356012" lon="-1.9048747"><ele>348.6</ele><time>2026-04-26T13:59:24.93Z</time></trkpt><trkpt lat="53.6355548" lon="-1.904705"><ele>347.8</ele><time>2026-04-26T13:59:25.925Z</time></trkpt><trkpt lat="53.6355054" lon="-1.9045406"><ele>347.0</ele><time>2026-04-26T13:59:26.927Z</time></trkpt><trkpt lat="53.6354559" lon="-1.9043729"><ele>346.6</ele><time>2026-04-26T13:59:27.925Z</time></trkpt><trkpt lat="53.6354063" lon="-1.9042055"><ele>346.20000000000005</ele><time>2026-04-26T13:59:28.925Z</time></trkpt><trkpt lat="53.6353553" lon="-1.9040332"><ele>345.8</ele><time>2026-04-26T13:59:29.925Z</time></trkpt><trkpt lat="53.6353096" lon="-1.9038701"><ele>345.4</ele><time>2026-04-26T13:59:30.928Z</time></trkpt><trkpt lat="53.6352718" lon="-1.9037213"><ele>345.0</ele><time>2026-04-26T13:59:31.931Z</time></trkpt><trkpt lat="53.635235" lon="-1.9035855"><ele>343.0</ele><time>2026-04-26T13:59:32.931Z</time></trkpt><trkpt lat="53.6351971" lon="-1.9034444"><ele>341.0</ele><time>2026-04-26T13:59:33.931Z</time></trkpt><trkpt lat="53.6351558" lon="-1.9033037"><ele>339.0</ele><time>2026-04-26T13:59:34.929Z</time></trkpt><trkpt lat="53.6351115" lon="-1.9031609"><ele>337.0</ele><time>2026-04-26T13:59:35.93Z</time></trkpt><trkpt lat="53.6350684" lon="-1.9030076"><ele>335.0</ele><time>2026-04-26T13:59:36.93Z</time></trkpt><trkpt lat="53.6350235" lon="-1.9028512"><ele>335.0</ele><time>2026-04-26T13:59:37.933Z</time></trkpt><trkpt lat="53.6349744" lon="-1.9027019"><ele>335.0</ele><time>2026-04-26T13:59:38.931Z</time></trkpt><trkpt lat="53.6349324" lon="-1.9025674"><ele>335.0</ele><time>2026-04-26T13:59:39.928Z</time></trkpt><trkpt lat="53.6348914" lon="-1.9024543"><ele>335.0</ele><time>2026-04-26T13:59:40.928Z</time></trkpt><trkpt lat="53.6348314" lon="-1.902308"><ele>335.0</ele><time>2026-04-26T13:59:42.926Z</time></trkpt><trkpt lat="53.6347887" lon="-1.9021555"><ele>335.0</ele><time>2026-04-26T13:59:46.926Z</time></trkpt><trkpt lat="53.6347552" lon="-1.9020457"><ele>335.0</ele><time>2026-04-26T13:59:47.926Z</time></trkpt><trkpt lat="53.6347186" lon="-1.9019018"><ele>335.0</ele><time>2026-04-26T13:59:48.926Z</time></trkpt><trkpt lat="53.634689" lon="-1.9017497"><ele>335.0</ele><time>2026-04-26T13:59:49.928Z</time></trkpt><trkpt lat="53.6346681" lon="-1.9016103"><ele>335.0</ele><time>2026-04-26T13:59:50.926Z</time></trkpt><trkpt lat="53.6346527" lon="-1.9014916"><ele>335.0</ele><time>2026-04-26T13:59:51.924Z</time></trkpt><trkpt lat="53.634654" lon="-1.9012829"><ele>335.0</ele><time>2026-04-26T13:59:53.926Z</time></trkpt><trkpt lat="53.6346869" lon="-1.9011657"><ele>335.0</ele><time>2026-04-26T13:59:54.925Z</time></trkpt><trkpt lat="53.6347381" lon="-1.9010348"><ele>335.0</ele><time>2026-04-26T13:59:55.925Z</time></trkpt><trkpt lat="53.6347915" lon="-1.9008853"><ele>335.0</ele><time>2026-04-26T13:59:56.924Z</time></trkpt><trkpt lat="53.6348539" lon="-1.9007373"><ele>335.0</ele><time>2026-04-26T13:59:57.923Z</time></trkpt><trkpt lat="53.6349244" lon="-1.9005722"><ele>334.75</ele><time>2026-04-26T13:59:58.925Z</time></trkpt><trkpt lat="53.634999" lon="-1.9003987"><ele>334.5</ele><time>2026-04-26T13:59:59.924Z</time></trkpt><trkpt lat="53.6350791" lon="-1.900226"><ele>334.25</ele><time>2026-04-26T14:00:00.925Z</time></trkpt><trkpt lat="53.635165" lon="-1.9000548"><ele>334.0</ele><time>2026-04-26T14:00:01.915Z</time></trkpt><trkpt lat="53.6352453" lon="-1.8998753"><ele>335.25</ele><time>2026-04-26T14:00:02.92Z</time></trkpt><trkpt lat="53.6353157" lon="-1.8996935"><ele>336.5</ele><time>2026-04-26T14:00:03.926Z</time></trkpt><trkpt lat="53.6353775" lon="-1.8994996"><ele>337.75</ele><time>2026-04-26T14:00:04.924Z</time></trkpt><trkpt lat="53.635438" lon="-1.8992961"><ele>339.0</ele><time>2026-04-26T14:00:05.924Z</time></trkpt><trkpt lat="53.635503" lon="-1.8990872"><ele>339.0</ele><time>2026-04-26T14:00:06.925Z</time></trkpt><trkpt lat="53.6355699" lon="-1.8988578"><ele>339.0</ele><time>2026-04-26T14:00:07.923Z</time></trkpt><trkpt lat="53.6356365" lon="-1.8986308"><ele>339.0</ele><time>2026-04-26T14:00:08.925Z</time></trkpt><trkpt lat="53.6357034" lon="-1.8984237"><ele>339.0</ele><time>2026-04-26T14:00:09.926Z</time></trkpt><trkpt lat="53.6357732" lon="-1.898234"><ele>339.0</ele><time>2026-04-26T14:00:10.927Z</time></trkpt><trkpt lat="53.6358413" lon="-1.8980424"><ele>339.0</ele><time>2026-04-26T14:00:11.927Z</time></trkpt><trkpt lat="53.6359123" lon="-1.897844"><ele>339.0</ele><time>2026-04-26T14:00:12.925Z</time></trkpt><trkpt lat="53.6359899" lon="-1.8976322"><ele>339.0</ele><time>2026-04-26T14:00:13.926Z</time></trkpt><trkpt lat="53.6360675" lon="-1.8973925"><ele>339.0</ele><time>2026-04-26T14:00:14.927Z</time></trkpt><trkpt lat="53.6361431" lon="-1.8971214"><ele>339.0</ele><time>2026-04-26T14:00:15.927Z</time></trkpt><trkpt lat="53.6362181" lon="-1.8968227"><ele>339.0</ele><time>2026-04-26T14:00:16.927Z</time></trkpt><trkpt lat="53.636296" lon="-1.8965137"><ele>339.0</ele><time>2026-04-26T14:00:17.925Z</time></trkpt><trkpt lat="53.6363788" lon="-1.8961972"><ele>339.0</ele><time>2026-04-26T14:00:18.925Z</time></trkpt><trkpt lat="53.636465" lon="-1.8958783"><ele>339.0</ele><time>2026-04-26T14:00:19.927Z</time></trkpt><trkpt lat="53.6365556" lon="-1.8955616"><ele>339.0</ele><time>2026-04-26T14:00:20.928Z</time></trkpt><trkpt lat="53.6366364" lon="-1.8952463"><ele>339.0</ele><time>2026-04-26T14:00:21.927Z</time></trkpt><trkpt lat="53.6367092" lon="-1.8949365"><ele>339.0</ele><time>2026-04-26T14:00:22.925Z</time></trkpt><trkpt lat="53.6367767" lon="-1.8946419"><ele>339.0</ele><time>2026-04-26T14:00:23.93Z</time></trkpt><trkpt lat="53.6368391" lon="-1.8943483"><ele>339.0</ele><time>2026-04-26T14:00:24.927Z</time></trkpt><trkpt lat="53.6368956" lon="-1.894056"><ele>339.0</ele><time>2026-04-26T14:00:25.927Z</time></trkpt><trkpt lat="53.6369435" lon="-1.8937578"><ele>339.0</ele><time>2026-04-26T14:00:26.926Z</time></trkpt><trkpt lat="53.6369881" lon="-1.8934526"><ele>339.0</ele><time>2026-04-26T14:00:27.926Z</time></trkpt><trkpt lat="53.6370333" lon="-1.8931452"><ele>339.0</ele><time>2026-04-26T14:00:28.926Z</time></trkpt><trkpt lat="53.6370737" lon="-1.8928315"><ele>339.0</ele><time>2026-04-26T14:00:29.927Z</time></trkpt><trkpt lat="53.6371161" lon="-1.8925068"><ele>339.0</ele><time>2026-04-26T14:00:30.926Z</time></trkpt><trkpt lat="53.637163" lon="-1.8921834"><ele>339.0</ele><time>2026-04-26T14:00:31.926Z</time></trkpt><trkpt lat="53.637212" lon="-1.8918667"><ele>338.6666666666667</ele><time>2026-04-26T14:00:32.92Z</time></trkpt><trkpt lat="53.637263" lon="-1.8915667"><ele>338.33333333333337</ele><time>2026-04-26T14:00:33.928Z</time></trkpt><trkpt lat="53.6373131" lon="-1.891266"><ele>338.0</ele><time>2026-04-26T14:00:34.926Z</time></trkpt><trkpt lat="53.6373636" lon="-1.8909557"><ele>337.33333333333337</ele><time>2026-04-26T14:00:35.922Z</time></trkpt><trkpt lat="53.6374107" lon="-1.8906393"><ele>336.6666666666667</ele><time>2026-04-26T14:00:36.927Z</time></trkpt><trkpt lat="53.6374611" lon="-1.8903185"><ele>336.0</ele><time>2026-04-26T14:00:37.924Z</time></trkpt><trkpt lat="53.6375129" lon="-1.889993"><ele>335.6666666666667</ele><time>2026-04-26T14:00:38.923Z</time></trkpt><trkpt lat="53.6375638" lon="-1.8896678"><ele>335.33333333333337</ele><time>2026-04-26T14:00:39.927Z</time></trkpt><trkpt lat="53.6376143" lon="-1.8893475"><ele>335.0</ele><time>2026-04-26T14:00:40.929Z</time></trkpt><trkpt lat="53.6376652" lon="-1.8890308"><ele>335.0</ele><time>2026-04-26T14:00:41.926Z</time></trkpt><trkpt lat="53.6377147" lon="-1.8887172"><ele>335.0</ele><time>2026-04-26T14:00:42.926Z</time></trkpt><trkpt lat="53.6377655" lon="-1.8884132"><ele>335.0</ele><time>2026-04-26T14:00:43.93Z</time></trkpt><trkpt lat="53.6378147" lon="-1.8881243"><ele>334.0</ele><time>2026-04-26T14:00:44.927Z</time></trkpt><trkpt lat="53.6378613" lon="-1.8878579"><ele>333.0</ele><time>2026-04-26T14:00:45.926Z</time></trkpt><trkpt lat="53.6379009" lon="-1.8876162"><ele>332.0</ele><time>2026-04-26T14:00:46.925Z</time></trkpt><trkpt lat="53.6379323" lon="-1.887406"><ele>331.0</ele><time>2026-04-26T14:00:47.926Z</time></trkpt><trkpt lat="53.6379463" lon="-1.8872294"><ele>331.0</ele><time>2026-04-26T14:00:48.925Z</time></trkpt><trkpt lat="53.6379461" lon="-1.887079"><ele>331.0</ele><time>2026-04-26T14:00:49.925Z</time></trkpt><trkpt lat="53.6379232" lon="-1.8869243"><ele>331.0</ele><time>2026-04-26T14:00:50.927Z</time></trkpt><trkpt lat="53.6378786" lon="-1.8867581"><ele>331.0</ele><time>2026-04-26T14:00:51.926Z</time></trkpt><trkpt lat="53.6378161" lon="-1.8865768"><ele>331.0</ele><time>2026-04-26T14:00:52.927Z</time></trkpt><trkpt lat="53.6377467" lon="-1.8863784"><ele>331.0</ele><time>2026-04-26T14:00:53.934Z</time></trkpt><trkpt lat="53.6376739" lon="-1.8861537"><ele>331.0</ele><time>2026-04-26T14:00:54.927Z</time></trkpt><trkpt lat="53.6375979" lon="-1.8859198"><ele>331.0</ele><time>2026-04-26T14:00:55.926Z</time></trkpt><trkpt lat="53.6375091" lon="-1.8856761"><ele>330.66666666666663</ele><time>2026-04-26T14:00:56.922Z</time></trkpt><trkpt lat="53.6374158" lon="-1.8854335"><ele>330.3333333333333</ele><time>2026-04-26T14:00:57.919Z</time></trkpt><trkpt lat="53.6373348" lon="-1.8851863"><ele>330.0</ele><time>2026-04-26T14:00:58.928Z</time></trkpt><trkpt lat="53.6372567" lon="-1.8849439"><ele>329.0</ele><time>2026-04-26T14:00:59.927Z</time></trkpt><trkpt lat="53.6371831" lon="-1.8847176"><ele>328.0</ele><time>2026-04-26T14:01:00.928Z</time></trkpt><trkpt lat="53.6371089" lon="-1.8844958"><ele>327.0</ele><time>2026-04-26T14:01:01.93Z</time></trkpt><trkpt lat="53.6370338" lon="-1.8842719"><ele>325.5</ele><time>2026-04-26T14:01:02.925Z</time></trkpt><trkpt lat="53.6369594" lon="-1.8840516"><ele>324.0</ele><time>2026-04-26T14:01:03.928Z</time></trkpt><trkpt lat="53.6368913" lon="-1.8838497"><ele>322.5</ele><time>2026-04-26T14:01:04.927Z</time></trkpt><trkpt lat="53.6368319" lon="-1.8836745"><ele>321.0</ele><time>2026-04-26T14:01:05.927Z</time></trkpt><trkpt lat="53.6367787" lon="-1.8835256"><ele>320.40000000000003</ele><time>2026-04-26T14:01:06.926Z</time></trkpt><trkpt lat="53.6367319" lon="-1.8834056"><ele>319.8</ele><time>2026-04-26T14:01:07.924Z</time></trkpt><trkpt lat="53.6366917" lon="-1.8832999"><ele>319.20000000000005</ele><time>2026-04-26T14:01:08.927Z</time></trkpt><trkpt lat="53.636646" lon="-1.8831599"><ele>318.6</ele><time>2026-04-26T14:01:10.927Z</time></trkpt><trkpt lat="53.6366184" lon="-1.88304"><ele>318.0</ele><time>2026-04-26T14:02:53.924Z</time></trkpt><trkpt lat="53.636553" lon="-1.8828366"><ele>318.0</ele><time>2026-04-26T14:02:55.926Z</time></trkpt><trkpt lat="53.6365183" lon="-1.882729"><ele>318.0</ele><time>2026-04-26T14:02:56.926Z</time></trkpt><trkpt lat="53.6364873" lon="-1.8826315"><ele>318.0</ele><time>2026-04-26T14:02:57.927Z</time></trkpt><trkpt lat="53.6364606" lon="-1.8825321"><ele>318.0</ele><time>2026-04-26T14:02:58.924Z</time></trkpt><trkpt lat="53.6364209" lon="-1.8823557"><ele>318.0</ele><time>2026-04-26T14:03:00.924Z</time></trkpt><trkpt lat="53.6364354" lon="-1.8821885"><ele>318.0</ele><time>2026-04-26T14:03:02.919Z</time></trkpt><trkpt lat="53.6364757" lon="-1.8820828"><ele>317.4</ele><time>2026-04-26T14:03:03.929Z</time></trkpt><trkpt lat="53.6365249" lon="-1.8819523"><ele>316.8</ele><time>2026-04-26T14:03:04.928Z</time></trkpt><trkpt lat="53.636575" lon="-1.8818063"><ele>316.2</ele><time>2026-04-26T14:03:05.927Z</time></trkpt><trkpt lat="53.6366391" lon="-1.8816558"><ele>315.6</ele><time>2026-04-26T14:03:06.928Z</time></trkpt><trkpt lat="53.6366969" lon="-1.8815151"><ele>315.0</ele><time>2026-04-26T14:03:07.93Z</time></trkpt><trkpt lat="53.6367538" lon="-1.881398"><ele>314.0</ele><time>2026-04-26T14:03:08.93Z</time></trkpt><trkpt lat="53.6368179" lon="-1.8813046"><ele>313.0</ele><time>2026-04-26T14:03:09.927Z</time></trkpt><trkpt lat="53.6368923" lon="-1.8812434"><ele>312.0</ele><time>2026-04-26T14:03:10.927Z</time></trkpt><trkpt lat="53.6369638" lon="-1.8812061"><ele>311.0</ele><time>2026-04-26T14:03:11.926Z</time></trkpt><trkpt lat="53.6370396" lon="-1.8812099"><ele>310.0</ele><time>2026-04-26T14:03:12.928Z</time></trkpt><trkpt lat="53.6371087" lon="-1.8812515"><ele>309.0</ele><time>2026-04-26T14:03:13.927Z</time></trkpt><trkpt lat="53.6371758" lon="-1.8813181"><ele>309.4</ele><time>2026-04-26T14:03:14.927Z</time></trkpt><trkpt lat="53.6372445" lon="-1.8813972"><ele>309.79999999999995</ele><time>2026-04-26T14:03:15.926Z</time></trkpt><trkpt lat="53.637317" lon="-1.8814873"><ele>310.20000000000005</ele><time>2026-04-26T14:03:16.927Z</time></trkpt><trkpt lat="53.6373914" lon="-1.8815882"><ele>310.6</ele><time>2026-04-26T14:03:17.929Z</time></trkpt><trkpt lat="53.6374668" lon="-1.8816885"><ele>311.0</ele><time>2026-04-26T14:03:18.928Z</time></trkpt><trkpt lat="53.6375406" lon="-1.8817725"><ele>311.0</ele><time>2026-04-26T14:03:19.927Z</time></trkpt><trkpt lat="53.6376218" lon="-1.8818292"><ele>311.0</ele><time>2026-04-26T14:03:20.927Z</time></trkpt><trkpt lat="53.6377069" lon="-1.881873"><ele>311.0</ele><time>2026-04-26T14:03:21.927Z</time></trkpt><trkpt lat="53.6377938" lon="-1.8818926"><ele>311.0</ele><time>2026-04-26T14:03:22.927Z</time></trkpt><trkpt lat="53.6378723" lon="-1.8818771"><ele>311.0</ele><time>2026-04-26T14:03:23.931Z</time></trkpt><trkpt lat="53.6379452" lon="-1.8818158"><ele>311.0</ele><time>2026-04-26T14:03:24.924Z</time></trkpt><trkpt lat="53.6380166" lon="-1.8817027"><ele>307.25</ele><time>2026-04-26T14:03:25.916Z</time></trkpt><trkpt lat="53.6380852" lon="-1.881558"><ele>303.5</ele><time>2026-04-26T14:03:26.924Z</time></trkpt><trkpt lat="53.6381642" lon="-1.8814026"><ele>299.75</ele><time>2026-04-26T14:03:27.925Z</time></trkpt><trkpt lat="53.6382477" lon="-1.8812565"><ele>296.0</ele><time>2026-04-26T14:03:28.927Z</time></trkpt><trkpt lat="53.6383353" lon="-1.8811462"><ele>296.0</ele><time>2026-04-26T14:03:29.926Z</time></trkpt><trkpt lat="53.6384238" lon="-1.881076"><ele>296.0</ele><time>2026-04-26T14:03:30.925Z</time></trkpt><trkpt lat="53.6385089" lon="-1.8810163"><ele>296.0</ele><time>2026-04-26T14:03:31.928Z</time></trkpt><trkpt lat="53.6385946" lon="-1.8809626"><ele>296.0</ele><time>2026-04-26T14:03:32.926Z</time></trkpt><trkpt lat="53.638677" lon="-1.8809094"><ele>296.0</ele><time>2026-04-26T14:03:33.929Z</time></trkpt><trkpt lat="53.6387712" lon="-1.8808445"><ele>296.25</ele><time>2026-04-26T14:03:34.927Z</time></trkpt><trkpt lat="53.6388662" lon="-1.8807482"><ele>296.5</ele><time>2026-04-26T14:03:35.928Z</time></trkpt><trkpt lat="53.6389568" lon="-1.880616"><ele>296.75</ele><time>2026-04-26T14:03:36.928Z</time></trkpt><trkpt lat="53.6390443" lon="-1.8804484"><ele>297.0</ele><time>2026-04-26T14:03:37.92Z</time></trkpt><trkpt lat="53.6391344" lon="-1.8802669"><ele>297.0</ele><time>2026-04-26T14:03:38.93Z</time></trkpt><trkpt lat="53.63923" lon="-1.8801096"><ele>297.0</ele><time>2026-04-26T14:03:39.93Z</time></trkpt><trkpt lat="53.6393227" lon="-1.8799756"><ele>297.0</ele><time>2026-04-26T14:03:40.928Z</time></trkpt><trkpt lat="53.6393992" lon="-1.8798413"><ele>297.0</ele><time>2026-04-26T14:03:41.926Z</time></trkpt><trkpt lat="53.6394466" lon="-1.8796991"><ele>296.0</ele><time>2026-04-26T14:03:42.926Z</time></trkpt><trkpt lat="53.6394556" lon="-1.8795548"><ele>295.0</ele><time>2026-04-26T14:03:43.93Z</time></trkpt><trkpt lat="53.6394285" lon="-1.8794082"><ele>294.0</ele><time>2026-04-26T14:03:44.928Z</time></trkpt><trkpt lat="53.6393605" lon="-1.8792672"><ele>293.0</ele><time>2026-04-26T14:03:45.926Z</time></trkpt><trkpt lat="53.6392724" lon="-1.8791421"><ele>292.0</ele><time>2026-04-26T14:03:46.927Z</time></trkpt><trkpt lat="53.639176" lon="-1.879025"><ele>291.8333333333333</ele><time>2026-04-26T14:03:47.925Z</time></trkpt><trkpt lat="53.6390984" lon="-1.8789222"><ele>291.66666666666663</ele><time>2026-04-26T14:03:48.926Z</time></trkpt><trkpt lat="53.6390539" lon="-1.8788428"><ele>291.5</ele><time>2026-04-26T14:03:49.924Z</time></trkpt><trkpt lat="53.6391376" lon="-1.8787573"><ele>291.3333333333333</ele><time>2026-04-26T14:03:52.924Z</time></trkpt><trkpt lat="53.6392194" lon="-1.8787317"><ele>291.1666666666667</ele><time>2026-04-26T14:03:53.931Z</time></trkpt><trkpt lat="53.6393081" lon="-1.8786764"><ele>291.0</ele><time>2026-04-26T14:03:54.925Z</time></trkpt><trkpt lat="53.6394095" lon="-1.8785847"><ele>293.25</ele><time>2026-04-26T14:03:55.926Z</time></trkpt><trkpt lat="53.6395271" lon="-1.8784728"><ele>295.5</ele><time>2026-04-26T14:03:56.925Z</time></trkpt><trkpt lat="53.6396522" lon="-1.8783475"><ele>297.75</ele><time>2026-04-26T14:03:57.927Z</time></trkpt><trkpt lat="53.6397822" lon="-1.8782037"><ele>300.0</ele><time>2026-04-26T14:03:58.926Z</time></trkpt><trkpt lat="53.6399216" lon="-1.8780416"><ele>300.3333333333333</ele><time>2026-04-26T14:03:59.925Z</time></trkpt><trkpt lat="53.6400629" lon="-1.8778471"><ele>300.66666666666663</ele><time>2026-04-26T14:04:00.927Z</time></trkpt><trkpt lat="53.6401987" lon="-1.8776128"><ele>301.0</ele><time>2026-04-26T14:04:01.919Z</time></trkpt><trkpt lat="53.6403099" lon="-1.8773357"><ele>303.66666666666663</ele><time>2026-04-26T14:04:02.913Z</time></trkpt><trkpt lat="53.6403903" lon="-1.8770302"><ele>306.3333333333333</ele><time>2026-04-26T14:04:03.935Z</time></trkpt><trkpt lat="53.640435" lon="-1.8767142"><ele>309.0</ele><time>2026-04-26T14:04:04.927Z</time></trkpt><trkpt lat="53.6404709" lon="-1.8763924"><ele>310.3333333333333</ele><time>2026-04-26T14:04:05.926Z</time></trkpt><trkpt lat="53.6405252" lon="-1.8760683"><ele>311.66666666666663</ele><time>2026-04-26T14:04:06.928Z</time></trkpt><trkpt lat="53.6406073" lon="-1.8757599"><ele>313.0</ele><time>2026-04-26T14:04:07.928Z</time></trkpt><trkpt lat="53.6406942" lon="-1.8754998"><ele>314.0</ele><time>2026-04-26T14:04:08.926Z</time></trkpt><trkpt lat="53.6407606" lon="-1.8752918"><ele>315.0</ele><time>2026-04-26T14:04:09.926Z</time></trkpt><trkpt lat="53.640793" lon="-1.8751112"><ele>316.0</ele><time>2026-04-26T14:04:10.929Z</time></trkpt><trkpt lat="53.6407918" lon="-1.8749174"><ele>317.0</ele><time>2026-04-26T14:04:11.926Z</time></trkpt><trkpt lat="53.6407639" lon="-1.8746985"><ele>317.33333333333337</ele><time>2026-04-26T14:04:12.928Z</time></trkpt><trkpt lat="53.6407546" lon="-1.8744387"><ele>317.6666666666667</ele><time>2026-04-26T14:04:13.932Z</time></trkpt><trkpt lat="53.6407698" lon="-1.8741466"><ele>318.0</ele><time>2026-04-26T14:04:14.925Z</time></trkpt><trkpt lat="53.6407984" lon="-1.8738648"><ele>317.3333333333333</ele><time>2026-04-26T14:04:15.926Z</time></trkpt><trkpt lat="53.6408476" lon="-1.8735892"><ele>316.66666666666663</ele><time>2026-04-26T14:04:16.926Z</time></trkpt><trkpt lat="53.6409184" lon="-1.8733152"><ele>316.0</ele><time>2026-04-26T14:04:17.927Z</time></trkpt><trkpt lat="53.6410013" lon="-1.873041"><ele>316.66666666666663</ele><time>2026-04-26T14:04:18.926Z</time></trkpt><trkpt lat="53.6410869" lon="-1.8727645"><ele>317.3333333333333</ele><time>2026-04-26T14:04:19.926Z</time></trkpt><trkpt lat="53.6411761" lon="-1.8724841"><ele>318.0</ele><time>2026-04-26T14:04:20.926Z</time></trkpt><trkpt lat="53.6412701" lon="-1.8721942"><ele>318.0</ele><time>2026-04-26T14:04:21.926Z</time></trkpt><trkpt lat="53.6413722" lon="-1.8718999"><ele>318.0</ele><time>2026-04-26T14:04:22.926Z</time></trkpt><trkpt lat="53.6414758" lon="-1.8716017"><ele>318.0</ele><time>2026-04-26T14:04:23.927Z</time></trkpt><trkpt lat="53.6415735" lon="-1.8713112"><ele>314.6666666666667</ele><time>2026-04-26T14:04:24.925Z</time></trkpt><trkpt lat="53.6416661" lon="-1.8710328"><ele>311.33333333333337</ele><time>2026-04-26T14:04:25.925Z</time></trkpt><trkpt lat="53.6417546" lon="-1.8707633"><ele>308.0</ele><time>2026-04-26T14:04:26.924Z</time></trkpt><trkpt lat="53.6418298" lon="-1.870507"><ele>305.33333333333337</ele><time>2026-04-26T14:04:27.918Z</time></trkpt><trkpt lat="53.641884" lon="-1.8702546"><ele>302.6666666666667</ele><time>2026-04-26T14:04:28.927Z</time></trkpt><trkpt lat="53.6419176" lon="-1.8699867"><ele>300.0</ele><time>2026-04-26T14:04:29.926Z</time></trkpt><trkpt lat="53.6419395" lon="-1.8696959"><ele>302.3333333333333</ele><time>2026-04-26T14:04:30.923Z</time></trkpt><trkpt lat="53.6419612" lon="-1.8693954"><ele>304.66666666666663</ele><time>2026-04-26T14:04:31.926Z</time></trkpt><trkpt lat="53.6419877" lon="-1.8690835"><ele>307.0</ele><time>2026-04-26T14:04:32.925Z</time></trkpt><trkpt lat="53.6420131" lon="-1.8687593"><ele>307.0</ele><time>2026-04-26T14:04:33.931Z</time></trkpt><trkpt lat="53.642031" lon="-1.8684475"><ele>307.0</ele><time>2026-04-26T14:04:34.927Z</time></trkpt><trkpt lat="53.6420442" lon="-1.8681557"><ele>307.0</ele><time>2026-04-26T14:04:35.926Z</time></trkpt><trkpt lat="53.6420594" lon="-1.8678802"><ele>302.0</ele><time>2026-04-26T14:04:36.924Z</time></trkpt><trkpt lat="53.6420794" lon="-1.8676091"><ele>297.0</ele><time>2026-04-26T14:04:37.926Z</time></trkpt><trkpt lat="53.6421035" lon="-1.867341"><ele>292.0</ele><time>2026-04-26T14:04:38.927Z</time></trkpt><trkpt lat="53.6421418" lon="-1.8670884"><ele>292.0</ele><time>2026-04-26T14:04:39.926Z</time></trkpt><trkpt lat="53.6421912" lon="-1.8668471"><ele>292.0</ele><time>2026-04-26T14:04:40.924Z</time></trkpt><trkpt lat="53.642235" lon="-1.8666501"><ele>292.0</ele><time>2026-04-26T14:04:41.924Z</time></trkpt><trkpt lat="53.64225" lon="-1.8665061"><ele>292.0</ele><time>2026-04-26T14:04:42.926Z</time></trkpt><trkpt lat="53.6422368" lon="-1.8663799"><ele>292.0</ele><time>2026-04-26T14:04:43.929Z</time></trkpt><trkpt lat="53.6422058" lon="-1.8662376"><ele>290.25</ele><time>2026-04-26T14:04:44.925Z</time></trkpt><trkpt lat="53.642136" lon="-1.8660842"><ele>288.5</ele><time>2026-04-26T14:04:45.925Z</time></trkpt><trkpt lat="53.6420349" lon="-1.8659225"><ele>286.75</ele><time>2026-04-26T14:04:46.925Z</time></trkpt><trkpt lat="53.641913" lon="-1.8657572"><ele>285.0</ele><time>2026-04-26T14:04:47.924Z</time></trkpt><trkpt lat="53.6417688" lon="-1.8655786"><ele>278.3333333333333</ele><time>2026-04-26T14:04:48.927Z</time></trkpt><trkpt lat="53.6416125" lon="-1.8654018"><ele>271.66666666666663</ele><time>2026-04-26T14:04:49.929Z</time></trkpt><trkpt lat="53.6414726" lon="-1.8652386"><ele>265.0</ele><time>2026-04-26T14:04:50.928Z</time></trkpt><trkpt lat="53.6413477" lon="-1.8650747"><ele>264.5</ele><time>2026-04-26T14:04:51.927Z</time></trkpt><trkpt lat="53.6412453" lon="-1.8649107"><ele>264.0</ele><time>2026-04-26T14:04:52.928Z</time></trkpt><trkpt lat="53.6411679" lon="-1.86473"><ele>263.5</ele><time>2026-04-26T14:04:53.928Z</time></trkpt><trkpt lat="53.6411188" lon="-1.8645166"><ele>263.0</ele><time>2026-04-26T14:04:54.927Z</time></trkpt><trkpt lat="53.6410971" lon="-1.8642661"><ele>258.6666666666667</ele><time>2026-04-26T14:04:55.926Z</time></trkpt><trkpt lat="53.6410768" lon="-1.8639979"><ele>254.33333333333331</ele><time>2026-04-26T14:04:56.927Z</time></trkpt><trkpt lat="53.6410462" lon="-1.86372"><ele>250.0</ele><time>2026-04-26T14:04:57.925Z</time></trkpt><trkpt lat="53.6410197" lon="-1.8634248"><ele>249.0</ele><time>2026-04-26T14:04:58.914Z</time></trkpt><trkpt lat="53.6410012" lon="-1.8631214"><ele>248.0</ele><time>2026-04-26T14:04:59.918Z</time></trkpt><trkpt lat="53.6409855" lon="-1.8628152"><ele>247.0</ele><time>2026-04-26T14:05:00.918Z</time></trkpt><trkpt lat="53.6409667" lon="-1.8625092"><ele>246.0</ele><time>2026-04-26T14:05:01.924Z</time></trkpt><trkpt lat="53.6409429" lon="-1.8622155"><ele>245.0</ele><time>2026-04-26T14:05:02.925Z</time></trkpt><trkpt lat="53.6409304" lon="-1.8619265"><ele>244.0</ele><time>2026-04-26T14:05:03.928Z</time></trkpt><trkpt lat="53.6409338" lon="-1.8616299"><ele>242.33333333333331</ele><time>2026-04-26T14:05:04.928Z</time></trkpt><trkpt lat="53.6409455" lon="-1.8613267"><ele>240.66666666666669</ele><time>2026-04-26T14:05:05.928Z</time></trkpt><trkpt lat="53.6409493" lon="-1.8610242"><ele>239.0</ele><time>2026-04-26T14:05:06.925Z</time></trkpt><trkpt lat="53.6409474" lon="-1.8607255"><ele>237.66666666666669</ele><time>2026-04-26T14:05:07.927Z</time></trkpt><trkpt lat="53.6409418" lon="-1.8604291"><ele>236.33333333333331</ele><time>2026-04-26T14:05:08.927Z</time></trkpt><trkpt lat="53.6409338" lon="-1.8601316"><ele>235.0</ele><time>2026-04-26T14:05:09.925Z</time></trkpt><trkpt lat="53.6409239" lon="-1.8598331"><ele>233.33333333333331</ele><time>2026-04-26T14:05:10.928Z</time></trkpt><trkpt lat="53.6409126" lon="-1.8595497"><ele>231.66666666666669</ele><time>2026-04-26T14:05:11.925Z</time></trkpt><trkpt lat="53.6409045" lon="-1.8592853"><ele>230.0</ele><time>2026-04-26T14:05:12.925Z</time></trkpt><trkpt lat="53.6408964" lon="-1.8590377"><ele>229.0</ele><time>2026-04-26T14:05:13.922Z</time></trkpt><trkpt lat="53.640885" lon="-1.8588046"><ele>228.0</ele><time>2026-04-26T14:05:14.925Z</time></trkpt><trkpt lat="53.6408723" lon="-1.8585773"><ele>227.0</ele><time>2026-04-26T14:05:15.925Z</time></trkpt><trkpt lat="53.6408622" lon="-1.8583626"><ele>226.0</ele><time>2026-04-26T14:05:16.926Z</time></trkpt><trkpt lat="53.6408544" lon="-1.8581775"><ele>225.33333333333331</ele><time>2026-04-26T14:05:17.928Z</time></trkpt><trkpt lat="53.6408456" lon="-1.8580242"><ele>224.66666666666666</ele><time>2026-04-26T14:05:18.918Z</time></trkpt><trkpt lat="53.6408344" lon="-1.8578937"><ele>224.0</ele><time>2026-04-26T14:05:19.925Z</time></trkpt><trkpt lat="53.6408166" lon="-1.8577686"><ele>223.33333333333331</ele><time>2026-04-26T14:05:20.926Z</time></trkpt><trkpt lat="53.6407946" lon="-1.8576419"><ele>222.66666666666666</ele><time>2026-04-26T14:05:21.927Z</time></trkpt><trkpt lat="53.6407678" lon="-1.8575099"><ele>222.0</ele><time>2026-04-26T14:05:22.918Z</time></trkpt><trkpt lat="53.6407386" lon="-1.857369"><ele>221.6</ele><time>2026-04-26T14:05:23.929Z</time></trkpt><trkpt lat="53.6407083" lon="-1.857234"><ele>221.2</ele><time>2026-04-26T14:05:24.916Z</time></trkpt><trkpt lat="53.6406907" lon="-1.8571073"><ele>220.8</ele><time>2026-04-26T14:05:25.926Z</time></trkpt><trkpt lat="53.6407588" lon="-1.8569386"><ele>220.4</ele><time>2026-04-26T14:05:27.921Z</time></trkpt><trkpt lat="53.6408395" lon="-1.8568797"><ele>220.0</ele><time>2026-04-26T14:05:28.928Z</time></trkpt><trkpt lat="53.6409148" lon="-1.8568017"><ele>219.8</ele><time>2026-04-26T14:05:29.92Z</time></trkpt><trkpt lat="53.6409853" lon="-1.8566977"><ele>219.6</ele><time>2026-04-26T14:05:30.927Z</time></trkpt><trkpt lat="53.6410589" lon="-1.8565854"><ele>219.39999999999998</ele><time>2026-04-26T14:05:31.927Z</time></trkpt><trkpt lat="53.6411316" lon="-1.8564703"><ele>219.2</ele><time>2026-04-26T14:05:32.926Z</time></trkpt><trkpt lat="53.6411996" lon="-1.8563482"><ele>219.0</ele><time>2026-04-26T14:05:33.928Z</time></trkpt><trkpt lat="53.6412688" lon="-1.8562272"><ele>219.0</ele><time>2026-04-26T14:05:34.925Z</time></trkpt><trkpt lat="53.6413382" lon="-1.856104"><ele>218.99999999999997</ele><time>2026-04-26T14:05:35.926Z</time></trkpt><trkpt lat="53.6414044" lon="-1.8559707"><ele>218.99999999999997</ele><time>2026-04-26T14:05:36.926Z</time></trkpt><trkpt lat="53.6414666" lon="-1.8558338"><ele>219.0</ele><time>2026-04-26T14:05:37.927Z</time></trkpt><trkpt lat="53.641534" lon="-1.8556935"><ele>219.0</ele><time>2026-04-26T14:05:38.919Z</time></trkpt><trkpt lat="53.6416033" lon="-1.8555548"><ele>218.2</ele><time>2026-04-26T14:05:39.927Z</time></trkpt><trkpt lat="53.6416708" lon="-1.8554119"><ele>217.39999999999998</ele><time>2026-04-26T14:05:40.928Z</time></trkpt><trkpt lat="53.641731" lon="-1.8552694"><ele>216.6</ele><time>2026-04-26T14:05:41.925Z</time></trkpt><trkpt lat="53.6417939" lon="-1.8551284"><ele>215.8</ele><time>2026-04-26T14:05:42.927Z</time></trkpt><trkpt lat="53.6418592" lon="-1.8549892"><ele>215.0</ele><time>2026-04-26T14:05:43.932Z</time></trkpt><trkpt lat="53.6419225" lon="-1.8548501"><ele>214.2</ele><time>2026-04-26T14:05:44.927Z</time></trkpt><trkpt lat="53.6419863" lon="-1.8547136"><ele>213.4</ele><time>2026-04-26T14:05:45.927Z</time></trkpt><trkpt lat="53.6420471" lon="-1.8545786"><ele>212.60000000000002</ele><time>2026-04-26T14:05:46.926Z</time></trkpt><trkpt lat="53.6421094" lon="-1.8544417"><ele>211.8</ele><time>2026-04-26T14:05:47.929Z</time></trkpt><trkpt lat="53.6421733" lon="-1.8542957"><ele>211.0</ele><time>2026-04-26T14:05:48.927Z</time></trkpt><trkpt lat="53.6422413" lon="-1.8541461"><ele>210.8</ele><time>2026-04-26T14:05:49.929Z</time></trkpt><trkpt lat="53.6423118" lon="-1.8540043"><ele>210.60000000000002</ele><time>2026-04-26T14:05:50.927Z</time></trkpt><trkpt lat="53.6423919" lon="-1.8538855"><ele>210.4</ele><time>2026-04-26T14:05:51.93Z</time></trkpt><trkpt lat="53.6424889" lon="-1.8538089"><ele>210.2</ele><time>2026-04-26T14:05:52.93Z</time></trkpt><trkpt lat="53.6425986" lon="-1.85378"><ele>210.0</ele><time>2026-04-26T14:05:53.933Z</time></trkpt><trkpt lat="53.6427093" lon="-1.8537938"><ele>209.8</ele><time>2026-04-26T14:05:54.926Z</time></trkpt><trkpt lat="53.6428214" lon="-1.8538001"><ele>209.6</ele><time>2026-04-26T14:05:55.93Z</time></trkpt><trkpt lat="53.6429341" lon="-1.8538087"><ele>209.39999999999998</ele><time>2026-04-26T14:05:56.928Z</time></trkpt><trkpt lat="53.643046" lon="-1.8538312"><ele>209.2</ele><time>2026-04-26T14:05:57.929Z</time></trkpt><trkpt lat="53.6431505" lon="-1.853884"><ele>209.0</ele><time>2026-04-26T14:05:58.93Z</time></trkpt><trkpt lat="53.6432504" lon="-1.8539643"><ele>209.00000000000003</ele><time>2026-04-26T14:05:59.928Z</time></trkpt><trkpt lat="53.6433482" lon="-1.8540624"><ele>209.0</ele><time>2026-04-26T14:06:00.93Z</time></trkpt><trkpt lat="53.6434379" lon="-1.8541559"><ele>209.0</ele><time>2026-04-26T14:06:01.921Z</time></trkpt><trkpt lat="53.6435107" lon="-1.8542318"><ele>209.0</ele><time>2026-04-26T14:06:02.928Z</time></trkpt><trkpt lat="53.643566" lon="-1.8542918"><ele>209.00000000000003</ele><time>2026-04-26T14:06:03.935Z</time></trkpt><trkpt lat="53.6436323" lon="-1.8543482"><ele>209.0</ele><time>2026-04-26T14:06:05.929Z</time></trkpt><trkpt lat="53.6437059" lon="-1.8542811"><ele>208.83333333333334</ele><time>2026-04-26T14:06:07.926Z</time></trkpt><trkpt lat="53.6437475" lon="-1.8541879"><ele>208.66666666666669</ele><time>2026-04-26T14:06:08.928Z</time></trkpt><trkpt lat="53.6437904" lon="-1.8540707"><ele>208.5</ele><time>2026-04-26T14:06:09.93Z</time></trkpt><trkpt lat="53.6438274" lon="-1.8539348"><ele>208.33333333333331</ele><time>2026-04-26T14:06:10.931Z</time></trkpt><trkpt lat="53.643852" lon="-1.8537767"><ele>208.16666666666666</ele><time>2026-04-26T14:06:11.926Z</time></trkpt><trkpt lat="53.6438825" lon="-1.8536231"><ele>208.0</ele><time>2026-04-26T14:06:12.928Z</time></trkpt><trkpt lat="53.6439188" lon="-1.8534897"><ele>208.0</ele><time>2026-04-26T14:06:13.935Z</time></trkpt><trkpt lat="53.6439308" lon="-1.85338"><ele>208.0</ele><time>2026-04-26T14:06:14.931Z</time></trkpt><trkpt lat="53.6438405" lon="-1.8532372"><ele>208.0</ele><time>2026-04-26T14:06:16.927Z</time></trkpt><trkpt lat="53.6437652" lon="-1.8531645"><ele>208.0</ele><time>2026-04-26T14:06:17.928Z</time></trkpt><trkpt lat="53.6436821" lon="-1.8530841"><ele>208.0</ele><time>2026-04-26T14:06:18.927Z</time></trkpt><trkpt lat="53.6436" lon="-1.8529895"><ele>208.0</ele><time>2026-04-26T14:06:19.928Z</time></trkpt><trkpt lat="53.6435186" lon="-1.8528912"><ele>208.0</ele><time>2026-04-26T14:06:20.928Z</time></trkpt><trkpt lat="53.643458" lon="-1.8527833"><ele>208.0</ele><time>2026-04-26T14:06:21.928Z</time></trkpt><trkpt lat="53.6434188" lon="-1.8526734"><ele>208.0</ele><time>2026-04-26T14:06:22.928Z</time></trkpt><trkpt lat="53.6433941" lon="-1.8524999"><ele>208.0</ele><time>2026-04-26T14:06:24.929Z</time></trkpt><trkpt lat="53.6434211" lon="-1.8523646"><ele>207.4</ele><time>2026-04-26T14:06:26.922Z</time></trkpt><trkpt lat="53.6434608" lon="-1.8522688"><ele>206.8</ele><time>2026-04-26T14:06:27.929Z</time></trkpt><trkpt lat="53.643512" lon="-1.8521483"><ele>206.2</ele><time>2026-04-26T14:06:28.928Z</time></trkpt><trkpt lat="53.6435662" lon="-1.8519916"><ele>205.6</ele><time>2026-04-26T14:06:29.928Z</time></trkpt><trkpt lat="53.6436261" lon="-1.8518145"><ele>205.0</ele><time>2026-04-26T14:06:30.929Z</time></trkpt><trkpt lat="53.6436935" lon="-1.8516206"><ele>204.0</ele><time>2026-04-26T14:06:31.928Z</time></trkpt><trkpt lat="53.6437614" lon="-1.851442"><ele>203.0</ele><time>2026-04-26T14:06:32.928Z</time></trkpt><trkpt lat="53.6438214" lon="-1.8512815"><ele>202.0</ele><time>2026-04-26T14:06:33.936Z</time></trkpt><trkpt lat="53.643876" lon="-1.851115"><ele>201.0</ele><time>2026-04-26T14:06:34.933Z</time></trkpt><trkpt lat="53.6439385" lon="-1.8509289"><ele>200.5</ele><time>2026-04-26T14:06:35.933Z</time></trkpt><trkpt lat="53.6440148" lon="-1.8507234"><ele>200.0</ele><time>2026-04-26T14:06:36.932Z</time></trkpt><trkpt lat="53.6440855" lon="-1.8505157"><ele>199.5</ele><time>2026-04-26T14:06:37.93Z</time></trkpt><trkpt lat="53.6441555" lon="-1.8503087"><ele>199.0</ele><time>2026-04-26T14:06:38.927Z</time></trkpt><trkpt lat="53.6442202" lon="-1.8500967"><ele>198.75</ele><time>2026-04-26T14:06:39.925Z</time></trkpt><trkpt lat="53.6442727" lon="-1.8498686"><ele>198.5</ele><time>2026-04-26T14:06:40.929Z</time></trkpt><trkpt lat="53.6443183" lon="-1.8496357"><ele>198.25</ele><time>2026-04-26T14:06:41.932Z</time></trkpt><trkpt lat="53.6443595" lon="-1.8494162"><ele>198.0</ele><time>2026-04-26T14:06:42.934Z</time></trkpt><trkpt lat="53.6444039" lon="-1.8492133"><ele>197.4</ele><time>2026-04-26T14:06:43.935Z</time></trkpt><trkpt lat="53.6444447" lon="-1.8490174"><ele>196.8</ele><time>2026-04-26T14:06:44.931Z</time></trkpt><trkpt lat="53.6444811" lon="-1.8488344"><ele>196.2</ele><time>2026-04-26T14:06:45.929Z</time></trkpt><trkpt lat="53.6445159" lon="-1.8486635"><ele>195.6</ele><time>2026-04-26T14:06:46.931Z</time></trkpt><trkpt lat="53.6445481" lon="-1.8485048"><ele>195.0</ele><time>2026-04-26T14:06:47.932Z</time></trkpt><trkpt lat="53.6445757" lon="-1.8483563"><ele>194.33333333333334</ele><time>2026-04-26T14:06:48.933Z</time></trkpt><trkpt lat="53.6445958" lon="-1.848226"><ele>193.66666666666666</ele><time>2026-04-26T14:06:49.928Z</time></trkpt><trkpt lat="53.6445643" lon="-1.8480632"><ele>193.0</ele><time>2026-04-26T14:06:51.928Z</time></trkpt><trkpt lat="53.6445003" lon="-1.8480261"><ele>192.33333333333331</ele><time>2026-04-26T14:06:52.927Z</time></trkpt><trkpt lat="53.6444206" lon="-1.8480022"><ele>191.66666666666666</ele><time>2026-04-26T14:06:53.92Z</time></trkpt><trkpt lat="53.6443426" lon="-1.847978"><ele>191.0</ele><time>2026-04-26T14:06:54.929Z</time></trkpt><trkpt lat="53.6442753" lon="-1.8479438"><ele>191.0</ele><time>2026-04-26T14:06:55.927Z</time></trkpt><trkpt lat="53.6442138" lon="-1.8479092"><ele>191.0</ele><time>2026-04-26T14:06:56.928Z</time></trkpt><trkpt lat="53.6441031" lon="-1.8478618"><ele>191.0</ele><time>2026-04-26T14:06:58.929Z</time></trkpt><trkpt lat="53.644024" lon="-1.847821"><ele>191.0</ele><time>2026-04-26T14:07:00.928Z</time></trkpt><trkpt lat="53.6439585" lon="-1.8477388"><ele>191.0</ele><time>2026-04-26T14:07:03.933Z</time></trkpt><trkpt lat="53.6439395" lon="-1.8476337"><ele>191.0</ele><time>2026-04-26T14:07:05.929Z</time></trkpt><trkpt lat="53.6439515" lon="-1.8474876"><ele>190.16666666666666</ele><time>2026-04-26T14:07:07.931Z</time></trkpt><trkpt lat="53.6439775" lon="-1.8473403"><ele>189.33333333333331</ele><time>2026-04-26T14:07:09.927Z</time></trkpt><trkpt lat="53.6440082" lon="-1.8472097"><ele>188.5</ele><time>2026-04-26T14:07:11.926Z</time></trkpt><trkpt lat="53.6440542" lon="-1.8470985"><ele>187.66666666666666</ele><time>2026-04-26T14:07:13.931Z</time></trkpt><trkpt lat="53.6440896" lon="-1.8469783"><ele>186.83333333333334</ele><time>2026-04-26T14:07:15.928Z</time></trkpt><trkpt lat="53.6441227" lon="-1.8468381"><ele>186.0</ele><time>2026-04-26T14:07:17.929Z</time></trkpt><trkpt lat="53.6441553" lon="-1.8467107"><ele>185.5</ele><time>2026-04-26T14:07:19.931Z</time></trkpt><trkpt lat="53.6441904" lon="-1.8465862"><ele>185.0</ele><time>2026-04-26T14:07:21.93Z</time></trkpt><trkpt lat="53.6442195" lon="-1.8464613"><ele>184.5</ele><time>2026-04-26T14:07:23.935Z</time></trkpt><trkpt lat="53.6442509" lon="-1.8463418"><ele>184.0</ele><time>2026-04-26T14:07:25.928Z</time></trkpt><trkpt lat="53.6442832" lon="-1.8462224"><ele>183.5</ele><time>2026-04-26T14:07:27.928Z</time></trkpt><trkpt lat="53.6443282" lon="-1.8461227"><ele>183.0</ele><time>2026-04-26T14:07:29.93Z</time></trkpt><trkpt lat="53.6443937" lon="-1.8461221"><ele>183.0</ele><time>2026-04-26T14:07:32.929Z</time></trkpt></trkseg></trk></gpx>